<?xml version="1.0" encoding="UTF-8" standalone="no" ?>
<gpx xmlns="http://www.topografix.com/GPX/1/1" xmlns:xsi="http://www.w3.org/2001/XMLSchema-instance" xsi:schemaLocation="http://www.topografix.com/GPX/1/1 http://www.topografix.com/GPX/1/1/gpx.xsd" version="1.1" creator="VisuGPX - https://www.visugpx.com">
  <metadata>
    <name>* Le circuit de grenon *</name>
  </metadata>
  <trk>
    <name><![CDATA[* Le circuit de grenon *]]></name>
    <extensions>
      <line xmlns="http://www.topografix.com/GPX/gpx_style/0/2">
        <color>0000FF</color>
        <width>4</width>
      </line>
    </extensions>
    <trkseg>
      <trkpt lat="46.99411" lon="-0.95977">
        <ele>75.1</ele>
        <time>2025-08-25T09:17:48Z</time>
      </trkpt>
      <trkpt lat="46.99411" lon="-0.95977">
        <ele>75.1</ele>
        <time>2025-08-25T09:17:49Z</time>
      </trkpt>
      <trkpt lat="46.99413" lon="-0.95976">
        <ele>75.2</ele>
        <time>2025-08-25T09:17:50Z</time>
      </trkpt>
      <trkpt lat="46.99414" lon="-0.95976">
        <ele>75.3</ele>
        <time>2025-08-25T09:17:51Z</time>
      </trkpt>
      <trkpt lat="46.99415" lon="-0.95977">
        <ele>75.4</ele>
        <time>2025-08-25T09:17:52Z</time>
      </trkpt>
      <trkpt lat="46.99416" lon="-0.95977">
        <ele>75.5</ele>
        <time>2025-08-25T09:17:53Z</time>
      </trkpt>
      <trkpt lat="46.99416" lon="-0.95977">
        <ele>75.5</ele>
        <time>2025-08-25T09:17:54Z</time>
      </trkpt>
      <trkpt lat="46.99416" lon="-0.95977">
        <ele>75.5</ele>
        <time>2025-08-25T09:17:55Z</time>
      </trkpt>
      <trkpt lat="46.99416" lon="-0.95977">
        <ele>75.5</ele>
        <time>2025-08-25T09:17:56Z</time>
      </trkpt>
      <trkpt lat="46.99416" lon="-0.95977">
        <ele>75.5</ele>
        <time>2025-08-25T09:17:57Z</time>
      </trkpt>
      <trkpt lat="46.99416" lon="-0.95977">
        <ele>75.5</ele>
        <time>2025-08-25T09:17:58Z</time>
      </trkpt>
      <trkpt lat="46.99417" lon="-0.95977">
        <ele>75.6</ele>
        <time>2025-08-25T09:17:59Z</time>
      </trkpt>
      <trkpt lat="46.99418" lon="-0.95977">
        <ele>75.6</ele>
        <time>2025-08-25T09:18:00Z</time>
      </trkpt>
      <trkpt lat="46.9942" lon="-0.95976">
        <ele>75.8</ele>
        <time>2025-08-25T09:18:01Z</time>
      </trkpt>
      <trkpt lat="46.9942" lon="-0.95975">
        <ele>75.9</ele>
        <time>2025-08-25T09:18:02Z</time>
      </trkpt>
      <trkpt lat="46.99421" lon="-0.95974">
        <ele>75.9</ele>
        <time>2025-08-25T09:18:03Z</time>
      </trkpt>
      <trkpt lat="46.99422" lon="-0.95973">
        <ele>76</ele>
        <time>2025-08-25T09:18:04Z</time>
      </trkpt>
      <trkpt lat="46.99423" lon="-0.95972">
        <ele>76.1</ele>
        <time>2025-08-25T09:18:05Z</time>
      </trkpt>
      <trkpt lat="46.99424" lon="-0.95971">
        <ele>76.2</ele>
        <time>2025-08-25T09:18:06Z</time>
      </trkpt>
      <trkpt lat="46.99425" lon="-0.95969">
        <ele>76.3</ele>
        <time>2025-08-25T09:18:07Z</time>
      </trkpt>
      <trkpt lat="46.99425" lon="-0.95968">
        <ele>76.4</ele>
        <time>2025-08-25T09:18:08Z</time>
      </trkpt>
      <trkpt lat="46.99426" lon="-0.95967">
        <ele>76.5</ele>
        <time>2025-08-25T09:18:09Z</time>
      </trkpt>
      <trkpt lat="46.99427" lon="-0.95966">
        <ele>76.6</ele>
        <time>2025-08-25T09:18:10Z</time>
      </trkpt>
      <trkpt lat="46.99428" lon="-0.95965">
        <ele>76.7</ele>
        <time>2025-08-25T09:18:11Z</time>
      </trkpt>
      <trkpt lat="46.99429" lon="-0.95963">
        <ele>76.8</ele>
        <time>2025-08-25T09:18:12Z</time>
      </trkpt>
      <trkpt lat="46.9943" lon="-0.95961">
        <ele>76.9</ele>
        <time>2025-08-25T09:18:13Z</time>
      </trkpt>
      <trkpt lat="46.99431" lon="-0.9596">
        <ele>77</ele>
        <time>2025-08-25T09:18:14Z</time>
      </trkpt>
      <trkpt lat="46.99432" lon="-0.95958">
        <ele>77.1</ele>
        <time>2025-08-25T09:18:15Z</time>
      </trkpt>
      <trkpt lat="46.99433" lon="-0.95955">
        <ele>77.4</ele>
        <time>2025-08-25T09:18:16Z</time>
      </trkpt>
      <trkpt lat="46.99434" lon="-0.95953">
        <ele>77.5</ele>
        <time>2025-08-25T09:18:17Z</time>
      </trkpt>
      <trkpt lat="46.99434" lon="-0.95951">
        <ele>77.6</ele>
        <time>2025-08-25T09:18:18Z</time>
      </trkpt>
      <trkpt lat="46.99434" lon="-0.95949">
        <ele>77.7</ele>
        <time>2025-08-25T09:18:19Z</time>
      </trkpt>
      <trkpt lat="46.99435" lon="-0.95948">
        <ele>77.8</ele>
        <time>2025-08-25T09:18:20Z</time>
      </trkpt>
      <trkpt lat="46.99436" lon="-0.95947">
        <ele>77.9</ele>
        <time>2025-08-25T09:18:21Z</time>
      </trkpt>
      <trkpt lat="46.99436" lon="-0.95945">
        <ele>78</ele>
        <time>2025-08-25T09:18:22Z</time>
      </trkpt>
      <trkpt lat="46.99437" lon="-0.95944">
        <ele>78.1</ele>
        <time>2025-08-25T09:18:23Z</time>
      </trkpt>
      <trkpt lat="46.99437" lon="-0.95943">
        <ele>78.2</ele>
        <time>2025-08-25T09:18:24Z</time>
      </trkpt>
      <trkpt lat="46.99437" lon="-0.95942">
        <ele>78.2</ele>
        <time>2025-08-25T09:18:25Z</time>
      </trkpt>
      <trkpt lat="46.99436" lon="-0.95942">
        <ele>78.3</ele>
        <time>2025-08-25T09:18:26Z</time>
      </trkpt>
      <trkpt lat="46.99436" lon="-0.95941">
        <ele>78.4</ele>
        <time>2025-08-25T09:18:27Z</time>
      </trkpt>
      <trkpt lat="46.99436" lon="-0.9594">
        <ele>78.4</ele>
        <time>2025-08-25T09:18:28Z</time>
      </trkpt>
      <trkpt lat="46.99436" lon="-0.95939">
        <ele>78.5</ele>
        <time>2025-08-25T09:18:29Z</time>
      </trkpt>
      <trkpt lat="46.99436" lon="-0.95938">
        <ele>78.6</ele>
        <time>2025-08-25T09:18:30Z</time>
      </trkpt>
      <trkpt lat="46.99435" lon="-0.95937">
        <ele>78.7</ele>
        <time>2025-08-25T09:18:31Z</time>
      </trkpt>
      <trkpt lat="46.99435" lon="-0.95935">
        <ele>78.8</ele>
        <time>2025-08-25T09:18:32Z</time>
      </trkpt>
      <trkpt lat="46.99434" lon="-0.95933">
        <ele>78.9</ele>
        <time>2025-08-25T09:18:33Z</time>
      </trkpt>
      <trkpt lat="46.99434" lon="-0.95931">
        <ele>79</ele>
        <time>2025-08-25T09:18:34Z</time>
      </trkpt>
      <trkpt lat="46.99434" lon="-0.95928">
        <ele>79.3</ele>
        <time>2025-08-25T09:18:35Z</time>
      </trkpt>
      <trkpt lat="46.99435" lon="-0.95927">
        <ele>79.3</ele>
        <time>2025-08-25T09:18:36Z</time>
      </trkpt>
      <trkpt lat="46.99435" lon="-0.95926">
        <ele>79.4</ele>
        <time>2025-08-25T09:18:37Z</time>
      </trkpt>
      <trkpt lat="46.99435" lon="-0.95925">
        <ele>79.5</ele>
        <time>2025-08-25T09:18:38Z</time>
      </trkpt>
      <trkpt lat="46.99435" lon="-0.95923">
        <ele>79.6</ele>
        <time>2025-08-25T09:18:39Z</time>
      </trkpt>
      <trkpt lat="46.99435" lon="-0.95922">
        <ele>79.7</ele>
        <time>2025-08-25T09:18:40Z</time>
      </trkpt>
      <trkpt lat="46.99435" lon="-0.95921">
        <ele>79.8</ele>
        <time>2025-08-25T09:18:41Z</time>
      </trkpt>
      <trkpt lat="46.99436" lon="-0.95919">
        <ele>80</ele>
        <time>2025-08-25T09:18:42Z</time>
      </trkpt>
      <trkpt lat="46.99436" lon="-0.95918">
        <ele>80.1</ele>
        <time>2025-08-25T09:18:43Z</time>
      </trkpt>
      <trkpt lat="46.99437" lon="-0.95916">
        <ele>80.3</ele>
        <time>2025-08-25T09:18:44Z</time>
      </trkpt>
      <trkpt lat="46.99438" lon="-0.95914">
        <ele>80.5</ele>
        <time>2025-08-25T09:18:45Z</time>
      </trkpt>
      <trkpt lat="46.99439" lon="-0.95912">
        <ele>80.7</ele>
        <time>2025-08-25T09:18:46Z</time>
      </trkpt>
      <trkpt lat="46.9944" lon="-0.95911">
        <ele>80.9</ele>
        <time>2025-08-25T09:18:47Z</time>
      </trkpt>
      <trkpt lat="46.99441" lon="-0.95909">
        <ele>81.1</ele>
        <time>2025-08-25T09:18:48Z</time>
      </trkpt>
      <trkpt lat="46.99442" lon="-0.95907">
        <ele>81.3</ele>
        <time>2025-08-25T09:18:49Z</time>
      </trkpt>
      <trkpt lat="46.99443" lon="-0.95904">
        <ele>81.6</ele>
        <time>2025-08-25T09:18:50Z</time>
      </trkpt>
      <trkpt lat="46.99443" lon="-0.95903">
        <ele>81.7</ele>
        <time>2025-08-25T09:18:51Z</time>
      </trkpt>
      <trkpt lat="46.99443" lon="-0.95902">
        <ele>81.8</ele>
        <time>2025-08-25T09:18:52Z</time>
      </trkpt>
      <trkpt lat="46.99443" lon="-0.95901">
        <ele>81.9</ele>
        <time>2025-08-25T09:18:53Z</time>
      </trkpt>
      <trkpt lat="46.99443" lon="-0.95899">
        <ele>82.1</ele>
        <time>2025-08-25T09:18:54Z</time>
      </trkpt>
      <trkpt lat="46.99443" lon="-0.95897">
        <ele>82.3</ele>
        <time>2025-08-25T09:18:55Z</time>
      </trkpt>
      <trkpt lat="46.99443" lon="-0.95894">
        <ele>82.6</ele>
        <time>2025-08-25T09:18:56Z</time>
      </trkpt>
      <trkpt lat="46.99443" lon="-0.95893">
        <ele>82.7</ele>
        <time>2025-08-25T09:18:57Z</time>
      </trkpt>
      <trkpt lat="46.99443" lon="-0.95892">
        <ele>82.8</ele>
        <time>2025-08-25T09:18:58Z</time>
      </trkpt>
      <trkpt lat="46.99442" lon="-0.95891">
        <ele>83</ele>
        <time>2025-08-25T09:18:59Z</time>
      </trkpt>
      <trkpt lat="46.99442" lon="-0.95889">
        <ele>83.2</ele>
        <time>2025-08-25T09:19:00Z</time>
      </trkpt>
      <trkpt lat="46.99442" lon="-0.95888">
        <ele>83.3</ele>
        <time>2025-08-25T09:19:01Z</time>
      </trkpt>
      <trkpt lat="46.99442" lon="-0.95887">
        <ele>83.4</ele>
        <time>2025-08-25T09:19:02Z</time>
      </trkpt>
      <trkpt lat="46.99441" lon="-0.95886">
        <ele>83.5</ele>
        <time>2025-08-25T09:19:03Z</time>
      </trkpt>
      <trkpt lat="46.99441" lon="-0.95885">
        <ele>83.6</ele>
        <time>2025-08-25T09:19:04Z</time>
      </trkpt>
      <trkpt lat="46.99441" lon="-0.95884">
        <ele>83.7</ele>
        <time>2025-08-25T09:19:05Z</time>
      </trkpt>
      <trkpt lat="46.99441" lon="-0.95883">
        <ele>83.8</ele>
        <time>2025-08-25T09:19:06Z</time>
      </trkpt>
      <trkpt lat="46.99441" lon="-0.95882">
        <ele>84</ele>
        <time>2025-08-25T09:19:07Z</time>
      </trkpt>
      <trkpt lat="46.99441" lon="-0.9588">
        <ele>84</ele>
        <time>2025-08-25T09:19:08Z</time>
      </trkpt>
      <trkpt lat="46.9944" lon="-0.95879">
        <ele>84.1</ele>
        <time>2025-08-25T09:19:09Z</time>
      </trkpt>
      <trkpt lat="46.9944" lon="-0.95878">
        <ele>84.1</ele>
        <time>2025-08-25T09:19:10Z</time>
      </trkpt>
      <trkpt lat="46.99439" lon="-0.95876">
        <ele>84.1</ele>
        <time>2025-08-25T09:19:11Z</time>
      </trkpt>
      <trkpt lat="46.99439" lon="-0.95875">
        <ele>84.2</ele>
        <time>2025-08-25T09:19:12Z</time>
      </trkpt>
      <trkpt lat="46.99438" lon="-0.95874">
        <ele>84.3</ele>
        <time>2025-08-25T09:19:13Z</time>
      </trkpt>
      <trkpt lat="46.99438" lon="-0.95872">
        <ele>84.6</ele>
        <time>2025-08-25T09:19:14Z</time>
      </trkpt>
      <trkpt lat="46.99437" lon="-0.95871">
        <ele>84.8</ele>
        <time>2025-08-25T09:19:15Z</time>
      </trkpt>
      <trkpt lat="46.99436" lon="-0.95869">
        <ele>85.1</ele>
        <time>2025-08-25T09:19:16Z</time>
      </trkpt>
      <trkpt lat="46.99436" lon="-0.95868">
        <ele>85.3</ele>
        <time>2025-08-25T09:19:17Z</time>
      </trkpt>
      <trkpt lat="46.99435" lon="-0.95867">
        <ele>85.6</ele>
        <time>2025-08-25T09:19:18Z</time>
      </trkpt>
      <trkpt lat="46.99435" lon="-0.95865">
        <ele>85.8</ele>
        <time>2025-08-25T09:19:19Z</time>
      </trkpt>
      <trkpt lat="46.99434" lon="-0.95864">
        <ele>86</ele>
        <time>2025-08-25T09:19:20Z</time>
      </trkpt>
      <trkpt lat="46.99434" lon="-0.95863">
        <ele>86.2</ele>
        <time>2025-08-25T09:19:21Z</time>
      </trkpt>
      <trkpt lat="46.99433" lon="-0.95862">
        <ele>86.4</ele>
        <time>2025-08-25T09:19:22Z</time>
      </trkpt>
      <trkpt lat="46.99433" lon="-0.95861">
        <ele>86.5</ele>
        <time>2025-08-25T09:19:23Z</time>
      </trkpt>
      <trkpt lat="46.99432" lon="-0.9586">
        <ele>86.7</ele>
        <time>2025-08-25T09:19:24Z</time>
      </trkpt>
      <trkpt lat="46.99432" lon="-0.95859">
        <ele>86.9</ele>
        <time>2025-08-25T09:19:25Z</time>
      </trkpt>
      <trkpt lat="46.99432" lon="-0.95859">
        <ele>87</ele>
        <time>2025-08-25T09:19:26Z</time>
      </trkpt>
      <trkpt lat="46.99431" lon="-0.95858">
        <ele>87.2</ele>
        <time>2025-08-25T09:19:27Z</time>
      </trkpt>
      <trkpt lat="46.99431" lon="-0.95857">
        <ele>87.3</ele>
        <time>2025-08-25T09:19:28Z</time>
      </trkpt>
      <trkpt lat="46.99431" lon="-0.95856">
        <ele>87.4</ele>
        <time>2025-08-25T09:19:29Z</time>
      </trkpt>
      <trkpt lat="46.9943" lon="-0.95855">
        <ele>87.6</ele>
        <time>2025-08-25T09:19:30Z</time>
      </trkpt>
      <trkpt lat="46.9943" lon="-0.95854">
        <ele>87.8</ele>
        <time>2025-08-25T09:19:31Z</time>
      </trkpt>
      <trkpt lat="46.9943" lon="-0.95854">
        <ele>87.9</ele>
        <time>2025-08-25T09:19:32Z</time>
      </trkpt>
      <trkpt lat="46.9943" lon="-0.95853">
        <ele>88</ele>
        <time>2025-08-25T09:19:33Z</time>
      </trkpt>
      <trkpt lat="46.9943" lon="-0.95852">
        <ele>88.1</ele>
        <time>2025-08-25T09:19:34Z</time>
      </trkpt>
      <trkpt lat="46.9943" lon="-0.95852">
        <ele>88.2</ele>
        <time>2025-08-25T09:19:35Z</time>
      </trkpt>
      <trkpt lat="46.99429" lon="-0.95851">
        <ele>88.3</ele>
        <time>2025-08-25T09:19:36Z</time>
      </trkpt>
      <trkpt lat="46.99429" lon="-0.95851">
        <ele>88.4</ele>
        <time>2025-08-25T09:19:37Z</time>
      </trkpt>
      <trkpt lat="46.99429" lon="-0.9585">
        <ele>88.5</ele>
        <time>2025-08-25T09:19:38Z</time>
      </trkpt>
      <trkpt lat="46.99429" lon="-0.9585">
        <ele>88.5</ele>
        <time>2025-08-25T09:19:39Z</time>
      </trkpt>
      <trkpt lat="46.99429" lon="-0.95849">
        <ele>88.6</ele>
        <time>2025-08-25T09:19:40Z</time>
      </trkpt>
      <trkpt lat="46.99429" lon="-0.95849">
        <ele>88.6</ele>
        <time>2025-08-25T09:19:41Z</time>
      </trkpt>
      <trkpt lat="46.99429" lon="-0.95848">
        <ele>88.7</ele>
        <time>2025-08-25T09:19:42Z</time>
      </trkpt>
      <trkpt lat="46.99429" lon="-0.95848">
        <ele>88.9</ele>
        <time>2025-08-25T09:19:43Z</time>
      </trkpt>
      <trkpt lat="46.99429" lon="-0.95847">
        <ele>88.9</ele>
        <time>2025-08-25T09:19:44Z</time>
      </trkpt>
      <trkpt lat="46.99429" lon="-0.95846">
        <ele>89.1</ele>
        <time>2025-08-25T09:19:45Z</time>
      </trkpt>
      <trkpt lat="46.99428" lon="-0.95843">
        <ele>89.5</ele>
        <time>2025-08-25T09:19:46Z</time>
      </trkpt>
      <trkpt lat="46.99428" lon="-0.95842">
        <ele>89.7</ele>
        <time>2025-08-25T09:19:47Z</time>
      </trkpt>
      <trkpt lat="46.99428" lon="-0.95841">
        <ele>89.9</ele>
        <time>2025-08-25T09:19:48Z</time>
      </trkpt>
      <trkpt lat="46.99427" lon="-0.95838">
        <ele>90.2</ele>
        <time>2025-08-25T09:19:49Z</time>
      </trkpt>
      <trkpt lat="46.99427" lon="-0.95836">
        <ele>90.5</ele>
        <time>2025-08-25T09:19:50Z</time>
      </trkpt>
      <trkpt lat="46.99425" lon="-0.95833">
        <ele>91</ele>
        <time>2025-08-25T09:19:51Z</time>
      </trkpt>
      <trkpt lat="46.99425" lon="-0.95832">
        <ele>91.2</ele>
        <time>2025-08-25T09:19:52Z</time>
      </trkpt>
      <trkpt lat="46.99424" lon="-0.9583">
        <ele>91.4</ele>
        <time>2025-08-25T09:19:53Z</time>
      </trkpt>
      <trkpt lat="46.99423" lon="-0.95828">
        <ele>91.8</ele>
        <time>2025-08-25T09:19:54Z</time>
      </trkpt>
      <trkpt lat="46.99422" lon="-0.95827">
        <ele>92</ele>
        <time>2025-08-25T09:19:55Z</time>
      </trkpt>
      <trkpt lat="46.99421" lon="-0.95825">
        <ele>92.2</ele>
        <time>2025-08-25T09:19:56Z</time>
      </trkpt>
      <trkpt lat="46.99421" lon="-0.95824">
        <ele>92.4</ele>
        <time>2025-08-25T09:19:57Z</time>
      </trkpt>
      <trkpt lat="46.99421" lon="-0.95822">
        <ele>92.7</ele>
        <time>2025-08-25T09:19:58Z</time>
      </trkpt>
      <trkpt lat="46.9942" lon="-0.9582">
        <ele>92.9</ele>
        <time>2025-08-25T09:19:59Z</time>
      </trkpt>
      <trkpt lat="46.9942" lon="-0.95818">
        <ele>93.1</ele>
        <time>2025-08-25T09:20:00Z</time>
      </trkpt>
      <trkpt lat="46.99419" lon="-0.95817">
        <ele>93.3</ele>
        <time>2025-08-25T09:20:01Z</time>
      </trkpt>
      <trkpt lat="46.99418" lon="-0.95816">
        <ele>93.5</ele>
        <time>2025-08-25T09:20:02Z</time>
      </trkpt>
      <trkpt lat="46.99418" lon="-0.95815">
        <ele>93.7</ele>
        <time>2025-08-25T09:20:03Z</time>
      </trkpt>
      <trkpt lat="46.99417" lon="-0.95813">
        <ele>94</ele>
        <time>2025-08-25T09:20:04Z</time>
      </trkpt>
      <trkpt lat="46.99416" lon="-0.95812">
        <ele>94.2</ele>
        <time>2025-08-25T09:20:05Z</time>
      </trkpt>
      <trkpt lat="46.99416" lon="-0.95811">
        <ele>94.4</ele>
        <time>2025-08-25T09:20:06Z</time>
      </trkpt>
      <trkpt lat="46.99415" lon="-0.95809">
        <ele>94.7</ele>
        <time>2025-08-25T09:20:07Z</time>
      </trkpt>
      <trkpt lat="46.99415" lon="-0.95808">
        <ele>94.9</ele>
        <time>2025-08-25T09:20:08Z</time>
      </trkpt>
      <trkpt lat="46.99414" lon="-0.95807">
        <ele>95.1</ele>
        <time>2025-08-25T09:20:09Z</time>
      </trkpt>
      <trkpt lat="46.99414" lon="-0.95806">
        <ele>95.3</ele>
        <time>2025-08-25T09:20:10Z</time>
      </trkpt>
      <trkpt lat="46.99413" lon="-0.95805">
        <ele>95.4</ele>
        <time>2025-08-25T09:20:11Z</time>
      </trkpt>
      <trkpt lat="46.99413" lon="-0.95804">
        <ele>95.5</ele>
        <time>2025-08-25T09:20:12Z</time>
      </trkpt>
      <trkpt lat="46.99413" lon="-0.95803">
        <ele>95.6</ele>
        <time>2025-08-25T09:20:13Z</time>
      </trkpt>
      <trkpt lat="46.99413" lon="-0.95803">
        <ele>95.8</ele>
        <time>2025-08-25T09:20:14Z</time>
      </trkpt>
      <trkpt lat="46.99412" lon="-0.95802">
        <ele>95.9</ele>
        <time>2025-08-25T09:20:15Z</time>
      </trkpt>
      <trkpt lat="46.99412" lon="-0.95801">
        <ele>96</ele>
        <time>2025-08-25T09:20:16Z</time>
      </trkpt>
      <trkpt lat="46.99412" lon="-0.958">
        <ele>96.2</ele>
        <time>2025-08-25T09:20:17Z</time>
      </trkpt>
      <trkpt lat="46.99412" lon="-0.95799">
        <ele>96.4</ele>
        <time>2025-08-25T09:20:18Z</time>
      </trkpt>
      <trkpt lat="46.99412" lon="-0.95798">
        <ele>96.6</ele>
        <time>2025-08-25T09:20:19Z</time>
      </trkpt>
      <trkpt lat="46.99411" lon="-0.95797">
        <ele>96.7</ele>
        <time>2025-08-25T09:20:20Z</time>
      </trkpt>
      <trkpt lat="46.99411" lon="-0.95796">
        <ele>96.9</ele>
        <time>2025-08-25T09:20:21Z</time>
      </trkpt>
      <trkpt lat="46.99411" lon="-0.95795">
        <ele>97</ele>
        <time>2025-08-25T09:20:22Z</time>
      </trkpt>
      <trkpt lat="46.99411" lon="-0.95794">
        <ele>97</ele>
        <time>2025-08-25T09:20:23Z</time>
      </trkpt>
      <trkpt lat="46.99411" lon="-0.95793">
        <ele>97.1</ele>
        <time>2025-08-25T09:20:24Z</time>
      </trkpt>
      <trkpt lat="46.9941" lon="-0.95792">
        <ele>97.2</ele>
        <time>2025-08-25T09:20:25Z</time>
      </trkpt>
      <trkpt lat="46.9941" lon="-0.95791">
        <ele>97.3</ele>
        <time>2025-08-25T09:20:26Z</time>
      </trkpt>
      <trkpt lat="46.9941" lon="-0.9579">
        <ele>97.4</ele>
        <time>2025-08-25T09:20:27Z</time>
      </trkpt>
      <trkpt lat="46.9941" lon="-0.95789">
        <ele>97.5</ele>
        <time>2025-08-25T09:20:28Z</time>
      </trkpt>
      <trkpt lat="46.9941" lon="-0.95788">
        <ele>97.6</ele>
        <time>2025-08-25T09:20:29Z</time>
      </trkpt>
      <trkpt lat="46.9941" lon="-0.95788">
        <ele>97.6</ele>
        <time>2025-08-25T09:20:30Z</time>
      </trkpt>
      <trkpt lat="46.9941" lon="-0.95788">
        <ele>97.6</ele>
        <time>2025-08-25T09:20:31Z</time>
      </trkpt>
      <trkpt lat="46.9941" lon="-0.95787">
        <ele>97.7</ele>
        <time>2025-08-25T09:20:32Z</time>
      </trkpt>
      <trkpt lat="46.99409" lon="-0.95787">
        <ele>97.8</ele>
        <time>2025-08-25T09:20:33Z</time>
      </trkpt>
      <trkpt lat="46.99408" lon="-0.95786">
        <ele>97.9</ele>
        <time>2025-08-25T09:20:34Z</time>
      </trkpt>
      <trkpt lat="46.99408" lon="-0.95786">
        <ele>98</ele>
        <time>2025-08-25T09:20:35Z</time>
      </trkpt>
      <trkpt lat="46.99407" lon="-0.95786">
        <ele>98.1</ele>
        <time>2025-08-25T09:20:36Z</time>
      </trkpt>
      <trkpt lat="46.99406" lon="-0.95786">
        <ele>98.1</ele>
        <time>2025-08-25T09:20:37Z</time>
      </trkpt>
      <trkpt lat="46.99406" lon="-0.95786">
        <ele>98.2</ele>
        <time>2025-08-25T09:20:38Z</time>
      </trkpt>
      <trkpt lat="46.99406" lon="-0.95787">
        <ele>98.2</ele>
        <time>2025-08-25T09:20:39Z</time>
      </trkpt>
      <trkpt lat="46.99406" lon="-0.95787">
        <ele>98.2</ele>
        <time>2025-08-25T09:20:40Z</time>
      </trkpt>
      <trkpt lat="46.99406" lon="-0.95786">
        <ele>98.3</ele>
        <time>2025-08-25T09:20:41Z</time>
      </trkpt>
      <trkpt lat="46.99406" lon="-0.95785">
        <ele>98.3</ele>
        <time>2025-08-25T09:20:42Z</time>
      </trkpt>
      <trkpt lat="46.99406" lon="-0.95785">
        <ele>98.4</ele>
        <time>2025-08-25T09:20:43Z</time>
      </trkpt>
      <trkpt lat="46.99406" lon="-0.95784">
        <ele>98.4</ele>
        <time>2025-08-25T09:20:44Z</time>
      </trkpt>
      <trkpt lat="46.99406" lon="-0.95784">
        <ele>98.4</ele>
        <time>2025-08-25T09:20:45Z</time>
      </trkpt>
      <trkpt lat="46.99406" lon="-0.95784">
        <ele>98.4</ele>
        <time>2025-08-25T09:20:46Z</time>
      </trkpt>
      <trkpt lat="46.99406" lon="-0.95784">
        <ele>98.4</ele>
        <time>2025-08-25T09:20:47Z</time>
      </trkpt>
      <trkpt lat="46.99406" lon="-0.95784">
        <ele>98.4</ele>
        <time>2025-08-25T09:20:48Z</time>
      </trkpt>
      <trkpt lat="46.99406" lon="-0.95784">
        <ele>98.4</ele>
        <time>2025-08-25T09:20:49Z</time>
      </trkpt>
      <trkpt lat="46.99406" lon="-0.95784">
        <ele>98.4</ele>
        <time>2025-08-25T09:20:50Z</time>
      </trkpt>
      <trkpt lat="46.99406" lon="-0.95784">
        <ele>98.4</ele>
        <time>2025-08-25T09:20:51Z</time>
      </trkpt>
      <trkpt lat="46.99407" lon="-0.95784">
        <ele>98.5</ele>
        <time>2025-08-25T09:20:52Z</time>
      </trkpt>
      <trkpt lat="46.99408" lon="-0.95784">
        <ele>98.5</ele>
        <time>2025-08-25T09:20:53Z</time>
      </trkpt>
      <trkpt lat="46.9941" lon="-0.95784">
        <ele>98.5</ele>
        <time>2025-08-25T09:20:54Z</time>
      </trkpt>
      <trkpt lat="46.99411" lon="-0.95783">
        <ele>98.5</ele>
        <time>2025-08-25T09:20:55Z</time>
      </trkpt>
      <trkpt lat="46.99412" lon="-0.95783">
        <ele>98.5</ele>
        <time>2025-08-25T09:20:56Z</time>
      </trkpt>
      <trkpt lat="46.99413" lon="-0.95783">
        <ele>98.5</ele>
        <time>2025-08-25T09:20:57Z</time>
      </trkpt>
      <trkpt lat="46.99414" lon="-0.95783">
        <ele>98.5</ele>
        <time>2025-08-25T09:20:58Z</time>
      </trkpt>
      <trkpt lat="46.99416" lon="-0.95783">
        <ele>98.4</ele>
        <time>2025-08-25T09:20:59Z</time>
      </trkpt>
      <trkpt lat="46.99418" lon="-0.95781">
        <ele>98.4</ele>
        <time>2025-08-25T09:21:00Z</time>
      </trkpt>
      <trkpt lat="46.99419" lon="-0.95781">
        <ele>98.3</ele>
        <time>2025-08-25T09:21:01Z</time>
      </trkpt>
      <trkpt lat="46.99421" lon="-0.95781">
        <ele>98.3</ele>
        <time>2025-08-25T09:21:02Z</time>
      </trkpt>
      <trkpt lat="46.99422" lon="-0.9578">
        <ele>98.3</ele>
        <time>2025-08-25T09:21:03Z</time>
      </trkpt>
      <trkpt lat="46.99423" lon="-0.9578">
        <ele>98.3</ele>
        <time>2025-08-25T09:21:04Z</time>
      </trkpt>
      <trkpt lat="46.99424" lon="-0.9578">
        <ele>98.2</ele>
        <time>2025-08-25T09:21:05Z</time>
      </trkpt>
      <trkpt lat="46.99426" lon="-0.95779">
        <ele>98.2</ele>
        <time>2025-08-25T09:21:06Z</time>
      </trkpt>
      <trkpt lat="46.99427" lon="-0.95779">
        <ele>98.2</ele>
        <time>2025-08-25T09:21:07Z</time>
      </trkpt>
      <trkpt lat="46.99428" lon="-0.95779">
        <ele>98.1</ele>
        <time>2025-08-25T09:21:08Z</time>
      </trkpt>
      <trkpt lat="46.99429" lon="-0.95779">
        <ele>98.1</ele>
        <time>2025-08-25T09:21:09Z</time>
      </trkpt>
      <trkpt lat="46.9943" lon="-0.95779">
        <ele>98.1</ele>
        <time>2025-08-25T09:21:10Z</time>
      </trkpt>
      <trkpt lat="46.99431" lon="-0.95779">
        <ele>98.1</ele>
        <time>2025-08-25T09:21:11Z</time>
      </trkpt>
      <trkpt lat="46.99433" lon="-0.95779">
        <ele>98</ele>
        <time>2025-08-25T09:21:12Z</time>
      </trkpt>
      <trkpt lat="46.99434" lon="-0.9578">
        <ele>98</ele>
        <time>2025-08-25T09:21:13Z</time>
      </trkpt>
      <trkpt lat="46.99435" lon="-0.95781">
        <ele>98</ele>
        <time>2025-08-25T09:21:14Z</time>
      </trkpt>
      <trkpt lat="46.99436" lon="-0.95781">
        <ele>97.9</ele>
        <time>2025-08-25T09:21:15Z</time>
      </trkpt>
      <trkpt lat="46.99438" lon="-0.95781">
        <ele>97.9</ele>
        <time>2025-08-25T09:21:16Z</time>
      </trkpt>
      <trkpt lat="46.99439" lon="-0.95781">
        <ele>97.8</ele>
        <time>2025-08-25T09:21:17Z</time>
      </trkpt>
      <trkpt lat="46.9944" lon="-0.95781">
        <ele>97.8</ele>
        <time>2025-08-25T09:21:18Z</time>
      </trkpt>
      <trkpt lat="46.99441" lon="-0.95781">
        <ele>97.8</ele>
        <time>2025-08-25T09:21:19Z</time>
      </trkpt>
      <trkpt lat="46.99443" lon="-0.9578">
        <ele>97.7</ele>
        <time>2025-08-25T09:21:20Z</time>
      </trkpt>
      <trkpt lat="46.99445" lon="-0.9578">
        <ele>97.6</ele>
        <time>2025-08-25T09:21:21Z</time>
      </trkpt>
      <trkpt lat="46.99446" lon="-0.9578">
        <ele>97.6</ele>
        <time>2025-08-25T09:21:22Z</time>
      </trkpt>
      <trkpt lat="46.99446" lon="-0.9578">
        <ele>97.6</ele>
        <time>2025-08-25T09:21:23Z</time>
      </trkpt>
      <trkpt lat="46.99447" lon="-0.9578">
        <ele>97.6</ele>
        <time>2025-08-25T09:21:24Z</time>
      </trkpt>
      <trkpt lat="46.99448" lon="-0.9578">
        <ele>97.5</ele>
        <time>2025-08-25T09:21:25Z</time>
      </trkpt>
      <trkpt lat="46.99449" lon="-0.95779">
        <ele>97.5</ele>
        <time>2025-08-25T09:21:26Z</time>
      </trkpt>
      <trkpt lat="46.99451" lon="-0.95779">
        <ele>97.4</ele>
        <time>2025-08-25T09:21:27Z</time>
      </trkpt>
      <trkpt lat="46.99452" lon="-0.95779">
        <ele>97.4</ele>
        <time>2025-08-25T09:21:28Z</time>
      </trkpt>
      <trkpt lat="46.99453" lon="-0.95779">
        <ele>97.3</ele>
        <time>2025-08-25T09:21:29Z</time>
      </trkpt>
      <trkpt lat="46.99454" lon="-0.9578">
        <ele>97.3</ele>
        <time>2025-08-25T09:21:30Z</time>
      </trkpt>
      <trkpt lat="46.99455" lon="-0.9578">
        <ele>97.3</ele>
        <time>2025-08-25T09:21:31Z</time>
      </trkpt>
      <trkpt lat="46.99455" lon="-0.9578">
        <ele>97.2</ele>
        <time>2025-08-25T09:21:32Z</time>
      </trkpt>
      <trkpt lat="46.99455" lon="-0.95779">
        <ele>97.2</ele>
        <time>2025-08-25T09:21:33Z</time>
      </trkpt>
      <trkpt lat="46.99456" lon="-0.95779">
        <ele>97.2</ele>
        <time>2025-08-25T09:21:34Z</time>
      </trkpt>
      <trkpt lat="46.99458" lon="-0.95779">
        <ele>97.2</ele>
        <time>2025-08-25T09:21:35Z</time>
      </trkpt>
      <trkpt lat="46.99459" lon="-0.95779">
        <ele>97.2</ele>
        <time>2025-08-25T09:21:36Z</time>
      </trkpt>
      <trkpt lat="46.9946" lon="-0.95779">
        <ele>97.2</ele>
        <time>2025-08-25T09:21:37Z</time>
      </trkpt>
      <trkpt lat="46.99462" lon="-0.95778">
        <ele>97.2</ele>
        <time>2025-08-25T09:21:38Z</time>
      </trkpt>
      <trkpt lat="46.99463" lon="-0.95778">
        <ele>97.2</ele>
        <time>2025-08-25T09:21:39Z</time>
      </trkpt>
      <trkpt lat="46.99464" lon="-0.95777">
        <ele>97.3</ele>
        <time>2025-08-25T09:21:40Z</time>
      </trkpt>
      <trkpt lat="46.99465" lon="-0.95776">
        <ele>97.2</ele>
        <time>2025-08-25T09:21:41Z</time>
      </trkpt>
      <trkpt lat="46.99465" lon="-0.95774">
        <ele>97.1</ele>
        <time>2025-08-25T09:21:42Z</time>
      </trkpt>
      <trkpt lat="46.99464" lon="-0.95772">
        <ele>97.1</ele>
        <time>2025-08-25T09:21:43Z</time>
      </trkpt>
      <trkpt lat="46.99464" lon="-0.9577">
        <ele>97</ele>
        <time>2025-08-25T09:21:44Z</time>
      </trkpt>
      <trkpt lat="46.99464" lon="-0.95768">
        <ele>97</ele>
        <time>2025-08-25T09:21:45Z</time>
      </trkpt>
      <trkpt lat="46.99464" lon="-0.95767">
        <ele>97</ele>
        <time>2025-08-25T09:21:46Z</time>
      </trkpt>
      <trkpt lat="46.99464" lon="-0.95765">
        <ele>96.9</ele>
        <time>2025-08-25T09:21:47Z</time>
      </trkpt>
      <trkpt lat="46.99464" lon="-0.95764">
        <ele>96.9</ele>
        <time>2025-08-25T09:21:48Z</time>
      </trkpt>
      <trkpt lat="46.99464" lon="-0.95762">
        <ele>96.8</ele>
        <time>2025-08-25T09:21:49Z</time>
      </trkpt>
      <trkpt lat="46.99464" lon="-0.9576">
        <ele>96.8</ele>
        <time>2025-08-25T09:21:50Z</time>
      </trkpt>
      <trkpt lat="46.99464" lon="-0.95759">
        <ele>96.8</ele>
        <time>2025-08-25T09:21:51Z</time>
      </trkpt>
      <trkpt lat="46.99464" lon="-0.95757">
        <ele>96.7</ele>
        <time>2025-08-25T09:21:52Z</time>
      </trkpt>
      <trkpt lat="46.99465" lon="-0.95756">
        <ele>96.7</ele>
        <time>2025-08-25T09:21:53Z</time>
      </trkpt>
      <trkpt lat="46.99465" lon="-0.95753">
        <ele>96.6</ele>
        <time>2025-08-25T09:21:54Z</time>
      </trkpt>
      <trkpt lat="46.99465" lon="-0.95752">
        <ele>96.6</ele>
        <time>2025-08-25T09:21:55Z</time>
      </trkpt>
      <trkpt lat="46.99465" lon="-0.9575">
        <ele>96.5</ele>
        <time>2025-08-25T09:21:56Z</time>
      </trkpt>
      <trkpt lat="46.99465" lon="-0.95749">
        <ele>96.5</ele>
        <time>2025-08-25T09:21:57Z</time>
      </trkpt>
      <trkpt lat="46.99465" lon="-0.95747">
        <ele>96.4</ele>
        <time>2025-08-25T09:21:58Z</time>
      </trkpt>
      <trkpt lat="46.99465" lon="-0.95746">
        <ele>96.4</ele>
        <time>2025-08-25T09:21:59Z</time>
      </trkpt>
      <trkpt lat="46.99465" lon="-0.95744">
        <ele>96.4</ele>
        <time>2025-08-25T09:22:00Z</time>
      </trkpt>
      <trkpt lat="46.99465" lon="-0.95743">
        <ele>96.3</ele>
        <time>2025-08-25T09:22:01Z</time>
      </trkpt>
      <trkpt lat="46.99466" lon="-0.95741">
        <ele>96.3</ele>
        <time>2025-08-25T09:22:02Z</time>
      </trkpt>
      <trkpt lat="46.99466" lon="-0.95738">
        <ele>96.3</ele>
        <time>2025-08-25T09:22:03Z</time>
      </trkpt>
      <trkpt lat="46.99465" lon="-0.95737">
        <ele>96.2</ele>
        <time>2025-08-25T09:22:04Z</time>
      </trkpt>
      <trkpt lat="46.99465" lon="-0.95735">
        <ele>96.2</ele>
        <time>2025-08-25T09:22:05Z</time>
      </trkpt>
      <trkpt lat="46.99465" lon="-0.95734">
        <ele>96.2</ele>
        <time>2025-08-25T09:22:06Z</time>
      </trkpt>
      <trkpt lat="46.99465" lon="-0.95732">
        <ele>96.2</ele>
        <time>2025-08-25T09:22:07Z</time>
      </trkpt>
      <trkpt lat="46.99465" lon="-0.9573">
        <ele>96.1</ele>
        <time>2025-08-25T09:22:08Z</time>
      </trkpt>
      <trkpt lat="46.99465" lon="-0.95727">
        <ele>96.1</ele>
        <time>2025-08-25T09:22:09Z</time>
      </trkpt>
      <trkpt lat="46.99465" lon="-0.95726">
        <ele>96.1</ele>
        <time>2025-08-25T09:22:10Z</time>
      </trkpt>
      <trkpt lat="46.99465" lon="-0.95725">
        <ele>96</ele>
        <time>2025-08-25T09:22:11Z</time>
      </trkpt>
      <trkpt lat="46.99463" lon="-0.95722">
        <ele>96</ele>
        <time>2025-08-25T09:22:12Z</time>
      </trkpt>
      <trkpt lat="46.99463" lon="-0.95721">
        <ele>96</ele>
        <time>2025-08-25T09:22:13Z</time>
      </trkpt>
      <trkpt lat="46.99463" lon="-0.9572">
        <ele>96</ele>
        <time>2025-08-25T09:22:14Z</time>
      </trkpt>
      <trkpt lat="46.99462" lon="-0.95719">
        <ele>96</ele>
        <time>2025-08-25T09:22:15Z</time>
      </trkpt>
      <trkpt lat="46.99461" lon="-0.95717">
        <ele>96</ele>
        <time>2025-08-25T09:22:16Z</time>
      </trkpt>
      <trkpt lat="46.9946" lon="-0.95716">
        <ele>95.9</ele>
        <time>2025-08-25T09:22:17Z</time>
      </trkpt>
      <trkpt lat="46.9946" lon="-0.95715">
        <ele>95.9</ele>
        <time>2025-08-25T09:22:18Z</time>
      </trkpt>
      <trkpt lat="46.9946" lon="-0.95714">
        <ele>95.9</ele>
        <time>2025-08-25T09:22:19Z</time>
      </trkpt>
      <trkpt lat="46.99459" lon="-0.95713">
        <ele>95.9</ele>
        <time>2025-08-25T09:22:20Z</time>
      </trkpt>
      <trkpt lat="46.99458" lon="-0.95711">
        <ele>95.9</ele>
        <time>2025-08-25T09:22:21Z</time>
      </trkpt>
      <trkpt lat="46.99458" lon="-0.9571">
        <ele>95.9</ele>
        <time>2025-08-25T09:22:22Z</time>
      </trkpt>
      <trkpt lat="46.99458" lon="-0.95709">
        <ele>95.9</ele>
        <time>2025-08-25T09:22:23Z</time>
      </trkpt>
      <trkpt lat="46.99457" lon="-0.95708">
        <ele>95.9</ele>
        <time>2025-08-25T09:22:24Z</time>
      </trkpt>
      <trkpt lat="46.99456" lon="-0.95707">
        <ele>95.8</ele>
        <time>2025-08-25T09:22:25Z</time>
      </trkpt>
      <trkpt lat="46.99454" lon="-0.95705">
        <ele>95.8</ele>
        <time>2025-08-25T09:22:26Z</time>
      </trkpt>
      <trkpt lat="46.99453" lon="-0.95705">
        <ele>95.8</ele>
        <time>2025-08-25T09:22:27Z</time>
      </trkpt>
      <trkpt lat="46.99452" lon="-0.95704">
        <ele>95.8</ele>
        <time>2025-08-25T09:22:28Z</time>
      </trkpt>
      <trkpt lat="46.99451" lon="-0.95703">
        <ele>95.8</ele>
        <time>2025-08-25T09:22:29Z</time>
      </trkpt>
      <trkpt lat="46.9945" lon="-0.95702">
        <ele>95.8</ele>
        <time>2025-08-25T09:22:30Z</time>
      </trkpt>
      <trkpt lat="46.99449" lon="-0.957">
        <ele>95.8</ele>
        <time>2025-08-25T09:22:31Z</time>
      </trkpt>
      <trkpt lat="46.99448" lon="-0.95699">
        <ele>95.7</ele>
        <time>2025-08-25T09:22:32Z</time>
      </trkpt>
      <trkpt lat="46.99447" lon="-0.95697">
        <ele>95.7</ele>
        <time>2025-08-25T09:22:33Z</time>
      </trkpt>
      <trkpt lat="46.99446" lon="-0.95694">
        <ele>95.7</ele>
        <time>2025-08-25T09:22:34Z</time>
      </trkpt>
      <trkpt lat="46.99446" lon="-0.95693">
        <ele>95.7</ele>
        <time>2025-08-25T09:22:35Z</time>
      </trkpt>
      <trkpt lat="46.99445" lon="-0.95692">
        <ele>95.7</ele>
        <time>2025-08-25T09:22:36Z</time>
      </trkpt>
      <trkpt lat="46.99445" lon="-0.9569">
        <ele>95.7</ele>
        <time>2025-08-25T09:22:37Z</time>
      </trkpt>
      <trkpt lat="46.99444" lon="-0.95688">
        <ele>95.7</ele>
        <time>2025-08-25T09:22:38Z</time>
      </trkpt>
      <trkpt lat="46.99443" lon="-0.95685">
        <ele>95.6</ele>
        <time>2025-08-25T09:22:39Z</time>
      </trkpt>
      <trkpt lat="46.99443" lon="-0.95684">
        <ele>95.6</ele>
        <time>2025-08-25T09:22:40Z</time>
      </trkpt>
      <trkpt lat="46.99443" lon="-0.95683">
        <ele>95.6</ele>
        <time>2025-08-25T09:22:41Z</time>
      </trkpt>
      <trkpt lat="46.99442" lon="-0.9568">
        <ele>95.6</ele>
        <time>2025-08-25T09:22:42Z</time>
      </trkpt>
      <trkpt lat="46.99441" lon="-0.95679">
        <ele>95.6</ele>
        <time>2025-08-25T09:22:43Z</time>
      </trkpt>
      <trkpt lat="46.99441" lon="-0.95678">
        <ele>95.6</ele>
        <time>2025-08-25T09:22:44Z</time>
      </trkpt>
      <trkpt lat="46.9944" lon="-0.95675">
        <ele>95.6</ele>
        <time>2025-08-25T09:22:45Z</time>
      </trkpt>
      <trkpt lat="46.9944" lon="-0.95674">
        <ele>95.6</ele>
        <time>2025-08-25T09:22:46Z</time>
      </trkpt>
      <trkpt lat="46.9944" lon="-0.95672">
        <ele>95.6</ele>
        <time>2025-08-25T09:22:47Z</time>
      </trkpt>
      <trkpt lat="46.99439" lon="-0.9567">
        <ele>95.6</ele>
        <time>2025-08-25T09:22:48Z</time>
      </trkpt>
      <trkpt lat="46.99439" lon="-0.95668">
        <ele>95.7</ele>
        <time>2025-08-25T09:22:49Z</time>
      </trkpt>
      <trkpt lat="46.99438" lon="-0.95667">
        <ele>95.7</ele>
        <time>2025-08-25T09:22:50Z</time>
      </trkpt>
      <trkpt lat="46.99438" lon="-0.95664">
        <ele>95.7</ele>
        <time>2025-08-25T09:22:51Z</time>
      </trkpt>
      <trkpt lat="46.99437" lon="-0.95663">
        <ele>95.7</ele>
        <time>2025-08-25T09:22:52Z</time>
      </trkpt>
      <trkpt lat="46.99437" lon="-0.95662">
        <ele>95.7</ele>
        <time>2025-08-25T09:22:53Z</time>
      </trkpt>
      <trkpt lat="46.99437" lon="-0.9566">
        <ele>95.7</ele>
        <time>2025-08-25T09:22:54Z</time>
      </trkpt>
      <trkpt lat="46.99436" lon="-0.95657">
        <ele>95.8</ele>
        <time>2025-08-25T09:22:55Z</time>
      </trkpt>
      <trkpt lat="46.99436" lon="-0.95655">
        <ele>95.8</ele>
        <time>2025-08-25T09:22:56Z</time>
      </trkpt>
      <trkpt lat="46.99435" lon="-0.95653">
        <ele>95.9</ele>
        <time>2025-08-25T09:22:57Z</time>
      </trkpt>
      <trkpt lat="46.99435" lon="-0.9565">
        <ele>95.9</ele>
        <time>2025-08-25T09:22:58Z</time>
      </trkpt>
      <trkpt lat="46.99435" lon="-0.95649">
        <ele>96</ele>
        <time>2025-08-25T09:22:59Z</time>
      </trkpt>
      <trkpt lat="46.99435" lon="-0.95647">
        <ele>96</ele>
        <time>2025-08-25T09:23:00Z</time>
      </trkpt>
      <trkpt lat="46.99434" lon="-0.95644">
        <ele>96.1</ele>
        <time>2025-08-25T09:23:01Z</time>
      </trkpt>
      <trkpt lat="46.99434" lon="-0.95643">
        <ele>96.1</ele>
        <time>2025-08-25T09:23:02Z</time>
      </trkpt>
      <trkpt lat="46.99434" lon="-0.95642">
        <ele>96.1</ele>
        <time>2025-08-25T09:23:03Z</time>
      </trkpt>
      <trkpt lat="46.99434" lon="-0.9564">
        <ele>96.2</ele>
        <time>2025-08-25T09:23:04Z</time>
      </trkpt>
      <trkpt lat="46.99434" lon="-0.95638">
        <ele>96.2</ele>
        <time>2025-08-25T09:23:05Z</time>
      </trkpt>
      <trkpt lat="46.99433" lon="-0.95637">
        <ele>96.3</ele>
        <time>2025-08-25T09:23:06Z</time>
      </trkpt>
      <trkpt lat="46.99433" lon="-0.95635">
        <ele>96.3</ele>
        <time>2025-08-25T09:23:07Z</time>
      </trkpt>
      <trkpt lat="46.99433" lon="-0.95634">
        <ele>96.4</ele>
        <time>2025-08-25T09:23:08Z</time>
      </trkpt>
      <trkpt lat="46.99433" lon="-0.95632">
        <ele>96.4</ele>
        <time>2025-08-25T09:23:09Z</time>
      </trkpt>
      <trkpt lat="46.99433" lon="-0.9563">
        <ele>96.5</ele>
        <time>2025-08-25T09:23:10Z</time>
      </trkpt>
      <trkpt lat="46.99432" lon="-0.95629">
        <ele>96.5</ele>
        <time>2025-08-25T09:23:11Z</time>
      </trkpt>
      <trkpt lat="46.99432" lon="-0.95627">
        <ele>96.6</ele>
        <time>2025-08-25T09:23:12Z</time>
      </trkpt>
      <trkpt lat="46.99432" lon="-0.95626">
        <ele>96.6</ele>
        <time>2025-08-25T09:23:13Z</time>
      </trkpt>
      <trkpt lat="46.99432" lon="-0.95624">
        <ele>96.7</ele>
        <time>2025-08-25T09:23:14Z</time>
      </trkpt>
      <trkpt lat="46.99431" lon="-0.95623">
        <ele>96.7</ele>
        <time>2025-08-25T09:23:15Z</time>
      </trkpt>
      <trkpt lat="46.99431" lon="-0.95621">
        <ele>96.8</ele>
        <time>2025-08-25T09:23:16Z</time>
      </trkpt>
      <trkpt lat="46.9943" lon="-0.9562">
        <ele>96.9</ele>
        <time>2025-08-25T09:23:17Z</time>
      </trkpt>
      <trkpt lat="46.9943" lon="-0.95618">
        <ele>96.9</ele>
        <time>2025-08-25T09:23:18Z</time>
      </trkpt>
      <trkpt lat="46.9943" lon="-0.95616">
        <ele>97</ele>
        <time>2025-08-25T09:23:19Z</time>
      </trkpt>
      <trkpt lat="46.99429" lon="-0.95615">
        <ele>97.1</ele>
        <time>2025-08-25T09:23:20Z</time>
      </trkpt>
      <trkpt lat="46.99429" lon="-0.95613">
        <ele>97.2</ele>
        <time>2025-08-25T09:23:21Z</time>
      </trkpt>
      <trkpt lat="46.99429" lon="-0.95612">
        <ele>97.2</ele>
        <time>2025-08-25T09:23:22Z</time>
      </trkpt>
      <trkpt lat="46.99429" lon="-0.9561">
        <ele>97.3</ele>
        <time>2025-08-25T09:23:23Z</time>
      </trkpt>
      <trkpt lat="46.99428" lon="-0.95608">
        <ele>97.4</ele>
        <time>2025-08-25T09:23:24Z</time>
      </trkpt>
      <trkpt lat="46.99428" lon="-0.95605">
        <ele>97.6</ele>
        <time>2025-08-25T09:23:25Z</time>
      </trkpt>
      <trkpt lat="46.99428" lon="-0.95604">
        <ele>97.7</ele>
        <time>2025-08-25T09:23:26Z</time>
      </trkpt>
      <trkpt lat="46.99428" lon="-0.95603">
        <ele>97.7</ele>
        <time>2025-08-25T09:23:27Z</time>
      </trkpt>
      <trkpt lat="46.99427" lon="-0.956">
        <ele>97.9</ele>
        <time>2025-08-25T09:23:28Z</time>
      </trkpt>
      <trkpt lat="46.99426" lon="-0.956">
        <ele>98</ele>
        <time>2025-08-25T09:23:29Z</time>
      </trkpt>
      <trkpt lat="46.99426" lon="-0.95599">
        <ele>98.1</ele>
        <time>2025-08-25T09:23:30Z</time>
      </trkpt>
      <trkpt lat="46.99424" lon="-0.95598">
        <ele>98.2</ele>
        <time>2025-08-25T09:23:31Z</time>
      </trkpt>
      <trkpt lat="46.99423" lon="-0.95597">
        <ele>98.4</ele>
        <time>2025-08-25T09:23:32Z</time>
      </trkpt>
      <trkpt lat="46.99422" lon="-0.95596">
        <ele>98.6</ele>
        <time>2025-08-25T09:23:33Z</time>
      </trkpt>
      <trkpt lat="46.99421" lon="-0.95596">
        <ele>98.8</ele>
        <time>2025-08-25T09:23:34Z</time>
      </trkpt>
      <trkpt lat="46.9942" lon="-0.95596">
        <ele>98.9</ele>
        <time>2025-08-25T09:23:35Z</time>
      </trkpt>
      <trkpt lat="46.99419" lon="-0.95596">
        <ele>99.1</ele>
        <time>2025-08-25T09:23:36Z</time>
      </trkpt>
      <trkpt lat="46.99418" lon="-0.95595">
        <ele>99.2</ele>
        <time>2025-08-25T09:23:37Z</time>
      </trkpt>
      <trkpt lat="46.99417" lon="-0.95594">
        <ele>99.4</ele>
        <time>2025-08-25T09:23:38Z</time>
      </trkpt>
      <trkpt lat="46.99415" lon="-0.95594">
        <ele>99.6</ele>
        <time>2025-08-25T09:23:39Z</time>
      </trkpt>
      <trkpt lat="46.99414" lon="-0.95595">
        <ele>99.8</ele>
        <time>2025-08-25T09:23:40Z</time>
      </trkpt>
      <trkpt lat="46.99413" lon="-0.95595">
        <ele>99.9</ele>
        <time>2025-08-25T09:23:41Z</time>
      </trkpt>
      <trkpt lat="46.99412" lon="-0.95596">
        <ele>100</ele>
        <time>2025-08-25T09:23:42Z</time>
      </trkpt>
      <trkpt lat="46.99411" lon="-0.95596">
        <ele>100.2</ele>
        <time>2025-08-25T09:23:43Z</time>
      </trkpt>
      <trkpt lat="46.99409" lon="-0.95597">
        <ele>100.4</ele>
        <time>2025-08-25T09:23:44Z</time>
      </trkpt>
      <trkpt lat="46.99409" lon="-0.95597">
        <ele>100.5</ele>
        <time>2025-08-25T09:23:45Z</time>
      </trkpt>
      <trkpt lat="46.99408" lon="-0.95597">
        <ele>100.6</ele>
        <time>2025-08-25T09:23:46Z</time>
      </trkpt>
      <trkpt lat="46.99407" lon="-0.95597">
        <ele>100.7</ele>
        <time>2025-08-25T09:23:47Z</time>
      </trkpt>
      <trkpt lat="46.99406" lon="-0.95597">
        <ele>100.8</ele>
        <time>2025-08-25T09:23:48Z</time>
      </trkpt>
      <trkpt lat="46.99405" lon="-0.95597">
        <ele>101</ele>
        <time>2025-08-25T09:23:49Z</time>
      </trkpt>
      <trkpt lat="46.99405" lon="-0.95597">
        <ele>101.2</ele>
        <time>2025-08-25T09:23:50Z</time>
      </trkpt>
      <trkpt lat="46.99404" lon="-0.95597">
        <ele>101.3</ele>
        <time>2025-08-25T09:23:51Z</time>
      </trkpt>
      <trkpt lat="46.99403" lon="-0.95596">
        <ele>101.5</ele>
        <time>2025-08-25T09:23:52Z</time>
      </trkpt>
      <trkpt lat="46.99403" lon="-0.95596">
        <ele>101.6</ele>
        <time>2025-08-25T09:23:53Z</time>
      </trkpt>
      <trkpt lat="46.99402" lon="-0.95595">
        <ele>101.8</ele>
        <time>2025-08-25T09:23:54Z</time>
      </trkpt>
      <trkpt lat="46.99402" lon="-0.95595">
        <ele>102</ele>
        <time>2025-08-25T09:23:55Z</time>
      </trkpt>
      <trkpt lat="46.99401" lon="-0.95594">
        <ele>102.1</ele>
        <time>2025-08-25T09:23:56Z</time>
      </trkpt>
      <trkpt lat="46.994" lon="-0.95594">
        <ele>102.3</ele>
        <time>2025-08-25T09:23:57Z</time>
      </trkpt>
      <trkpt lat="46.994" lon="-0.95593">
        <ele>102.4</ele>
        <time>2025-08-25T09:23:58Z</time>
      </trkpt>
      <trkpt lat="46.99399" lon="-0.95593">
        <ele>102.6</ele>
        <time>2025-08-25T09:23:59Z</time>
      </trkpt>
      <trkpt lat="46.99398" lon="-0.95592">
        <ele>102.8</ele>
        <time>2025-08-25T09:24:00Z</time>
      </trkpt>
      <trkpt lat="46.99398" lon="-0.95591">
        <ele>103</ele>
        <time>2025-08-25T09:24:01Z</time>
      </trkpt>
      <trkpt lat="46.99397" lon="-0.9559">
        <ele>103.2</ele>
        <time>2025-08-25T09:24:02Z</time>
      </trkpt>
      <trkpt lat="46.99397" lon="-0.95589">
        <ele>103.3</ele>
        <time>2025-08-25T09:24:03Z</time>
      </trkpt>
      <trkpt lat="46.99396" lon="-0.95589">
        <ele>103.4</ele>
        <time>2025-08-25T09:24:04Z</time>
      </trkpt>
      <trkpt lat="46.99396" lon="-0.95589">
        <ele>103.5</ele>
        <time>2025-08-25T09:24:05Z</time>
      </trkpt>
      <trkpt lat="46.99396" lon="-0.9559">
        <ele>103.7</ele>
        <time>2025-08-25T09:24:06Z</time>
      </trkpt>
      <trkpt lat="46.99396" lon="-0.9559">
        <ele>103.8</ele>
        <time>2025-08-25T09:24:07Z</time>
      </trkpt>
      <trkpt lat="46.99396" lon="-0.9559">
        <ele>103.8</ele>
        <time>2025-08-25T09:24:08Z</time>
      </trkpt>
      <trkpt lat="46.99397" lon="-0.9559">
        <ele>103.9</ele>
        <time>2025-08-25T09:24:09Z</time>
      </trkpt>
      <trkpt lat="46.99397" lon="-0.95591">
        <ele>104</ele>
        <time>2025-08-25T09:24:10Z</time>
      </trkpt>
      <trkpt lat="46.99397" lon="-0.95591">
        <ele>104</ele>
        <time>2025-08-25T09:24:11Z</time>
      </trkpt>
      <trkpt lat="46.99397" lon="-0.95591">
        <ele>104</ele>
        <time>2025-08-25T09:24:12Z</time>
      </trkpt>
      <trkpt lat="46.99397" lon="-0.95591">
        <ele>104</ele>
        <time>2025-08-25T09:24:13Z</time>
      </trkpt>
      <trkpt lat="46.99397" lon="-0.95591">
        <ele>104</ele>
        <time>2025-08-25T09:24:14Z</time>
      </trkpt>
      <trkpt lat="46.99397" lon="-0.95592">
        <ele>104</ele>
        <time>2025-08-25T09:24:15Z</time>
      </trkpt>
      <trkpt lat="46.99396" lon="-0.95593">
        <ele>104.1</ele>
        <time>2025-08-25T09:24:16Z</time>
      </trkpt>
      <trkpt lat="46.99395" lon="-0.95594">
        <ele>104.1</ele>
        <time>2025-08-25T09:24:17Z</time>
      </trkpt>
      <trkpt lat="46.99394" lon="-0.95594">
        <ele>104.2</ele>
        <time>2025-08-25T09:24:18Z</time>
      </trkpt>
      <trkpt lat="46.99392" lon="-0.95596">
        <ele>104.3</ele>
        <time>2025-08-25T09:24:19Z</time>
      </trkpt>
      <trkpt lat="46.99391" lon="-0.95597">
        <ele>104.4</ele>
        <time>2025-08-25T09:24:20Z</time>
      </trkpt>
      <trkpt lat="46.9939" lon="-0.95598">
        <ele>104.4</ele>
        <time>2025-08-25T09:24:21Z</time>
      </trkpt>
      <trkpt lat="46.99389" lon="-0.95599">
        <ele>104.5</ele>
        <time>2025-08-25T09:24:22Z</time>
      </trkpt>
      <trkpt lat="46.99387" lon="-0.95601">
        <ele>104.5</ele>
        <time>2025-08-25T09:24:23Z</time>
      </trkpt>
      <trkpt lat="46.99387" lon="-0.95602">
        <ele>104.6</ele>
        <time>2025-08-25T09:24:24Z</time>
      </trkpt>
      <trkpt lat="46.99386" lon="-0.95603">
        <ele>104.6</ele>
        <time>2025-08-25T09:24:25Z</time>
      </trkpt>
      <trkpt lat="46.99385" lon="-0.95603">
        <ele>104.7</ele>
        <time>2025-08-25T09:24:26Z</time>
      </trkpt>
      <trkpt lat="46.99385" lon="-0.95604">
        <ele>104.7</ele>
        <time>2025-08-25T09:24:27Z</time>
      </trkpt>
      <trkpt lat="46.99384" lon="-0.95605">
        <ele>104.7</ele>
        <time>2025-08-25T09:24:28Z</time>
      </trkpt>
      <trkpt lat="46.99383" lon="-0.95605">
        <ele>104.8</ele>
        <time>2025-08-25T09:24:29Z</time>
      </trkpt>
      <trkpt lat="46.99383" lon="-0.95605">
        <ele>104.8</ele>
        <time>2025-08-25T09:24:30Z</time>
      </trkpt>
      <trkpt lat="46.99382" lon="-0.95606">
        <ele>104.9</ele>
        <time>2025-08-25T09:24:31Z</time>
      </trkpt>
      <trkpt lat="46.99382" lon="-0.95606">
        <ele>104.9</ele>
        <time>2025-08-25T09:24:32Z</time>
      </trkpt>
      <trkpt lat="46.9938" lon="-0.95607">
        <ele>105</ele>
        <time>2025-08-25T09:24:33Z</time>
      </trkpt>
      <trkpt lat="46.99379" lon="-0.95607">
        <ele>105</ele>
        <time>2025-08-25T09:24:34Z</time>
      </trkpt>
      <trkpt lat="46.99378" lon="-0.95607">
        <ele>105.1</ele>
        <time>2025-08-25T09:24:35Z</time>
      </trkpt>
      <trkpt lat="46.99377" lon="-0.95608">
        <ele>105.1</ele>
        <time>2025-08-25T09:24:36Z</time>
      </trkpt>
      <trkpt lat="46.99376" lon="-0.95609">
        <ele>105.2</ele>
        <time>2025-08-25T09:24:37Z</time>
      </trkpt>
      <trkpt lat="46.99375" lon="-0.95609">
        <ele>105.3</ele>
        <time>2025-08-25T09:24:38Z</time>
      </trkpt>
      <trkpt lat="46.99375" lon="-0.95609">
        <ele>105.3</ele>
        <time>2025-08-25T09:24:39Z</time>
      </trkpt>
      <trkpt lat="46.99374" lon="-0.95609">
        <ele>105.4</ele>
        <time>2025-08-25T09:24:40Z</time>
      </trkpt>
      <trkpt lat="46.99373" lon="-0.95609">
        <ele>105.4</ele>
        <time>2025-08-25T09:24:41Z</time>
      </trkpt>
      <trkpt lat="46.99372" lon="-0.95608">
        <ele>105.5</ele>
        <time>2025-08-25T09:24:42Z</time>
      </trkpt>
      <trkpt lat="46.9937" lon="-0.95609">
        <ele>105.6</ele>
        <time>2025-08-25T09:24:43Z</time>
      </trkpt>
      <trkpt lat="46.99369" lon="-0.95609">
        <ele>105.6</ele>
        <time>2025-08-25T09:24:44Z</time>
      </trkpt>
      <trkpt lat="46.99368" lon="-0.95609">
        <ele>105.7</ele>
        <time>2025-08-25T09:24:45Z</time>
      </trkpt>
      <trkpt lat="46.99366" lon="-0.95609">
        <ele>105.9</ele>
        <time>2025-08-25T09:24:46Z</time>
      </trkpt>
      <trkpt lat="46.99365" lon="-0.95609">
        <ele>105.9</ele>
        <time>2025-08-25T09:24:47Z</time>
      </trkpt>
      <trkpt lat="46.99364" lon="-0.95609">
        <ele>106</ele>
        <time>2025-08-25T09:24:48Z</time>
      </trkpt>
      <trkpt lat="46.99363" lon="-0.95609">
        <ele>106</ele>
        <time>2025-08-25T09:24:49Z</time>
      </trkpt>
      <trkpt lat="46.99362" lon="-0.95609">
        <ele>106.1</ele>
        <time>2025-08-25T09:24:50Z</time>
      </trkpt>
      <trkpt lat="46.99361" lon="-0.95609">
        <ele>106.2</ele>
        <time>2025-08-25T09:24:51Z</time>
      </trkpt>
      <trkpt lat="46.99359" lon="-0.95609">
        <ele>106.3</ele>
        <time>2025-08-25T09:24:52Z</time>
      </trkpt>
      <trkpt lat="46.99358" lon="-0.95608">
        <ele>106.4</ele>
        <time>2025-08-25T09:24:53Z</time>
      </trkpt>
      <trkpt lat="46.99357" lon="-0.95608">
        <ele>106.5</ele>
        <time>2025-08-25T09:24:54Z</time>
      </trkpt>
      <trkpt lat="46.99356" lon="-0.95606">
        <ele>106.6</ele>
        <time>2025-08-25T09:24:55Z</time>
      </trkpt>
      <trkpt lat="46.99355" lon="-0.95606">
        <ele>106.7</ele>
        <time>2025-08-25T09:24:56Z</time>
      </trkpt>
      <trkpt lat="46.99354" lon="-0.95606">
        <ele>106.7</ele>
        <time>2025-08-25T09:24:57Z</time>
      </trkpt>
      <trkpt lat="46.99352" lon="-0.95605">
        <ele>106.9</ele>
        <time>2025-08-25T09:24:58Z</time>
      </trkpt>
      <trkpt lat="46.99351" lon="-0.95605">
        <ele>106.9</ele>
        <time>2025-08-25T09:24:59Z</time>
      </trkpt>
      <trkpt lat="46.9935" lon="-0.95604">
        <ele>107</ele>
        <time>2025-08-25T09:25:00Z</time>
      </trkpt>
      <trkpt lat="46.99348" lon="-0.95605">
        <ele>107.1</ele>
        <time>2025-08-25T09:25:01Z</time>
      </trkpt>
      <trkpt lat="46.99347" lon="-0.95605">
        <ele>107.2</ele>
        <time>2025-08-25T09:25:02Z</time>
      </trkpt>
      <trkpt lat="46.99347" lon="-0.95605">
        <ele>107.2</ele>
        <time>2025-08-25T09:25:03Z</time>
      </trkpt>
      <trkpt lat="46.99346" lon="-0.95605">
        <ele>107.3</ele>
        <time>2025-08-25T09:25:04Z</time>
      </trkpt>
      <trkpt lat="46.99345" lon="-0.95604">
        <ele>107.3</ele>
        <time>2025-08-25T09:25:05Z</time>
      </trkpt>
      <trkpt lat="46.99344" lon="-0.95605">
        <ele>107.4</ele>
        <time>2025-08-25T09:25:06Z</time>
      </trkpt>
      <trkpt lat="46.99343" lon="-0.95605">
        <ele>107.5</ele>
        <time>2025-08-25T09:25:07Z</time>
      </trkpt>
      <trkpt lat="46.99341" lon="-0.95605">
        <ele>107.6</ele>
        <time>2025-08-25T09:25:08Z</time>
      </trkpt>
      <trkpt lat="46.9934" lon="-0.95605">
        <ele>107.7</ele>
        <time>2025-08-25T09:25:09Z</time>
      </trkpt>
      <trkpt lat="46.99338" lon="-0.95605">
        <ele>107.8</ele>
        <time>2025-08-25T09:25:10Z</time>
      </trkpt>
      <trkpt lat="46.99338" lon="-0.95605">
        <ele>107.8</ele>
        <time>2025-08-25T09:25:11Z</time>
      </trkpt>
      <trkpt lat="46.99337" lon="-0.95605">
        <ele>107.9</ele>
        <time>2025-08-25T09:25:12Z</time>
      </trkpt>
      <trkpt lat="46.99335" lon="-0.95605">
        <ele>108</ele>
        <time>2025-08-25T09:25:13Z</time>
      </trkpt>
      <trkpt lat="46.99334" lon="-0.95606">
        <ele>108.1</ele>
        <time>2025-08-25T09:25:14Z</time>
      </trkpt>
      <trkpt lat="46.99333" lon="-0.95605">
        <ele>108.1</ele>
        <time>2025-08-25T09:25:15Z</time>
      </trkpt>
      <trkpt lat="46.99332" lon="-0.95605">
        <ele>108.2</ele>
        <time>2025-08-25T09:25:16Z</time>
      </trkpt>
      <trkpt lat="46.9933" lon="-0.95605">
        <ele>108.3</ele>
        <time>2025-08-25T09:25:17Z</time>
      </trkpt>
      <trkpt lat="46.99329" lon="-0.95605">
        <ele>108.4</ele>
        <time>2025-08-25T09:25:18Z</time>
      </trkpt>
      <trkpt lat="46.99327" lon="-0.95605">
        <ele>108.5</ele>
        <time>2025-08-25T09:25:19Z</time>
      </trkpt>
      <trkpt lat="46.99326" lon="-0.95604">
        <ele>108.6</ele>
        <time>2025-08-25T09:25:20Z</time>
      </trkpt>
      <trkpt lat="46.99325" lon="-0.95604">
        <ele>108.7</ele>
        <time>2025-08-25T09:25:21Z</time>
      </trkpt>
      <trkpt lat="46.99323" lon="-0.95604">
        <ele>108.8</ele>
        <time>2025-08-25T09:25:22Z</time>
      </trkpt>
      <trkpt lat="46.99322" lon="-0.95604">
        <ele>108.9</ele>
        <time>2025-08-25T09:25:23Z</time>
      </trkpt>
      <trkpt lat="46.9932" lon="-0.95604">
        <ele>109</ele>
        <time>2025-08-25T09:25:24Z</time>
      </trkpt>
      <trkpt lat="46.99319" lon="-0.95604">
        <ele>109.1</ele>
        <time>2025-08-25T09:25:25Z</time>
      </trkpt>
      <trkpt lat="46.99318" lon="-0.95605">
        <ele>109.2</ele>
        <time>2025-08-25T09:25:26Z</time>
      </trkpt>
      <trkpt lat="46.99316" lon="-0.95604">
        <ele>109.3</ele>
        <time>2025-08-25T09:25:27Z</time>
      </trkpt>
      <trkpt lat="46.99315" lon="-0.95603">
        <ele>109.4</ele>
        <time>2025-08-25T09:25:28Z</time>
      </trkpt>
      <trkpt lat="46.99314" lon="-0.95603">
        <ele>109.4</ele>
        <time>2025-08-25T09:25:29Z</time>
      </trkpt>
      <trkpt lat="46.99312" lon="-0.95602">
        <ele>109.5</ele>
        <time>2025-08-25T09:25:30Z</time>
      </trkpt>
      <trkpt lat="46.99311" lon="-0.95602">
        <ele>109.6</ele>
        <time>2025-08-25T09:25:31Z</time>
      </trkpt>
      <trkpt lat="46.9931" lon="-0.95602">
        <ele>109.7</ele>
        <time>2025-08-25T09:25:32Z</time>
      </trkpt>
      <trkpt lat="46.99308" lon="-0.95602">
        <ele>109.8</ele>
        <time>2025-08-25T09:25:33Z</time>
      </trkpt>
      <trkpt lat="46.99307" lon="-0.95602">
        <ele>109.9</ele>
        <time>2025-08-25T09:25:34Z</time>
      </trkpt>
      <trkpt lat="46.99306" lon="-0.95602">
        <ele>109.9</ele>
        <time>2025-08-25T09:25:35Z</time>
      </trkpt>
      <trkpt lat="46.99305" lon="-0.95602">
        <ele>110</ele>
        <time>2025-08-25T09:25:36Z</time>
      </trkpt>
      <trkpt lat="46.99304" lon="-0.95603">
        <ele>110.1</ele>
        <time>2025-08-25T09:25:37Z</time>
      </trkpt>
      <trkpt lat="46.99303" lon="-0.95603">
        <ele>110.2</ele>
        <time>2025-08-25T09:25:38Z</time>
      </trkpt>
      <trkpt lat="46.99302" lon="-0.95604">
        <ele>110.2</ele>
        <time>2025-08-25T09:25:39Z</time>
      </trkpt>
      <trkpt lat="46.99301" lon="-0.95605">
        <ele>110.3</ele>
        <time>2025-08-25T09:25:40Z</time>
      </trkpt>
      <trkpt lat="46.993" lon="-0.95606">
        <ele>110.3</ele>
        <time>2025-08-25T09:25:41Z</time>
      </trkpt>
      <trkpt lat="46.99301" lon="-0.95608">
        <ele>110.4</ele>
        <time>2025-08-25T09:25:42Z</time>
      </trkpt>
      <trkpt lat="46.99301" lon="-0.95609">
        <ele>110.4</ele>
        <time>2025-08-25T09:25:43Z</time>
      </trkpt>
      <trkpt lat="46.993" lon="-0.9561">
        <ele>110.5</ele>
        <time>2025-08-25T09:25:44Z</time>
      </trkpt>
      <trkpt lat="46.993" lon="-0.95611">
        <ele>110.5</ele>
        <time>2025-08-25T09:25:45Z</time>
      </trkpt>
      <trkpt lat="46.99301" lon="-0.95612">
        <ele>110.6</ele>
        <time>2025-08-25T09:25:46Z</time>
      </trkpt>
      <trkpt lat="46.99301" lon="-0.95613">
        <ele>110.6</ele>
        <time>2025-08-25T09:25:47Z</time>
      </trkpt>
      <trkpt lat="46.99302" lon="-0.95614">
        <ele>110.7</ele>
        <time>2025-08-25T09:25:48Z</time>
      </trkpt>
      <trkpt lat="46.99303" lon="-0.95614">
        <ele>110.7</ele>
        <time>2025-08-25T09:25:49Z</time>
      </trkpt>
      <trkpt lat="46.99303" lon="-0.95614">
        <ele>110.7</ele>
        <time>2025-08-25T09:25:50Z</time>
      </trkpt>
      <trkpt lat="46.99303" lon="-0.95615">
        <ele>110.8</ele>
        <time>2025-08-25T09:25:51Z</time>
      </trkpt>
      <trkpt lat="46.99303" lon="-0.95615">
        <ele>110.8</ele>
        <time>2025-08-25T09:25:52Z</time>
      </trkpt>
      <trkpt lat="46.99303" lon="-0.95615">
        <ele>110.8</ele>
        <time>2025-08-25T09:25:53Z</time>
      </trkpt>
      <trkpt lat="46.99303" lon="-0.95615">
        <ele>110.8</ele>
        <time>2025-08-25T09:25:54Z</time>
      </trkpt>
      <trkpt lat="46.99303" lon="-0.95614">
        <ele>110.8</ele>
        <time>2025-08-25T09:25:55Z</time>
      </trkpt>
      <trkpt lat="46.99303" lon="-0.95613">
        <ele>110.9</ele>
        <time>2025-08-25T09:25:56Z</time>
      </trkpt>
      <trkpt lat="46.99302" lon="-0.95612">
        <ele>110.9</ele>
        <time>2025-08-25T09:25:57Z</time>
      </trkpt>
      <trkpt lat="46.99301" lon="-0.9561">
        <ele>111</ele>
        <time>2025-08-25T09:25:58Z</time>
      </trkpt>
      <trkpt lat="46.99301" lon="-0.95608">
        <ele>111.1</ele>
        <time>2025-08-25T09:25:59Z</time>
      </trkpt>
      <trkpt lat="46.99301" lon="-0.95605">
        <ele>111.2</ele>
        <time>2025-08-25T09:26:00Z</time>
      </trkpt>
      <trkpt lat="46.993" lon="-0.95603">
        <ele>111.2</ele>
        <time>2025-08-25T09:26:01Z</time>
      </trkpt>
      <trkpt lat="46.993" lon="-0.956">
        <ele>111.3</ele>
        <time>2025-08-25T09:26:02Z</time>
      </trkpt>
      <trkpt lat="46.993" lon="-0.95599">
        <ele>111.4</ele>
        <time>2025-08-25T09:26:03Z</time>
      </trkpt>
      <trkpt lat="46.993" lon="-0.95599">
        <ele>111.4</ele>
        <time>2025-08-25T09:26:04Z</time>
      </trkpt>
      <trkpt lat="46.99299" lon="-0.95594">
        <ele>111.6</ele>
        <time>2025-08-25T09:26:05Z</time>
      </trkpt>
      <trkpt lat="46.99299" lon="-0.95592">
        <ele>111.6</ele>
        <time>2025-08-25T09:26:06Z</time>
      </trkpt>
      <trkpt lat="46.99299" lon="-0.9559">
        <ele>111.7</ele>
        <time>2025-08-25T09:26:07Z</time>
      </trkpt>
      <trkpt lat="46.99299" lon="-0.95588">
        <ele>111.8</ele>
        <time>2025-08-25T09:26:08Z</time>
      </trkpt>
      <trkpt lat="46.99299" lon="-0.95586">
        <ele>111.9</ele>
        <time>2025-08-25T09:26:09Z</time>
      </trkpt>
      <trkpt lat="46.993" lon="-0.95584">
        <ele>111.9</ele>
        <time>2025-08-25T09:26:10Z</time>
      </trkpt>
      <trkpt lat="46.99301" lon="-0.95583">
        <ele>112</ele>
        <time>2025-08-25T09:26:11Z</time>
      </trkpt>
      <trkpt lat="46.99301" lon="-0.9558">
        <ele>112.1</ele>
        <time>2025-08-25T09:26:12Z</time>
      </trkpt>
      <trkpt lat="46.99302" lon="-0.95578">
        <ele>112.2</ele>
        <time>2025-08-25T09:26:13Z</time>
      </trkpt>
      <trkpt lat="46.99302" lon="-0.95576">
        <ele>112.3</ele>
        <time>2025-08-25T09:26:14Z</time>
      </trkpt>
      <trkpt lat="46.99302" lon="-0.95574">
        <ele>112.4</ele>
        <time>2025-08-25T09:26:15Z</time>
      </trkpt>
      <trkpt lat="46.99303" lon="-0.95572">
        <ele>112.4</ele>
        <time>2025-08-25T09:26:16Z</time>
      </trkpt>
      <trkpt lat="46.99302" lon="-0.9557">
        <ele>112.5</ele>
        <time>2025-08-25T09:26:17Z</time>
      </trkpt>
      <trkpt lat="46.99302" lon="-0.95567">
        <ele>112.6</ele>
        <time>2025-08-25T09:26:18Z</time>
      </trkpt>
      <trkpt lat="46.99302" lon="-0.95564">
        <ele>112.7</ele>
        <time>2025-08-25T09:26:19Z</time>
      </trkpt>
      <trkpt lat="46.99302" lon="-0.95563">
        <ele>112.8</ele>
        <time>2025-08-25T09:26:20Z</time>
      </trkpt>
      <trkpt lat="46.99302" lon="-0.95562">
        <ele>112.8</ele>
        <time>2025-08-25T09:26:21Z</time>
      </trkpt>
      <trkpt lat="46.99302" lon="-0.95561">
        <ele>112.8</ele>
        <time>2025-08-25T09:26:22Z</time>
      </trkpt>
      <trkpt lat="46.99302" lon="-0.95559">
        <ele>112.9</ele>
        <time>2025-08-25T09:26:23Z</time>
      </trkpt>
      <trkpt lat="46.99302" lon="-0.95558">
        <ele>113</ele>
        <time>2025-08-25T09:26:24Z</time>
      </trkpt>
      <trkpt lat="46.99302" lon="-0.95555">
        <ele>113.1</ele>
        <time>2025-08-25T09:26:25Z</time>
      </trkpt>
      <trkpt lat="46.99303" lon="-0.95554">
        <ele>113.1</ele>
        <time>2025-08-25T09:26:26Z</time>
      </trkpt>
      <trkpt lat="46.99303" lon="-0.95552">
        <ele>113.2</ele>
        <time>2025-08-25T09:26:27Z</time>
      </trkpt>
      <trkpt lat="46.99303" lon="-0.9555">
        <ele>113.2</ele>
        <time>2025-08-25T09:26:28Z</time>
      </trkpt>
      <trkpt lat="46.99303" lon="-0.95548">
        <ele>113.3</ele>
        <time>2025-08-25T09:26:29Z</time>
      </trkpt>
      <trkpt lat="46.99304" lon="-0.95545">
        <ele>113.4</ele>
        <time>2025-08-25T09:26:30Z</time>
      </trkpt>
      <trkpt lat="46.99304" lon="-0.95544">
        <ele>113.5</ele>
        <time>2025-08-25T09:26:31Z</time>
      </trkpt>
      <trkpt lat="46.99304" lon="-0.95543">
        <ele>113.5</ele>
        <time>2025-08-25T09:26:32Z</time>
      </trkpt>
      <trkpt lat="46.99304" lon="-0.95539">
        <ele>113.6</ele>
        <time>2025-08-25T09:26:33Z</time>
      </trkpt>
      <trkpt lat="46.99304" lon="-0.95538">
        <ele>113.7</ele>
        <time>2025-08-25T09:26:34Z</time>
      </trkpt>
      <trkpt lat="46.99304" lon="-0.95537">
        <ele>113.7</ele>
        <time>2025-08-25T09:26:35Z</time>
      </trkpt>
      <trkpt lat="46.99304" lon="-0.95533">
        <ele>113.8</ele>
        <time>2025-08-25T09:26:36Z</time>
      </trkpt>
      <trkpt lat="46.99304" lon="-0.95532">
        <ele>113.9</ele>
        <time>2025-08-25T09:26:37Z</time>
      </trkpt>
      <trkpt lat="46.99304" lon="-0.95531">
        <ele>113.9</ele>
        <time>2025-08-25T09:26:38Z</time>
      </trkpt>
      <trkpt lat="46.99304" lon="-0.95528">
        <ele>114</ele>
        <time>2025-08-25T09:26:39Z</time>
      </trkpt>
      <trkpt lat="46.99304" lon="-0.95527">
        <ele>114.1</ele>
        <time>2025-08-25T09:26:40Z</time>
      </trkpt>
      <trkpt lat="46.99304" lon="-0.95524">
        <ele>114.1</ele>
        <time>2025-08-25T09:26:41Z</time>
      </trkpt>
      <trkpt lat="46.99304" lon="-0.95522">
        <ele>114.2</ele>
        <time>2025-08-25T09:26:42Z</time>
      </trkpt>
      <trkpt lat="46.99303" lon="-0.9552">
        <ele>114.3</ele>
        <time>2025-08-25T09:26:43Z</time>
      </trkpt>
      <trkpt lat="46.99303" lon="-0.9552">
        <ele>114.3</ele>
        <time>2025-08-25T09:26:44Z</time>
      </trkpt>
      <trkpt lat="46.99303" lon="-0.95518">
        <ele>114.3</ele>
        <time>2025-08-25T09:26:45Z</time>
      </trkpt>
      <trkpt lat="46.993" lon="-0.95515">
        <ele>114.5</ele>
        <time>2025-08-25T09:26:46Z</time>
      </trkpt>
      <trkpt lat="46.993" lon="-0.95514">
        <ele>114.5</ele>
        <time>2025-08-25T09:26:48Z</time>
      </trkpt>
      <trkpt lat="46.993" lon="-0.95513">
        <ele>114.6</ele>
        <time>2025-08-25T09:26:49Z</time>
      </trkpt>
      <trkpt lat="46.99299" lon="-0.95511">
        <ele>114.6</ele>
        <time>2025-08-25T09:26:50Z</time>
      </trkpt>
      <trkpt lat="46.99299" lon="-0.9551">
        <ele>114.7</ele>
        <time>2025-08-25T09:26:51Z</time>
      </trkpt>
      <trkpt lat="46.99298" lon="-0.95508">
        <ele>114.7</ele>
        <time>2025-08-25T09:26:52Z</time>
      </trkpt>
      <trkpt lat="46.99298" lon="-0.95507">
        <ele>114.8</ele>
        <time>2025-08-25T09:26:53Z</time>
      </trkpt>
      <trkpt lat="46.99298" lon="-0.95505">
        <ele>114.8</ele>
        <time>2025-08-25T09:26:54Z</time>
      </trkpt>
      <trkpt lat="46.99298" lon="-0.95503">
        <ele>114.9</ele>
        <time>2025-08-25T09:26:55Z</time>
      </trkpt>
      <trkpt lat="46.99298" lon="-0.95502">
        <ele>114.9</ele>
        <time>2025-08-25T09:26:56Z</time>
      </trkpt>
      <trkpt lat="46.99298" lon="-0.955">
        <ele>115</ele>
        <time>2025-08-25T09:26:57Z</time>
      </trkpt>
      <trkpt lat="46.99298" lon="-0.95498">
        <ele>115</ele>
        <time>2025-08-25T09:26:58Z</time>
      </trkpt>
      <trkpt lat="46.99299" lon="-0.95496">
        <ele>115</ele>
        <time>2025-08-25T09:26:59Z</time>
      </trkpt>
      <trkpt lat="46.993" lon="-0.95494">
        <ele>115.1</ele>
        <time>2025-08-25T09:27:00Z</time>
      </trkpt>
      <trkpt lat="46.99301" lon="-0.95493">
        <ele>115.1</ele>
        <time>2025-08-25T09:27:01Z</time>
      </trkpt>
      <trkpt lat="46.99302" lon="-0.95491">
        <ele>115.2</ele>
        <time>2025-08-25T09:27:02Z</time>
      </trkpt>
      <trkpt lat="46.99303" lon="-0.95491">
        <ele>115.2</ele>
        <time>2025-08-25T09:27:03Z</time>
      </trkpt>
      <trkpt lat="46.99304" lon="-0.9549">
        <ele>115.2</ele>
        <time>2025-08-25T09:27:04Z</time>
      </trkpt>
      <trkpt lat="46.99306" lon="-0.95489">
        <ele>115.2</ele>
        <time>2025-08-25T09:27:05Z</time>
      </trkpt>
      <trkpt lat="46.99307" lon="-0.95488">
        <ele>115.3</ele>
        <time>2025-08-25T09:27:06Z</time>
      </trkpt>
      <trkpt lat="46.99307" lon="-0.95487">
        <ele>115.3</ele>
        <time>2025-08-25T09:27:07Z</time>
      </trkpt>
      <trkpt lat="46.99309" lon="-0.95485">
        <ele>115.3</ele>
        <time>2025-08-25T09:27:08Z</time>
      </trkpt>
      <trkpt lat="46.9931" lon="-0.95484">
        <ele>115.3</ele>
        <time>2025-08-25T09:27:09Z</time>
      </trkpt>
      <trkpt lat="46.99311" lon="-0.95483">
        <ele>115.4</ele>
        <time>2025-08-25T09:27:10Z</time>
      </trkpt>
      <trkpt lat="46.99312" lon="-0.95481">
        <ele>115.4</ele>
        <time>2025-08-25T09:27:11Z</time>
      </trkpt>
      <trkpt lat="46.99312" lon="-0.95477">
        <ele>115.6</ele>
        <time>2025-08-25T09:27:12Z</time>
      </trkpt>
      <trkpt lat="46.99312" lon="-0.95475">
        <ele>115.7</ele>
        <time>2025-08-25T09:27:13Z</time>
      </trkpt>
      <trkpt lat="46.99311" lon="-0.95472">
        <ele>115.8</ele>
        <time>2025-08-25T09:27:14Z</time>
      </trkpt>
      <trkpt lat="46.99311" lon="-0.9547">
        <ele>115.9</ele>
        <time>2025-08-25T09:27:15Z</time>
      </trkpt>
      <trkpt lat="46.9931" lon="-0.95468">
        <ele>116.1</ele>
        <time>2025-08-25T09:27:16Z</time>
      </trkpt>
      <trkpt lat="46.99309" lon="-0.95467">
        <ele>116.1</ele>
        <time>2025-08-25T09:27:17Z</time>
      </trkpt>
      <trkpt lat="46.99308" lon="-0.95466">
        <ele>116.2</ele>
        <time>2025-08-25T09:27:18Z</time>
      </trkpt>
      <trkpt lat="46.99308" lon="-0.95465">
        <ele>116.3</ele>
        <time>2025-08-25T09:27:19Z</time>
      </trkpt>
      <trkpt lat="46.99307" lon="-0.95463">
        <ele>116.4</ele>
        <time>2025-08-25T09:27:20Z</time>
      </trkpt>
      <trkpt lat="46.99307" lon="-0.95461">
        <ele>116.4</ele>
        <time>2025-08-25T09:27:21Z</time>
      </trkpt>
      <trkpt lat="46.99306" lon="-0.95458">
        <ele>116.6</ele>
        <time>2025-08-25T09:27:22Z</time>
      </trkpt>
      <trkpt lat="46.99306" lon="-0.95457">
        <ele>116.6</ele>
        <time>2025-08-25T09:27:23Z</time>
      </trkpt>
      <trkpt lat="46.99306" lon="-0.95456">
        <ele>116.7</ele>
        <time>2025-08-25T09:27:24Z</time>
      </trkpt>
      <trkpt lat="46.99306" lon="-0.95453">
        <ele>116.8</ele>
        <time>2025-08-25T09:27:25Z</time>
      </trkpt>
      <trkpt lat="46.99305" lon="-0.95451">
        <ele>116.9</ele>
        <time>2025-08-25T09:27:26Z</time>
      </trkpt>
      <trkpt lat="46.99305" lon="-0.9545">
        <ele>116.9</ele>
        <time>2025-08-25T09:27:27Z</time>
      </trkpt>
      <trkpt lat="46.99304" lon="-0.95448">
        <ele>117</ele>
        <time>2025-08-25T09:27:28Z</time>
      </trkpt>
      <trkpt lat="46.99303" lon="-0.95446">
        <ele>117.1</ele>
        <time>2025-08-25T09:27:29Z</time>
      </trkpt>
      <trkpt lat="46.99303" lon="-0.95443">
        <ele>117.2</ele>
        <time>2025-08-25T09:27:30Z</time>
      </trkpt>
      <trkpt lat="46.99303" lon="-0.95442">
        <ele>117.3</ele>
        <time>2025-08-25T09:27:31Z</time>
      </trkpt>
      <trkpt lat="46.99302" lon="-0.95441">
        <ele>117.3</ele>
        <time>2025-08-25T09:27:32Z</time>
      </trkpt>
      <trkpt lat="46.99302" lon="-0.95439">
        <ele>117.4</ele>
        <time>2025-08-25T09:27:33Z</time>
      </trkpt>
      <trkpt lat="46.99302" lon="-0.95437">
        <ele>117.5</ele>
        <time>2025-08-25T09:27:34Z</time>
      </trkpt>
      <trkpt lat="46.99301" lon="-0.95434">
        <ele>117.6</ele>
        <time>2025-08-25T09:27:35Z</time>
      </trkpt>
      <trkpt lat="46.99301" lon="-0.95433">
        <ele>117.7</ele>
        <time>2025-08-25T09:27:36Z</time>
      </trkpt>
      <trkpt lat="46.993" lon="-0.95431">
        <ele>117.7</ele>
        <time>2025-08-25T09:27:37Z</time>
      </trkpt>
      <trkpt lat="46.99299" lon="-0.95429">
        <ele>117.9</ele>
        <time>2025-08-25T09:27:38Z</time>
      </trkpt>
      <trkpt lat="46.99298" lon="-0.95429">
        <ele>118</ele>
        <time>2025-08-25T09:27:39Z</time>
      </trkpt>
      <trkpt lat="46.99297" lon="-0.95428">
        <ele>118</ele>
        <time>2025-08-25T09:27:40Z</time>
      </trkpt>
      <trkpt lat="46.99297" lon="-0.95427">
        <ele>118.1</ele>
        <time>2025-08-25T09:27:41Z</time>
      </trkpt>
      <trkpt lat="46.99296" lon="-0.95426">
        <ele>118.2</ele>
        <time>2025-08-25T09:27:42Z</time>
      </trkpt>
      <trkpt lat="46.99296" lon="-0.95424">
        <ele>118.3</ele>
        <time>2025-08-25T09:27:43Z</time>
      </trkpt>
      <trkpt lat="46.99295" lon="-0.95423">
        <ele>118.3</ele>
        <time>2025-08-25T09:27:44Z</time>
      </trkpt>
      <trkpt lat="46.99295" lon="-0.95422">
        <ele>118.4</ele>
        <time>2025-08-25T09:27:45Z</time>
      </trkpt>
      <trkpt lat="46.99294" lon="-0.9542">
        <ele>118.5</ele>
        <time>2025-08-25T09:27:46Z</time>
      </trkpt>
      <trkpt lat="46.99294" lon="-0.95419">
        <ele>118.5</ele>
        <time>2025-08-25T09:27:47Z</time>
      </trkpt>
      <trkpt lat="46.99293" lon="-0.95418">
        <ele>118.6</ele>
        <time>2025-08-25T09:27:48Z</time>
      </trkpt>
      <trkpt lat="46.99293" lon="-0.95416">
        <ele>118.7</ele>
        <time>2025-08-25T09:27:49Z</time>
      </trkpt>
      <trkpt lat="46.99293" lon="-0.95414">
        <ele>118.8</ele>
        <time>2025-08-25T09:27:50Z</time>
      </trkpt>
      <trkpt lat="46.99293" lon="-0.95413">
        <ele>118.8</ele>
        <time>2025-08-25T09:27:51Z</time>
      </trkpt>
      <trkpt lat="46.99293" lon="-0.95411">
        <ele>118.9</ele>
        <time>2025-08-25T09:27:52Z</time>
      </trkpt>
      <trkpt lat="46.99293" lon="-0.95409">
        <ele>119</ele>
        <time>2025-08-25T09:27:53Z</time>
      </trkpt>
      <trkpt lat="46.99293" lon="-0.95407">
        <ele>119.1</ele>
        <time>2025-08-25T09:27:54Z</time>
      </trkpt>
      <trkpt lat="46.99293" lon="-0.95406">
        <ele>119.1</ele>
        <time>2025-08-25T09:27:55Z</time>
      </trkpt>
      <trkpt lat="46.99293" lon="-0.95405">
        <ele>119.2</ele>
        <time>2025-08-25T09:27:56Z</time>
      </trkpt>
      <trkpt lat="46.99292" lon="-0.95404">
        <ele>119.2</ele>
        <time>2025-08-25T09:27:57Z</time>
      </trkpt>
      <trkpt lat="46.99292" lon="-0.95402">
        <ele>119.3</ele>
        <time>2025-08-25T09:27:58Z</time>
      </trkpt>
      <trkpt lat="46.99292" lon="-0.95401">
        <ele>119.4</ele>
        <time>2025-08-25T09:27:59Z</time>
      </trkpt>
      <trkpt lat="46.99292" lon="-0.95399">
        <ele>119.4</ele>
        <time>2025-08-25T09:28:00Z</time>
      </trkpt>
      <trkpt lat="46.99292" lon="-0.95397">
        <ele>119.5</ele>
        <time>2025-08-25T09:28:01Z</time>
      </trkpt>
      <trkpt lat="46.99292" lon="-0.95396">
        <ele>119.6</ele>
        <time>2025-08-25T09:28:02Z</time>
      </trkpt>
      <trkpt lat="46.99292" lon="-0.95394">
        <ele>119.6</ele>
        <time>2025-08-25T09:28:03Z</time>
      </trkpt>
      <trkpt lat="46.99291" lon="-0.95393">
        <ele>119.7</ele>
        <time>2025-08-25T09:28:04Z</time>
      </trkpt>
      <trkpt lat="46.99291" lon="-0.95391">
        <ele>119.7</ele>
        <time>2025-08-25T09:28:05Z</time>
      </trkpt>
      <trkpt lat="46.99291" lon="-0.9539">
        <ele>119.8</ele>
        <time>2025-08-25T09:28:06Z</time>
      </trkpt>
      <trkpt lat="46.9929" lon="-0.95388">
        <ele>119.8</ele>
        <time>2025-08-25T09:28:07Z</time>
      </trkpt>
      <trkpt lat="46.9929" lon="-0.95387">
        <ele>119.9</ele>
        <time>2025-08-25T09:28:08Z</time>
      </trkpt>
      <trkpt lat="46.9929" lon="-0.95385">
        <ele>119.9</ele>
        <time>2025-08-25T09:28:09Z</time>
      </trkpt>
      <trkpt lat="46.99289" lon="-0.95384">
        <ele>120</ele>
        <time>2025-08-25T09:28:10Z</time>
      </trkpt>
      <trkpt lat="46.99289" lon="-0.95383">
        <ele>120</ele>
        <time>2025-08-25T09:28:11Z</time>
      </trkpt>
      <trkpt lat="46.99289" lon="-0.95382">
        <ele>120.1</ele>
        <time>2025-08-25T09:28:12Z</time>
      </trkpt>
      <trkpt lat="46.99289" lon="-0.9538">
        <ele>120.1</ele>
        <time>2025-08-25T09:28:13Z</time>
      </trkpt>
      <trkpt lat="46.99289" lon="-0.95379">
        <ele>120.1</ele>
        <time>2025-08-25T09:28:14Z</time>
      </trkpt>
      <trkpt lat="46.99289" lon="-0.95378">
        <ele>120.1</ele>
        <time>2025-08-25T09:28:15Z</time>
      </trkpt>
      <trkpt lat="46.99289" lon="-0.95375">
        <ele>120.2</ele>
        <time>2025-08-25T09:28:16Z</time>
      </trkpt>
      <trkpt lat="46.99289" lon="-0.95373">
        <ele>120.2</ele>
        <time>2025-08-25T09:28:18Z</time>
      </trkpt>
      <trkpt lat="46.99289" lon="-0.95372">
        <ele>120.2</ele>
        <time>2025-08-25T09:28:19Z</time>
      </trkpt>
      <trkpt lat="46.99289" lon="-0.9537">
        <ele>120.2</ele>
        <time>2025-08-25T09:28:20Z</time>
      </trkpt>
      <trkpt lat="46.99289" lon="-0.95368">
        <ele>120.2</ele>
        <time>2025-08-25T09:28:21Z</time>
      </trkpt>
      <trkpt lat="46.9929" lon="-0.95365">
        <ele>120.2</ele>
        <time>2025-08-25T09:28:22Z</time>
      </trkpt>
      <trkpt lat="46.9929" lon="-0.95364">
        <ele>120.2</ele>
        <time>2025-08-25T09:28:23Z</time>
      </trkpt>
      <trkpt lat="46.9929" lon="-0.95362">
        <ele>120.2</ele>
        <time>2025-08-25T09:28:24Z</time>
      </trkpt>
      <trkpt lat="46.9929" lon="-0.95361">
        <ele>120.2</ele>
        <time>2025-08-25T09:28:25Z</time>
      </trkpt>
      <trkpt lat="46.9929" lon="-0.95359">
        <ele>120.2</ele>
        <time>2025-08-25T09:28:26Z</time>
      </trkpt>
      <trkpt lat="46.9929" lon="-0.95357">
        <ele>120.2</ele>
        <time>2025-08-25T09:28:27Z</time>
      </trkpt>
      <trkpt lat="46.9929" lon="-0.95356">
        <ele>120.2</ele>
        <time>2025-08-25T09:28:28Z</time>
      </trkpt>
      <trkpt lat="46.99291" lon="-0.95354">
        <ele>120.3</ele>
        <time>2025-08-25T09:28:29Z</time>
      </trkpt>
      <trkpt lat="46.99291" lon="-0.95352">
        <ele>120.3</ele>
        <time>2025-08-25T09:28:30Z</time>
      </trkpt>
      <trkpt lat="46.9929" lon="-0.95349">
        <ele>120.3</ele>
        <time>2025-08-25T09:28:31Z</time>
      </trkpt>
      <trkpt lat="46.9929" lon="-0.95348">
        <ele>120.3</ele>
        <time>2025-08-25T09:28:32Z</time>
      </trkpt>
      <trkpt lat="46.9929" lon="-0.95347">
        <ele>120.3</ele>
        <time>2025-08-25T09:28:33Z</time>
      </trkpt>
      <trkpt lat="46.99288" lon="-0.95344">
        <ele>120.3</ele>
        <time>2025-08-25T09:28:34Z</time>
      </trkpt>
      <trkpt lat="46.99288" lon="-0.95343">
        <ele>120.3</ele>
        <time>2025-08-25T09:28:35Z</time>
      </trkpt>
      <trkpt lat="46.99287" lon="-0.95342">
        <ele>120.3</ele>
        <time>2025-08-25T09:28:36Z</time>
      </trkpt>
      <trkpt lat="46.99286" lon="-0.95342">
        <ele>120.4</ele>
        <time>2025-08-25T09:28:37Z</time>
      </trkpt>
      <trkpt lat="46.99284" lon="-0.95342">
        <ele>120.4</ele>
        <time>2025-08-25T09:28:38Z</time>
      </trkpt>
      <trkpt lat="46.99282" lon="-0.95343">
        <ele>120.5</ele>
        <time>2025-08-25T09:28:39Z</time>
      </trkpt>
      <trkpt lat="46.99281" lon="-0.95343">
        <ele>120.5</ele>
        <time>2025-08-25T09:28:40Z</time>
      </trkpt>
      <trkpt lat="46.9928" lon="-0.95344">
        <ele>120.5</ele>
        <time>2025-08-25T09:28:41Z</time>
      </trkpt>
      <trkpt lat="46.99279" lon="-0.95344">
        <ele>120.5</ele>
        <time>2025-08-25T09:28:42Z</time>
      </trkpt>
      <trkpt lat="46.99278" lon="-0.95345">
        <ele>120.5</ele>
        <time>2025-08-25T09:28:43Z</time>
      </trkpt>
      <trkpt lat="46.99277" lon="-0.95345">
        <ele>120.5</ele>
        <time>2025-08-25T09:28:44Z</time>
      </trkpt>
      <trkpt lat="46.99275" lon="-0.95345">
        <ele>120.6</ele>
        <time>2025-08-25T09:28:45Z</time>
      </trkpt>
      <trkpt lat="46.99274" lon="-0.95346">
        <ele>120.6</ele>
        <time>2025-08-25T09:28:46Z</time>
      </trkpt>
      <trkpt lat="46.99272" lon="-0.95346">
        <ele>120.6</ele>
        <time>2025-08-25T09:28:47Z</time>
      </trkpt>
      <trkpt lat="46.99271" lon="-0.95345">
        <ele>120.6</ele>
        <time>2025-08-25T09:28:48Z</time>
      </trkpt>
      <trkpt lat="46.9927" lon="-0.95345">
        <ele>120.6</ele>
        <time>2025-08-25T09:28:49Z</time>
      </trkpt>
      <trkpt lat="46.99269" lon="-0.95345">
        <ele>120.6</ele>
        <time>2025-08-25T09:28:50Z</time>
      </trkpt>
      <trkpt lat="46.99268" lon="-0.95345">
        <ele>120.6</ele>
        <time>2025-08-25T09:28:51Z</time>
      </trkpt>
      <trkpt lat="46.99267" lon="-0.95346">
        <ele>120.6</ele>
        <time>2025-08-25T09:28:52Z</time>
      </trkpt>
      <trkpt lat="46.99265" lon="-0.95348">
        <ele>120.6</ele>
        <time>2025-08-25T09:28:53Z</time>
      </trkpt>
      <trkpt lat="46.99265" lon="-0.95348">
        <ele>120.6</ele>
        <time>2025-08-25T09:28:54Z</time>
      </trkpt>
      <trkpt lat="46.99264" lon="-0.95348">
        <ele>120.6</ele>
        <time>2025-08-25T09:28:55Z</time>
      </trkpt>
      <trkpt lat="46.99263" lon="-0.95348">
        <ele>120.6</ele>
        <time>2025-08-25T09:28:56Z</time>
      </trkpt>
      <trkpt lat="46.99262" lon="-0.95347">
        <ele>120.6</ele>
        <time>2025-08-25T09:28:57Z</time>
      </trkpt>
      <trkpt lat="46.99261" lon="-0.95347">
        <ele>120.6</ele>
        <time>2025-08-25T09:28:58Z</time>
      </trkpt>
      <trkpt lat="46.9926" lon="-0.95346">
        <ele>120.6</ele>
        <time>2025-08-25T09:28:59Z</time>
      </trkpt>
      <trkpt lat="46.99259" lon="-0.95345">
        <ele>120.6</ele>
        <time>2025-08-25T09:29:00Z</time>
      </trkpt>
      <trkpt lat="46.99259" lon="-0.95344">
        <ele>120.6</ele>
        <time>2025-08-25T09:29:01Z</time>
      </trkpt>
      <trkpt lat="46.99258" lon="-0.95343">
        <ele>120.5</ele>
        <time>2025-08-25T09:29:02Z</time>
      </trkpt>
      <trkpt lat="46.99258" lon="-0.95341">
        <ele>120.5</ele>
        <time>2025-08-25T09:29:03Z</time>
      </trkpt>
      <trkpt lat="46.99257" lon="-0.95341">
        <ele>120.5</ele>
        <time>2025-08-25T09:29:04Z</time>
      </trkpt>
      <trkpt lat="46.99257" lon="-0.9534">
        <ele>120.5</ele>
        <time>2025-08-25T09:29:05Z</time>
      </trkpt>
      <trkpt lat="46.99256" lon="-0.95339">
        <ele>120.5</ele>
        <time>2025-08-25T09:29:06Z</time>
      </trkpt>
      <trkpt lat="46.99255" lon="-0.95338">
        <ele>120.5</ele>
        <time>2025-08-25T09:29:07Z</time>
      </trkpt>
      <trkpt lat="46.99255" lon="-0.95336">
        <ele>120.4</ele>
        <time>2025-08-25T09:29:08Z</time>
      </trkpt>
      <trkpt lat="46.99255" lon="-0.95335">
        <ele>120.4</ele>
        <time>2025-08-25T09:29:09Z</time>
      </trkpt>
      <trkpt lat="46.99256" lon="-0.95333">
        <ele>120.4</ele>
        <time>2025-08-25T09:29:10Z</time>
      </trkpt>
      <trkpt lat="46.99255" lon="-0.95332">
        <ele>120.4</ele>
        <time>2025-08-25T09:29:11Z</time>
      </trkpt>
      <trkpt lat="46.99255" lon="-0.9533">
        <ele>120.3</ele>
        <time>2025-08-25T09:29:12Z</time>
      </trkpt>
      <trkpt lat="46.99254" lon="-0.95329">
        <ele>120.3</ele>
        <time>2025-08-25T09:29:13Z</time>
      </trkpt>
      <trkpt lat="46.99254" lon="-0.95327">
        <ele>120.3</ele>
        <time>2025-08-25T09:29:14Z</time>
      </trkpt>
      <trkpt lat="46.99254" lon="-0.95325">
        <ele>120.2</ele>
        <time>2025-08-25T09:29:15Z</time>
      </trkpt>
      <trkpt lat="46.99253" lon="-0.95323">
        <ele>120.2</ele>
        <time>2025-08-25T09:29:16Z</time>
      </trkpt>
      <trkpt lat="46.99253" lon="-0.95321">
        <ele>120.1</ele>
        <time>2025-08-25T09:29:17Z</time>
      </trkpt>
      <trkpt lat="46.99252" lon="-0.9532">
        <ele>120.1</ele>
        <time>2025-08-25T09:29:18Z</time>
      </trkpt>
      <trkpt lat="46.99251" lon="-0.95318">
        <ele>120</ele>
        <time>2025-08-25T09:29:19Z</time>
      </trkpt>
      <trkpt lat="46.9925" lon="-0.95317">
        <ele>120</ele>
        <time>2025-08-25T09:29:20Z</time>
      </trkpt>
      <trkpt lat="46.99249" lon="-0.95316">
        <ele>119.9</ele>
        <time>2025-08-25T09:29:21Z</time>
      </trkpt>
      <trkpt lat="46.99248" lon="-0.95316">
        <ele>119.9</ele>
        <time>2025-08-25T09:29:22Z</time>
      </trkpt>
      <trkpt lat="46.99247" lon="-0.95315">
        <ele>119.8</ele>
        <time>2025-08-25T09:29:23Z</time>
      </trkpt>
      <trkpt lat="46.99246" lon="-0.95315">
        <ele>119.7</ele>
        <time>2025-08-25T09:29:24Z</time>
      </trkpt>
      <trkpt lat="46.99246" lon="-0.95314">
        <ele>119.7</ele>
        <time>2025-08-25T09:29:25Z</time>
      </trkpt>
      <trkpt lat="46.99245" lon="-0.95314">
        <ele>119.7</ele>
        <time>2025-08-25T09:29:26Z</time>
      </trkpt>
      <trkpt lat="46.99244" lon="-0.95314">
        <ele>119.5</ele>
        <time>2025-08-25T09:29:27Z</time>
      </trkpt>
      <trkpt lat="46.99244" lon="-0.95314">
        <ele>119.3</ele>
        <time>2025-08-25T09:29:28Z</time>
      </trkpt>
      <trkpt lat="46.99243" lon="-0.95313">
        <ele>119.2</ele>
        <time>2025-08-25T09:29:29Z</time>
      </trkpt>
      <trkpt lat="46.99243" lon="-0.95312">
        <ele>119.1</ele>
        <time>2025-08-25T09:29:30Z</time>
      </trkpt>
      <trkpt lat="46.99242" lon="-0.95311">
        <ele>119</ele>
        <time>2025-08-25T09:29:31Z</time>
      </trkpt>
      <trkpt lat="46.99242" lon="-0.9531">
        <ele>118.9</ele>
        <time>2025-08-25T09:29:32Z</time>
      </trkpt>
      <trkpt lat="46.99242" lon="-0.95309">
        <ele>118.7</ele>
        <time>2025-08-25T09:29:33Z</time>
      </trkpt>
      <trkpt lat="46.9924" lon="-0.95308">
        <ele>118.4</ele>
        <time>2025-08-25T09:29:34Z</time>
      </trkpt>
      <trkpt lat="46.99239" lon="-0.95308">
        <ele>118.3</ele>
        <time>2025-08-25T09:29:35Z</time>
      </trkpt>
      <trkpt lat="46.99239" lon="-0.95307">
        <ele>118.2</ele>
        <time>2025-08-25T09:29:36Z</time>
      </trkpt>
      <trkpt lat="46.99239" lon="-0.95307">
        <ele>118.2</ele>
        <time>2025-08-25T09:29:37Z</time>
      </trkpt>
      <trkpt lat="46.99239" lon="-0.95307">
        <ele>118.2</ele>
        <time>2025-08-25T09:29:38Z</time>
      </trkpt>
      <trkpt lat="46.99238" lon="-0.95306">
        <ele>117.8</ele>
        <time>2025-08-25T09:29:39Z</time>
      </trkpt>
      <trkpt lat="46.99237" lon="-0.95305">
        <ele>117.6</ele>
        <time>2025-08-25T09:29:40Z</time>
      </trkpt>
      <trkpt lat="46.99237" lon="-0.95305">
        <ele>117.5</ele>
        <time>2025-08-25T09:29:41Z</time>
      </trkpt>
      <trkpt lat="46.99236" lon="-0.95304">
        <ele>117.5</ele>
        <time>2025-08-25T09:29:42Z</time>
      </trkpt>
      <trkpt lat="46.99236" lon="-0.95304">
        <ele>117.4</ele>
        <time>2025-08-25T09:29:43Z</time>
      </trkpt>
      <trkpt lat="46.99236" lon="-0.95303">
        <ele>117.3</ele>
        <time>2025-08-25T09:29:44Z</time>
      </trkpt>
      <trkpt lat="46.99235" lon="-0.95303">
        <ele>117.2</ele>
        <time>2025-08-25T09:29:45Z</time>
      </trkpt>
      <trkpt lat="46.99235" lon="-0.95302">
        <ele>117.1</ele>
        <time>2025-08-25T09:29:46Z</time>
      </trkpt>
      <trkpt lat="46.99234" lon="-0.95302">
        <ele>117</ele>
        <time>2025-08-25T09:29:47Z</time>
      </trkpt>
      <trkpt lat="46.99234" lon="-0.95301">
        <ele>116.8</ele>
        <time>2025-08-25T09:29:48Z</time>
      </trkpt>
      <trkpt lat="46.99233" lon="-0.95301">
        <ele>116.5</ele>
        <time>2025-08-25T09:29:49Z</time>
      </trkpt>
      <trkpt lat="46.99232" lon="-0.953">
        <ele>116.3</ele>
        <time>2025-08-25T09:29:50Z</time>
      </trkpt>
      <trkpt lat="46.99232" lon="-0.95299">
        <ele>116.2</ele>
        <time>2025-08-25T09:29:51Z</time>
      </trkpt>
      <trkpt lat="46.99231" lon="-0.95298">
        <ele>116.1</ele>
        <time>2025-08-25T09:29:52Z</time>
      </trkpt>
      <trkpt lat="46.99231" lon="-0.95297">
        <ele>116</ele>
        <time>2025-08-25T09:29:53Z</time>
      </trkpt>
      <trkpt lat="46.9923" lon="-0.95297">
        <ele>115.8</ele>
        <time>2025-08-25T09:29:54Z</time>
      </trkpt>
      <trkpt lat="46.99229" lon="-0.95297">
        <ele>115.7</ele>
        <time>2025-08-25T09:29:55Z</time>
      </trkpt>
      <trkpt lat="46.99229" lon="-0.95296">
        <ele>115.6</ele>
        <time>2025-08-25T09:29:56Z</time>
      </trkpt>
      <trkpt lat="46.99229" lon="-0.95294">
        <ele>115.4</ele>
        <time>2025-08-25T09:29:57Z</time>
      </trkpt>
      <trkpt lat="46.99229" lon="-0.95294">
        <ele>115.4</ele>
        <time>2025-08-25T09:29:58Z</time>
      </trkpt>
      <trkpt lat="46.99228" lon="-0.95293">
        <ele>115.3</ele>
        <time>2025-08-25T09:29:59Z</time>
      </trkpt>
      <trkpt lat="46.99228" lon="-0.95292">
        <ele>115.3</ele>
        <time>2025-08-25T09:30:00Z</time>
      </trkpt>
      <trkpt lat="46.99227" lon="-0.95292">
        <ele>115.3</ele>
        <time>2025-08-25T09:30:01Z</time>
      </trkpt>
      <trkpt lat="46.99227" lon="-0.95291">
        <ele>115.2</ele>
        <time>2025-08-25T09:30:02Z</time>
      </trkpt>
      <trkpt lat="46.99227" lon="-0.9529">
        <ele>115.2</ele>
        <time>2025-08-25T09:30:03Z</time>
      </trkpt>
      <trkpt lat="46.99227" lon="-0.9529">
        <ele>115.2</ele>
        <time>2025-08-25T09:30:04Z</time>
      </trkpt>
      <trkpt lat="46.99227" lon="-0.9529">
        <ele>115.2</ele>
        <time>2025-08-25T09:30:05Z</time>
      </trkpt>
      <trkpt lat="46.99226" lon="-0.95289">
        <ele>115.1</ele>
        <time>2025-08-25T09:30:06Z</time>
      </trkpt>
      <trkpt lat="46.99226" lon="-0.9529">
        <ele>115.1</ele>
        <time>2025-08-25T09:30:07Z</time>
      </trkpt>
      <trkpt lat="46.99225" lon="-0.9529">
        <ele>115</ele>
        <time>2025-08-25T09:30:08Z</time>
      </trkpt>
      <trkpt lat="46.99224" lon="-0.95291">
        <ele>115</ele>
        <time>2025-08-25T09:30:09Z</time>
      </trkpt>
      <trkpt lat="46.99224" lon="-0.95292">
        <ele>115</ele>
        <time>2025-08-25T09:30:10Z</time>
      </trkpt>
      <trkpt lat="46.99223" lon="-0.95292">
        <ele>114.9</ele>
        <time>2025-08-25T09:30:11Z</time>
      </trkpt>
      <trkpt lat="46.99222" lon="-0.95291">
        <ele>114.9</ele>
        <time>2025-08-25T09:30:12Z</time>
      </trkpt>
      <trkpt lat="46.99221" lon="-0.95291">
        <ele>114.8</ele>
        <time>2025-08-25T09:30:13Z</time>
      </trkpt>
      <trkpt lat="46.9922" lon="-0.95291">
        <ele>114.8</ele>
        <time>2025-08-25T09:30:14Z</time>
      </trkpt>
      <trkpt lat="46.9922" lon="-0.95291">
        <ele>114.7</ele>
        <time>2025-08-25T09:30:15Z</time>
      </trkpt>
      <trkpt lat="46.99219" lon="-0.95291">
        <ele>114.7</ele>
        <time>2025-08-25T09:30:16Z</time>
      </trkpt>
      <trkpt lat="46.99218" lon="-0.95291">
        <ele>114.6</ele>
        <time>2025-08-25T09:30:17Z</time>
      </trkpt>
      <trkpt lat="46.99217" lon="-0.9529">
        <ele>114.6</ele>
        <time>2025-08-25T09:30:18Z</time>
      </trkpt>
      <trkpt lat="46.99216" lon="-0.9529">
        <ele>114.5</ele>
        <time>2025-08-25T09:30:19Z</time>
      </trkpt>
      <trkpt lat="46.99216" lon="-0.95289">
        <ele>114.5</ele>
        <time>2025-08-25T09:30:20Z</time>
      </trkpt>
      <trkpt lat="46.99216" lon="-0.95287">
        <ele>114.5</ele>
        <time>2025-08-25T09:30:21Z</time>
      </trkpt>
      <trkpt lat="46.99217" lon="-0.95286">
        <ele>114.4</ele>
        <time>2025-08-25T09:30:22Z</time>
      </trkpt>
      <trkpt lat="46.99217" lon="-0.95285">
        <ele>114.4</ele>
        <time>2025-08-25T09:30:23Z</time>
      </trkpt>
      <trkpt lat="46.99217" lon="-0.95283">
        <ele>114.4</ele>
        <time>2025-08-25T09:30:24Z</time>
      </trkpt>
      <trkpt lat="46.99219" lon="-0.95283">
        <ele>114.3</ele>
        <time>2025-08-25T09:30:25Z</time>
      </trkpt>
      <trkpt lat="46.9922" lon="-0.95283">
        <ele>114.3</ele>
        <time>2025-08-25T09:30:26Z</time>
      </trkpt>
      <trkpt lat="46.99221" lon="-0.95282">
        <ele>114.3</ele>
        <time>2025-08-25T09:30:27Z</time>
      </trkpt>
      <trkpt lat="46.99221" lon="-0.95281">
        <ele>114.3</ele>
        <time>2025-08-25T09:30:28Z</time>
      </trkpt>
      <trkpt lat="46.99221" lon="-0.9528">
        <ele>114.2</ele>
        <time>2025-08-25T09:30:29Z</time>
      </trkpt>
      <trkpt lat="46.99222" lon="-0.9528">
        <ele>114.2</ele>
        <time>2025-08-25T09:30:30Z</time>
      </trkpt>
      <trkpt lat="46.99221" lon="-0.9528">
        <ele>114.2</ele>
        <time>2025-08-25T09:30:31Z</time>
      </trkpt>
      <trkpt lat="46.99221" lon="-0.95279">
        <ele>114.2</ele>
        <time>2025-08-25T09:30:32Z</time>
      </trkpt>
      <trkpt lat="46.9922" lon="-0.95278">
        <ele>114.2</ele>
        <time>2025-08-25T09:30:33Z</time>
      </trkpt>
      <trkpt lat="46.99218" lon="-0.95277">
        <ele>114.2</ele>
        <time>2025-08-25T09:30:34Z</time>
      </trkpt>
      <trkpt lat="46.99217" lon="-0.95277">
        <ele>114.2</ele>
        <time>2025-08-25T09:30:35Z</time>
      </trkpt>
      <trkpt lat="46.99215" lon="-0.95277">
        <ele>114.2</ele>
        <time>2025-08-25T09:30:36Z</time>
      </trkpt>
      <trkpt lat="46.99214" lon="-0.95278">
        <ele>114.2</ele>
        <time>2025-08-25T09:30:37Z</time>
      </trkpt>
      <trkpt lat="46.99213" lon="-0.95279">
        <ele>114.2</ele>
        <time>2025-08-25T09:30:38Z</time>
      </trkpt>
      <trkpt lat="46.99211" lon="-0.95279">
        <ele>114.2</ele>
        <time>2025-08-25T09:30:39Z</time>
      </trkpt>
      <trkpt lat="46.9921" lon="-0.95281">
        <ele>114.1</ele>
        <time>2025-08-25T09:30:40Z</time>
      </trkpt>
      <trkpt lat="46.99208" lon="-0.95281">
        <ele>114.1</ele>
        <time>2025-08-25T09:30:41Z</time>
      </trkpt>
      <trkpt lat="46.99206" lon="-0.9528">
        <ele>114</ele>
        <time>2025-08-25T09:30:42Z</time>
      </trkpt>
      <trkpt lat="46.99206" lon="-0.95279">
        <ele>114</ele>
        <time>2025-08-25T09:30:43Z</time>
      </trkpt>
      <trkpt lat="46.99205" lon="-0.95279">
        <ele>114</ele>
        <time>2025-08-25T09:30:44Z</time>
      </trkpt>
      <trkpt lat="46.99204" lon="-0.95277">
        <ele>113.9</ele>
        <time>2025-08-25T09:30:45Z</time>
      </trkpt>
      <trkpt lat="46.99203" lon="-0.95276">
        <ele>113.9</ele>
        <time>2025-08-25T09:30:46Z</time>
      </trkpt>
      <trkpt lat="46.99202" lon="-0.95274">
        <ele>113.8</ele>
        <time>2025-08-25T09:30:47Z</time>
      </trkpt>
      <trkpt lat="46.99202" lon="-0.95272">
        <ele>113.8</ele>
        <time>2025-08-25T09:30:48Z</time>
      </trkpt>
      <trkpt lat="46.99201" lon="-0.9527">
        <ele>113.8</ele>
        <time>2025-08-25T09:30:49Z</time>
      </trkpt>
      <trkpt lat="46.992" lon="-0.9527">
        <ele>113.8</ele>
        <time>2025-08-25T09:30:50Z</time>
      </trkpt>
      <trkpt lat="46.992" lon="-0.95268">
        <ele>113.7</ele>
        <time>2025-08-25T09:30:51Z</time>
      </trkpt>
      <trkpt lat="46.99198" lon="-0.95265">
        <ele>113.7</ele>
        <time>2025-08-25T09:30:52Z</time>
      </trkpt>
      <trkpt lat="46.99198" lon="-0.95264">
        <ele>113.7</ele>
        <time>2025-08-25T09:30:53Z</time>
      </trkpt>
      <trkpt lat="46.99197" lon="-0.95263">
        <ele>113.7</ele>
        <time>2025-08-25T09:30:54Z</time>
      </trkpt>
      <trkpt lat="46.99196" lon="-0.95261">
        <ele>113.7</ele>
        <time>2025-08-25T09:30:55Z</time>
      </trkpt>
      <trkpt lat="46.99196" lon="-0.9526">
        <ele>113.7</ele>
        <time>2025-08-25T09:30:56Z</time>
      </trkpt>
      <trkpt lat="46.99195" lon="-0.95259">
        <ele>113.7</ele>
        <time>2025-08-25T09:30:57Z</time>
      </trkpt>
      <trkpt lat="46.99194" lon="-0.95257">
        <ele>113.7</ele>
        <time>2025-08-25T09:30:58Z</time>
      </trkpt>
      <trkpt lat="46.99193" lon="-0.95256">
        <ele>113.7</ele>
        <time>2025-08-25T09:30:59Z</time>
      </trkpt>
      <trkpt lat="46.99191" lon="-0.95254">
        <ele>113.7</ele>
        <time>2025-08-25T09:31:00Z</time>
      </trkpt>
      <trkpt lat="46.99191" lon="-0.95253">
        <ele>113.7</ele>
        <time>2025-08-25T09:31:01Z</time>
      </trkpt>
      <trkpt lat="46.9919" lon="-0.95252">
        <ele>113.7</ele>
        <time>2025-08-25T09:31:02Z</time>
      </trkpt>
      <trkpt lat="46.9919" lon="-0.95251">
        <ele>113.7</ele>
        <time>2025-08-25T09:31:03Z</time>
      </trkpt>
      <trkpt lat="46.99189" lon="-0.95249">
        <ele>113.7</ele>
        <time>2025-08-25T09:31:04Z</time>
      </trkpt>
      <trkpt lat="46.99188" lon="-0.95248">
        <ele>113.7</ele>
        <time>2025-08-25T09:31:05Z</time>
      </trkpt>
      <trkpt lat="46.99187" lon="-0.95247">
        <ele>113.7</ele>
        <time>2025-08-25T09:31:06Z</time>
      </trkpt>
      <trkpt lat="46.99187" lon="-0.95246">
        <ele>113.7</ele>
        <time>2025-08-25T09:31:07Z</time>
      </trkpt>
      <trkpt lat="46.99186" lon="-0.95244">
        <ele>113.7</ele>
        <time>2025-08-25T09:31:08Z</time>
      </trkpt>
      <trkpt lat="46.99185" lon="-0.95242">
        <ele>113.8</ele>
        <time>2025-08-25T09:31:09Z</time>
      </trkpt>
      <trkpt lat="46.99185" lon="-0.95241">
        <ele>113.8</ele>
        <time>2025-08-25T09:31:10Z</time>
      </trkpt>
      <trkpt lat="46.99185" lon="-0.95239">
        <ele>113.8</ele>
        <time>2025-08-25T09:31:11Z</time>
      </trkpt>
      <trkpt lat="46.99184" lon="-0.95238">
        <ele>113.8</ele>
        <time>2025-08-25T09:31:12Z</time>
      </trkpt>
      <trkpt lat="46.99183" lon="-0.95236">
        <ele>113.8</ele>
        <time>2025-08-25T09:31:13Z</time>
      </trkpt>
      <trkpt lat="46.99182" lon="-0.95235">
        <ele>113.8</ele>
        <time>2025-08-25T09:31:14Z</time>
      </trkpt>
      <trkpt lat="46.99181" lon="-0.95234">
        <ele>113.8</ele>
        <time>2025-08-25T09:31:15Z</time>
      </trkpt>
      <trkpt lat="46.99181" lon="-0.95233">
        <ele>113.8</ele>
        <time>2025-08-25T09:31:16Z</time>
      </trkpt>
      <trkpt lat="46.9918" lon="-0.95232">
        <ele>113.9</ele>
        <time>2025-08-25T09:31:17Z</time>
      </trkpt>
      <trkpt lat="46.99179" lon="-0.95231">
        <ele>113.9</ele>
        <time>2025-08-25T09:31:18Z</time>
      </trkpt>
      <trkpt lat="46.99177" lon="-0.9523">
        <ele>113.9</ele>
        <time>2025-08-25T09:31:19Z</time>
      </trkpt>
      <trkpt lat="46.99176" lon="-0.95229">
        <ele>113.9</ele>
        <time>2025-08-25T09:31:20Z</time>
      </trkpt>
      <trkpt lat="46.99174" lon="-0.95227">
        <ele>113.9</ele>
        <time>2025-08-25T09:31:21Z</time>
      </trkpt>
      <trkpt lat="46.99174" lon="-0.95226">
        <ele>113.9</ele>
        <time>2025-08-25T09:31:22Z</time>
      </trkpt>
      <trkpt lat="46.99173" lon="-0.95225">
        <ele>113.9</ele>
        <time>2025-08-25T09:31:23Z</time>
      </trkpt>
      <trkpt lat="46.99172" lon="-0.95224">
        <ele>114</ele>
        <time>2025-08-25T09:31:24Z</time>
      </trkpt>
      <trkpt lat="46.99172" lon="-0.95223">
        <ele>114</ele>
        <time>2025-08-25T09:31:25Z</time>
      </trkpt>
      <trkpt lat="46.99171" lon="-0.95222">
        <ele>114</ele>
        <time>2025-08-25T09:31:26Z</time>
      </trkpt>
      <trkpt lat="46.9917" lon="-0.95221">
        <ele>114</ele>
        <time>2025-08-25T09:31:27Z</time>
      </trkpt>
      <trkpt lat="46.99169" lon="-0.9522">
        <ele>114</ele>
        <time>2025-08-25T09:31:28Z</time>
      </trkpt>
      <trkpt lat="46.99168" lon="-0.95219">
        <ele>114</ele>
        <time>2025-08-25T09:31:29Z</time>
      </trkpt>
      <trkpt lat="46.99167" lon="-0.95217">
        <ele>114</ele>
        <time>2025-08-25T09:31:30Z</time>
      </trkpt>
      <trkpt lat="46.99166" lon="-0.95216">
        <ele>114.1</ele>
        <time>2025-08-25T09:31:31Z</time>
      </trkpt>
      <trkpt lat="46.99166" lon="-0.95215">
        <ele>114.1</ele>
        <time>2025-08-25T09:31:32Z</time>
      </trkpt>
      <trkpt lat="46.99166" lon="-0.95213">
        <ele>114.1</ele>
        <time>2025-08-25T09:31:33Z</time>
      </trkpt>
      <trkpt lat="46.99166" lon="-0.95212">
        <ele>114.1</ele>
        <time>2025-08-25T09:31:34Z</time>
      </trkpt>
      <trkpt lat="46.99166" lon="-0.9521">
        <ele>114.1</ele>
        <time>2025-08-25T09:31:35Z</time>
      </trkpt>
      <trkpt lat="46.99166" lon="-0.95208">
        <ele>114.1</ele>
        <time>2025-08-25T09:31:36Z</time>
      </trkpt>
      <trkpt lat="46.99166" lon="-0.95207">
        <ele>114.1</ele>
        <time>2025-08-25T09:31:37Z</time>
      </trkpt>
      <trkpt lat="46.99166" lon="-0.95205">
        <ele>114.1</ele>
        <time>2025-08-25T09:31:38Z</time>
      </trkpt>
      <trkpt lat="46.99166" lon="-0.95203">
        <ele>114.2</ele>
        <time>2025-08-25T09:31:39Z</time>
      </trkpt>
      <trkpt lat="46.99165" lon="-0.95202">
        <ele>114.2</ele>
        <time>2025-08-25T09:31:40Z</time>
      </trkpt>
      <trkpt lat="46.99165" lon="-0.952">
        <ele>114.2</ele>
        <time>2025-08-25T09:31:41Z</time>
      </trkpt>
      <trkpt lat="46.99165" lon="-0.95198">
        <ele>114.2</ele>
        <time>2025-08-25T09:31:42Z</time>
      </trkpt>
      <trkpt lat="46.99165" lon="-0.95197">
        <ele>114.2</ele>
        <time>2025-08-25T09:31:43Z</time>
      </trkpt>
      <trkpt lat="46.99165" lon="-0.95195">
        <ele>114.2</ele>
        <time>2025-08-25T09:31:44Z</time>
      </trkpt>
      <trkpt lat="46.99165" lon="-0.95193">
        <ele>114.2</ele>
        <time>2025-08-25T09:31:45Z</time>
      </trkpt>
      <trkpt lat="46.99165" lon="-0.95193">
        <ele>114.2</ele>
        <time>2025-08-25T09:31:46Z</time>
      </trkpt>
      <trkpt lat="46.99165" lon="-0.95193">
        <ele>114.2</ele>
        <time>2025-08-25T09:31:47Z</time>
      </trkpt>
      <trkpt lat="46.99165" lon="-0.95193">
        <ele>114.2</ele>
        <time>2025-08-25T09:31:48Z</time>
      </trkpt>
      <trkpt lat="46.99165" lon="-0.95192">
        <ele>114.2</ele>
        <time>2025-08-25T09:31:49Z</time>
      </trkpt>
      <trkpt lat="46.99165" lon="-0.95192">
        <ele>114.2</ele>
        <time>2025-08-25T09:31:50Z</time>
      </trkpt>
      <trkpt lat="46.99164" lon="-0.95192">
        <ele>114.3</ele>
        <time>2025-08-25T09:31:51Z</time>
      </trkpt>
      <trkpt lat="46.99164" lon="-0.95192">
        <ele>114.3</ele>
        <time>2025-08-25T09:31:52Z</time>
      </trkpt>
      <trkpt lat="46.99164" lon="-0.95191">
        <ele>114.3</ele>
        <time>2025-08-25T09:31:53Z</time>
      </trkpt>
      <trkpt lat="46.99164" lon="-0.95191">
        <ele>114.3</ele>
        <time>2025-08-25T09:31:54Z</time>
      </trkpt>
      <trkpt lat="46.99164" lon="-0.95191">
        <ele>114.3</ele>
        <time>2025-08-25T09:31:55Z</time>
      </trkpt>
      <trkpt lat="46.99164" lon="-0.95191">
        <ele>114.3</ele>
        <time>2025-08-25T09:31:56Z</time>
      </trkpt>
      <trkpt lat="46.99163" lon="-0.95191">
        <ele>114.3</ele>
        <time>2025-08-25T09:31:57Z</time>
      </trkpt>
      <trkpt lat="46.99162" lon="-0.9519">
        <ele>114.3</ele>
        <time>2025-08-25T09:31:58Z</time>
      </trkpt>
      <trkpt lat="46.99161" lon="-0.95189">
        <ele>114.3</ele>
        <time>2025-08-25T09:31:59Z</time>
      </trkpt>
      <trkpt lat="46.99159" lon="-0.95188">
        <ele>114.3</ele>
        <time>2025-08-25T09:32:00Z</time>
      </trkpt>
      <trkpt lat="46.99158" lon="-0.95188">
        <ele>114.3</ele>
        <time>2025-08-25T09:32:01Z</time>
      </trkpt>
      <trkpt lat="46.99156" lon="-0.95188">
        <ele>114.4</ele>
        <time>2025-08-25T09:32:02Z</time>
      </trkpt>
      <trkpt lat="46.99155" lon="-0.95188">
        <ele>114.4</ele>
        <time>2025-08-25T09:32:03Z</time>
      </trkpt>
      <trkpt lat="46.99154" lon="-0.95188">
        <ele>114.4</ele>
        <time>2025-08-25T09:32:04Z</time>
      </trkpt>
      <trkpt lat="46.99153" lon="-0.95188">
        <ele>114.4</ele>
        <time>2025-08-25T09:32:05Z</time>
      </trkpt>
      <trkpt lat="46.99151" lon="-0.95189">
        <ele>114.4</ele>
        <time>2025-08-25T09:32:06Z</time>
      </trkpt>
      <trkpt lat="46.9915" lon="-0.9519">
        <ele>114.4</ele>
        <time>2025-08-25T09:32:07Z</time>
      </trkpt>
      <trkpt lat="46.99149" lon="-0.95191">
        <ele>114.4</ele>
        <time>2025-08-25T09:32:08Z</time>
      </trkpt>
      <trkpt lat="46.99148" lon="-0.95192">
        <ele>114.5</ele>
        <time>2025-08-25T09:32:09Z</time>
      </trkpt>
      <trkpt lat="46.99147" lon="-0.95193">
        <ele>114.5</ele>
        <time>2025-08-25T09:32:10Z</time>
      </trkpt>
      <trkpt lat="46.99146" lon="-0.95195">
        <ele>114.5</ele>
        <time>2025-08-25T09:32:11Z</time>
      </trkpt>
      <trkpt lat="46.99145" lon="-0.95196">
        <ele>114.5</ele>
        <time>2025-08-25T09:32:12Z</time>
      </trkpt>
      <trkpt lat="46.99144" lon="-0.95198">
        <ele>114.5</ele>
        <time>2025-08-25T09:32:13Z</time>
      </trkpt>
      <trkpt lat="46.99143" lon="-0.95201">
        <ele>114.5</ele>
        <time>2025-08-25T09:32:14Z</time>
      </trkpt>
      <trkpt lat="46.99143" lon="-0.95203">
        <ele>114.5</ele>
        <time>2025-08-25T09:32:15Z</time>
      </trkpt>
      <trkpt lat="46.99142" lon="-0.95204">
        <ele>114.5</ele>
        <time>2025-08-25T09:32:16Z</time>
      </trkpt>
      <trkpt lat="46.99141" lon="-0.95205">
        <ele>114.5</ele>
        <time>2025-08-25T09:32:17Z</time>
      </trkpt>
      <trkpt lat="46.9914" lon="-0.95206">
        <ele>114.5</ele>
        <time>2025-08-25T09:32:18Z</time>
      </trkpt>
      <trkpt lat="46.99139" lon="-0.95207">
        <ele>114.5</ele>
        <time>2025-08-25T09:32:19Z</time>
      </trkpt>
      <trkpt lat="46.99138" lon="-0.9521">
        <ele>114.5</ele>
        <time>2025-08-25T09:32:20Z</time>
      </trkpt>
      <trkpt lat="46.99138" lon="-0.95212">
        <ele>114.5</ele>
        <time>2025-08-25T09:32:21Z</time>
      </trkpt>
      <trkpt lat="46.99137" lon="-0.95213">
        <ele>114.5</ele>
        <time>2025-08-25T09:32:22Z</time>
      </trkpt>
      <trkpt lat="46.99137" lon="-0.95214">
        <ele>114.5</ele>
        <time>2025-08-25T09:32:23Z</time>
      </trkpt>
      <trkpt lat="46.99136" lon="-0.95216">
        <ele>114.5</ele>
        <time>2025-08-25T09:32:24Z</time>
      </trkpt>
      <trkpt lat="46.99135" lon="-0.95217">
        <ele>114.5</ele>
        <time>2025-08-25T09:32:25Z</time>
      </trkpt>
      <trkpt lat="46.99135" lon="-0.95218">
        <ele>114.5</ele>
        <time>2025-08-25T09:32:26Z</time>
      </trkpt>
      <trkpt lat="46.99133" lon="-0.95221">
        <ele>114.5</ele>
        <time>2025-08-25T09:32:27Z</time>
      </trkpt>
      <trkpt lat="46.99133" lon="-0.95221">
        <ele>114.5</ele>
        <time>2025-08-25T09:32:28Z</time>
      </trkpt>
      <trkpt lat="46.99132" lon="-0.95222">
        <ele>114.5</ele>
        <time>2025-08-25T09:32:29Z</time>
      </trkpt>
      <trkpt lat="46.99131" lon="-0.95225">
        <ele>114.5</ele>
        <time>2025-08-25T09:32:30Z</time>
      </trkpt>
      <trkpt lat="46.9913" lon="-0.95226">
        <ele>114.6</ele>
        <time>2025-08-25T09:32:31Z</time>
      </trkpt>
      <trkpt lat="46.99129" lon="-0.95227">
        <ele>114.6</ele>
        <time>2025-08-25T09:32:32Z</time>
      </trkpt>
      <trkpt lat="46.99129" lon="-0.95228">
        <ele>114.6</ele>
        <time>2025-08-25T09:32:33Z</time>
      </trkpt>
      <trkpt lat="46.99128" lon="-0.95229">
        <ele>114.6</ele>
        <time>2025-08-25T09:32:34Z</time>
      </trkpt>
      <trkpt lat="46.99127" lon="-0.9523">
        <ele>114.6</ele>
        <time>2025-08-25T09:32:35Z</time>
      </trkpt>
      <trkpt lat="46.99126" lon="-0.9523">
        <ele>114.6</ele>
        <time>2025-08-25T09:32:36Z</time>
      </trkpt>
      <trkpt lat="46.99124" lon="-0.95231">
        <ele>114.6</ele>
        <time>2025-08-25T09:32:37Z</time>
      </trkpt>
      <trkpt lat="46.99123" lon="-0.95231">
        <ele>114.6</ele>
        <time>2025-08-25T09:32:38Z</time>
      </trkpt>
      <trkpt lat="46.99121" lon="-0.95231">
        <ele>114.6</ele>
        <time>2025-08-25T09:32:39Z</time>
      </trkpt>
      <trkpt lat="46.9912" lon="-0.9523">
        <ele>114.6</ele>
        <time>2025-08-25T09:32:40Z</time>
      </trkpt>
      <trkpt lat="46.99119" lon="-0.9523">
        <ele>114.7</ele>
        <time>2025-08-25T09:32:41Z</time>
      </trkpt>
      <trkpt lat="46.99119" lon="-0.9523">
        <ele>114.7</ele>
        <time>2025-08-25T09:32:42Z</time>
      </trkpt>
      <trkpt lat="46.99118" lon="-0.9523">
        <ele>114.7</ele>
        <time>2025-08-25T09:32:43Z</time>
      </trkpt>
      <trkpt lat="46.99117" lon="-0.9523">
        <ele>114.7</ele>
        <time>2025-08-25T09:32:44Z</time>
      </trkpt>
      <trkpt lat="46.99116" lon="-0.95229">
        <ele>114.7</ele>
        <time>2025-08-25T09:32:45Z</time>
      </trkpt>
      <trkpt lat="46.99115" lon="-0.95229">
        <ele>114.7</ele>
        <time>2025-08-25T09:32:46Z</time>
      </trkpt>
      <trkpt lat="46.99113" lon="-0.9523">
        <ele>114.7</ele>
        <time>2025-08-25T09:32:47Z</time>
      </trkpt>
      <trkpt lat="46.99112" lon="-0.9523">
        <ele>114.7</ele>
        <time>2025-08-25T09:32:48Z</time>
      </trkpt>
      <trkpt lat="46.99111" lon="-0.95231">
        <ele>114.7</ele>
        <time>2025-08-25T09:32:49Z</time>
      </trkpt>
      <trkpt lat="46.9911" lon="-0.95232">
        <ele>114.8</ele>
        <time>2025-08-25T09:32:50Z</time>
      </trkpt>
      <trkpt lat="46.99108" lon="-0.95234">
        <ele>114.8</ele>
        <time>2025-08-25T09:32:51Z</time>
      </trkpt>
      <trkpt lat="46.99107" lon="-0.95234">
        <ele>114.8</ele>
        <time>2025-08-25T09:32:52Z</time>
      </trkpt>
      <trkpt lat="46.99107" lon="-0.95234">
        <ele>114.8</ele>
        <time>2025-08-25T09:32:53Z</time>
      </trkpt>
      <trkpt lat="46.99105" lon="-0.95235">
        <ele>114.8</ele>
        <time>2025-08-25T09:32:54Z</time>
      </trkpt>
      <trkpt lat="46.99105" lon="-0.95236">
        <ele>114.8</ele>
        <time>2025-08-25T09:32:55Z</time>
      </trkpt>
      <trkpt lat="46.99104" lon="-0.95237">
        <ele>114.8</ele>
        <time>2025-08-25T09:32:56Z</time>
      </trkpt>
      <trkpt lat="46.99103" lon="-0.95239">
        <ele>114.8</ele>
        <time>2025-08-25T09:32:57Z</time>
      </trkpt>
      <trkpt lat="46.99102" lon="-0.9524">
        <ele>114.8</ele>
        <time>2025-08-25T09:32:58Z</time>
      </trkpt>
      <trkpt lat="46.99101" lon="-0.95241">
        <ele>114.9</ele>
        <time>2025-08-25T09:32:59Z</time>
      </trkpt>
      <trkpt lat="46.99101" lon="-0.95241">
        <ele>114.9</ele>
        <time>2025-08-25T09:33:00Z</time>
      </trkpt>
      <trkpt lat="46.991" lon="-0.95242">
        <ele>114.9</ele>
        <time>2025-08-25T09:33:01Z</time>
      </trkpt>
      <trkpt lat="46.99099" lon="-0.95244">
        <ele>114.9</ele>
        <time>2025-08-25T09:33:02Z</time>
      </trkpt>
      <trkpt lat="46.99099" lon="-0.95245">
        <ele>114.9</ele>
        <time>2025-08-25T09:33:03Z</time>
      </trkpt>
      <trkpt lat="46.99098" lon="-0.95247">
        <ele>114.9</ele>
        <time>2025-08-25T09:33:04Z</time>
      </trkpt>
      <trkpt lat="46.99098" lon="-0.95248">
        <ele>114.9</ele>
        <time>2025-08-25T09:33:05Z</time>
      </trkpt>
      <trkpt lat="46.99098" lon="-0.95249">
        <ele>114.9</ele>
        <time>2025-08-25T09:33:06Z</time>
      </trkpt>
      <trkpt lat="46.99097" lon="-0.95251">
        <ele>114.9</ele>
        <time>2025-08-25T09:33:07Z</time>
      </trkpt>
      <trkpt lat="46.99096" lon="-0.95252">
        <ele>115</ele>
        <time>2025-08-25T09:33:08Z</time>
      </trkpt>
      <trkpt lat="46.99095" lon="-0.95252">
        <ele>115</ele>
        <time>2025-08-25T09:33:09Z</time>
      </trkpt>
      <trkpt lat="46.99093" lon="-0.95253">
        <ele>115</ele>
        <time>2025-08-25T09:33:10Z</time>
      </trkpt>
      <trkpt lat="46.99091" lon="-0.95253">
        <ele>115</ele>
        <time>2025-08-25T09:33:11Z</time>
      </trkpt>
      <trkpt lat="46.9909" lon="-0.95254">
        <ele>115</ele>
        <time>2025-08-25T09:33:12Z</time>
      </trkpt>
      <trkpt lat="46.99088" lon="-0.95255">
        <ele>115.1</ele>
        <time>2025-08-25T09:33:13Z</time>
      </trkpt>
      <trkpt lat="46.99087" lon="-0.95257">
        <ele>115.1</ele>
        <time>2025-08-25T09:33:14Z</time>
      </trkpt>
      <trkpt lat="46.99087" lon="-0.95258">
        <ele>115.1</ele>
        <time>2025-08-25T09:33:15Z</time>
      </trkpt>
      <trkpt lat="46.99086" lon="-0.95259">
        <ele>115.1</ele>
        <time>2025-08-25T09:33:16Z</time>
      </trkpt>
      <trkpt lat="46.99085" lon="-0.95259">
        <ele>115.1</ele>
        <time>2025-08-25T09:33:17Z</time>
      </trkpt>
      <trkpt lat="46.99083" lon="-0.95261">
        <ele>115.1</ele>
        <time>2025-08-25T09:33:18Z</time>
      </trkpt>
      <trkpt lat="46.99082" lon="-0.95261">
        <ele>115.1</ele>
        <time>2025-08-25T09:33:19Z</time>
      </trkpt>
      <trkpt lat="46.99081" lon="-0.95262">
        <ele>115.2</ele>
        <time>2025-08-25T09:33:20Z</time>
      </trkpt>
      <trkpt lat="46.9908" lon="-0.95262">
        <ele>115.2</ele>
        <time>2025-08-25T09:33:21Z</time>
      </trkpt>
      <trkpt lat="46.99079" lon="-0.95263">
        <ele>115.2</ele>
        <time>2025-08-25T09:33:22Z</time>
      </trkpt>
      <trkpt lat="46.99077" lon="-0.95264">
        <ele>115.2</ele>
        <time>2025-08-25T09:33:23Z</time>
      </trkpt>
      <trkpt lat="46.99076" lon="-0.95265">
        <ele>115.2</ele>
        <time>2025-08-25T09:33:24Z</time>
      </trkpt>
      <trkpt lat="46.99075" lon="-0.95265">
        <ele>115.2</ele>
        <time>2025-08-25T09:33:25Z</time>
      </trkpt>
      <trkpt lat="46.99073" lon="-0.95266">
        <ele>115.3</ele>
        <time>2025-08-25T09:33:26Z</time>
      </trkpt>
      <trkpt lat="46.99072" lon="-0.95266">
        <ele>115.3</ele>
        <time>2025-08-25T09:33:27Z</time>
      </trkpt>
      <trkpt lat="46.99071" lon="-0.95266">
        <ele>115.2</ele>
        <time>2025-08-25T09:33:28Z</time>
      </trkpt>
      <trkpt lat="46.9907" lon="-0.95266">
        <ele>115.2</ele>
        <time>2025-08-25T09:33:29Z</time>
      </trkpt>
      <trkpt lat="46.99069" lon="-0.95267">
        <ele>115.2</ele>
        <time>2025-08-25T09:33:30Z</time>
      </trkpt>
      <trkpt lat="46.99068" lon="-0.95267">
        <ele>115.2</ele>
        <time>2025-08-25T09:33:31Z</time>
      </trkpt>
      <trkpt lat="46.99067" lon="-0.95268">
        <ele>115.2</ele>
        <time>2025-08-25T09:33:32Z</time>
      </trkpt>
      <trkpt lat="46.99066" lon="-0.95268">
        <ele>115.1</ele>
        <time>2025-08-25T09:33:33Z</time>
      </trkpt>
      <trkpt lat="46.99065" lon="-0.95267">
        <ele>115.1</ele>
        <time>2025-08-25T09:33:34Z</time>
      </trkpt>
      <trkpt lat="46.99063" lon="-0.95268">
        <ele>115</ele>
        <time>2025-08-25T09:33:35Z</time>
      </trkpt>
      <trkpt lat="46.99062" lon="-0.95268">
        <ele>115</ele>
        <time>2025-08-25T09:33:36Z</time>
      </trkpt>
      <trkpt lat="46.99061" lon="-0.95269">
        <ele>114.9</ele>
        <time>2025-08-25T09:33:37Z</time>
      </trkpt>
      <trkpt lat="46.9906" lon="-0.95271">
        <ele>114.9</ele>
        <time>2025-08-25T09:33:38Z</time>
      </trkpt>
      <trkpt lat="46.99059" lon="-0.95271">
        <ele>114.8</ele>
        <time>2025-08-25T09:33:39Z</time>
      </trkpt>
      <trkpt lat="46.99058" lon="-0.95272">
        <ele>114.8</ele>
        <time>2025-08-25T09:33:40Z</time>
      </trkpt>
      <trkpt lat="46.99057" lon="-0.95273">
        <ele>114.7</ele>
        <time>2025-08-25T09:33:41Z</time>
      </trkpt>
      <trkpt lat="46.99056" lon="-0.95275">
        <ele>114.7</ele>
        <time>2025-08-25T09:33:42Z</time>
      </trkpt>
      <trkpt lat="46.99055" lon="-0.95276">
        <ele>114.6</ele>
        <time>2025-08-25T09:33:43Z</time>
      </trkpt>
      <trkpt lat="46.99054" lon="-0.95278">
        <ele>114.5</ele>
        <time>2025-08-25T09:33:44Z</time>
      </trkpt>
      <trkpt lat="46.99053" lon="-0.9528">
        <ele>114.5</ele>
        <time>2025-08-25T09:33:45Z</time>
      </trkpt>
      <trkpt lat="46.99052" lon="-0.95281">
        <ele>114.4</ele>
        <time>2025-08-25T09:33:46Z</time>
      </trkpt>
      <trkpt lat="46.99051" lon="-0.95282">
        <ele>114.3</ele>
        <time>2025-08-25T09:33:47Z</time>
      </trkpt>
      <trkpt lat="46.9905" lon="-0.95284">
        <ele>114.3</ele>
        <time>2025-08-25T09:33:48Z</time>
      </trkpt>
      <trkpt lat="46.99048" lon="-0.95285">
        <ele>114.2</ele>
        <time>2025-08-25T09:33:49Z</time>
      </trkpt>
      <trkpt lat="46.99047" lon="-0.95286">
        <ele>114.1</ele>
        <time>2025-08-25T09:33:50Z</time>
      </trkpt>
      <trkpt lat="46.99046" lon="-0.95287">
        <ele>114.1</ele>
        <time>2025-08-25T09:33:51Z</time>
      </trkpt>
      <trkpt lat="46.99045" lon="-0.95288">
        <ele>114</ele>
        <time>2025-08-25T09:33:52Z</time>
      </trkpt>
      <trkpt lat="46.99045" lon="-0.95288">
        <ele>114</ele>
        <time>2025-08-25T09:33:53Z</time>
      </trkpt>
      <trkpt lat="46.99044" lon="-0.9529">
        <ele>113.9</ele>
        <time>2025-08-25T09:33:54Z</time>
      </trkpt>
      <trkpt lat="46.99043" lon="-0.95291">
        <ele>113.9</ele>
        <time>2025-08-25T09:33:55Z</time>
      </trkpt>
      <trkpt lat="46.99043" lon="-0.95292">
        <ele>113.8</ele>
        <time>2025-08-25T09:33:56Z</time>
      </trkpt>
      <trkpt lat="46.99042" lon="-0.95293">
        <ele>113.8</ele>
        <time>2025-08-25T09:33:57Z</time>
      </trkpt>
      <trkpt lat="46.99041" lon="-0.95294">
        <ele>113.8</ele>
        <time>2025-08-25T09:33:58Z</time>
      </trkpt>
      <trkpt lat="46.9904" lon="-0.95294">
        <ele>113.7</ele>
        <time>2025-08-25T09:33:59Z</time>
      </trkpt>
      <trkpt lat="46.99039" lon="-0.95295">
        <ele>113.6</ele>
        <time>2025-08-25T09:34:00Z</time>
      </trkpt>
      <trkpt lat="46.99038" lon="-0.95296">
        <ele>113.6</ele>
        <time>2025-08-25T09:34:01Z</time>
      </trkpt>
      <trkpt lat="46.99037" lon="-0.95296">
        <ele>113.5</ele>
        <time>2025-08-25T09:34:02Z</time>
      </trkpt>
      <trkpt lat="46.99036" lon="-0.95297">
        <ele>113.5</ele>
        <time>2025-08-25T09:34:03Z</time>
      </trkpt>
      <trkpt lat="46.99035" lon="-0.95299">
        <ele>113.4</ele>
        <time>2025-08-25T09:34:04Z</time>
      </trkpt>
      <trkpt lat="46.99034" lon="-0.953">
        <ele>113.4</ele>
        <time>2025-08-25T09:34:05Z</time>
      </trkpt>
      <trkpt lat="46.99033" lon="-0.953">
        <ele>113.3</ele>
        <time>2025-08-25T09:34:06Z</time>
      </trkpt>
      <trkpt lat="46.99032" lon="-0.95301">
        <ele>113.3</ele>
        <time>2025-08-25T09:34:07Z</time>
      </trkpt>
      <trkpt lat="46.99031" lon="-0.95302">
        <ele>113.2</ele>
        <time>2025-08-25T09:34:08Z</time>
      </trkpt>
      <trkpt lat="46.9903" lon="-0.95303">
        <ele>113.1</ele>
        <time>2025-08-25T09:34:09Z</time>
      </trkpt>
      <trkpt lat="46.99029" lon="-0.95304">
        <ele>113.1</ele>
        <time>2025-08-25T09:34:10Z</time>
      </trkpt>
      <trkpt lat="46.99028" lon="-0.95305">
        <ele>113.1</ele>
        <time>2025-08-25T09:34:11Z</time>
      </trkpt>
      <trkpt lat="46.99027" lon="-0.95305">
        <ele>113</ele>
        <time>2025-08-25T09:34:12Z</time>
      </trkpt>
      <trkpt lat="46.99025" lon="-0.95306">
        <ele>113</ele>
        <time>2025-08-25T09:34:13Z</time>
      </trkpt>
      <trkpt lat="46.99024" lon="-0.95306">
        <ele>113</ele>
        <time>2025-08-25T09:34:14Z</time>
      </trkpt>
      <trkpt lat="46.99023" lon="-0.95306">
        <ele>112.9</ele>
        <time>2025-08-25T09:34:15Z</time>
      </trkpt>
      <trkpt lat="46.99021" lon="-0.95307">
        <ele>112.9</ele>
        <time>2025-08-25T09:34:16Z</time>
      </trkpt>
      <trkpt lat="46.9902" lon="-0.95307">
        <ele>112.9</ele>
        <time>2025-08-25T09:34:17Z</time>
      </trkpt>
      <trkpt lat="46.99019" lon="-0.95307">
        <ele>112.8</ele>
        <time>2025-08-25T09:34:18Z</time>
      </trkpt>
      <trkpt lat="46.99017" lon="-0.95308">
        <ele>112.8</ele>
        <time>2025-08-25T09:34:19Z</time>
      </trkpt>
      <trkpt lat="46.99016" lon="-0.95308">
        <ele>112.8</ele>
        <time>2025-08-25T09:34:20Z</time>
      </trkpt>
      <trkpt lat="46.99014" lon="-0.95308">
        <ele>112.7</ele>
        <time>2025-08-25T09:34:21Z</time>
      </trkpt>
      <trkpt lat="46.99013" lon="-0.95308">
        <ele>112.7</ele>
        <time>2025-08-25T09:34:22Z</time>
      </trkpt>
      <trkpt lat="46.99011" lon="-0.95307">
        <ele>112.6</ele>
        <time>2025-08-25T09:34:23Z</time>
      </trkpt>
      <trkpt lat="46.9901" lon="-0.95307">
        <ele>112.6</ele>
        <time>2025-08-25T09:34:24Z</time>
      </trkpt>
      <trkpt lat="46.99009" lon="-0.95307">
        <ele>112.6</ele>
        <time>2025-08-25T09:34:25Z</time>
      </trkpt>
      <trkpt lat="46.99007" lon="-0.95307">
        <ele>112.5</ele>
        <time>2025-08-25T09:34:26Z</time>
      </trkpt>
      <trkpt lat="46.99006" lon="-0.95308">
        <ele>112.5</ele>
        <time>2025-08-25T09:34:27Z</time>
      </trkpt>
      <trkpt lat="46.99005" lon="-0.95308">
        <ele>112.4</ele>
        <time>2025-08-25T09:34:28Z</time>
      </trkpt>
      <trkpt lat="46.99004" lon="-0.95308">
        <ele>112.4</ele>
        <time>2025-08-25T09:34:29Z</time>
      </trkpt>
      <trkpt lat="46.99003" lon="-0.95308">
        <ele>112.4</ele>
        <time>2025-08-25T09:34:30Z</time>
      </trkpt>
      <trkpt lat="46.99002" lon="-0.95308">
        <ele>112.3</ele>
        <time>2025-08-25T09:34:31Z</time>
      </trkpt>
      <trkpt lat="46.99001" lon="-0.95308">
        <ele>112.3</ele>
        <time>2025-08-25T09:34:32Z</time>
      </trkpt>
      <trkpt lat="46.98999" lon="-0.95308">
        <ele>112.2</ele>
        <time>2025-08-25T09:34:33Z</time>
      </trkpt>
      <trkpt lat="46.98998" lon="-0.95308">
        <ele>112.2</ele>
        <time>2025-08-25T09:34:34Z</time>
      </trkpt>
      <trkpt lat="46.98997" lon="-0.95307">
        <ele>112.2</ele>
        <time>2025-08-25T09:34:35Z</time>
      </trkpt>
      <trkpt lat="46.98996" lon="-0.95307">
        <ele>112.1</ele>
        <time>2025-08-25T09:34:36Z</time>
      </trkpt>
      <trkpt lat="46.98994" lon="-0.95306">
        <ele>112</ele>
        <time>2025-08-25T09:34:37Z</time>
      </trkpt>
      <trkpt lat="46.98993" lon="-0.95305">
        <ele>112</ele>
        <time>2025-08-25T09:34:38Z</time>
      </trkpt>
      <trkpt lat="46.98992" lon="-0.95305">
        <ele>112</ele>
        <time>2025-08-25T09:34:39Z</time>
      </trkpt>
      <trkpt lat="46.98991" lon="-0.95304">
        <ele>112</ele>
        <time>2025-08-25T09:34:40Z</time>
      </trkpt>
      <trkpt lat="46.9899" lon="-0.95304">
        <ele>111.9</ele>
        <time>2025-08-25T09:34:41Z</time>
      </trkpt>
      <trkpt lat="46.98989" lon="-0.95304">
        <ele>111.9</ele>
        <time>2025-08-25T09:34:42Z</time>
      </trkpt>
      <trkpt lat="46.98987" lon="-0.95303">
        <ele>111.8</ele>
        <time>2025-08-25T09:34:43Z</time>
      </trkpt>
      <trkpt lat="46.98986" lon="-0.95303">
        <ele>111.8</ele>
        <time>2025-08-25T09:34:44Z</time>
      </trkpt>
      <trkpt lat="46.98985" lon="-0.95303">
        <ele>111.8</ele>
        <time>2025-08-25T09:34:45Z</time>
      </trkpt>
      <trkpt lat="46.98984" lon="-0.95303">
        <ele>111.7</ele>
        <time>2025-08-25T09:34:46Z</time>
      </trkpt>
      <trkpt lat="46.98983" lon="-0.95303">
        <ele>111.7</ele>
        <time>2025-08-25T09:34:47Z</time>
      </trkpt>
      <trkpt lat="46.98981" lon="-0.95303">
        <ele>111.7</ele>
        <time>2025-08-25T09:34:48Z</time>
      </trkpt>
      <trkpt lat="46.9898" lon="-0.95303">
        <ele>111.6</ele>
        <time>2025-08-25T09:34:49Z</time>
      </trkpt>
      <trkpt lat="46.98979" lon="-0.95303">
        <ele>111.6</ele>
        <time>2025-08-25T09:34:50Z</time>
      </trkpt>
      <trkpt lat="46.98978" lon="-0.95303">
        <ele>111.6</ele>
        <time>2025-08-25T09:34:51Z</time>
      </trkpt>
      <trkpt lat="46.98976" lon="-0.95303">
        <ele>111.5</ele>
        <time>2025-08-25T09:34:52Z</time>
      </trkpt>
      <trkpt lat="46.98975" lon="-0.95303">
        <ele>111.5</ele>
        <time>2025-08-25T09:34:53Z</time>
      </trkpt>
      <trkpt lat="46.98974" lon="-0.95303">
        <ele>111.5</ele>
        <time>2025-08-25T09:34:54Z</time>
      </trkpt>
      <trkpt lat="46.98972" lon="-0.95304">
        <ele>111.5</ele>
        <time>2025-08-25T09:34:55Z</time>
      </trkpt>
      <trkpt lat="46.98972" lon="-0.95304">
        <ele>111.4</ele>
        <time>2025-08-25T09:34:56Z</time>
      </trkpt>
      <trkpt lat="46.9897" lon="-0.95304">
        <ele>111.4</ele>
        <time>2025-08-25T09:34:57Z</time>
      </trkpt>
      <trkpt lat="46.98968" lon="-0.95305">
        <ele>111.4</ele>
        <time>2025-08-25T09:34:58Z</time>
      </trkpt>
      <trkpt lat="46.98967" lon="-0.95305">
        <ele>111.4</ele>
        <time>2025-08-25T09:34:59Z</time>
      </trkpt>
      <trkpt lat="46.98966" lon="-0.95305">
        <ele>111.4</ele>
        <time>2025-08-25T09:35:00Z</time>
      </trkpt>
      <trkpt lat="46.98965" lon="-0.95305">
        <ele>111.3</ele>
        <time>2025-08-25T09:35:01Z</time>
      </trkpt>
      <trkpt lat="46.98964" lon="-0.95305">
        <ele>111.3</ele>
        <time>2025-08-25T09:35:02Z</time>
      </trkpt>
      <trkpt lat="46.98962" lon="-0.95306">
        <ele>111.3</ele>
        <time>2025-08-25T09:35:03Z</time>
      </trkpt>
      <trkpt lat="46.98961" lon="-0.95306">
        <ele>111.3</ele>
        <time>2025-08-25T09:35:04Z</time>
      </trkpt>
      <trkpt lat="46.9896" lon="-0.95307">
        <ele>111.3</ele>
        <time>2025-08-25T09:35:05Z</time>
      </trkpt>
      <trkpt lat="46.98959" lon="-0.95308">
        <ele>111.2</ele>
        <time>2025-08-25T09:35:06Z</time>
      </trkpt>
      <trkpt lat="46.98959" lon="-0.95308">
        <ele>111.2</ele>
        <time>2025-08-25T09:35:07Z</time>
      </trkpt>
      <trkpt lat="46.98958" lon="-0.9531">
        <ele>111.2</ele>
        <time>2025-08-25T09:35:08Z</time>
      </trkpt>
      <trkpt lat="46.98957" lon="-0.95312">
        <ele>111.2</ele>
        <time>2025-08-25T09:35:09Z</time>
      </trkpt>
      <trkpt lat="46.98955" lon="-0.95312">
        <ele>111.2</ele>
        <time>2025-08-25T09:35:10Z</time>
      </trkpt>
      <trkpt lat="46.98953" lon="-0.95312">
        <ele>111.2</ele>
        <time>2025-08-25T09:35:11Z</time>
      </trkpt>
      <trkpt lat="46.98952" lon="-0.95312">
        <ele>111.2</ele>
        <time>2025-08-25T09:35:12Z</time>
      </trkpt>
      <trkpt lat="46.98951" lon="-0.95311">
        <ele>111.2</ele>
        <time>2025-08-25T09:35:13Z</time>
      </trkpt>
      <trkpt lat="46.98952" lon="-0.95308">
        <ele>111.2</ele>
        <time>2025-08-25T09:35:14Z</time>
      </trkpt>
      <trkpt lat="46.98952" lon="-0.95307">
        <ele>111.2</ele>
        <time>2025-08-25T09:35:15Z</time>
      </trkpt>
      <trkpt lat="46.98953" lon="-0.95306">
        <ele>111.1</ele>
        <time>2025-08-25T09:35:16Z</time>
      </trkpt>
      <trkpt lat="46.98953" lon="-0.95305">
        <ele>111.1</ele>
        <time>2025-08-25T09:35:17Z</time>
      </trkpt>
      <trkpt lat="46.98952" lon="-0.95304">
        <ele>111.1</ele>
        <time>2025-08-25T09:35:18Z</time>
      </trkpt>
      <trkpt lat="46.9895" lon="-0.95303">
        <ele>111.1</ele>
        <time>2025-08-25T09:35:19Z</time>
      </trkpt>
      <trkpt lat="46.98949" lon="-0.95302">
        <ele>111.1</ele>
        <time>2025-08-25T09:35:20Z</time>
      </trkpt>
      <trkpt lat="46.98949" lon="-0.95302">
        <ele>111.1</ele>
        <time>2025-08-25T09:35:21Z</time>
      </trkpt>
      <trkpt lat="46.9895" lon="-0.953">
        <ele>111.1</ele>
        <time>2025-08-25T09:35:22Z</time>
      </trkpt>
      <trkpt lat="46.98951" lon="-0.95299">
        <ele>111.1</ele>
        <time>2025-08-25T09:35:23Z</time>
      </trkpt>
      <trkpt lat="46.98948" lon="-0.953">
        <ele>111.1</ele>
        <time>2025-08-25T09:35:24Z</time>
      </trkpt>
      <trkpt lat="46.98944" lon="-0.95302">
        <ele>111.1</ele>
        <time>2025-08-25T09:35:25Z</time>
      </trkpt>
      <trkpt lat="46.98941" lon="-0.95304">
        <ele>111</ele>
        <time>2025-08-25T09:35:26Z</time>
      </trkpt>
      <trkpt lat="46.98937" lon="-0.95306">
        <ele>111</ele>
        <time>2025-08-25T09:35:27Z</time>
      </trkpt>
      <trkpt lat="46.98935" lon="-0.95305">
        <ele>111</ele>
        <time>2025-08-25T09:35:28Z</time>
      </trkpt>
      <trkpt lat="46.98934" lon="-0.95304">
        <ele>111</ele>
        <time>2025-08-25T09:35:29Z</time>
      </trkpt>
      <trkpt lat="46.98933" lon="-0.95304">
        <ele>111</ele>
        <time>2025-08-25T09:35:30Z</time>
      </trkpt>
      <trkpt lat="46.98932" lon="-0.95303">
        <ele>111</ele>
        <time>2025-08-25T09:35:31Z</time>
      </trkpt>
      <trkpt lat="46.98931" lon="-0.95302">
        <ele>111.1</ele>
        <time>2025-08-25T09:35:32Z</time>
      </trkpt>
      <trkpt lat="46.9893" lon="-0.95302">
        <ele>111.1</ele>
        <time>2025-08-25T09:35:33Z</time>
      </trkpt>
      <trkpt lat="46.98929" lon="-0.95302">
        <ele>111.1</ele>
        <time>2025-08-25T09:35:34Z</time>
      </trkpt>
      <trkpt lat="46.98928" lon="-0.95302">
        <ele>111.1</ele>
        <time>2025-08-25T09:35:35Z</time>
      </trkpt>
      <trkpt lat="46.98926" lon="-0.95302">
        <ele>111.1</ele>
        <time>2025-08-25T09:35:36Z</time>
      </trkpt>
      <trkpt lat="46.98925" lon="-0.95301">
        <ele>111.1</ele>
        <time>2025-08-25T09:35:37Z</time>
      </trkpt>
      <trkpt lat="46.98923" lon="-0.95301">
        <ele>111.2</ele>
        <time>2025-08-25T09:35:38Z</time>
      </trkpt>
      <trkpt lat="46.98922" lon="-0.953">
        <ele>111.2</ele>
        <time>2025-08-25T09:35:39Z</time>
      </trkpt>
      <trkpt lat="46.98921" lon="-0.953">
        <ele>111.2</ele>
        <time>2025-08-25T09:35:40Z</time>
      </trkpt>
      <trkpt lat="46.9892" lon="-0.95299">
        <ele>111.2</ele>
        <time>2025-08-25T09:35:41Z</time>
      </trkpt>
      <trkpt lat="46.98919" lon="-0.95298">
        <ele>111.2</ele>
        <time>2025-08-25T09:35:42Z</time>
      </trkpt>
      <trkpt lat="46.98918" lon="-0.95298">
        <ele>111.2</ele>
        <time>2025-08-25T09:35:43Z</time>
      </trkpt>
      <trkpt lat="46.98917" lon="-0.95298">
        <ele>111.2</ele>
        <time>2025-08-25T09:35:44Z</time>
      </trkpt>
      <trkpt lat="46.98916" lon="-0.95297">
        <ele>111.3</ele>
        <time>2025-08-25T09:35:45Z</time>
      </trkpt>
      <trkpt lat="46.98915" lon="-0.95297">
        <ele>111.3</ele>
        <time>2025-08-25T09:35:46Z</time>
      </trkpt>
      <trkpt lat="46.98914" lon="-0.95296">
        <ele>111.3</ele>
        <time>2025-08-25T09:35:47Z</time>
      </trkpt>
      <trkpt lat="46.98913" lon="-0.95295">
        <ele>111.3</ele>
        <time>2025-08-25T09:35:48Z</time>
      </trkpt>
      <trkpt lat="46.98912" lon="-0.95295">
        <ele>111.4</ele>
        <time>2025-08-25T09:35:49Z</time>
      </trkpt>
      <trkpt lat="46.9891" lon="-0.95294">
        <ele>111.4</ele>
        <time>2025-08-25T09:35:50Z</time>
      </trkpt>
      <trkpt lat="46.98909" lon="-0.95294">
        <ele>111.4</ele>
        <time>2025-08-25T09:35:51Z</time>
      </trkpt>
      <trkpt lat="46.98908" lon="-0.95293">
        <ele>111.4</ele>
        <time>2025-08-25T09:35:52Z</time>
      </trkpt>
      <trkpt lat="46.98906" lon="-0.95292">
        <ele>111.5</ele>
        <time>2025-08-25T09:35:53Z</time>
      </trkpt>
      <trkpt lat="46.98905" lon="-0.95292">
        <ele>111.5</ele>
        <time>2025-08-25T09:35:54Z</time>
      </trkpt>
      <trkpt lat="46.98905" lon="-0.95292">
        <ele>111.6</ele>
        <time>2025-08-25T09:35:55Z</time>
      </trkpt>
      <trkpt lat="46.98903" lon="-0.95291">
        <ele>111.6</ele>
        <time>2025-08-25T09:35:56Z</time>
      </trkpt>
      <trkpt lat="46.98902" lon="-0.95291">
        <ele>111.6</ele>
        <time>2025-08-25T09:35:57Z</time>
      </trkpt>
      <trkpt lat="46.98901" lon="-0.95291">
        <ele>111.7</ele>
        <time>2025-08-25T09:35:58Z</time>
      </trkpt>
      <trkpt lat="46.98899" lon="-0.9529">
        <ele>111.8</ele>
        <time>2025-08-25T09:35:59Z</time>
      </trkpt>
      <trkpt lat="46.98898" lon="-0.9529">
        <ele>111.8</ele>
        <time>2025-08-25T09:36:00Z</time>
      </trkpt>
      <trkpt lat="46.98896" lon="-0.9529">
        <ele>111.8</ele>
        <time>2025-08-25T09:36:01Z</time>
      </trkpt>
      <trkpt lat="46.98895" lon="-0.9529">
        <ele>111.9</ele>
        <time>2025-08-25T09:36:02Z</time>
      </trkpt>
      <trkpt lat="46.98894" lon="-0.9529">
        <ele>112</ele>
        <time>2025-08-25T09:36:03Z</time>
      </trkpt>
      <trkpt lat="46.98893" lon="-0.9529">
        <ele>112</ele>
        <time>2025-08-25T09:36:04Z</time>
      </trkpt>
      <trkpt lat="46.98891" lon="-0.95291">
        <ele>112.1</ele>
        <time>2025-08-25T09:36:05Z</time>
      </trkpt>
      <trkpt lat="46.98889" lon="-0.95291">
        <ele>112.2</ele>
        <time>2025-08-25T09:36:06Z</time>
      </trkpt>
      <trkpt lat="46.98887" lon="-0.95291">
        <ele>112.3</ele>
        <time>2025-08-25T09:36:07Z</time>
      </trkpt>
      <trkpt lat="46.98886" lon="-0.95291">
        <ele>112.3</ele>
        <time>2025-08-25T09:36:08Z</time>
      </trkpt>
      <trkpt lat="46.98885" lon="-0.95291">
        <ele>112.4</ele>
        <time>2025-08-25T09:36:09Z</time>
      </trkpt>
      <trkpt lat="46.98884" lon="-0.95291">
        <ele>112.5</ele>
        <time>2025-08-25T09:36:10Z</time>
      </trkpt>
      <trkpt lat="46.98882" lon="-0.95291">
        <ele>112.6</ele>
        <time>2025-08-25T09:36:11Z</time>
      </trkpt>
      <trkpt lat="46.9888" lon="-0.95291">
        <ele>112.7</ele>
        <time>2025-08-25T09:36:12Z</time>
      </trkpt>
      <trkpt lat="46.98879" lon="-0.95291">
        <ele>112.8</ele>
        <time>2025-08-25T09:36:13Z</time>
      </trkpt>
      <trkpt lat="46.98878" lon="-0.95291">
        <ele>112.8</ele>
        <time>2025-08-25T09:36:14Z</time>
      </trkpt>
      <trkpt lat="46.98876" lon="-0.95291">
        <ele>113</ele>
        <time>2025-08-25T09:36:15Z</time>
      </trkpt>
      <trkpt lat="46.98875" lon="-0.95291">
        <ele>113</ele>
        <time>2025-08-25T09:36:16Z</time>
      </trkpt>
      <trkpt lat="46.98874" lon="-0.95291">
        <ele>113.1</ele>
        <time>2025-08-25T09:36:17Z</time>
      </trkpt>
      <trkpt lat="46.98873" lon="-0.95291">
        <ele>113.1</ele>
        <time>2025-08-25T09:36:18Z</time>
      </trkpt>
      <trkpt lat="46.98872" lon="-0.95291">
        <ele>113.2</ele>
        <time>2025-08-25T09:36:19Z</time>
      </trkpt>
      <trkpt lat="46.98871" lon="-0.95292">
        <ele>113.2</ele>
        <time>2025-08-25T09:36:20Z</time>
      </trkpt>
      <trkpt lat="46.9887" lon="-0.95292">
        <ele>113.3</ele>
        <time>2025-08-25T09:36:21Z</time>
      </trkpt>
      <trkpt lat="46.98869" lon="-0.95292">
        <ele>113.4</ele>
        <time>2025-08-25T09:36:22Z</time>
      </trkpt>
      <trkpt lat="46.98868" lon="-0.95292">
        <ele>113.4</ele>
        <time>2025-08-25T09:36:23Z</time>
      </trkpt>
      <trkpt lat="46.98867" lon="-0.95292">
        <ele>113.5</ele>
        <time>2025-08-25T09:36:24Z</time>
      </trkpt>
      <trkpt lat="46.98867" lon="-0.95292">
        <ele>113.5</ele>
        <time>2025-08-25T09:36:25Z</time>
      </trkpt>
      <trkpt lat="46.98866" lon="-0.95292">
        <ele>113.5</ele>
        <time>2025-08-25T09:36:26Z</time>
      </trkpt>
      <trkpt lat="46.98865" lon="-0.95293">
        <ele>113.6</ele>
        <time>2025-08-25T09:36:27Z</time>
      </trkpt>
      <trkpt lat="46.98865" lon="-0.95293">
        <ele>113.6</ele>
        <time>2025-08-25T09:36:28Z</time>
      </trkpt>
      <trkpt lat="46.98864" lon="-0.95294">
        <ele>113.7</ele>
        <time>2025-08-25T09:36:29Z</time>
      </trkpt>
      <trkpt lat="46.98863" lon="-0.95295">
        <ele>113.7</ele>
        <time>2025-08-25T09:36:30Z</time>
      </trkpt>
      <trkpt lat="46.98863" lon="-0.95296">
        <ele>113.7</ele>
        <time>2025-08-25T09:36:31Z</time>
      </trkpt>
      <trkpt lat="46.98862" lon="-0.95298">
        <ele>113.5</ele>
        <time>2025-08-25T09:36:32Z</time>
      </trkpt>
      <trkpt lat="46.98862" lon="-0.953">
        <ele>113.4</ele>
        <time>2025-08-25T09:36:33Z</time>
      </trkpt>
      <trkpt lat="46.98861" lon="-0.95303">
        <ele>113.1</ele>
        <time>2025-08-25T09:36:34Z</time>
      </trkpt>
      <trkpt lat="46.9886" lon="-0.95304">
        <ele>113</ele>
        <time>2025-08-25T09:36:35Z</time>
      </trkpt>
      <trkpt lat="46.9886" lon="-0.95305">
        <ele>112.9</ele>
        <time>2025-08-25T09:36:36Z</time>
      </trkpt>
      <trkpt lat="46.98859" lon="-0.95308">
        <ele>112.6</ele>
        <time>2025-08-25T09:36:37Z</time>
      </trkpt>
      <trkpt lat="46.98859" lon="-0.95309">
        <ele>112.5</ele>
        <time>2025-08-25T09:36:38Z</time>
      </trkpt>
      <trkpt lat="46.98858" lon="-0.9531">
        <ele>112.4</ele>
        <time>2025-08-25T09:36:39Z</time>
      </trkpt>
      <trkpt lat="46.98858" lon="-0.95311">
        <ele>112.3</ele>
        <time>2025-08-25T09:36:40Z</time>
      </trkpt>
      <trkpt lat="46.98857" lon="-0.95313">
        <ele>112.2</ele>
        <time>2025-08-25T09:36:41Z</time>
      </trkpt>
      <trkpt lat="46.98856" lon="-0.95314">
        <ele>112</ele>
        <time>2025-08-25T09:36:42Z</time>
      </trkpt>
      <trkpt lat="46.98856" lon="-0.95315">
        <ele>111.9</ele>
        <time>2025-08-25T09:36:43Z</time>
      </trkpt>
      <trkpt lat="46.98855" lon="-0.95317">
        <ele>111.8</ele>
        <time>2025-08-25T09:36:44Z</time>
      </trkpt>
      <trkpt lat="46.98854" lon="-0.95318">
        <ele>111.7</ele>
        <time>2025-08-25T09:36:45Z</time>
      </trkpt>
      <trkpt lat="46.98854" lon="-0.95319">
        <ele>111.5</ele>
        <time>2025-08-25T09:36:46Z</time>
      </trkpt>
      <trkpt lat="46.98853" lon="-0.9532">
        <ele>111.4</ele>
        <time>2025-08-25T09:36:47Z</time>
      </trkpt>
      <trkpt lat="46.98853" lon="-0.95322">
        <ele>111.3</ele>
        <time>2025-08-25T09:36:48Z</time>
      </trkpt>
      <trkpt lat="46.98853" lon="-0.95322">
        <ele>111.3</ele>
        <time>2025-08-25T09:36:49Z</time>
      </trkpt>
      <trkpt lat="46.98851" lon="-0.95324">
        <ele>111</ele>
        <time>2025-08-25T09:36:50Z</time>
      </trkpt>
      <trkpt lat="46.98851" lon="-0.95324">
        <ele>110.9</ele>
        <time>2025-08-25T09:36:51Z</time>
      </trkpt>
      <trkpt lat="46.9885" lon="-0.95325">
        <ele>110.8</ele>
        <time>2025-08-25T09:36:52Z</time>
      </trkpt>
      <trkpt lat="46.9885" lon="-0.95326">
        <ele>110.7</ele>
        <time>2025-08-25T09:36:53Z</time>
      </trkpt>
      <trkpt lat="46.98849" lon="-0.95328">
        <ele>110.6</ele>
        <time>2025-08-25T09:36:54Z</time>
      </trkpt>
      <trkpt lat="46.98849" lon="-0.95328">
        <ele>110.6</ele>
        <time>2025-08-25T09:36:55Z</time>
      </trkpt>
      <trkpt lat="46.98849" lon="-0.95329">
        <ele>110.5</ele>
        <time>2025-08-25T09:36:56Z</time>
      </trkpt>
      <trkpt lat="46.98848" lon="-0.9533">
        <ele>110.4</ele>
        <time>2025-08-25T09:36:57Z</time>
      </trkpt>
      <trkpt lat="46.98847" lon="-0.95331">
        <ele>110.2</ele>
        <time>2025-08-25T09:36:58Z</time>
      </trkpt>
      <trkpt lat="46.98847" lon="-0.95332">
        <ele>110.1</ele>
        <time>2025-08-25T09:36:59Z</time>
      </trkpt>
      <trkpt lat="46.98846" lon="-0.95333">
        <ele>110</ele>
        <time>2025-08-25T09:37:00Z</time>
      </trkpt>
      <trkpt lat="46.98845" lon="-0.95334">
        <ele>109.9</ele>
        <time>2025-08-25T09:37:01Z</time>
      </trkpt>
      <trkpt lat="46.98844" lon="-0.95335">
        <ele>109.8</ele>
        <time>2025-08-25T09:37:02Z</time>
      </trkpt>
      <trkpt lat="46.98844" lon="-0.95336">
        <ele>109.7</ele>
        <time>2025-08-25T09:37:03Z</time>
      </trkpt>
      <trkpt lat="46.98843" lon="-0.95337">
        <ele>109.5</ele>
        <time>2025-08-25T09:37:04Z</time>
      </trkpt>
      <trkpt lat="46.98843" lon="-0.95339">
        <ele>109.4</ele>
        <time>2025-08-25T09:37:05Z</time>
      </trkpt>
      <trkpt lat="46.98842" lon="-0.95342">
        <ele>109.2</ele>
        <time>2025-08-25T09:37:06Z</time>
      </trkpt>
      <trkpt lat="46.98842" lon="-0.95344">
        <ele>109</ele>
        <time>2025-08-25T09:37:07Z</time>
      </trkpt>
      <trkpt lat="46.98843" lon="-0.95347">
        <ele>108.8</ele>
        <time>2025-08-25T09:37:08Z</time>
      </trkpt>
      <trkpt lat="46.98844" lon="-0.95349">
        <ele>108.6</ele>
        <time>2025-08-25T09:37:09Z</time>
      </trkpt>
      <trkpt lat="46.98844" lon="-0.95351">
        <ele>108.4</ele>
        <time>2025-08-25T09:37:10Z</time>
      </trkpt>
      <trkpt lat="46.98844" lon="-0.95354">
        <ele>108.3</ele>
        <time>2025-08-25T09:37:11Z</time>
      </trkpt>
      <trkpt lat="46.98844" lon="-0.95356">
        <ele>108.1</ele>
        <time>2025-08-25T09:37:12Z</time>
      </trkpt>
      <trkpt lat="46.98844" lon="-0.95359">
        <ele>107.9</ele>
        <time>2025-08-25T09:37:13Z</time>
      </trkpt>
      <trkpt lat="46.98844" lon="-0.9536">
        <ele>107.8</ele>
        <time>2025-08-25T09:37:14Z</time>
      </trkpt>
      <trkpt lat="46.98843" lon="-0.95361">
        <ele>107.7</ele>
        <time>2025-08-25T09:37:15Z</time>
      </trkpt>
      <trkpt lat="46.98843" lon="-0.95363">
        <ele>107.6</ele>
        <time>2025-08-25T09:37:16Z</time>
      </trkpt>
      <trkpt lat="46.98842" lon="-0.95365">
        <ele>107.5</ele>
        <time>2025-08-25T09:37:17Z</time>
      </trkpt>
      <trkpt lat="46.98842" lon="-0.95365">
        <ele>107.4</ele>
        <time>2025-08-25T09:37:18Z</time>
      </trkpt>
      <trkpt lat="46.98841" lon="-0.95367">
        <ele>107.3</ele>
        <time>2025-08-25T09:37:19Z</time>
      </trkpt>
      <trkpt lat="46.98841" lon="-0.95368">
        <ele>107.2</ele>
        <time>2025-08-25T09:37:20Z</time>
      </trkpt>
      <trkpt lat="46.98841" lon="-0.9537">
        <ele>107.1</ele>
        <time>2025-08-25T09:37:21Z</time>
      </trkpt>
      <trkpt lat="46.98841" lon="-0.95372">
        <ele>107</ele>
        <time>2025-08-25T09:37:22Z</time>
      </trkpt>
      <trkpt lat="46.98841" lon="-0.95373">
        <ele>106.9</ele>
        <time>2025-08-25T09:37:23Z</time>
      </trkpt>
      <trkpt lat="46.98841" lon="-0.95375">
        <ele>106.8</ele>
        <time>2025-08-25T09:37:24Z</time>
      </trkpt>
      <trkpt lat="46.9884" lon="-0.95377">
        <ele>106.7</ele>
        <time>2025-08-25T09:37:25Z</time>
      </trkpt>
      <trkpt lat="46.9884" lon="-0.95378">
        <ele>106.6</ele>
        <time>2025-08-25T09:37:26Z</time>
      </trkpt>
      <trkpt lat="46.9884" lon="-0.9538">
        <ele>106.5</ele>
        <time>2025-08-25T09:37:27Z</time>
      </trkpt>
      <trkpt lat="46.98839" lon="-0.95381">
        <ele>106.4</ele>
        <time>2025-08-25T09:37:28Z</time>
      </trkpt>
      <trkpt lat="46.98839" lon="-0.95382">
        <ele>106.3</ele>
        <time>2025-08-25T09:37:29Z</time>
      </trkpt>
      <trkpt lat="46.98837" lon="-0.95383">
        <ele>106.3</ele>
        <time>2025-08-25T09:37:30Z</time>
      </trkpt>
      <trkpt lat="46.98836" lon="-0.95384">
        <ele>106.2</ele>
        <time>2025-08-25T09:37:31Z</time>
      </trkpt>
      <trkpt lat="46.98835" lon="-0.95385">
        <ele>106.2</ele>
        <time>2025-08-25T09:37:32Z</time>
      </trkpt>
      <trkpt lat="46.98835" lon="-0.95385">
        <ele>106.2</ele>
        <time>2025-08-25T09:37:33Z</time>
      </trkpt>
      <trkpt lat="46.98835" lon="-0.95387">
        <ele>106.1</ele>
        <time>2025-08-25T09:37:34Z</time>
      </trkpt>
      <trkpt lat="46.98835" lon="-0.95388">
        <ele>106.1</ele>
        <time>2025-08-25T09:37:35Z</time>
      </trkpt>
      <trkpt lat="46.98835" lon="-0.95388">
        <ele>106.1</ele>
        <time>2025-08-25T09:37:36Z</time>
      </trkpt>
      <trkpt lat="46.98836" lon="-0.95389">
        <ele>106.1</ele>
        <time>2025-08-25T09:37:37Z</time>
      </trkpt>
      <trkpt lat="46.98836" lon="-0.9539">
        <ele>106.1</ele>
        <time>2025-08-25T09:37:38Z</time>
      </trkpt>
      <trkpt lat="46.98836" lon="-0.9539">
        <ele>106</ele>
        <time>2025-08-25T09:37:39Z</time>
      </trkpt>
      <trkpt lat="46.98836" lon="-0.95391">
        <ele>106</ele>
        <time>2025-08-25T09:37:40Z</time>
      </trkpt>
      <trkpt lat="46.98836" lon="-0.95391">
        <ele>106</ele>
        <time>2025-08-25T09:37:41Z</time>
      </trkpt>
      <trkpt lat="46.98837" lon="-0.95393">
        <ele>105.9</ele>
        <time>2025-08-25T09:37:42Z</time>
      </trkpt>
      <trkpt lat="46.98837" lon="-0.95396">
        <ele>105.9</ele>
        <time>2025-08-25T09:37:43Z</time>
      </trkpt>
      <trkpt lat="46.98839" lon="-0.95398">
        <ele>105.8</ele>
        <time>2025-08-25T09:37:44Z</time>
      </trkpt>
      <trkpt lat="46.98839" lon="-0.95399">
        <ele>105.8</ele>
        <time>2025-08-25T09:37:45Z</time>
      </trkpt>
      <trkpt lat="46.9884" lon="-0.954">
        <ele>105.7</ele>
        <time>2025-08-25T09:37:46Z</time>
      </trkpt>
      <trkpt lat="46.98841" lon="-0.95401">
        <ele>105.6</ele>
        <time>2025-08-25T09:37:47Z</time>
      </trkpt>
      <trkpt lat="46.98842" lon="-0.95402">
        <ele>105.5</ele>
        <time>2025-08-25T09:37:48Z</time>
      </trkpt>
      <trkpt lat="46.98842" lon="-0.95403">
        <ele>105.5</ele>
        <time>2025-08-25T09:37:49Z</time>
      </trkpt>
      <trkpt lat="46.98844" lon="-0.95404">
        <ele>105.3</ele>
        <time>2025-08-25T09:37:50Z</time>
      </trkpt>
      <trkpt lat="46.98845" lon="-0.95404">
        <ele>105.2</ele>
        <time>2025-08-25T09:37:51Z</time>
      </trkpt>
      <trkpt lat="46.98846" lon="-0.95405">
        <ele>105.1</ele>
        <time>2025-08-25T09:37:52Z</time>
      </trkpt>
      <trkpt lat="46.98847" lon="-0.95405">
        <ele>105</ele>
        <time>2025-08-25T09:37:53Z</time>
      </trkpt>
      <trkpt lat="46.98848" lon="-0.95406">
        <ele>104.9</ele>
        <time>2025-08-25T09:37:54Z</time>
      </trkpt>
      <trkpt lat="46.98849" lon="-0.95407">
        <ele>104.8</ele>
        <time>2025-08-25T09:37:55Z</time>
      </trkpt>
      <trkpt lat="46.9885" lon="-0.9541">
        <ele>104.6</ele>
        <time>2025-08-25T09:37:56Z</time>
      </trkpt>
      <trkpt lat="46.9885" lon="-0.95411">
        <ele>104.5</ele>
        <time>2025-08-25T09:37:57Z</time>
      </trkpt>
      <trkpt lat="46.98851" lon="-0.95412">
        <ele>104.4</ele>
        <time>2025-08-25T09:37:58Z</time>
      </trkpt>
      <trkpt lat="46.98851" lon="-0.95415">
        <ele>104.2</ele>
        <time>2025-08-25T09:37:59Z</time>
      </trkpt>
      <trkpt lat="46.98852" lon="-0.95416">
        <ele>104.1</ele>
        <time>2025-08-25T09:38:00Z</time>
      </trkpt>
      <trkpt lat="46.98852" lon="-0.95418">
        <ele>103.9</ele>
        <time>2025-08-25T09:38:01Z</time>
      </trkpt>
      <trkpt lat="46.98852" lon="-0.95419">
        <ele>103.8</ele>
        <time>2025-08-25T09:38:02Z</time>
      </trkpt>
      <trkpt lat="46.98852" lon="-0.95421">
        <ele>103.7</ele>
        <time>2025-08-25T09:38:03Z</time>
      </trkpt>
      <trkpt lat="46.98852" lon="-0.95422">
        <ele>103.6</ele>
        <time>2025-08-25T09:38:04Z</time>
      </trkpt>
      <trkpt lat="46.98852" lon="-0.95423">
        <ele>103.5</ele>
        <time>2025-08-25T09:38:05Z</time>
      </trkpt>
      <trkpt lat="46.98852" lon="-0.95425">
        <ele>103.4</ele>
        <time>2025-08-25T09:38:06Z</time>
      </trkpt>
      <trkpt lat="46.98852" lon="-0.95426">
        <ele>103.3</ele>
        <time>2025-08-25T09:38:07Z</time>
      </trkpt>
      <trkpt lat="46.98852" lon="-0.95428">
        <ele>103.1</ele>
        <time>2025-08-25T09:38:08Z</time>
      </trkpt>
      <trkpt lat="46.98852" lon="-0.95429">
        <ele>103</ele>
        <time>2025-08-25T09:38:09Z</time>
      </trkpt>
      <trkpt lat="46.98852" lon="-0.95431">
        <ele>102.9</ele>
        <time>2025-08-25T09:38:10Z</time>
      </trkpt>
      <trkpt lat="46.98852" lon="-0.95432">
        <ele>102.8</ele>
        <time>2025-08-25T09:38:11Z</time>
      </trkpt>
      <trkpt lat="46.98852" lon="-0.95434">
        <ele>102.7</ele>
        <time>2025-08-25T09:38:12Z</time>
      </trkpt>
      <trkpt lat="46.98853" lon="-0.95435">
        <ele>102.6</ele>
        <time>2025-08-25T09:38:13Z</time>
      </trkpt>
      <trkpt lat="46.98853" lon="-0.95437">
        <ele>102.5</ele>
        <time>2025-08-25T09:38:14Z</time>
      </trkpt>
      <trkpt lat="46.98853" lon="-0.95438">
        <ele>102.4</ele>
        <time>2025-08-25T09:38:15Z</time>
      </trkpt>
      <trkpt lat="46.98852" lon="-0.9544">
        <ele>102.2</ele>
        <time>2025-08-25T09:38:16Z</time>
      </trkpt>
      <trkpt lat="46.98852" lon="-0.95442">
        <ele>102.1</ele>
        <time>2025-08-25T09:38:17Z</time>
      </trkpt>
      <trkpt lat="46.98852" lon="-0.95443">
        <ele>102</ele>
        <time>2025-08-25T09:38:18Z</time>
      </trkpt>
      <trkpt lat="46.98852" lon="-0.95445">
        <ele>101.9</ele>
        <time>2025-08-25T09:38:19Z</time>
      </trkpt>
      <trkpt lat="46.98852" lon="-0.95446">
        <ele>101.8</ele>
        <time>2025-08-25T09:38:20Z</time>
      </trkpt>
      <trkpt lat="46.98852" lon="-0.95447">
        <ele>101.8</ele>
        <time>2025-08-25T09:38:21Z</time>
      </trkpt>
      <trkpt lat="46.98852" lon="-0.95449">
        <ele>101.7</ele>
        <time>2025-08-25T09:38:22Z</time>
      </trkpt>
      <trkpt lat="46.98852" lon="-0.9545">
        <ele>101.6</ele>
        <time>2025-08-25T09:38:23Z</time>
      </trkpt>
      <trkpt lat="46.98852" lon="-0.95452">
        <ele>101.5</ele>
        <time>2025-08-25T09:38:24Z</time>
      </trkpt>
      <trkpt lat="46.98852" lon="-0.95453">
        <ele>101.4</ele>
        <time>2025-08-25T09:38:25Z</time>
      </trkpt>
      <trkpt lat="46.98852" lon="-0.95455">
        <ele>101.3</ele>
        <time>2025-08-25T09:38:26Z</time>
      </trkpt>
      <trkpt lat="46.98852" lon="-0.95456">
        <ele>101.2</ele>
        <time>2025-08-25T09:38:27Z</time>
      </trkpt>
      <trkpt lat="46.98852" lon="-0.95458">
        <ele>101.2</ele>
        <time>2025-08-25T09:38:28Z</time>
      </trkpt>
      <trkpt lat="46.98852" lon="-0.95459">
        <ele>101.1</ele>
        <time>2025-08-25T09:38:29Z</time>
      </trkpt>
      <trkpt lat="46.98852" lon="-0.95461">
        <ele>101</ele>
        <time>2025-08-25T09:38:30Z</time>
      </trkpt>
      <trkpt lat="46.98852" lon="-0.95462">
        <ele>100.9</ele>
        <time>2025-08-25T09:38:31Z</time>
      </trkpt>
      <trkpt lat="46.98853" lon="-0.95464">
        <ele>100.9</ele>
        <time>2025-08-25T09:38:32Z</time>
      </trkpt>
      <trkpt lat="46.98853" lon="-0.95465">
        <ele>100.8</ele>
        <time>2025-08-25T09:38:33Z</time>
      </trkpt>
      <trkpt lat="46.98854" lon="-0.95467">
        <ele>100.7</ele>
        <time>2025-08-25T09:38:34Z</time>
      </trkpt>
      <trkpt lat="46.98855" lon="-0.95469">
        <ele>100.5</ele>
        <time>2025-08-25T09:38:35Z</time>
      </trkpt>
      <trkpt lat="46.98856" lon="-0.95471">
        <ele>100.4</ele>
        <time>2025-08-25T09:38:36Z</time>
      </trkpt>
      <trkpt lat="46.98856" lon="-0.95472">
        <ele>100.3</ele>
        <time>2025-08-25T09:38:37Z</time>
      </trkpt>
      <trkpt lat="46.98857" lon="-0.95474">
        <ele>100.1</ele>
        <time>2025-08-25T09:38:38Z</time>
      </trkpt>
      <trkpt lat="46.98857" lon="-0.95476">
        <ele>100</ele>
        <time>2025-08-25T09:38:39Z</time>
      </trkpt>
      <trkpt lat="46.98858" lon="-0.95478">
        <ele>99.9</ele>
        <time>2025-08-25T09:38:40Z</time>
      </trkpt>
      <trkpt lat="46.98858" lon="-0.95479">
        <ele>99.7</ele>
        <time>2025-08-25T09:38:41Z</time>
      </trkpt>
      <trkpt lat="46.98859" lon="-0.9548">
        <ele>99.6</ele>
        <time>2025-08-25T09:38:42Z</time>
      </trkpt>
      <trkpt lat="46.9886" lon="-0.95481">
        <ele>99.5</ele>
        <time>2025-08-25T09:38:43Z</time>
      </trkpt>
      <trkpt lat="46.98861" lon="-0.95481">
        <ele>99.4</ele>
        <time>2025-08-25T09:38:44Z</time>
      </trkpt>
      <trkpt lat="46.98862" lon="-0.95482">
        <ele>99.3</ele>
        <time>2025-08-25T09:38:45Z</time>
      </trkpt>
      <trkpt lat="46.98863" lon="-0.95482">
        <ele>99.1</ele>
        <time>2025-08-25T09:38:46Z</time>
      </trkpt>
      <trkpt lat="46.98864" lon="-0.95483">
        <ele>99</ele>
        <time>2025-08-25T09:38:47Z</time>
      </trkpt>
      <trkpt lat="46.98864" lon="-0.95484">
        <ele>98.9</ele>
        <time>2025-08-25T09:38:48Z</time>
      </trkpt>
      <trkpt lat="46.98865" lon="-0.95485">
        <ele>98.7</ele>
        <time>2025-08-25T09:38:49Z</time>
      </trkpt>
      <trkpt lat="46.98866" lon="-0.95486">
        <ele>98.6</ele>
        <time>2025-08-25T09:38:50Z</time>
      </trkpt>
      <trkpt lat="46.98867" lon="-0.95488">
        <ele>98.4</ele>
        <time>2025-08-25T09:38:51Z</time>
      </trkpt>
      <trkpt lat="46.98868" lon="-0.95489">
        <ele>98.2</ele>
        <time>2025-08-25T09:38:52Z</time>
      </trkpt>
      <trkpt lat="46.98869" lon="-0.95491">
        <ele>98</ele>
        <time>2025-08-25T09:38:53Z</time>
      </trkpt>
      <trkpt lat="46.9887" lon="-0.95491">
        <ele>97.8</ele>
        <time>2025-08-25T09:38:54Z</time>
      </trkpt>
      <trkpt lat="46.98871" lon="-0.95493">
        <ele>97.7</ele>
        <time>2025-08-25T09:38:55Z</time>
      </trkpt>
      <trkpt lat="46.98872" lon="-0.95494">
        <ele>97.5</ele>
        <time>2025-08-25T09:38:56Z</time>
      </trkpt>
      <trkpt lat="46.98873" lon="-0.95496">
        <ele>97.3</ele>
        <time>2025-08-25T09:38:57Z</time>
      </trkpt>
      <trkpt lat="46.98874" lon="-0.95498">
        <ele>97</ele>
        <time>2025-08-25T09:38:58Z</time>
      </trkpt>
      <trkpt lat="46.98875" lon="-0.95498">
        <ele>96.9</ele>
        <time>2025-08-25T09:38:59Z</time>
      </trkpt>
      <trkpt lat="46.98876" lon="-0.95499">
        <ele>96.8</ele>
        <time>2025-08-25T09:39:00Z</time>
      </trkpt>
      <trkpt lat="46.98877" lon="-0.95501">
        <ele>96.6</ele>
        <time>2025-08-25T09:39:01Z</time>
      </trkpt>
      <trkpt lat="46.98877" lon="-0.95502">
        <ele>96.4</ele>
        <time>2025-08-25T09:39:02Z</time>
      </trkpt>
      <trkpt lat="46.98878" lon="-0.95504">
        <ele>96.2</ele>
        <time>2025-08-25T09:39:03Z</time>
      </trkpt>
      <trkpt lat="46.98879" lon="-0.95507">
        <ele>96</ele>
        <time>2025-08-25T09:39:04Z</time>
      </trkpt>
      <trkpt lat="46.98879" lon="-0.95508">
        <ele>95.9</ele>
        <time>2025-08-25T09:39:05Z</time>
      </trkpt>
      <trkpt lat="46.9888" lon="-0.95509">
        <ele>95.8</ele>
        <time>2025-08-25T09:39:06Z</time>
      </trkpt>
      <trkpt lat="46.9888" lon="-0.95511">
        <ele>95.6</ele>
        <time>2025-08-25T09:39:07Z</time>
      </trkpt>
      <trkpt lat="46.98881" lon="-0.95513">
        <ele>95.5</ele>
        <time>2025-08-25T09:39:08Z</time>
      </trkpt>
      <trkpt lat="46.98881" lon="-0.95514">
        <ele>95.3</ele>
        <time>2025-08-25T09:39:09Z</time>
      </trkpt>
      <trkpt lat="46.98881" lon="-0.95516">
        <ele>95.2</ele>
        <time>2025-08-25T09:39:10Z</time>
      </trkpt>
      <trkpt lat="46.98882" lon="-0.95518">
        <ele>95.1</ele>
        <time>2025-08-25T09:39:11Z</time>
      </trkpt>
      <trkpt lat="46.98883" lon="-0.9552">
        <ele>94.9</ele>
        <time>2025-08-25T09:39:12Z</time>
      </trkpt>
      <trkpt lat="46.98884" lon="-0.95522">
        <ele>94.7</ele>
        <time>2025-08-25T09:39:13Z</time>
      </trkpt>
      <trkpt lat="46.98884" lon="-0.95523">
        <ele>94.6</ele>
        <time>2025-08-25T09:39:14Z</time>
      </trkpt>
      <trkpt lat="46.98885" lon="-0.95524">
        <ele>94.5</ele>
        <time>2025-08-25T09:39:15Z</time>
      </trkpt>
      <trkpt lat="46.98885" lon="-0.95525">
        <ele>94.3</ele>
        <time>2025-08-25T09:39:16Z</time>
      </trkpt>
      <trkpt lat="46.98887" lon="-0.95528">
        <ele>94.1</ele>
        <time>2025-08-25T09:39:17Z</time>
      </trkpt>
      <trkpt lat="46.98888" lon="-0.95528">
        <ele>94</ele>
        <time>2025-08-25T09:39:18Z</time>
      </trkpt>
      <trkpt lat="46.98889" lon="-0.95529">
        <ele>93.9</ele>
        <time>2025-08-25T09:39:19Z</time>
      </trkpt>
      <trkpt lat="46.9889" lon="-0.9553">
        <ele>93.7</ele>
        <time>2025-08-25T09:39:20Z</time>
      </trkpt>
      <trkpt lat="46.98892" lon="-0.95531">
        <ele>93.6</ele>
        <time>2025-08-25T09:39:21Z</time>
      </trkpt>
      <trkpt lat="46.98894" lon="-0.95532">
        <ele>93.4</ele>
        <time>2025-08-25T09:39:22Z</time>
      </trkpt>
      <trkpt lat="46.98894" lon="-0.95532">
        <ele>93.3</ele>
        <time>2025-08-25T09:39:23Z</time>
      </trkpt>
      <trkpt lat="46.98895" lon="-0.95533">
        <ele>93.2</ele>
        <time>2025-08-25T09:39:24Z</time>
      </trkpt>
      <trkpt lat="46.98896" lon="-0.95534">
        <ele>93.1</ele>
        <time>2025-08-25T09:39:25Z</time>
      </trkpt>
      <trkpt lat="46.98896" lon="-0.95536">
        <ele>93</ele>
        <time>2025-08-25T09:39:26Z</time>
      </trkpt>
      <trkpt lat="46.98896" lon="-0.95536">
        <ele>92.9</ele>
        <time>2025-08-25T09:39:27Z</time>
      </trkpt>
      <trkpt lat="46.98897" lon="-0.95537">
        <ele>92.8</ele>
        <time>2025-08-25T09:39:28Z</time>
      </trkpt>
      <trkpt lat="46.98897" lon="-0.95537">
        <ele>92.8</ele>
        <time>2025-08-25T09:39:29Z</time>
      </trkpt>
      <trkpt lat="46.98898" lon="-0.95537">
        <ele>92.7</ele>
        <time>2025-08-25T09:39:30Z</time>
      </trkpt>
      <trkpt lat="46.98898" lon="-0.95537">
        <ele>92.7</ele>
        <time>2025-08-25T09:39:31Z</time>
      </trkpt>
      <trkpt lat="46.98898" lon="-0.95537">
        <ele>92.7</ele>
        <time>2025-08-25T09:39:32Z</time>
      </trkpt>
      <trkpt lat="46.98898" lon="-0.95538">
        <ele>92.6</ele>
        <time>2025-08-25T09:39:33Z</time>
      </trkpt>
      <trkpt lat="46.98898" lon="-0.95539">
        <ele>92.5</ele>
        <time>2025-08-25T09:39:34Z</time>
      </trkpt>
      <trkpt lat="46.98899" lon="-0.95539">
        <ele>92.5</ele>
        <time>2025-08-25T09:39:35Z</time>
      </trkpt>
      <trkpt lat="46.989" lon="-0.9554">
        <ele>92.4</ele>
        <time>2025-08-25T09:39:36Z</time>
      </trkpt>
      <trkpt lat="46.98901" lon="-0.95541">
        <ele>92.3</ele>
        <time>2025-08-25T09:39:37Z</time>
      </trkpt>
      <trkpt lat="46.98902" lon="-0.95541">
        <ele>92.3</ele>
        <time>2025-08-25T09:39:38Z</time>
      </trkpt>
      <trkpt lat="46.98903" lon="-0.95542">
        <ele>92.3</ele>
        <time>2025-08-25T09:39:39Z</time>
      </trkpt>
      <trkpt lat="46.98905" lon="-0.95542">
        <ele>92.2</ele>
        <time>2025-08-25T09:39:40Z</time>
      </trkpt>
      <trkpt lat="46.98907" lon="-0.95542">
        <ele>92</ele>
        <time>2025-08-25T09:39:41Z</time>
      </trkpt>
      <trkpt lat="46.98908" lon="-0.95543">
        <ele>91.8</ele>
        <time>2025-08-25T09:39:42Z</time>
      </trkpt>
      <trkpt lat="46.9891" lon="-0.95543">
        <ele>91.6</ele>
        <time>2025-08-25T09:39:43Z</time>
      </trkpt>
      <trkpt lat="46.98911" lon="-0.95543">
        <ele>91.5</ele>
        <time>2025-08-25T09:39:44Z</time>
      </trkpt>
      <trkpt lat="46.98912" lon="-0.95544">
        <ele>91.3</ele>
        <time>2025-08-25T09:39:45Z</time>
      </trkpt>
      <trkpt lat="46.98913" lon="-0.95545">
        <ele>91.2</ele>
        <time>2025-08-25T09:39:46Z</time>
      </trkpt>
      <trkpt lat="46.98913" lon="-0.95546">
        <ele>91.1</ele>
        <time>2025-08-25T09:39:47Z</time>
      </trkpt>
      <trkpt lat="46.98914" lon="-0.95548">
        <ele>90.9</ele>
        <time>2025-08-25T09:39:48Z</time>
      </trkpt>
      <trkpt lat="46.98914" lon="-0.95549">
        <ele>90.7</ele>
        <time>2025-08-25T09:39:49Z</time>
      </trkpt>
      <trkpt lat="46.98915" lon="-0.9555">
        <ele>90.6</ele>
        <time>2025-08-25T09:39:50Z</time>
      </trkpt>
      <trkpt lat="46.98916" lon="-0.95552">
        <ele>90.4</ele>
        <time>2025-08-25T09:39:51Z</time>
      </trkpt>
      <trkpt lat="46.98916" lon="-0.95554">
        <ele>90.3</ele>
        <time>2025-08-25T09:39:52Z</time>
      </trkpt>
      <trkpt lat="46.98916" lon="-0.95555">
        <ele>90.1</ele>
        <time>2025-08-25T09:39:53Z</time>
      </trkpt>
      <trkpt lat="46.98917" lon="-0.95556">
        <ele>90</ele>
        <time>2025-08-25T09:39:54Z</time>
      </trkpt>
      <trkpt lat="46.98917" lon="-0.95558">
        <ele>89.8</ele>
        <time>2025-08-25T09:39:55Z</time>
      </trkpt>
      <trkpt lat="46.98918" lon="-0.95559">
        <ele>89.7</ele>
        <time>2025-08-25T09:39:56Z</time>
      </trkpt>
      <trkpt lat="46.98918" lon="-0.9556">
        <ele>89.5</ele>
        <time>2025-08-25T09:39:57Z</time>
      </trkpt>
      <trkpt lat="46.98919" lon="-0.95561">
        <ele>89.4</ele>
        <time>2025-08-25T09:39:58Z</time>
      </trkpt>
      <trkpt lat="46.9892" lon="-0.95561">
        <ele>89.3</ele>
        <time>2025-08-25T09:39:59Z</time>
      </trkpt>
      <trkpt lat="46.98921" lon="-0.95562">
        <ele>89.1</ele>
        <time>2025-08-25T09:40:00Z</time>
      </trkpt>
      <trkpt lat="46.98921" lon="-0.95563">
        <ele>89</ele>
        <time>2025-08-25T09:40:01Z</time>
      </trkpt>
      <trkpt lat="46.98922" lon="-0.95564">
        <ele>88.9</ele>
        <time>2025-08-25T09:40:02Z</time>
      </trkpt>
      <trkpt lat="46.98922" lon="-0.95565">
        <ele>88.7</ele>
        <time>2025-08-25T09:40:03Z</time>
      </trkpt>
      <trkpt lat="46.98923" lon="-0.95567">
        <ele>88.6</ele>
        <time>2025-08-25T09:40:04Z</time>
      </trkpt>
      <trkpt lat="46.98923" lon="-0.95568">
        <ele>88.4</ele>
        <time>2025-08-25T09:40:05Z</time>
      </trkpt>
      <trkpt lat="46.98923" lon="-0.95569">
        <ele>88.3</ele>
        <time>2025-08-25T09:40:06Z</time>
      </trkpt>
      <trkpt lat="46.98923" lon="-0.95571">
        <ele>88.1</ele>
        <time>2025-08-25T09:40:07Z</time>
      </trkpt>
      <trkpt lat="46.98923" lon="-0.95573">
        <ele>87.9</ele>
        <time>2025-08-25T09:40:08Z</time>
      </trkpt>
      <trkpt lat="46.98923" lon="-0.95574">
        <ele>87.8</ele>
        <time>2025-08-25T09:40:09Z</time>
      </trkpt>
      <trkpt lat="46.98924" lon="-0.95576">
        <ele>87.6</ele>
        <time>2025-08-25T09:40:10Z</time>
      </trkpt>
      <trkpt lat="46.98924" lon="-0.95577">
        <ele>87.4</ele>
        <time>2025-08-25T09:40:11Z</time>
      </trkpt>
      <trkpt lat="46.98923" lon="-0.95576">
        <ele>87.3</ele>
        <time>2025-08-25T09:40:12Z</time>
      </trkpt>
      <trkpt lat="46.98923" lon="-0.95577">
        <ele>87.2</ele>
        <time>2025-08-25T09:40:13Z</time>
      </trkpt>
      <trkpt lat="46.98923" lon="-0.95578">
        <ele>87.2</ele>
        <time>2025-08-25T09:40:14Z</time>
      </trkpt>
      <trkpt lat="46.98923" lon="-0.95579">
        <ele>87</ele>
        <time>2025-08-25T09:40:15Z</time>
      </trkpt>
      <trkpt lat="46.98923" lon="-0.95581">
        <ele>86.8</ele>
        <time>2025-08-25T09:40:16Z</time>
      </trkpt>
      <trkpt lat="46.98923" lon="-0.95581">
        <ele>86.7</ele>
        <time>2025-08-25T09:40:17Z</time>
      </trkpt>
      <trkpt lat="46.98923" lon="-0.95582">
        <ele>86.6</ele>
        <time>2025-08-25T09:40:18Z</time>
      </trkpt>
      <trkpt lat="46.98922" lon="-0.95583">
        <ele>86.5</ele>
        <time>2025-08-25T09:40:19Z</time>
      </trkpt>
      <trkpt lat="46.98922" lon="-0.95584">
        <ele>86.4</ele>
        <time>2025-08-25T09:40:20Z</time>
      </trkpt>
      <trkpt lat="46.98922" lon="-0.95585">
        <ele>86.3</ele>
        <time>2025-08-25T09:40:21Z</time>
      </trkpt>
      <trkpt lat="46.98922" lon="-0.95587">
        <ele>86.1</ele>
        <time>2025-08-25T09:40:22Z</time>
      </trkpt>
      <trkpt lat="46.98921" lon="-0.95588">
        <ele>85.8</ele>
        <time>2025-08-25T09:40:23Z</time>
      </trkpt>
      <trkpt lat="46.9892" lon="-0.95591">
        <ele>85.5</ele>
        <time>2025-08-25T09:40:24Z</time>
      </trkpt>
      <trkpt lat="46.9892" lon="-0.95592">
        <ele>85.3</ele>
        <time>2025-08-25T09:40:25Z</time>
      </trkpt>
      <trkpt lat="46.98919" lon="-0.95593">
        <ele>85.2</ele>
        <time>2025-08-25T09:40:26Z</time>
      </trkpt>
      <trkpt lat="46.98919" lon="-0.95595">
        <ele>85</ele>
        <time>2025-08-25T09:40:27Z</time>
      </trkpt>
      <trkpt lat="46.98918" lon="-0.95596">
        <ele>84.8</ele>
        <time>2025-08-25T09:40:28Z</time>
      </trkpt>
      <trkpt lat="46.98918" lon="-0.95598">
        <ele>84.6</ele>
        <time>2025-08-25T09:40:29Z</time>
      </trkpt>
      <trkpt lat="46.98917" lon="-0.95599">
        <ele>84.4</ele>
        <time>2025-08-25T09:40:30Z</time>
      </trkpt>
      <trkpt lat="46.98916" lon="-0.956">
        <ele>84.3</ele>
        <time>2025-08-25T09:40:31Z</time>
      </trkpt>
      <trkpt lat="46.98916" lon="-0.95601">
        <ele>84.1</ele>
        <time>2025-08-25T09:40:32Z</time>
      </trkpt>
      <trkpt lat="46.98915" lon="-0.95603">
        <ele>83.9</ele>
        <time>2025-08-25T09:40:33Z</time>
      </trkpt>
      <trkpt lat="46.98914" lon="-0.95604">
        <ele>83.7</ele>
        <time>2025-08-25T09:40:34Z</time>
      </trkpt>
      <trkpt lat="46.98914" lon="-0.95605">
        <ele>83.5</ele>
        <time>2025-08-25T09:40:35Z</time>
      </trkpt>
      <trkpt lat="46.98913" lon="-0.95606">
        <ele>83.3</ele>
        <time>2025-08-25T09:40:36Z</time>
      </trkpt>
      <trkpt lat="46.98912" lon="-0.95607">
        <ele>83.1</ele>
        <time>2025-08-25T09:40:37Z</time>
      </trkpt>
      <trkpt lat="46.98911" lon="-0.95608">
        <ele>82.9</ele>
        <time>2025-08-25T09:40:38Z</time>
      </trkpt>
      <trkpt lat="46.9891" lon="-0.9561">
        <ele>82.7</ele>
        <time>2025-08-25T09:40:39Z</time>
      </trkpt>
      <trkpt lat="46.98909" lon="-0.95611">
        <ele>82.5</ele>
        <time>2025-08-25T09:40:40Z</time>
      </trkpt>
      <trkpt lat="46.98909" lon="-0.95613">
        <ele>82.3</ele>
        <time>2025-08-25T09:40:41Z</time>
      </trkpt>
      <trkpt lat="46.98909" lon="-0.95615">
        <ele>82.1</ele>
        <time>2025-08-25T09:40:42Z</time>
      </trkpt>
      <trkpt lat="46.98908" lon="-0.95616">
        <ele>81.9</ele>
        <time>2025-08-25T09:40:43Z</time>
      </trkpt>
      <trkpt lat="46.98907" lon="-0.95617">
        <ele>81.7</ele>
        <time>2025-08-25T09:40:44Z</time>
      </trkpt>
      <trkpt lat="46.98907" lon="-0.95619">
        <ele>81.6</ele>
        <time>2025-08-25T09:40:45Z</time>
      </trkpt>
      <trkpt lat="46.98906" lon="-0.9562">
        <ele>81.4</ele>
        <time>2025-08-25T09:40:46Z</time>
      </trkpt>
      <trkpt lat="46.98906" lon="-0.95622">
        <ele>81.2</ele>
        <time>2025-08-25T09:40:47Z</time>
      </trkpt>
      <trkpt lat="46.98906" lon="-0.95624">
        <ele>81</ele>
        <time>2025-08-25T09:40:48Z</time>
      </trkpt>
      <trkpt lat="46.98905" lon="-0.95625">
        <ele>80.8</ele>
        <time>2025-08-25T09:40:49Z</time>
      </trkpt>
      <trkpt lat="46.98904" lon="-0.95626">
        <ele>80.7</ele>
        <time>2025-08-25T09:40:50Z</time>
      </trkpt>
      <trkpt lat="46.98903" lon="-0.95626">
        <ele>80.6</ele>
        <time>2025-08-25T09:40:51Z</time>
      </trkpt>
      <trkpt lat="46.98903" lon="-0.95626">
        <ele>80.5</ele>
        <time>2025-08-25T09:40:52Z</time>
      </trkpt>
      <trkpt lat="46.98902" lon="-0.95627">
        <ele>80.3</ele>
        <time>2025-08-25T09:40:53Z</time>
      </trkpt>
      <trkpt lat="46.98901" lon="-0.95627">
        <ele>80.2</ele>
        <time>2025-08-25T09:40:54Z</time>
      </trkpt>
      <trkpt lat="46.989" lon="-0.95628">
        <ele>80</ele>
        <time>2025-08-25T09:40:55Z</time>
      </trkpt>
      <trkpt lat="46.98899" lon="-0.95629">
        <ele>79.9</ele>
        <time>2025-08-25T09:40:56Z</time>
      </trkpt>
      <trkpt lat="46.98899" lon="-0.9563">
        <ele>79.7</ele>
        <time>2025-08-25T09:40:57Z</time>
      </trkpt>
      <trkpt lat="46.98898" lon="-0.95631">
        <ele>79.6</ele>
        <time>2025-08-25T09:40:58Z</time>
      </trkpt>
      <trkpt lat="46.98897" lon="-0.95632">
        <ele>79.4</ele>
        <time>2025-08-25T09:40:59Z</time>
      </trkpt>
      <trkpt lat="46.98897" lon="-0.95634">
        <ele>79.2</ele>
        <time>2025-08-25T09:41:00Z</time>
      </trkpt>
      <trkpt lat="46.98896" lon="-0.95635">
        <ele>79.1</ele>
        <time>2025-08-25T09:41:01Z</time>
      </trkpt>
      <trkpt lat="46.98895" lon="-0.95636">
        <ele>78.9</ele>
        <time>2025-08-25T09:41:02Z</time>
      </trkpt>
      <trkpt lat="46.98894" lon="-0.95639">
        <ele>78.6</ele>
        <time>2025-08-25T09:41:03Z</time>
      </trkpt>
      <trkpt lat="46.98893" lon="-0.95639">
        <ele>78.5</ele>
        <time>2025-08-25T09:41:04Z</time>
      </trkpt>
      <trkpt lat="46.98893" lon="-0.9564">
        <ele>78.4</ele>
        <time>2025-08-25T09:41:05Z</time>
      </trkpt>
      <trkpt lat="46.98891" lon="-0.95642">
        <ele>78.1</ele>
        <time>2025-08-25T09:41:06Z</time>
      </trkpt>
      <trkpt lat="46.9889" lon="-0.95643">
        <ele>78</ele>
        <time>2025-08-25T09:41:07Z</time>
      </trkpt>
      <trkpt lat="46.9889" lon="-0.95644">
        <ele>77.8</ele>
        <time>2025-08-25T09:41:08Z</time>
      </trkpt>
      <trkpt lat="46.98888" lon="-0.95646">
        <ele>77.5</ele>
        <time>2025-08-25T09:41:09Z</time>
      </trkpt>
      <trkpt lat="46.98888" lon="-0.95647">
        <ele>77.4</ele>
        <time>2025-08-25T09:41:10Z</time>
      </trkpt>
      <trkpt lat="46.98887" lon="-0.95648">
        <ele>77.3</ele>
        <time>2025-08-25T09:41:11Z</time>
      </trkpt>
      <trkpt lat="46.98887" lon="-0.9565">
        <ele>77.2</ele>
        <time>2025-08-25T09:41:12Z</time>
      </trkpt>
      <trkpt lat="46.98886" lon="-0.95651">
        <ele>77</ele>
        <time>2025-08-25T09:41:13Z</time>
      </trkpt>
      <trkpt lat="46.98886" lon="-0.95652">
        <ele>76.9</ele>
        <time>2025-08-25T09:41:14Z</time>
      </trkpt>
      <trkpt lat="46.98885" lon="-0.95654">
        <ele>76.8</ele>
        <time>2025-08-25T09:41:15Z</time>
      </trkpt>
      <trkpt lat="46.98884" lon="-0.95655">
        <ele>76.6</ele>
        <time>2025-08-25T09:41:16Z</time>
      </trkpt>
      <trkpt lat="46.98884" lon="-0.95656">
        <ele>76.5</ele>
        <time>2025-08-25T09:41:17Z</time>
      </trkpt>
      <trkpt lat="46.98882" lon="-0.95657">
        <ele>76.3</ele>
        <time>2025-08-25T09:41:18Z</time>
      </trkpt>
      <trkpt lat="46.98881" lon="-0.95658">
        <ele>76.1</ele>
        <time>2025-08-25T09:41:19Z</time>
      </trkpt>
      <trkpt lat="46.9888" lon="-0.95659">
        <ele>75.9</ele>
        <time>2025-08-25T09:41:20Z</time>
      </trkpt>
      <trkpt lat="46.9888" lon="-0.95661">
        <ele>75.8</ele>
        <time>2025-08-25T09:41:21Z</time>
      </trkpt>
      <trkpt lat="46.98878" lon="-0.95661">
        <ele>75.7</ele>
        <time>2025-08-25T09:41:22Z</time>
      </trkpt>
      <trkpt lat="46.98878" lon="-0.95662">
        <ele>75.6</ele>
        <time>2025-08-25T09:41:23Z</time>
      </trkpt>
      <trkpt lat="46.98877" lon="-0.95663">
        <ele>75.4</ele>
        <time>2025-08-25T09:41:24Z</time>
      </trkpt>
      <trkpt lat="46.98876" lon="-0.95664">
        <ele>75.3</ele>
        <time>2025-08-25T09:41:25Z</time>
      </trkpt>
      <trkpt lat="46.98876" lon="-0.95666">
        <ele>75.2</ele>
        <time>2025-08-25T09:41:26Z</time>
      </trkpt>
      <trkpt lat="46.98875" lon="-0.95667">
        <ele>75.1</ele>
        <time>2025-08-25T09:41:27Z</time>
      </trkpt>
      <trkpt lat="46.98874" lon="-0.95668">
        <ele>74.9</ele>
        <time>2025-08-25T09:41:28Z</time>
      </trkpt>
      <trkpt lat="46.98873" lon="-0.9567">
        <ele>74.8</ele>
        <time>2025-08-25T09:41:29Z</time>
      </trkpt>
      <trkpt lat="46.98873" lon="-0.95671">
        <ele>74.7</ele>
        <time>2025-08-25T09:41:30Z</time>
      </trkpt>
      <trkpt lat="46.98872" lon="-0.95672">
        <ele>74.6</ele>
        <time>2025-08-25T09:41:31Z</time>
      </trkpt>
      <trkpt lat="46.9887" lon="-0.95673">
        <ele>74.4</ele>
        <time>2025-08-25T09:41:32Z</time>
      </trkpt>
      <trkpt lat="46.98869" lon="-0.95674">
        <ele>74.3</ele>
        <time>2025-08-25T09:41:33Z</time>
      </trkpt>
      <trkpt lat="46.98868" lon="-0.95675">
        <ele>74.2</ele>
        <time>2025-08-25T09:41:34Z</time>
      </trkpt>
      <trkpt lat="46.98867" lon="-0.95676">
        <ele>74.1</ele>
        <time>2025-08-25T09:41:35Z</time>
      </trkpt>
      <trkpt lat="46.98866" lon="-0.95676">
        <ele>74</ele>
        <time>2025-08-25T09:41:36Z</time>
      </trkpt>
      <trkpt lat="46.98865" lon="-0.95677">
        <ele>73.9</ele>
        <time>2025-08-25T09:41:37Z</time>
      </trkpt>
      <trkpt lat="46.98864" lon="-0.95678">
        <ele>73.8</ele>
        <time>2025-08-25T09:41:38Z</time>
      </trkpt>
      <trkpt lat="46.98863" lon="-0.95678">
        <ele>73.7</ele>
        <time>2025-08-25T09:41:39Z</time>
      </trkpt>
      <trkpt lat="46.98862" lon="-0.95679">
        <ele>73.6</ele>
        <time>2025-08-25T09:41:40Z</time>
      </trkpt>
      <trkpt lat="46.98862" lon="-0.9568">
        <ele>73.5</ele>
        <time>2025-08-25T09:41:41Z</time>
      </trkpt>
      <trkpt lat="46.9886" lon="-0.95681">
        <ele>73.4</ele>
        <time>2025-08-25T09:41:42Z</time>
      </trkpt>
      <trkpt lat="46.98859" lon="-0.95682">
        <ele>73.2</ele>
        <time>2025-08-25T09:41:43Z</time>
      </trkpt>
      <trkpt lat="46.98858" lon="-0.95684">
        <ele>73.1</ele>
        <time>2025-08-25T09:41:44Z</time>
      </trkpt>
      <trkpt lat="46.98857" lon="-0.95684">
        <ele>73</ele>
        <time>2025-08-25T09:41:45Z</time>
      </trkpt>
      <trkpt lat="46.98857" lon="-0.95685">
        <ele>72.9</ele>
        <time>2025-08-25T09:41:46Z</time>
      </trkpt>
      <trkpt lat="46.98855" lon="-0.95688">
        <ele>72.7</ele>
        <time>2025-08-25T09:41:47Z</time>
      </trkpt>
      <trkpt lat="46.98855" lon="-0.95689">
        <ele>72.6</ele>
        <time>2025-08-25T09:41:48Z</time>
      </trkpt>
      <trkpt lat="46.98854" lon="-0.9569">
        <ele>72.6</ele>
        <time>2025-08-25T09:41:49Z</time>
      </trkpt>
      <trkpt lat="46.98854" lon="-0.95692">
        <ele>72.4</ele>
        <time>2025-08-25T09:41:50Z</time>
      </trkpt>
      <trkpt lat="46.98853" lon="-0.95694">
        <ele>72.3</ele>
        <time>2025-08-25T09:41:51Z</time>
      </trkpt>
      <trkpt lat="46.98854" lon="-0.95697">
        <ele>72.1</ele>
        <time>2025-08-25T09:41:52Z</time>
      </trkpt>
      <trkpt lat="46.98855" lon="-0.95699">
        <ele>72</ele>
        <time>2025-08-25T09:41:53Z</time>
      </trkpt>
      <trkpt lat="46.98855" lon="-0.957">
        <ele>71.9</ele>
        <time>2025-08-25T09:41:54Z</time>
      </trkpt>
      <trkpt lat="46.98856" lon="-0.95702">
        <ele>71.8</ele>
        <time>2025-08-25T09:41:55Z</time>
      </trkpt>
      <trkpt lat="46.98857" lon="-0.95703">
        <ele>71.7</ele>
        <time>2025-08-25T09:41:56Z</time>
      </trkpt>
      <trkpt lat="46.98858" lon="-0.95704">
        <ele>71.7</ele>
        <time>2025-08-25T09:41:57Z</time>
      </trkpt>
      <trkpt lat="46.9886" lon="-0.95705">
        <ele>71.6</ele>
        <time>2025-08-25T09:41:58Z</time>
      </trkpt>
      <trkpt lat="46.98861" lon="-0.95706">
        <ele>71.5</ele>
        <time>2025-08-25T09:41:59Z</time>
      </trkpt>
      <trkpt lat="46.98863" lon="-0.95706">
        <ele>71.4</ele>
        <time>2025-08-25T09:42:00Z</time>
      </trkpt>
      <trkpt lat="46.98865" lon="-0.95707">
        <ele>71.4</ele>
        <time>2025-08-25T09:42:01Z</time>
      </trkpt>
      <trkpt lat="46.98866" lon="-0.95707">
        <ele>71.3</ele>
        <time>2025-08-25T09:42:02Z</time>
      </trkpt>
      <trkpt lat="46.98867" lon="-0.95708">
        <ele>71.2</ele>
        <time>2025-08-25T09:42:03Z</time>
      </trkpt>
      <trkpt lat="46.98869" lon="-0.95709">
        <ele>71.2</ele>
        <time>2025-08-25T09:42:04Z</time>
      </trkpt>
      <trkpt lat="46.98871" lon="-0.9571">
        <ele>71.1</ele>
        <time>2025-08-25T09:42:05Z</time>
      </trkpt>
      <trkpt lat="46.98871" lon="-0.95711">
        <ele>71.1</ele>
        <time>2025-08-25T09:42:06Z</time>
      </trkpt>
      <trkpt lat="46.98872" lon="-0.95711">
        <ele>71</ele>
        <time>2025-08-25T09:42:07Z</time>
      </trkpt>
      <trkpt lat="46.98873" lon="-0.95712">
        <ele>71</ele>
        <time>2025-08-25T09:42:08Z</time>
      </trkpt>
      <trkpt lat="46.98874" lon="-0.95714">
        <ele>71</ele>
        <time>2025-08-25T09:42:09Z</time>
      </trkpt>
      <trkpt lat="46.98875" lon="-0.95715">
        <ele>70.9</ele>
        <time>2025-08-25T09:42:10Z</time>
      </trkpt>
      <trkpt lat="46.98876" lon="-0.95716">
        <ele>70.9</ele>
        <time>2025-08-25T09:42:11Z</time>
      </trkpt>
      <trkpt lat="46.98877" lon="-0.95717">
        <ele>70.8</ele>
        <time>2025-08-25T09:42:12Z</time>
      </trkpt>
      <trkpt lat="46.98878" lon="-0.95719">
        <ele>70.8</ele>
        <time>2025-08-25T09:42:13Z</time>
      </trkpt>
      <trkpt lat="46.98879" lon="-0.9572">
        <ele>70.8</ele>
        <time>2025-08-25T09:42:14Z</time>
      </trkpt>
      <trkpt lat="46.9888" lon="-0.95721">
        <ele>70.8</ele>
        <time>2025-08-25T09:42:15Z</time>
      </trkpt>
      <trkpt lat="46.98882" lon="-0.95722">
        <ele>70.7</ele>
        <time>2025-08-25T09:42:16Z</time>
      </trkpt>
      <trkpt lat="46.98882" lon="-0.95723">
        <ele>70.7</ele>
        <time>2025-08-25T09:42:17Z</time>
      </trkpt>
      <trkpt lat="46.98883" lon="-0.95723">
        <ele>70.7</ele>
        <time>2025-08-25T09:42:18Z</time>
      </trkpt>
      <trkpt lat="46.98884" lon="-0.95724">
        <ele>70.7</ele>
        <time>2025-08-25T09:42:19Z</time>
      </trkpt>
      <trkpt lat="46.98885" lon="-0.95725">
        <ele>70.6</ele>
        <time>2025-08-25T09:42:20Z</time>
      </trkpt>
      <trkpt lat="46.98886" lon="-0.95725">
        <ele>70.6</ele>
        <time>2025-08-25T09:42:21Z</time>
      </trkpt>
      <trkpt lat="46.98887" lon="-0.95725">
        <ele>70.6</ele>
        <time>2025-08-25T09:42:22Z</time>
      </trkpt>
      <trkpt lat="46.98888" lon="-0.95725">
        <ele>70.6</ele>
        <time>2025-08-25T09:42:23Z</time>
      </trkpt>
      <trkpt lat="46.98889" lon="-0.95725">
        <ele>70.6</ele>
        <time>2025-08-25T09:42:24Z</time>
      </trkpt>
      <trkpt lat="46.9889" lon="-0.95725">
        <ele>70.6</ele>
        <time>2025-08-25T09:42:25Z</time>
      </trkpt>
      <trkpt lat="46.9889" lon="-0.95727">
        <ele>70.6</ele>
        <time>2025-08-25T09:42:26Z</time>
      </trkpt>
      <trkpt lat="46.9889" lon="-0.95728">
        <ele>70.6</ele>
        <time>2025-08-25T09:42:27Z</time>
      </trkpt>
      <trkpt lat="46.9889" lon="-0.95729">
        <ele>70.6</ele>
        <time>2025-08-25T09:42:28Z</time>
      </trkpt>
      <trkpt lat="46.9889" lon="-0.9573">
        <ele>70.6</ele>
        <time>2025-08-25T09:42:29Z</time>
      </trkpt>
      <trkpt lat="46.98889" lon="-0.95732">
        <ele>70.6</ele>
        <time>2025-08-25T09:42:30Z</time>
      </trkpt>
      <trkpt lat="46.98889" lon="-0.95734">
        <ele>70.6</ele>
        <time>2025-08-25T09:42:31Z</time>
      </trkpt>
      <trkpt lat="46.9889" lon="-0.95736">
        <ele>70.6</ele>
        <time>2025-08-25T09:42:32Z</time>
      </trkpt>
      <trkpt lat="46.9889" lon="-0.95737">
        <ele>70.6</ele>
        <time>2025-08-25T09:42:33Z</time>
      </trkpt>
      <trkpt lat="46.98891" lon="-0.95739">
        <ele>70.6</ele>
        <time>2025-08-25T09:42:34Z</time>
      </trkpt>
      <trkpt lat="46.98891" lon="-0.95741">
        <ele>70.6</ele>
        <time>2025-08-25T09:42:35Z</time>
      </trkpt>
      <trkpt lat="46.98892" lon="-0.95742">
        <ele>70.6</ele>
        <time>2025-08-25T09:42:36Z</time>
      </trkpt>
      <trkpt lat="46.98892" lon="-0.95743">
        <ele>70.6</ele>
        <time>2025-08-25T09:42:37Z</time>
      </trkpt>
      <trkpt lat="46.98893" lon="-0.95745">
        <ele>70.5</ele>
        <time>2025-08-25T09:42:38Z</time>
      </trkpt>
      <trkpt lat="46.98894" lon="-0.95746">
        <ele>70.5</ele>
        <time>2025-08-25T09:42:39Z</time>
      </trkpt>
      <trkpt lat="46.98894" lon="-0.95747">
        <ele>70.5</ele>
        <time>2025-08-25T09:42:40Z</time>
      </trkpt>
      <trkpt lat="46.98895" lon="-0.95749">
        <ele>70.5</ele>
        <time>2025-08-25T09:42:41Z</time>
      </trkpt>
      <trkpt lat="46.98896" lon="-0.9575">
        <ele>70.5</ele>
        <time>2025-08-25T09:42:42Z</time>
      </trkpt>
      <trkpt lat="46.98896" lon="-0.95752">
        <ele>70.5</ele>
        <time>2025-08-25T09:42:43Z</time>
      </trkpt>
      <trkpt lat="46.98897" lon="-0.95753">
        <ele>70.4</ele>
        <time>2025-08-25T09:42:44Z</time>
      </trkpt>
      <trkpt lat="46.98898" lon="-0.95753">
        <ele>70.4</ele>
        <time>2025-08-25T09:42:45Z</time>
      </trkpt>
      <trkpt lat="46.98899" lon="-0.95754">
        <ele>70.4</ele>
        <time>2025-08-25T09:42:46Z</time>
      </trkpt>
      <trkpt lat="46.989" lon="-0.95756">
        <ele>70.4</ele>
        <time>2025-08-25T09:42:47Z</time>
      </trkpt>
      <trkpt lat="46.98901" lon="-0.95757">
        <ele>70.4</ele>
        <time>2025-08-25T09:42:48Z</time>
      </trkpt>
      <trkpt lat="46.98901" lon="-0.95759">
        <ele>70.4</ele>
        <time>2025-08-25T09:42:49Z</time>
      </trkpt>
      <trkpt lat="46.98902" lon="-0.9576">
        <ele>70.4</ele>
        <time>2025-08-25T09:42:50Z</time>
      </trkpt>
      <trkpt lat="46.98902" lon="-0.95761">
        <ele>70.3</ele>
        <time>2025-08-25T09:42:51Z</time>
      </trkpt>
      <trkpt lat="46.98903" lon="-0.95763">
        <ele>70.3</ele>
        <time>2025-08-25T09:42:52Z</time>
      </trkpt>
      <trkpt lat="46.98903" lon="-0.95764">
        <ele>70.3</ele>
        <time>2025-08-25T09:42:53Z</time>
      </trkpt>
      <trkpt lat="46.98904" lon="-0.95765">
        <ele>70.3</ele>
        <time>2025-08-25T09:42:54Z</time>
      </trkpt>
      <trkpt lat="46.98905" lon="-0.95767">
        <ele>70.3</ele>
        <time>2025-08-25T09:42:55Z</time>
      </trkpt>
      <trkpt lat="46.98906" lon="-0.95768">
        <ele>70.3</ele>
        <time>2025-08-25T09:42:56Z</time>
      </trkpt>
      <trkpt lat="46.98907" lon="-0.95768">
        <ele>70.3</ele>
        <time>2025-08-25T09:42:57Z</time>
      </trkpt>
      <trkpt lat="46.98908" lon="-0.95769">
        <ele>70.2</ele>
        <time>2025-08-25T09:42:58Z</time>
      </trkpt>
      <trkpt lat="46.98909" lon="-0.9577">
        <ele>70.2</ele>
        <time>2025-08-25T09:42:59Z</time>
      </trkpt>
      <trkpt lat="46.98909" lon="-0.9577">
        <ele>70.2</ele>
        <time>2025-08-25T09:43:00Z</time>
      </trkpt>
      <trkpt lat="46.9891" lon="-0.9577">
        <ele>70.2</ele>
        <time>2025-08-25T09:43:01Z</time>
      </trkpt>
      <trkpt lat="46.98912" lon="-0.95768">
        <ele>70.2</ele>
        <time>2025-08-25T09:43:02Z</time>
      </trkpt>
      <trkpt lat="46.98913" lon="-0.95767">
        <ele>70.2</ele>
        <time>2025-08-25T09:43:03Z</time>
      </trkpt>
      <trkpt lat="46.98913" lon="-0.95766">
        <ele>70.2</ele>
        <time>2025-08-25T09:43:04Z</time>
      </trkpt>
      <trkpt lat="46.98914" lon="-0.95765">
        <ele>70.2</ele>
        <time>2025-08-25T09:43:05Z</time>
      </trkpt>
      <trkpt lat="46.98915" lon="-0.95764">
        <ele>70.2</ele>
        <time>2025-08-25T09:43:06Z</time>
      </trkpt>
      <trkpt lat="46.98916" lon="-0.95764">
        <ele>70.2</ele>
        <time>2025-08-25T09:43:07Z</time>
      </trkpt>
      <trkpt lat="46.98917" lon="-0.95764">
        <ele>70.2</ele>
        <time>2025-08-25T09:43:08Z</time>
      </trkpt>
      <trkpt lat="46.98918" lon="-0.95763">
        <ele>70.1</ele>
        <time>2025-08-25T09:43:09Z</time>
      </trkpt>
      <trkpt lat="46.98918" lon="-0.95763">
        <ele>70.1</ele>
        <time>2025-08-25T09:43:10Z</time>
      </trkpt>
      <trkpt lat="46.98919" lon="-0.95762">
        <ele>70.1</ele>
        <time>2025-08-25T09:43:11Z</time>
      </trkpt>
      <trkpt lat="46.9892" lon="-0.95762">
        <ele>70.1</ele>
        <time>2025-08-25T09:43:12Z</time>
      </trkpt>
      <trkpt lat="46.98921" lon="-0.95761">
        <ele>70.1</ele>
        <time>2025-08-25T09:43:13Z</time>
      </trkpt>
      <trkpt lat="46.98922" lon="-0.9576">
        <ele>70.1</ele>
        <time>2025-08-25T09:43:14Z</time>
      </trkpt>
      <trkpt lat="46.98923" lon="-0.95759">
        <ele>70.1</ele>
        <time>2025-08-25T09:43:15Z</time>
      </trkpt>
      <trkpt lat="46.98924" lon="-0.95758">
        <ele>70.1</ele>
        <time>2025-08-25T09:43:16Z</time>
      </trkpt>
      <trkpt lat="46.98925" lon="-0.95757">
        <ele>70.1</ele>
        <time>2025-08-25T09:43:17Z</time>
      </trkpt>
      <trkpt lat="46.98927" lon="-0.95755">
        <ele>70.1</ele>
        <time>2025-08-25T09:43:18Z</time>
      </trkpt>
      <trkpt lat="46.98928" lon="-0.95755">
        <ele>70.1</ele>
        <time>2025-08-25T09:43:19Z</time>
      </trkpt>
      <trkpt lat="46.98928" lon="-0.95754">
        <ele>70.1</ele>
        <time>2025-08-25T09:43:20Z</time>
      </trkpt>
      <trkpt lat="46.98929" lon="-0.95753">
        <ele>70.1</ele>
        <time>2025-08-25T09:43:21Z</time>
      </trkpt>
      <trkpt lat="46.9893" lon="-0.95752">
        <ele>70.1</ele>
        <time>2025-08-25T09:43:22Z</time>
      </trkpt>
      <trkpt lat="46.98931" lon="-0.95751">
        <ele>70.1</ele>
        <time>2025-08-25T09:43:23Z</time>
      </trkpt>
      <trkpt lat="46.98932" lon="-0.95751">
        <ele>70.1</ele>
        <time>2025-08-25T09:43:24Z</time>
      </trkpt>
      <trkpt lat="46.98933" lon="-0.9575">
        <ele>70.1</ele>
        <time>2025-08-25T09:43:25Z</time>
      </trkpt>
      <trkpt lat="46.98934" lon="-0.95749">
        <ele>70.1</ele>
        <time>2025-08-25T09:43:26Z</time>
      </trkpt>
      <trkpt lat="46.98935" lon="-0.95749">
        <ele>70</ele>
        <time>2025-08-25T09:43:27Z</time>
      </trkpt>
      <trkpt lat="46.98936" lon="-0.95748">
        <ele>70</ele>
        <time>2025-08-25T09:43:28Z</time>
      </trkpt>
      <trkpt lat="46.98938" lon="-0.95747">
        <ele>70</ele>
        <time>2025-08-25T09:43:29Z</time>
      </trkpt>
      <trkpt lat="46.98939" lon="-0.95746">
        <ele>70</ele>
        <time>2025-08-25T09:43:30Z</time>
      </trkpt>
      <trkpt lat="46.9894" lon="-0.95746">
        <ele>70</ele>
        <time>2025-08-25T09:43:31Z</time>
      </trkpt>
      <trkpt lat="46.9894" lon="-0.95744">
        <ele>70</ele>
        <time>2025-08-25T09:43:32Z</time>
      </trkpt>
      <trkpt lat="46.98941" lon="-0.95743">
        <ele>70</ele>
        <time>2025-08-25T09:43:33Z</time>
      </trkpt>
      <trkpt lat="46.98941" lon="-0.95742">
        <ele>70</ele>
        <time>2025-08-25T09:43:34Z</time>
      </trkpt>
      <trkpt lat="46.98942" lon="-0.9574">
        <ele>70</ele>
        <time>2025-08-25T09:43:35Z</time>
      </trkpt>
      <trkpt lat="46.98942" lon="-0.95739">
        <ele>70</ele>
        <time>2025-08-25T09:43:36Z</time>
      </trkpt>
      <trkpt lat="46.98942" lon="-0.95738">
        <ele>70</ele>
        <time>2025-08-25T09:43:37Z</time>
      </trkpt>
      <trkpt lat="46.98943" lon="-0.95736">
        <ele>70</ele>
        <time>2025-08-25T09:43:38Z</time>
      </trkpt>
      <trkpt lat="46.98944" lon="-0.95735">
        <ele>70</ele>
        <time>2025-08-25T09:43:39Z</time>
      </trkpt>
      <trkpt lat="46.98944" lon="-0.95733">
        <ele>70</ele>
        <time>2025-08-25T09:43:40Z</time>
      </trkpt>
      <trkpt lat="46.98944" lon="-0.95732">
        <ele>70</ele>
        <time>2025-08-25T09:43:41Z</time>
      </trkpt>
      <trkpt lat="46.98944" lon="-0.9573">
        <ele>70</ele>
        <time>2025-08-25T09:43:42Z</time>
      </trkpt>
      <trkpt lat="46.98944" lon="-0.95729">
        <ele>70</ele>
        <time>2025-08-25T09:43:43Z</time>
      </trkpt>
      <trkpt lat="46.98944" lon="-0.95727">
        <ele>70</ele>
        <time>2025-08-25T09:43:44Z</time>
      </trkpt>
      <trkpt lat="46.98944" lon="-0.95726">
        <ele>70</ele>
        <time>2025-08-25T09:43:45Z</time>
      </trkpt>
      <trkpt lat="46.98944" lon="-0.95725">
        <ele>70</ele>
        <time>2025-08-25T09:43:46Z</time>
      </trkpt>
      <trkpt lat="46.98944" lon="-0.95723">
        <ele>70</ele>
        <time>2025-08-25T09:43:47Z</time>
      </trkpt>
      <trkpt lat="46.98945" lon="-0.95722">
        <ele>70</ele>
        <time>2025-08-25T09:43:48Z</time>
      </trkpt>
      <trkpt lat="46.98945" lon="-0.9572">
        <ele>70</ele>
        <time>2025-08-25T09:43:49Z</time>
      </trkpt>
      <trkpt lat="46.98946" lon="-0.95719">
        <ele>70</ele>
        <time>2025-08-25T09:43:50Z</time>
      </trkpt>
      <trkpt lat="46.98946" lon="-0.95717">
        <ele>70</ele>
        <time>2025-08-25T09:43:51Z</time>
      </trkpt>
      <trkpt lat="46.98946" lon="-0.95716">
        <ele>70</ele>
        <time>2025-08-25T09:43:52Z</time>
      </trkpt>
      <trkpt lat="46.98946" lon="-0.95715">
        <ele>70</ele>
        <time>2025-08-25T09:43:53Z</time>
      </trkpt>
      <trkpt lat="46.98947" lon="-0.95714">
        <ele>70</ele>
        <time>2025-08-25T09:43:54Z</time>
      </trkpt>
      <trkpt lat="46.98948" lon="-0.95714">
        <ele>70</ele>
        <time>2025-08-25T09:43:55Z</time>
      </trkpt>
      <trkpt lat="46.98949" lon="-0.95714">
        <ele>70</ele>
        <time>2025-08-25T09:43:56Z</time>
      </trkpt>
      <trkpt lat="46.9895" lon="-0.95713">
        <ele>70</ele>
        <time>2025-08-25T09:43:57Z</time>
      </trkpt>
      <trkpt lat="46.98951" lon="-0.95712">
        <ele>70</ele>
        <time>2025-08-25T09:43:58Z</time>
      </trkpt>
      <trkpt lat="46.98953" lon="-0.95711">
        <ele>70</ele>
        <time>2025-08-25T09:43:59Z</time>
      </trkpt>
      <trkpt lat="46.98954" lon="-0.9571">
        <ele>70</ele>
        <time>2025-08-25T09:44:00Z</time>
      </trkpt>
      <trkpt lat="46.98955" lon="-0.95708">
        <ele>70</ele>
        <time>2025-08-25T09:44:01Z</time>
      </trkpt>
      <trkpt lat="46.98956" lon="-0.95707">
        <ele>70</ele>
        <time>2025-08-25T09:44:02Z</time>
      </trkpt>
      <trkpt lat="46.98957" lon="-0.95705">
        <ele>70</ele>
        <time>2025-08-25T09:44:03Z</time>
      </trkpt>
      <trkpt lat="46.98959" lon="-0.95703">
        <ele>70</ele>
        <time>2025-08-25T09:44:04Z</time>
      </trkpt>
      <trkpt lat="46.9896" lon="-0.95702">
        <ele>70</ele>
        <time>2025-08-25T09:44:05Z</time>
      </trkpt>
      <trkpt lat="46.98961" lon="-0.95701">
        <ele>69.9</ele>
        <time>2025-08-25T09:44:06Z</time>
      </trkpt>
      <trkpt lat="46.98962" lon="-0.957">
        <ele>69.9</ele>
        <time>2025-08-25T09:44:07Z</time>
      </trkpt>
      <trkpt lat="46.98962" lon="-0.95699">
        <ele>69.9</ele>
        <time>2025-08-25T09:44:08Z</time>
      </trkpt>
      <trkpt lat="46.98963" lon="-0.95698">
        <ele>69.9</ele>
        <time>2025-08-25T09:44:09Z</time>
      </trkpt>
      <trkpt lat="46.98964" lon="-0.95697">
        <ele>69.9</ele>
        <time>2025-08-25T09:44:10Z</time>
      </trkpt>
      <trkpt lat="46.98965" lon="-0.95696">
        <ele>69.9</ele>
        <time>2025-08-25T09:44:11Z</time>
      </trkpt>
      <trkpt lat="46.98966" lon="-0.95695">
        <ele>69.9</ele>
        <time>2025-08-25T09:44:12Z</time>
      </trkpt>
      <trkpt lat="46.98967" lon="-0.95695">
        <ele>69.9</ele>
        <time>2025-08-25T09:44:13Z</time>
      </trkpt>
      <trkpt lat="46.98968" lon="-0.95694">
        <ele>69.9</ele>
        <time>2025-08-25T09:44:14Z</time>
      </trkpt>
      <trkpt lat="46.98969" lon="-0.95694">
        <ele>69.9</ele>
        <time>2025-08-25T09:44:15Z</time>
      </trkpt>
      <trkpt lat="46.9897" lon="-0.95693">
        <ele>69.9</ele>
        <time>2025-08-25T09:44:16Z</time>
      </trkpt>
      <trkpt lat="46.98971" lon="-0.95692">
        <ele>69.9</ele>
        <time>2025-08-25T09:44:17Z</time>
      </trkpt>
      <trkpt lat="46.98972" lon="-0.95691">
        <ele>69.9</ele>
        <time>2025-08-25T09:44:18Z</time>
      </trkpt>
      <trkpt lat="46.98973" lon="-0.9569">
        <ele>69.9</ele>
        <time>2025-08-25T09:44:19Z</time>
      </trkpt>
      <trkpt lat="46.98974" lon="-0.95688">
        <ele>69.8</ele>
        <time>2025-08-25T09:44:20Z</time>
      </trkpt>
      <trkpt lat="46.98975" lon="-0.95687">
        <ele>69.8</ele>
        <time>2025-08-25T09:44:21Z</time>
      </trkpt>
      <trkpt lat="46.98976" lon="-0.95686">
        <ele>69.8</ele>
        <time>2025-08-25T09:44:22Z</time>
      </trkpt>
      <trkpt lat="46.98976" lon="-0.95685">
        <ele>69.8</ele>
        <time>2025-08-25T09:44:23Z</time>
      </trkpt>
      <trkpt lat="46.98977" lon="-0.95683">
        <ele>69.8</ele>
        <time>2025-08-25T09:44:24Z</time>
      </trkpt>
      <trkpt lat="46.98978" lon="-0.95682">
        <ele>69.8</ele>
        <time>2025-08-25T09:44:25Z</time>
      </trkpt>
      <trkpt lat="46.98978" lon="-0.95681">
        <ele>69.8</ele>
        <time>2025-08-25T09:44:26Z</time>
      </trkpt>
      <trkpt lat="46.98979" lon="-0.95679">
        <ele>69.8</ele>
        <time>2025-08-25T09:44:27Z</time>
      </trkpt>
      <trkpt lat="46.98979" lon="-0.95678">
        <ele>69.8</ele>
        <time>2025-08-25T09:44:28Z</time>
      </trkpt>
      <trkpt lat="46.9898" lon="-0.95676">
        <ele>69.8</ele>
        <time>2025-08-25T09:44:29Z</time>
      </trkpt>
      <trkpt lat="46.98981" lon="-0.95675">
        <ele>69.8</ele>
        <time>2025-08-25T09:44:30Z</time>
      </trkpt>
      <trkpt lat="46.98981" lon="-0.95673">
        <ele>69.7</ele>
        <time>2025-08-25T09:44:31Z</time>
      </trkpt>
      <trkpt lat="46.98982" lon="-0.95672">
        <ele>69.7</ele>
        <time>2025-08-25T09:44:32Z</time>
      </trkpt>
      <trkpt lat="46.98983" lon="-0.95671">
        <ele>69.7</ele>
        <time>2025-08-25T09:44:33Z</time>
      </trkpt>
      <trkpt lat="46.98983" lon="-0.9567">
        <ele>69.7</ele>
        <time>2025-08-25T09:44:34Z</time>
      </trkpt>
      <trkpt lat="46.98984" lon="-0.95668">
        <ele>69.7</ele>
        <time>2025-08-25T09:44:35Z</time>
      </trkpt>
      <trkpt lat="46.98984" lon="-0.95667">
        <ele>69.7</ele>
        <time>2025-08-25T09:44:36Z</time>
      </trkpt>
      <trkpt lat="46.98985" lon="-0.95665">
        <ele>69.7</ele>
        <time>2025-08-25T09:44:37Z</time>
      </trkpt>
      <trkpt lat="46.98985" lon="-0.95664">
        <ele>69.7</ele>
        <time>2025-08-25T09:44:38Z</time>
      </trkpt>
      <trkpt lat="46.98985" lon="-0.95662">
        <ele>69.7</ele>
        <time>2025-08-25T09:44:39Z</time>
      </trkpt>
      <trkpt lat="46.98985" lon="-0.95661">
        <ele>69.7</ele>
        <time>2025-08-25T09:44:40Z</time>
      </trkpt>
      <trkpt lat="46.98986" lon="-0.95659">
        <ele>69.7</ele>
        <time>2025-08-25T09:44:41Z</time>
      </trkpt>
      <trkpt lat="46.98986" lon="-0.95658">
        <ele>69.7</ele>
        <time>2025-08-25T09:44:42Z</time>
      </trkpt>
      <trkpt lat="46.98986" lon="-0.95656">
        <ele>69.6</ele>
        <time>2025-08-25T09:44:43Z</time>
      </trkpt>
      <trkpt lat="46.98986" lon="-0.95655">
        <ele>69.6</ele>
        <time>2025-08-25T09:44:44Z</time>
      </trkpt>
      <trkpt lat="46.98986" lon="-0.95653">
        <ele>69.6</ele>
        <time>2025-08-25T09:44:45Z</time>
      </trkpt>
      <trkpt lat="46.98987" lon="-0.95652">
        <ele>69.6</ele>
        <time>2025-08-25T09:44:46Z</time>
      </trkpt>
      <trkpt lat="46.98988" lon="-0.95651">
        <ele>69.6</ele>
        <time>2025-08-25T09:44:47Z</time>
      </trkpt>
      <trkpt lat="46.98988" lon="-0.9565">
        <ele>69.6</ele>
        <time>2025-08-25T09:44:48Z</time>
      </trkpt>
      <trkpt lat="46.98989" lon="-0.95649">
        <ele>69.6</ele>
        <time>2025-08-25T09:44:49Z</time>
      </trkpt>
      <trkpt lat="46.9899" lon="-0.95649">
        <ele>69.6</ele>
        <time>2025-08-25T09:44:50Z</time>
      </trkpt>
      <trkpt lat="46.98991" lon="-0.95649">
        <ele>69.6</ele>
        <time>2025-08-25T09:44:51Z</time>
      </trkpt>
      <trkpt lat="46.98994" lon="-0.95649">
        <ele>69.6</ele>
        <time>2025-08-25T09:44:52Z</time>
      </trkpt>
      <trkpt lat="46.98994" lon="-0.95649">
        <ele>69.6</ele>
        <time>2025-08-25T09:44:53Z</time>
      </trkpt>
      <trkpt lat="46.98995" lon="-0.95649">
        <ele>69.6</ele>
        <time>2025-08-25T09:44:54Z</time>
      </trkpt>
      <trkpt lat="46.98997" lon="-0.95649">
        <ele>69.5</ele>
        <time>2025-08-25T09:44:55Z</time>
      </trkpt>
      <trkpt lat="46.98998" lon="-0.95649">
        <ele>69.5</ele>
        <time>2025-08-25T09:44:56Z</time>
      </trkpt>
      <trkpt lat="46.98999" lon="-0.95648">
        <ele>69.5</ele>
        <time>2025-08-25T09:44:57Z</time>
      </trkpt>
      <trkpt lat="46.99001" lon="-0.95647">
        <ele>69.5</ele>
        <time>2025-08-25T09:44:58Z</time>
      </trkpt>
      <trkpt lat="46.99001" lon="-0.95646">
        <ele>69.5</ele>
        <time>2025-08-25T09:44:59Z</time>
      </trkpt>
      <trkpt lat="46.99002" lon="-0.95645">
        <ele>69.5</ele>
        <time>2025-08-25T09:45:00Z</time>
      </trkpt>
      <trkpt lat="46.99004" lon="-0.95643">
        <ele>69.5</ele>
        <time>2025-08-25T09:45:01Z</time>
      </trkpt>
      <trkpt lat="46.99004" lon="-0.95642">
        <ele>69.5</ele>
        <time>2025-08-25T09:45:02Z</time>
      </trkpt>
      <trkpt lat="46.99005" lon="-0.95642">
        <ele>69.5</ele>
        <time>2025-08-25T09:45:03Z</time>
      </trkpt>
      <trkpt lat="46.99006" lon="-0.95639">
        <ele>69.5</ele>
        <time>2025-08-25T09:45:04Z</time>
      </trkpt>
      <trkpt lat="46.99007" lon="-0.95638">
        <ele>69.5</ele>
        <time>2025-08-25T09:45:05Z</time>
      </trkpt>
      <trkpt lat="46.99007" lon="-0.95638">
        <ele>69.5</ele>
        <time>2025-08-25T09:45:06Z</time>
      </trkpt>
      <trkpt lat="46.99009" lon="-0.95635">
        <ele>69.5</ele>
        <time>2025-08-25T09:45:07Z</time>
      </trkpt>
      <trkpt lat="46.99009" lon="-0.95634">
        <ele>69.5</ele>
        <time>2025-08-25T09:45:08Z</time>
      </trkpt>
      <trkpt lat="46.9901" lon="-0.95633">
        <ele>69.5</ele>
        <time>2025-08-25T09:45:09Z</time>
      </trkpt>
      <trkpt lat="46.99012" lon="-0.95631">
        <ele>69.5</ele>
        <time>2025-08-25T09:45:10Z</time>
      </trkpt>
      <trkpt lat="46.99012" lon="-0.95631">
        <ele>69.5</ele>
        <time>2025-08-25T09:45:11Z</time>
      </trkpt>
      <trkpt lat="46.99013" lon="-0.9563">
        <ele>69.5</ele>
        <time>2025-08-25T09:45:12Z</time>
      </trkpt>
      <trkpt lat="46.99014" lon="-0.9563">
        <ele>69.5</ele>
        <time>2025-08-25T09:45:13Z</time>
      </trkpt>
      <trkpt lat="46.99015" lon="-0.95629">
        <ele>69.5</ele>
        <time>2025-08-25T09:45:14Z</time>
      </trkpt>
      <trkpt lat="46.99016" lon="-0.95628">
        <ele>69.5</ele>
        <time>2025-08-25T09:45:15Z</time>
      </trkpt>
      <trkpt lat="46.99018" lon="-0.95627">
        <ele>69.5</ele>
        <time>2025-08-25T09:45:16Z</time>
      </trkpt>
      <trkpt lat="46.99019" lon="-0.95627">
        <ele>69.5</ele>
        <time>2025-08-25T09:45:17Z</time>
      </trkpt>
      <trkpt lat="46.99019" lon="-0.95626">
        <ele>69.5</ele>
        <time>2025-08-25T09:45:18Z</time>
      </trkpt>
      <trkpt lat="46.99021" lon="-0.95625">
        <ele>69.5</ele>
        <time>2025-08-25T09:45:19Z</time>
      </trkpt>
      <trkpt lat="46.99022" lon="-0.95624">
        <ele>69.5</ele>
        <time>2025-08-25T09:45:20Z</time>
      </trkpt>
      <trkpt lat="46.99023" lon="-0.95624">
        <ele>69.5</ele>
        <time>2025-08-25T09:45:21Z</time>
      </trkpt>
      <trkpt lat="46.99024" lon="-0.95623">
        <ele>69.5</ele>
        <time>2025-08-25T09:45:22Z</time>
      </trkpt>
      <trkpt lat="46.99024" lon="-0.95621">
        <ele>69.5</ele>
        <time>2025-08-25T09:45:23Z</time>
      </trkpt>
      <trkpt lat="46.99024" lon="-0.95621">
        <ele>69.5</ele>
        <time>2025-08-25T09:45:24Z</time>
      </trkpt>
      <trkpt lat="46.99024" lon="-0.95619">
        <ele>69.5</ele>
        <time>2025-08-25T09:45:25Z</time>
      </trkpt>
      <trkpt lat="46.99024" lon="-0.9562">
        <ele>69.5</ele>
        <time>2025-08-25T09:45:26Z</time>
      </trkpt>
      <trkpt lat="46.99025" lon="-0.95621">
        <ele>69.5</ele>
        <time>2025-08-25T09:45:27Z</time>
      </trkpt>
      <trkpt lat="46.99025" lon="-0.95622">
        <ele>69.5</ele>
        <time>2025-08-25T09:45:28Z</time>
      </trkpt>
      <trkpt lat="46.99025" lon="-0.95622">
        <ele>69.5</ele>
        <time>2025-08-25T09:45:29Z</time>
      </trkpt>
      <trkpt lat="46.99025" lon="-0.95623">
        <ele>69.5</ele>
        <time>2025-08-25T09:45:30Z</time>
      </trkpt>
      <trkpt lat="46.99024" lon="-0.95623">
        <ele>69.5</ele>
        <time>2025-08-25T09:45:31Z</time>
      </trkpt>
      <trkpt lat="46.99024" lon="-0.95623">
        <ele>69.5</ele>
        <time>2025-08-25T09:45:32Z</time>
      </trkpt>
      <trkpt lat="46.99024" lon="-0.95623">
        <ele>69.5</ele>
        <time>2025-08-25T09:45:33Z</time>
      </trkpt>
      <trkpt lat="46.99024" lon="-0.95623">
        <ele>69.5</ele>
        <time>2025-08-25T09:45:34Z</time>
      </trkpt>
      <trkpt lat="46.99024" lon="-0.95624">
        <ele>69.5</ele>
        <time>2025-08-25T09:45:35Z</time>
      </trkpt>
      <trkpt lat="46.99025" lon="-0.95623">
        <ele>69.5</ele>
        <time>2025-08-25T09:45:36Z</time>
      </trkpt>
      <trkpt lat="46.99026" lon="-0.95623">
        <ele>69.5</ele>
        <time>2025-08-25T09:45:37Z</time>
      </trkpt>
      <trkpt lat="46.99027" lon="-0.95623">
        <ele>69.5</ele>
        <time>2025-08-25T09:45:38Z</time>
      </trkpt>
      <trkpt lat="46.99027" lon="-0.95623">
        <ele>69.5</ele>
        <time>2025-08-25T09:45:39Z</time>
      </trkpt>
      <trkpt lat="46.99028" lon="-0.95623">
        <ele>69.5</ele>
        <time>2025-08-25T09:45:40Z</time>
      </trkpt>
      <trkpt lat="46.99029" lon="-0.95622">
        <ele>69.5</ele>
        <time>2025-08-25T09:45:41Z</time>
      </trkpt>
      <trkpt lat="46.9903" lon="-0.95622">
        <ele>69.5</ele>
        <time>2025-08-25T09:45:42Z</time>
      </trkpt>
      <trkpt lat="46.99031" lon="-0.95622">
        <ele>69.5</ele>
        <time>2025-08-25T09:45:43Z</time>
      </trkpt>
      <trkpt lat="46.99031" lon="-0.95622">
        <ele>69.5</ele>
        <time>2025-08-25T09:45:44Z</time>
      </trkpt>
      <trkpt lat="46.99032" lon="-0.95622">
        <ele>69.5</ele>
        <time>2025-08-25T09:45:45Z</time>
      </trkpt>
      <trkpt lat="46.99033" lon="-0.95622">
        <ele>69.5</ele>
        <time>2025-08-25T09:45:46Z</time>
      </trkpt>
      <trkpt lat="46.99033" lon="-0.95621">
        <ele>69.5</ele>
        <time>2025-08-25T09:45:47Z</time>
      </trkpt>
      <trkpt lat="46.99034" lon="-0.9562">
        <ele>69.5</ele>
        <time>2025-08-25T09:45:48Z</time>
      </trkpt>
      <trkpt lat="46.99034" lon="-0.9562">
        <ele>69.5</ele>
        <time>2025-08-25T09:45:49Z</time>
      </trkpt>
      <trkpt lat="46.99035" lon="-0.95618">
        <ele>69.5</ele>
        <time>2025-08-25T09:45:50Z</time>
      </trkpt>
      <trkpt lat="46.99035" lon="-0.95618">
        <ele>69.5</ele>
        <time>2025-08-25T09:45:51Z</time>
      </trkpt>
      <trkpt lat="46.99036" lon="-0.95617">
        <ele>69.5</ele>
        <time>2025-08-25T09:45:52Z</time>
      </trkpt>
      <trkpt lat="46.99037" lon="-0.95617">
        <ele>69.5</ele>
        <time>2025-08-25T09:45:53Z</time>
      </trkpt>
      <trkpt lat="46.99038" lon="-0.95616">
        <ele>69.5</ele>
        <time>2025-08-25T09:45:54Z</time>
      </trkpt>
      <trkpt lat="46.99038" lon="-0.95615">
        <ele>69.5</ele>
        <time>2025-08-25T09:45:55Z</time>
      </trkpt>
      <trkpt lat="46.99039" lon="-0.95615">
        <ele>69.5</ele>
        <time>2025-08-25T09:45:56Z</time>
      </trkpt>
      <trkpt lat="46.99039" lon="-0.95614">
        <ele>69.5</ele>
        <time>2025-08-25T09:45:57Z</time>
      </trkpt>
      <trkpt lat="46.9904" lon="-0.95613">
        <ele>69.5</ele>
        <time>2025-08-25T09:45:58Z</time>
      </trkpt>
      <trkpt lat="46.99041" lon="-0.95612">
        <ele>69.5</ele>
        <time>2025-08-25T09:45:59Z</time>
      </trkpt>
      <trkpt lat="46.99041" lon="-0.95612">
        <ele>69.5</ele>
        <time>2025-08-25T09:46:00Z</time>
      </trkpt>
      <trkpt lat="46.99041" lon="-0.95611">
        <ele>69.5</ele>
        <time>2025-08-25T09:46:01Z</time>
      </trkpt>
      <trkpt lat="46.99042" lon="-0.95611">
        <ele>69.5</ele>
        <time>2025-08-25T09:46:02Z</time>
      </trkpt>
      <trkpt lat="46.99042" lon="-0.95611">
        <ele>69.5</ele>
        <time>2025-08-25T09:46:03Z</time>
      </trkpt>
      <trkpt lat="46.99043" lon="-0.95611">
        <ele>69.5</ele>
        <time>2025-08-25T09:46:04Z</time>
      </trkpt>
      <trkpt lat="46.99044" lon="-0.95611">
        <ele>69.5</ele>
        <time>2025-08-25T09:46:05Z</time>
      </trkpt>
      <trkpt lat="46.99045" lon="-0.95611">
        <ele>69.5</ele>
        <time>2025-08-25T09:46:06Z</time>
      </trkpt>
      <trkpt lat="46.99046" lon="-0.95611">
        <ele>69.5</ele>
        <time>2025-08-25T09:46:07Z</time>
      </trkpt>
      <trkpt lat="46.99047" lon="-0.9561">
        <ele>69.5</ele>
        <time>2025-08-25T09:46:08Z</time>
      </trkpt>
      <trkpt lat="46.99048" lon="-0.95609">
        <ele>69.5</ele>
        <time>2025-08-25T09:46:09Z</time>
      </trkpt>
      <trkpt lat="46.99048" lon="-0.95609">
        <ele>69.5</ele>
        <time>2025-08-25T09:46:10Z</time>
      </trkpt>
      <trkpt lat="46.99048" lon="-0.95609">
        <ele>69.5</ele>
        <time>2025-08-25T09:46:11Z</time>
      </trkpt>
      <trkpt lat="46.99047" lon="-0.95609">
        <ele>69.5</ele>
        <time>2025-08-25T09:46:12Z</time>
      </trkpt>
      <trkpt lat="46.99047" lon="-0.95609">
        <ele>69.5</ele>
        <time>2025-08-25T09:46:13Z</time>
      </trkpt>
      <trkpt lat="46.99047" lon="-0.9561">
        <ele>69.5</ele>
        <time>2025-08-25T09:46:14Z</time>
      </trkpt>
      <trkpt lat="46.99047" lon="-0.9561">
        <ele>69.5</ele>
        <time>2025-08-25T09:46:15Z</time>
      </trkpt>
      <trkpt lat="46.99047" lon="-0.9561">
        <ele>69.5</ele>
        <time>2025-08-25T09:46:16Z</time>
      </trkpt>
      <trkpt lat="46.99047" lon="-0.9561">
        <ele>69.5</ele>
        <time>2025-08-25T09:46:17Z</time>
      </trkpt>
      <trkpt lat="46.99047" lon="-0.9561">
        <ele>69.5</ele>
        <time>2025-08-25T09:46:18Z</time>
      </trkpt>
      <trkpt lat="46.99047" lon="-0.9561">
        <ele>69.5</ele>
        <time>2025-08-25T09:46:19Z</time>
      </trkpt>
      <trkpt lat="46.99047" lon="-0.9561">
        <ele>69.5</ele>
        <time>2025-08-25T09:46:20Z</time>
      </trkpt>
      <trkpt lat="46.99047" lon="-0.9561">
        <ele>69.5</ele>
        <time>2025-08-25T09:46:21Z</time>
      </trkpt>
      <trkpt lat="46.99047" lon="-0.9561">
        <ele>69.5</ele>
        <time>2025-08-25T09:46:22Z</time>
      </trkpt>
      <trkpt lat="46.99047" lon="-0.9561">
        <ele>69.5</ele>
        <time>2025-08-25T09:46:23Z</time>
      </trkpt>
      <trkpt lat="46.99046" lon="-0.9561">
        <ele>69.5</ele>
        <time>2025-08-25T09:46:24Z</time>
      </trkpt>
      <trkpt lat="46.99045" lon="-0.9561">
        <ele>69.5</ele>
        <time>2025-08-25T09:46:25Z</time>
      </trkpt>
      <trkpt lat="46.99044" lon="-0.9561">
        <ele>69.5</ele>
        <time>2025-08-25T09:46:26Z</time>
      </trkpt>
      <trkpt lat="46.99045" lon="-0.95611">
        <ele>69.5</ele>
        <time>2025-08-25T09:46:27Z</time>
      </trkpt>
      <trkpt lat="46.99046" lon="-0.95611">
        <ele>69.6</ele>
        <time>2025-08-25T09:46:28Z</time>
      </trkpt>
      <trkpt lat="46.99046" lon="-0.9561">
        <ele>69.6</ele>
        <time>2025-08-25T09:46:29Z</time>
      </trkpt>
      <trkpt lat="46.99046" lon="-0.9561">
        <ele>69.6</ele>
        <time>2025-08-25T09:46:30Z</time>
      </trkpt>
      <trkpt lat="46.99045" lon="-0.95609">
        <ele>69.6</ele>
        <time>2025-08-25T09:46:31Z</time>
      </trkpt>
      <trkpt lat="46.99045" lon="-0.95608">
        <ele>69.6</ele>
        <time>2025-08-25T09:46:32Z</time>
      </trkpt>
      <trkpt lat="46.99045" lon="-0.95608">
        <ele>69.6</ele>
        <time>2025-08-25T09:46:33Z</time>
      </trkpt>
      <trkpt lat="46.99044" lon="-0.95607">
        <ele>69.6</ele>
        <time>2025-08-25T09:46:34Z</time>
      </trkpt>
      <trkpt lat="46.99044" lon="-0.95607">
        <ele>69.6</ele>
        <time>2025-08-25T09:46:35Z</time>
      </trkpt>
      <trkpt lat="46.99044" lon="-0.95606">
        <ele>69.6</ele>
        <time>2025-08-25T09:46:36Z</time>
      </trkpt>
      <trkpt lat="46.99043" lon="-0.95606">
        <ele>69.6</ele>
        <time>2025-08-25T09:46:37Z</time>
      </trkpt>
      <trkpt lat="46.99043" lon="-0.95606">
        <ele>69.6</ele>
        <time>2025-08-25T09:46:38Z</time>
      </trkpt>
      <trkpt lat="46.99043" lon="-0.95606">
        <ele>69.6</ele>
        <time>2025-08-25T09:46:39Z</time>
      </trkpt>
      <trkpt lat="46.99043" lon="-0.95605">
        <ele>69.6</ele>
        <time>2025-08-25T09:46:40Z</time>
      </trkpt>
      <trkpt lat="46.99043" lon="-0.95605">
        <ele>69.6</ele>
        <time>2025-08-25T09:46:41Z</time>
      </trkpt>
      <trkpt lat="46.99043" lon="-0.95605">
        <ele>69.6</ele>
        <time>2025-08-25T09:46:42Z</time>
      </trkpt>
      <trkpt lat="46.99043" lon="-0.95605">
        <ele>69.6</ele>
        <time>2025-08-25T09:46:43Z</time>
      </trkpt>
      <trkpt lat="46.99043" lon="-0.95605">
        <ele>69.6</ele>
        <time>2025-08-25T09:46:44Z</time>
      </trkpt>
      <trkpt lat="46.99043" lon="-0.95605">
        <ele>69.6</ele>
        <time>2025-08-25T09:46:45Z</time>
      </trkpt>
      <trkpt lat="46.99043" lon="-0.95605">
        <ele>69.6</ele>
        <time>2025-08-25T09:46:46Z</time>
      </trkpt>
      <trkpt lat="46.99043" lon="-0.95605">
        <ele>69.6</ele>
        <time>2025-08-25T09:46:47Z</time>
      </trkpt>
      <trkpt lat="46.99043" lon="-0.95605">
        <ele>69.6</ele>
        <time>2025-08-25T09:46:48Z</time>
      </trkpt>
      <trkpt lat="46.99044" lon="-0.95605">
        <ele>69.6</ele>
        <time>2025-08-25T09:46:49Z</time>
      </trkpt>
      <trkpt lat="46.99044" lon="-0.95605">
        <ele>69.6</ele>
        <time>2025-08-25T09:46:50Z</time>
      </trkpt>
      <trkpt lat="46.99044" lon="-0.95606">
        <ele>69.6</ele>
        <time>2025-08-25T09:46:51Z</time>
      </trkpt>
      <trkpt lat="46.99044" lon="-0.95605">
        <ele>69.6</ele>
        <time>2025-08-25T09:46:52Z</time>
      </trkpt>
      <trkpt lat="46.99044" lon="-0.95605">
        <ele>69.6</ele>
        <time>2025-08-25T09:46:53Z</time>
      </trkpt>
      <trkpt lat="46.99044" lon="-0.95605">
        <ele>69.6</ele>
        <time>2025-08-25T09:46:54Z</time>
      </trkpt>
      <trkpt lat="46.99044" lon="-0.95605">
        <ele>69.6</ele>
        <time>2025-08-25T09:46:55Z</time>
      </trkpt>
      <trkpt lat="46.99044" lon="-0.95605">
        <ele>69.6</ele>
        <time>2025-08-25T09:46:56Z</time>
      </trkpt>
      <trkpt lat="46.99044" lon="-0.95605">
        <ele>69.6</ele>
        <time>2025-08-25T09:46:57Z</time>
      </trkpt>
      <trkpt lat="46.99045" lon="-0.95605">
        <ele>69.6</ele>
        <time>2025-08-25T09:46:58Z</time>
      </trkpt>
      <trkpt lat="46.99046" lon="-0.95606">
        <ele>69.6</ele>
        <time>2025-08-25T09:46:59Z</time>
      </trkpt>
      <trkpt lat="46.99047" lon="-0.95606">
        <ele>69.6</ele>
        <time>2025-08-25T09:47:00Z</time>
      </trkpt>
      <trkpt lat="46.99049" lon="-0.95607">
        <ele>69.6</ele>
        <time>2025-08-25T09:47:01Z</time>
      </trkpt>
      <trkpt lat="46.9905" lon="-0.95607">
        <ele>69.5</ele>
        <time>2025-08-25T09:47:02Z</time>
      </trkpt>
      <trkpt lat="46.99051" lon="-0.95608">
        <ele>69.5</ele>
        <time>2025-08-25T09:47:03Z</time>
      </trkpt>
      <trkpt lat="46.99053" lon="-0.95608">
        <ele>69.5</ele>
        <time>2025-08-25T09:47:04Z</time>
      </trkpt>
      <trkpt lat="46.99054" lon="-0.95609">
        <ele>69.5</ele>
        <time>2025-08-25T09:47:05Z</time>
      </trkpt>
      <trkpt lat="46.99055" lon="-0.95609">
        <ele>69.5</ele>
        <time>2025-08-25T09:47:06Z</time>
      </trkpt>
      <trkpt lat="46.99056" lon="-0.95609">
        <ele>69.5</ele>
        <time>2025-08-25T09:47:07Z</time>
      </trkpt>
      <trkpt lat="46.99058" lon="-0.9561">
        <ele>69.5</ele>
        <time>2025-08-25T09:47:08Z</time>
      </trkpt>
      <trkpt lat="46.99061" lon="-0.95611">
        <ele>69.5</ele>
        <time>2025-08-25T09:47:09Z</time>
      </trkpt>
      <trkpt lat="46.99062" lon="-0.95612">
        <ele>69.5</ele>
        <time>2025-08-25T09:47:10Z</time>
      </trkpt>
      <trkpt lat="46.99065" lon="-0.95613">
        <ele>69.5</ele>
        <time>2025-08-25T09:47:11Z</time>
      </trkpt>
      <trkpt lat="46.99066" lon="-0.95613">
        <ele>69.5</ele>
        <time>2025-08-25T09:47:12Z</time>
      </trkpt>
      <trkpt lat="46.99067" lon="-0.95613">
        <ele>69.5</ele>
        <time>2025-08-25T09:47:13Z</time>
      </trkpt>
      <trkpt lat="46.99069" lon="-0.95614">
        <ele>69.5</ele>
        <time>2025-08-25T09:47:14Z</time>
      </trkpt>
      <trkpt lat="46.9907" lon="-0.95614">
        <ele>69.5</ele>
        <time>2025-08-25T09:47:15Z</time>
      </trkpt>
      <trkpt lat="46.99072" lon="-0.95615">
        <ele>69.5</ele>
        <time>2025-08-25T09:47:16Z</time>
      </trkpt>
      <trkpt lat="46.99073" lon="-0.95615">
        <ele>69.4</ele>
        <time>2025-08-25T09:47:17Z</time>
      </trkpt>
      <trkpt lat="46.99074" lon="-0.95615">
        <ele>69.4</ele>
        <time>2025-08-25T09:47:18Z</time>
      </trkpt>
      <trkpt lat="46.99075" lon="-0.95616">
        <ele>69.4</ele>
        <time>2025-08-25T09:47:19Z</time>
      </trkpt>
      <trkpt lat="46.99076" lon="-0.95616">
        <ele>69.4</ele>
        <time>2025-08-25T09:47:20Z</time>
      </trkpt>
      <trkpt lat="46.99077" lon="-0.95616">
        <ele>69.4</ele>
        <time>2025-08-25T09:47:21Z</time>
      </trkpt>
      <trkpt lat="46.99078" lon="-0.95617">
        <ele>69.4</ele>
        <time>2025-08-25T09:47:22Z</time>
      </trkpt>
      <trkpt lat="46.9908" lon="-0.95617">
        <ele>69.4</ele>
        <time>2025-08-25T09:47:23Z</time>
      </trkpt>
      <trkpt lat="46.99082" lon="-0.95618">
        <ele>69.4</ele>
        <time>2025-08-25T09:47:24Z</time>
      </trkpt>
      <trkpt lat="46.99084" lon="-0.95619">
        <ele>69.4</ele>
        <time>2025-08-25T09:47:25Z</time>
      </trkpt>
      <trkpt lat="46.99085" lon="-0.9562">
        <ele>69.4</ele>
        <time>2025-08-25T09:47:26Z</time>
      </trkpt>
      <trkpt lat="46.99086" lon="-0.9562">
        <ele>69.4</ele>
        <time>2025-08-25T09:47:27Z</time>
      </trkpt>
      <trkpt lat="46.99087" lon="-0.95621">
        <ele>69.4</ele>
        <time>2025-08-25T09:47:28Z</time>
      </trkpt>
      <trkpt lat="46.99088" lon="-0.95622">
        <ele>69.4</ele>
        <time>2025-08-25T09:47:29Z</time>
      </trkpt>
      <trkpt lat="46.99089" lon="-0.95623">
        <ele>69.4</ele>
        <time>2025-08-25T09:47:30Z</time>
      </trkpt>
      <trkpt lat="46.9909" lon="-0.95624">
        <ele>69.4</ele>
        <time>2025-08-25T09:47:31Z</time>
      </trkpt>
      <trkpt lat="46.99091" lon="-0.95624">
        <ele>69.4</ele>
        <time>2025-08-25T09:47:32Z</time>
      </trkpt>
      <trkpt lat="46.99092" lon="-0.95625">
        <ele>69.4</ele>
        <time>2025-08-25T09:47:33Z</time>
      </trkpt>
      <trkpt lat="46.99093" lon="-0.95625">
        <ele>69.4</ele>
        <time>2025-08-25T09:47:34Z</time>
      </trkpt>
      <trkpt lat="46.99094" lon="-0.95626">
        <ele>69.4</ele>
        <time>2025-08-25T09:47:35Z</time>
      </trkpt>
      <trkpt lat="46.99095" lon="-0.95627">
        <ele>69.4</ele>
        <time>2025-08-25T09:47:36Z</time>
      </trkpt>
      <trkpt lat="46.99096" lon="-0.95628">
        <ele>69.4</ele>
        <time>2025-08-25T09:47:37Z</time>
      </trkpt>
      <trkpt lat="46.99097" lon="-0.95628">
        <ele>69.4</ele>
        <time>2025-08-25T09:47:38Z</time>
      </trkpt>
      <trkpt lat="46.99098" lon="-0.95629">
        <ele>69.4</ele>
        <time>2025-08-25T09:47:39Z</time>
      </trkpt>
      <trkpt lat="46.99098" lon="-0.9563">
        <ele>69.4</ele>
        <time>2025-08-25T09:47:40Z</time>
      </trkpt>
      <trkpt lat="46.99099" lon="-0.95631">
        <ele>69.4</ele>
        <time>2025-08-25T09:47:41Z</time>
      </trkpt>
      <trkpt lat="46.99101" lon="-0.95632">
        <ele>69.4</ele>
        <time>2025-08-25T09:47:42Z</time>
      </trkpt>
      <trkpt lat="46.99102" lon="-0.95632">
        <ele>69.4</ele>
        <time>2025-08-25T09:47:43Z</time>
      </trkpt>
      <trkpt lat="46.99103" lon="-0.95632">
        <ele>69.4</ele>
        <time>2025-08-25T09:47:44Z</time>
      </trkpt>
      <trkpt lat="46.99104" lon="-0.95633">
        <ele>69.4</ele>
        <time>2025-08-25T09:47:45Z</time>
      </trkpt>
      <trkpt lat="46.99105" lon="-0.95633">
        <ele>69.4</ele>
        <time>2025-08-25T09:47:46Z</time>
      </trkpt>
      <trkpt lat="46.99106" lon="-0.95634">
        <ele>69.4</ele>
        <time>2025-08-25T09:47:47Z</time>
      </trkpt>
      <trkpt lat="46.99107" lon="-0.95634">
        <ele>69.4</ele>
        <time>2025-08-25T09:47:48Z</time>
      </trkpt>
      <trkpt lat="46.99108" lon="-0.95634">
        <ele>69.4</ele>
        <time>2025-08-25T09:47:49Z</time>
      </trkpt>
      <trkpt lat="46.99109" lon="-0.95634">
        <ele>69.4</ele>
        <time>2025-08-25T09:47:50Z</time>
      </trkpt>
      <trkpt lat="46.9911" lon="-0.95635">
        <ele>69.4</ele>
        <time>2025-08-25T09:47:51Z</time>
      </trkpt>
      <trkpt lat="46.99111" lon="-0.95635">
        <ele>69.4</ele>
        <time>2025-08-25T09:47:52Z</time>
      </trkpt>
      <trkpt lat="46.99112" lon="-0.95635">
        <ele>69.4</ele>
        <time>2025-08-25T09:47:53Z</time>
      </trkpt>
      <trkpt lat="46.99113" lon="-0.95635">
        <ele>69.4</ele>
        <time>2025-08-25T09:47:54Z</time>
      </trkpt>
      <trkpt lat="46.99113" lon="-0.95635">
        <ele>69.4</ele>
        <time>2025-08-25T09:47:55Z</time>
      </trkpt>
      <trkpt lat="46.99114" lon="-0.95636">
        <ele>69.4</ele>
        <time>2025-08-25T09:47:56Z</time>
      </trkpt>
      <trkpt lat="46.99116" lon="-0.95636">
        <ele>69.4</ele>
        <time>2025-08-25T09:47:57Z</time>
      </trkpt>
      <trkpt lat="46.99117" lon="-0.95637">
        <ele>69.4</ele>
        <time>2025-08-25T09:47:58Z</time>
      </trkpt>
      <trkpt lat="46.99119" lon="-0.95637">
        <ele>69.4</ele>
        <time>2025-08-25T09:47:59Z</time>
      </trkpt>
      <trkpt lat="46.9912" lon="-0.95638">
        <ele>69.4</ele>
        <time>2025-08-25T09:48:00Z</time>
      </trkpt>
      <trkpt lat="46.99121" lon="-0.95638">
        <ele>69.5</ele>
        <time>2025-08-25T09:48:01Z</time>
      </trkpt>
      <trkpt lat="46.99122" lon="-0.95638">
        <ele>69.5</ele>
        <time>2025-08-25T09:48:02Z</time>
      </trkpt>
      <trkpt lat="46.99123" lon="-0.95639">
        <ele>69.5</ele>
        <time>2025-08-25T09:48:03Z</time>
      </trkpt>
      <trkpt lat="46.99123" lon="-0.95639">
        <ele>69.5</ele>
        <time>2025-08-25T09:48:04Z</time>
      </trkpt>
      <trkpt lat="46.99124" lon="-0.95639">
        <ele>69.5</ele>
        <time>2025-08-25T09:48:05Z</time>
      </trkpt>
      <trkpt lat="46.99125" lon="-0.9564">
        <ele>69.5</ele>
        <time>2025-08-25T09:48:06Z</time>
      </trkpt>
      <trkpt lat="46.99126" lon="-0.9564">
        <ele>69.5</ele>
        <time>2025-08-25T09:48:07Z</time>
      </trkpt>
      <trkpt lat="46.99127" lon="-0.95641">
        <ele>69.5</ele>
        <time>2025-08-25T09:48:08Z</time>
      </trkpt>
      <trkpt lat="46.99127" lon="-0.95642">
        <ele>69.5</ele>
        <time>2025-08-25T09:48:09Z</time>
      </trkpt>
      <trkpt lat="46.99128" lon="-0.95643">
        <ele>69.5</ele>
        <time>2025-08-25T09:48:10Z</time>
      </trkpt>
      <trkpt lat="46.99128" lon="-0.95643">
        <ele>69.5</ele>
        <time>2025-08-25T09:48:11Z</time>
      </trkpt>
      <trkpt lat="46.99128" lon="-0.95643">
        <ele>69.5</ele>
        <time>2025-08-25T09:48:12Z</time>
      </trkpt>
      <trkpt lat="46.99128" lon="-0.95643">
        <ele>69.5</ele>
        <time>2025-08-25T09:48:13Z</time>
      </trkpt>
      <trkpt lat="46.99127" lon="-0.95644">
        <ele>69.5</ele>
        <time>2025-08-25T09:48:14Z</time>
      </trkpt>
      <trkpt lat="46.99128" lon="-0.95644">
        <ele>69.5</ele>
        <time>2025-08-25T09:48:15Z</time>
      </trkpt>
      <trkpt lat="46.99129" lon="-0.95645">
        <ele>69.5</ele>
        <time>2025-08-25T09:48:16Z</time>
      </trkpt>
      <trkpt lat="46.9913" lon="-0.95647">
        <ele>69.5</ele>
        <time>2025-08-25T09:48:17Z</time>
      </trkpt>
      <trkpt lat="46.9913" lon="-0.95647">
        <ele>69.5</ele>
        <time>2025-08-25T09:48:18Z</time>
      </trkpt>
      <trkpt lat="46.99131" lon="-0.95648">
        <ele>69.5</ele>
        <time>2025-08-25T09:48:19Z</time>
      </trkpt>
      <trkpt lat="46.99131" lon="-0.95649">
        <ele>69.5</ele>
        <time>2025-08-25T09:48:20Z</time>
      </trkpt>
      <trkpt lat="46.99133" lon="-0.9565">
        <ele>69.5</ele>
        <time>2025-08-25T09:48:21Z</time>
      </trkpt>
      <trkpt lat="46.99134" lon="-0.95651">
        <ele>69.6</ele>
        <time>2025-08-25T09:48:22Z</time>
      </trkpt>
      <trkpt lat="46.99136" lon="-0.95654">
        <ele>69.6</ele>
        <time>2025-08-25T09:48:23Z</time>
      </trkpt>
      <trkpt lat="46.99137" lon="-0.95654">
        <ele>69.6</ele>
        <time>2025-08-25T09:48:24Z</time>
      </trkpt>
      <trkpt lat="46.99139" lon="-0.95656">
        <ele>69.6</ele>
        <time>2025-08-25T09:48:25Z</time>
      </trkpt>
      <trkpt lat="46.9914" lon="-0.95657">
        <ele>69.6</ele>
        <time>2025-08-25T09:48:26Z</time>
      </trkpt>
      <trkpt lat="46.99142" lon="-0.9566">
        <ele>69.6</ele>
        <time>2025-08-25T09:48:27Z</time>
      </trkpt>
      <trkpt lat="46.99143" lon="-0.95661">
        <ele>69.7</ele>
        <time>2025-08-25T09:48:28Z</time>
      </trkpt>
      <trkpt lat="46.99145" lon="-0.95664">
        <ele>69.7</ele>
        <time>2025-08-25T09:48:29Z</time>
      </trkpt>
      <trkpt lat="46.99146" lon="-0.95665">
        <ele>69.7</ele>
        <time>2025-08-25T09:48:30Z</time>
      </trkpt>
      <trkpt lat="46.99147" lon="-0.95667">
        <ele>69.7</ele>
        <time>2025-08-25T09:48:31Z</time>
      </trkpt>
      <trkpt lat="46.99149" lon="-0.95668">
        <ele>69.8</ele>
        <time>2025-08-25T09:48:32Z</time>
      </trkpt>
      <trkpt lat="46.9915" lon="-0.9567">
        <ele>69.8</ele>
        <time>2025-08-25T09:48:33Z</time>
      </trkpt>
      <trkpt lat="46.99151" lon="-0.95672">
        <ele>69.9</ele>
        <time>2025-08-25T09:48:34Z</time>
      </trkpt>
      <trkpt lat="46.99153" lon="-0.95673">
        <ele>69.9</ele>
        <time>2025-08-25T09:48:35Z</time>
      </trkpt>
      <trkpt lat="46.99154" lon="-0.95675">
        <ele>70</ele>
        <time>2025-08-25T09:48:36Z</time>
      </trkpt>
      <trkpt lat="46.99156" lon="-0.95676">
        <ele>70.1</ele>
        <time>2025-08-25T09:48:37Z</time>
      </trkpt>
      <trkpt lat="46.99157" lon="-0.95677">
        <ele>70.1</ele>
        <time>2025-08-25T09:48:38Z</time>
      </trkpt>
      <trkpt lat="46.99158" lon="-0.95677">
        <ele>70.2</ele>
        <time>2025-08-25T09:48:39Z</time>
      </trkpt>
      <trkpt lat="46.99158" lon="-0.95678">
        <ele>70.2</ele>
        <time>2025-08-25T09:48:40Z</time>
      </trkpt>
      <trkpt lat="46.99159" lon="-0.95678">
        <ele>70.2</ele>
        <time>2025-08-25T09:48:41Z</time>
      </trkpt>
      <trkpt lat="46.99159" lon="-0.95678">
        <ele>70.2</ele>
        <time>2025-08-25T09:48:42Z</time>
      </trkpt>
      <trkpt lat="46.99159" lon="-0.95677">
        <ele>70.3</ele>
        <time>2025-08-25T09:48:43Z</time>
      </trkpt>
      <trkpt lat="46.99159" lon="-0.95677">
        <ele>70.3</ele>
        <time>2025-08-25T09:48:44Z</time>
      </trkpt>
      <trkpt lat="46.9916" lon="-0.95676">
        <ele>70.3</ele>
        <time>2025-08-25T09:48:45Z</time>
      </trkpt>
      <trkpt lat="46.9916" lon="-0.95676">
        <ele>70.4</ele>
        <time>2025-08-25T09:48:46Z</time>
      </trkpt>
      <trkpt lat="46.99161" lon="-0.95675">
        <ele>70.4</ele>
        <time>2025-08-25T09:48:47Z</time>
      </trkpt>
      <trkpt lat="46.99161" lon="-0.95675">
        <ele>70.4</ele>
        <time>2025-08-25T09:48:48Z</time>
      </trkpt>
      <trkpt lat="46.99162" lon="-0.95675">
        <ele>70.5</ele>
        <time>2025-08-25T09:48:49Z</time>
      </trkpt>
      <trkpt lat="46.99164" lon="-0.95677">
        <ele>70.7</ele>
        <time>2025-08-25T09:48:50Z</time>
      </trkpt>
      <trkpt lat="46.99164" lon="-0.95679">
        <ele>70.7</ele>
        <time>2025-08-25T09:48:51Z</time>
      </trkpt>
      <trkpt lat="46.99165" lon="-0.9568">
        <ele>70.8</ele>
        <time>2025-08-25T09:48:52Z</time>
      </trkpt>
      <trkpt lat="46.99166" lon="-0.95681">
        <ele>70.9</ele>
        <time>2025-08-25T09:48:53Z</time>
      </trkpt>
      <trkpt lat="46.99167" lon="-0.95682">
        <ele>71</ele>
        <time>2025-08-25T09:48:54Z</time>
      </trkpt>
      <trkpt lat="46.99167" lon="-0.95683">
        <ele>71.1</ele>
        <time>2025-08-25T09:48:55Z</time>
      </trkpt>
      <trkpt lat="46.99168" lon="-0.95683">
        <ele>71.2</ele>
        <time>2025-08-25T09:48:56Z</time>
      </trkpt>
      <trkpt lat="46.99169" lon="-0.95684">
        <ele>71.2</ele>
        <time>2025-08-25T09:48:57Z</time>
      </trkpt>
      <trkpt lat="46.9917" lon="-0.95684">
        <ele>71.3</ele>
        <time>2025-08-25T09:48:58Z</time>
      </trkpt>
      <trkpt lat="46.99172" lon="-0.95683">
        <ele>71.5</ele>
        <time>2025-08-25T09:48:59Z</time>
      </trkpt>
      <trkpt lat="46.99173" lon="-0.95683">
        <ele>71.6</ele>
        <time>2025-08-25T09:49:00Z</time>
      </trkpt>
      <trkpt lat="46.99176" lon="-0.95683">
        <ele>71.8</ele>
        <time>2025-08-25T09:49:01Z</time>
      </trkpt>
      <trkpt lat="46.99176" lon="-0.95683">
        <ele>71.8</ele>
        <time>2025-08-25T09:49:02Z</time>
      </trkpt>
      <trkpt lat="46.99177" lon="-0.95683">
        <ele>71.9</ele>
        <time>2025-08-25T09:49:03Z</time>
      </trkpt>
      <trkpt lat="46.99178" lon="-0.95683">
        <ele>72</ele>
        <time>2025-08-25T09:49:04Z</time>
      </trkpt>
      <trkpt lat="46.99179" lon="-0.95683">
        <ele>72.1</ele>
        <time>2025-08-25T09:49:05Z</time>
      </trkpt>
      <trkpt lat="46.99181" lon="-0.95684">
        <ele>72.2</ele>
        <time>2025-08-25T09:49:06Z</time>
      </trkpt>
      <trkpt lat="46.99182" lon="-0.95684">
        <ele>72.3</ele>
        <time>2025-08-25T09:49:07Z</time>
      </trkpt>
      <trkpt lat="46.99183" lon="-0.95685">
        <ele>72.4</ele>
        <time>2025-08-25T09:49:08Z</time>
      </trkpt>
      <trkpt lat="46.99184" lon="-0.95687">
        <ele>72.5</ele>
        <time>2025-08-25T09:49:09Z</time>
      </trkpt>
      <trkpt lat="46.99185" lon="-0.95687">
        <ele>72.6</ele>
        <time>2025-08-25T09:49:10Z</time>
      </trkpt>
      <trkpt lat="46.99186" lon="-0.95688">
        <ele>72.6</ele>
        <time>2025-08-25T09:49:11Z</time>
      </trkpt>
      <trkpt lat="46.99187" lon="-0.95689">
        <ele>72.7</ele>
        <time>2025-08-25T09:49:12Z</time>
      </trkpt>
      <trkpt lat="46.99187" lon="-0.9569">
        <ele>72.7</ele>
        <time>2025-08-25T09:49:13Z</time>
      </trkpt>
      <trkpt lat="46.99188" lon="-0.9569">
        <ele>72.8</ele>
        <time>2025-08-25T09:49:14Z</time>
      </trkpt>
      <trkpt lat="46.99188" lon="-0.95691">
        <ele>72.8</ele>
        <time>2025-08-25T09:49:15Z</time>
      </trkpt>
      <trkpt lat="46.99189" lon="-0.95692">
        <ele>72.9</ele>
        <time>2025-08-25T09:49:16Z</time>
      </trkpt>
      <trkpt lat="46.9919" lon="-0.95692">
        <ele>73</ele>
        <time>2025-08-25T09:49:17Z</time>
      </trkpt>
      <trkpt lat="46.99191" lon="-0.95693">
        <ele>73.1</ele>
        <time>2025-08-25T09:49:18Z</time>
      </trkpt>
      <trkpt lat="46.99192" lon="-0.95693">
        <ele>73.1</ele>
        <time>2025-08-25T09:49:19Z</time>
      </trkpt>
      <trkpt lat="46.99193" lon="-0.95694">
        <ele>73.2</ele>
        <time>2025-08-25T09:49:20Z</time>
      </trkpt>
      <trkpt lat="46.99194" lon="-0.95695">
        <ele>73.2</ele>
        <time>2025-08-25T09:49:21Z</time>
      </trkpt>
      <trkpt lat="46.99195" lon="-0.95696">
        <ele>73.3</ele>
        <time>2025-08-25T09:49:22Z</time>
      </trkpt>
      <trkpt lat="46.99197" lon="-0.95697">
        <ele>73.4</ele>
        <time>2025-08-25T09:49:23Z</time>
      </trkpt>
      <trkpt lat="46.99199" lon="-0.957">
        <ele>73.6</ele>
        <time>2025-08-25T09:49:24Z</time>
      </trkpt>
      <trkpt lat="46.992" lon="-0.95701">
        <ele>73.6</ele>
        <time>2025-08-25T09:49:25Z</time>
      </trkpt>
      <trkpt lat="46.99203" lon="-0.95704">
        <ele>73.8</ele>
        <time>2025-08-25T09:49:26Z</time>
      </trkpt>
      <trkpt lat="46.99203" lon="-0.95704">
        <ele>73.8</ele>
        <time>2025-08-25T09:49:27Z</time>
      </trkpt>
      <trkpt lat="46.99204" lon="-0.95706">
        <ele>73.9</ele>
        <time>2025-08-25T09:49:28Z</time>
      </trkpt>
      <trkpt lat="46.99205" lon="-0.95708">
        <ele>73.9</ele>
        <time>2025-08-25T09:49:29Z</time>
      </trkpt>
      <trkpt lat="46.99206" lon="-0.95709">
        <ele>74</ele>
        <time>2025-08-25T09:49:30Z</time>
      </trkpt>
      <trkpt lat="46.99207" lon="-0.95711">
        <ele>74</ele>
        <time>2025-08-25T09:49:31Z</time>
      </trkpt>
      <trkpt lat="46.99208" lon="-0.95712">
        <ele>74</ele>
        <time>2025-08-25T09:49:32Z</time>
      </trkpt>
      <trkpt lat="46.99208" lon="-0.95714">
        <ele>74.1</ele>
        <time>2025-08-25T09:49:33Z</time>
      </trkpt>
      <trkpt lat="46.99209" lon="-0.95715">
        <ele>74.1</ele>
        <time>2025-08-25T09:49:34Z</time>
      </trkpt>
      <trkpt lat="46.9921" lon="-0.95716">
        <ele>74.1</ele>
        <time>2025-08-25T09:49:35Z</time>
      </trkpt>
      <trkpt lat="46.99211" lon="-0.95718">
        <ele>74.2</ele>
        <time>2025-08-25T09:49:36Z</time>
      </trkpt>
      <trkpt lat="46.99212" lon="-0.95719">
        <ele>74.2</ele>
        <time>2025-08-25T09:49:37Z</time>
      </trkpt>
      <trkpt lat="46.99212" lon="-0.9572">
        <ele>74.2</ele>
        <time>2025-08-25T09:49:38Z</time>
      </trkpt>
      <trkpt lat="46.99213" lon="-0.95722">
        <ele>74.2</ele>
        <time>2025-08-25T09:49:39Z</time>
      </trkpt>
      <trkpt lat="46.99214" lon="-0.95723">
        <ele>74.2</ele>
        <time>2025-08-25T09:49:40Z</time>
      </trkpt>
      <trkpt lat="46.99215" lon="-0.95724">
        <ele>74.2</ele>
        <time>2025-08-25T09:49:41Z</time>
      </trkpt>
      <trkpt lat="46.99216" lon="-0.95726">
        <ele>74.2</ele>
        <time>2025-08-25T09:49:42Z</time>
      </trkpt>
      <trkpt lat="46.99216" lon="-0.95727">
        <ele>74.2</ele>
        <time>2025-08-25T09:49:43Z</time>
      </trkpt>
      <trkpt lat="46.99217" lon="-0.95728">
        <ele>74.2</ele>
        <time>2025-08-25T09:49:44Z</time>
      </trkpt>
      <trkpt lat="46.99218" lon="-0.9573">
        <ele>74.2</ele>
        <time>2025-08-25T09:49:45Z</time>
      </trkpt>
      <trkpt lat="46.99219" lon="-0.95732">
        <ele>74.2</ele>
        <time>2025-08-25T09:49:46Z</time>
      </trkpt>
      <trkpt lat="46.99219" lon="-0.95733">
        <ele>74.2</ele>
        <time>2025-08-25T09:49:47Z</time>
      </trkpt>
      <trkpt lat="46.9922" lon="-0.95734">
        <ele>74.3</ele>
        <time>2025-08-25T09:49:48Z</time>
      </trkpt>
      <trkpt lat="46.9922" lon="-0.95736">
        <ele>74.3</ele>
        <time>2025-08-25T09:49:49Z</time>
      </trkpt>
      <trkpt lat="46.9922" lon="-0.95737">
        <ele>74.3</ele>
        <time>2025-08-25T09:49:50Z</time>
      </trkpt>
      <trkpt lat="46.99221" lon="-0.95739">
        <ele>74.3</ele>
        <time>2025-08-25T09:49:51Z</time>
      </trkpt>
      <trkpt lat="46.99221" lon="-0.95741">
        <ele>74.3</ele>
        <time>2025-08-25T09:49:52Z</time>
      </trkpt>
      <trkpt lat="46.99221" lon="-0.95742">
        <ele>74.3</ele>
        <time>2025-08-25T09:49:53Z</time>
      </trkpt>
      <trkpt lat="46.99222" lon="-0.95744">
        <ele>74.3</ele>
        <time>2025-08-25T09:49:54Z</time>
      </trkpt>
      <trkpt lat="46.99222" lon="-0.95746">
        <ele>74.3</ele>
        <time>2025-08-25T09:49:55Z</time>
      </trkpt>
      <trkpt lat="46.99223" lon="-0.95747">
        <ele>74.3</ele>
        <time>2025-08-25T09:49:56Z</time>
      </trkpt>
      <trkpt lat="46.99224" lon="-0.95749">
        <ele>74.3</ele>
        <time>2025-08-25T09:49:57Z</time>
      </trkpt>
      <trkpt lat="46.99224" lon="-0.9575">
        <ele>74.3</ele>
        <time>2025-08-25T09:49:58Z</time>
      </trkpt>
      <trkpt lat="46.99225" lon="-0.95751">
        <ele>74.4</ele>
        <time>2025-08-25T09:49:59Z</time>
      </trkpt>
      <trkpt lat="46.99225" lon="-0.95752">
        <ele>74.4</ele>
        <time>2025-08-25T09:50:00Z</time>
      </trkpt>
      <trkpt lat="46.99226" lon="-0.95753">
        <ele>74.4</ele>
        <time>2025-08-25T09:50:01Z</time>
      </trkpt>
      <trkpt lat="46.99226" lon="-0.95754">
        <ele>74.4</ele>
        <time>2025-08-25T09:50:02Z</time>
      </trkpt>
      <trkpt lat="46.99227" lon="-0.95755">
        <ele>74.4</ele>
        <time>2025-08-25T09:50:03Z</time>
      </trkpt>
      <trkpt lat="46.99227" lon="-0.95756">
        <ele>74.4</ele>
        <time>2025-08-25T09:50:04Z</time>
      </trkpt>
      <trkpt lat="46.99228" lon="-0.95757">
        <ele>74.4</ele>
        <time>2025-08-25T09:50:05Z</time>
      </trkpt>
      <trkpt lat="46.99229" lon="-0.95758">
        <ele>74.4</ele>
        <time>2025-08-25T09:50:06Z</time>
      </trkpt>
      <trkpt lat="46.99229" lon="-0.9576">
        <ele>74.5</ele>
        <time>2025-08-25T09:50:07Z</time>
      </trkpt>
      <trkpt lat="46.9923" lon="-0.9576">
        <ele>74.5</ele>
        <time>2025-08-25T09:50:08Z</time>
      </trkpt>
      <trkpt lat="46.99231" lon="-0.95761">
        <ele>74.5</ele>
        <time>2025-08-25T09:50:09Z</time>
      </trkpt>
      <trkpt lat="46.99231" lon="-0.95762">
        <ele>74.5</ele>
        <time>2025-08-25T09:50:10Z</time>
      </trkpt>
      <trkpt lat="46.99232" lon="-0.95763">
        <ele>74.5</ele>
        <time>2025-08-25T09:50:11Z</time>
      </trkpt>
      <trkpt lat="46.99233" lon="-0.95764">
        <ele>74.6</ele>
        <time>2025-08-25T09:50:12Z</time>
      </trkpt>
      <trkpt lat="46.99234" lon="-0.95765">
        <ele>74.6</ele>
        <time>2025-08-25T09:50:13Z</time>
      </trkpt>
      <trkpt lat="46.99235" lon="-0.95766">
        <ele>74.6</ele>
        <time>2025-08-25T09:50:14Z</time>
      </trkpt>
      <trkpt lat="46.99235" lon="-0.95767">
        <ele>74.6</ele>
        <time>2025-08-25T09:50:15Z</time>
      </trkpt>
      <trkpt lat="46.99236" lon="-0.95768">
        <ele>74.7</ele>
        <time>2025-08-25T09:50:16Z</time>
      </trkpt>
      <trkpt lat="46.99237" lon="-0.95769">
        <ele>74.7</ele>
        <time>2025-08-25T09:50:17Z</time>
      </trkpt>
      <trkpt lat="46.99238" lon="-0.9577">
        <ele>74.7</ele>
        <time>2025-08-25T09:50:18Z</time>
      </trkpt>
      <trkpt lat="46.99239" lon="-0.95771">
        <ele>74.8</ele>
        <time>2025-08-25T09:50:19Z</time>
      </trkpt>
      <trkpt lat="46.9924" lon="-0.95773">
        <ele>74.8</ele>
        <time>2025-08-25T09:50:20Z</time>
      </trkpt>
      <trkpt lat="46.99241" lon="-0.95774">
        <ele>74.8</ele>
        <time>2025-08-25T09:50:21Z</time>
      </trkpt>
      <trkpt lat="46.99241" lon="-0.95775">
        <ele>74.8</ele>
        <time>2025-08-25T09:50:22Z</time>
      </trkpt>
      <trkpt lat="46.99242" lon="-0.95776">
        <ele>74.9</ele>
        <time>2025-08-25T09:50:23Z</time>
      </trkpt>
      <trkpt lat="46.99242" lon="-0.95778">
        <ele>74.9</ele>
        <time>2025-08-25T09:50:24Z</time>
      </trkpt>
      <trkpt lat="46.99243" lon="-0.95779">
        <ele>74.9</ele>
        <time>2025-08-25T09:50:25Z</time>
      </trkpt>
      <trkpt lat="46.99243" lon="-0.95781">
        <ele>75</ele>
        <time>2025-08-25T09:50:26Z</time>
      </trkpt>
      <trkpt lat="46.99243" lon="-0.95782">
        <ele>75</ele>
        <time>2025-08-25T09:50:27Z</time>
      </trkpt>
      <trkpt lat="46.99244" lon="-0.95784">
        <ele>75</ele>
        <time>2025-08-25T09:50:28Z</time>
      </trkpt>
      <trkpt lat="46.99244" lon="-0.95785">
        <ele>75.1</ele>
        <time>2025-08-25T09:50:29Z</time>
      </trkpt>
      <trkpt lat="46.99245" lon="-0.95786">
        <ele>75.1</ele>
        <time>2025-08-25T09:50:30Z</time>
      </trkpt>
      <trkpt lat="46.99246" lon="-0.95787">
        <ele>75.1</ele>
        <time>2025-08-25T09:50:31Z</time>
      </trkpt>
      <trkpt lat="46.99246" lon="-0.95788">
        <ele>75.1</ele>
        <time>2025-08-25T09:50:32Z</time>
      </trkpt>
      <trkpt lat="46.99247" lon="-0.95789">
        <ele>75.2</ele>
        <time>2025-08-25T09:50:33Z</time>
      </trkpt>
      <trkpt lat="46.99248" lon="-0.9579">
        <ele>75.2</ele>
        <time>2025-08-25T09:50:34Z</time>
      </trkpt>
      <trkpt lat="46.99249" lon="-0.95791">
        <ele>75.2</ele>
        <time>2025-08-25T09:50:35Z</time>
      </trkpt>
      <trkpt lat="46.9925" lon="-0.95792">
        <ele>75.2</ele>
        <time>2025-08-25T09:50:36Z</time>
      </trkpt>
      <trkpt lat="46.99251" lon="-0.95793">
        <ele>75.2</ele>
        <time>2025-08-25T09:50:37Z</time>
      </trkpt>
      <trkpt lat="46.99252" lon="-0.95794">
        <ele>75.3</ele>
        <time>2025-08-25T09:50:38Z</time>
      </trkpt>
      <trkpt lat="46.99253" lon="-0.95796">
        <ele>75.3</ele>
        <time>2025-08-25T09:50:39Z</time>
      </trkpt>
      <trkpt lat="46.99254" lon="-0.95798">
        <ele>75.3</ele>
        <time>2025-08-25T09:50:40Z</time>
      </trkpt>
      <trkpt lat="46.99254" lon="-0.95799">
        <ele>75.3</ele>
        <time>2025-08-25T09:50:41Z</time>
      </trkpt>
      <trkpt lat="46.99255" lon="-0.958">
        <ele>75.3</ele>
        <time>2025-08-25T09:50:42Z</time>
      </trkpt>
      <trkpt lat="46.99256" lon="-0.95801">
        <ele>75.4</ele>
        <time>2025-08-25T09:50:43Z</time>
      </trkpt>
      <trkpt lat="46.99256" lon="-0.95802">
        <ele>75.4</ele>
        <time>2025-08-25T09:50:44Z</time>
      </trkpt>
      <trkpt lat="46.99257" lon="-0.95803">
        <ele>75.4</ele>
        <time>2025-08-25T09:50:45Z</time>
      </trkpt>
      <trkpt lat="46.99258" lon="-0.95804">
        <ele>75.4</ele>
        <time>2025-08-25T09:50:46Z</time>
      </trkpt>
      <trkpt lat="46.99258" lon="-0.95805">
        <ele>75.4</ele>
        <time>2025-08-25T09:50:47Z</time>
      </trkpt>
      <trkpt lat="46.99258" lon="-0.95806">
        <ele>75.4</ele>
        <time>2025-08-25T09:50:48Z</time>
      </trkpt>
      <trkpt lat="46.99258" lon="-0.95806">
        <ele>75.4</ele>
        <time>2025-08-25T09:50:49Z</time>
      </trkpt>
      <trkpt lat="46.99258" lon="-0.95806">
        <ele>75.4</ele>
        <time>2025-08-25T09:50:50Z</time>
      </trkpt>
      <trkpt lat="46.99259" lon="-0.95805">
        <ele>75.4</ele>
        <time>2025-08-25T09:50:51Z</time>
      </trkpt>
      <trkpt lat="46.99259" lon="-0.95805">
        <ele>75.4</ele>
        <time>2025-08-25T09:50:52Z</time>
      </trkpt>
      <trkpt lat="46.99259" lon="-0.95805">
        <ele>75.4</ele>
        <time>2025-08-25T09:50:53Z</time>
      </trkpt>
      <trkpt lat="46.99259" lon="-0.95804">
        <ele>75.4</ele>
        <time>2025-08-25T09:50:54Z</time>
      </trkpt>
      <trkpt lat="46.99259" lon="-0.95804">
        <ele>75.4</ele>
        <time>2025-08-25T09:50:55Z</time>
      </trkpt>
      <trkpt lat="46.99259" lon="-0.95804">
        <ele>75.4</ele>
        <time>2025-08-25T09:50:56Z</time>
      </trkpt>
      <trkpt lat="46.99259" lon="-0.95804">
        <ele>75.4</ele>
        <time>2025-08-25T09:50:57Z</time>
      </trkpt>
      <trkpt lat="46.99259" lon="-0.95804">
        <ele>75.4</ele>
        <time>2025-08-25T09:50:58Z</time>
      </trkpt>
      <trkpt lat="46.99259" lon="-0.95804">
        <ele>75.4</ele>
        <time>2025-08-25T09:50:59Z</time>
      </trkpt>
      <trkpt lat="46.99259" lon="-0.95804">
        <ele>75.4</ele>
        <time>2025-08-25T09:51:00Z</time>
      </trkpt>
      <trkpt lat="46.99259" lon="-0.95804">
        <ele>75.4</ele>
        <time>2025-08-25T09:51:01Z</time>
      </trkpt>
      <trkpt lat="46.99259" lon="-0.95804">
        <ele>75.5</ele>
        <time>2025-08-25T09:51:02Z</time>
      </trkpt>
      <trkpt lat="46.9926" lon="-0.95804">
        <ele>75.5</ele>
        <time>2025-08-25T09:51:03Z</time>
      </trkpt>
      <trkpt lat="46.9926" lon="-0.95805">
        <ele>75.5</ele>
        <time>2025-08-25T09:51:04Z</time>
      </trkpt>
      <trkpt lat="46.99261" lon="-0.95806">
        <ele>75.5</ele>
        <time>2025-08-25T09:51:05Z</time>
      </trkpt>
      <trkpt lat="46.99262" lon="-0.95807">
        <ele>75.5</ele>
        <time>2025-08-25T09:51:06Z</time>
      </trkpt>
      <trkpt lat="46.99262" lon="-0.95807">
        <ele>75.5</ele>
        <time>2025-08-25T09:51:07Z</time>
      </trkpt>
      <trkpt lat="46.99262" lon="-0.95806">
        <ele>75.5</ele>
        <time>2025-08-25T09:51:08Z</time>
      </trkpt>
      <trkpt lat="46.99262" lon="-0.95806">
        <ele>75.5</ele>
        <time>2025-08-25T09:51:09Z</time>
      </trkpt>
      <trkpt lat="46.99262" lon="-0.95806">
        <ele>75.5</ele>
        <time>2025-08-25T09:51:10Z</time>
      </trkpt>
      <trkpt lat="46.99262" lon="-0.95805">
        <ele>75.5</ele>
        <time>2025-08-25T09:51:11Z</time>
      </trkpt>
      <trkpt lat="46.99262" lon="-0.95806">
        <ele>75.5</ele>
        <time>2025-08-25T09:51:12Z</time>
      </trkpt>
      <trkpt lat="46.99263" lon="-0.95806">
        <ele>75.5</ele>
        <time>2025-08-25T09:51:13Z</time>
      </trkpt>
      <trkpt lat="46.99263" lon="-0.95806">
        <ele>75.5</ele>
        <time>2025-08-25T09:51:14Z</time>
      </trkpt>
      <trkpt lat="46.99263" lon="-0.95806">
        <ele>75.5</ele>
        <time>2025-08-25T09:51:15Z</time>
      </trkpt>
      <trkpt lat="46.99263" lon="-0.95806">
        <ele>75.5</ele>
        <time>2025-08-25T09:51:16Z</time>
      </trkpt>
      <trkpt lat="46.99263" lon="-0.95807">
        <ele>75.5</ele>
        <time>2025-08-25T09:51:17Z</time>
      </trkpt>
      <trkpt lat="46.99263" lon="-0.95807">
        <ele>75.5</ele>
        <time>2025-08-25T09:51:18Z</time>
      </trkpt>
      <trkpt lat="46.99263" lon="-0.95807">
        <ele>75.5</ele>
        <time>2025-08-25T09:51:19Z</time>
      </trkpt>
      <trkpt lat="46.99263" lon="-0.95807">
        <ele>75.6</ele>
        <time>2025-08-25T09:51:20Z</time>
      </trkpt>
      <trkpt lat="46.99263" lon="-0.95808">
        <ele>75.6</ele>
        <time>2025-08-25T09:51:21Z</time>
      </trkpt>
      <trkpt lat="46.99264" lon="-0.95808">
        <ele>75.6</ele>
        <time>2025-08-25T09:51:22Z</time>
      </trkpt>
      <trkpt lat="46.99264" lon="-0.95809">
        <ele>75.6</ele>
        <time>2025-08-25T09:51:23Z</time>
      </trkpt>
      <trkpt lat="46.99264" lon="-0.95809">
        <ele>75.6</ele>
        <time>2025-08-25T09:51:24Z</time>
      </trkpt>
      <trkpt lat="46.99264" lon="-0.95809">
        <ele>75.6</ele>
        <time>2025-08-25T09:51:25Z</time>
      </trkpt>
      <trkpt lat="46.99264" lon="-0.95809">
        <ele>75.6</ele>
        <time>2025-08-25T09:51:26Z</time>
      </trkpt>
      <trkpt lat="46.99264" lon="-0.95809">
        <ele>75.6</ele>
        <time>2025-08-25T09:51:27Z</time>
      </trkpt>
      <trkpt lat="46.99264" lon="-0.95809">
        <ele>75.6</ele>
        <time>2025-08-25T09:51:28Z</time>
      </trkpt>
      <trkpt lat="46.99265" lon="-0.9581">
        <ele>75.6</ele>
        <time>2025-08-25T09:51:29Z</time>
      </trkpt>
      <trkpt lat="46.99265" lon="-0.95811">
        <ele>75.6</ele>
        <time>2025-08-25T09:51:30Z</time>
      </trkpt>
      <trkpt lat="46.99266" lon="-0.95811">
        <ele>75.6</ele>
        <time>2025-08-25T09:51:31Z</time>
      </trkpt>
      <trkpt lat="46.99268" lon="-0.9581">
        <ele>75.7</ele>
        <time>2025-08-25T09:51:32Z</time>
      </trkpt>
      <trkpt lat="46.99269" lon="-0.95809">
        <ele>75.7</ele>
        <time>2025-08-25T09:51:33Z</time>
      </trkpt>
      <trkpt lat="46.99271" lon="-0.95808">
        <ele>75.8</ele>
        <time>2025-08-25T09:51:34Z</time>
      </trkpt>
      <trkpt lat="46.99272" lon="-0.95807">
        <ele>75.8</ele>
        <time>2025-08-25T09:51:35Z</time>
      </trkpt>
      <trkpt lat="46.99272" lon="-0.95807">
        <ele>75.8</ele>
        <time>2025-08-25T09:51:36Z</time>
      </trkpt>
      <trkpt lat="46.99271" lon="-0.95808">
        <ele>75.8</ele>
        <time>2025-08-25T09:51:37Z</time>
      </trkpt>
      <trkpt lat="46.9927" lon="-0.95808">
        <ele>75.9</ele>
        <time>2025-08-25T09:51:38Z</time>
      </trkpt>
      <trkpt lat="46.99269" lon="-0.95808">
        <ele>75.9</ele>
        <time>2025-08-25T09:51:39Z</time>
      </trkpt>
      <trkpt lat="46.99268" lon="-0.95808">
        <ele>75.9</ele>
        <time>2025-08-25T09:51:40Z</time>
      </trkpt>
      <trkpt lat="46.99269" lon="-0.95808">
        <ele>76</ele>
        <time>2025-08-25T09:51:41Z</time>
      </trkpt>
      <trkpt lat="46.9927" lon="-0.95808">
        <ele>76</ele>
        <time>2025-08-25T09:51:42Z</time>
      </trkpt>
      <trkpt lat="46.99271" lon="-0.95809">
        <ele>76.1</ele>
        <time>2025-08-25T09:51:43Z</time>
      </trkpt>
      <trkpt lat="46.99271" lon="-0.95809">
        <ele>76.1</ele>
        <time>2025-08-25T09:51:44Z</time>
      </trkpt>
      <trkpt lat="46.99272" lon="-0.95809">
        <ele>76.1</ele>
        <time>2025-08-25T09:51:45Z</time>
      </trkpt>
      <trkpt lat="46.99274" lon="-0.9581">
        <ele>76.2</ele>
        <time>2025-08-25T09:51:46Z</time>
      </trkpt>
      <trkpt lat="46.99275" lon="-0.9581">
        <ele>76.3</ele>
        <time>2025-08-25T09:51:47Z</time>
      </trkpt>
      <trkpt lat="46.99276" lon="-0.9581">
        <ele>76.3</ele>
        <time>2025-08-25T09:51:48Z</time>
      </trkpt>
      <trkpt lat="46.99277" lon="-0.9581">
        <ele>76.4</ele>
        <time>2025-08-25T09:51:49Z</time>
      </trkpt>
      <trkpt lat="46.99278" lon="-0.95811">
        <ele>76.4</ele>
        <time>2025-08-25T09:51:50Z</time>
      </trkpt>
      <trkpt lat="46.99279" lon="-0.95813">
        <ele>76.5</ele>
        <time>2025-08-25T09:51:51Z</time>
      </trkpt>
      <trkpt lat="46.9928" lon="-0.95816">
        <ele>76.6</ele>
        <time>2025-08-25T09:51:52Z</time>
      </trkpt>
      <trkpt lat="46.9928" lon="-0.95818">
        <ele>76.7</ele>
        <time>2025-08-25T09:51:53Z</time>
      </trkpt>
      <trkpt lat="46.9928" lon="-0.9582">
        <ele>76.8</ele>
        <time>2025-08-25T09:51:54Z</time>
      </trkpt>
      <trkpt lat="46.9928" lon="-0.95821">
        <ele>76.8</ele>
        <time>2025-08-25T09:51:55Z</time>
      </trkpt>
      <trkpt lat="46.9928" lon="-0.95822">
        <ele>76.8</ele>
        <time>2025-08-25T09:51:56Z</time>
      </trkpt>
      <trkpt lat="46.9928" lon="-0.95822">
        <ele>76.9</ele>
        <time>2025-08-25T09:51:57Z</time>
      </trkpt>
      <trkpt lat="46.99279" lon="-0.95821">
        <ele>76.9</ele>
        <time>2025-08-25T09:51:58Z</time>
      </trkpt>
      <trkpt lat="46.99279" lon="-0.95821">
        <ele>76.9</ele>
        <time>2025-08-25T09:51:59Z</time>
      </trkpt>
      <trkpt lat="46.99279" lon="-0.95821">
        <ele>76.9</ele>
        <time>2025-08-25T09:52:00Z</time>
      </trkpt>
      <trkpt lat="46.99279" lon="-0.95823">
        <ele>76.9</ele>
        <time>2025-08-25T09:52:01Z</time>
      </trkpt>
      <trkpt lat="46.9928" lon="-0.95824">
        <ele>76.9</ele>
        <time>2025-08-25T09:52:02Z</time>
      </trkpt>
      <trkpt lat="46.9928" lon="-0.95826">
        <ele>77</ele>
        <time>2025-08-25T09:52:03Z</time>
      </trkpt>
      <trkpt lat="46.99281" lon="-0.95828">
        <ele>77</ele>
        <time>2025-08-25T09:52:04Z</time>
      </trkpt>
      <trkpt lat="46.99281" lon="-0.95829">
        <ele>77</ele>
        <time>2025-08-25T09:52:05Z</time>
      </trkpt>
      <trkpt lat="46.99282" lon="-0.95831">
        <ele>77.1</ele>
        <time>2025-08-25T09:52:06Z</time>
      </trkpt>
      <trkpt lat="46.99283" lon="-0.95833">
        <ele>77.1</ele>
        <time>2025-08-25T09:52:07Z</time>
      </trkpt>
      <trkpt lat="46.99283" lon="-0.95834">
        <ele>77.1</ele>
        <time>2025-08-25T09:52:08Z</time>
      </trkpt>
      <trkpt lat="46.99284" lon="-0.95835">
        <ele>77.1</ele>
        <time>2025-08-25T09:52:09Z</time>
      </trkpt>
      <trkpt lat="46.99284" lon="-0.95836">
        <ele>77.1</ele>
        <time>2025-08-25T09:52:10Z</time>
      </trkpt>
      <trkpt lat="46.99285" lon="-0.9584">
        <ele>77.1</ele>
        <time>2025-08-25T09:52:11Z</time>
      </trkpt>
      <trkpt lat="46.99285" lon="-0.95842">
        <ele>77</ele>
        <time>2025-08-25T09:52:12Z</time>
      </trkpt>
      <trkpt lat="46.99286" lon="-0.95844">
        <ele>77</ele>
        <time>2025-08-25T09:52:13Z</time>
      </trkpt>
      <trkpt lat="46.99286" lon="-0.95847">
        <ele>76.9</ele>
        <time>2025-08-25T09:52:14Z</time>
      </trkpt>
      <trkpt lat="46.99287" lon="-0.95849">
        <ele>76.9</ele>
        <time>2025-08-25T09:52:15Z</time>
      </trkpt>
      <trkpt lat="46.99287" lon="-0.9585">
        <ele>76.8</ele>
        <time>2025-08-25T09:52:16Z</time>
      </trkpt>
      <trkpt lat="46.99287" lon="-0.95853">
        <ele>76.7</ele>
        <time>2025-08-25T09:52:17Z</time>
      </trkpt>
      <trkpt lat="46.99287" lon="-0.95854">
        <ele>76.7</ele>
        <time>2025-08-25T09:52:18Z</time>
      </trkpt>
      <trkpt lat="46.99288" lon="-0.95855">
        <ele>76.6</ele>
        <time>2025-08-25T09:52:19Z</time>
      </trkpt>
      <trkpt lat="46.99289" lon="-0.95857">
        <ele>76.5</ele>
        <time>2025-08-25T09:52:20Z</time>
      </trkpt>
      <trkpt lat="46.99289" lon="-0.95858">
        <ele>76.4</ele>
        <time>2025-08-25T09:52:21Z</time>
      </trkpt>
      <trkpt lat="46.9929" lon="-0.95858">
        <ele>76.4</ele>
        <time>2025-08-25T09:52:22Z</time>
      </trkpt>
      <trkpt lat="46.99291" lon="-0.95857">
        <ele>76.2</ele>
        <time>2025-08-25T09:52:23Z</time>
      </trkpt>
      <trkpt lat="46.99291" lon="-0.95855">
        <ele>76.2</ele>
        <time>2025-08-25T09:52:24Z</time>
      </trkpt>
      <trkpt lat="46.99291" lon="-0.95855">
        <ele>76.1</ele>
        <time>2025-08-25T09:52:25Z</time>
      </trkpt>
      <trkpt lat="46.99291" lon="-0.95855">
        <ele>76.1</ele>
        <time>2025-08-25T09:52:26Z</time>
      </trkpt>
      <trkpt lat="46.99291" lon="-0.95855">
        <ele>76.1</ele>
        <time>2025-08-25T09:52:27Z</time>
      </trkpt>
      <trkpt lat="46.99291" lon="-0.95855">
        <ele>76.1</ele>
        <time>2025-08-25T09:52:28Z</time>
      </trkpt>
      <trkpt lat="46.99291" lon="-0.95855">
        <ele>76.1</ele>
        <time>2025-08-25T09:52:29Z</time>
      </trkpt>
      <trkpt lat="46.99291" lon="-0.95855">
        <ele>76.1</ele>
        <time>2025-08-25T09:52:30Z</time>
      </trkpt>
      <trkpt lat="46.9929" lon="-0.95855">
        <ele>76</ele>
        <time>2025-08-25T09:52:31Z</time>
      </trkpt>
      <trkpt lat="46.9929" lon="-0.95855">
        <ele>76</ele>
        <time>2025-08-25T09:52:32Z</time>
      </trkpt>
      <trkpt lat="46.9929" lon="-0.95855">
        <ele>76</ele>
        <time>2025-08-25T09:52:33Z</time>
      </trkpt>
      <trkpt lat="46.99291" lon="-0.95856">
        <ele>75.9</ele>
        <time>2025-08-25T09:52:34Z</time>
      </trkpt>
      <trkpt lat="46.99293" lon="-0.95858">
        <ele>75.8</ele>
        <time>2025-08-25T09:52:35Z</time>
      </trkpt>
      <trkpt lat="46.99293" lon="-0.9586">
        <ele>75.7</ele>
        <time>2025-08-25T09:52:36Z</time>
      </trkpt>
      <trkpt lat="46.99294" lon="-0.95862">
        <ele>75.6</ele>
        <time>2025-08-25T09:52:37Z</time>
      </trkpt>
      <trkpt lat="46.99295" lon="-0.95864">
        <ele>75.4</ele>
        <time>2025-08-25T09:52:38Z</time>
      </trkpt>
      <trkpt lat="46.99296" lon="-0.95865">
        <ele>75.3</ele>
        <time>2025-08-25T09:52:39Z</time>
      </trkpt>
      <trkpt lat="46.99297" lon="-0.95867">
        <ele>75.2</ele>
        <time>2025-08-25T09:52:40Z</time>
      </trkpt>
      <trkpt lat="46.99298" lon="-0.95869">
        <ele>75</ele>
        <time>2025-08-25T09:52:41Z</time>
      </trkpt>
      <trkpt lat="46.99299" lon="-0.95871">
        <ele>75</ele>
        <time>2025-08-25T09:52:42Z</time>
      </trkpt>
      <trkpt lat="46.99299" lon="-0.95872">
        <ele>74.9</ele>
        <time>2025-08-25T09:52:43Z</time>
      </trkpt>
      <trkpt lat="46.99301" lon="-0.95873">
        <ele>74.8</ele>
        <time>2025-08-25T09:52:44Z</time>
      </trkpt>
      <trkpt lat="46.99302" lon="-0.95874">
        <ele>74.7</ele>
        <time>2025-08-25T09:52:45Z</time>
      </trkpt>
      <trkpt lat="46.99303" lon="-0.95875">
        <ele>74.5</ele>
        <time>2025-08-25T09:52:46Z</time>
      </trkpt>
      <trkpt lat="46.99305" lon="-0.95876">
        <ele>74.4</ele>
        <time>2025-08-25T09:52:47Z</time>
      </trkpt>
      <trkpt lat="46.99307" lon="-0.95878">
        <ele>74.2</ele>
        <time>2025-08-25T09:52:48Z</time>
      </trkpt>
      <trkpt lat="46.99307" lon="-0.9588">
        <ele>74.2</ele>
        <time>2025-08-25T09:52:49Z</time>
      </trkpt>
      <trkpt lat="46.99307" lon="-0.95881">
        <ele>74.1</ele>
        <time>2025-08-25T09:52:50Z</time>
      </trkpt>
      <trkpt lat="46.99308" lon="-0.95882">
        <ele>74</ele>
        <time>2025-08-25T09:52:51Z</time>
      </trkpt>
      <trkpt lat="46.9931" lon="-0.95883">
        <ele>73.9</ele>
        <time>2025-08-25T09:52:52Z</time>
      </trkpt>
      <trkpt lat="46.99311" lon="-0.95884">
        <ele>73.8</ele>
        <time>2025-08-25T09:52:53Z</time>
      </trkpt>
      <trkpt lat="46.99312" lon="-0.95885">
        <ele>73.7</ele>
        <time>2025-08-25T09:52:54Z</time>
      </trkpt>
      <trkpt lat="46.99312" lon="-0.95887">
        <ele>73.6</ele>
        <time>2025-08-25T09:52:55Z</time>
      </trkpt>
      <trkpt lat="46.99312" lon="-0.95888">
        <ele>73.5</ele>
        <time>2025-08-25T09:52:56Z</time>
      </trkpt>
      <trkpt lat="46.99312" lon="-0.95889">
        <ele>73.4</ele>
        <time>2025-08-25T09:52:57Z</time>
      </trkpt>
      <trkpt lat="46.99312" lon="-0.95891">
        <ele>73.3</ele>
        <time>2025-08-25T09:52:58Z</time>
      </trkpt>
      <trkpt lat="46.99311" lon="-0.95892">
        <ele>73.2</ele>
        <time>2025-08-25T09:52:59Z</time>
      </trkpt>
      <trkpt lat="46.99311" lon="-0.95893">
        <ele>73.1</ele>
        <time>2025-08-25T09:53:00Z</time>
      </trkpt>
      <trkpt lat="46.9931" lon="-0.95894">
        <ele>73</ele>
        <time>2025-08-25T09:53:01Z</time>
      </trkpt>
      <trkpt lat="46.99309" lon="-0.95896">
        <ele>72.9</ele>
        <time>2025-08-25T09:53:02Z</time>
      </trkpt>
      <trkpt lat="46.99308" lon="-0.95897">
        <ele>72.8</ele>
        <time>2025-08-25T09:53:03Z</time>
      </trkpt>
      <trkpt lat="46.99308" lon="-0.95898">
        <ele>72.7</ele>
        <time>2025-08-25T09:53:04Z</time>
      </trkpt>
      <trkpt lat="46.99308" lon="-0.95899">
        <ele>72.7</ele>
        <time>2025-08-25T09:53:05Z</time>
      </trkpt>
      <trkpt lat="46.99307" lon="-0.95897">
        <ele>72.6</ele>
        <time>2025-08-25T09:53:06Z</time>
      </trkpt>
      <trkpt lat="46.99307" lon="-0.95895">
        <ele>72.4</ele>
        <time>2025-08-25T09:53:07Z</time>
      </trkpt>
      <trkpt lat="46.99307" lon="-0.95894">
        <ele>72.4</ele>
        <time>2025-08-25T09:53:08Z</time>
      </trkpt>
      <trkpt lat="46.99307" lon="-0.95894">
        <ele>72.4</ele>
        <time>2025-08-25T09:53:09Z</time>
      </trkpt>
      <trkpt lat="46.99307" lon="-0.95894">
        <ele>72.4</ele>
        <time>2025-08-25T09:53:10Z</time>
      </trkpt>
      <trkpt lat="46.99307" lon="-0.95894">
        <ele>72.3</ele>
        <time>2025-08-25T09:53:11Z</time>
      </trkpt>
      <trkpt lat="46.99307" lon="-0.95894">
        <ele>72.3</ele>
        <time>2025-08-25T09:53:12Z</time>
      </trkpt>
      <trkpt lat="46.99307" lon="-0.95894">
        <ele>72.3</ele>
        <time>2025-08-25T09:53:13Z</time>
      </trkpt>
      <trkpt lat="46.99307" lon="-0.95894">
        <ele>72.3</ele>
        <time>2025-08-25T09:53:14Z</time>
      </trkpt>
      <trkpt lat="46.99307" lon="-0.95895">
        <ele>72.3</ele>
        <time>2025-08-25T09:53:15Z</time>
      </trkpt>
      <trkpt lat="46.99306" lon="-0.95896">
        <ele>72.2</ele>
        <time>2025-08-25T09:53:16Z</time>
      </trkpt>
      <trkpt lat="46.99306" lon="-0.95896">
        <ele>72.2</ele>
        <time>2025-08-25T09:53:17Z</time>
      </trkpt>
      <trkpt lat="46.99306" lon="-0.95897">
        <ele>72.1</ele>
        <time>2025-08-25T09:53:18Z</time>
      </trkpt>
      <trkpt lat="46.99306" lon="-0.95898">
        <ele>72.1</ele>
        <time>2025-08-25T09:53:19Z</time>
      </trkpt>
      <trkpt lat="46.99305" lon="-0.95898">
        <ele>72</ele>
        <time>2025-08-25T09:53:20Z</time>
      </trkpt>
      <trkpt lat="46.99305" lon="-0.95897">
        <ele>71.9</ele>
        <time>2025-08-25T09:53:21Z</time>
      </trkpt>
      <trkpt lat="46.99304" lon="-0.95896">
        <ele>71.9</ele>
        <time>2025-08-25T09:53:22Z</time>
      </trkpt>
      <trkpt lat="46.99303" lon="-0.95896">
        <ele>71.8</ele>
        <time>2025-08-25T09:53:23Z</time>
      </trkpt>
      <trkpt lat="46.99302" lon="-0.95896">
        <ele>71.7</ele>
        <time>2025-08-25T09:53:24Z</time>
      </trkpt>
      <trkpt lat="46.99301" lon="-0.95897">
        <ele>71.6</ele>
        <time>2025-08-25T09:53:25Z</time>
      </trkpt>
      <trkpt lat="46.993" lon="-0.95898">
        <ele>71.5</ele>
        <time>2025-08-25T09:53:26Z</time>
      </trkpt>
      <trkpt lat="46.99298" lon="-0.95899">
        <ele>71.3</ele>
        <time>2025-08-25T09:53:27Z</time>
      </trkpt>
      <trkpt lat="46.99298" lon="-0.959">
        <ele>71.2</ele>
        <time>2025-08-25T09:53:28Z</time>
      </trkpt>
      <trkpt lat="46.99297" lon="-0.95901">
        <ele>71.1</ele>
        <time>2025-08-25T09:53:29Z</time>
      </trkpt>
      <trkpt lat="46.99296" lon="-0.95902">
        <ele>71</ele>
        <time>2025-08-25T09:53:30Z</time>
      </trkpt>
      <trkpt lat="46.99295" lon="-0.95903">
        <ele>70.9</ele>
        <time>2025-08-25T09:53:31Z</time>
      </trkpt>
      <trkpt lat="46.99294" lon="-0.95904">
        <ele>70.8</ele>
        <time>2025-08-25T09:53:32Z</time>
      </trkpt>
      <trkpt lat="46.99293" lon="-0.95905">
        <ele>70.8</ele>
        <time>2025-08-25T09:53:33Z</time>
      </trkpt>
      <trkpt lat="46.99292" lon="-0.95906">
        <ele>70.8</ele>
        <time>2025-08-25T09:53:34Z</time>
      </trkpt>
      <trkpt lat="46.99291" lon="-0.95908">
        <ele>70.8</ele>
        <time>2025-08-25T09:53:35Z</time>
      </trkpt>
      <trkpt lat="46.99291" lon="-0.95909">
        <ele>70.8</ele>
        <time>2025-08-25T09:53:36Z</time>
      </trkpt>
      <trkpt lat="46.9929" lon="-0.9591">
        <ele>70.8</ele>
        <time>2025-08-25T09:53:37Z</time>
      </trkpt>
      <trkpt lat="46.9929" lon="-0.95912">
        <ele>70.8</ele>
        <time>2025-08-25T09:53:38Z</time>
      </trkpt>
      <trkpt lat="46.9929" lon="-0.95913">
        <ele>70.8</ele>
        <time>2025-08-25T09:53:39Z</time>
      </trkpt>
      <trkpt lat="46.9929" lon="-0.95914">
        <ele>70.8</ele>
        <time>2025-08-25T09:53:40Z</time>
      </trkpt>
      <trkpt lat="46.9929" lon="-0.95914">
        <ele>70.8</ele>
        <time>2025-08-25T09:53:41Z</time>
      </trkpt>
      <trkpt lat="46.99289" lon="-0.95915">
        <ele>70.8</ele>
        <time>2025-08-25T09:53:42Z</time>
      </trkpt>
      <trkpt lat="46.99289" lon="-0.95916">
        <ele>70.8</ele>
        <time>2025-08-25T09:53:43Z</time>
      </trkpt>
      <trkpt lat="46.99288" lon="-0.95916">
        <ele>70.8</ele>
        <time>2025-08-25T09:53:44Z</time>
      </trkpt>
      <trkpt lat="46.99288" lon="-0.95918">
        <ele>70.8</ele>
        <time>2025-08-25T09:53:45Z</time>
      </trkpt>
      <trkpt lat="46.99288" lon="-0.95919">
        <ele>70.8</ele>
        <time>2025-08-25T09:53:46Z</time>
      </trkpt>
      <trkpt lat="46.99288" lon="-0.9592">
        <ele>70.8</ele>
        <time>2025-08-25T09:53:47Z</time>
      </trkpt>
      <trkpt lat="46.99288" lon="-0.9592">
        <ele>70.8</ele>
        <time>2025-08-25T09:53:48Z</time>
      </trkpt>
      <trkpt lat="46.99287" lon="-0.95919">
        <ele>70.8</ele>
        <time>2025-08-25T09:53:49Z</time>
      </trkpt>
      <trkpt lat="46.99288" lon="-0.95919">
        <ele>70.8</ele>
        <time>2025-08-25T09:53:50Z</time>
      </trkpt>
      <trkpt lat="46.99288" lon="-0.95919">
        <ele>70.8</ele>
        <time>2025-08-25T09:53:51Z</time>
      </trkpt>
      <trkpt lat="46.99288" lon="-0.95919">
        <ele>70.8</ele>
        <time>2025-08-25T09:53:52Z</time>
      </trkpt>
      <trkpt lat="46.99289" lon="-0.9592">
        <ele>70.7</ele>
        <time>2025-08-25T09:53:53Z</time>
      </trkpt>
      <trkpt lat="46.99289" lon="-0.9592">
        <ele>70.7</ele>
        <time>2025-08-25T09:53:54Z</time>
      </trkpt>
      <trkpt lat="46.99289" lon="-0.9592">
        <ele>70.7</ele>
        <time>2025-08-25T09:53:55Z</time>
      </trkpt>
      <trkpt lat="46.99289" lon="-0.95919">
        <ele>70.7</ele>
        <time>2025-08-25T09:53:56Z</time>
      </trkpt>
      <trkpt lat="46.99289" lon="-0.95919">
        <ele>70.7</ele>
        <time>2025-08-25T09:53:57Z</time>
      </trkpt>
      <trkpt lat="46.99289" lon="-0.95919">
        <ele>70.7</ele>
        <time>2025-08-25T09:53:58Z</time>
      </trkpt>
      <trkpt lat="46.99289" lon="-0.95919">
        <ele>70.7</ele>
        <time>2025-08-25T09:53:59Z</time>
      </trkpt>
      <trkpt lat="46.99289" lon="-0.95919">
        <ele>70.7</ele>
        <time>2025-08-25T09:54:00Z</time>
      </trkpt>
      <trkpt lat="46.99289" lon="-0.95919">
        <ele>70.7</ele>
        <time>2025-08-25T09:54:01Z</time>
      </trkpt>
      <trkpt lat="46.99289" lon="-0.95919">
        <ele>70.7</ele>
        <time>2025-08-25T09:54:02Z</time>
      </trkpt>
      <trkpt lat="46.99289" lon="-0.9592">
        <ele>70.7</ele>
        <time>2025-08-25T09:54:03Z</time>
      </trkpt>
      <trkpt lat="46.9929" lon="-0.9592">
        <ele>70.7</ele>
        <time>2025-08-25T09:54:04Z</time>
      </trkpt>
      <trkpt lat="46.9929" lon="-0.9592">
        <ele>70.7</ele>
        <time>2025-08-25T09:54:05Z</time>
      </trkpt>
      <trkpt lat="46.9929" lon="-0.9592">
        <ele>70.7</ele>
        <time>2025-08-25T09:54:06Z</time>
      </trkpt>
      <trkpt lat="46.9929" lon="-0.9592">
        <ele>70.7</ele>
        <time>2025-08-25T09:54:07Z</time>
      </trkpt>
      <trkpt lat="46.99291" lon="-0.95921">
        <ele>70.7</ele>
        <time>2025-08-25T09:54:08Z</time>
      </trkpt>
      <trkpt lat="46.99291" lon="-0.95921">
        <ele>70.7</ele>
        <time>2025-08-25T09:54:09Z</time>
      </trkpt>
      <trkpt lat="46.99291" lon="-0.95922">
        <ele>70.7</ele>
        <time>2025-08-25T09:54:10Z</time>
      </trkpt>
      <trkpt lat="46.99292" lon="-0.95922">
        <ele>70.7</ele>
        <time>2025-08-25T09:54:11Z</time>
      </trkpt>
      <trkpt lat="46.99291" lon="-0.95922">
        <ele>70.7</ele>
        <time>2025-08-25T09:54:12Z</time>
      </trkpt>
      <trkpt lat="46.99291" lon="-0.95922">
        <ele>70.7</ele>
        <time>2025-08-25T09:54:13Z</time>
      </trkpt>
      <trkpt lat="46.99291" lon="-0.95921">
        <ele>70.7</ele>
        <time>2025-08-25T09:54:14Z</time>
      </trkpt>
      <trkpt lat="46.99291" lon="-0.95921">
        <ele>70.7</ele>
        <time>2025-08-25T09:54:15Z</time>
      </trkpt>
      <trkpt lat="46.99291" lon="-0.95921">
        <ele>70.7</ele>
        <time>2025-08-25T09:54:16Z</time>
      </trkpt>
      <trkpt lat="46.99291" lon="-0.95921">
        <ele>70.7</ele>
        <time>2025-08-25T09:54:17Z</time>
      </trkpt>
      <trkpt lat="46.99291" lon="-0.95921">
        <ele>70.7</ele>
        <time>2025-08-25T09:54:18Z</time>
      </trkpt>
      <trkpt lat="46.99291" lon="-0.95921">
        <ele>70.7</ele>
        <time>2025-08-25T09:54:19Z</time>
      </trkpt>
      <trkpt lat="46.99291" lon="-0.95921">
        <ele>70.7</ele>
        <time>2025-08-25T09:54:20Z</time>
      </trkpt>
      <trkpt lat="46.99291" lon="-0.95921">
        <ele>70.7</ele>
        <time>2025-08-25T09:54:21Z</time>
      </trkpt>
      <trkpt lat="46.99291" lon="-0.95921">
        <ele>70.7</ele>
        <time>2025-08-25T09:54:22Z</time>
      </trkpt>
      <trkpt lat="46.99291" lon="-0.95921">
        <ele>70.7</ele>
        <time>2025-08-25T09:54:23Z</time>
      </trkpt>
      <trkpt lat="46.99291" lon="-0.95921">
        <ele>70.7</ele>
        <time>2025-08-25T09:54:24Z</time>
      </trkpt>
      <trkpt lat="46.99291" lon="-0.95921">
        <ele>70.7</ele>
        <time>2025-08-25T09:54:25Z</time>
      </trkpt>
      <trkpt lat="46.99291" lon="-0.95921">
        <ele>70.7</ele>
        <time>2025-08-25T09:54:26Z</time>
      </trkpt>
      <trkpt lat="46.99291" lon="-0.95921">
        <ele>70.7</ele>
        <time>2025-08-25T09:54:27Z</time>
      </trkpt>
      <trkpt lat="46.99292" lon="-0.9592">
        <ele>70.7</ele>
        <time>2025-08-25T09:54:28Z</time>
      </trkpt>
      <trkpt lat="46.99292" lon="-0.9592">
        <ele>70.7</ele>
        <time>2025-08-25T09:54:29Z</time>
      </trkpt>
      <trkpt lat="46.99293" lon="-0.95919">
        <ele>70.7</ele>
        <time>2025-08-25T09:54:30Z</time>
      </trkpt>
      <trkpt lat="46.99293" lon="-0.95918">
        <ele>70.7</ele>
        <time>2025-08-25T09:54:31Z</time>
      </trkpt>
      <trkpt lat="46.99293" lon="-0.95917">
        <ele>70.7</ele>
        <time>2025-08-25T09:54:32Z</time>
      </trkpt>
      <trkpt lat="46.99294" lon="-0.95916">
        <ele>70.7</ele>
        <time>2025-08-25T09:54:33Z</time>
      </trkpt>
      <trkpt lat="46.99294" lon="-0.95915">
        <ele>70.7</ele>
        <time>2025-08-25T09:54:34Z</time>
      </trkpt>
      <trkpt lat="46.99294" lon="-0.95914">
        <ele>70.7</ele>
        <time>2025-08-25T09:54:35Z</time>
      </trkpt>
      <trkpt lat="46.99295" lon="-0.95913">
        <ele>70.7</ele>
        <time>2025-08-25T09:54:36Z</time>
      </trkpt>
      <trkpt lat="46.99295" lon="-0.95912">
        <ele>70.7</ele>
        <time>2025-08-25T09:54:37Z</time>
      </trkpt>
      <trkpt lat="46.99295" lon="-0.95912">
        <ele>70.7</ele>
        <time>2025-08-25T09:54:38Z</time>
      </trkpt>
      <trkpt lat="46.99295" lon="-0.95911">
        <ele>70.7</ele>
        <time>2025-08-25T09:54:39Z</time>
      </trkpt>
      <trkpt lat="46.99295" lon="-0.95912">
        <ele>70.7</ele>
        <time>2025-08-25T09:54:40Z</time>
      </trkpt>
      <trkpt lat="46.99295" lon="-0.95911">
        <ele>70.7</ele>
        <time>2025-08-25T09:54:41Z</time>
      </trkpt>
      <trkpt lat="46.99295" lon="-0.95911">
        <ele>70.7</ele>
        <time>2025-08-25T09:54:42Z</time>
      </trkpt>
      <trkpt lat="46.99295" lon="-0.95911">
        <ele>70.7</ele>
        <time>2025-08-25T09:54:43Z</time>
      </trkpt>
      <trkpt lat="46.99295" lon="-0.95911">
        <ele>70.7</ele>
        <time>2025-08-25T09:54:44Z</time>
      </trkpt>
      <trkpt lat="46.99295" lon="-0.95911">
        <ele>70.7</ele>
        <time>2025-08-25T09:54:45Z</time>
      </trkpt>
      <trkpt lat="46.99295" lon="-0.9591">
        <ele>70.7</ele>
        <time>2025-08-25T09:54:46Z</time>
      </trkpt>
      <trkpt lat="46.99295" lon="-0.9591">
        <ele>70.7</ele>
        <time>2025-08-25T09:54:47Z</time>
      </trkpt>
      <trkpt lat="46.99295" lon="-0.9591">
        <ele>70.7</ele>
        <time>2025-08-25T09:54:48Z</time>
      </trkpt>
      <trkpt lat="46.99295" lon="-0.9591">
        <ele>70.7</ele>
        <time>2025-08-25T09:54:49Z</time>
      </trkpt>
      <trkpt lat="46.99295" lon="-0.9591">
        <ele>70.7</ele>
        <time>2025-08-25T09:54:50Z</time>
      </trkpt>
      <trkpt lat="46.99295" lon="-0.9591">
        <ele>70.7</ele>
        <time>2025-08-25T09:54:51Z</time>
      </trkpt>
      <trkpt lat="46.99295" lon="-0.9591">
        <ele>70.7</ele>
        <time>2025-08-25T09:54:52Z</time>
      </trkpt>
      <trkpt lat="46.99296" lon="-0.9591">
        <ele>70.7</ele>
        <time>2025-08-25T09:54:53Z</time>
      </trkpt>
      <trkpt lat="46.99296" lon="-0.9591">
        <ele>70.7</ele>
        <time>2025-08-25T09:54:54Z</time>
      </trkpt>
      <trkpt lat="46.99296" lon="-0.9591">
        <ele>70.7</ele>
        <time>2025-08-25T09:54:55Z</time>
      </trkpt>
      <trkpt lat="46.99297" lon="-0.95911">
        <ele>70.7</ele>
        <time>2025-08-25T09:54:56Z</time>
      </trkpt>
      <trkpt lat="46.99298" lon="-0.95912">
        <ele>70.7</ele>
        <time>2025-08-25T09:54:57Z</time>
      </trkpt>
      <trkpt lat="46.993" lon="-0.95913">
        <ele>70.7</ele>
        <time>2025-08-25T09:54:58Z</time>
      </trkpt>
      <trkpt lat="46.99302" lon="-0.95913">
        <ele>70.7</ele>
        <time>2025-08-25T09:54:59Z</time>
      </trkpt>
      <trkpt lat="46.99304" lon="-0.95915">
        <ele>70.6</ele>
        <time>2025-08-25T09:55:00Z</time>
      </trkpt>
      <trkpt lat="46.99304" lon="-0.95915">
        <ele>70.6</ele>
        <time>2025-08-25T09:55:01Z</time>
      </trkpt>
      <trkpt lat="46.99305" lon="-0.95916">
        <ele>70.6</ele>
        <time>2025-08-25T09:55:02Z</time>
      </trkpt>
      <trkpt lat="46.99307" lon="-0.95917">
        <ele>70.6</ele>
        <time>2025-08-25T09:55:03Z</time>
      </trkpt>
      <trkpt lat="46.99308" lon="-0.95917">
        <ele>70.6</ele>
        <time>2025-08-25T09:55:04Z</time>
      </trkpt>
      <trkpt lat="46.99308" lon="-0.95918">
        <ele>70.6</ele>
        <time>2025-08-25T09:55:05Z</time>
      </trkpt>
      <trkpt lat="46.9931" lon="-0.95919">
        <ele>70.6</ele>
        <time>2025-08-25T09:55:06Z</time>
      </trkpt>
      <trkpt lat="46.99311" lon="-0.9592">
        <ele>70.6</ele>
        <time>2025-08-25T09:55:07Z</time>
      </trkpt>
      <trkpt lat="46.99312" lon="-0.9592">
        <ele>70.6</ele>
        <time>2025-08-25T09:55:08Z</time>
      </trkpt>
      <trkpt lat="46.99313" lon="-0.95922">
        <ele>70.6</ele>
        <time>2025-08-25T09:55:09Z</time>
      </trkpt>
      <trkpt lat="46.99314" lon="-0.95923">
        <ele>70.5</ele>
        <time>2025-08-25T09:55:10Z</time>
      </trkpt>
      <trkpt lat="46.99314" lon="-0.95924">
        <ele>70.5</ele>
        <time>2025-08-25T09:55:11Z</time>
      </trkpt>
      <trkpt lat="46.99314" lon="-0.95928">
        <ele>70.5</ele>
        <time>2025-08-25T09:55:12Z</time>
      </trkpt>
      <trkpt lat="46.99314" lon="-0.9593">
        <ele>70.5</ele>
        <time>2025-08-25T09:55:13Z</time>
      </trkpt>
      <trkpt lat="46.99315" lon="-0.95931">
        <ele>70.4</ele>
        <time>2025-08-25T09:55:14Z</time>
      </trkpt>
      <trkpt lat="46.99315" lon="-0.95933">
        <ele>70.4</ele>
        <time>2025-08-25T09:55:15Z</time>
      </trkpt>
      <trkpt lat="46.99316" lon="-0.95934">
        <ele>70.4</ele>
        <time>2025-08-25T09:55:16Z</time>
      </trkpt>
      <trkpt lat="46.99316" lon="-0.95935">
        <ele>70.4</ele>
        <time>2025-08-25T09:55:17Z</time>
      </trkpt>
      <trkpt lat="46.99316" lon="-0.95937">
        <ele>70.4</ele>
        <time>2025-08-25T09:55:18Z</time>
      </trkpt>
      <trkpt lat="46.99317" lon="-0.95938">
        <ele>70.4</ele>
        <time>2025-08-25T09:55:19Z</time>
      </trkpt>
      <trkpt lat="46.99317" lon="-0.95939">
        <ele>70.3</ele>
        <time>2025-08-25T09:55:20Z</time>
      </trkpt>
      <trkpt lat="46.99318" lon="-0.9594">
        <ele>70.3</ele>
        <time>2025-08-25T09:55:21Z</time>
      </trkpt>
      <trkpt lat="46.99319" lon="-0.95941">
        <ele>70.3</ele>
        <time>2025-08-25T09:55:22Z</time>
      </trkpt>
      <trkpt lat="46.99319" lon="-0.95943">
        <ele>70.3</ele>
        <time>2025-08-25T09:55:23Z</time>
      </trkpt>
      <trkpt lat="46.99319" lon="-0.95944">
        <ele>70.3</ele>
        <time>2025-08-25T09:55:24Z</time>
      </trkpt>
      <trkpt lat="46.9932" lon="-0.95945">
        <ele>70.3</ele>
        <time>2025-08-25T09:55:25Z</time>
      </trkpt>
      <trkpt lat="46.9932" lon="-0.95947">
        <ele>70.3</ele>
        <time>2025-08-25T09:55:26Z</time>
      </trkpt>
      <trkpt lat="46.99321" lon="-0.95948">
        <ele>70.3</ele>
        <time>2025-08-25T09:55:27Z</time>
      </trkpt>
      <trkpt lat="46.99321" lon="-0.9595">
        <ele>70.2</ele>
        <time>2025-08-25T09:55:28Z</time>
      </trkpt>
      <trkpt lat="46.99323" lon="-0.95952">
        <ele>70.2</ele>
        <time>2025-08-25T09:55:29Z</time>
      </trkpt>
      <trkpt lat="46.99324" lon="-0.95952">
        <ele>70.2</ele>
        <time>2025-08-25T09:55:30Z</time>
      </trkpt>
      <trkpt lat="46.99324" lon="-0.95953">
        <ele>70.2</ele>
        <time>2025-08-25T09:55:31Z</time>
      </trkpt>
      <trkpt lat="46.99326" lon="-0.95954">
        <ele>70.2</ele>
        <time>2025-08-25T09:55:32Z</time>
      </trkpt>
      <trkpt lat="46.99327" lon="-0.95955">
        <ele>70.2</ele>
        <time>2025-08-25T09:55:33Z</time>
      </trkpt>
      <trkpt lat="46.99328" lon="-0.95957">
        <ele>70.2</ele>
        <time>2025-08-25T09:55:34Z</time>
      </trkpt>
      <trkpt lat="46.99329" lon="-0.95958">
        <ele>70.2</ele>
        <time>2025-08-25T09:55:35Z</time>
      </trkpt>
      <trkpt lat="46.9933" lon="-0.95959">
        <ele>70.2</ele>
        <time>2025-08-25T09:55:36Z</time>
      </trkpt>
      <trkpt lat="46.99331" lon="-0.95961">
        <ele>70.2</ele>
        <time>2025-08-25T09:55:37Z</time>
      </trkpt>
      <trkpt lat="46.99332" lon="-0.95962">
        <ele>70.2</ele>
        <time>2025-08-25T09:55:38Z</time>
      </trkpt>
      <trkpt lat="46.99333" lon="-0.95965">
        <ele>70.2</ele>
        <time>2025-08-25T09:55:39Z</time>
      </trkpt>
      <trkpt lat="46.99334" lon="-0.95966">
        <ele>70.2</ele>
        <time>2025-08-25T09:55:40Z</time>
      </trkpt>
      <trkpt lat="46.99335" lon="-0.95966">
        <ele>70.2</ele>
        <time>2025-08-25T09:55:41Z</time>
      </trkpt>
      <trkpt lat="46.99336" lon="-0.95969">
        <ele>70.2</ele>
        <time>2025-08-25T09:55:42Z</time>
      </trkpt>
      <trkpt lat="46.99337" lon="-0.9597">
        <ele>70.2</ele>
        <time>2025-08-25T09:55:43Z</time>
      </trkpt>
      <trkpt lat="46.99337" lon="-0.95971">
        <ele>70.2</ele>
        <time>2025-08-25T09:55:44Z</time>
      </trkpt>
      <trkpt lat="46.99338" lon="-0.95972">
        <ele>70.2</ele>
        <time>2025-08-25T09:55:45Z</time>
      </trkpt>
      <trkpt lat="46.99339" lon="-0.95974">
        <ele>70.2</ele>
        <time>2025-08-25T09:55:46Z</time>
      </trkpt>
      <trkpt lat="46.99339" lon="-0.95975">
        <ele>70.2</ele>
        <time>2025-08-25T09:55:47Z</time>
      </trkpt>
      <trkpt lat="46.9934" lon="-0.95976">
        <ele>70.2</ele>
        <time>2025-08-25T09:55:48Z</time>
      </trkpt>
      <trkpt lat="46.9934" lon="-0.95976">
        <ele>70.2</ele>
        <time>2025-08-25T09:55:49Z</time>
      </trkpt>
      <trkpt lat="46.99341" lon="-0.95977">
        <ele>70.2</ele>
        <time>2025-08-25T09:55:50Z</time>
      </trkpt>
      <trkpt lat="46.99341" lon="-0.95978">
        <ele>70.3</ele>
        <time>2025-08-25T09:55:51Z</time>
      </trkpt>
      <trkpt lat="46.99342" lon="-0.95979">
        <ele>70.3</ele>
        <time>2025-08-25T09:55:52Z</time>
      </trkpt>
      <trkpt lat="46.99342" lon="-0.95979">
        <ele>70.3</ele>
        <time>2025-08-25T09:55:53Z</time>
      </trkpt>
      <trkpt lat="46.99343" lon="-0.95979">
        <ele>70.3</ele>
        <time>2025-08-25T09:55:54Z</time>
      </trkpt>
      <trkpt lat="46.99344" lon="-0.9598">
        <ele>70.3</ele>
        <time>2025-08-25T09:55:55Z</time>
      </trkpt>
      <trkpt lat="46.99344" lon="-0.95981">
        <ele>70.3</ele>
        <time>2025-08-25T09:55:56Z</time>
      </trkpt>
      <trkpt lat="46.99345" lon="-0.95981">
        <ele>70.3</ele>
        <time>2025-08-25T09:55:57Z</time>
      </trkpt>
      <trkpt lat="46.99346" lon="-0.95982">
        <ele>70.3</ele>
        <time>2025-08-25T09:55:58Z</time>
      </trkpt>
      <trkpt lat="46.99346" lon="-0.95983">
        <ele>70.3</ele>
        <time>2025-08-25T09:55:59Z</time>
      </trkpt>
      <trkpt lat="46.99346" lon="-0.95983">
        <ele>70.3</ele>
        <time>2025-08-25T09:56:00Z</time>
      </trkpt>
      <trkpt lat="46.99346" lon="-0.95984">
        <ele>70.3</ele>
        <time>2025-08-25T09:56:01Z</time>
      </trkpt>
      <trkpt lat="46.99346" lon="-0.95984">
        <ele>70.3</ele>
        <time>2025-08-25T09:56:02Z</time>
      </trkpt>
      <trkpt lat="46.99346" lon="-0.95986">
        <ele>70.3</ele>
        <time>2025-08-25T09:56:03Z</time>
      </trkpt>
      <trkpt lat="46.99346" lon="-0.95987">
        <ele>70.2</ele>
        <time>2025-08-25T09:56:04Z</time>
      </trkpt>
      <trkpt lat="46.99347" lon="-0.95989">
        <ele>70.2</ele>
        <time>2025-08-25T09:56:05Z</time>
      </trkpt>
      <trkpt lat="46.99347" lon="-0.9599">
        <ele>70.1</ele>
        <time>2025-08-25T09:56:06Z</time>
      </trkpt>
      <trkpt lat="46.99347" lon="-0.95991">
        <ele>70.1</ele>
        <time>2025-08-25T09:56:07Z</time>
      </trkpt>
      <trkpt lat="46.99348" lon="-0.95993">
        <ele>70</ele>
        <time>2025-08-25T09:56:08Z</time>
      </trkpt>
      <trkpt lat="46.99348" lon="-0.95995">
        <ele>70</ele>
        <time>2025-08-25T09:56:09Z</time>
      </trkpt>
      <trkpt lat="46.99348" lon="-0.95996">
        <ele>69.9</ele>
        <time>2025-08-25T09:56:10Z</time>
      </trkpt>
      <trkpt lat="46.99348" lon="-0.95997">
        <ele>69.9</ele>
        <time>2025-08-25T09:56:11Z</time>
      </trkpt>
      <trkpt lat="46.99348" lon="-0.95999">
        <ele>69.8</ele>
        <time>2025-08-25T09:56:12Z</time>
      </trkpt>
      <trkpt lat="46.99348" lon="-0.96">
        <ele>69.8</ele>
        <time>2025-08-25T09:56:13Z</time>
      </trkpt>
      <trkpt lat="46.99349" lon="-0.96001">
        <ele>69.8</ele>
        <time>2025-08-25T09:56:14Z</time>
      </trkpt>
      <trkpt lat="46.99349" lon="-0.96002">
        <ele>69.7</ele>
        <time>2025-08-25T09:56:15Z</time>
      </trkpt>
      <trkpt lat="46.99349" lon="-0.96003">
        <ele>69.7</ele>
        <time>2025-08-25T09:56:16Z</time>
      </trkpt>
      <trkpt lat="46.99349" lon="-0.96005">
        <ele>69.7</ele>
        <time>2025-08-25T09:56:17Z</time>
      </trkpt>
      <trkpt lat="46.9935" lon="-0.96006">
        <ele>69.6</ele>
        <time>2025-08-25T09:56:18Z</time>
      </trkpt>
      <trkpt lat="46.9935" lon="-0.96007">
        <ele>69.6</ele>
        <time>2025-08-25T09:56:19Z</time>
      </trkpt>
      <trkpt lat="46.9935" lon="-0.96009">
        <ele>69.6</ele>
        <time>2025-08-25T09:56:20Z</time>
      </trkpt>
      <trkpt lat="46.99351" lon="-0.96011">
        <ele>69.5</ele>
        <time>2025-08-25T09:56:21Z</time>
      </trkpt>
      <trkpt lat="46.99352" lon="-0.96013">
        <ele>69.5</ele>
        <time>2025-08-25T09:56:22Z</time>
      </trkpt>
      <trkpt lat="46.99352" lon="-0.96015">
        <ele>69.5</ele>
        <time>2025-08-25T09:56:23Z</time>
      </trkpt>
      <trkpt lat="46.99353" lon="-0.96017">
        <ele>69.5</ele>
        <time>2025-08-25T09:56:24Z</time>
      </trkpt>
      <trkpt lat="46.99355" lon="-0.9602">
        <ele>69.4</ele>
        <time>2025-08-25T09:56:25Z</time>
      </trkpt>
      <trkpt lat="46.99355" lon="-0.96022">
        <ele>69.4</ele>
        <time>2025-08-25T09:56:26Z</time>
      </trkpt>
      <trkpt lat="46.99356" lon="-0.96024">
        <ele>69.4</ele>
        <time>2025-08-25T09:56:27Z</time>
      </trkpt>
      <trkpt lat="46.99357" lon="-0.96026">
        <ele>69.4</ele>
        <time>2025-08-25T09:56:28Z</time>
      </trkpt>
      <trkpt lat="46.99358" lon="-0.96027">
        <ele>69.4</ele>
        <time>2025-08-25T09:56:29Z</time>
      </trkpt>
      <trkpt lat="46.99358" lon="-0.96029">
        <ele>69.3</ele>
        <time>2025-08-25T09:56:30Z</time>
      </trkpt>
      <trkpt lat="46.99359" lon="-0.96032">
        <ele>69.3</ele>
        <time>2025-08-25T09:56:31Z</time>
      </trkpt>
      <trkpt lat="46.99359" lon="-0.96033">
        <ele>69.3</ele>
        <time>2025-08-25T09:56:32Z</time>
      </trkpt>
      <trkpt lat="46.9936" lon="-0.96034">
        <ele>69.3</ele>
        <time>2025-08-25T09:56:33Z</time>
      </trkpt>
      <trkpt lat="46.99361" lon="-0.96037">
        <ele>69.3</ele>
        <time>2025-08-25T09:56:34Z</time>
      </trkpt>
      <trkpt lat="46.99362" lon="-0.96038">
        <ele>69.3</ele>
        <time>2025-08-25T09:56:35Z</time>
      </trkpt>
      <trkpt lat="46.99362" lon="-0.96039">
        <ele>69.3</ele>
        <time>2025-08-25T09:56:36Z</time>
      </trkpt>
      <trkpt lat="46.99363" lon="-0.9604">
        <ele>69.3</ele>
        <time>2025-08-25T09:56:37Z</time>
      </trkpt>
      <trkpt lat="46.99363" lon="-0.96041">
        <ele>69.3</ele>
        <time>2025-08-25T09:56:38Z</time>
      </trkpt>
      <trkpt lat="46.99364" lon="-0.96042">
        <ele>69.2</ele>
        <time>2025-08-25T09:56:39Z</time>
      </trkpt>
      <trkpt lat="46.99365" lon="-0.96043">
        <ele>69.2</ele>
        <time>2025-08-25T09:56:40Z</time>
      </trkpt>
      <trkpt lat="46.99367" lon="-0.96044">
        <ele>69.2</ele>
        <time>2025-08-25T09:56:41Z</time>
      </trkpt>
      <trkpt lat="46.99368" lon="-0.96045">
        <ele>69.2</ele>
        <time>2025-08-25T09:56:42Z</time>
      </trkpt>
      <trkpt lat="46.99369" lon="-0.96045">
        <ele>69.2</ele>
        <time>2025-08-25T09:56:43Z</time>
      </trkpt>
      <trkpt lat="46.9937" lon="-0.96046">
        <ele>69.2</ele>
        <time>2025-08-25T09:56:44Z</time>
      </trkpt>
      <trkpt lat="46.99371" lon="-0.96047">
        <ele>69.2</ele>
        <time>2025-08-25T09:56:45Z</time>
      </trkpt>
      <trkpt lat="46.99372" lon="-0.96048">
        <ele>69.2</ele>
        <time>2025-08-25T09:56:46Z</time>
      </trkpt>
      <trkpt lat="46.99374" lon="-0.9605">
        <ele>69.1</ele>
        <time>2025-08-25T09:56:47Z</time>
      </trkpt>
      <trkpt lat="46.99375" lon="-0.96051">
        <ele>69.1</ele>
        <time>2025-08-25T09:56:48Z</time>
      </trkpt>
      <trkpt lat="46.99376" lon="-0.96052">
        <ele>69.1</ele>
        <time>2025-08-25T09:56:49Z</time>
      </trkpt>
      <trkpt lat="46.99377" lon="-0.96053">
        <ele>69.1</ele>
        <time>2025-08-25T09:56:50Z</time>
      </trkpt>
      <trkpt lat="46.99377" lon="-0.96055">
        <ele>69.1</ele>
        <time>2025-08-25T09:56:51Z</time>
      </trkpt>
      <trkpt lat="46.99379" lon="-0.96058">
        <ele>69.1</ele>
        <time>2025-08-25T09:56:52Z</time>
      </trkpt>
      <trkpt lat="46.99379" lon="-0.96059">
        <ele>69.1</ele>
        <time>2025-08-25T09:56:53Z</time>
      </trkpt>
      <trkpt lat="46.9938" lon="-0.9606">
        <ele>69.1</ele>
        <time>2025-08-25T09:56:54Z</time>
      </trkpt>
      <trkpt lat="46.9938" lon="-0.96061">
        <ele>69.1</ele>
        <time>2025-08-25T09:56:55Z</time>
      </trkpt>
      <trkpt lat="46.99381" lon="-0.96063">
        <ele>69.1</ele>
        <time>2025-08-25T09:56:56Z</time>
      </trkpt>
      <trkpt lat="46.99382" lon="-0.96064">
        <ele>69.1</ele>
        <time>2025-08-25T09:56:57Z</time>
      </trkpt>
      <trkpt lat="46.99383" lon="-0.96066">
        <ele>69.1</ele>
        <time>2025-08-25T09:56:58Z</time>
      </trkpt>
      <trkpt lat="46.99384" lon="-0.96068">
        <ele>69.1</ele>
        <time>2025-08-25T09:56:59Z</time>
      </trkpt>
      <trkpt lat="46.99384" lon="-0.9607">
        <ele>69.1</ele>
        <time>2025-08-25T09:57:00Z</time>
      </trkpt>
      <trkpt lat="46.99385" lon="-0.96072">
        <ele>69.1</ele>
        <time>2025-08-25T09:57:01Z</time>
      </trkpt>
      <trkpt lat="46.99385" lon="-0.96074">
        <ele>69.1</ele>
        <time>2025-08-25T09:57:02Z</time>
      </trkpt>
      <trkpt lat="46.99386" lon="-0.96076">
        <ele>69.1</ele>
        <time>2025-08-25T09:57:03Z</time>
      </trkpt>
      <trkpt lat="46.99386" lon="-0.96078">
        <ele>69.1</ele>
        <time>2025-08-25T09:57:04Z</time>
      </trkpt>
      <trkpt lat="46.99387" lon="-0.96081">
        <ele>69.1</ele>
        <time>2025-08-25T09:57:05Z</time>
      </trkpt>
      <trkpt lat="46.99388" lon="-0.96082">
        <ele>69.1</ele>
        <time>2025-08-25T09:57:06Z</time>
      </trkpt>
      <trkpt lat="46.99388" lon="-0.96083">
        <ele>69.1</ele>
        <time>2025-08-25T09:57:07Z</time>
      </trkpt>
      <trkpt lat="46.99389" lon="-0.96086">
        <ele>69.1</ele>
        <time>2025-08-25T09:57:08Z</time>
      </trkpt>
      <trkpt lat="46.9939" lon="-0.96087">
        <ele>69.1</ele>
        <time>2025-08-25T09:57:09Z</time>
      </trkpt>
      <trkpt lat="46.9939" lon="-0.96088">
        <ele>69.1</ele>
        <time>2025-08-25T09:57:10Z</time>
      </trkpt>
      <trkpt lat="46.99391" lon="-0.96089">
        <ele>69.1</ele>
        <time>2025-08-25T09:57:11Z</time>
      </trkpt>
      <trkpt lat="46.99392" lon="-0.96091">
        <ele>69.1</ele>
        <time>2025-08-25T09:57:12Z</time>
      </trkpt>
      <trkpt lat="46.99393" lon="-0.96092">
        <ele>69.1</ele>
        <time>2025-08-25T09:57:13Z</time>
      </trkpt>
      <trkpt lat="46.99394" lon="-0.96094">
        <ele>69.1</ele>
        <time>2025-08-25T09:57:14Z</time>
      </trkpt>
      <trkpt lat="46.99395" lon="-0.96094">
        <ele>69.1</ele>
        <time>2025-08-25T09:57:15Z</time>
      </trkpt>
      <trkpt lat="46.99396" lon="-0.96095">
        <ele>69.1</ele>
        <time>2025-08-25T09:57:16Z</time>
      </trkpt>
      <trkpt lat="46.99397" lon="-0.96096">
        <ele>69.1</ele>
        <time>2025-08-25T09:57:17Z</time>
      </trkpt>
      <trkpt lat="46.99397" lon="-0.96097">
        <ele>69.1</ele>
        <time>2025-08-25T09:57:18Z</time>
      </trkpt>
      <trkpt lat="46.99398" lon="-0.96097">
        <ele>69.1</ele>
        <time>2025-08-25T09:57:19Z</time>
      </trkpt>
      <trkpt lat="46.99399" lon="-0.96098">
        <ele>69.1</ele>
        <time>2025-08-25T09:57:20Z</time>
      </trkpt>
      <trkpt lat="46.994" lon="-0.96099">
        <ele>69.1</ele>
        <time>2025-08-25T09:57:21Z</time>
      </trkpt>
      <trkpt lat="46.99401" lon="-0.96099">
        <ele>69.1</ele>
        <time>2025-08-25T09:57:22Z</time>
      </trkpt>
      <trkpt lat="46.99402" lon="-0.961">
        <ele>69.1</ele>
        <time>2025-08-25T09:57:23Z</time>
      </trkpt>
      <trkpt lat="46.99403" lon="-0.96101">
        <ele>69.1</ele>
        <time>2025-08-25T09:57:24Z</time>
      </trkpt>
      <trkpt lat="46.99404" lon="-0.96102">
        <ele>69.1</ele>
        <time>2025-08-25T09:57:25Z</time>
      </trkpt>
      <trkpt lat="46.99405" lon="-0.96104">
        <ele>69.1</ele>
        <time>2025-08-25T09:57:26Z</time>
      </trkpt>
      <trkpt lat="46.99406" lon="-0.96105">
        <ele>69.1</ele>
        <time>2025-08-25T09:57:27Z</time>
      </trkpt>
      <trkpt lat="46.99407" lon="-0.96106">
        <ele>69.1</ele>
        <time>2025-08-25T09:57:28Z</time>
      </trkpt>
      <trkpt lat="46.99408" lon="-0.96108">
        <ele>69.1</ele>
        <time>2025-08-25T09:57:29Z</time>
      </trkpt>
      <trkpt lat="46.99409" lon="-0.96109">
        <ele>69.1</ele>
        <time>2025-08-25T09:57:30Z</time>
      </trkpt>
      <trkpt lat="46.99409" lon="-0.96109">
        <ele>69.1</ele>
        <time>2025-08-25T09:57:31Z</time>
      </trkpt>
      <trkpt lat="46.99411" lon="-0.96111">
        <ele>69.1</ele>
        <time>2025-08-25T09:57:32Z</time>
      </trkpt>
      <trkpt lat="46.99412" lon="-0.96112">
        <ele>69.1</ele>
        <time>2025-08-25T09:57:33Z</time>
      </trkpt>
      <trkpt lat="46.99413" lon="-0.96113">
        <ele>69.1</ele>
        <time>2025-08-25T09:57:34Z</time>
      </trkpt>
      <trkpt lat="46.99414" lon="-0.96115">
        <ele>69.1</ele>
        <time>2025-08-25T09:57:35Z</time>
      </trkpt>
      <trkpt lat="46.99415" lon="-0.96116">
        <ele>69.1</ele>
        <time>2025-08-25T09:57:36Z</time>
      </trkpt>
      <trkpt lat="46.99417" lon="-0.96118">
        <ele>69.1</ele>
        <time>2025-08-25T09:57:37Z</time>
      </trkpt>
      <trkpt lat="46.99418" lon="-0.9612">
        <ele>69.1</ele>
        <time>2025-08-25T09:57:38Z</time>
      </trkpt>
      <trkpt lat="46.99419" lon="-0.96121">
        <ele>69.1</ele>
        <time>2025-08-25T09:57:39Z</time>
      </trkpt>
      <trkpt lat="46.9942" lon="-0.96122">
        <ele>69.1</ele>
        <time>2025-08-25T09:57:40Z</time>
      </trkpt>
      <trkpt lat="46.9942" lon="-0.96123">
        <ele>69.1</ele>
        <time>2025-08-25T09:57:41Z</time>
      </trkpt>
      <trkpt lat="46.99421" lon="-0.96124">
        <ele>69.1</ele>
        <time>2025-08-25T09:57:42Z</time>
      </trkpt>
      <trkpt lat="46.99422" lon="-0.96126">
        <ele>69.1</ele>
        <time>2025-08-25T09:57:43Z</time>
      </trkpt>
      <trkpt lat="46.99422" lon="-0.96126">
        <ele>69</ele>
        <time>2025-08-25T09:57:44Z</time>
      </trkpt>
      <trkpt lat="46.99423" lon="-0.96127">
        <ele>69</ele>
        <time>2025-08-25T09:57:45Z</time>
      </trkpt>
      <trkpt lat="46.99423" lon="-0.96129">
        <ele>69</ele>
        <time>2025-08-25T09:57:46Z</time>
      </trkpt>
      <trkpt lat="46.99424" lon="-0.9613">
        <ele>69</ele>
        <time>2025-08-25T09:57:47Z</time>
      </trkpt>
      <trkpt lat="46.99424" lon="-0.96131">
        <ele>69</ele>
        <time>2025-08-25T09:57:48Z</time>
      </trkpt>
      <trkpt lat="46.99424" lon="-0.96133">
        <ele>69</ele>
        <time>2025-08-25T09:57:49Z</time>
      </trkpt>
      <trkpt lat="46.99425" lon="-0.96134">
        <ele>69</ele>
        <time>2025-08-25T09:57:50Z</time>
      </trkpt>
      <trkpt lat="46.99425" lon="-0.96136">
        <ele>69</ele>
        <time>2025-08-25T09:57:51Z</time>
      </trkpt>
      <trkpt lat="46.99426" lon="-0.96137">
        <ele>69</ele>
        <time>2025-08-25T09:57:52Z</time>
      </trkpt>
      <trkpt lat="46.99427" lon="-0.96138">
        <ele>69</ele>
        <time>2025-08-25T09:57:53Z</time>
      </trkpt>
      <trkpt lat="46.99427" lon="-0.9614">
        <ele>69</ele>
        <time>2025-08-25T09:57:54Z</time>
      </trkpt>
      <trkpt lat="46.99428" lon="-0.96141">
        <ele>69</ele>
        <time>2025-08-25T09:57:55Z</time>
      </trkpt>
      <trkpt lat="46.99428" lon="-0.96143">
        <ele>69</ele>
        <time>2025-08-25T09:57:56Z</time>
      </trkpt>
      <trkpt lat="46.9943" lon="-0.96146">
        <ele>69</ele>
        <time>2025-08-25T09:57:57Z</time>
      </trkpt>
      <trkpt lat="46.9943" lon="-0.96147">
        <ele>69</ele>
        <time>2025-08-25T09:57:58Z</time>
      </trkpt>
      <trkpt lat="46.99431" lon="-0.96148">
        <ele>69</ele>
        <time>2025-08-25T09:57:59Z</time>
      </trkpt>
      <trkpt lat="46.99432" lon="-0.96149">
        <ele>68.9</ele>
        <time>2025-08-25T09:58:00Z</time>
      </trkpt>
      <trkpt lat="46.99432" lon="-0.96151">
        <ele>68.9</ele>
        <time>2025-08-25T09:58:01Z</time>
      </trkpt>
      <trkpt lat="46.99434" lon="-0.96153">
        <ele>68.9</ele>
        <time>2025-08-25T09:58:02Z</time>
      </trkpt>
      <trkpt lat="46.99434" lon="-0.96154">
        <ele>68.9</ele>
        <time>2025-08-25T09:58:03Z</time>
      </trkpt>
      <trkpt lat="46.99435" lon="-0.96155">
        <ele>68.9</ele>
        <time>2025-08-25T09:58:04Z</time>
      </trkpt>
      <trkpt lat="46.99436" lon="-0.96157">
        <ele>68.9</ele>
        <time>2025-08-25T09:58:05Z</time>
      </trkpt>
      <trkpt lat="46.99437" lon="-0.96158">
        <ele>68.9</ele>
        <time>2025-08-25T09:58:06Z</time>
      </trkpt>
      <trkpt lat="46.99438" lon="-0.96159">
        <ele>68.9</ele>
        <time>2025-08-25T09:58:07Z</time>
      </trkpt>
      <trkpt lat="46.99438" lon="-0.9616">
        <ele>68.9</ele>
        <time>2025-08-25T09:58:08Z</time>
      </trkpt>
      <trkpt lat="46.99439" lon="-0.96161">
        <ele>68.9</ele>
        <time>2025-08-25T09:58:09Z</time>
      </trkpt>
      <trkpt lat="46.9944" lon="-0.96162">
        <ele>68.9</ele>
        <time>2025-08-25T09:58:10Z</time>
      </trkpt>
      <trkpt lat="46.9944" lon="-0.96163">
        <ele>68.9</ele>
        <time>2025-08-25T09:58:11Z</time>
      </trkpt>
      <trkpt lat="46.99441" lon="-0.96164">
        <ele>68.9</ele>
        <time>2025-08-25T09:58:12Z</time>
      </trkpt>
      <trkpt lat="46.99442" lon="-0.96165">
        <ele>68.8</ele>
        <time>2025-08-25T09:58:13Z</time>
      </trkpt>
      <trkpt lat="46.99442" lon="-0.96166">
        <ele>68.8</ele>
        <time>2025-08-25T09:58:14Z</time>
      </trkpt>
      <trkpt lat="46.99443" lon="-0.96167">
        <ele>68.8</ele>
        <time>2025-08-25T09:58:15Z</time>
      </trkpt>
      <trkpt lat="46.99443" lon="-0.96169">
        <ele>68.8</ele>
        <time>2025-08-25T09:58:16Z</time>
      </trkpt>
      <trkpt lat="46.99443" lon="-0.96171">
        <ele>68.8</ele>
        <time>2025-08-25T09:58:17Z</time>
      </trkpt>
      <trkpt lat="46.99444" lon="-0.96172">
        <ele>68.8</ele>
        <time>2025-08-25T09:58:18Z</time>
      </trkpt>
      <trkpt lat="46.99444" lon="-0.96175">
        <ele>68.8</ele>
        <time>2025-08-25T09:58:19Z</time>
      </trkpt>
      <trkpt lat="46.99445" lon="-0.96176">
        <ele>68.8</ele>
        <time>2025-08-25T09:58:20Z</time>
      </trkpt>
      <trkpt lat="46.99445" lon="-0.96178">
        <ele>68.8</ele>
        <time>2025-08-25T09:58:21Z</time>
      </trkpt>
      <trkpt lat="46.99446" lon="-0.96181">
        <ele>68.8</ele>
        <time>2025-08-25T09:58:22Z</time>
      </trkpt>
      <trkpt lat="46.99446" lon="-0.96182">
        <ele>68.8</ele>
        <time>2025-08-25T09:58:23Z</time>
      </trkpt>
      <trkpt lat="46.99447" lon="-0.96183">
        <ele>68.8</ele>
        <time>2025-08-25T09:58:24Z</time>
      </trkpt>
      <trkpt lat="46.99447" lon="-0.96186">
        <ele>68.7</ele>
        <time>2025-08-25T09:58:25Z</time>
      </trkpt>
      <trkpt lat="46.99448" lon="-0.96187">
        <ele>68.7</ele>
        <time>2025-08-25T09:58:26Z</time>
      </trkpt>
      <trkpt lat="46.99448" lon="-0.96188">
        <ele>68.7</ele>
        <time>2025-08-25T09:58:27Z</time>
      </trkpt>
      <trkpt lat="46.99448" lon="-0.96189">
        <ele>68.7</ele>
        <time>2025-08-25T09:58:28Z</time>
      </trkpt>
      <trkpt lat="46.99448" lon="-0.9619">
        <ele>68.7</ele>
        <time>2025-08-25T09:58:29Z</time>
      </trkpt>
      <trkpt lat="46.99448" lon="-0.96192">
        <ele>68.7</ele>
        <time>2025-08-25T09:58:30Z</time>
      </trkpt>
      <trkpt lat="46.99448" lon="-0.96194">
        <ele>68.7</ele>
        <time>2025-08-25T09:58:31Z</time>
      </trkpt>
      <trkpt lat="46.99449" lon="-0.96195">
        <ele>68.7</ele>
        <time>2025-08-25T09:58:32Z</time>
      </trkpt>
      <trkpt lat="46.99449" lon="-0.96196">
        <ele>68.7</ele>
        <time>2025-08-25T09:58:33Z</time>
      </trkpt>
      <trkpt lat="46.9945" lon="-0.96199">
        <ele>68.7</ele>
        <time>2025-08-25T09:58:34Z</time>
      </trkpt>
      <trkpt lat="46.9945" lon="-0.962">
        <ele>68.7</ele>
        <time>2025-08-25T09:58:35Z</time>
      </trkpt>
      <trkpt lat="46.9945" lon="-0.96202">
        <ele>68.7</ele>
        <time>2025-08-25T09:58:36Z</time>
      </trkpt>
      <trkpt lat="46.99451" lon="-0.96204">
        <ele>68.7</ele>
        <time>2025-08-25T09:58:37Z</time>
      </trkpt>
      <trkpt lat="46.99451" lon="-0.96206">
        <ele>68.7</ele>
        <time>2025-08-25T09:58:38Z</time>
      </trkpt>
      <trkpt lat="46.99452" lon="-0.96208">
        <ele>68.7</ele>
        <time>2025-08-25T09:58:39Z</time>
      </trkpt>
      <trkpt lat="46.99452" lon="-0.9621">
        <ele>68.7</ele>
        <time>2025-08-25T09:58:40Z</time>
      </trkpt>
      <trkpt lat="46.99452" lon="-0.96211">
        <ele>68.7</ele>
        <time>2025-08-25T09:58:41Z</time>
      </trkpt>
      <trkpt lat="46.99452" lon="-0.96212">
        <ele>68.7</ele>
        <time>2025-08-25T09:58:42Z</time>
      </trkpt>
      <trkpt lat="46.99452" lon="-0.96213">
        <ele>68.7</ele>
        <time>2025-08-25T09:58:43Z</time>
      </trkpt>
      <trkpt lat="46.99453" lon="-0.96215">
        <ele>68.7</ele>
        <time>2025-08-25T09:58:44Z</time>
      </trkpt>
      <trkpt lat="46.99453" lon="-0.96215">
        <ele>68.7</ele>
        <time>2025-08-25T09:58:45Z</time>
      </trkpt>
      <trkpt lat="46.99453" lon="-0.96215">
        <ele>68.7</ele>
        <time>2025-08-25T09:58:46Z</time>
      </trkpt>
      <trkpt lat="46.99453" lon="-0.96216">
        <ele>68.7</ele>
        <time>2025-08-25T09:58:47Z</time>
      </trkpt>
      <trkpt lat="46.99453" lon="-0.96217">
        <ele>68.7</ele>
        <time>2025-08-25T09:58:48Z</time>
      </trkpt>
      <trkpt lat="46.99454" lon="-0.9622">
        <ele>68.7</ele>
        <time>2025-08-25T09:58:49Z</time>
      </trkpt>
      <trkpt lat="46.99454" lon="-0.96221">
        <ele>68.7</ele>
        <time>2025-08-25T09:58:50Z</time>
      </trkpt>
      <trkpt lat="46.99455" lon="-0.96222">
        <ele>68.7</ele>
        <time>2025-08-25T09:58:51Z</time>
      </trkpt>
      <trkpt lat="46.99455" lon="-0.96224">
        <ele>68.7</ele>
        <time>2025-08-25T09:58:52Z</time>
      </trkpt>
      <trkpt lat="46.99455" lon="-0.96225">
        <ele>68.7</ele>
        <time>2025-08-25T09:58:53Z</time>
      </trkpt>
      <trkpt lat="46.99456" lon="-0.96227">
        <ele>68.7</ele>
        <time>2025-08-25T09:58:54Z</time>
      </trkpt>
      <trkpt lat="46.99456" lon="-0.96228">
        <ele>68.7</ele>
        <time>2025-08-25T09:58:55Z</time>
      </trkpt>
      <trkpt lat="46.99456" lon="-0.96229">
        <ele>68.7</ele>
        <time>2025-08-25T09:58:56Z</time>
      </trkpt>
      <trkpt lat="46.99457" lon="-0.9623">
        <ele>68.7</ele>
        <time>2025-08-25T09:58:57Z</time>
      </trkpt>
      <trkpt lat="46.99457" lon="-0.96231">
        <ele>68.7</ele>
        <time>2025-08-25T09:58:58Z</time>
      </trkpt>
      <trkpt lat="46.99457" lon="-0.96232">
        <ele>68.7</ele>
        <time>2025-08-25T09:58:59Z</time>
      </trkpt>
      <trkpt lat="46.99457" lon="-0.96233">
        <ele>68.7</ele>
        <time>2025-08-25T09:59:00Z</time>
      </trkpt>
      <trkpt lat="46.99457" lon="-0.96234">
        <ele>68.7</ele>
        <time>2025-08-25T09:59:01Z</time>
      </trkpt>
      <trkpt lat="46.99458" lon="-0.96235">
        <ele>68.7</ele>
        <time>2025-08-25T09:59:02Z</time>
      </trkpt>
      <trkpt lat="46.99458" lon="-0.96236">
        <ele>68.7</ele>
        <time>2025-08-25T09:59:03Z</time>
      </trkpt>
      <trkpt lat="46.99458" lon="-0.96237">
        <ele>68.7</ele>
        <time>2025-08-25T09:59:04Z</time>
      </trkpt>
      <trkpt lat="46.99458" lon="-0.96238">
        <ele>68.7</ele>
        <time>2025-08-25T09:59:05Z</time>
      </trkpt>
      <trkpt lat="46.99458" lon="-0.96239">
        <ele>68.7</ele>
        <time>2025-08-25T09:59:06Z</time>
      </trkpt>
      <trkpt lat="46.99458" lon="-0.9624">
        <ele>68.7</ele>
        <time>2025-08-25T09:59:07Z</time>
      </trkpt>
      <trkpt lat="46.99458" lon="-0.96242">
        <ele>68.7</ele>
        <time>2025-08-25T09:59:08Z</time>
      </trkpt>
      <trkpt lat="46.99458" lon="-0.96243">
        <ele>68.7</ele>
        <time>2025-08-25T09:59:09Z</time>
      </trkpt>
      <trkpt lat="46.99459" lon="-0.96245">
        <ele>68.7</ele>
        <time>2025-08-25T09:59:10Z</time>
      </trkpt>
      <trkpt lat="46.99459" lon="-0.96247">
        <ele>68.7</ele>
        <time>2025-08-25T09:59:11Z</time>
      </trkpt>
      <trkpt lat="46.9946" lon="-0.96248">
        <ele>68.7</ele>
        <time>2025-08-25T09:59:12Z</time>
      </trkpt>
      <trkpt lat="46.9946" lon="-0.9625">
        <ele>68.7</ele>
        <time>2025-08-25T09:59:13Z</time>
      </trkpt>
      <trkpt lat="46.9946" lon="-0.96252">
        <ele>68.7</ele>
        <time>2025-08-25T09:59:14Z</time>
      </trkpt>
      <trkpt lat="46.99461" lon="-0.96253">
        <ele>68.7</ele>
        <time>2025-08-25T09:59:15Z</time>
      </trkpt>
      <trkpt lat="46.99461" lon="-0.96254">
        <ele>68.7</ele>
        <time>2025-08-25T09:59:16Z</time>
      </trkpt>
      <trkpt lat="46.99461" lon="-0.96255">
        <ele>68.7</ele>
        <time>2025-08-25T09:59:17Z</time>
      </trkpt>
      <trkpt lat="46.99462" lon="-0.96256">
        <ele>68.7</ele>
        <time>2025-08-25T09:59:18Z</time>
      </trkpt>
      <trkpt lat="46.99462" lon="-0.96257">
        <ele>68.7</ele>
        <time>2025-08-25T09:59:19Z</time>
      </trkpt>
      <trkpt lat="46.99463" lon="-0.96258">
        <ele>68.7</ele>
        <time>2025-08-25T09:59:20Z</time>
      </trkpt>
      <trkpt lat="46.99463" lon="-0.96259">
        <ele>68.7</ele>
        <time>2025-08-25T09:59:21Z</time>
      </trkpt>
      <trkpt lat="46.99463" lon="-0.96261">
        <ele>68.7</ele>
        <time>2025-08-25T09:59:22Z</time>
      </trkpt>
      <trkpt lat="46.99464" lon="-0.96262">
        <ele>68.7</ele>
        <time>2025-08-25T09:59:23Z</time>
      </trkpt>
      <trkpt lat="46.99464" lon="-0.96263">
        <ele>68.7</ele>
        <time>2025-08-25T09:59:24Z</time>
      </trkpt>
      <trkpt lat="46.99464" lon="-0.96264">
        <ele>68.7</ele>
        <time>2025-08-25T09:59:25Z</time>
      </trkpt>
      <trkpt lat="46.99464" lon="-0.96266">
        <ele>68.7</ele>
        <time>2025-08-25T09:59:26Z</time>
      </trkpt>
      <trkpt lat="46.99464" lon="-0.96267">
        <ele>68.8</ele>
        <time>2025-08-25T09:59:27Z</time>
      </trkpt>
      <trkpt lat="46.99465" lon="-0.96268">
        <ele>68.8</ele>
        <time>2025-08-25T09:59:28Z</time>
      </trkpt>
      <trkpt lat="46.99465" lon="-0.9627">
        <ele>68.8</ele>
        <time>2025-08-25T09:59:29Z</time>
      </trkpt>
      <trkpt lat="46.99466" lon="-0.96271">
        <ele>68.8</ele>
        <time>2025-08-25T09:59:30Z</time>
      </trkpt>
      <trkpt lat="46.99466" lon="-0.96273">
        <ele>68.8</ele>
        <time>2025-08-25T09:59:31Z</time>
      </trkpt>
      <trkpt lat="46.99468" lon="-0.96275">
        <ele>68.8</ele>
        <time>2025-08-25T09:59:32Z</time>
      </trkpt>
      <trkpt lat="46.99468" lon="-0.96276">
        <ele>68.8</ele>
        <time>2025-08-25T09:59:33Z</time>
      </trkpt>
      <trkpt lat="46.99468" lon="-0.96277">
        <ele>68.8</ele>
        <time>2025-08-25T09:59:34Z</time>
      </trkpt>
      <trkpt lat="46.99469" lon="-0.96279">
        <ele>68.9</ele>
        <time>2025-08-25T09:59:35Z</time>
      </trkpt>
      <trkpt lat="46.9947" lon="-0.96281">
        <ele>68.9</ele>
        <time>2025-08-25T09:59:36Z</time>
      </trkpt>
      <trkpt lat="46.99471" lon="-0.96283">
        <ele>68.9</ele>
        <time>2025-08-25T09:59:37Z</time>
      </trkpt>
      <trkpt lat="46.99471" lon="-0.96285">
        <ele>68.9</ele>
        <time>2025-08-25T09:59:38Z</time>
      </trkpt>
      <trkpt lat="46.99472" lon="-0.96286">
        <ele>68.9</ele>
        <time>2025-08-25T09:59:39Z</time>
      </trkpt>
      <trkpt lat="46.99472" lon="-0.96289">
        <ele>69</ele>
        <time>2025-08-25T09:59:40Z</time>
      </trkpt>
      <trkpt lat="46.99473" lon="-0.9629">
        <ele>69</ele>
        <time>2025-08-25T09:59:41Z</time>
      </trkpt>
      <trkpt lat="46.99473" lon="-0.96292">
        <ele>69</ele>
        <time>2025-08-25T09:59:42Z</time>
      </trkpt>
      <trkpt lat="46.99473" lon="-0.96294">
        <ele>69</ele>
        <time>2025-08-25T09:59:43Z</time>
      </trkpt>
      <trkpt lat="46.99474" lon="-0.96295">
        <ele>69</ele>
        <time>2025-08-25T09:59:44Z</time>
      </trkpt>
      <trkpt lat="46.99474" lon="-0.96297">
        <ele>69</ele>
        <time>2025-08-25T09:59:45Z</time>
      </trkpt>
      <trkpt lat="46.99474" lon="-0.96298">
        <ele>69.1</ele>
        <time>2025-08-25T09:59:46Z</time>
      </trkpt>
      <trkpt lat="46.99475" lon="-0.96299">
        <ele>69.1</ele>
        <time>2025-08-25T09:59:47Z</time>
      </trkpt>
      <trkpt lat="46.99475" lon="-0.963">
        <ele>69.1</ele>
        <time>2025-08-25T09:59:48Z</time>
      </trkpt>
      <trkpt lat="46.99476" lon="-0.96301">
        <ele>69.1</ele>
        <time>2025-08-25T09:59:49Z</time>
      </trkpt>
      <trkpt lat="46.99476" lon="-0.96302">
        <ele>69.1</ele>
        <time>2025-08-25T09:59:50Z</time>
      </trkpt>
      <trkpt lat="46.99477" lon="-0.96304">
        <ele>69.1</ele>
        <time>2025-08-25T09:59:51Z</time>
      </trkpt>
      <trkpt lat="46.99477" lon="-0.96305">
        <ele>69.1</ele>
        <time>2025-08-25T09:59:52Z</time>
      </trkpt>
      <trkpt lat="46.99478" lon="-0.96306">
        <ele>69.2</ele>
        <time>2025-08-25T09:59:53Z</time>
      </trkpt>
      <trkpt lat="46.99478" lon="-0.96307">
        <ele>69.2</ele>
        <time>2025-08-25T09:59:54Z</time>
      </trkpt>
      <trkpt lat="46.99478" lon="-0.96308">
        <ele>69.2</ele>
        <time>2025-08-25T09:59:55Z</time>
      </trkpt>
      <trkpt lat="46.99478" lon="-0.9631">
        <ele>69.2</ele>
        <time>2025-08-25T09:59:56Z</time>
      </trkpt>
      <trkpt lat="46.99479" lon="-0.96311">
        <ele>69.2</ele>
        <time>2025-08-25T09:59:57Z</time>
      </trkpt>
      <trkpt lat="46.99479" lon="-0.96312">
        <ele>69.2</ele>
        <time>2025-08-25T09:59:58Z</time>
      </trkpt>
      <trkpt lat="46.99479" lon="-0.96313">
        <ele>69.2</ele>
        <time>2025-08-25T09:59:59Z</time>
      </trkpt>
      <trkpt lat="46.9948" lon="-0.96315">
        <ele>69.3</ele>
        <time>2025-08-25T10:00:00Z</time>
      </trkpt>
      <trkpt lat="46.9948" lon="-0.96316">
        <ele>69.3</ele>
        <time>2025-08-25T10:00:01Z</time>
      </trkpt>
      <trkpt lat="46.99481" lon="-0.96317">
        <ele>69.3</ele>
        <time>2025-08-25T10:00:02Z</time>
      </trkpt>
      <trkpt lat="46.99481" lon="-0.96319">
        <ele>69.3</ele>
        <time>2025-08-25T10:00:03Z</time>
      </trkpt>
      <trkpt lat="46.99482" lon="-0.9632">
        <ele>69.3</ele>
        <time>2025-08-25T10:00:04Z</time>
      </trkpt>
      <trkpt lat="46.99483" lon="-0.96322">
        <ele>69.4</ele>
        <time>2025-08-25T10:00:05Z</time>
      </trkpt>
      <trkpt lat="46.99484" lon="-0.96325">
        <ele>69.4</ele>
        <time>2025-08-25T10:00:06Z</time>
      </trkpt>
      <trkpt lat="46.99484" lon="-0.96326">
        <ele>69.4</ele>
        <time>2025-08-25T10:00:07Z</time>
      </trkpt>
      <trkpt lat="46.99485" lon="-0.96327">
        <ele>69.4</ele>
        <time>2025-08-25T10:00:08Z</time>
      </trkpt>
      <trkpt lat="46.99485" lon="-0.96329">
        <ele>69.4</ele>
        <time>2025-08-25T10:00:09Z</time>
      </trkpt>
      <trkpt lat="46.99486" lon="-0.96331">
        <ele>69.4</ele>
        <time>2025-08-25T10:00:10Z</time>
      </trkpt>
      <trkpt lat="46.99486" lon="-0.96333">
        <ele>69.5</ele>
        <time>2025-08-25T10:00:11Z</time>
      </trkpt>
      <trkpt lat="46.99487" lon="-0.96335">
        <ele>69.5</ele>
        <time>2025-08-25T10:00:12Z</time>
      </trkpt>
      <trkpt lat="46.99488" lon="-0.96336">
        <ele>69.5</ele>
        <time>2025-08-25T10:00:13Z</time>
      </trkpt>
      <trkpt lat="46.99488" lon="-0.96338">
        <ele>69.5</ele>
        <time>2025-08-25T10:00:14Z</time>
      </trkpt>
      <trkpt lat="46.99489" lon="-0.96341">
        <ele>69.5</ele>
        <time>2025-08-25T10:00:15Z</time>
      </trkpt>
      <trkpt lat="46.99489" lon="-0.96341">
        <ele>69.5</ele>
        <time>2025-08-25T10:00:16Z</time>
      </trkpt>
      <trkpt lat="46.99491" lon="-0.96344">
        <ele>69.6</ele>
        <time>2025-08-25T10:00:17Z</time>
      </trkpt>
      <trkpt lat="46.99492" lon="-0.96347">
        <ele>69.6</ele>
        <time>2025-08-25T10:00:18Z</time>
      </trkpt>
      <trkpt lat="46.99493" lon="-0.96348">
        <ele>69.6</ele>
        <time>2025-08-25T10:00:19Z</time>
      </trkpt>
      <trkpt lat="46.99495" lon="-0.96352">
        <ele>69.6</ele>
        <time>2025-08-25T10:00:20Z</time>
      </trkpt>
      <trkpt lat="46.99496" lon="-0.96353">
        <ele>69.6</ele>
        <time>2025-08-25T10:00:21Z</time>
      </trkpt>
      <trkpt lat="46.99498" lon="-0.96356">
        <ele>69.6</ele>
        <time>2025-08-25T10:00:22Z</time>
      </trkpt>
      <trkpt lat="46.99499" lon="-0.96357">
        <ele>69.6</ele>
        <time>2025-08-25T10:00:23Z</time>
      </trkpt>
      <trkpt lat="46.995" lon="-0.96359">
        <ele>69.6</ele>
        <time>2025-08-25T10:00:24Z</time>
      </trkpt>
      <trkpt lat="46.99501" lon="-0.96361">
        <ele>69.6</ele>
        <time>2025-08-25T10:00:25Z</time>
      </trkpt>
      <trkpt lat="46.99503" lon="-0.96363">
        <ele>69.6</ele>
        <time>2025-08-25T10:00:26Z</time>
      </trkpt>
      <trkpt lat="46.99504" lon="-0.96364">
        <ele>69.6</ele>
        <time>2025-08-25T10:00:27Z</time>
      </trkpt>
      <trkpt lat="46.99505" lon="-0.96366">
        <ele>69.6</ele>
        <time>2025-08-25T10:00:28Z</time>
      </trkpt>
      <trkpt lat="46.99506" lon="-0.96368">
        <ele>69.6</ele>
        <time>2025-08-25T10:00:29Z</time>
      </trkpt>
      <trkpt lat="46.99507" lon="-0.96369">
        <ele>69.6</ele>
        <time>2025-08-25T10:00:30Z</time>
      </trkpt>
      <trkpt lat="46.99508" lon="-0.96371">
        <ele>69.6</ele>
        <time>2025-08-25T10:00:31Z</time>
      </trkpt>
      <trkpt lat="46.99509" lon="-0.96372">
        <ele>69.5</ele>
        <time>2025-08-25T10:00:32Z</time>
      </trkpt>
      <trkpt lat="46.9951" lon="-0.96374">
        <ele>69.5</ele>
        <time>2025-08-25T10:00:33Z</time>
      </trkpt>
      <trkpt lat="46.9951" lon="-0.96375">
        <ele>69.5</ele>
        <time>2025-08-25T10:00:34Z</time>
      </trkpt>
      <trkpt lat="46.99511" lon="-0.96377">
        <ele>69.5</ele>
        <time>2025-08-25T10:00:35Z</time>
      </trkpt>
      <trkpt lat="46.99512" lon="-0.96379">
        <ele>69.4</ele>
        <time>2025-08-25T10:00:36Z</time>
      </trkpt>
      <trkpt lat="46.99513" lon="-0.96381">
        <ele>69.4</ele>
        <time>2025-08-25T10:00:37Z</time>
      </trkpt>
      <trkpt lat="46.99514" lon="-0.96383">
        <ele>69.4</ele>
        <time>2025-08-25T10:00:38Z</time>
      </trkpt>
      <trkpt lat="46.99515" lon="-0.96384">
        <ele>69.4</ele>
        <time>2025-08-25T10:00:39Z</time>
      </trkpt>
      <trkpt lat="46.99515" lon="-0.96385">
        <ele>69.4</ele>
        <time>2025-08-25T10:00:40Z</time>
      </trkpt>
      <trkpt lat="46.99517" lon="-0.96388">
        <ele>69.3</ele>
        <time>2025-08-25T10:00:41Z</time>
      </trkpt>
      <trkpt lat="46.99517" lon="-0.96389">
        <ele>69.3</ele>
        <time>2025-08-25T10:00:42Z</time>
      </trkpt>
      <trkpt lat="46.99517" lon="-0.9639">
        <ele>69.3</ele>
        <time>2025-08-25T10:00:43Z</time>
      </trkpt>
      <trkpt lat="46.99518" lon="-0.96391">
        <ele>69.3</ele>
        <time>2025-08-25T10:00:44Z</time>
      </trkpt>
      <trkpt lat="46.99519" lon="-0.96392">
        <ele>69.3</ele>
        <time>2025-08-25T10:00:45Z</time>
      </trkpt>
      <trkpt lat="46.99519" lon="-0.96393">
        <ele>69.3</ele>
        <time>2025-08-25T10:00:46Z</time>
      </trkpt>
      <trkpt lat="46.9952" lon="-0.96395">
        <ele>69.3</ele>
        <time>2025-08-25T10:00:47Z</time>
      </trkpt>
      <trkpt lat="46.9952" lon="-0.96396">
        <ele>69.3</ele>
        <time>2025-08-25T10:00:48Z</time>
      </trkpt>
      <trkpt lat="46.99521" lon="-0.96397">
        <ele>69.3</ele>
        <time>2025-08-25T10:00:49Z</time>
      </trkpt>
      <trkpt lat="46.99522" lon="-0.96398">
        <ele>69.2</ele>
        <time>2025-08-25T10:00:50Z</time>
      </trkpt>
      <trkpt lat="46.99522" lon="-0.964">
        <ele>69.2</ele>
        <time>2025-08-25T10:00:51Z</time>
      </trkpt>
      <trkpt lat="46.99523" lon="-0.96401">
        <ele>69.2</ele>
        <time>2025-08-25T10:00:52Z</time>
      </trkpt>
      <trkpt lat="46.99523" lon="-0.96403">
        <ele>69.2</ele>
        <time>2025-08-25T10:00:53Z</time>
      </trkpt>
      <trkpt lat="46.99524" lon="-0.96404">
        <ele>69.2</ele>
        <time>2025-08-25T10:00:54Z</time>
      </trkpt>
      <trkpt lat="46.99525" lon="-0.96405">
        <ele>69.2</ele>
        <time>2025-08-25T10:00:55Z</time>
      </trkpt>
      <trkpt lat="46.99525" lon="-0.96406">
        <ele>69.2</ele>
        <time>2025-08-25T10:00:56Z</time>
      </trkpt>
      <trkpt lat="46.99525" lon="-0.96407">
        <ele>69.2</ele>
        <time>2025-08-25T10:00:57Z</time>
      </trkpt>
      <trkpt lat="46.99526" lon="-0.96408">
        <ele>69.2</ele>
        <time>2025-08-25T10:00:58Z</time>
      </trkpt>
      <trkpt lat="46.99526" lon="-0.96409">
        <ele>69.2</ele>
        <time>2025-08-25T10:00:59Z</time>
      </trkpt>
      <trkpt lat="46.99527" lon="-0.96409">
        <ele>69.2</ele>
        <time>2025-08-25T10:01:00Z</time>
      </trkpt>
      <trkpt lat="46.99527" lon="-0.96409">
        <ele>69.2</ele>
        <time>2025-08-25T10:01:01Z</time>
      </trkpt>
      <trkpt lat="46.99527" lon="-0.96408">
        <ele>69.2</ele>
        <time>2025-08-25T10:01:02Z</time>
      </trkpt>
      <trkpt lat="46.99526" lon="-0.96408">
        <ele>69.2</ele>
        <time>2025-08-25T10:01:03Z</time>
      </trkpt>
      <trkpt lat="46.99526" lon="-0.96408">
        <ele>69.2</ele>
        <time>2025-08-25T10:01:04Z</time>
      </trkpt>
      <trkpt lat="46.99526" lon="-0.96407">
        <ele>69.2</ele>
        <time>2025-08-25T10:01:05Z</time>
      </trkpt>
      <trkpt lat="46.99526" lon="-0.96407">
        <ele>69.2</ele>
        <time>2025-08-25T10:01:06Z</time>
      </trkpt>
      <trkpt lat="46.99526" lon="-0.96407">
        <ele>69.2</ele>
        <time>2025-08-25T10:01:07Z</time>
      </trkpt>
      <trkpt lat="46.99526" lon="-0.96407">
        <ele>69.2</ele>
        <time>2025-08-25T10:01:08Z</time>
      </trkpt>
      <trkpt lat="46.99526" lon="-0.96407">
        <ele>69.2</ele>
        <time>2025-08-25T10:01:09Z</time>
      </trkpt>
      <trkpt lat="46.99526" lon="-0.96407">
        <ele>69.2</ele>
        <time>2025-08-25T10:01:10Z</time>
      </trkpt>
      <trkpt lat="46.99526" lon="-0.96407">
        <ele>69.2</ele>
        <time>2025-08-25T10:01:11Z</time>
      </trkpt>
      <trkpt lat="46.99526" lon="-0.96407">
        <ele>69.2</ele>
        <time>2025-08-25T10:01:12Z</time>
      </trkpt>
      <trkpt lat="46.99526" lon="-0.96407">
        <ele>69.2</ele>
        <time>2025-08-25T10:01:13Z</time>
      </trkpt>
      <trkpt lat="46.99526" lon="-0.96407">
        <ele>69.2</ele>
        <time>2025-08-25T10:01:14Z</time>
      </trkpt>
      <trkpt lat="46.99526" lon="-0.96407">
        <ele>69.2</ele>
        <time>2025-08-25T10:01:15Z</time>
      </trkpt>
      <trkpt lat="46.99526" lon="-0.96407">
        <ele>69.2</ele>
        <time>2025-08-25T10:01:16Z</time>
      </trkpt>
      <trkpt lat="46.99526" lon="-0.96407">
        <ele>69.2</ele>
        <time>2025-08-25T10:01:17Z</time>
      </trkpt>
      <trkpt lat="46.99526" lon="-0.96408">
        <ele>69.2</ele>
        <time>2025-08-25T10:01:18Z</time>
      </trkpt>
      <trkpt lat="46.99526" lon="-0.96408">
        <ele>69.2</ele>
        <time>2025-08-25T10:01:19Z</time>
      </trkpt>
      <trkpt lat="46.99526" lon="-0.96408">
        <ele>69.2</ele>
        <time>2025-08-25T10:01:20Z</time>
      </trkpt>
      <trkpt lat="46.99526" lon="-0.96408">
        <ele>69.2</ele>
        <time>2025-08-25T10:01:21Z</time>
      </trkpt>
      <trkpt lat="46.99526" lon="-0.96408">
        <ele>69.2</ele>
        <time>2025-08-25T10:01:22Z</time>
      </trkpt>
      <trkpt lat="46.99526" lon="-0.96408">
        <ele>69.2</ele>
        <time>2025-08-25T10:01:23Z</time>
      </trkpt>
      <trkpt lat="46.99526" lon="-0.96408">
        <ele>69.2</ele>
        <time>2025-08-25T10:01:24Z</time>
      </trkpt>
      <trkpt lat="46.99525" lon="-0.96408">
        <ele>69.2</ele>
        <time>2025-08-25T10:01:25Z</time>
      </trkpt>
      <trkpt lat="46.99525" lon="-0.96408">
        <ele>69.2</ele>
        <time>2025-08-25T10:01:26Z</time>
      </trkpt>
      <trkpt lat="46.99525" lon="-0.96408">
        <ele>69.2</ele>
        <time>2025-08-25T10:01:27Z</time>
      </trkpt>
      <trkpt lat="46.99526" lon="-0.96408">
        <ele>69.2</ele>
        <time>2025-08-25T10:01:28Z</time>
      </trkpt>
      <trkpt lat="46.99526" lon="-0.96409">
        <ele>69.2</ele>
        <time>2025-08-25T10:01:29Z</time>
      </trkpt>
      <trkpt lat="46.99526" lon="-0.96409">
        <ele>69.2</ele>
        <time>2025-08-25T10:01:30Z</time>
      </trkpt>
      <trkpt lat="46.99526" lon="-0.96409">
        <ele>69.2</ele>
        <time>2025-08-25T10:01:31Z</time>
      </trkpt>
      <trkpt lat="46.99526" lon="-0.96409">
        <ele>69.2</ele>
        <time>2025-08-25T10:01:32Z</time>
      </trkpt>
      <trkpt lat="46.99526" lon="-0.96409">
        <ele>69.2</ele>
        <time>2025-08-25T10:01:33Z</time>
      </trkpt>
      <trkpt lat="46.99526" lon="-0.96409">
        <ele>69.2</ele>
        <time>2025-08-25T10:01:34Z</time>
      </trkpt>
      <trkpt lat="46.99526" lon="-0.96409">
        <ele>69.2</ele>
        <time>2025-08-25T10:01:35Z</time>
      </trkpt>
      <trkpt lat="46.99526" lon="-0.96408">
        <ele>69.2</ele>
        <time>2025-08-25T10:01:36Z</time>
      </trkpt>
      <trkpt lat="46.99526" lon="-0.96408">
        <ele>69.2</ele>
        <time>2025-08-25T10:01:37Z</time>
      </trkpt>
      <trkpt lat="46.99526" lon="-0.96408">
        <ele>69.2</ele>
        <time>2025-08-25T10:01:38Z</time>
      </trkpt>
      <trkpt lat="46.99526" lon="-0.96408">
        <ele>69.2</ele>
        <time>2025-08-25T10:01:39Z</time>
      </trkpt>
      <trkpt lat="46.99525" lon="-0.96408">
        <ele>69.2</ele>
        <time>2025-08-25T10:01:40Z</time>
      </trkpt>
      <trkpt lat="46.99525" lon="-0.96408">
        <ele>69.2</ele>
        <time>2025-08-25T10:01:41Z</time>
      </trkpt>
      <trkpt lat="46.99525" lon="-0.96408">
        <ele>69.2</ele>
        <time>2025-08-25T10:01:42Z</time>
      </trkpt>
      <trkpt lat="46.99525" lon="-0.96408">
        <ele>69.2</ele>
        <time>2025-08-25T10:01:43Z</time>
      </trkpt>
      <trkpt lat="46.99525" lon="-0.96408">
        <ele>69.2</ele>
        <time>2025-08-25T10:01:44Z</time>
      </trkpt>
      <trkpt lat="46.99525" lon="-0.96408">
        <ele>69.2</ele>
        <time>2025-08-25T10:01:45Z</time>
      </trkpt>
      <trkpt lat="46.99525" lon="-0.96408">
        <ele>69.2</ele>
        <time>2025-08-25T10:01:46Z</time>
      </trkpt>
      <trkpt lat="46.99525" lon="-0.96408">
        <ele>69.2</ele>
        <time>2025-08-25T10:01:47Z</time>
      </trkpt>
      <trkpt lat="46.99524" lon="-0.96408">
        <ele>69.2</ele>
        <time>2025-08-25T10:01:48Z</time>
      </trkpt>
      <trkpt lat="46.99524" lon="-0.96408">
        <ele>69.2</ele>
        <time>2025-08-25T10:01:49Z</time>
      </trkpt>
      <trkpt lat="46.99524" lon="-0.96408">
        <ele>69.2</ele>
        <time>2025-08-25T10:01:50Z</time>
      </trkpt>
      <trkpt lat="46.99524" lon="-0.96408">
        <ele>69.2</ele>
        <time>2025-08-25T10:01:51Z</time>
      </trkpt>
      <trkpt lat="46.99524" lon="-0.96408">
        <ele>69.2</ele>
        <time>2025-08-25T10:01:52Z</time>
      </trkpt>
      <trkpt lat="46.99524" lon="-0.96408">
        <ele>69.2</ele>
        <time>2025-08-25T10:01:53Z</time>
      </trkpt>
      <trkpt lat="46.99524" lon="-0.96408">
        <ele>69.1</ele>
        <time>2025-08-25T10:01:54Z</time>
      </trkpt>
      <trkpt lat="46.99524" lon="-0.96408">
        <ele>69.1</ele>
        <time>2025-08-25T10:01:55Z</time>
      </trkpt>
      <trkpt lat="46.99524" lon="-0.96408">
        <ele>69.1</ele>
        <time>2025-08-25T10:01:56Z</time>
      </trkpt>
      <trkpt lat="46.99524" lon="-0.96408">
        <ele>69.1</ele>
        <time>2025-08-25T10:01:57Z</time>
      </trkpt>
      <trkpt lat="46.99524" lon="-0.96408">
        <ele>69.1</ele>
        <time>2025-08-25T10:01:58Z</time>
      </trkpt>
      <trkpt lat="46.99524" lon="-0.96409">
        <ele>69.1</ele>
        <time>2025-08-25T10:01:59Z</time>
      </trkpt>
      <trkpt lat="46.99523" lon="-0.96409">
        <ele>69.1</ele>
        <time>2025-08-25T10:02:00Z</time>
      </trkpt>
      <trkpt lat="46.99523" lon="-0.96409">
        <ele>69.1</ele>
        <time>2025-08-25T10:02:01Z</time>
      </trkpt>
      <trkpt lat="46.99523" lon="-0.96409">
        <ele>69.1</ele>
        <time>2025-08-25T10:02:02Z</time>
      </trkpt>
      <trkpt lat="46.99523" lon="-0.96409">
        <ele>69.1</ele>
        <time>2025-08-25T10:02:03Z</time>
      </trkpt>
      <trkpt lat="46.99523" lon="-0.96409">
        <ele>69.1</ele>
        <time>2025-08-25T10:02:04Z</time>
      </trkpt>
      <trkpt lat="46.99523" lon="-0.96409">
        <ele>69.1</ele>
        <time>2025-08-25T10:02:05Z</time>
      </trkpt>
      <trkpt lat="46.99523" lon="-0.96409">
        <ele>69.1</ele>
        <time>2025-08-25T10:02:06Z</time>
      </trkpt>
      <trkpt lat="46.99522" lon="-0.96409">
        <ele>69.1</ele>
        <time>2025-08-25T10:02:07Z</time>
      </trkpt>
      <trkpt lat="46.99522" lon="-0.96409">
        <ele>69.1</ele>
        <time>2025-08-25T10:02:08Z</time>
      </trkpt>
      <trkpt lat="46.99522" lon="-0.9641">
        <ele>69.1</ele>
        <time>2025-08-25T10:02:09Z</time>
      </trkpt>
      <trkpt lat="46.99522" lon="-0.96411">
        <ele>69.1</ele>
        <time>2025-08-25T10:02:10Z</time>
      </trkpt>
      <trkpt lat="46.99522" lon="-0.96411">
        <ele>69.1</ele>
        <time>2025-08-25T10:02:11Z</time>
      </trkpt>
      <trkpt lat="46.99522" lon="-0.96412">
        <ele>69.1</ele>
        <time>2025-08-25T10:02:12Z</time>
      </trkpt>
      <trkpt lat="46.99523" lon="-0.96413">
        <ele>69.1</ele>
        <time>2025-08-25T10:02:13Z</time>
      </trkpt>
      <trkpt lat="46.99523" lon="-0.96413">
        <ele>69.1</ele>
        <time>2025-08-25T10:02:14Z</time>
      </trkpt>
      <trkpt lat="46.99523" lon="-0.96413">
        <ele>69.1</ele>
        <time>2025-08-25T10:02:15Z</time>
      </trkpt>
      <trkpt lat="46.99524" lon="-0.96414">
        <ele>69.1</ele>
        <time>2025-08-25T10:02:16Z</time>
      </trkpt>
      <trkpt lat="46.99524" lon="-0.96415">
        <ele>69.1</ele>
        <time>2025-08-25T10:02:17Z</time>
      </trkpt>
      <trkpt lat="46.99525" lon="-0.96416">
        <ele>69.1</ele>
        <time>2025-08-25T10:02:18Z</time>
      </trkpt>
      <trkpt lat="46.99525" lon="-0.96417">
        <ele>69.1</ele>
        <time>2025-08-25T10:02:19Z</time>
      </trkpt>
      <trkpt lat="46.99525" lon="-0.96419">
        <ele>69.1</ele>
        <time>2025-08-25T10:02:20Z</time>
      </trkpt>
      <trkpt lat="46.99526" lon="-0.9642">
        <ele>69.1</ele>
        <time>2025-08-25T10:02:21Z</time>
      </trkpt>
      <trkpt lat="46.99526" lon="-0.96421">
        <ele>69.1</ele>
        <time>2025-08-25T10:02:22Z</time>
      </trkpt>
      <trkpt lat="46.99526" lon="-0.96423">
        <ele>69.1</ele>
        <time>2025-08-25T10:02:23Z</time>
      </trkpt>
      <trkpt lat="46.99527" lon="-0.96424">
        <ele>69</ele>
        <time>2025-08-25T10:02:24Z</time>
      </trkpt>
      <trkpt lat="46.99528" lon="-0.96427">
        <ele>69</ele>
        <time>2025-08-25T10:02:25Z</time>
      </trkpt>
      <trkpt lat="46.99528" lon="-0.96428">
        <ele>69</ele>
        <time>2025-08-25T10:02:26Z</time>
      </trkpt>
      <trkpt lat="46.99528" lon="-0.96429">
        <ele>69</ele>
        <time>2025-08-25T10:02:27Z</time>
      </trkpt>
      <trkpt lat="46.99529" lon="-0.96431">
        <ele>69</ele>
        <time>2025-08-25T10:02:28Z</time>
      </trkpt>
      <trkpt lat="46.9953" lon="-0.96433">
        <ele>69</ele>
        <time>2025-08-25T10:02:29Z</time>
      </trkpt>
      <trkpt lat="46.99531" lon="-0.96435">
        <ele>69</ele>
        <time>2025-08-25T10:02:30Z</time>
      </trkpt>
      <trkpt lat="46.99532" lon="-0.96436">
        <ele>69</ele>
        <time>2025-08-25T10:02:31Z</time>
      </trkpt>
      <trkpt lat="46.99534" lon="-0.96438">
        <ele>69</ele>
        <time>2025-08-25T10:02:32Z</time>
      </trkpt>
      <trkpt lat="46.99535" lon="-0.96439">
        <ele>68.9</ele>
        <time>2025-08-25T10:02:33Z</time>
      </trkpt>
      <trkpt lat="46.99536" lon="-0.96441">
        <ele>68.9</ele>
        <time>2025-08-25T10:02:34Z</time>
      </trkpt>
      <trkpt lat="46.99538" lon="-0.96442">
        <ele>68.9</ele>
        <time>2025-08-25T10:02:35Z</time>
      </trkpt>
      <trkpt lat="46.99539" lon="-0.96444">
        <ele>68.9</ele>
        <time>2025-08-25T10:02:36Z</time>
      </trkpt>
      <trkpt lat="46.9954" lon="-0.96445">
        <ele>68.9</ele>
        <time>2025-08-25T10:02:37Z</time>
      </trkpt>
      <trkpt lat="46.99541" lon="-0.96447">
        <ele>68.9</ele>
        <time>2025-08-25T10:02:38Z</time>
      </trkpt>
      <trkpt lat="46.99542" lon="-0.96449">
        <ele>68.9</ele>
        <time>2025-08-25T10:02:39Z</time>
      </trkpt>
      <trkpt lat="46.99543" lon="-0.9645">
        <ele>68.9</ele>
        <time>2025-08-25T10:02:40Z</time>
      </trkpt>
      <trkpt lat="46.99544" lon="-0.96452">
        <ele>68.9</ele>
        <time>2025-08-25T10:02:41Z</time>
      </trkpt>
      <trkpt lat="46.99544" lon="-0.96454">
        <ele>68.9</ele>
        <time>2025-08-25T10:02:42Z</time>
      </trkpt>
      <trkpt lat="46.99545" lon="-0.96456">
        <ele>68.9</ele>
        <time>2025-08-25T10:02:43Z</time>
      </trkpt>
      <trkpt lat="46.99546" lon="-0.96457">
        <ele>69</ele>
        <time>2025-08-25T10:02:44Z</time>
      </trkpt>
      <trkpt lat="46.99547" lon="-0.96459">
        <ele>69</ele>
        <time>2025-08-25T10:02:45Z</time>
      </trkpt>
      <trkpt lat="46.99548" lon="-0.96461">
        <ele>69</ele>
        <time>2025-08-25T10:02:46Z</time>
      </trkpt>
      <trkpt lat="46.99549" lon="-0.96462">
        <ele>69</ele>
        <time>2025-08-25T10:02:47Z</time>
      </trkpt>
      <trkpt lat="46.9955" lon="-0.96464">
        <ele>69.1</ele>
        <time>2025-08-25T10:02:48Z</time>
      </trkpt>
      <trkpt lat="46.99551" lon="-0.96465">
        <ele>69.1</ele>
        <time>2025-08-25T10:02:49Z</time>
      </trkpt>
      <trkpt lat="46.99553" lon="-0.96466">
        <ele>69.2</ele>
        <time>2025-08-25T10:02:50Z</time>
      </trkpt>
      <trkpt lat="46.99554" lon="-0.96467">
        <ele>69.3</ele>
        <time>2025-08-25T10:02:51Z</time>
      </trkpt>
      <trkpt lat="46.99555" lon="-0.96468">
        <ele>69.3</ele>
        <time>2025-08-25T10:02:52Z</time>
      </trkpt>
      <trkpt lat="46.99556" lon="-0.96469">
        <ele>69.4</ele>
        <time>2025-08-25T10:02:53Z</time>
      </trkpt>
      <trkpt lat="46.99558" lon="-0.9647">
        <ele>69.5</ele>
        <time>2025-08-25T10:02:54Z</time>
      </trkpt>
      <trkpt lat="46.99559" lon="-0.96471">
        <ele>69.6</ele>
        <time>2025-08-25T10:02:55Z</time>
      </trkpt>
      <trkpt lat="46.99561" lon="-0.96472">
        <ele>69.7</ele>
        <time>2025-08-25T10:02:56Z</time>
      </trkpt>
      <trkpt lat="46.99562" lon="-0.96473">
        <ele>69.8</ele>
        <time>2025-08-25T10:02:57Z</time>
      </trkpt>
      <trkpt lat="46.99563" lon="-0.96474">
        <ele>70</ele>
        <time>2025-08-25T10:02:58Z</time>
      </trkpt>
      <trkpt lat="46.99565" lon="-0.96474">
        <ele>70.1</ele>
        <time>2025-08-25T10:02:59Z</time>
      </trkpt>
      <trkpt lat="46.99567" lon="-0.96475">
        <ele>70.2</ele>
        <time>2025-08-25T10:03:00Z</time>
      </trkpt>
      <trkpt lat="46.99568" lon="-0.96475">
        <ele>70.3</ele>
        <time>2025-08-25T10:03:01Z</time>
      </trkpt>
      <trkpt lat="46.99569" lon="-0.96476">
        <ele>70.4</ele>
        <time>2025-08-25T10:03:02Z</time>
      </trkpt>
      <trkpt lat="46.9957" lon="-0.96476">
        <ele>70.5</ele>
        <time>2025-08-25T10:03:03Z</time>
      </trkpt>
      <trkpt lat="46.9957" lon="-0.96476">
        <ele>70.5</ele>
        <time>2025-08-25T10:03:04Z</time>
      </trkpt>
      <trkpt lat="46.99571" lon="-0.96477">
        <ele>70.6</ele>
        <time>2025-08-25T10:03:05Z</time>
      </trkpt>
      <trkpt lat="46.99572" lon="-0.96478">
        <ele>70.7</ele>
        <time>2025-08-25T10:03:06Z</time>
      </trkpt>
      <trkpt lat="46.99572" lon="-0.96479">
        <ele>70.7</ele>
        <time>2025-08-25T10:03:07Z</time>
      </trkpt>
      <trkpt lat="46.99573" lon="-0.96479">
        <ele>70.8</ele>
        <time>2025-08-25T10:03:08Z</time>
      </trkpt>
      <trkpt lat="46.99573" lon="-0.9648">
        <ele>70.8</ele>
        <time>2025-08-25T10:03:09Z</time>
      </trkpt>
      <trkpt lat="46.99574" lon="-0.9648">
        <ele>70.9</ele>
        <time>2025-08-25T10:03:10Z</time>
      </trkpt>
      <trkpt lat="46.99574" lon="-0.9648">
        <ele>70.9</ele>
        <time>2025-08-25T10:03:11Z</time>
      </trkpt>
      <trkpt lat="46.99574" lon="-0.96481">
        <ele>70.9</ele>
        <time>2025-08-25T10:03:12Z</time>
      </trkpt>
      <trkpt lat="46.99575" lon="-0.96481">
        <ele>70.9</ele>
        <time>2025-08-25T10:03:13Z</time>
      </trkpt>
      <trkpt lat="46.99575" lon="-0.96482">
        <ele>70.9</ele>
        <time>2025-08-25T10:03:14Z</time>
      </trkpt>
      <trkpt lat="46.99576" lon="-0.96483">
        <ele>70.9</ele>
        <time>2025-08-25T10:03:15Z</time>
      </trkpt>
      <trkpt lat="46.99576" lon="-0.96484">
        <ele>70.9</ele>
        <time>2025-08-25T10:03:16Z</time>
      </trkpt>
      <trkpt lat="46.99576" lon="-0.96485">
        <ele>70.9</ele>
        <time>2025-08-25T10:03:17Z</time>
      </trkpt>
      <trkpt lat="46.99577" lon="-0.96487">
        <ele>70.9</ele>
        <time>2025-08-25T10:03:18Z</time>
      </trkpt>
      <trkpt lat="46.99578" lon="-0.96489">
        <ele>70.9</ele>
        <time>2025-08-25T10:03:19Z</time>
      </trkpt>
      <trkpt lat="46.99579" lon="-0.9649">
        <ele>70.9</ele>
        <time>2025-08-25T10:03:20Z</time>
      </trkpt>
      <trkpt lat="46.9958" lon="-0.96492">
        <ele>70.9</ele>
        <time>2025-08-25T10:03:21Z</time>
      </trkpt>
      <trkpt lat="46.99581" lon="-0.96493">
        <ele>70.9</ele>
        <time>2025-08-25T10:03:22Z</time>
      </trkpt>
      <trkpt lat="46.99583" lon="-0.96495">
        <ele>70.9</ele>
        <time>2025-08-25T10:03:23Z</time>
      </trkpt>
      <trkpt lat="46.99584" lon="-0.96496">
        <ele>70.9</ele>
        <time>2025-08-25T10:03:24Z</time>
      </trkpt>
      <trkpt lat="46.99585" lon="-0.96497">
        <ele>70.8</ele>
        <time>2025-08-25T10:03:25Z</time>
      </trkpt>
      <trkpt lat="46.99587" lon="-0.96498">
        <ele>70.8</ele>
        <time>2025-08-25T10:03:26Z</time>
      </trkpt>
      <trkpt lat="46.99588" lon="-0.965">
        <ele>70.8</ele>
        <time>2025-08-25T10:03:27Z</time>
      </trkpt>
      <trkpt lat="46.99589" lon="-0.96501">
        <ele>70.8</ele>
        <time>2025-08-25T10:03:28Z</time>
      </trkpt>
      <trkpt lat="46.99591" lon="-0.96503">
        <ele>70.8</ele>
        <time>2025-08-25T10:03:29Z</time>
      </trkpt>
      <trkpt lat="46.99592" lon="-0.96503">
        <ele>70.8</ele>
        <time>2025-08-25T10:03:30Z</time>
      </trkpt>
      <trkpt lat="46.99592" lon="-0.96504">
        <ele>70.7</ele>
        <time>2025-08-25T10:03:31Z</time>
      </trkpt>
      <trkpt lat="46.99594" lon="-0.96506">
        <ele>70.7</ele>
        <time>2025-08-25T10:03:32Z</time>
      </trkpt>
      <trkpt lat="46.99595" lon="-0.96507">
        <ele>70.7</ele>
        <time>2025-08-25T10:03:33Z</time>
      </trkpt>
      <trkpt lat="46.99595" lon="-0.96508">
        <ele>70.7</ele>
        <time>2025-08-25T10:03:34Z</time>
      </trkpt>
      <trkpt lat="46.99597" lon="-0.9651">
        <ele>70.7</ele>
        <time>2025-08-25T10:03:35Z</time>
      </trkpt>
      <trkpt lat="46.99597" lon="-0.96511">
        <ele>70.7</ele>
        <time>2025-08-25T10:03:36Z</time>
      </trkpt>
      <trkpt lat="46.99598" lon="-0.96512">
        <ele>70.7</ele>
        <time>2025-08-25T10:03:37Z</time>
      </trkpt>
      <trkpt lat="46.99599" lon="-0.96515">
        <ele>70.6</ele>
        <time>2025-08-25T10:03:38Z</time>
      </trkpt>
      <trkpt lat="46.996" lon="-0.96516">
        <ele>70.6</ele>
        <time>2025-08-25T10:03:39Z</time>
      </trkpt>
      <trkpt lat="46.996" lon="-0.96517">
        <ele>70.6</ele>
        <time>2025-08-25T10:03:40Z</time>
      </trkpt>
      <trkpt lat="46.99601" lon="-0.96519">
        <ele>70.6</ele>
        <time>2025-08-25T10:03:41Z</time>
      </trkpt>
      <trkpt lat="46.99602" lon="-0.96521">
        <ele>70.6</ele>
        <time>2025-08-25T10:03:42Z</time>
      </trkpt>
      <trkpt lat="46.99603" lon="-0.96524">
        <ele>70.6</ele>
        <time>2025-08-25T10:03:43Z</time>
      </trkpt>
      <trkpt lat="46.99603" lon="-0.96525">
        <ele>70.6</ele>
        <time>2025-08-25T10:03:44Z</time>
      </trkpt>
      <trkpt lat="46.99603" lon="-0.96526">
        <ele>70.6</ele>
        <time>2025-08-25T10:03:45Z</time>
      </trkpt>
      <trkpt lat="46.99605" lon="-0.96528">
        <ele>70.6</ele>
        <time>2025-08-25T10:03:46Z</time>
      </trkpt>
      <trkpt lat="46.99605" lon="-0.96529">
        <ele>70.6</ele>
        <time>2025-08-25T10:03:47Z</time>
      </trkpt>
      <trkpt lat="46.99606" lon="-0.9653">
        <ele>70.6</ele>
        <time>2025-08-25T10:03:48Z</time>
      </trkpt>
      <trkpt lat="46.99607" lon="-0.96531">
        <ele>70.6</ele>
        <time>2025-08-25T10:03:49Z</time>
      </trkpt>
      <trkpt lat="46.99607" lon="-0.96533">
        <ele>70.6</ele>
        <time>2025-08-25T10:03:50Z</time>
      </trkpt>
      <trkpt lat="46.99608" lon="-0.96534">
        <ele>70.7</ele>
        <time>2025-08-25T10:03:51Z</time>
      </trkpt>
      <trkpt lat="46.99609" lon="-0.96536">
        <ele>70.7</ele>
        <time>2025-08-25T10:03:52Z</time>
      </trkpt>
      <trkpt lat="46.9961" lon="-0.96536">
        <ele>70.7</ele>
        <time>2025-08-25T10:03:53Z</time>
      </trkpt>
      <trkpt lat="46.99611" lon="-0.96537">
        <ele>70.7</ele>
        <time>2025-08-25T10:03:54Z</time>
      </trkpt>
      <trkpt lat="46.99613" lon="-0.96538">
        <ele>70.7</ele>
        <time>2025-08-25T10:03:55Z</time>
      </trkpt>
      <trkpt lat="46.99613" lon="-0.96539">
        <ele>70.7</ele>
        <time>2025-08-25T10:03:56Z</time>
      </trkpt>
      <trkpt lat="46.99614" lon="-0.96539">
        <ele>70.7</ele>
        <time>2025-08-25T10:03:57Z</time>
      </trkpt>
      <trkpt lat="46.99615" lon="-0.9654">
        <ele>70.8</ele>
        <time>2025-08-25T10:03:58Z</time>
      </trkpt>
      <trkpt lat="46.99616" lon="-0.96541">
        <ele>70.8</ele>
        <time>2025-08-25T10:03:59Z</time>
      </trkpt>
      <trkpt lat="46.99617" lon="-0.96542">
        <ele>70.8</ele>
        <time>2025-08-25T10:04:00Z</time>
      </trkpt>
      <trkpt lat="46.99617" lon="-0.96545">
        <ele>70.8</ele>
        <time>2025-08-25T10:04:01Z</time>
      </trkpt>
      <trkpt lat="46.99617" lon="-0.96547">
        <ele>70.8</ele>
        <time>2025-08-25T10:04:02Z</time>
      </trkpt>
      <trkpt lat="46.99618" lon="-0.96548">
        <ele>70.8</ele>
        <time>2025-08-25T10:04:03Z</time>
      </trkpt>
      <trkpt lat="46.99618" lon="-0.9655">
        <ele>70.8</ele>
        <time>2025-08-25T10:04:04Z</time>
      </trkpt>
      <trkpt lat="46.99618" lon="-0.96551">
        <ele>70.8</ele>
        <time>2025-08-25T10:04:05Z</time>
      </trkpt>
      <trkpt lat="46.99619" lon="-0.96552">
        <ele>70.9</ele>
        <time>2025-08-25T10:04:06Z</time>
      </trkpt>
      <trkpt lat="46.99619" lon="-0.96554">
        <ele>70.9</ele>
        <time>2025-08-25T10:04:07Z</time>
      </trkpt>
      <trkpt lat="46.99619" lon="-0.96555">
        <ele>70.9</ele>
        <time>2025-08-25T10:04:08Z</time>
      </trkpt>
      <trkpt lat="46.99619" lon="-0.96556">
        <ele>70.9</ele>
        <time>2025-08-25T10:04:09Z</time>
      </trkpt>
      <trkpt lat="46.9962" lon="-0.96557">
        <ele>70.9</ele>
        <time>2025-08-25T10:04:10Z</time>
      </trkpt>
      <trkpt lat="46.9962" lon="-0.96559">
        <ele>70.9</ele>
        <time>2025-08-25T10:04:11Z</time>
      </trkpt>
      <trkpt lat="46.99621" lon="-0.9656">
        <ele>70.9</ele>
        <time>2025-08-25T10:04:12Z</time>
      </trkpt>
      <trkpt lat="46.99621" lon="-0.96561">
        <ele>70.9</ele>
        <time>2025-08-25T10:04:13Z</time>
      </trkpt>
      <trkpt lat="46.99622" lon="-0.96562">
        <ele>70.9</ele>
        <time>2025-08-25T10:04:14Z</time>
      </trkpt>
      <trkpt lat="46.99623" lon="-0.96564">
        <ele>70.9</ele>
        <time>2025-08-25T10:04:15Z</time>
      </trkpt>
      <trkpt lat="46.99625" lon="-0.96566">
        <ele>71</ele>
        <time>2025-08-25T10:04:16Z</time>
      </trkpt>
      <trkpt lat="46.99625" lon="-0.96566">
        <ele>71</ele>
        <time>2025-08-25T10:04:17Z</time>
      </trkpt>
      <trkpt lat="46.99626" lon="-0.96567">
        <ele>71</ele>
        <time>2025-08-25T10:04:18Z</time>
      </trkpt>
      <trkpt lat="46.99627" lon="-0.96568">
        <ele>71</ele>
        <time>2025-08-25T10:04:19Z</time>
      </trkpt>
      <trkpt lat="46.99627" lon="-0.9657">
        <ele>71</ele>
        <time>2025-08-25T10:04:20Z</time>
      </trkpt>
      <trkpt lat="46.99628" lon="-0.96571">
        <ele>71</ele>
        <time>2025-08-25T10:04:21Z</time>
      </trkpt>
      <trkpt lat="46.99629" lon="-0.96572">
        <ele>71</ele>
        <time>2025-08-25T10:04:22Z</time>
      </trkpt>
      <trkpt lat="46.99629" lon="-0.96573">
        <ele>71</ele>
        <time>2025-08-25T10:04:23Z</time>
      </trkpt>
      <trkpt lat="46.9963" lon="-0.96574">
        <ele>71</ele>
        <time>2025-08-25T10:04:24Z</time>
      </trkpt>
      <trkpt lat="46.99631" lon="-0.96575">
        <ele>71</ele>
        <time>2025-08-25T10:04:25Z</time>
      </trkpt>
      <trkpt lat="46.99631" lon="-0.96577">
        <ele>71</ele>
        <time>2025-08-25T10:04:26Z</time>
      </trkpt>
      <trkpt lat="46.99631" lon="-0.96578">
        <ele>71</ele>
        <time>2025-08-25T10:04:27Z</time>
      </trkpt>
      <trkpt lat="46.99632" lon="-0.96579">
        <ele>71</ele>
        <time>2025-08-25T10:04:28Z</time>
      </trkpt>
      <trkpt lat="46.99632" lon="-0.96581">
        <ele>71</ele>
        <time>2025-08-25T10:04:29Z</time>
      </trkpt>
      <trkpt lat="46.99632" lon="-0.96582">
        <ele>71.1</ele>
        <time>2025-08-25T10:04:30Z</time>
      </trkpt>
      <trkpt lat="46.99633" lon="-0.96584">
        <ele>71.1</ele>
        <time>2025-08-25T10:04:31Z</time>
      </trkpt>
      <trkpt lat="46.99633" lon="-0.96585">
        <ele>71.1</ele>
        <time>2025-08-25T10:04:32Z</time>
      </trkpt>
      <trkpt lat="46.99634" lon="-0.96587">
        <ele>71.1</ele>
        <time>2025-08-25T10:04:33Z</time>
      </trkpt>
      <trkpt lat="46.99634" lon="-0.9659">
        <ele>71.1</ele>
        <time>2025-08-25T10:04:34Z</time>
      </trkpt>
      <trkpt lat="46.99635" lon="-0.96591">
        <ele>71.1</ele>
        <time>2025-08-25T10:04:35Z</time>
      </trkpt>
      <trkpt lat="46.99635" lon="-0.96592">
        <ele>71.1</ele>
        <time>2025-08-25T10:04:36Z</time>
      </trkpt>
      <trkpt lat="46.99636" lon="-0.96595">
        <ele>71.1</ele>
        <time>2025-08-25T10:04:37Z</time>
      </trkpt>
      <trkpt lat="46.99636" lon="-0.96596">
        <ele>71.1</ele>
        <time>2025-08-25T10:04:38Z</time>
      </trkpt>
      <trkpt lat="46.99636" lon="-0.96597">
        <ele>71.1</ele>
        <time>2025-08-25T10:04:39Z</time>
      </trkpt>
      <trkpt lat="46.99637" lon="-0.96599">
        <ele>71.1</ele>
        <time>2025-08-25T10:04:40Z</time>
      </trkpt>
      <trkpt lat="46.99637" lon="-0.966">
        <ele>71.1</ele>
        <time>2025-08-25T10:04:41Z</time>
      </trkpt>
      <trkpt lat="46.99637" lon="-0.96602">
        <ele>71.1</ele>
        <time>2025-08-25T10:04:42Z</time>
      </trkpt>
      <trkpt lat="46.99638" lon="-0.96603">
        <ele>71.1</ele>
        <time>2025-08-25T10:04:43Z</time>
      </trkpt>
      <trkpt lat="46.99639" lon="-0.96605">
        <ele>71.1</ele>
        <time>2025-08-25T10:04:44Z</time>
      </trkpt>
      <trkpt lat="46.99639" lon="-0.96606">
        <ele>71.1</ele>
        <time>2025-08-25T10:04:45Z</time>
      </trkpt>
      <trkpt lat="46.9964" lon="-0.96607">
        <ele>71.1</ele>
        <time>2025-08-25T10:04:46Z</time>
      </trkpt>
      <trkpt lat="46.99641" lon="-0.96608">
        <ele>71.1</ele>
        <time>2025-08-25T10:04:47Z</time>
      </trkpt>
      <trkpt lat="46.99641" lon="-0.9661">
        <ele>71.1</ele>
        <time>2025-08-25T10:04:48Z</time>
      </trkpt>
      <trkpt lat="46.99642" lon="-0.96611">
        <ele>71.1</ele>
        <time>2025-08-25T10:04:49Z</time>
      </trkpt>
      <trkpt lat="46.99643" lon="-0.96612">
        <ele>71.1</ele>
        <time>2025-08-25T10:04:50Z</time>
      </trkpt>
      <trkpt lat="46.99644" lon="-0.96613">
        <ele>71.1</ele>
        <time>2025-08-25T10:04:51Z</time>
      </trkpt>
      <trkpt lat="46.99644" lon="-0.96614">
        <ele>71.2</ele>
        <time>2025-08-25T10:04:52Z</time>
      </trkpt>
      <trkpt lat="46.99645" lon="-0.96615">
        <ele>71.2</ele>
        <time>2025-08-25T10:04:53Z</time>
      </trkpt>
      <trkpt lat="46.99645" lon="-0.96617">
        <ele>71.2</ele>
        <time>2025-08-25T10:04:54Z</time>
      </trkpt>
      <trkpt lat="46.99645" lon="-0.96618">
        <ele>71.2</ele>
        <time>2025-08-25T10:04:55Z</time>
      </trkpt>
      <trkpt lat="46.99646" lon="-0.9662">
        <ele>71.2</ele>
        <time>2025-08-25T10:04:56Z</time>
      </trkpt>
      <trkpt lat="46.99646" lon="-0.96621">
        <ele>71.2</ele>
        <time>2025-08-25T10:04:57Z</time>
      </trkpt>
      <trkpt lat="46.99647" lon="-0.96624">
        <ele>71.2</ele>
        <time>2025-08-25T10:04:58Z</time>
      </trkpt>
      <trkpt lat="46.99647" lon="-0.96625">
        <ele>71.1</ele>
        <time>2025-08-25T10:04:59Z</time>
      </trkpt>
      <trkpt lat="46.99647" lon="-0.96627">
        <ele>71.1</ele>
        <time>2025-08-25T10:05:00Z</time>
      </trkpt>
      <trkpt lat="46.99648" lon="-0.9663">
        <ele>71.1</ele>
        <time>2025-08-25T10:05:01Z</time>
      </trkpt>
      <trkpt lat="46.99648" lon="-0.96631">
        <ele>71.1</ele>
        <time>2025-08-25T10:05:02Z</time>
      </trkpt>
      <trkpt lat="46.99648" lon="-0.96632">
        <ele>71.1</ele>
        <time>2025-08-25T10:05:03Z</time>
      </trkpt>
      <trkpt lat="46.99649" lon="-0.96634">
        <ele>71.1</ele>
        <time>2025-08-25T10:05:04Z</time>
      </trkpt>
      <trkpt lat="46.99649" lon="-0.96636">
        <ele>71.1</ele>
        <time>2025-08-25T10:05:05Z</time>
      </trkpt>
      <trkpt lat="46.99649" lon="-0.96637">
        <ele>71.1</ele>
        <time>2025-08-25T10:05:06Z</time>
      </trkpt>
      <trkpt lat="46.9965" lon="-0.96639">
        <ele>71.1</ele>
        <time>2025-08-25T10:05:07Z</time>
      </trkpt>
      <trkpt lat="46.9965" lon="-0.96641">
        <ele>71.1</ele>
        <time>2025-08-25T10:05:08Z</time>
      </trkpt>
      <trkpt lat="46.9965" lon="-0.96642">
        <ele>71.1</ele>
        <time>2025-08-25T10:05:09Z</time>
      </trkpt>
      <trkpt lat="46.99651" lon="-0.96644">
        <ele>71</ele>
        <time>2025-08-25T10:05:10Z</time>
      </trkpt>
      <trkpt lat="46.99651" lon="-0.96646">
        <ele>71</ele>
        <time>2025-08-25T10:05:11Z</time>
      </trkpt>
      <trkpt lat="46.99652" lon="-0.96648">
        <ele>71</ele>
        <time>2025-08-25T10:05:12Z</time>
      </trkpt>
      <trkpt lat="46.99652" lon="-0.9665">
        <ele>71</ele>
        <time>2025-08-25T10:05:13Z</time>
      </trkpt>
      <trkpt lat="46.99652" lon="-0.96651">
        <ele>71</ele>
        <time>2025-08-25T10:05:14Z</time>
      </trkpt>
      <trkpt lat="46.99653" lon="-0.96653">
        <ele>71</ele>
        <time>2025-08-25T10:05:15Z</time>
      </trkpt>
      <trkpt lat="46.99653" lon="-0.96655">
        <ele>70.9</ele>
        <time>2025-08-25T10:05:16Z</time>
      </trkpt>
      <trkpt lat="46.99653" lon="-0.96657">
        <ele>70.9</ele>
        <time>2025-08-25T10:05:17Z</time>
      </trkpt>
      <trkpt lat="46.99653" lon="-0.96659">
        <ele>70.9</ele>
        <time>2025-08-25T10:05:18Z</time>
      </trkpt>
      <trkpt lat="46.99653" lon="-0.96663">
        <ele>70.9</ele>
        <time>2025-08-25T10:05:19Z</time>
      </trkpt>
      <trkpt lat="46.99653" lon="-0.96664">
        <ele>70.9</ele>
        <time>2025-08-25T10:05:20Z</time>
      </trkpt>
      <trkpt lat="46.99653" lon="-0.96665">
        <ele>70.8</ele>
        <time>2025-08-25T10:05:21Z</time>
      </trkpt>
      <trkpt lat="46.99652" lon="-0.96666">
        <ele>70.8</ele>
        <time>2025-08-25T10:05:22Z</time>
      </trkpt>
      <trkpt lat="46.99652" lon="-0.96668">
        <ele>70.8</ele>
        <time>2025-08-25T10:05:23Z</time>
      </trkpt>
      <trkpt lat="46.99651" lon="-0.96669">
        <ele>70.8</ele>
        <time>2025-08-25T10:05:24Z</time>
      </trkpt>
      <trkpt lat="46.99651" lon="-0.9667">
        <ele>70.8</ele>
        <time>2025-08-25T10:05:25Z</time>
      </trkpt>
      <trkpt lat="46.9965" lon="-0.96671">
        <ele>70.8</ele>
        <time>2025-08-25T10:05:26Z</time>
      </trkpt>
      <trkpt lat="46.9965" lon="-0.96671">
        <ele>70.8</ele>
        <time>2025-08-25T10:05:27Z</time>
      </trkpt>
      <trkpt lat="46.9965" lon="-0.96671">
        <ele>70.7</ele>
        <time>2025-08-25T10:05:28Z</time>
      </trkpt>
      <trkpt lat="46.9965" lon="-0.96671">
        <ele>70.7</ele>
        <time>2025-08-25T10:05:29Z</time>
      </trkpt>
      <trkpt lat="46.99649" lon="-0.9667">
        <ele>70.6</ele>
        <time>2025-08-25T10:05:30Z</time>
      </trkpt>
      <trkpt lat="46.99649" lon="-0.9667">
        <ele>70.6</ele>
        <time>2025-08-25T10:05:31Z</time>
      </trkpt>
      <trkpt lat="46.99648" lon="-0.96669">
        <ele>70.5</ele>
        <time>2025-08-25T10:05:32Z</time>
      </trkpt>
      <trkpt lat="46.99648" lon="-0.96668">
        <ele>70.4</ele>
        <time>2025-08-25T10:05:33Z</time>
      </trkpt>
      <trkpt lat="46.99647" lon="-0.96667">
        <ele>70.3</ele>
        <time>2025-08-25T10:05:34Z</time>
      </trkpt>
      <trkpt lat="46.99647" lon="-0.96665">
        <ele>70.2</ele>
        <time>2025-08-25T10:05:35Z</time>
      </trkpt>
      <trkpt lat="46.99646" lon="-0.96663">
        <ele>70.1</ele>
        <time>2025-08-25T10:05:36Z</time>
      </trkpt>
      <trkpt lat="46.99645" lon="-0.96662">
        <ele>70</ele>
        <time>2025-08-25T10:05:37Z</time>
      </trkpt>
      <trkpt lat="46.99644" lon="-0.96661">
        <ele>69.9</ele>
        <time>2025-08-25T10:05:38Z</time>
      </trkpt>
      <trkpt lat="46.99644" lon="-0.9666">
        <ele>69.9</ele>
        <time>2025-08-25T10:05:39Z</time>
      </trkpt>
      <trkpt lat="46.99643" lon="-0.9666">
        <ele>69.8</ele>
        <time>2025-08-25T10:05:40Z</time>
      </trkpt>
      <trkpt lat="46.99643" lon="-0.96659">
        <ele>69.8</ele>
        <time>2025-08-25T10:05:41Z</time>
      </trkpt>
      <trkpt lat="46.99642" lon="-0.96659">
        <ele>69.7</ele>
        <time>2025-08-25T10:05:42Z</time>
      </trkpt>
      <trkpt lat="46.99642" lon="-0.96658">
        <ele>69.7</ele>
        <time>2025-08-25T10:05:43Z</time>
      </trkpt>
      <trkpt lat="46.99641" lon="-0.96658">
        <ele>69.6</ele>
        <time>2025-08-25T10:05:44Z</time>
      </trkpt>
      <trkpt lat="46.99641" lon="-0.96657">
        <ele>69.6</ele>
        <time>2025-08-25T10:05:45Z</time>
      </trkpt>
      <trkpt lat="46.9964" lon="-0.96657">
        <ele>69.5</ele>
        <time>2025-08-25T10:05:46Z</time>
      </trkpt>
      <trkpt lat="46.9964" lon="-0.96657">
        <ele>69.5</ele>
        <time>2025-08-25T10:05:47Z</time>
      </trkpt>
      <trkpt lat="46.99639" lon="-0.96657">
        <ele>69.5</ele>
        <time>2025-08-25T10:05:48Z</time>
      </trkpt>
      <trkpt lat="46.99639" lon="-0.96656">
        <ele>69.4</ele>
        <time>2025-08-25T10:05:49Z</time>
      </trkpt>
      <trkpt lat="46.99638" lon="-0.96656">
        <ele>69.3</ele>
        <time>2025-08-25T10:05:50Z</time>
      </trkpt>
      <trkpt lat="46.99637" lon="-0.96655">
        <ele>69.3</ele>
        <time>2025-08-25T10:05:51Z</time>
      </trkpt>
      <trkpt lat="46.99636" lon="-0.96655">
        <ele>69.2</ele>
        <time>2025-08-25T10:05:52Z</time>
      </trkpt>
      <trkpt lat="46.99635" lon="-0.96654">
        <ele>69.1</ele>
        <time>2025-08-25T10:05:53Z</time>
      </trkpt>
      <trkpt lat="46.99634" lon="-0.96654">
        <ele>69.1</ele>
        <time>2025-08-25T10:05:54Z</time>
      </trkpt>
      <trkpt lat="46.99633" lon="-0.96655">
        <ele>69</ele>
        <time>2025-08-25T10:05:55Z</time>
      </trkpt>
      <trkpt lat="46.99632" lon="-0.96655">
        <ele>68.9</ele>
        <time>2025-08-25T10:05:56Z</time>
      </trkpt>
      <trkpt lat="46.99631" lon="-0.96655">
        <ele>68.9</ele>
        <time>2025-08-25T10:05:57Z</time>
      </trkpt>
      <trkpt lat="46.9963" lon="-0.96655">
        <ele>68.8</ele>
        <time>2025-08-25T10:05:58Z</time>
      </trkpt>
      <trkpt lat="46.99629" lon="-0.96656">
        <ele>68.8</ele>
        <time>2025-08-25T10:05:59Z</time>
      </trkpt>
      <trkpt lat="46.99627" lon="-0.96656">
        <ele>68.7</ele>
        <time>2025-08-25T10:06:00Z</time>
      </trkpt>
      <trkpt lat="46.99626" lon="-0.96657">
        <ele>68.6</ele>
        <time>2025-08-25T10:06:01Z</time>
      </trkpt>
      <trkpt lat="46.99625" lon="-0.96657">
        <ele>68.6</ele>
        <time>2025-08-25T10:06:02Z</time>
      </trkpt>
      <trkpt lat="46.99623" lon="-0.96657">
        <ele>68.5</ele>
        <time>2025-08-25T10:06:03Z</time>
      </trkpt>
      <trkpt lat="46.99622" lon="-0.96657">
        <ele>68.4</ele>
        <time>2025-08-25T10:06:04Z</time>
      </trkpt>
      <trkpt lat="46.99622" lon="-0.96657">
        <ele>68.4</ele>
        <time>2025-08-25T10:06:05Z</time>
      </trkpt>
      <trkpt lat="46.99621" lon="-0.96657">
        <ele>68.4</ele>
        <time>2025-08-25T10:06:06Z</time>
      </trkpt>
      <trkpt lat="46.9962" lon="-0.96657">
        <ele>68.3</ele>
        <time>2025-08-25T10:06:07Z</time>
      </trkpt>
      <trkpt lat="46.99618" lon="-0.96657">
        <ele>68.3</ele>
        <time>2025-08-25T10:06:08Z</time>
      </trkpt>
      <trkpt lat="46.99617" lon="-0.96657">
        <ele>68.3</ele>
        <time>2025-08-25T10:06:09Z</time>
      </trkpt>
      <trkpt lat="46.99616" lon="-0.96658">
        <ele>68.2</ele>
        <time>2025-08-25T10:06:10Z</time>
      </trkpt>
      <trkpt lat="46.99615" lon="-0.96658">
        <ele>68.2</ele>
        <time>2025-08-25T10:06:11Z</time>
      </trkpt>
      <trkpt lat="46.99614" lon="-0.96658">
        <ele>68.2</ele>
        <time>2025-08-25T10:06:12Z</time>
      </trkpt>
      <trkpt lat="46.99613" lon="-0.96658">
        <ele>68.1</ele>
        <time>2025-08-25T10:06:13Z</time>
      </trkpt>
      <trkpt lat="46.99612" lon="-0.96659">
        <ele>68.1</ele>
        <time>2025-08-25T10:06:14Z</time>
      </trkpt>
      <trkpt lat="46.99611" lon="-0.96659">
        <ele>68.1</ele>
        <time>2025-08-25T10:06:15Z</time>
      </trkpt>
      <trkpt lat="46.9961" lon="-0.96659">
        <ele>68</ele>
        <time>2025-08-25T10:06:16Z</time>
      </trkpt>
      <trkpt lat="46.99609" lon="-0.96659">
        <ele>68</ele>
        <time>2025-08-25T10:06:17Z</time>
      </trkpt>
      <trkpt lat="46.99607" lon="-0.9666">
        <ele>67.9</ele>
        <time>2025-08-25T10:06:18Z</time>
      </trkpt>
      <trkpt lat="46.99606" lon="-0.9666">
        <ele>67.9</ele>
        <time>2025-08-25T10:06:19Z</time>
      </trkpt>
      <trkpt lat="46.99605" lon="-0.9666">
        <ele>67.9</ele>
        <time>2025-08-25T10:06:20Z</time>
      </trkpt>
      <trkpt lat="46.99605" lon="-0.9666">
        <ele>67.9</ele>
        <time>2025-08-25T10:06:21Z</time>
      </trkpt>
      <trkpt lat="46.99603" lon="-0.96661">
        <ele>67.8</ele>
        <time>2025-08-25T10:06:22Z</time>
      </trkpt>
      <trkpt lat="46.99602" lon="-0.96661">
        <ele>67.8</ele>
        <time>2025-08-25T10:06:23Z</time>
      </trkpt>
      <trkpt lat="46.99601" lon="-0.96662">
        <ele>67.8</ele>
        <time>2025-08-25T10:06:24Z</time>
      </trkpt>
      <trkpt lat="46.996" lon="-0.96663">
        <ele>67.7</ele>
        <time>2025-08-25T10:06:25Z</time>
      </trkpt>
      <trkpt lat="46.99599" lon="-0.96664">
        <ele>67.7</ele>
        <time>2025-08-25T10:06:26Z</time>
      </trkpt>
      <trkpt lat="46.99598" lon="-0.96666">
        <ele>67.6</ele>
        <time>2025-08-25T10:06:27Z</time>
      </trkpt>
      <trkpt lat="46.99596" lon="-0.96669">
        <ele>67.6</ele>
        <time>2025-08-25T10:06:28Z</time>
      </trkpt>
      <trkpt lat="46.99595" lon="-0.9667">
        <ele>67.5</ele>
        <time>2025-08-25T10:06:29Z</time>
      </trkpt>
      <trkpt lat="46.99593" lon="-0.96672">
        <ele>67.5</ele>
        <time>2025-08-25T10:06:30Z</time>
      </trkpt>
      <trkpt lat="46.99592" lon="-0.96673">
        <ele>67.4</ele>
        <time>2025-08-25T10:06:31Z</time>
      </trkpt>
      <trkpt lat="46.99591" lon="-0.96673">
        <ele>67.4</ele>
        <time>2025-08-25T10:06:32Z</time>
      </trkpt>
      <trkpt lat="46.99591" lon="-0.96674">
        <ele>67.4</ele>
        <time>2025-08-25T10:06:33Z</time>
      </trkpt>
      <trkpt lat="46.9959" lon="-0.96674">
        <ele>67.4</ele>
        <time>2025-08-25T10:06:34Z</time>
      </trkpt>
      <trkpt lat="46.9959" lon="-0.96674">
        <ele>67.4</ele>
        <time>2025-08-25T10:06:35Z</time>
      </trkpt>
      <trkpt lat="46.9959" lon="-0.96674">
        <ele>67.4</ele>
        <time>2025-08-25T10:06:36Z</time>
      </trkpt>
      <trkpt lat="46.9959" lon="-0.96674">
        <ele>67.4</ele>
        <time>2025-08-25T10:06:37Z</time>
      </trkpt>
      <trkpt lat="46.9959" lon="-0.96674">
        <ele>67.4</ele>
        <time>2025-08-25T10:06:38Z</time>
      </trkpt>
      <trkpt lat="46.9959" lon="-0.96675">
        <ele>67.4</ele>
        <time>2025-08-25T10:06:39Z</time>
      </trkpt>
      <trkpt lat="46.9959" lon="-0.96675">
        <ele>67.4</ele>
        <time>2025-08-25T10:06:40Z</time>
      </trkpt>
      <trkpt lat="46.9959" lon="-0.96675">
        <ele>67.4</ele>
        <time>2025-08-25T10:06:41Z</time>
      </trkpt>
      <trkpt lat="46.99589" lon="-0.96675">
        <ele>67.4</ele>
        <time>2025-08-25T10:06:42Z</time>
      </trkpt>
      <trkpt lat="46.99589" lon="-0.96675">
        <ele>67.4</ele>
        <time>2025-08-25T10:06:43Z</time>
      </trkpt>
      <trkpt lat="46.99588" lon="-0.96675">
        <ele>67.4</ele>
        <time>2025-08-25T10:06:44Z</time>
      </trkpt>
      <trkpt lat="46.99588" lon="-0.96675">
        <ele>67.4</ele>
        <time>2025-08-25T10:06:45Z</time>
      </trkpt>
      <trkpt lat="46.99588" lon="-0.96675">
        <ele>67.4</ele>
        <time>2025-08-25T10:06:46Z</time>
      </trkpt>
      <trkpt lat="46.99587" lon="-0.96674">
        <ele>67.4</ele>
        <time>2025-08-25T10:06:47Z</time>
      </trkpt>
      <trkpt lat="46.99588" lon="-0.96674">
        <ele>67.4</ele>
        <time>2025-08-25T10:06:48Z</time>
      </trkpt>
      <trkpt lat="46.99588" lon="-0.96675">
        <ele>67.4</ele>
        <time>2025-08-25T10:06:49Z</time>
      </trkpt>
      <trkpt lat="46.99588" lon="-0.96675">
        <ele>67.4</ele>
        <time>2025-08-25T10:06:50Z</time>
      </trkpt>
      <trkpt lat="46.99588" lon="-0.96675">
        <ele>67.4</ele>
        <time>2025-08-25T10:06:51Z</time>
      </trkpt>
      <trkpt lat="46.99588" lon="-0.96675">
        <ele>67.4</ele>
        <time>2025-08-25T10:06:52Z</time>
      </trkpt>
      <trkpt lat="46.99588" lon="-0.96675">
        <ele>67.4</ele>
        <time>2025-08-25T10:06:53Z</time>
      </trkpt>
      <trkpt lat="46.99588" lon="-0.96675">
        <ele>67.4</ele>
        <time>2025-08-25T10:06:54Z</time>
      </trkpt>
      <trkpt lat="46.99588" lon="-0.96675">
        <ele>67.4</ele>
        <time>2025-08-25T10:06:55Z</time>
      </trkpt>
      <trkpt lat="46.99588" lon="-0.96675">
        <ele>67.4</ele>
        <time>2025-08-25T10:06:56Z</time>
      </trkpt>
      <trkpt lat="46.99588" lon="-0.96675">
        <ele>67.4</ele>
        <time>2025-08-25T10:06:57Z</time>
      </trkpt>
      <trkpt lat="46.99587" lon="-0.96674">
        <ele>67.4</ele>
        <time>2025-08-25T10:06:58Z</time>
      </trkpt>
      <trkpt lat="46.99587" lon="-0.96673">
        <ele>67.4</ele>
        <time>2025-08-25T10:06:59Z</time>
      </trkpt>
      <trkpt lat="46.99587" lon="-0.96672">
        <ele>67.4</ele>
        <time>2025-08-25T10:07:00Z</time>
      </trkpt>
      <trkpt lat="46.99587" lon="-0.96672">
        <ele>67.4</ele>
        <time>2025-08-25T10:07:01Z</time>
      </trkpt>
      <trkpt lat="46.99587" lon="-0.96672">
        <ele>67.3</ele>
        <time>2025-08-25T10:07:02Z</time>
      </trkpt>
      <trkpt lat="46.99587" lon="-0.96671">
        <ele>67.3</ele>
        <time>2025-08-25T10:07:03Z</time>
      </trkpt>
      <trkpt lat="46.99588" lon="-0.9667">
        <ele>67.3</ele>
        <time>2025-08-25T10:07:04Z</time>
      </trkpt>
      <trkpt lat="46.99588" lon="-0.9667">
        <ele>67.3</ele>
        <time>2025-08-25T10:07:05Z</time>
      </trkpt>
      <trkpt lat="46.99588" lon="-0.9667">
        <ele>67.3</ele>
        <time>2025-08-25T10:07:06Z</time>
      </trkpt>
      <trkpt lat="46.99588" lon="-0.9667">
        <ele>67.3</ele>
        <time>2025-08-25T10:07:07Z</time>
      </trkpt>
      <trkpt lat="46.99588" lon="-0.96669">
        <ele>67.3</ele>
        <time>2025-08-25T10:07:08Z</time>
      </trkpt>
      <trkpt lat="46.99587" lon="-0.96666">
        <ele>67.3</ele>
        <time>2025-08-25T10:07:09Z</time>
      </trkpt>
      <trkpt lat="46.99587" lon="-0.96665">
        <ele>67.3</ele>
        <time>2025-08-25T10:07:10Z</time>
      </trkpt>
      <trkpt lat="46.99586" lon="-0.96664">
        <ele>67.3</ele>
        <time>2025-08-25T10:07:11Z</time>
      </trkpt>
      <trkpt lat="46.99586" lon="-0.96663">
        <ele>67.3</ele>
        <time>2025-08-25T10:07:12Z</time>
      </trkpt>
      <trkpt lat="46.99585" lon="-0.96662">
        <ele>67.3</ele>
        <time>2025-08-25T10:07:13Z</time>
      </trkpt>
      <trkpt lat="46.99585" lon="-0.96662">
        <ele>67.3</ele>
        <time>2025-08-25T10:07:14Z</time>
      </trkpt>
      <trkpt lat="46.99584" lon="-0.96661">
        <ele>67.3</ele>
        <time>2025-08-25T10:07:15Z</time>
      </trkpt>
      <trkpt lat="46.99584" lon="-0.96661">
        <ele>67.3</ele>
        <time>2025-08-25T10:07:16Z</time>
      </trkpt>
      <trkpt lat="46.99584" lon="-0.96661">
        <ele>67.3</ele>
        <time>2025-08-25T10:07:17Z</time>
      </trkpt>
      <trkpt lat="46.99584" lon="-0.9666">
        <ele>67.3</ele>
        <time>2025-08-25T10:07:18Z</time>
      </trkpt>
      <trkpt lat="46.99583" lon="-0.9666">
        <ele>67.3</ele>
        <time>2025-08-25T10:07:19Z</time>
      </trkpt>
      <trkpt lat="46.99583" lon="-0.9666">
        <ele>67.3</ele>
        <time>2025-08-25T10:07:20Z</time>
      </trkpt>
      <trkpt lat="46.99583" lon="-0.9666">
        <ele>67.3</ele>
        <time>2025-08-25T10:07:21Z</time>
      </trkpt>
      <trkpt lat="46.99583" lon="-0.9666">
        <ele>67.3</ele>
        <time>2025-08-25T10:07:22Z</time>
      </trkpt>
      <trkpt lat="46.99582" lon="-0.9666">
        <ele>67.3</ele>
        <time>2025-08-25T10:07:23Z</time>
      </trkpt>
      <trkpt lat="46.99582" lon="-0.9666">
        <ele>67.3</ele>
        <time>2025-08-25T10:07:24Z</time>
      </trkpt>
      <trkpt lat="46.99582" lon="-0.9666">
        <ele>67.3</ele>
        <time>2025-08-25T10:07:25Z</time>
      </trkpt>
      <trkpt lat="46.99582" lon="-0.9666">
        <ele>67.3</ele>
        <time>2025-08-25T10:07:26Z</time>
      </trkpt>
      <trkpt lat="46.99582" lon="-0.96659">
        <ele>67.3</ele>
        <time>2025-08-25T10:07:27Z</time>
      </trkpt>
      <trkpt lat="46.99581" lon="-0.96659">
        <ele>67.3</ele>
        <time>2025-08-25T10:07:28Z</time>
      </trkpt>
      <trkpt lat="46.99581" lon="-0.96659">
        <ele>67.4</ele>
        <time>2025-08-25T10:07:29Z</time>
      </trkpt>
      <trkpt lat="46.99581" lon="-0.96659">
        <ele>67.4</ele>
        <time>2025-08-25T10:07:30Z</time>
      </trkpt>
      <trkpt lat="46.99578" lon="-0.96659">
        <ele>67.4</ele>
        <time>2025-08-25T10:07:31Z</time>
      </trkpt>
      <trkpt lat="46.99575" lon="-0.96659">
        <ele>67.4</ele>
        <time>2025-08-25T10:07:32Z</time>
      </trkpt>
      <trkpt lat="46.99574" lon="-0.96659">
        <ele>67.4</ele>
        <time>2025-08-25T10:07:33Z</time>
      </trkpt>
      <trkpt lat="46.9957" lon="-0.96659">
        <ele>67.4</ele>
        <time>2025-08-25T10:07:34Z</time>
      </trkpt>
      <trkpt lat="46.99569" lon="-0.96659">
        <ele>67.4</ele>
        <time>2025-08-25T10:07:35Z</time>
      </trkpt>
      <trkpt lat="46.99566" lon="-0.96658">
        <ele>67.4</ele>
        <time>2025-08-25T10:07:36Z</time>
      </trkpt>
      <trkpt lat="46.99566" lon="-0.96658">
        <ele>67.4</ele>
        <time>2025-08-25T10:07:37Z</time>
      </trkpt>
      <trkpt lat="46.99562" lon="-0.96657">
        <ele>67.4</ele>
        <time>2025-08-25T10:07:38Z</time>
      </trkpt>
      <trkpt lat="46.99561" lon="-0.96657">
        <ele>67.5</ele>
        <time>2025-08-25T10:07:39Z</time>
      </trkpt>
      <trkpt lat="46.9956" lon="-0.96656">
        <ele>67.5</ele>
        <time>2025-08-25T10:07:40Z</time>
      </trkpt>
      <trkpt lat="46.9956" lon="-0.96656">
        <ele>67.5</ele>
        <time>2025-08-25T10:07:41Z</time>
      </trkpt>
      <trkpt lat="46.99559" lon="-0.96655">
        <ele>67.5</ele>
        <time>2025-08-25T10:07:42Z</time>
      </trkpt>
      <trkpt lat="46.99558" lon="-0.96655">
        <ele>67.5</ele>
        <time>2025-08-25T10:07:43Z</time>
      </trkpt>
      <trkpt lat="46.99558" lon="-0.96655">
        <ele>67.5</ele>
        <time>2025-08-25T10:07:44Z</time>
      </trkpt>
      <trkpt lat="46.99559" lon="-0.96655">
        <ele>67.5</ele>
        <time>2025-08-25T10:07:45Z</time>
      </trkpt>
      <trkpt lat="46.99559" lon="-0.96655">
        <ele>67.5</ele>
        <time>2025-08-25T10:07:46Z</time>
      </trkpt>
      <trkpt lat="46.99559" lon="-0.96655">
        <ele>67.5</ele>
        <time>2025-08-25T10:07:47Z</time>
      </trkpt>
      <trkpt lat="46.99559" lon="-0.96655">
        <ele>67.5</ele>
        <time>2025-08-25T10:07:48Z</time>
      </trkpt>
      <trkpt lat="46.99559" lon="-0.96655">
        <ele>67.5</ele>
        <time>2025-08-25T10:07:49Z</time>
      </trkpt>
      <trkpt lat="46.99559" lon="-0.96655">
        <ele>67.5</ele>
        <time>2025-08-25T10:07:50Z</time>
      </trkpt>
      <trkpt lat="46.99559" lon="-0.96655">
        <ele>67.5</ele>
        <time>2025-08-25T10:07:51Z</time>
      </trkpt>
      <trkpt lat="46.99558" lon="-0.96655">
        <ele>67.5</ele>
        <time>2025-08-25T10:07:52Z</time>
      </trkpt>
      <trkpt lat="46.99558" lon="-0.96655">
        <ele>67.5</ele>
        <time>2025-08-25T10:07:53Z</time>
      </trkpt>
      <trkpt lat="46.99558" lon="-0.96656">
        <ele>67.5</ele>
        <time>2025-08-25T10:07:54Z</time>
      </trkpt>
      <trkpt lat="46.99557" lon="-0.96656">
        <ele>67.5</ele>
        <time>2025-08-25T10:07:55Z</time>
      </trkpt>
      <trkpt lat="46.99557" lon="-0.96656">
        <ele>67.6</ele>
        <time>2025-08-25T10:07:56Z</time>
      </trkpt>
      <trkpt lat="46.99557" lon="-0.96656">
        <ele>67.6</ele>
        <time>2025-08-25T10:07:57Z</time>
      </trkpt>
      <trkpt lat="46.99556" lon="-0.96657">
        <ele>67.6</ele>
        <time>2025-08-25T10:07:58Z</time>
      </trkpt>
      <trkpt lat="46.99556" lon="-0.96657">
        <ele>67.6</ele>
        <time>2025-08-25T10:07:59Z</time>
      </trkpt>
      <trkpt lat="46.99556" lon="-0.96657">
        <ele>67.6</ele>
        <time>2025-08-25T10:08:00Z</time>
      </trkpt>
      <trkpt lat="46.99555" lon="-0.96657">
        <ele>67.6</ele>
        <time>2025-08-25T10:08:01Z</time>
      </trkpt>
      <trkpt lat="46.99555" lon="-0.96657">
        <ele>67.6</ele>
        <time>2025-08-25T10:08:02Z</time>
      </trkpt>
      <trkpt lat="46.99555" lon="-0.96657">
        <ele>67.6</ele>
        <time>2025-08-25T10:08:03Z</time>
      </trkpt>
      <trkpt lat="46.99553" lon="-0.96657">
        <ele>67.6</ele>
        <time>2025-08-25T10:08:04Z</time>
      </trkpt>
      <trkpt lat="46.99553" lon="-0.96657">
        <ele>67.6</ele>
        <time>2025-08-25T10:08:05Z</time>
      </trkpt>
      <trkpt lat="46.99552" lon="-0.96657">
        <ele>67.6</ele>
        <time>2025-08-25T10:08:06Z</time>
      </trkpt>
      <trkpt lat="46.99552" lon="-0.96657">
        <ele>67.6</ele>
        <time>2025-08-25T10:08:07Z</time>
      </trkpt>
      <trkpt lat="46.99552" lon="-0.96657">
        <ele>67.6</ele>
        <time>2025-08-25T10:08:08Z</time>
      </trkpt>
      <trkpt lat="46.99552" lon="-0.96657">
        <ele>67.6</ele>
        <time>2025-08-25T10:08:09Z</time>
      </trkpt>
      <trkpt lat="46.99553" lon="-0.96657">
        <ele>67.6</ele>
        <time>2025-08-25T10:08:10Z</time>
      </trkpt>
      <trkpt lat="46.99553" lon="-0.96657">
        <ele>67.6</ele>
        <time>2025-08-25T10:08:11Z</time>
      </trkpt>
      <trkpt lat="46.99553" lon="-0.96657">
        <ele>67.6</ele>
        <time>2025-08-25T10:08:12Z</time>
      </trkpt>
      <trkpt lat="46.99553" lon="-0.96657">
        <ele>67.6</ele>
        <time>2025-08-25T10:08:13Z</time>
      </trkpt>
      <trkpt lat="46.99552" lon="-0.96657">
        <ele>67.6</ele>
        <time>2025-08-25T10:08:14Z</time>
      </trkpt>
      <trkpt lat="46.99552" lon="-0.96657">
        <ele>67.5</ele>
        <time>2025-08-25T10:08:15Z</time>
      </trkpt>
      <trkpt lat="46.99552" lon="-0.96657">
        <ele>67.5</ele>
        <time>2025-08-25T10:08:16Z</time>
      </trkpt>
      <trkpt lat="46.99552" lon="-0.96657">
        <ele>67.5</ele>
        <time>2025-08-25T10:08:17Z</time>
      </trkpt>
      <trkpt lat="46.99552" lon="-0.96657">
        <ele>67.5</ele>
        <time>2025-08-25T10:08:18Z</time>
      </trkpt>
      <trkpt lat="46.99552" lon="-0.96657">
        <ele>67.5</ele>
        <time>2025-08-25T10:08:19Z</time>
      </trkpt>
      <trkpt lat="46.99551" lon="-0.96657">
        <ele>67.5</ele>
        <time>2025-08-25T10:08:20Z</time>
      </trkpt>
      <trkpt lat="46.99551" lon="-0.96657">
        <ele>67.5</ele>
        <time>2025-08-25T10:08:21Z</time>
      </trkpt>
      <trkpt lat="46.9955" lon="-0.96657">
        <ele>67.5</ele>
        <time>2025-08-25T10:08:22Z</time>
      </trkpt>
      <trkpt lat="46.9955" lon="-0.96657">
        <ele>67.5</ele>
        <time>2025-08-25T10:08:23Z</time>
      </trkpt>
      <trkpt lat="46.9955" lon="-0.96657">
        <ele>67.5</ele>
        <time>2025-08-25T10:08:24Z</time>
      </trkpt>
      <trkpt lat="46.9955" lon="-0.96657">
        <ele>67.5</ele>
        <time>2025-08-25T10:08:25Z</time>
      </trkpt>
      <trkpt lat="46.9955" lon="-0.96658">
        <ele>67.5</ele>
        <time>2025-08-25T10:08:26Z</time>
      </trkpt>
      <trkpt lat="46.9955" lon="-0.96658">
        <ele>67.4</ele>
        <time>2025-08-25T10:08:27Z</time>
      </trkpt>
      <trkpt lat="46.9955" lon="-0.96659">
        <ele>67.4</ele>
        <time>2025-08-25T10:08:28Z</time>
      </trkpt>
      <trkpt lat="46.9955" lon="-0.96659">
        <ele>67.4</ele>
        <time>2025-08-25T10:08:29Z</time>
      </trkpt>
      <trkpt lat="46.9955" lon="-0.9666">
        <ele>67.4</ele>
        <time>2025-08-25T10:08:30Z</time>
      </trkpt>
      <trkpt lat="46.9955" lon="-0.9666">
        <ele>67.4</ele>
        <time>2025-08-25T10:08:31Z</time>
      </trkpt>
      <trkpt lat="46.9955" lon="-0.9666">
        <ele>67.4</ele>
        <time>2025-08-25T10:08:32Z</time>
      </trkpt>
      <trkpt lat="46.9955" lon="-0.96661">
        <ele>67.4</ele>
        <time>2025-08-25T10:08:33Z</time>
      </trkpt>
      <trkpt lat="46.9955" lon="-0.96661">
        <ele>67.4</ele>
        <time>2025-08-25T10:08:34Z</time>
      </trkpt>
      <trkpt lat="46.9955" lon="-0.96661">
        <ele>67.4</ele>
        <time>2025-08-25T10:08:35Z</time>
      </trkpt>
      <trkpt lat="46.9955" lon="-0.96661">
        <ele>67.4</ele>
        <time>2025-08-25T10:08:36Z</time>
      </trkpt>
      <trkpt lat="46.9955" lon="-0.96661">
        <ele>67.3</ele>
        <time>2025-08-25T10:08:37Z</time>
      </trkpt>
      <trkpt lat="46.9955" lon="-0.96662">
        <ele>67.3</ele>
        <time>2025-08-25T10:08:38Z</time>
      </trkpt>
      <trkpt lat="46.9955" lon="-0.96662">
        <ele>67.3</ele>
        <time>2025-08-25T10:08:39Z</time>
      </trkpt>
      <trkpt lat="46.9955" lon="-0.96662">
        <ele>67.3</ele>
        <time>2025-08-25T10:08:40Z</time>
      </trkpt>
      <trkpt lat="46.9955" lon="-0.96662">
        <ele>67.3</ele>
        <time>2025-08-25T10:08:41Z</time>
      </trkpt>
      <trkpt lat="46.99549" lon="-0.96662">
        <ele>67.3</ele>
        <time>2025-08-25T10:08:42Z</time>
      </trkpt>
      <trkpt lat="46.99549" lon="-0.96663">
        <ele>67.3</ele>
        <time>2025-08-25T10:08:43Z</time>
      </trkpt>
      <trkpt lat="46.99549" lon="-0.96663">
        <ele>67.3</ele>
        <time>2025-08-25T10:08:44Z</time>
      </trkpt>
      <trkpt lat="46.99549" lon="-0.96663">
        <ele>67.3</ele>
        <time>2025-08-25T10:08:45Z</time>
      </trkpt>
      <trkpt lat="46.99549" lon="-0.96663">
        <ele>67.3</ele>
        <time>2025-08-25T10:08:46Z</time>
      </trkpt>
      <trkpt lat="46.99549" lon="-0.96664">
        <ele>67.3</ele>
        <time>2025-08-25T10:08:47Z</time>
      </trkpt>
      <trkpt lat="46.99548" lon="-0.96665">
        <ele>67.3</ele>
        <time>2025-08-25T10:08:48Z</time>
      </trkpt>
      <trkpt lat="46.99548" lon="-0.96667">
        <ele>67.3</ele>
        <time>2025-08-25T10:08:49Z</time>
      </trkpt>
      <trkpt lat="46.99547" lon="-0.96669">
        <ele>67.3</ele>
        <time>2025-08-25T10:08:50Z</time>
      </trkpt>
      <trkpt lat="46.99546" lon="-0.96671">
        <ele>67.3</ele>
        <time>2025-08-25T10:08:51Z</time>
      </trkpt>
      <trkpt lat="46.99546" lon="-0.96672">
        <ele>67.3</ele>
        <time>2025-08-25T10:08:52Z</time>
      </trkpt>
      <trkpt lat="46.99544" lon="-0.96676">
        <ele>67.3</ele>
        <time>2025-08-25T10:08:53Z</time>
      </trkpt>
      <trkpt lat="46.99543" lon="-0.96678">
        <ele>67.3</ele>
        <time>2025-08-25T10:08:54Z</time>
      </trkpt>
      <trkpt lat="46.99542" lon="-0.9668">
        <ele>67.3</ele>
        <time>2025-08-25T10:08:55Z</time>
      </trkpt>
      <trkpt lat="46.99542" lon="-0.96681">
        <ele>67.3</ele>
        <time>2025-08-25T10:08:56Z</time>
      </trkpt>
      <trkpt lat="46.99541" lon="-0.96683">
        <ele>67.3</ele>
        <time>2025-08-25T10:08:57Z</time>
      </trkpt>
      <trkpt lat="46.99541" lon="-0.96685">
        <ele>67.3</ele>
        <time>2025-08-25T10:08:58Z</time>
      </trkpt>
      <trkpt lat="46.9954" lon="-0.96687">
        <ele>67.3</ele>
        <time>2025-08-25T10:08:59Z</time>
      </trkpt>
      <trkpt lat="46.9954" lon="-0.96689">
        <ele>67.3</ele>
        <time>2025-08-25T10:09:00Z</time>
      </trkpt>
      <trkpt lat="46.99539" lon="-0.96692">
        <ele>67.3</ele>
        <time>2025-08-25T10:09:01Z</time>
      </trkpt>
      <trkpt lat="46.99539" lon="-0.96694">
        <ele>67.3</ele>
        <time>2025-08-25T10:09:02Z</time>
      </trkpt>
      <trkpt lat="46.99538" lon="-0.96696">
        <ele>67.3</ele>
        <time>2025-08-25T10:09:03Z</time>
      </trkpt>
      <trkpt lat="46.99538" lon="-0.96698">
        <ele>67.3</ele>
        <time>2025-08-25T10:09:04Z</time>
      </trkpt>
      <trkpt lat="46.99538" lon="-0.967">
        <ele>67.3</ele>
        <time>2025-08-25T10:09:05Z</time>
      </trkpt>
      <trkpt lat="46.99537" lon="-0.96702">
        <ele>67.3</ele>
        <time>2025-08-25T10:09:06Z</time>
      </trkpt>
      <trkpt lat="46.99537" lon="-0.96704">
        <ele>67.3</ele>
        <time>2025-08-25T10:09:07Z</time>
      </trkpt>
      <trkpt lat="46.99537" lon="-0.96705">
        <ele>67.3</ele>
        <time>2025-08-25T10:09:08Z</time>
      </trkpt>
      <trkpt lat="46.99537" lon="-0.96707">
        <ele>67.3</ele>
        <time>2025-08-25T10:09:09Z</time>
      </trkpt>
      <trkpt lat="46.99537" lon="-0.96708">
        <ele>67.3</ele>
        <time>2025-08-25T10:09:10Z</time>
      </trkpt>
      <trkpt lat="46.99537" lon="-0.9671">
        <ele>67.2</ele>
        <time>2025-08-25T10:09:11Z</time>
      </trkpt>
      <trkpt lat="46.99537" lon="-0.96711">
        <ele>67.2</ele>
        <time>2025-08-25T10:09:12Z</time>
      </trkpt>
      <trkpt lat="46.99537" lon="-0.96713">
        <ele>67.2</ele>
        <time>2025-08-25T10:09:13Z</time>
      </trkpt>
      <trkpt lat="46.99537" lon="-0.96715">
        <ele>67.2</ele>
        <time>2025-08-25T10:09:14Z</time>
      </trkpt>
      <trkpt lat="46.99538" lon="-0.96718">
        <ele>67.2</ele>
        <time>2025-08-25T10:09:15Z</time>
      </trkpt>
      <trkpt lat="46.99538" lon="-0.9672">
        <ele>67.2</ele>
        <time>2025-08-25T10:09:16Z</time>
      </trkpt>
      <trkpt lat="46.99538" lon="-0.96722">
        <ele>67.2</ele>
        <time>2025-08-25T10:09:17Z</time>
      </trkpt>
      <trkpt lat="46.99539" lon="-0.96723">
        <ele>67.2</ele>
        <time>2025-08-25T10:09:18Z</time>
      </trkpt>
      <trkpt lat="46.99539" lon="-0.96725">
        <ele>67.2</ele>
        <time>2025-08-25T10:09:19Z</time>
      </trkpt>
      <trkpt lat="46.99539" lon="-0.96727">
        <ele>67.2</ele>
        <time>2025-08-25T10:09:20Z</time>
      </trkpt>
      <trkpt lat="46.99539" lon="-0.96729">
        <ele>67.2</ele>
        <time>2025-08-25T10:09:21Z</time>
      </trkpt>
      <trkpt lat="46.99539" lon="-0.9673">
        <ele>67.2</ele>
        <time>2025-08-25T10:09:22Z</time>
      </trkpt>
      <trkpt lat="46.9954" lon="-0.96732">
        <ele>67.2</ele>
        <time>2025-08-25T10:09:23Z</time>
      </trkpt>
      <trkpt lat="46.9954" lon="-0.96734">
        <ele>67.2</ele>
        <time>2025-08-25T10:09:24Z</time>
      </trkpt>
      <trkpt lat="46.9954" lon="-0.96735">
        <ele>67.2</ele>
        <time>2025-08-25T10:09:25Z</time>
      </trkpt>
      <trkpt lat="46.9954" lon="-0.96736">
        <ele>67.2</ele>
        <time>2025-08-25T10:09:26Z</time>
      </trkpt>
      <trkpt lat="46.9954" lon="-0.96738">
        <ele>67.2</ele>
        <time>2025-08-25T10:09:27Z</time>
      </trkpt>
      <trkpt lat="46.99539" lon="-0.96739">
        <ele>67.2</ele>
        <time>2025-08-25T10:09:28Z</time>
      </trkpt>
      <trkpt lat="46.9954" lon="-0.96741">
        <ele>67.2</ele>
        <time>2025-08-25T10:09:29Z</time>
      </trkpt>
      <trkpt lat="46.9954" lon="-0.96743">
        <ele>67.2</ele>
        <time>2025-08-25T10:09:30Z</time>
      </trkpt>
      <trkpt lat="46.9954" lon="-0.96745">
        <ele>67.2</ele>
        <time>2025-08-25T10:09:31Z</time>
      </trkpt>
      <trkpt lat="46.9954" lon="-0.96747">
        <ele>67.1</ele>
        <time>2025-08-25T10:09:32Z</time>
      </trkpt>
      <trkpt lat="46.9954" lon="-0.96748">
        <ele>67.1</ele>
        <time>2025-08-25T10:09:33Z</time>
      </trkpt>
      <trkpt lat="46.9954" lon="-0.96751">
        <ele>67.1</ele>
        <time>2025-08-25T10:09:34Z</time>
      </trkpt>
      <trkpt lat="46.99539" lon="-0.96753">
        <ele>67.1</ele>
        <time>2025-08-25T10:09:35Z</time>
      </trkpt>
      <trkpt lat="46.99539" lon="-0.96754">
        <ele>67.1</ele>
        <time>2025-08-25T10:09:36Z</time>
      </trkpt>
      <trkpt lat="46.99539" lon="-0.96756">
        <ele>67.1</ele>
        <time>2025-08-25T10:09:37Z</time>
      </trkpt>
      <trkpt lat="46.99538" lon="-0.96758">
        <ele>67.1</ele>
        <time>2025-08-25T10:09:38Z</time>
      </trkpt>
      <trkpt lat="46.99537" lon="-0.96759">
        <ele>67.1</ele>
        <time>2025-08-25T10:09:39Z</time>
      </trkpt>
      <trkpt lat="46.99537" lon="-0.96761">
        <ele>67</ele>
        <time>2025-08-25T10:09:40Z</time>
      </trkpt>
      <trkpt lat="46.99536" lon="-0.96762">
        <ele>67</ele>
        <time>2025-08-25T10:09:41Z</time>
      </trkpt>
      <trkpt lat="46.99536" lon="-0.96764">
        <ele>67</ele>
        <time>2025-08-25T10:09:42Z</time>
      </trkpt>
      <trkpt lat="46.99536" lon="-0.96765">
        <ele>67</ele>
        <time>2025-08-25T10:09:43Z</time>
      </trkpt>
      <trkpt lat="46.99536" lon="-0.96767">
        <ele>67</ele>
        <time>2025-08-25T10:09:44Z</time>
      </trkpt>
      <trkpt lat="46.99535" lon="-0.9677">
        <ele>67</ele>
        <time>2025-08-25T10:09:45Z</time>
      </trkpt>
      <trkpt lat="46.99535" lon="-0.96771">
        <ele>67</ele>
        <time>2025-08-25T10:09:46Z</time>
      </trkpt>
      <trkpt lat="46.99534" lon="-0.96773">
        <ele>67</ele>
        <time>2025-08-25T10:09:47Z</time>
      </trkpt>
      <trkpt lat="46.99534" lon="-0.96775">
        <ele>67</ele>
        <time>2025-08-25T10:09:48Z</time>
      </trkpt>
      <trkpt lat="46.99534" lon="-0.96777">
        <ele>66.9</ele>
        <time>2025-08-25T10:09:49Z</time>
      </trkpt>
      <trkpt lat="46.99533" lon="-0.96779">
        <ele>66.9</ele>
        <time>2025-08-25T10:09:50Z</time>
      </trkpt>
      <trkpt lat="46.99533" lon="-0.96781">
        <ele>66.9</ele>
        <time>2025-08-25T10:09:51Z</time>
      </trkpt>
      <trkpt lat="46.99532" lon="-0.96782">
        <ele>66.9</ele>
        <time>2025-08-25T10:09:52Z</time>
      </trkpt>
      <trkpt lat="46.99531" lon="-0.96785">
        <ele>66.9</ele>
        <time>2025-08-25T10:09:53Z</time>
      </trkpt>
      <trkpt lat="46.99531" lon="-0.96786">
        <ele>66.9</ele>
        <time>2025-08-25T10:09:54Z</time>
      </trkpt>
      <trkpt lat="46.9953" lon="-0.96787">
        <ele>66.9</ele>
        <time>2025-08-25T10:09:55Z</time>
      </trkpt>
      <trkpt lat="46.9953" lon="-0.96789">
        <ele>66.9</ele>
        <time>2025-08-25T10:09:56Z</time>
      </trkpt>
      <trkpt lat="46.99529" lon="-0.96791">
        <ele>66.8</ele>
        <time>2025-08-25T10:09:57Z</time>
      </trkpt>
      <trkpt lat="46.99528" lon="-0.96793">
        <ele>66.8</ele>
        <time>2025-08-25T10:09:58Z</time>
      </trkpt>
      <trkpt lat="46.99527" lon="-0.96794">
        <ele>66.8</ele>
        <time>2025-08-25T10:09:59Z</time>
      </trkpt>
      <trkpt lat="46.99526" lon="-0.96795">
        <ele>66.8</ele>
        <time>2025-08-25T10:10:00Z</time>
      </trkpt>
      <trkpt lat="46.99525" lon="-0.96796">
        <ele>66.8</ele>
        <time>2025-08-25T10:10:01Z</time>
      </trkpt>
      <trkpt lat="46.99524" lon="-0.96798">
        <ele>66.8</ele>
        <time>2025-08-25T10:10:02Z</time>
      </trkpt>
      <trkpt lat="46.99523" lon="-0.968">
        <ele>66.8</ele>
        <time>2025-08-25T10:10:03Z</time>
      </trkpt>
      <trkpt lat="46.99522" lon="-0.96801">
        <ele>66.8</ele>
        <time>2025-08-25T10:10:04Z</time>
      </trkpt>
      <trkpt lat="46.99521" lon="-0.96802">
        <ele>66.8</ele>
        <time>2025-08-25T10:10:05Z</time>
      </trkpt>
      <trkpt lat="46.9952" lon="-0.96803">
        <ele>66.7</ele>
        <time>2025-08-25T10:10:06Z</time>
      </trkpt>
      <trkpt lat="46.99519" lon="-0.96804">
        <ele>66.7</ele>
        <time>2025-08-25T10:10:07Z</time>
      </trkpt>
      <trkpt lat="46.99518" lon="-0.96805">
        <ele>66.7</ele>
        <time>2025-08-25T10:10:08Z</time>
      </trkpt>
      <trkpt lat="46.99517" lon="-0.96806">
        <ele>66.7</ele>
        <time>2025-08-25T10:10:09Z</time>
      </trkpt>
      <trkpt lat="46.99516" lon="-0.96807">
        <ele>66.7</ele>
        <time>2025-08-25T10:10:10Z</time>
      </trkpt>
      <trkpt lat="46.99515" lon="-0.96808">
        <ele>66.7</ele>
        <time>2025-08-25T10:10:11Z</time>
      </trkpt>
      <trkpt lat="46.99514" lon="-0.96809">
        <ele>66.7</ele>
        <time>2025-08-25T10:10:12Z</time>
      </trkpt>
      <trkpt lat="46.99514" lon="-0.96811">
        <ele>66.7</ele>
        <time>2025-08-25T10:10:13Z</time>
      </trkpt>
      <trkpt lat="46.99512" lon="-0.96813">
        <ele>66.6</ele>
        <time>2025-08-25T10:10:14Z</time>
      </trkpt>
      <trkpt lat="46.99512" lon="-0.96814">
        <ele>66.6</ele>
        <time>2025-08-25T10:10:15Z</time>
      </trkpt>
      <trkpt lat="46.99511" lon="-0.96815">
        <ele>66.6</ele>
        <time>2025-08-25T10:10:16Z</time>
      </trkpt>
      <trkpt lat="46.9951" lon="-0.96817">
        <ele>66.6</ele>
        <time>2025-08-25T10:10:17Z</time>
      </trkpt>
      <trkpt lat="46.9951" lon="-0.96818">
        <ele>66.6</ele>
        <time>2025-08-25T10:10:18Z</time>
      </trkpt>
      <trkpt lat="46.99509" lon="-0.9682">
        <ele>66.6</ele>
        <time>2025-08-25T10:10:19Z</time>
      </trkpt>
      <trkpt lat="46.99508" lon="-0.96821">
        <ele>66.6</ele>
        <time>2025-08-25T10:10:20Z</time>
      </trkpt>
      <trkpt lat="46.99506" lon="-0.96822">
        <ele>66.6</ele>
        <time>2025-08-25T10:10:21Z</time>
      </trkpt>
      <trkpt lat="46.99505" lon="-0.96823">
        <ele>66.6</ele>
        <time>2025-08-25T10:10:22Z</time>
      </trkpt>
      <trkpt lat="46.99504" lon="-0.96824">
        <ele>66.5</ele>
        <time>2025-08-25T10:10:23Z</time>
      </trkpt>
      <trkpt lat="46.99503" lon="-0.96825">
        <ele>66.5</ele>
        <time>2025-08-25T10:10:24Z</time>
      </trkpt>
      <trkpt lat="46.99502" lon="-0.96826">
        <ele>66.5</ele>
        <time>2025-08-25T10:10:25Z</time>
      </trkpt>
      <trkpt lat="46.99501" lon="-0.96826">
        <ele>66.5</ele>
        <time>2025-08-25T10:10:26Z</time>
      </trkpt>
      <trkpt lat="46.995" lon="-0.96828">
        <ele>66.5</ele>
        <time>2025-08-25T10:10:27Z</time>
      </trkpt>
      <trkpt lat="46.99499" lon="-0.96829">
        <ele>66.5</ele>
        <time>2025-08-25T10:10:28Z</time>
      </trkpt>
      <trkpt lat="46.99498" lon="-0.9683">
        <ele>66.5</ele>
        <time>2025-08-25T10:10:29Z</time>
      </trkpt>
      <trkpt lat="46.99497" lon="-0.96831">
        <ele>66.5</ele>
        <time>2025-08-25T10:10:30Z</time>
      </trkpt>
      <trkpt lat="46.99496" lon="-0.96832">
        <ele>66.5</ele>
        <time>2025-08-25T10:10:31Z</time>
      </trkpt>
      <trkpt lat="46.99494" lon="-0.96833">
        <ele>66.4</ele>
        <time>2025-08-25T10:10:32Z</time>
      </trkpt>
      <trkpt lat="46.99493" lon="-0.96833">
        <ele>66.4</ele>
        <time>2025-08-25T10:10:33Z</time>
      </trkpt>
      <trkpt lat="46.99492" lon="-0.96834">
        <ele>66.4</ele>
        <time>2025-08-25T10:10:34Z</time>
      </trkpt>
      <trkpt lat="46.99492" lon="-0.96834">
        <ele>66.4</ele>
        <time>2025-08-25T10:10:35Z</time>
      </trkpt>
      <trkpt lat="46.99491" lon="-0.96835">
        <ele>66.4</ele>
        <time>2025-08-25T10:10:36Z</time>
      </trkpt>
      <trkpt lat="46.9949" lon="-0.96837">
        <ele>66.4</ele>
        <time>2025-08-25T10:10:37Z</time>
      </trkpt>
      <trkpt lat="46.99489" lon="-0.96837">
        <ele>66.4</ele>
        <time>2025-08-25T10:10:38Z</time>
      </trkpt>
      <trkpt lat="46.99488" lon="-0.9684">
        <ele>66.4</ele>
        <time>2025-08-25T10:10:39Z</time>
      </trkpt>
      <trkpt lat="46.99487" lon="-0.9684">
        <ele>66.4</ele>
        <time>2025-08-25T10:10:40Z</time>
      </trkpt>
      <trkpt lat="46.99487" lon="-0.96841">
        <ele>66.4</ele>
        <time>2025-08-25T10:10:41Z</time>
      </trkpt>
      <trkpt lat="46.99486" lon="-0.96844">
        <ele>66.4</ele>
        <time>2025-08-25T10:10:42Z</time>
      </trkpt>
      <trkpt lat="46.99485" lon="-0.96845">
        <ele>66.4</ele>
        <time>2025-08-25T10:10:43Z</time>
      </trkpt>
      <trkpt lat="46.99484" lon="-0.96847">
        <ele>66.4</ele>
        <time>2025-08-25T10:10:44Z</time>
      </trkpt>
      <trkpt lat="46.99484" lon="-0.96848">
        <ele>66.4</ele>
        <time>2025-08-25T10:10:45Z</time>
      </trkpt>
      <trkpt lat="46.99483" lon="-0.96849">
        <ele>66.4</ele>
        <time>2025-08-25T10:10:46Z</time>
      </trkpt>
      <trkpt lat="46.99482" lon="-0.96852">
        <ele>66.3</ele>
        <time>2025-08-25T10:10:47Z</time>
      </trkpt>
      <trkpt lat="46.99482" lon="-0.96853">
        <ele>66.3</ele>
        <time>2025-08-25T10:10:48Z</time>
      </trkpt>
      <trkpt lat="46.99481" lon="-0.96854">
        <ele>66.3</ele>
        <time>2025-08-25T10:10:49Z</time>
      </trkpt>
      <trkpt lat="46.99481" lon="-0.96856">
        <ele>66.3</ele>
        <time>2025-08-25T10:10:50Z</time>
      </trkpt>
      <trkpt lat="46.9948" lon="-0.96857">
        <ele>66.3</ele>
        <time>2025-08-25T10:10:51Z</time>
      </trkpt>
      <trkpt lat="46.9948" lon="-0.96858">
        <ele>66.3</ele>
        <time>2025-08-25T10:10:52Z</time>
      </trkpt>
      <trkpt lat="46.99479" lon="-0.96859">
        <ele>66.3</ele>
        <time>2025-08-25T10:10:53Z</time>
      </trkpt>
      <trkpt lat="46.99479" lon="-0.9686">
        <ele>66.3</ele>
        <time>2025-08-25T10:10:54Z</time>
      </trkpt>
      <trkpt lat="46.99478" lon="-0.9686">
        <ele>66.3</ele>
        <time>2025-08-25T10:10:55Z</time>
      </trkpt>
      <trkpt lat="46.99477" lon="-0.96862">
        <ele>66.3</ele>
        <time>2025-08-25T10:10:56Z</time>
      </trkpt>
      <trkpt lat="46.99477" lon="-0.96863">
        <ele>66.3</ele>
        <time>2025-08-25T10:10:57Z</time>
      </trkpt>
      <trkpt lat="46.99477" lon="-0.96865">
        <ele>66.3</ele>
        <time>2025-08-25T10:10:58Z</time>
      </trkpt>
      <trkpt lat="46.99477" lon="-0.96866">
        <ele>66.3</ele>
        <time>2025-08-25T10:10:59Z</time>
      </trkpt>
      <trkpt lat="46.99476" lon="-0.96869">
        <ele>66.2</ele>
        <time>2025-08-25T10:11:00Z</time>
      </trkpt>
      <trkpt lat="46.99475" lon="-0.9687">
        <ele>66.2</ele>
        <time>2025-08-25T10:11:01Z</time>
      </trkpt>
      <trkpt lat="46.99474" lon="-0.96871">
        <ele>66.2</ele>
        <time>2025-08-25T10:11:02Z</time>
      </trkpt>
      <trkpt lat="46.99474" lon="-0.96871">
        <ele>66.2</ele>
        <time>2025-08-25T10:11:03Z</time>
      </trkpt>
      <trkpt lat="46.99473" lon="-0.96872">
        <ele>66.2</ele>
        <time>2025-08-25T10:11:04Z</time>
      </trkpt>
      <trkpt lat="46.99472" lon="-0.96874">
        <ele>66.2</ele>
        <time>2025-08-25T10:11:05Z</time>
      </trkpt>
      <trkpt lat="46.99471" lon="-0.96875">
        <ele>66.1</ele>
        <time>2025-08-25T10:11:06Z</time>
      </trkpt>
      <trkpt lat="46.99471" lon="-0.96877">
        <ele>66.1</ele>
        <time>2025-08-25T10:11:07Z</time>
      </trkpt>
      <trkpt lat="46.9947" lon="-0.96878">
        <ele>66.1</ele>
        <time>2025-08-25T10:11:08Z</time>
      </trkpt>
      <trkpt lat="46.9947" lon="-0.96879">
        <ele>66.1</ele>
        <time>2025-08-25T10:11:09Z</time>
      </trkpt>
      <trkpt lat="46.99469" lon="-0.96881">
        <ele>66.1</ele>
        <time>2025-08-25T10:11:10Z</time>
      </trkpt>
      <trkpt lat="46.99468" lon="-0.96882">
        <ele>66.1</ele>
        <time>2025-08-25T10:11:11Z</time>
      </trkpt>
      <trkpt lat="46.99467" lon="-0.96884">
        <ele>66</ele>
        <time>2025-08-25T10:11:12Z</time>
      </trkpt>
      <trkpt lat="46.99466" lon="-0.96885">
        <ele>66</ele>
        <time>2025-08-25T10:11:13Z</time>
      </trkpt>
      <trkpt lat="46.99466" lon="-0.96886">
        <ele>66</ele>
        <time>2025-08-25T10:11:14Z</time>
      </trkpt>
      <trkpt lat="46.99465" lon="-0.96887">
        <ele>66</ele>
        <time>2025-08-25T10:11:15Z</time>
      </trkpt>
      <trkpt lat="46.99464" lon="-0.96889">
        <ele>66</ele>
        <time>2025-08-25T10:11:16Z</time>
      </trkpt>
      <trkpt lat="46.99463" lon="-0.9689">
        <ele>65.9</ele>
        <time>2025-08-25T10:11:17Z</time>
      </trkpt>
      <trkpt lat="46.99462" lon="-0.96891">
        <ele>65.9</ele>
        <time>2025-08-25T10:11:18Z</time>
      </trkpt>
      <trkpt lat="46.99461" lon="-0.96893">
        <ele>65.9</ele>
        <time>2025-08-25T10:11:19Z</time>
      </trkpt>
      <trkpt lat="46.9946" lon="-0.96895">
        <ele>65.9</ele>
        <time>2025-08-25T10:11:20Z</time>
      </trkpt>
      <trkpt lat="46.99459" lon="-0.96897">
        <ele>65.8</ele>
        <time>2025-08-25T10:11:21Z</time>
      </trkpt>
      <trkpt lat="46.99458" lon="-0.96899">
        <ele>65.8</ele>
        <time>2025-08-25T10:11:22Z</time>
      </trkpt>
      <trkpt lat="46.99457" lon="-0.969">
        <ele>65.8</ele>
        <time>2025-08-25T10:11:23Z</time>
      </trkpt>
      <trkpt lat="46.99457" lon="-0.96901">
        <ele>65.8</ele>
        <time>2025-08-25T10:11:24Z</time>
      </trkpt>
      <trkpt lat="46.99456" lon="-0.96903">
        <ele>65.8</ele>
        <time>2025-08-25T10:11:25Z</time>
      </trkpt>
      <trkpt lat="46.99455" lon="-0.96905">
        <ele>65.8</ele>
        <time>2025-08-25T10:11:26Z</time>
      </trkpt>
      <trkpt lat="46.99454" lon="-0.96906">
        <ele>65.7</ele>
        <time>2025-08-25T10:11:27Z</time>
      </trkpt>
      <trkpt lat="46.99453" lon="-0.96906">
        <ele>65.7</ele>
        <time>2025-08-25T10:11:28Z</time>
      </trkpt>
      <trkpt lat="46.99452" lon="-0.96907">
        <ele>65.7</ele>
        <time>2025-08-25T10:11:29Z</time>
      </trkpt>
      <trkpt lat="46.99452" lon="-0.96909">
        <ele>65.7</ele>
        <time>2025-08-25T10:11:30Z</time>
      </trkpt>
      <trkpt lat="46.99451" lon="-0.9691">
        <ele>65.7</ele>
        <time>2025-08-25T10:11:31Z</time>
      </trkpt>
      <trkpt lat="46.99451" lon="-0.96912">
        <ele>65.7</ele>
        <time>2025-08-25T10:11:32Z</time>
      </trkpt>
      <trkpt lat="46.9945" lon="-0.96912">
        <ele>65.7</ele>
        <time>2025-08-25T10:11:33Z</time>
      </trkpt>
      <trkpt lat="46.9945" lon="-0.96913">
        <ele>65.7</ele>
        <time>2025-08-25T10:11:34Z</time>
      </trkpt>
      <trkpt lat="46.9945" lon="-0.96914">
        <ele>65.7</ele>
        <time>2025-08-25T10:11:35Z</time>
      </trkpt>
      <trkpt lat="46.9945" lon="-0.96915">
        <ele>65.7</ele>
        <time>2025-08-25T10:11:36Z</time>
      </trkpt>
      <trkpt lat="46.99449" lon="-0.96917">
        <ele>65.7</ele>
        <time>2025-08-25T10:11:37Z</time>
      </trkpt>
      <trkpt lat="46.9945" lon="-0.96916">
        <ele>65.7</ele>
        <time>2025-08-25T10:11:38Z</time>
      </trkpt>
      <trkpt lat="46.9945" lon="-0.96917">
        <ele>65.7</ele>
        <time>2025-08-25T10:11:39Z</time>
      </trkpt>
      <trkpt lat="46.99449" lon="-0.96918">
        <ele>65.7</ele>
        <time>2025-08-25T10:11:40Z</time>
      </trkpt>
      <trkpt lat="46.99449" lon="-0.96918">
        <ele>65.7</ele>
        <time>2025-08-25T10:11:41Z</time>
      </trkpt>
      <trkpt lat="46.99449" lon="-0.96919">
        <ele>65.7</ele>
        <time>2025-08-25T10:11:42Z</time>
      </trkpt>
      <trkpt lat="46.99449" lon="-0.96919">
        <ele>65.7</ele>
        <time>2025-08-25T10:11:43Z</time>
      </trkpt>
      <trkpt lat="46.99449" lon="-0.96919">
        <ele>65.8</ele>
        <time>2025-08-25T10:11:44Z</time>
      </trkpt>
      <trkpt lat="46.99449" lon="-0.9692">
        <ele>65.8</ele>
        <time>2025-08-25T10:11:45Z</time>
      </trkpt>
      <trkpt lat="46.99449" lon="-0.96921">
        <ele>65.8</ele>
        <time>2025-08-25T10:11:46Z</time>
      </trkpt>
      <trkpt lat="46.99449" lon="-0.96923">
        <ele>65.8</ele>
        <time>2025-08-25T10:11:47Z</time>
      </trkpt>
      <trkpt lat="46.99448" lon="-0.96924">
        <ele>65.8</ele>
        <time>2025-08-25T10:11:48Z</time>
      </trkpt>
      <trkpt lat="46.99448" lon="-0.96926">
        <ele>65.8</ele>
        <time>2025-08-25T10:11:49Z</time>
      </trkpt>
      <trkpt lat="46.99448" lon="-0.96928">
        <ele>65.8</ele>
        <time>2025-08-25T10:11:50Z</time>
      </trkpt>
      <trkpt lat="46.99447" lon="-0.9693">
        <ele>65.8</ele>
        <time>2025-08-25T10:11:51Z</time>
      </trkpt>
      <trkpt lat="46.99445" lon="-0.96933">
        <ele>65.8</ele>
        <time>2025-08-25T10:11:52Z</time>
      </trkpt>
      <trkpt lat="46.99445" lon="-0.96934">
        <ele>65.8</ele>
        <time>2025-08-25T10:11:53Z</time>
      </trkpt>
      <trkpt lat="46.99444" lon="-0.96936">
        <ele>65.7</ele>
        <time>2025-08-25T10:11:54Z</time>
      </trkpt>
      <trkpt lat="46.99444" lon="-0.96938">
        <ele>65.7</ele>
        <time>2025-08-25T10:11:55Z</time>
      </trkpt>
      <trkpt lat="46.99443" lon="-0.9694">
        <ele>65.7</ele>
        <time>2025-08-25T10:11:56Z</time>
      </trkpt>
      <trkpt lat="46.99443" lon="-0.96942">
        <ele>65.7</ele>
        <time>2025-08-25T10:11:57Z</time>
      </trkpt>
      <trkpt lat="46.99442" lon="-0.96944">
        <ele>65.7</ele>
        <time>2025-08-25T10:11:58Z</time>
      </trkpt>
      <trkpt lat="46.99442" lon="-0.96946">
        <ele>65.6</ele>
        <time>2025-08-25T10:11:59Z</time>
      </trkpt>
      <trkpt lat="46.99442" lon="-0.96948">
        <ele>65.6</ele>
        <time>2025-08-25T10:12:00Z</time>
      </trkpt>
      <trkpt lat="46.99441" lon="-0.96949">
        <ele>65.6</ele>
        <time>2025-08-25T10:12:01Z</time>
      </trkpt>
      <trkpt lat="46.99441" lon="-0.96951">
        <ele>65.6</ele>
        <time>2025-08-25T10:12:02Z</time>
      </trkpt>
      <trkpt lat="46.99441" lon="-0.96952">
        <ele>65.6</ele>
        <time>2025-08-25T10:12:03Z</time>
      </trkpt>
      <trkpt lat="46.9944" lon="-0.96954">
        <ele>65.6</ele>
        <time>2025-08-25T10:12:04Z</time>
      </trkpt>
      <trkpt lat="46.9944" lon="-0.96955">
        <ele>65.5</ele>
        <time>2025-08-25T10:12:05Z</time>
      </trkpt>
      <trkpt lat="46.9944" lon="-0.96958">
        <ele>65.5</ele>
        <time>2025-08-25T10:12:06Z</time>
      </trkpt>
      <trkpt lat="46.9944" lon="-0.9696">
        <ele>65.5</ele>
        <time>2025-08-25T10:12:07Z</time>
      </trkpt>
      <trkpt lat="46.9944" lon="-0.96962">
        <ele>65.5</ele>
        <time>2025-08-25T10:12:08Z</time>
      </trkpt>
      <trkpt lat="46.99441" lon="-0.96964">
        <ele>65.4</ele>
        <time>2025-08-25T10:12:09Z</time>
      </trkpt>
      <trkpt lat="46.99441" lon="-0.96966">
        <ele>65.4</ele>
        <time>2025-08-25T10:12:10Z</time>
      </trkpt>
      <trkpt lat="46.99442" lon="-0.96969">
        <ele>65.4</ele>
        <time>2025-08-25T10:12:11Z</time>
      </trkpt>
      <trkpt lat="46.99442" lon="-0.9697">
        <ele>65.3</ele>
        <time>2025-08-25T10:12:12Z</time>
      </trkpt>
      <trkpt lat="46.99442" lon="-0.96972">
        <ele>65.3</ele>
        <time>2025-08-25T10:12:13Z</time>
      </trkpt>
      <trkpt lat="46.99442" lon="-0.96973">
        <ele>65.3</ele>
        <time>2025-08-25T10:12:14Z</time>
      </trkpt>
      <trkpt lat="46.99442" lon="-0.96975">
        <ele>65.3</ele>
        <time>2025-08-25T10:12:15Z</time>
      </trkpt>
      <trkpt lat="46.99442" lon="-0.96977">
        <ele>65.3</ele>
        <time>2025-08-25T10:12:16Z</time>
      </trkpt>
      <trkpt lat="46.99442" lon="-0.96978">
        <ele>65.3</ele>
        <time>2025-08-25T10:12:17Z</time>
      </trkpt>
      <trkpt lat="46.99442" lon="-0.96979">
        <ele>65.2</ele>
        <time>2025-08-25T10:12:18Z</time>
      </trkpt>
      <trkpt lat="46.99442" lon="-0.96981">
        <ele>65.2</ele>
        <time>2025-08-25T10:12:19Z</time>
      </trkpt>
      <trkpt lat="46.99442" lon="-0.96982">
        <ele>65.2</ele>
        <time>2025-08-25T10:12:20Z</time>
      </trkpt>
      <trkpt lat="46.99443" lon="-0.96983">
        <ele>65.2</ele>
        <time>2025-08-25T10:12:21Z</time>
      </trkpt>
      <trkpt lat="46.99443" lon="-0.96985">
        <ele>65.2</ele>
        <time>2025-08-25T10:12:22Z</time>
      </trkpt>
      <trkpt lat="46.99443" lon="-0.96987">
        <ele>65.1</ele>
        <time>2025-08-25T10:12:23Z</time>
      </trkpt>
      <trkpt lat="46.99443" lon="-0.96988">
        <ele>65.1</ele>
        <time>2025-08-25T10:12:24Z</time>
      </trkpt>
      <trkpt lat="46.99442" lon="-0.9699">
        <ele>65.1</ele>
        <time>2025-08-25T10:12:25Z</time>
      </trkpt>
      <trkpt lat="46.99442" lon="-0.96992">
        <ele>65.1</ele>
        <time>2025-08-25T10:12:26Z</time>
      </trkpt>
      <trkpt lat="46.99442" lon="-0.96993">
        <ele>65.1</ele>
        <time>2025-08-25T10:12:27Z</time>
      </trkpt>
      <trkpt lat="46.99442" lon="-0.96995">
        <ele>65.1</ele>
        <time>2025-08-25T10:12:28Z</time>
      </trkpt>
      <trkpt lat="46.99442" lon="-0.96996">
        <ele>65</ele>
        <time>2025-08-25T10:12:29Z</time>
      </trkpt>
      <trkpt lat="46.99442" lon="-0.96997">
        <ele>65</ele>
        <time>2025-08-25T10:12:30Z</time>
      </trkpt>
      <trkpt lat="46.99442" lon="-0.96998">
        <ele>65</ele>
        <time>2025-08-25T10:12:31Z</time>
      </trkpt>
      <trkpt lat="46.99442" lon="-0.96999">
        <ele>65</ele>
        <time>2025-08-25T10:12:32Z</time>
      </trkpt>
      <trkpt lat="46.99442" lon="-0.96999">
        <ele>65</ele>
        <time>2025-08-25T10:12:33Z</time>
      </trkpt>
      <trkpt lat="46.99442" lon="-0.97">
        <ele>65</ele>
        <time>2025-08-25T10:12:34Z</time>
      </trkpt>
      <trkpt lat="46.99442" lon="-0.97001">
        <ele>65</ele>
        <time>2025-08-25T10:12:35Z</time>
      </trkpt>
      <trkpt lat="46.99442" lon="-0.97001">
        <ele>65</ele>
        <time>2025-08-25T10:12:36Z</time>
      </trkpt>
      <trkpt lat="46.99442" lon="-0.97002">
        <ele>65</ele>
        <time>2025-08-25T10:12:37Z</time>
      </trkpt>
      <trkpt lat="46.99442" lon="-0.97004">
        <ele>64.9</ele>
        <time>2025-08-25T10:12:38Z</time>
      </trkpt>
      <trkpt lat="46.99442" lon="-0.97006">
        <ele>64.9</ele>
        <time>2025-08-25T10:12:39Z</time>
      </trkpt>
      <trkpt lat="46.99442" lon="-0.97008">
        <ele>64.9</ele>
        <time>2025-08-25T10:12:40Z</time>
      </trkpt>
      <trkpt lat="46.99441" lon="-0.9701">
        <ele>64.9</ele>
        <time>2025-08-25T10:12:41Z</time>
      </trkpt>
      <trkpt lat="46.9944" lon="-0.97013">
        <ele>64.9</ele>
        <time>2025-08-25T10:12:42Z</time>
      </trkpt>
      <trkpt lat="46.9944" lon="-0.97015">
        <ele>64.8</ele>
        <time>2025-08-25T10:12:43Z</time>
      </trkpt>
      <trkpt lat="46.9944" lon="-0.97017">
        <ele>64.8</ele>
        <time>2025-08-25T10:12:44Z</time>
      </trkpt>
      <trkpt lat="46.99439" lon="-0.97019">
        <ele>64.8</ele>
        <time>2025-08-25T10:12:45Z</time>
      </trkpt>
      <trkpt lat="46.99439" lon="-0.97022">
        <ele>64.8</ele>
        <time>2025-08-25T10:12:46Z</time>
      </trkpt>
      <trkpt lat="46.99439" lon="-0.97023">
        <ele>64.8</ele>
        <time>2025-08-25T10:12:47Z</time>
      </trkpt>
      <trkpt lat="46.99439" lon="-0.97024">
        <ele>64.8</ele>
        <time>2025-08-25T10:12:48Z</time>
      </trkpt>
      <trkpt lat="46.99439" lon="-0.97028">
        <ele>64.8</ele>
        <time>2025-08-25T10:12:49Z</time>
      </trkpt>
      <trkpt lat="46.99439" lon="-0.97029">
        <ele>64.8</ele>
        <time>2025-08-25T10:12:50Z</time>
      </trkpt>
      <trkpt lat="46.99439" lon="-0.9703">
        <ele>64.8</ele>
        <time>2025-08-25T10:12:51Z</time>
      </trkpt>
      <trkpt lat="46.99439" lon="-0.97033">
        <ele>64.8</ele>
        <time>2025-08-25T10:12:52Z</time>
      </trkpt>
      <trkpt lat="46.99439" lon="-0.97035">
        <ele>64.8</ele>
        <time>2025-08-25T10:12:53Z</time>
      </trkpt>
      <trkpt lat="46.99439" lon="-0.97039">
        <ele>64.8</ele>
        <time>2025-08-25T10:12:54Z</time>
      </trkpt>
      <trkpt lat="46.99439" lon="-0.9704">
        <ele>64.8</ele>
        <time>2025-08-25T10:12:55Z</time>
      </trkpt>
      <trkpt lat="46.99439" lon="-0.97041">
        <ele>64.8</ele>
        <time>2025-08-25T10:12:56Z</time>
      </trkpt>
      <trkpt lat="46.99439" lon="-0.97043">
        <ele>64.8</ele>
        <time>2025-08-25T10:12:57Z</time>
      </trkpt>
      <trkpt lat="46.99438" lon="-0.97045">
        <ele>64.8</ele>
        <time>2025-08-25T10:12:58Z</time>
      </trkpt>
      <trkpt lat="46.99438" lon="-0.97048">
        <ele>64.8</ele>
        <time>2025-08-25T10:12:59Z</time>
      </trkpt>
      <trkpt lat="46.99437" lon="-0.97049">
        <ele>64.8</ele>
        <time>2025-08-25T10:13:00Z</time>
      </trkpt>
      <trkpt lat="46.99437" lon="-0.9705">
        <ele>64.8</ele>
        <time>2025-08-25T10:13:01Z</time>
      </trkpt>
      <trkpt lat="46.99436" lon="-0.97052">
        <ele>64.8</ele>
        <time>2025-08-25T10:13:02Z</time>
      </trkpt>
      <trkpt lat="46.99436" lon="-0.97053">
        <ele>64.8</ele>
        <time>2025-08-25T10:13:03Z</time>
      </trkpt>
      <trkpt lat="46.99436" lon="-0.97056">
        <ele>64.8</ele>
        <time>2025-08-25T10:13:04Z</time>
      </trkpt>
      <trkpt lat="46.99435" lon="-0.97057">
        <ele>64.8</ele>
        <time>2025-08-25T10:13:05Z</time>
      </trkpt>
      <trkpt lat="46.99435" lon="-0.97058">
        <ele>64.9</ele>
        <time>2025-08-25T10:13:06Z</time>
      </trkpt>
      <trkpt lat="46.99435" lon="-0.9706">
        <ele>64.9</ele>
        <time>2025-08-25T10:13:07Z</time>
      </trkpt>
      <trkpt lat="46.99434" lon="-0.97061">
        <ele>64.9</ele>
        <time>2025-08-25T10:13:08Z</time>
      </trkpt>
      <trkpt lat="46.99434" lon="-0.97062">
        <ele>64.9</ele>
        <time>2025-08-25T10:13:09Z</time>
      </trkpt>
      <trkpt lat="46.99433" lon="-0.97064">
        <ele>64.9</ele>
        <time>2025-08-25T10:13:10Z</time>
      </trkpt>
      <trkpt lat="46.99433" lon="-0.97065">
        <ele>64.9</ele>
        <time>2025-08-25T10:13:11Z</time>
      </trkpt>
      <trkpt lat="46.99432" lon="-0.97066">
        <ele>64.9</ele>
        <time>2025-08-25T10:13:12Z</time>
      </trkpt>
      <trkpt lat="46.99432" lon="-0.97067">
        <ele>64.9</ele>
        <time>2025-08-25T10:13:13Z</time>
      </trkpt>
      <trkpt lat="46.99432" lon="-0.97068">
        <ele>64.9</ele>
        <time>2025-08-25T10:13:14Z</time>
      </trkpt>
      <trkpt lat="46.99432" lon="-0.97068">
        <ele>64.9</ele>
        <time>2025-08-25T10:13:15Z</time>
      </trkpt>
      <trkpt lat="46.99432" lon="-0.97068">
        <ele>64.9</ele>
        <time>2025-08-25T10:13:16Z</time>
      </trkpt>
      <trkpt lat="46.99432" lon="-0.97068">
        <ele>64.9</ele>
        <time>2025-08-25T10:13:17Z</time>
      </trkpt>
      <trkpt lat="46.99432" lon="-0.97068">
        <ele>64.9</ele>
        <time>2025-08-25T10:13:18Z</time>
      </trkpt>
      <trkpt lat="46.99432" lon="-0.97068">
        <ele>64.9</ele>
        <time>2025-08-25T10:13:19Z</time>
      </trkpt>
      <trkpt lat="46.99432" lon="-0.97069">
        <ele>64.9</ele>
        <time>2025-08-25T10:13:20Z</time>
      </trkpt>
      <trkpt lat="46.99432" lon="-0.97069">
        <ele>64.9</ele>
        <time>2025-08-25T10:13:21Z</time>
      </trkpt>
      <trkpt lat="46.99432" lon="-0.97069">
        <ele>64.9</ele>
        <time>2025-08-25T10:13:22Z</time>
      </trkpt>
      <trkpt lat="46.99432" lon="-0.97069">
        <ele>64.9</ele>
        <time>2025-08-25T10:13:23Z</time>
      </trkpt>
      <trkpt lat="46.99432" lon="-0.97069">
        <ele>64.9</ele>
        <time>2025-08-25T10:13:24Z</time>
      </trkpt>
      <trkpt lat="46.99432" lon="-0.97068">
        <ele>64.9</ele>
        <time>2025-08-25T10:13:25Z</time>
      </trkpt>
      <trkpt lat="46.99433" lon="-0.97068">
        <ele>64.9</ele>
        <time>2025-08-25T10:13:26Z</time>
      </trkpt>
      <trkpt lat="46.99433" lon="-0.97068">
        <ele>64.9</ele>
        <time>2025-08-25T10:13:27Z</time>
      </trkpt>
      <trkpt lat="46.99433" lon="-0.97069">
        <ele>64.9</ele>
        <time>2025-08-25T10:13:28Z</time>
      </trkpt>
      <trkpt lat="46.99433" lon="-0.9707">
        <ele>64.8</ele>
        <time>2025-08-25T10:13:29Z</time>
      </trkpt>
      <trkpt lat="46.99435" lon="-0.97073">
        <ele>64.8</ele>
        <time>2025-08-25T10:13:30Z</time>
      </trkpt>
      <trkpt lat="46.99436" lon="-0.97074">
        <ele>64.7</ele>
        <time>2025-08-25T10:13:31Z</time>
      </trkpt>
      <trkpt lat="46.99437" lon="-0.97075">
        <ele>64.7</ele>
        <time>2025-08-25T10:13:32Z</time>
      </trkpt>
      <trkpt lat="46.99438" lon="-0.97078">
        <ele>64.6</ele>
        <time>2025-08-25T10:13:33Z</time>
      </trkpt>
      <trkpt lat="46.99439" lon="-0.97079">
        <ele>64.6</ele>
        <time>2025-08-25T10:13:34Z</time>
      </trkpt>
      <trkpt lat="46.9944" lon="-0.97081">
        <ele>64.6</ele>
        <time>2025-08-25T10:13:35Z</time>
      </trkpt>
      <trkpt lat="46.99441" lon="-0.97082">
        <ele>64.5</ele>
        <time>2025-08-25T10:13:36Z</time>
      </trkpt>
      <trkpt lat="46.99442" lon="-0.97083">
        <ele>64.5</ele>
        <time>2025-08-25T10:13:37Z</time>
      </trkpt>
      <trkpt lat="46.99443" lon="-0.97085">
        <ele>64.5</ele>
        <time>2025-08-25T10:13:38Z</time>
      </trkpt>
      <trkpt lat="46.99444" lon="-0.97086">
        <ele>64.4</ele>
        <time>2025-08-25T10:13:39Z</time>
      </trkpt>
      <trkpt lat="46.99445" lon="-0.97087">
        <ele>64.4</ele>
        <time>2025-08-25T10:13:40Z</time>
      </trkpt>
      <trkpt lat="46.99447" lon="-0.97088">
        <ele>64.4</ele>
        <time>2025-08-25T10:13:41Z</time>
      </trkpt>
      <trkpt lat="46.99448" lon="-0.97089">
        <ele>64.4</ele>
        <time>2025-08-25T10:13:42Z</time>
      </trkpt>
      <trkpt lat="46.99449" lon="-0.97089">
        <ele>64.3</ele>
        <time>2025-08-25T10:13:43Z</time>
      </trkpt>
      <trkpt lat="46.9945" lon="-0.97089">
        <ele>64.3</ele>
        <time>2025-08-25T10:13:44Z</time>
      </trkpt>
      <trkpt lat="46.99452" lon="-0.9709">
        <ele>64.3</ele>
        <time>2025-08-25T10:13:45Z</time>
      </trkpt>
      <trkpt lat="46.99453" lon="-0.9709">
        <ele>64.3</ele>
        <time>2025-08-25T10:13:46Z</time>
      </trkpt>
      <trkpt lat="46.99455" lon="-0.9709">
        <ele>64.3</ele>
        <time>2025-08-25T10:13:47Z</time>
      </trkpt>
      <trkpt lat="46.99457" lon="-0.97089">
        <ele>64.2</ele>
        <time>2025-08-25T10:13:48Z</time>
      </trkpt>
      <trkpt lat="46.99458" lon="-0.97089">
        <ele>64.2</ele>
        <time>2025-08-25T10:13:49Z</time>
      </trkpt>
      <trkpt lat="46.99459" lon="-0.97089">
        <ele>64.2</ele>
        <time>2025-08-25T10:13:50Z</time>
      </trkpt>
      <trkpt lat="46.99461" lon="-0.97088">
        <ele>64.2</ele>
        <time>2025-08-25T10:13:51Z</time>
      </trkpt>
      <trkpt lat="46.99462" lon="-0.97088">
        <ele>64.2</ele>
        <time>2025-08-25T10:13:52Z</time>
      </trkpt>
      <trkpt lat="46.99463" lon="-0.97088">
        <ele>64.1</ele>
        <time>2025-08-25T10:13:53Z</time>
      </trkpt>
      <trkpt lat="46.99465" lon="-0.97088">
        <ele>64.1</ele>
        <time>2025-08-25T10:13:54Z</time>
      </trkpt>
      <trkpt lat="46.99466" lon="-0.97088">
        <ele>64.1</ele>
        <time>2025-08-25T10:13:55Z</time>
      </trkpt>
      <trkpt lat="46.99466" lon="-0.97088">
        <ele>64.1</ele>
        <time>2025-08-25T10:13:56Z</time>
      </trkpt>
      <trkpt lat="46.99469" lon="-0.97088">
        <ele>64.1</ele>
        <time>2025-08-25T10:13:57Z</time>
      </trkpt>
      <trkpt lat="46.99469" lon="-0.97087">
        <ele>64</ele>
        <time>2025-08-25T10:13:58Z</time>
      </trkpt>
      <trkpt lat="46.9947" lon="-0.97087">
        <ele>64</ele>
        <time>2025-08-25T10:13:59Z</time>
      </trkpt>
      <trkpt lat="46.99472" lon="-0.97086">
        <ele>64</ele>
        <time>2025-08-25T10:14:00Z</time>
      </trkpt>
      <trkpt lat="46.99473" lon="-0.97086">
        <ele>64</ele>
        <time>2025-08-25T10:14:01Z</time>
      </trkpt>
      <trkpt lat="46.99474" lon="-0.97086">
        <ele>64</ele>
        <time>2025-08-25T10:14:02Z</time>
      </trkpt>
      <trkpt lat="46.99475" lon="-0.97085">
        <ele>64</ele>
        <time>2025-08-25T10:14:03Z</time>
      </trkpt>
      <trkpt lat="46.99477" lon="-0.97085">
        <ele>63.9</ele>
        <time>2025-08-25T10:14:04Z</time>
      </trkpt>
      <trkpt lat="46.99477" lon="-0.97086">
        <ele>63.9</ele>
        <time>2025-08-25T10:14:05Z</time>
      </trkpt>
      <trkpt lat="46.99478" lon="-0.97085">
        <ele>63.9</ele>
        <time>2025-08-25T10:14:06Z</time>
      </trkpt>
      <trkpt lat="46.99479" lon="-0.97085">
        <ele>63.9</ele>
        <time>2025-08-25T10:14:07Z</time>
      </trkpt>
      <trkpt lat="46.99479" lon="-0.97086">
        <ele>63.9</ele>
        <time>2025-08-25T10:14:08Z</time>
      </trkpt>
      <trkpt lat="46.9948" lon="-0.97086">
        <ele>63.9</ele>
        <time>2025-08-25T10:14:09Z</time>
      </trkpt>
      <trkpt lat="46.9948" lon="-0.97086">
        <ele>63.9</ele>
        <time>2025-08-25T10:14:10Z</time>
      </trkpt>
      <trkpt lat="46.99481" lon="-0.97085">
        <ele>63.9</ele>
        <time>2025-08-25T10:14:11Z</time>
      </trkpt>
      <trkpt lat="46.99481" lon="-0.97084">
        <ele>63.9</ele>
        <time>2025-08-25T10:14:12Z</time>
      </trkpt>
      <trkpt lat="46.99482" lon="-0.97084">
        <ele>63.9</ele>
        <time>2025-08-25T10:14:13Z</time>
      </trkpt>
      <trkpt lat="46.99483" lon="-0.97084">
        <ele>63.9</ele>
        <time>2025-08-25T10:14:14Z</time>
      </trkpt>
      <trkpt lat="46.99483" lon="-0.97084">
        <ele>63.9</ele>
        <time>2025-08-25T10:14:15Z</time>
      </trkpt>
      <trkpt lat="46.99483" lon="-0.97084">
        <ele>63.8</ele>
        <time>2025-08-25T10:14:16Z</time>
      </trkpt>
      <trkpt lat="46.99483" lon="-0.97084">
        <ele>63.8</ele>
        <time>2025-08-25T10:14:17Z</time>
      </trkpt>
      <trkpt lat="46.99483" lon="-0.97084">
        <ele>63.8</ele>
        <time>2025-08-25T10:14:18Z</time>
      </trkpt>
      <trkpt lat="46.99483" lon="-0.97084">
        <ele>63.8</ele>
        <time>2025-08-25T10:14:19Z</time>
      </trkpt>
      <trkpt lat="46.99483" lon="-0.97083">
        <ele>63.8</ele>
        <time>2025-08-25T10:14:20Z</time>
      </trkpt>
      <trkpt lat="46.99483" lon="-0.97083">
        <ele>63.8</ele>
        <time>2025-08-25T10:14:21Z</time>
      </trkpt>
      <trkpt lat="46.99483" lon="-0.97083">
        <ele>63.8</ele>
        <time>2025-08-25T10:14:22Z</time>
      </trkpt>
      <trkpt lat="46.99483" lon="-0.97083">
        <ele>63.8</ele>
        <time>2025-08-25T10:14:23Z</time>
      </trkpt>
      <trkpt lat="46.99483" lon="-0.97083">
        <ele>63.8</ele>
        <time>2025-08-25T10:14:24Z</time>
      </trkpt>
      <trkpt lat="46.99483" lon="-0.97083">
        <ele>63.8</ele>
        <time>2025-08-25T10:14:25Z</time>
      </trkpt>
      <trkpt lat="46.99483" lon="-0.97083">
        <ele>63.8</ele>
        <time>2025-08-25T10:14:26Z</time>
      </trkpt>
      <trkpt lat="46.99483" lon="-0.97083">
        <ele>63.8</ele>
        <time>2025-08-25T10:14:27Z</time>
      </trkpt>
      <trkpt lat="46.99483" lon="-0.97083">
        <ele>63.8</ele>
        <time>2025-08-25T10:14:28Z</time>
      </trkpt>
      <trkpt lat="46.99484" lon="-0.97084">
        <ele>63.8</ele>
        <time>2025-08-25T10:14:29Z</time>
      </trkpt>
      <trkpt lat="46.99484" lon="-0.97084">
        <ele>63.8</ele>
        <time>2025-08-25T10:14:30Z</time>
      </trkpt>
      <trkpt lat="46.99484" lon="-0.97084">
        <ele>63.8</ele>
        <time>2025-08-25T10:14:31Z</time>
      </trkpt>
      <trkpt lat="46.99484" lon="-0.97084">
        <ele>63.8</ele>
        <time>2025-08-25T10:14:32Z</time>
      </trkpt>
      <trkpt lat="46.99484" lon="-0.97084">
        <ele>63.8</ele>
        <time>2025-08-25T10:14:33Z</time>
      </trkpt>
      <trkpt lat="46.99485" lon="-0.97084">
        <ele>63.8</ele>
        <time>2025-08-25T10:14:34Z</time>
      </trkpt>
      <trkpt lat="46.99485" lon="-0.97083">
        <ele>63.8</ele>
        <time>2025-08-25T10:14:35Z</time>
      </trkpt>
      <trkpt lat="46.99486" lon="-0.97083">
        <ele>63.8</ele>
        <time>2025-08-25T10:14:36Z</time>
      </trkpt>
      <trkpt lat="46.99487" lon="-0.97081">
        <ele>63.8</ele>
        <time>2025-08-25T10:14:37Z</time>
      </trkpt>
      <trkpt lat="46.99488" lon="-0.9708">
        <ele>63.8</ele>
        <time>2025-08-25T10:14:38Z</time>
      </trkpt>
      <trkpt lat="46.99488" lon="-0.9708">
        <ele>63.8</ele>
        <time>2025-08-25T10:14:40Z</time>
      </trkpt>
      <trkpt lat="46.99489" lon="-0.9708">
        <ele>63.8</ele>
        <time>2025-08-25T10:14:41Z</time>
      </trkpt>
      <trkpt lat="46.99489" lon="-0.97079">
        <ele>63.8</ele>
        <time>2025-08-25T10:14:42Z</time>
      </trkpt>
      <trkpt lat="46.99489" lon="-0.97079">
        <ele>63.8</ele>
        <time>2025-08-25T10:14:43Z</time>
      </trkpt>
      <trkpt lat="46.99489" lon="-0.9708">
        <ele>63.8</ele>
        <time>2025-08-25T10:14:44Z</time>
      </trkpt>
      <trkpt lat="46.9949" lon="-0.9708">
        <ele>63.8</ele>
        <time>2025-08-25T10:14:45Z</time>
      </trkpt>
      <trkpt lat="46.9949" lon="-0.9708">
        <ele>63.8</ele>
        <time>2025-08-25T10:14:46Z</time>
      </trkpt>
      <trkpt lat="46.9949" lon="-0.9708">
        <ele>63.8</ele>
        <time>2025-08-25T10:14:47Z</time>
      </trkpt>
      <trkpt lat="46.9949" lon="-0.97081">
        <ele>63.8</ele>
        <time>2025-08-25T10:14:48Z</time>
      </trkpt>
      <trkpt lat="46.9949" lon="-0.97081">
        <ele>63.8</ele>
        <time>2025-08-25T10:14:49Z</time>
      </trkpt>
      <trkpt lat="46.9949" lon="-0.97081">
        <ele>63.8</ele>
        <time>2025-08-25T10:14:50Z</time>
      </trkpt>
      <trkpt lat="46.99489" lon="-0.97081">
        <ele>63.8</ele>
        <time>2025-08-25T10:14:51Z</time>
      </trkpt>
      <trkpt lat="46.99489" lon="-0.97081">
        <ele>63.8</ele>
        <time>2025-08-25T10:14:52Z</time>
      </trkpt>
      <trkpt lat="46.99489" lon="-0.97081">
        <ele>63.8</ele>
        <time>2025-08-25T10:14:53Z</time>
      </trkpt>
      <trkpt lat="46.99489" lon="-0.97081">
        <ele>63.8</ele>
        <time>2025-08-25T10:14:54Z</time>
      </trkpt>
      <trkpt lat="46.99489" lon="-0.97081">
        <ele>63.8</ele>
        <time>2025-08-25T10:14:55Z</time>
      </trkpt>
      <trkpt lat="46.99489" lon="-0.97081">
        <ele>63.8</ele>
        <time>2025-08-25T10:14:56Z</time>
      </trkpt>
      <trkpt lat="46.99489" lon="-0.97081">
        <ele>63.8</ele>
        <time>2025-08-25T10:14:57Z</time>
      </trkpt>
      <trkpt lat="46.99489" lon="-0.97082">
        <ele>63.8</ele>
        <time>2025-08-25T10:14:58Z</time>
      </trkpt>
      <trkpt lat="46.99488" lon="-0.97083">
        <ele>63.8</ele>
        <time>2025-08-25T10:14:59Z</time>
      </trkpt>
      <trkpt lat="46.99488" lon="-0.97083">
        <ele>63.8</ele>
        <time>2025-08-25T10:15:00Z</time>
      </trkpt>
      <trkpt lat="46.99488" lon="-0.97083">
        <ele>63.8</ele>
        <time>2025-08-25T10:15:01Z</time>
      </trkpt>
      <trkpt lat="46.99488" lon="-0.97084">
        <ele>63.8</ele>
        <time>2025-08-25T10:15:02Z</time>
      </trkpt>
      <trkpt lat="46.99487" lon="-0.97084">
        <ele>63.8</ele>
        <time>2025-08-25T10:15:03Z</time>
      </trkpt>
      <trkpt lat="46.99487" lon="-0.97086">
        <ele>63.8</ele>
        <time>2025-08-25T10:15:04Z</time>
      </trkpt>
      <trkpt lat="46.99487" lon="-0.97088">
        <ele>63.8</ele>
        <time>2025-08-25T10:15:05Z</time>
      </trkpt>
      <trkpt lat="46.99487" lon="-0.9709">
        <ele>63.7</ele>
        <time>2025-08-25T10:15:06Z</time>
      </trkpt>
      <trkpt lat="46.99487" lon="-0.97092">
        <ele>63.7</ele>
        <time>2025-08-25T10:15:07Z</time>
      </trkpt>
      <trkpt lat="46.99487" lon="-0.97093">
        <ele>63.7</ele>
        <time>2025-08-25T10:15:08Z</time>
      </trkpt>
      <trkpt lat="46.99486" lon="-0.97095">
        <ele>63.7</ele>
        <time>2025-08-25T10:15:09Z</time>
      </trkpt>
      <trkpt lat="46.99485" lon="-0.97097">
        <ele>63.7</ele>
        <time>2025-08-25T10:15:10Z</time>
      </trkpt>
      <trkpt lat="46.99485" lon="-0.97098">
        <ele>63.7</ele>
        <time>2025-08-25T10:15:11Z</time>
      </trkpt>
      <trkpt lat="46.99485" lon="-0.97099">
        <ele>63.7</ele>
        <time>2025-08-25T10:15:12Z</time>
      </trkpt>
      <trkpt lat="46.99485" lon="-0.97102">
        <ele>63.7</ele>
        <time>2025-08-25T10:15:13Z</time>
      </trkpt>
      <trkpt lat="46.99485" lon="-0.97103">
        <ele>63.7</ele>
        <time>2025-08-25T10:15:14Z</time>
      </trkpt>
      <trkpt lat="46.99485" lon="-0.97105">
        <ele>63.7</ele>
        <time>2025-08-25T10:15:15Z</time>
      </trkpt>
      <trkpt lat="46.99485" lon="-0.97106">
        <ele>63.7</ele>
        <time>2025-08-25T10:15:16Z</time>
      </trkpt>
      <trkpt lat="46.99486" lon="-0.97107">
        <ele>63.7</ele>
        <time>2025-08-25T10:15:17Z</time>
      </trkpt>
      <trkpt lat="46.99486" lon="-0.97108">
        <ele>63.6</ele>
        <time>2025-08-25T10:15:18Z</time>
      </trkpt>
      <trkpt lat="46.99486" lon="-0.9711">
        <ele>63.6</ele>
        <time>2025-08-25T10:15:19Z</time>
      </trkpt>
      <trkpt lat="46.99486" lon="-0.97111">
        <ele>63.6</ele>
        <time>2025-08-25T10:15:20Z</time>
      </trkpt>
      <trkpt lat="46.99485" lon="-0.97112">
        <ele>63.6</ele>
        <time>2025-08-25T10:15:21Z</time>
      </trkpt>
      <trkpt lat="46.99485" lon="-0.97113">
        <ele>63.6</ele>
        <time>2025-08-25T10:15:22Z</time>
      </trkpt>
      <trkpt lat="46.99484" lon="-0.97114">
        <ele>63.6</ele>
        <time>2025-08-25T10:15:23Z</time>
      </trkpt>
      <trkpt lat="46.99484" lon="-0.97115">
        <ele>63.6</ele>
        <time>2025-08-25T10:15:24Z</time>
      </trkpt>
      <trkpt lat="46.99483" lon="-0.97116">
        <ele>63.6</ele>
        <time>2025-08-25T10:15:25Z</time>
      </trkpt>
      <trkpt lat="46.99482" lon="-0.97117">
        <ele>63.6</ele>
        <time>2025-08-25T10:15:26Z</time>
      </trkpt>
      <trkpt lat="46.99482" lon="-0.97118">
        <ele>63.5</ele>
        <time>2025-08-25T10:15:27Z</time>
      </trkpt>
      <trkpt lat="46.99482" lon="-0.97119">
        <ele>63.5</ele>
        <time>2025-08-25T10:15:28Z</time>
      </trkpt>
      <trkpt lat="46.99482" lon="-0.97121">
        <ele>63.5</ele>
        <time>2025-08-25T10:15:29Z</time>
      </trkpt>
      <trkpt lat="46.99481" lon="-0.97123">
        <ele>63.5</ele>
        <time>2025-08-25T10:15:30Z</time>
      </trkpt>
      <trkpt lat="46.99481" lon="-0.97125">
        <ele>63.5</ele>
        <time>2025-08-25T10:15:31Z</time>
      </trkpt>
      <trkpt lat="46.99481" lon="-0.97126">
        <ele>63.5</ele>
        <time>2025-08-25T10:15:32Z</time>
      </trkpt>
      <trkpt lat="46.9948" lon="-0.97127">
        <ele>63.4</ele>
        <time>2025-08-25T10:15:33Z</time>
      </trkpt>
      <trkpt lat="46.9948" lon="-0.97128">
        <ele>63.4</ele>
        <time>2025-08-25T10:15:34Z</time>
      </trkpt>
      <trkpt lat="46.99479" lon="-0.9713">
        <ele>63.4</ele>
        <time>2025-08-25T10:15:35Z</time>
      </trkpt>
      <trkpt lat="46.99479" lon="-0.97131">
        <ele>63.4</ele>
        <time>2025-08-25T10:15:36Z</time>
      </trkpt>
      <trkpt lat="46.99478" lon="-0.97132">
        <ele>63.4</ele>
        <time>2025-08-25T10:15:37Z</time>
      </trkpt>
      <trkpt lat="46.99478" lon="-0.97133">
        <ele>63.4</ele>
        <time>2025-08-25T10:15:38Z</time>
      </trkpt>
      <trkpt lat="46.99477" lon="-0.97134">
        <ele>63.3</ele>
        <time>2025-08-25T10:15:39Z</time>
      </trkpt>
      <trkpt lat="46.99477" lon="-0.97135">
        <ele>63.3</ele>
        <time>2025-08-25T10:15:40Z</time>
      </trkpt>
      <trkpt lat="46.99476" lon="-0.97136">
        <ele>63.3</ele>
        <time>2025-08-25T10:15:41Z</time>
      </trkpt>
      <trkpt lat="46.99476" lon="-0.97138">
        <ele>63.3</ele>
        <time>2025-08-25T10:15:42Z</time>
      </trkpt>
      <trkpt lat="46.99476" lon="-0.97139">
        <ele>63.3</ele>
        <time>2025-08-25T10:15:43Z</time>
      </trkpt>
      <trkpt lat="46.99475" lon="-0.97141">
        <ele>63.2</ele>
        <time>2025-08-25T10:15:44Z</time>
      </trkpt>
      <trkpt lat="46.99475" lon="-0.97142">
        <ele>63.2</ele>
        <time>2025-08-25T10:15:45Z</time>
      </trkpt>
      <trkpt lat="46.99475" lon="-0.97143">
        <ele>63.2</ele>
        <time>2025-08-25T10:15:46Z</time>
      </trkpt>
      <trkpt lat="46.99475" lon="-0.97144">
        <ele>63.2</ele>
        <time>2025-08-25T10:15:47Z</time>
      </trkpt>
      <trkpt lat="46.99476" lon="-0.97146">
        <ele>63.2</ele>
        <time>2025-08-25T10:15:48Z</time>
      </trkpt>
      <trkpt lat="46.99476" lon="-0.97147">
        <ele>63.1</ele>
        <time>2025-08-25T10:15:49Z</time>
      </trkpt>
      <trkpt lat="46.99476" lon="-0.97149">
        <ele>63.1</ele>
        <time>2025-08-25T10:15:50Z</time>
      </trkpt>
      <trkpt lat="46.99476" lon="-0.97151">
        <ele>63.1</ele>
        <time>2025-08-25T10:15:51Z</time>
      </trkpt>
      <trkpt lat="46.99476" lon="-0.97152">
        <ele>63.1</ele>
        <time>2025-08-25T10:15:52Z</time>
      </trkpt>
      <trkpt lat="46.99476" lon="-0.97154">
        <ele>63</ele>
        <time>2025-08-25T10:15:53Z</time>
      </trkpt>
      <trkpt lat="46.99476" lon="-0.97155">
        <ele>63</ele>
        <time>2025-08-25T10:15:54Z</time>
      </trkpt>
      <trkpt lat="46.99477" lon="-0.97157">
        <ele>63</ele>
        <time>2025-08-25T10:15:55Z</time>
      </trkpt>
      <trkpt lat="46.99477" lon="-0.97158">
        <ele>63</ele>
        <time>2025-08-25T10:15:56Z</time>
      </trkpt>
      <trkpt lat="46.99477" lon="-0.97158">
        <ele>63</ele>
        <time>2025-08-25T10:15:57Z</time>
      </trkpt>
      <trkpt lat="46.99477" lon="-0.97159">
        <ele>63</ele>
        <time>2025-08-25T10:15:58Z</time>
      </trkpt>
      <trkpt lat="46.99477" lon="-0.97161">
        <ele>62.9</ele>
        <time>2025-08-25T10:15:59Z</time>
      </trkpt>
      <trkpt lat="46.99477" lon="-0.97162">
        <ele>62.9</ele>
        <time>2025-08-25T10:16:00Z</time>
      </trkpt>
      <trkpt lat="46.99477" lon="-0.97163">
        <ele>62.9</ele>
        <time>2025-08-25T10:16:01Z</time>
      </trkpt>
      <trkpt lat="46.99477" lon="-0.97164">
        <ele>62.9</ele>
        <time>2025-08-25T10:16:02Z</time>
      </trkpt>
      <trkpt lat="46.99477" lon="-0.97165">
        <ele>62.9</ele>
        <time>2025-08-25T10:16:03Z</time>
      </trkpt>
      <trkpt lat="46.99477" lon="-0.97166">
        <ele>62.9</ele>
        <time>2025-08-25T10:16:04Z</time>
      </trkpt>
      <trkpt lat="46.99477" lon="-0.97168">
        <ele>62.9</ele>
        <time>2025-08-25T10:16:05Z</time>
      </trkpt>
      <trkpt lat="46.99477" lon="-0.97169">
        <ele>62.8</ele>
        <time>2025-08-25T10:16:06Z</time>
      </trkpt>
      <trkpt lat="46.99477" lon="-0.97169">
        <ele>62.8</ele>
        <time>2025-08-25T10:16:07Z</time>
      </trkpt>
      <trkpt lat="46.99477" lon="-0.9717">
        <ele>62.8</ele>
        <time>2025-08-25T10:16:08Z</time>
      </trkpt>
      <trkpt lat="46.99477" lon="-0.97171">
        <ele>62.8</ele>
        <time>2025-08-25T10:16:09Z</time>
      </trkpt>
      <trkpt lat="46.99477" lon="-0.97172">
        <ele>62.8</ele>
        <time>2025-08-25T10:16:10Z</time>
      </trkpt>
      <trkpt lat="46.99477" lon="-0.97173">
        <ele>62.8</ele>
        <time>2025-08-25T10:16:11Z</time>
      </trkpt>
      <trkpt lat="46.99477" lon="-0.97174">
        <ele>62.8</ele>
        <time>2025-08-25T10:16:12Z</time>
      </trkpt>
      <trkpt lat="46.99477" lon="-0.97175">
        <ele>62.8</ele>
        <time>2025-08-25T10:16:13Z</time>
      </trkpt>
      <trkpt lat="46.99477" lon="-0.97176">
        <ele>62.8</ele>
        <time>2025-08-25T10:16:14Z</time>
      </trkpt>
      <trkpt lat="46.99477" lon="-0.97177">
        <ele>62.7</ele>
        <time>2025-08-25T10:16:15Z</time>
      </trkpt>
      <trkpt lat="46.99477" lon="-0.97177">
        <ele>62.7</ele>
        <time>2025-08-25T10:16:16Z</time>
      </trkpt>
      <trkpt lat="46.99477" lon="-0.97178">
        <ele>62.7</ele>
        <time>2025-08-25T10:16:17Z</time>
      </trkpt>
      <trkpt lat="46.99478" lon="-0.97179">
        <ele>62.7</ele>
        <time>2025-08-25T10:16:18Z</time>
      </trkpt>
      <trkpt lat="46.99478" lon="-0.97179">
        <ele>62.7</ele>
        <time>2025-08-25T10:16:19Z</time>
      </trkpt>
      <trkpt lat="46.99478" lon="-0.9718">
        <ele>62.7</ele>
        <time>2025-08-25T10:16:20Z</time>
      </trkpt>
      <trkpt lat="46.99478" lon="-0.9718">
        <ele>62.7</ele>
        <time>2025-08-25T10:16:21Z</time>
      </trkpt>
      <trkpt lat="46.99477" lon="-0.97181">
        <ele>62.7</ele>
        <time>2025-08-25T10:16:22Z</time>
      </trkpt>
      <trkpt lat="46.99477" lon="-0.97181">
        <ele>62.7</ele>
        <time>2025-08-25T10:16:23Z</time>
      </trkpt>
      <trkpt lat="46.99477" lon="-0.97181">
        <ele>62.7</ele>
        <time>2025-08-25T10:16:24Z</time>
      </trkpt>
      <trkpt lat="46.99477" lon="-0.97182">
        <ele>62.7</ele>
        <time>2025-08-25T10:16:25Z</time>
      </trkpt>
      <trkpt lat="46.99477" lon="-0.97182">
        <ele>62.7</ele>
        <time>2025-08-25T10:16:26Z</time>
      </trkpt>
      <trkpt lat="46.99477" lon="-0.97183">
        <ele>62.7</ele>
        <time>2025-08-25T10:16:27Z</time>
      </trkpt>
      <trkpt lat="46.99477" lon="-0.97185">
        <ele>62.6</ele>
        <time>2025-08-25T10:16:28Z</time>
      </trkpt>
      <trkpt lat="46.99477" lon="-0.97187">
        <ele>62.6</ele>
        <time>2025-08-25T10:16:29Z</time>
      </trkpt>
      <trkpt lat="46.99476" lon="-0.97187">
        <ele>62.6</ele>
        <time>2025-08-25T10:16:30Z</time>
      </trkpt>
      <trkpt lat="46.99476" lon="-0.97189">
        <ele>62.6</ele>
        <time>2025-08-25T10:16:31Z</time>
      </trkpt>
      <trkpt lat="46.99476" lon="-0.9719">
        <ele>62.6</ele>
        <time>2025-08-25T10:16:32Z</time>
      </trkpt>
      <trkpt lat="46.99476" lon="-0.97191">
        <ele>62.6</ele>
        <time>2025-08-25T10:16:33Z</time>
      </trkpt>
      <trkpt lat="46.99476" lon="-0.97192">
        <ele>62.6</ele>
        <time>2025-08-25T10:16:34Z</time>
      </trkpt>
      <trkpt lat="46.99476" lon="-0.97194">
        <ele>62.6</ele>
        <time>2025-08-25T10:16:35Z</time>
      </trkpt>
      <trkpt lat="46.99476" lon="-0.97195">
        <ele>62.6</ele>
        <time>2025-08-25T10:16:36Z</time>
      </trkpt>
      <trkpt lat="46.99476" lon="-0.97196">
        <ele>62.5</ele>
        <time>2025-08-25T10:16:37Z</time>
      </trkpt>
      <trkpt lat="46.99477" lon="-0.97197">
        <ele>62.5</ele>
        <time>2025-08-25T10:16:38Z</time>
      </trkpt>
      <trkpt lat="46.99477" lon="-0.97198">
        <ele>62.5</ele>
        <time>2025-08-25T10:16:39Z</time>
      </trkpt>
      <trkpt lat="46.99477" lon="-0.97199">
        <ele>62.5</ele>
        <time>2025-08-25T10:16:40Z</time>
      </trkpt>
      <trkpt lat="46.99477" lon="-0.972">
        <ele>62.5</ele>
        <time>2025-08-25T10:16:41Z</time>
      </trkpt>
      <trkpt lat="46.99477" lon="-0.97201">
        <ele>62.5</ele>
        <time>2025-08-25T10:16:42Z</time>
      </trkpt>
      <trkpt lat="46.99477" lon="-0.97203">
        <ele>62.5</ele>
        <time>2025-08-25T10:16:43Z</time>
      </trkpt>
      <trkpt lat="46.99477" lon="-0.97206">
        <ele>62.5</ele>
        <time>2025-08-25T10:16:44Z</time>
      </trkpt>
      <trkpt lat="46.99477" lon="-0.97208">
        <ele>62.4</ele>
        <time>2025-08-25T10:16:45Z</time>
      </trkpt>
      <trkpt lat="46.99477" lon="-0.9721">
        <ele>62.4</ele>
        <time>2025-08-25T10:16:46Z</time>
      </trkpt>
      <trkpt lat="46.99476" lon="-0.97213">
        <ele>62.4</ele>
        <time>2025-08-25T10:16:47Z</time>
      </trkpt>
      <trkpt lat="46.99476" lon="-0.97215">
        <ele>62.4</ele>
        <time>2025-08-25T10:16:48Z</time>
      </trkpt>
      <trkpt lat="46.99475" lon="-0.97217">
        <ele>62.4</ele>
        <time>2025-08-25T10:16:49Z</time>
      </trkpt>
      <trkpt lat="46.99475" lon="-0.97219">
        <ele>62.4</ele>
        <time>2025-08-25T10:16:50Z</time>
      </trkpt>
      <trkpt lat="46.99474" lon="-0.97222">
        <ele>62.3</ele>
        <time>2025-08-25T10:16:51Z</time>
      </trkpt>
      <trkpt lat="46.99474" lon="-0.97224">
        <ele>62.3</ele>
        <time>2025-08-25T10:16:52Z</time>
      </trkpt>
      <trkpt lat="46.99473" lon="-0.97226">
        <ele>62.3</ele>
        <time>2025-08-25T10:16:53Z</time>
      </trkpt>
      <trkpt lat="46.99473" lon="-0.97228">
        <ele>62.3</ele>
        <time>2025-08-25T10:16:54Z</time>
      </trkpt>
      <trkpt lat="46.99472" lon="-0.9723">
        <ele>62.3</ele>
        <time>2025-08-25T10:16:55Z</time>
      </trkpt>
      <trkpt lat="46.99471" lon="-0.97233">
        <ele>62.2</ele>
        <time>2025-08-25T10:16:56Z</time>
      </trkpt>
      <trkpt lat="46.99471" lon="-0.97234">
        <ele>62.2</ele>
        <time>2025-08-25T10:16:57Z</time>
      </trkpt>
      <trkpt lat="46.9947" lon="-0.97235">
        <ele>62.2</ele>
        <time>2025-08-25T10:16:58Z</time>
      </trkpt>
      <trkpt lat="46.99469" lon="-0.97236">
        <ele>62.2</ele>
        <time>2025-08-25T10:16:59Z</time>
      </trkpt>
      <trkpt lat="46.99468" lon="-0.97239">
        <ele>62.2</ele>
        <time>2025-08-25T10:17:00Z</time>
      </trkpt>
      <trkpt lat="46.99468" lon="-0.9724">
        <ele>62.2</ele>
        <time>2025-08-25T10:17:01Z</time>
      </trkpt>
      <trkpt lat="46.99467" lon="-0.97241">
        <ele>62.2</ele>
        <time>2025-08-25T10:17:02Z</time>
      </trkpt>
      <trkpt lat="46.99467" lon="-0.97243">
        <ele>62.1</ele>
        <time>2025-08-25T10:17:03Z</time>
      </trkpt>
      <trkpt lat="46.99466" lon="-0.97245">
        <ele>62.1</ele>
        <time>2025-08-25T10:17:04Z</time>
      </trkpt>
      <trkpt lat="46.99465" lon="-0.97247">
        <ele>62.1</ele>
        <time>2025-08-25T10:17:05Z</time>
      </trkpt>
      <trkpt lat="46.99465" lon="-0.97248">
        <ele>62.1</ele>
        <time>2025-08-25T10:17:06Z</time>
      </trkpt>
      <trkpt lat="46.99464" lon="-0.97251">
        <ele>62.1</ele>
        <time>2025-08-25T10:17:07Z</time>
      </trkpt>
      <trkpt lat="46.99464" lon="-0.97253">
        <ele>62.1</ele>
        <time>2025-08-25T10:17:08Z</time>
      </trkpt>
      <trkpt lat="46.99463" lon="-0.97254">
        <ele>62.1</ele>
        <time>2025-08-25T10:17:09Z</time>
      </trkpt>
      <trkpt lat="46.99463" lon="-0.97256">
        <ele>62.1</ele>
        <time>2025-08-25T10:17:10Z</time>
      </trkpt>
      <trkpt lat="46.99463" lon="-0.97258">
        <ele>62</ele>
        <time>2025-08-25T10:17:11Z</time>
      </trkpt>
      <trkpt lat="46.99463" lon="-0.97259">
        <ele>62</ele>
        <time>2025-08-25T10:17:12Z</time>
      </trkpt>
      <trkpt lat="46.99463" lon="-0.97261">
        <ele>62</ele>
        <time>2025-08-25T10:17:13Z</time>
      </trkpt>
      <trkpt lat="46.99463" lon="-0.97262">
        <ele>62</ele>
        <time>2025-08-25T10:17:14Z</time>
      </trkpt>
      <trkpt lat="46.99463" lon="-0.97265">
        <ele>62</ele>
        <time>2025-08-25T10:17:15Z</time>
      </trkpt>
      <trkpt lat="46.99463" lon="-0.97266">
        <ele>62</ele>
        <time>2025-08-25T10:17:16Z</time>
      </trkpt>
      <trkpt lat="46.99463" lon="-0.97268">
        <ele>62</ele>
        <time>2025-08-25T10:17:17Z</time>
      </trkpt>
      <trkpt lat="46.99463" lon="-0.97269">
        <ele>62</ele>
        <time>2025-08-25T10:17:18Z</time>
      </trkpt>
      <trkpt lat="46.99462" lon="-0.97271">
        <ele>62</ele>
        <time>2025-08-25T10:17:19Z</time>
      </trkpt>
      <trkpt lat="46.99462" lon="-0.97272">
        <ele>62</ele>
        <time>2025-08-25T10:17:20Z</time>
      </trkpt>
      <trkpt lat="46.99461" lon="-0.97274">
        <ele>62</ele>
        <time>2025-08-25T10:17:21Z</time>
      </trkpt>
      <trkpt lat="46.99461" lon="-0.97275">
        <ele>62</ele>
        <time>2025-08-25T10:17:22Z</time>
      </trkpt>
      <trkpt lat="46.99461" lon="-0.97276">
        <ele>62</ele>
        <time>2025-08-25T10:17:23Z</time>
      </trkpt>
      <trkpt lat="46.99461" lon="-0.97277">
        <ele>62</ele>
        <time>2025-08-25T10:17:24Z</time>
      </trkpt>
      <trkpt lat="46.99461" lon="-0.97278">
        <ele>62</ele>
        <time>2025-08-25T10:17:25Z</time>
      </trkpt>
      <trkpt lat="46.9946" lon="-0.97279">
        <ele>62</ele>
        <time>2025-08-25T10:17:26Z</time>
      </trkpt>
      <trkpt lat="46.9946" lon="-0.9728">
        <ele>62</ele>
        <time>2025-08-25T10:17:27Z</time>
      </trkpt>
      <trkpt lat="46.9946" lon="-0.97281">
        <ele>62</ele>
        <time>2025-08-25T10:17:28Z</time>
      </trkpt>
      <trkpt lat="46.9946" lon="-0.97282">
        <ele>62</ele>
        <time>2025-08-25T10:17:29Z</time>
      </trkpt>
      <trkpt lat="46.9946" lon="-0.97283">
        <ele>62</ele>
        <time>2025-08-25T10:17:30Z</time>
      </trkpt>
      <trkpt lat="46.9946" lon="-0.97283">
        <ele>62</ele>
        <time>2025-08-25T10:17:31Z</time>
      </trkpt>
      <trkpt lat="46.9946" lon="-0.97283">
        <ele>62</ele>
        <time>2025-08-25T10:17:32Z</time>
      </trkpt>
      <trkpt lat="46.9946" lon="-0.97284">
        <ele>62</ele>
        <time>2025-08-25T10:17:33Z</time>
      </trkpt>
      <trkpt lat="46.9946" lon="-0.97284">
        <ele>62</ele>
        <time>2025-08-25T10:17:34Z</time>
      </trkpt>
      <trkpt lat="46.9946" lon="-0.97284">
        <ele>62</ele>
        <time>2025-08-25T10:17:35Z</time>
      </trkpt>
      <trkpt lat="46.9946" lon="-0.97285">
        <ele>62</ele>
        <time>2025-08-25T10:17:36Z</time>
      </trkpt>
      <trkpt lat="46.99459" lon="-0.97285">
        <ele>62</ele>
        <time>2025-08-25T10:17:37Z</time>
      </trkpt>
      <trkpt lat="46.99459" lon="-0.97286">
        <ele>62</ele>
        <time>2025-08-25T10:17:38Z</time>
      </trkpt>
      <trkpt lat="46.99459" lon="-0.97286">
        <ele>62</ele>
        <time>2025-08-25T10:17:39Z</time>
      </trkpt>
      <trkpt lat="46.9946" lon="-0.97285">
        <ele>62</ele>
        <time>2025-08-25T10:17:40Z</time>
      </trkpt>
      <trkpt lat="46.9946" lon="-0.97285">
        <ele>62</ele>
        <time>2025-08-25T10:17:41Z</time>
      </trkpt>
      <trkpt lat="46.9946" lon="-0.97285">
        <ele>62</ele>
        <time>2025-08-25T10:17:42Z</time>
      </trkpt>
      <trkpt lat="46.99459" lon="-0.97285">
        <ele>62</ele>
        <time>2025-08-25T10:17:43Z</time>
      </trkpt>
      <trkpt lat="46.99459" lon="-0.97285">
        <ele>62</ele>
        <time>2025-08-25T10:17:44Z</time>
      </trkpt>
      <trkpt lat="46.99459" lon="-0.97285">
        <ele>62</ele>
        <time>2025-08-25T10:17:45Z</time>
      </trkpt>
      <trkpt lat="46.99458" lon="-0.97287">
        <ele>61.9</ele>
        <time>2025-08-25T10:17:46Z</time>
      </trkpt>
      <trkpt lat="46.99458" lon="-0.97288">
        <ele>61.9</ele>
        <time>2025-08-25T10:17:47Z</time>
      </trkpt>
      <trkpt lat="46.99457" lon="-0.97289">
        <ele>61.9</ele>
        <time>2025-08-25T10:17:48Z</time>
      </trkpt>
      <trkpt lat="46.99455" lon="-0.97293">
        <ele>61.9</ele>
        <time>2025-08-25T10:17:49Z</time>
      </trkpt>
      <trkpt lat="46.99455" lon="-0.97294">
        <ele>61.9</ele>
        <time>2025-08-25T10:17:50Z</time>
      </trkpt>
      <trkpt lat="46.99454" lon="-0.97298">
        <ele>61.9</ele>
        <time>2025-08-25T10:17:51Z</time>
      </trkpt>
      <trkpt lat="46.99453" lon="-0.973">
        <ele>61.9</ele>
        <time>2025-08-25T10:17:52Z</time>
      </trkpt>
      <trkpt lat="46.99453" lon="-0.97302">
        <ele>61.9</ele>
        <time>2025-08-25T10:17:53Z</time>
      </trkpt>
      <trkpt lat="46.99452" lon="-0.97304">
        <ele>61.9</ele>
        <time>2025-08-25T10:17:54Z</time>
      </trkpt>
      <trkpt lat="46.99451" lon="-0.97307">
        <ele>61.9</ele>
        <time>2025-08-25T10:17:55Z</time>
      </trkpt>
      <trkpt lat="46.9945" lon="-0.97308">
        <ele>61.9</ele>
        <time>2025-08-25T10:17:56Z</time>
      </trkpt>
      <trkpt lat="46.99449" lon="-0.9731">
        <ele>61.9</ele>
        <time>2025-08-25T10:17:57Z</time>
      </trkpt>
      <trkpt lat="46.99449" lon="-0.97312">
        <ele>61.9</ele>
        <time>2025-08-25T10:17:58Z</time>
      </trkpt>
      <trkpt lat="46.99448" lon="-0.97313">
        <ele>61.9</ele>
        <time>2025-08-25T10:17:59Z</time>
      </trkpt>
      <trkpt lat="46.99448" lon="-0.97315">
        <ele>61.9</ele>
        <time>2025-08-25T10:18:00Z</time>
      </trkpt>
      <trkpt lat="46.99447" lon="-0.97316">
        <ele>61.9</ele>
        <time>2025-08-25T10:18:01Z</time>
      </trkpt>
      <trkpt lat="46.99446" lon="-0.97318">
        <ele>61.9</ele>
        <time>2025-08-25T10:18:02Z</time>
      </trkpt>
      <trkpt lat="46.99445" lon="-0.9732">
        <ele>61.9</ele>
        <time>2025-08-25T10:18:03Z</time>
      </trkpt>
      <trkpt lat="46.99445" lon="-0.97321">
        <ele>61.9</ele>
        <time>2025-08-25T10:18:04Z</time>
      </trkpt>
      <trkpt lat="46.99444" lon="-0.97323">
        <ele>61.9</ele>
        <time>2025-08-25T10:18:05Z</time>
      </trkpt>
      <trkpt lat="46.99443" lon="-0.97325">
        <ele>61.9</ele>
        <time>2025-08-25T10:18:06Z</time>
      </trkpt>
      <trkpt lat="46.99443" lon="-0.97326">
        <ele>61.9</ele>
        <time>2025-08-25T10:18:07Z</time>
      </trkpt>
      <trkpt lat="46.99442" lon="-0.97328">
        <ele>61.9</ele>
        <time>2025-08-25T10:18:08Z</time>
      </trkpt>
      <trkpt lat="46.99441" lon="-0.97329">
        <ele>61.9</ele>
        <time>2025-08-25T10:18:09Z</time>
      </trkpt>
      <trkpt lat="46.9944" lon="-0.9733">
        <ele>61.9</ele>
        <time>2025-08-25T10:18:10Z</time>
      </trkpt>
      <trkpt lat="46.99439" lon="-0.97332">
        <ele>61.9</ele>
        <time>2025-08-25T10:18:11Z</time>
      </trkpt>
      <trkpt lat="46.99437" lon="-0.97334">
        <ele>61.9</ele>
        <time>2025-08-25T10:18:12Z</time>
      </trkpt>
      <trkpt lat="46.99437" lon="-0.97334">
        <ele>61.9</ele>
        <time>2025-08-25T10:18:13Z</time>
      </trkpt>
      <trkpt lat="46.99436" lon="-0.97335">
        <ele>61.9</ele>
        <time>2025-08-25T10:18:14Z</time>
      </trkpt>
      <trkpt lat="46.99435" lon="-0.97338">
        <ele>61.9</ele>
        <time>2025-08-25T10:18:15Z</time>
      </trkpt>
      <trkpt lat="46.99434" lon="-0.97339">
        <ele>61.9</ele>
        <time>2025-08-25T10:18:16Z</time>
      </trkpt>
      <trkpt lat="46.99434" lon="-0.9734">
        <ele>61.9</ele>
        <time>2025-08-25T10:18:17Z</time>
      </trkpt>
      <trkpt lat="46.99432" lon="-0.97343">
        <ele>61.9</ele>
        <time>2025-08-25T10:18:18Z</time>
      </trkpt>
      <trkpt lat="46.99432" lon="-0.97344">
        <ele>61.9</ele>
        <time>2025-08-25T10:18:19Z</time>
      </trkpt>
      <trkpt lat="46.99432" lon="-0.97344">
        <ele>61.9</ele>
        <time>2025-08-25T10:18:20Z</time>
      </trkpt>
      <trkpt lat="46.9943" lon="-0.97347">
        <ele>61.9</ele>
        <time>2025-08-25T10:18:21Z</time>
      </trkpt>
      <trkpt lat="46.9943" lon="-0.97348">
        <ele>61.9</ele>
        <time>2025-08-25T10:18:22Z</time>
      </trkpt>
      <trkpt lat="46.99429" lon="-0.97349">
        <ele>61.9</ele>
        <time>2025-08-25T10:18:23Z</time>
      </trkpt>
      <trkpt lat="46.99428" lon="-0.97351">
        <ele>61.9</ele>
        <time>2025-08-25T10:18:24Z</time>
      </trkpt>
      <trkpt lat="46.99427" lon="-0.97352">
        <ele>61.9</ele>
        <time>2025-08-25T10:18:25Z</time>
      </trkpt>
      <trkpt lat="46.99426" lon="-0.97353">
        <ele>61.9</ele>
        <time>2025-08-25T10:18:26Z</time>
      </trkpt>
      <trkpt lat="46.99425" lon="-0.97355">
        <ele>61.9</ele>
        <time>2025-08-25T10:18:27Z</time>
      </trkpt>
      <trkpt lat="46.99424" lon="-0.97356">
        <ele>61.9</ele>
        <time>2025-08-25T10:18:28Z</time>
      </trkpt>
      <trkpt lat="46.99423" lon="-0.97357">
        <ele>61.9</ele>
        <time>2025-08-25T10:18:29Z</time>
      </trkpt>
      <trkpt lat="46.99422" lon="-0.97358">
        <ele>61.9</ele>
        <time>2025-08-25T10:18:30Z</time>
      </trkpt>
      <trkpt lat="46.99421" lon="-0.9736">
        <ele>61.9</ele>
        <time>2025-08-25T10:18:31Z</time>
      </trkpt>
      <trkpt lat="46.99421" lon="-0.97361">
        <ele>61.9</ele>
        <time>2025-08-25T10:18:32Z</time>
      </trkpt>
      <trkpt lat="46.9942" lon="-0.97363">
        <ele>61.9</ele>
        <time>2025-08-25T10:18:33Z</time>
      </trkpt>
      <trkpt lat="46.99419" lon="-0.97364">
        <ele>61.9</ele>
        <time>2025-08-25T10:18:34Z</time>
      </trkpt>
      <trkpt lat="46.99419" lon="-0.97366">
        <ele>61.9</ele>
        <time>2025-08-25T10:18:35Z</time>
      </trkpt>
      <trkpt lat="46.99418" lon="-0.97367">
        <ele>61.9</ele>
        <time>2025-08-25T10:18:36Z</time>
      </trkpt>
      <trkpt lat="46.99418" lon="-0.97369">
        <ele>61.9</ele>
        <time>2025-08-25T10:18:37Z</time>
      </trkpt>
      <trkpt lat="46.99417" lon="-0.9737">
        <ele>61.9</ele>
        <time>2025-08-25T10:18:38Z</time>
      </trkpt>
      <trkpt lat="46.99417" lon="-0.97371">
        <ele>61.9</ele>
        <time>2025-08-25T10:18:39Z</time>
      </trkpt>
      <trkpt lat="46.99416" lon="-0.97372">
        <ele>61.9</ele>
        <time>2025-08-25T10:18:40Z</time>
      </trkpt>
      <trkpt lat="46.99416" lon="-0.97372">
        <ele>61.9</ele>
        <time>2025-08-25T10:18:41Z</time>
      </trkpt>
      <trkpt lat="46.99416" lon="-0.97373">
        <ele>61.9</ele>
        <time>2025-08-25T10:18:42Z</time>
      </trkpt>
      <trkpt lat="46.99416" lon="-0.97373">
        <ele>61.9</ele>
        <time>2025-08-25T10:18:43Z</time>
      </trkpt>
      <trkpt lat="46.99416" lon="-0.97373">
        <ele>61.9</ele>
        <time>2025-08-25T10:18:44Z</time>
      </trkpt>
      <trkpt lat="46.99416" lon="-0.97374">
        <ele>61.9</ele>
        <time>2025-08-25T10:18:45Z</time>
      </trkpt>
      <trkpt lat="46.99416" lon="-0.97374">
        <ele>61.9</ele>
        <time>2025-08-25T10:18:46Z</time>
      </trkpt>
      <trkpt lat="46.99416" lon="-0.97374">
        <ele>61.9</ele>
        <time>2025-08-25T10:18:47Z</time>
      </trkpt>
      <trkpt lat="46.99416" lon="-0.97375">
        <ele>61.9</ele>
        <time>2025-08-25T10:18:48Z</time>
      </trkpt>
      <trkpt lat="46.99416" lon="-0.97375">
        <ele>61.9</ele>
        <time>2025-08-25T10:18:49Z</time>
      </trkpt>
      <trkpt lat="46.99416" lon="-0.97375">
        <ele>61.9</ele>
        <time>2025-08-25T10:18:50Z</time>
      </trkpt>
      <trkpt lat="46.99416" lon="-0.97376">
        <ele>61.9</ele>
        <time>2025-08-25T10:18:51Z</time>
      </trkpt>
      <trkpt lat="46.99416" lon="-0.97376">
        <ele>61.9</ele>
        <time>2025-08-25T10:18:52Z</time>
      </trkpt>
      <trkpt lat="46.99416" lon="-0.97376">
        <ele>61.9</ele>
        <time>2025-08-25T10:18:53Z</time>
      </trkpt>
      <trkpt lat="46.99416" lon="-0.97376">
        <ele>61.9</ele>
        <time>2025-08-25T10:18:54Z</time>
      </trkpt>
      <trkpt lat="46.99416" lon="-0.97378">
        <ele>61.9</ele>
        <time>2025-08-25T10:18:55Z</time>
      </trkpt>
      <trkpt lat="46.99416" lon="-0.97381">
        <ele>61.9</ele>
        <time>2025-08-25T10:18:56Z</time>
      </trkpt>
      <trkpt lat="46.99415" lon="-0.97383">
        <ele>61.9</ele>
        <time>2025-08-25T10:18:57Z</time>
      </trkpt>
      <trkpt lat="46.99415" lon="-0.97385">
        <ele>61.9</ele>
        <time>2025-08-25T10:18:58Z</time>
      </trkpt>
      <trkpt lat="46.99414" lon="-0.97387">
        <ele>61.9</ele>
        <time>2025-08-25T10:18:59Z</time>
      </trkpt>
      <trkpt lat="46.99413" lon="-0.97389">
        <ele>61.9</ele>
        <time>2025-08-25T10:19:00Z</time>
      </trkpt>
      <trkpt lat="46.99412" lon="-0.97392">
        <ele>61.9</ele>
        <time>2025-08-25T10:19:01Z</time>
      </trkpt>
      <trkpt lat="46.99412" lon="-0.97393">
        <ele>61.9</ele>
        <time>2025-08-25T10:19:02Z</time>
      </trkpt>
      <trkpt lat="46.99411" lon="-0.97394">
        <ele>61.9</ele>
        <time>2025-08-25T10:19:03Z</time>
      </trkpt>
      <trkpt lat="46.9941" lon="-0.97395">
        <ele>61.9</ele>
        <time>2025-08-25T10:19:04Z</time>
      </trkpt>
      <trkpt lat="46.9941" lon="-0.97396">
        <ele>61.9</ele>
        <time>2025-08-25T10:19:05Z</time>
      </trkpt>
      <trkpt lat="46.99409" lon="-0.97398">
        <ele>61.9</ele>
        <time>2025-08-25T10:19:06Z</time>
      </trkpt>
      <trkpt lat="46.99408" lon="-0.97401">
        <ele>61.9</ele>
        <time>2025-08-25T10:19:07Z</time>
      </trkpt>
      <trkpt lat="46.99408" lon="-0.97402">
        <ele>61.9</ele>
        <time>2025-08-25T10:19:08Z</time>
      </trkpt>
      <trkpt lat="46.99408" lon="-0.97403">
        <ele>61.9</ele>
        <time>2025-08-25T10:19:09Z</time>
      </trkpt>
      <trkpt lat="46.99407" lon="-0.97406">
        <ele>61.9</ele>
        <time>2025-08-25T10:19:10Z</time>
      </trkpt>
      <trkpt lat="46.99407" lon="-0.97407">
        <ele>61.9</ele>
        <time>2025-08-25T10:19:11Z</time>
      </trkpt>
      <trkpt lat="46.99407" lon="-0.97409">
        <ele>61.9</ele>
        <time>2025-08-25T10:19:12Z</time>
      </trkpt>
      <trkpt lat="46.99407" lon="-0.9741">
        <ele>61.9</ele>
        <time>2025-08-25T10:19:13Z</time>
      </trkpt>
      <trkpt lat="46.99406" lon="-0.97412">
        <ele>61.9</ele>
        <time>2025-08-25T10:19:14Z</time>
      </trkpt>
      <trkpt lat="46.99406" lon="-0.97414">
        <ele>61.9</ele>
        <time>2025-08-25T10:19:15Z</time>
      </trkpt>
      <trkpt lat="46.99405" lon="-0.97416">
        <ele>61.9</ele>
        <time>2025-08-25T10:19:16Z</time>
      </trkpt>
      <trkpt lat="46.99405" lon="-0.97417">
        <ele>61.9</ele>
        <time>2025-08-25T10:19:17Z</time>
      </trkpt>
      <trkpt lat="46.99405" lon="-0.9742">
        <ele>61.9</ele>
        <time>2025-08-25T10:19:18Z</time>
      </trkpt>
      <trkpt lat="46.99405" lon="-0.97422">
        <ele>61.9</ele>
        <time>2025-08-25T10:19:19Z</time>
      </trkpt>
      <trkpt lat="46.99405" lon="-0.97423">
        <ele>61.9</ele>
        <time>2025-08-25T10:19:20Z</time>
      </trkpt>
      <trkpt lat="46.99404" lon="-0.97425">
        <ele>61.9</ele>
        <time>2025-08-25T10:19:21Z</time>
      </trkpt>
      <trkpt lat="46.99404" lon="-0.97426">
        <ele>61.9</ele>
        <time>2025-08-25T10:19:22Z</time>
      </trkpt>
      <trkpt lat="46.99404" lon="-0.97428">
        <ele>61.9</ele>
        <time>2025-08-25T10:19:23Z</time>
      </trkpt>
      <trkpt lat="46.99403" lon="-0.97431">
        <ele>61.8</ele>
        <time>2025-08-25T10:19:24Z</time>
      </trkpt>
      <trkpt lat="46.99403" lon="-0.97432">
        <ele>61.8</ele>
        <time>2025-08-25T10:19:25Z</time>
      </trkpt>
      <trkpt lat="46.99402" lon="-0.97434">
        <ele>61.8</ele>
        <time>2025-08-25T10:19:26Z</time>
      </trkpt>
      <trkpt lat="46.99402" lon="-0.97437">
        <ele>61.8</ele>
        <time>2025-08-25T10:19:27Z</time>
      </trkpt>
      <trkpt lat="46.99401" lon="-0.97438">
        <ele>61.8</ele>
        <time>2025-08-25T10:19:28Z</time>
      </trkpt>
      <trkpt lat="46.99401" lon="-0.97439">
        <ele>61.8</ele>
        <time>2025-08-25T10:19:29Z</time>
      </trkpt>
      <trkpt lat="46.99401" lon="-0.97441">
        <ele>61.8</ele>
        <time>2025-08-25T10:19:30Z</time>
      </trkpt>
      <trkpt lat="46.994" lon="-0.97442">
        <ele>61.8</ele>
        <time>2025-08-25T10:19:31Z</time>
      </trkpt>
      <trkpt lat="46.994" lon="-0.97444">
        <ele>61.8</ele>
        <time>2025-08-25T10:19:32Z</time>
      </trkpt>
      <trkpt lat="46.994" lon="-0.97445">
        <ele>61.8</ele>
        <time>2025-08-25T10:19:33Z</time>
      </trkpt>
      <trkpt lat="46.994" lon="-0.97447">
        <ele>61.8</ele>
        <time>2025-08-25T10:19:34Z</time>
      </trkpt>
      <trkpt lat="46.994" lon="-0.97449">
        <ele>61.8</ele>
        <time>2025-08-25T10:19:35Z</time>
      </trkpt>
      <trkpt lat="46.99399" lon="-0.97452">
        <ele>61.8</ele>
        <time>2025-08-25T10:19:36Z</time>
      </trkpt>
      <trkpt lat="46.99399" lon="-0.97453">
        <ele>61.8</ele>
        <time>2025-08-25T10:19:37Z</time>
      </trkpt>
      <trkpt lat="46.99399" lon="-0.97455">
        <ele>61.8</ele>
        <time>2025-08-25T10:19:38Z</time>
      </trkpt>
      <trkpt lat="46.99399" lon="-0.97458">
        <ele>61.8</ele>
        <time>2025-08-25T10:19:39Z</time>
      </trkpt>
      <trkpt lat="46.99398" lon="-0.97459">
        <ele>61.8</ele>
        <time>2025-08-25T10:19:40Z</time>
      </trkpt>
      <trkpt lat="46.99398" lon="-0.9746">
        <ele>61.8</ele>
        <time>2025-08-25T10:19:41Z</time>
      </trkpt>
      <trkpt lat="46.99398" lon="-0.97462">
        <ele>61.8</ele>
        <time>2025-08-25T10:19:42Z</time>
      </trkpt>
      <trkpt lat="46.99397" lon="-0.97463">
        <ele>61.8</ele>
        <time>2025-08-25T10:19:43Z</time>
      </trkpt>
      <trkpt lat="46.99397" lon="-0.97465">
        <ele>61.8</ele>
        <time>2025-08-25T10:19:44Z</time>
      </trkpt>
      <trkpt lat="46.99397" lon="-0.97466">
        <ele>61.8</ele>
        <time>2025-08-25T10:19:45Z</time>
      </trkpt>
      <trkpt lat="46.99397" lon="-0.97468">
        <ele>61.8</ele>
        <time>2025-08-25T10:19:46Z</time>
      </trkpt>
      <trkpt lat="46.99396" lon="-0.9747">
        <ele>61.8</ele>
        <time>2025-08-25T10:19:47Z</time>
      </trkpt>
      <trkpt lat="46.99396" lon="-0.97471">
        <ele>61.8</ele>
        <time>2025-08-25T10:19:48Z</time>
      </trkpt>
      <trkpt lat="46.99396" lon="-0.97473">
        <ele>61.8</ele>
        <time>2025-08-25T10:19:49Z</time>
      </trkpt>
      <trkpt lat="46.99395" lon="-0.97474">
        <ele>61.8</ele>
        <time>2025-08-25T10:19:50Z</time>
      </trkpt>
      <trkpt lat="46.99395" lon="-0.97476">
        <ele>61.8</ele>
        <time>2025-08-25T10:19:51Z</time>
      </trkpt>
      <trkpt lat="46.99394" lon="-0.97477">
        <ele>61.9</ele>
        <time>2025-08-25T10:19:52Z</time>
      </trkpt>
      <trkpt lat="46.99394" lon="-0.97479">
        <ele>61.9</ele>
        <time>2025-08-25T10:19:53Z</time>
      </trkpt>
      <trkpt lat="46.99393" lon="-0.9748">
        <ele>61.9</ele>
        <time>2025-08-25T10:19:54Z</time>
      </trkpt>
      <trkpt lat="46.99393" lon="-0.97482">
        <ele>61.9</ele>
        <time>2025-08-25T10:19:55Z</time>
      </trkpt>
      <trkpt lat="46.99392" lon="-0.97483">
        <ele>61.9</ele>
        <time>2025-08-25T10:19:56Z</time>
      </trkpt>
      <trkpt lat="46.99391" lon="-0.97486">
        <ele>61.9</ele>
        <time>2025-08-25T10:19:57Z</time>
      </trkpt>
      <trkpt lat="46.9939" lon="-0.97487">
        <ele>61.9</ele>
        <time>2025-08-25T10:19:58Z</time>
      </trkpt>
      <trkpt lat="46.9939" lon="-0.97488">
        <ele>61.9</ele>
        <time>2025-08-25T10:19:59Z</time>
      </trkpt>
      <trkpt lat="46.99389" lon="-0.9749">
        <ele>61.9</ele>
        <time>2025-08-25T10:20:00Z</time>
      </trkpt>
      <trkpt lat="46.99388" lon="-0.97491">
        <ele>61.9</ele>
        <time>2025-08-25T10:20:01Z</time>
      </trkpt>
      <trkpt lat="46.99388" lon="-0.97492">
        <ele>61.9</ele>
        <time>2025-08-25T10:20:02Z</time>
      </trkpt>
      <trkpt lat="46.99387" lon="-0.97494">
        <ele>61.9</ele>
        <time>2025-08-25T10:20:03Z</time>
      </trkpt>
      <trkpt lat="46.99386" lon="-0.97495">
        <ele>61.9</ele>
        <time>2025-08-25T10:20:04Z</time>
      </trkpt>
      <trkpt lat="46.99386" lon="-0.97497">
        <ele>61.9</ele>
        <time>2025-08-25T10:20:05Z</time>
      </trkpt>
      <trkpt lat="46.99385" lon="-0.97498">
        <ele>61.9</ele>
        <time>2025-08-25T10:20:06Z</time>
      </trkpt>
      <trkpt lat="46.99384" lon="-0.97499">
        <ele>61.9</ele>
        <time>2025-08-25T10:20:07Z</time>
      </trkpt>
      <trkpt lat="46.99383" lon="-0.97501">
        <ele>61.9</ele>
        <time>2025-08-25T10:20:08Z</time>
      </trkpt>
      <trkpt lat="46.99383" lon="-0.97502">
        <ele>61.9</ele>
        <time>2025-08-25T10:20:09Z</time>
      </trkpt>
      <trkpt lat="46.99382" lon="-0.97503">
        <ele>61.9</ele>
        <time>2025-08-25T10:20:10Z</time>
      </trkpt>
      <trkpt lat="46.99382" lon="-0.97505">
        <ele>61.9</ele>
        <time>2025-08-25T10:20:11Z</time>
      </trkpt>
      <trkpt lat="46.99381" lon="-0.97506">
        <ele>61.9</ele>
        <time>2025-08-25T10:20:12Z</time>
      </trkpt>
      <trkpt lat="46.9938" lon="-0.97508">
        <ele>61.9</ele>
        <time>2025-08-25T10:20:13Z</time>
      </trkpt>
      <trkpt lat="46.9938" lon="-0.9751">
        <ele>61.9</ele>
        <time>2025-08-25T10:20:14Z</time>
      </trkpt>
      <trkpt lat="46.99379" lon="-0.97512">
        <ele>61.9</ele>
        <time>2025-08-25T10:20:15Z</time>
      </trkpt>
      <trkpt lat="46.99379" lon="-0.97514">
        <ele>61.9</ele>
        <time>2025-08-25T10:20:16Z</time>
      </trkpt>
      <trkpt lat="46.99379" lon="-0.97515">
        <ele>61.9</ele>
        <time>2025-08-25T10:20:17Z</time>
      </trkpt>
      <trkpt lat="46.99378" lon="-0.97517">
        <ele>61.9</ele>
        <time>2025-08-25T10:20:18Z</time>
      </trkpt>
      <trkpt lat="46.99378" lon="-0.97518">
        <ele>61.9</ele>
        <time>2025-08-25T10:20:19Z</time>
      </trkpt>
      <trkpt lat="46.99378" lon="-0.9752">
        <ele>62</ele>
        <time>2025-08-25T10:20:20Z</time>
      </trkpt>
      <trkpt lat="46.99377" lon="-0.97521">
        <ele>62</ele>
        <time>2025-08-25T10:20:21Z</time>
      </trkpt>
      <trkpt lat="46.99377" lon="-0.97523">
        <ele>62</ele>
        <time>2025-08-25T10:20:22Z</time>
      </trkpt>
      <trkpt lat="46.99376" lon="-0.97524">
        <ele>62</ele>
        <time>2025-08-25T10:20:23Z</time>
      </trkpt>
      <trkpt lat="46.99376" lon="-0.97526">
        <ele>62</ele>
        <time>2025-08-25T10:20:24Z</time>
      </trkpt>
      <trkpt lat="46.99375" lon="-0.97526">
        <ele>62</ele>
        <time>2025-08-25T10:20:25Z</time>
      </trkpt>
      <trkpt lat="46.99375" lon="-0.97527">
        <ele>62</ele>
        <time>2025-08-25T10:20:26Z</time>
      </trkpt>
      <trkpt lat="46.99374" lon="-0.97528">
        <ele>62.1</ele>
        <time>2025-08-25T10:20:27Z</time>
      </trkpt>
      <trkpt lat="46.99374" lon="-0.97528">
        <ele>62.1</ele>
        <time>2025-08-25T10:20:28Z</time>
      </trkpt>
      <trkpt lat="46.99373" lon="-0.97529">
        <ele>62.1</ele>
        <time>2025-08-25T10:20:29Z</time>
      </trkpt>
      <trkpt lat="46.99373" lon="-0.9753">
        <ele>62.1</ele>
        <time>2025-08-25T10:20:30Z</time>
      </trkpt>
      <trkpt lat="46.99372" lon="-0.97531">
        <ele>62.1</ele>
        <time>2025-08-25T10:20:31Z</time>
      </trkpt>
      <trkpt lat="46.99372" lon="-0.97532">
        <ele>62.1</ele>
        <time>2025-08-25T10:20:32Z</time>
      </trkpt>
      <trkpt lat="46.99371" lon="-0.97533">
        <ele>62.2</ele>
        <time>2025-08-25T10:20:33Z</time>
      </trkpt>
      <trkpt lat="46.99371" lon="-0.97534">
        <ele>62.2</ele>
        <time>2025-08-25T10:20:34Z</time>
      </trkpt>
      <trkpt lat="46.9937" lon="-0.97535">
        <ele>62.2</ele>
        <time>2025-08-25T10:20:35Z</time>
      </trkpt>
      <trkpt lat="46.9937" lon="-0.97536">
        <ele>62.3</ele>
        <time>2025-08-25T10:20:36Z</time>
      </trkpt>
      <trkpt lat="46.99369" lon="-0.97537">
        <ele>62.3</ele>
        <time>2025-08-25T10:20:37Z</time>
      </trkpt>
      <trkpt lat="46.99369" lon="-0.97538">
        <ele>62.3</ele>
        <time>2025-08-25T10:20:38Z</time>
      </trkpt>
      <trkpt lat="46.99368" lon="-0.9754">
        <ele>62.4</ele>
        <time>2025-08-25T10:20:39Z</time>
      </trkpt>
      <trkpt lat="46.99368" lon="-0.97541">
        <ele>62.4</ele>
        <time>2025-08-25T10:20:40Z</time>
      </trkpt>
      <trkpt lat="46.99368" lon="-0.97542">
        <ele>62.4</ele>
        <time>2025-08-25T10:20:41Z</time>
      </trkpt>
      <trkpt lat="46.99367" lon="-0.97543">
        <ele>62.4</ele>
        <time>2025-08-25T10:20:42Z</time>
      </trkpt>
      <trkpt lat="46.99367" lon="-0.97544">
        <ele>62.5</ele>
        <time>2025-08-25T10:20:43Z</time>
      </trkpt>
      <trkpt lat="46.99366" lon="-0.97545">
        <ele>62.5</ele>
        <time>2025-08-25T10:20:44Z</time>
      </trkpt>
      <trkpt lat="46.99366" lon="-0.97546">
        <ele>62.5</ele>
        <time>2025-08-25T10:20:45Z</time>
      </trkpt>
      <trkpt lat="46.99366" lon="-0.97548">
        <ele>62.6</ele>
        <time>2025-08-25T10:20:46Z</time>
      </trkpt>
      <trkpt lat="46.99366" lon="-0.97549">
        <ele>62.6</ele>
        <time>2025-08-25T10:20:47Z</time>
      </trkpt>
      <trkpt lat="46.99366" lon="-0.97551">
        <ele>62.6</ele>
        <time>2025-08-25T10:20:48Z</time>
      </trkpt>
      <trkpt lat="46.99366" lon="-0.97552">
        <ele>62.7</ele>
        <time>2025-08-25T10:20:49Z</time>
      </trkpt>
      <trkpt lat="46.99366" lon="-0.97553">
        <ele>62.7</ele>
        <time>2025-08-25T10:20:50Z</time>
      </trkpt>
      <trkpt lat="46.99366" lon="-0.97555">
        <ele>62.7</ele>
        <time>2025-08-25T10:20:51Z</time>
      </trkpt>
      <trkpt lat="46.99366" lon="-0.97556">
        <ele>62.8</ele>
        <time>2025-08-25T10:20:52Z</time>
      </trkpt>
      <trkpt lat="46.99365" lon="-0.97557">
        <ele>62.8</ele>
        <time>2025-08-25T10:20:53Z</time>
      </trkpt>
      <trkpt lat="46.99365" lon="-0.97559">
        <ele>62.8</ele>
        <time>2025-08-25T10:20:54Z</time>
      </trkpt>
      <trkpt lat="46.99364" lon="-0.9756">
        <ele>62.9</ele>
        <time>2025-08-25T10:20:55Z</time>
      </trkpt>
      <trkpt lat="46.99364" lon="-0.97561">
        <ele>62.9</ele>
        <time>2025-08-25T10:20:56Z</time>
      </trkpt>
      <trkpt lat="46.99363" lon="-0.97563">
        <ele>62.9</ele>
        <time>2025-08-25T10:20:57Z</time>
      </trkpt>
      <trkpt lat="46.99362" lon="-0.97563">
        <ele>63</ele>
        <time>2025-08-25T10:20:58Z</time>
      </trkpt>
      <trkpt lat="46.99361" lon="-0.97564">
        <ele>63</ele>
        <time>2025-08-25T10:20:59Z</time>
      </trkpt>
      <trkpt lat="46.9936" lon="-0.97565">
        <ele>63</ele>
        <time>2025-08-25T10:21:00Z</time>
      </trkpt>
      <trkpt lat="46.99359" lon="-0.97565">
        <ele>63.1</ele>
        <time>2025-08-25T10:21:01Z</time>
      </trkpt>
      <trkpt lat="46.99359" lon="-0.97567">
        <ele>63.1</ele>
        <time>2025-08-25T10:21:02Z</time>
      </trkpt>
      <trkpt lat="46.99358" lon="-0.97568">
        <ele>63.1</ele>
        <time>2025-08-25T10:21:03Z</time>
      </trkpt>
      <trkpt lat="46.99358" lon="-0.97569">
        <ele>63.2</ele>
        <time>2025-08-25T10:21:04Z</time>
      </trkpt>
      <trkpt lat="46.99357" lon="-0.97569">
        <ele>63.2</ele>
        <time>2025-08-25T10:21:05Z</time>
      </trkpt>
      <trkpt lat="46.99357" lon="-0.9757">
        <ele>63.2</ele>
        <time>2025-08-25T10:21:06Z</time>
      </trkpt>
      <trkpt lat="46.99357" lon="-0.97571">
        <ele>63.2</ele>
        <time>2025-08-25T10:21:07Z</time>
      </trkpt>
      <trkpt lat="46.99357" lon="-0.97572">
        <ele>63.2</ele>
        <time>2025-08-25T10:21:08Z</time>
      </trkpt>
      <trkpt lat="46.99356" lon="-0.97574">
        <ele>63.3</ele>
        <time>2025-08-25T10:21:09Z</time>
      </trkpt>
      <trkpt lat="46.99356" lon="-0.97575">
        <ele>63.3</ele>
        <time>2025-08-25T10:21:10Z</time>
      </trkpt>
      <trkpt lat="46.99356" lon="-0.97576">
        <ele>63.3</ele>
        <time>2025-08-25T10:21:11Z</time>
      </trkpt>
      <trkpt lat="46.99355" lon="-0.97577">
        <ele>63.3</ele>
        <time>2025-08-25T10:21:12Z</time>
      </trkpt>
      <trkpt lat="46.99355" lon="-0.97578">
        <ele>63.4</ele>
        <time>2025-08-25T10:21:13Z</time>
      </trkpt>
      <trkpt lat="46.99354" lon="-0.9758">
        <ele>63.4</ele>
        <time>2025-08-25T10:21:14Z</time>
      </trkpt>
      <trkpt lat="46.99354" lon="-0.97582">
        <ele>63.4</ele>
        <time>2025-08-25T10:21:15Z</time>
      </trkpt>
      <trkpt lat="46.99354" lon="-0.97583">
        <ele>63.4</ele>
        <time>2025-08-25T10:21:16Z</time>
      </trkpt>
      <trkpt lat="46.99353" lon="-0.97585">
        <ele>63.5</ele>
        <time>2025-08-25T10:21:17Z</time>
      </trkpt>
      <trkpt lat="46.99353" lon="-0.97587">
        <ele>63.5</ele>
        <time>2025-08-25T10:21:18Z</time>
      </trkpt>
      <trkpt lat="46.99352" lon="-0.9759">
        <ele>63.5</ele>
        <time>2025-08-25T10:21:19Z</time>
      </trkpt>
      <trkpt lat="46.99352" lon="-0.97592">
        <ele>63.5</ele>
        <time>2025-08-25T10:21:20Z</time>
      </trkpt>
      <trkpt lat="46.99351" lon="-0.97594">
        <ele>63.5</ele>
        <time>2025-08-25T10:21:21Z</time>
      </trkpt>
      <trkpt lat="46.9935" lon="-0.97597">
        <ele>63.5</ele>
        <time>2025-08-25T10:21:22Z</time>
      </trkpt>
      <trkpt lat="46.9935" lon="-0.97599">
        <ele>63.5</ele>
        <time>2025-08-25T10:21:23Z</time>
      </trkpt>
      <trkpt lat="46.99349" lon="-0.97601">
        <ele>63.5</ele>
        <time>2025-08-25T10:21:24Z</time>
      </trkpt>
      <trkpt lat="46.99349" lon="-0.97602">
        <ele>63.5</ele>
        <time>2025-08-25T10:21:25Z</time>
      </trkpt>
      <trkpt lat="46.99348" lon="-0.97603">
        <ele>63.5</ele>
        <time>2025-08-25T10:21:26Z</time>
      </trkpt>
      <trkpt lat="46.99347" lon="-0.97605">
        <ele>63.4</ele>
        <time>2025-08-25T10:21:27Z</time>
      </trkpt>
      <trkpt lat="46.99347" lon="-0.97606">
        <ele>63.4</ele>
        <time>2025-08-25T10:21:28Z</time>
      </trkpt>
      <trkpt lat="46.99346" lon="-0.97607">
        <ele>63.4</ele>
        <time>2025-08-25T10:21:29Z</time>
      </trkpt>
      <trkpt lat="46.99346" lon="-0.97608">
        <ele>63.4</ele>
        <time>2025-08-25T10:21:30Z</time>
      </trkpt>
      <trkpt lat="46.99345" lon="-0.97609">
        <ele>63.4</ele>
        <time>2025-08-25T10:21:31Z</time>
      </trkpt>
      <trkpt lat="46.99344" lon="-0.97608">
        <ele>63.4</ele>
        <time>2025-08-25T10:21:32Z</time>
      </trkpt>
      <trkpt lat="46.99344" lon="-0.97609">
        <ele>63.4</ele>
        <time>2025-08-25T10:21:33Z</time>
      </trkpt>
      <trkpt lat="46.99345" lon="-0.9761">
        <ele>63.3</ele>
        <time>2025-08-25T10:21:34Z</time>
      </trkpt>
      <trkpt lat="46.99345" lon="-0.9761">
        <ele>63.3</ele>
        <time>2025-08-25T10:21:35Z</time>
      </trkpt>
      <trkpt lat="46.99345" lon="-0.97611">
        <ele>63.3</ele>
        <time>2025-08-25T10:21:36Z</time>
      </trkpt>
      <trkpt lat="46.99346" lon="-0.97611">
        <ele>63.3</ele>
        <time>2025-08-25T10:21:37Z</time>
      </trkpt>
      <trkpt lat="46.99346" lon="-0.97611">
        <ele>63.3</ele>
        <time>2025-08-25T10:21:38Z</time>
      </trkpt>
      <trkpt lat="46.99346" lon="-0.97613">
        <ele>63.3</ele>
        <time>2025-08-25T10:21:39Z</time>
      </trkpt>
      <trkpt lat="46.99346" lon="-0.97613">
        <ele>63.3</ele>
        <time>2025-08-25T10:21:40Z</time>
      </trkpt>
      <trkpt lat="46.99346" lon="-0.97614">
        <ele>63.3</ele>
        <time>2025-08-25T10:21:41Z</time>
      </trkpt>
      <trkpt lat="46.99346" lon="-0.97614">
        <ele>63.3</ele>
        <time>2025-08-25T10:21:42Z</time>
      </trkpt>
      <trkpt lat="46.99346" lon="-0.97615">
        <ele>63.3</ele>
        <time>2025-08-25T10:21:43Z</time>
      </trkpt>
      <trkpt lat="46.99346" lon="-0.97616">
        <ele>63.3</ele>
        <time>2025-08-25T10:21:44Z</time>
      </trkpt>
      <trkpt lat="46.99345" lon="-0.97616">
        <ele>63.3</ele>
        <time>2025-08-25T10:21:45Z</time>
      </trkpt>
      <trkpt lat="46.99345" lon="-0.97617">
        <ele>63.3</ele>
        <time>2025-08-25T10:21:46Z</time>
      </trkpt>
      <trkpt lat="46.99345" lon="-0.97617">
        <ele>63.2</ele>
        <time>2025-08-25T10:21:47Z</time>
      </trkpt>
      <trkpt lat="46.99345" lon="-0.97618">
        <ele>63.2</ele>
        <time>2025-08-25T10:21:48Z</time>
      </trkpt>
      <trkpt lat="46.99345" lon="-0.97617">
        <ele>63.2</ele>
        <time>2025-08-25T10:21:49Z</time>
      </trkpt>
      <trkpt lat="46.99345" lon="-0.97618">
        <ele>63.2</ele>
        <time>2025-08-25T10:21:50Z</time>
      </trkpt>
      <trkpt lat="46.99344" lon="-0.97619">
        <ele>63.1</ele>
        <time>2025-08-25T10:21:51Z</time>
      </trkpt>
      <trkpt lat="46.99344" lon="-0.97623">
        <ele>63</ele>
        <time>2025-08-25T10:21:52Z</time>
      </trkpt>
      <trkpt lat="46.99344" lon="-0.97624">
        <ele>62.9</ele>
        <time>2025-08-25T10:21:53Z</time>
      </trkpt>
      <trkpt lat="46.99344" lon="-0.97625">
        <ele>62.9</ele>
        <time>2025-08-25T10:21:54Z</time>
      </trkpt>
      <trkpt lat="46.99344" lon="-0.97627">
        <ele>62.8</ele>
        <time>2025-08-25T10:21:55Z</time>
      </trkpt>
      <trkpt lat="46.99344" lon="-0.97629">
        <ele>62.7</ele>
        <time>2025-08-25T10:21:56Z</time>
      </trkpt>
      <trkpt lat="46.99344" lon="-0.97632">
        <ele>62.6</ele>
        <time>2025-08-25T10:21:57Z</time>
      </trkpt>
      <trkpt lat="46.99344" lon="-0.97634">
        <ele>62.5</ele>
        <time>2025-08-25T10:21:58Z</time>
      </trkpt>
      <trkpt lat="46.99344" lon="-0.97636">
        <ele>62.4</ele>
        <time>2025-08-25T10:21:59Z</time>
      </trkpt>
      <trkpt lat="46.99344" lon="-0.97638">
        <ele>62.3</ele>
        <time>2025-08-25T10:22:00Z</time>
      </trkpt>
      <trkpt lat="46.99345" lon="-0.9764">
        <ele>62.3</ele>
        <time>2025-08-25T10:22:01Z</time>
      </trkpt>
      <trkpt lat="46.99345" lon="-0.97642">
        <ele>62.2</ele>
        <time>2025-08-25T10:22:02Z</time>
      </trkpt>
      <trkpt lat="46.99346" lon="-0.97644">
        <ele>62.1</ele>
        <time>2025-08-25T10:22:03Z</time>
      </trkpt>
      <trkpt lat="46.99346" lon="-0.97646">
        <ele>62.1</ele>
        <time>2025-08-25T10:22:04Z</time>
      </trkpt>
      <trkpt lat="46.99346" lon="-0.97649">
        <ele>62</ele>
        <time>2025-08-25T10:22:05Z</time>
      </trkpt>
      <trkpt lat="46.99347" lon="-0.97651">
        <ele>62</ele>
        <time>2025-08-25T10:22:06Z</time>
      </trkpt>
      <trkpt lat="46.99347" lon="-0.97653">
        <ele>61.9</ele>
        <time>2025-08-25T10:22:07Z</time>
      </trkpt>
      <trkpt lat="46.99347" lon="-0.97654">
        <ele>61.9</ele>
        <time>2025-08-25T10:22:08Z</time>
      </trkpt>
      <trkpt lat="46.99347" lon="-0.97656">
        <ele>61.9</ele>
        <time>2025-08-25T10:22:09Z</time>
      </trkpt>
      <trkpt lat="46.99348" lon="-0.97657">
        <ele>61.8</ele>
        <time>2025-08-25T10:22:10Z</time>
      </trkpt>
      <trkpt lat="46.99348" lon="-0.97658">
        <ele>61.8</ele>
        <time>2025-08-25T10:22:11Z</time>
      </trkpt>
      <trkpt lat="46.99349" lon="-0.97659">
        <ele>61.8</ele>
        <time>2025-08-25T10:22:12Z</time>
      </trkpt>
      <trkpt lat="46.99349" lon="-0.97661">
        <ele>61.8</ele>
        <time>2025-08-25T10:22:13Z</time>
      </trkpt>
      <trkpt lat="46.99349" lon="-0.97662">
        <ele>61.8</ele>
        <time>2025-08-25T10:22:14Z</time>
      </trkpt>
      <trkpt lat="46.99349" lon="-0.97664">
        <ele>61.8</ele>
        <time>2025-08-25T10:22:15Z</time>
      </trkpt>
      <trkpt lat="46.99349" lon="-0.97665">
        <ele>61.8</ele>
        <time>2025-08-25T10:22:16Z</time>
      </trkpt>
      <trkpt lat="46.99349" lon="-0.97666">
        <ele>61.8</ele>
        <time>2025-08-25T10:22:17Z</time>
      </trkpt>
      <trkpt lat="46.99349" lon="-0.97667">
        <ele>61.8</ele>
        <time>2025-08-25T10:22:18Z</time>
      </trkpt>
      <trkpt lat="46.9935" lon="-0.97668">
        <ele>61.8</ele>
        <time>2025-08-25T10:22:19Z</time>
      </trkpt>
      <trkpt lat="46.9935" lon="-0.97668">
        <ele>61.7</ele>
        <time>2025-08-25T10:22:20Z</time>
      </trkpt>
      <trkpt lat="46.9935" lon="-0.97669">
        <ele>61.7</ele>
        <time>2025-08-25T10:22:21Z</time>
      </trkpt>
      <trkpt lat="46.99351" lon="-0.97669">
        <ele>61.7</ele>
        <time>2025-08-25T10:22:22Z</time>
      </trkpt>
      <trkpt lat="46.99351" lon="-0.9767">
        <ele>61.7</ele>
        <time>2025-08-25T10:22:23Z</time>
      </trkpt>
      <trkpt lat="46.99351" lon="-0.9767">
        <ele>61.7</ele>
        <time>2025-08-25T10:22:24Z</time>
      </trkpt>
      <trkpt lat="46.99351" lon="-0.9767">
        <ele>61.7</ele>
        <time>2025-08-25T10:22:25Z</time>
      </trkpt>
      <trkpt lat="46.99351" lon="-0.9767">
        <ele>61.7</ele>
        <time>2025-08-25T10:22:26Z</time>
      </trkpt>
      <trkpt lat="46.99351" lon="-0.9767">
        <ele>61.7</ele>
        <time>2025-08-25T10:22:27Z</time>
      </trkpt>
      <trkpt lat="46.99351" lon="-0.97671">
        <ele>61.7</ele>
        <time>2025-08-25T10:22:28Z</time>
      </trkpt>
      <trkpt lat="46.99351" lon="-0.97672">
        <ele>61.7</ele>
        <time>2025-08-25T10:22:29Z</time>
      </trkpt>
      <trkpt lat="46.9935" lon="-0.97671">
        <ele>61.7</ele>
        <time>2025-08-25T10:22:30Z</time>
      </trkpt>
      <trkpt lat="46.9935" lon="-0.97671">
        <ele>61.7</ele>
        <time>2025-08-25T10:22:31Z</time>
      </trkpt>
      <trkpt lat="46.9935" lon="-0.97672">
        <ele>61.8</ele>
        <time>2025-08-25T10:22:32Z</time>
      </trkpt>
      <trkpt lat="46.99351" lon="-0.97674">
        <ele>61.8</ele>
        <time>2025-08-25T10:22:33Z</time>
      </trkpt>
      <trkpt lat="46.99351" lon="-0.97675">
        <ele>61.8</ele>
        <time>2025-08-25T10:22:34Z</time>
      </trkpt>
      <trkpt lat="46.99351" lon="-0.97678">
        <ele>61.8</ele>
        <time>2025-08-25T10:22:35Z</time>
      </trkpt>
      <trkpt lat="46.99352" lon="-0.9768">
        <ele>61.8</ele>
        <time>2025-08-25T10:22:36Z</time>
      </trkpt>
      <trkpt lat="46.99353" lon="-0.97682">
        <ele>61.8</ele>
        <time>2025-08-25T10:22:37Z</time>
      </trkpt>
      <trkpt lat="46.99353" lon="-0.97686">
        <ele>61.8</ele>
        <time>2025-08-25T10:22:38Z</time>
      </trkpt>
      <trkpt lat="46.99353" lon="-0.97688">
        <ele>61.8</ele>
        <time>2025-08-25T10:22:39Z</time>
      </trkpt>
      <trkpt lat="46.99354" lon="-0.97693">
        <ele>61.9</ele>
        <time>2025-08-25T10:22:40Z</time>
      </trkpt>
      <trkpt lat="46.99354" lon="-0.97694">
        <ele>61.9</ele>
        <time>2025-08-25T10:22:41Z</time>
      </trkpt>
      <trkpt lat="46.99354" lon="-0.97698">
        <ele>61.9</ele>
        <time>2025-08-25T10:22:42Z</time>
      </trkpt>
      <trkpt lat="46.99354" lon="-0.977">
        <ele>61.9</ele>
        <time>2025-08-25T10:22:43Z</time>
      </trkpt>
      <trkpt lat="46.99356" lon="-0.97706">
        <ele>61.8</ele>
        <time>2025-08-25T10:22:44Z</time>
      </trkpt>
      <trkpt lat="46.99357" lon="-0.97708">
        <ele>61.8</ele>
        <time>2025-08-25T10:22:45Z</time>
      </trkpt>
      <trkpt lat="46.99358" lon="-0.97711">
        <ele>61.8</ele>
        <time>2025-08-25T10:22:46Z</time>
      </trkpt>
      <trkpt lat="46.99359" lon="-0.97713">
        <ele>61.7</ele>
        <time>2025-08-25T10:22:47Z</time>
      </trkpt>
      <trkpt lat="46.9936" lon="-0.97715">
        <ele>61.7</ele>
        <time>2025-08-25T10:22:48Z</time>
      </trkpt>
      <trkpt lat="46.99361" lon="-0.97717">
        <ele>61.7</ele>
        <time>2025-08-25T10:22:49Z</time>
      </trkpt>
      <trkpt lat="46.99362" lon="-0.97719">
        <ele>61.6</ele>
        <time>2025-08-25T10:22:50Z</time>
      </trkpt>
      <trkpt lat="46.99362" lon="-0.97721">
        <ele>61.6</ele>
        <time>2025-08-25T10:22:51Z</time>
      </trkpt>
      <trkpt lat="46.99363" lon="-0.97722">
        <ele>61.6</ele>
        <time>2025-08-25T10:22:52Z</time>
      </trkpt>
      <trkpt lat="46.99363" lon="-0.97725">
        <ele>61.5</ele>
        <time>2025-08-25T10:22:53Z</time>
      </trkpt>
      <trkpt lat="46.99364" lon="-0.97727">
        <ele>61.5</ele>
        <time>2025-08-25T10:22:54Z</time>
      </trkpt>
      <trkpt lat="46.99364" lon="-0.97729">
        <ele>61.5</ele>
        <time>2025-08-25T10:22:55Z</time>
      </trkpt>
      <trkpt lat="46.99364" lon="-0.97731">
        <ele>61.4</ele>
        <time>2025-08-25T10:22:56Z</time>
      </trkpt>
      <trkpt lat="46.99365" lon="-0.97733">
        <ele>61.4</ele>
        <time>2025-08-25T10:22:57Z</time>
      </trkpt>
      <trkpt lat="46.99365" lon="-0.97737">
        <ele>61.4</ele>
        <time>2025-08-25T10:22:58Z</time>
      </trkpt>
      <trkpt lat="46.99365" lon="-0.97738">
        <ele>61.4</ele>
        <time>2025-08-25T10:22:59Z</time>
      </trkpt>
      <trkpt lat="46.99365" lon="-0.97738">
        <ele>61.4</ele>
        <time>2025-08-25T10:23:00Z</time>
      </trkpt>
      <trkpt lat="46.99365" lon="-0.97741">
        <ele>61.4</ele>
        <time>2025-08-25T10:23:01Z</time>
      </trkpt>
      <trkpt lat="46.99364" lon="-0.97743">
        <ele>61.4</ele>
        <time>2025-08-25T10:23:02Z</time>
      </trkpt>
      <trkpt lat="46.99364" lon="-0.97744">
        <ele>61.4</ele>
        <time>2025-08-25T10:23:03Z</time>
      </trkpt>
      <trkpt lat="46.99364" lon="-0.97745">
        <ele>61.4</ele>
        <time>2025-08-25T10:23:04Z</time>
      </trkpt>
      <trkpt lat="46.99363" lon="-0.97746">
        <ele>61.4</ele>
        <time>2025-08-25T10:23:05Z</time>
      </trkpt>
      <trkpt lat="46.99363" lon="-0.97747">
        <ele>61.4</ele>
        <time>2025-08-25T10:23:06Z</time>
      </trkpt>
      <trkpt lat="46.99363" lon="-0.97748">
        <ele>61.4</ele>
        <time>2025-08-25T10:23:07Z</time>
      </trkpt>
      <trkpt lat="46.99362" lon="-0.97749">
        <ele>61.4</ele>
        <time>2025-08-25T10:23:08Z</time>
      </trkpt>
      <trkpt lat="46.99362" lon="-0.9775">
        <ele>61.4</ele>
        <time>2025-08-25T10:23:09Z</time>
      </trkpt>
      <trkpt lat="46.99362" lon="-0.97751">
        <ele>61.4</ele>
        <time>2025-08-25T10:23:10Z</time>
      </trkpt>
      <trkpt lat="46.99362" lon="-0.97752">
        <ele>61.4</ele>
        <time>2025-08-25T10:23:11Z</time>
      </trkpt>
      <trkpt lat="46.99361" lon="-0.97752">
        <ele>61.4</ele>
        <time>2025-08-25T10:23:12Z</time>
      </trkpt>
      <trkpt lat="46.99361" lon="-0.97752">
        <ele>61.4</ele>
        <time>2025-08-25T10:23:13Z</time>
      </trkpt>
      <trkpt lat="46.99362" lon="-0.97751">
        <ele>61.4</ele>
        <time>2025-08-25T10:23:14Z</time>
      </trkpt>
      <trkpt lat="46.99362" lon="-0.97751">
        <ele>61.4</ele>
        <time>2025-08-25T10:23:15Z</time>
      </trkpt>
      <trkpt lat="46.99362" lon="-0.97751">
        <ele>61.4</ele>
        <time>2025-08-25T10:23:16Z</time>
      </trkpt>
      <trkpt lat="46.99362" lon="-0.97751">
        <ele>61.4</ele>
        <time>2025-08-25T10:23:17Z</time>
      </trkpt>
      <trkpt lat="46.99363" lon="-0.9775">
        <ele>61.4</ele>
        <time>2025-08-25T10:23:18Z</time>
      </trkpt>
      <trkpt lat="46.99363" lon="-0.9775">
        <ele>61.4</ele>
        <time>2025-08-25T10:23:19Z</time>
      </trkpt>
      <trkpt lat="46.99363" lon="-0.9775">
        <ele>61.4</ele>
        <time>2025-08-25T10:23:20Z</time>
      </trkpt>
      <trkpt lat="46.99363" lon="-0.9775">
        <ele>61.4</ele>
        <time>2025-08-25T10:23:21Z</time>
      </trkpt>
      <trkpt lat="46.99363" lon="-0.9775">
        <ele>61.4</ele>
        <time>2025-08-25T10:23:22Z</time>
      </trkpt>
      <trkpt lat="46.99363" lon="-0.97751">
        <ele>61.4</ele>
        <time>2025-08-25T10:23:23Z</time>
      </trkpt>
      <trkpt lat="46.99363" lon="-0.97751">
        <ele>61.4</ele>
        <time>2025-08-25T10:23:24Z</time>
      </trkpt>
      <trkpt lat="46.99363" lon="-0.97751">
        <ele>61.4</ele>
        <time>2025-08-25T10:23:25Z</time>
      </trkpt>
      <trkpt lat="46.99363" lon="-0.97752">
        <ele>61.5</ele>
        <time>2025-08-25T10:23:26Z</time>
      </trkpt>
      <trkpt lat="46.99364" lon="-0.97754">
        <ele>61.5</ele>
        <time>2025-08-25T10:23:27Z</time>
      </trkpt>
      <trkpt lat="46.99364" lon="-0.97756">
        <ele>61.5</ele>
        <time>2025-08-25T10:23:28Z</time>
      </trkpt>
      <trkpt lat="46.99365" lon="-0.97758">
        <ele>61.5</ele>
        <time>2025-08-25T10:23:29Z</time>
      </trkpt>
      <trkpt lat="46.99364" lon="-0.97759">
        <ele>61.5</ele>
        <time>2025-08-25T10:23:30Z</time>
      </trkpt>
      <trkpt lat="46.99364" lon="-0.9776">
        <ele>61.6</ele>
        <time>2025-08-25T10:23:31Z</time>
      </trkpt>
      <trkpt lat="46.99364" lon="-0.97762">
        <ele>61.6</ele>
        <time>2025-08-25T10:23:32Z</time>
      </trkpt>
      <trkpt lat="46.99364" lon="-0.97763">
        <ele>61.6</ele>
        <time>2025-08-25T10:23:33Z</time>
      </trkpt>
      <trkpt lat="46.99363" lon="-0.97765">
        <ele>61.6</ele>
        <time>2025-08-25T10:23:34Z</time>
      </trkpt>
      <trkpt lat="46.99363" lon="-0.97767">
        <ele>61.6</ele>
        <time>2025-08-25T10:23:35Z</time>
      </trkpt>
      <trkpt lat="46.99362" lon="-0.9777">
        <ele>61.7</ele>
        <time>2025-08-25T10:23:36Z</time>
      </trkpt>
      <trkpt lat="46.99362" lon="-0.97771">
        <ele>61.7</ele>
        <time>2025-08-25T10:23:37Z</time>
      </trkpt>
      <trkpt lat="46.99362" lon="-0.97773">
        <ele>61.7</ele>
        <time>2025-08-25T10:23:38Z</time>
      </trkpt>
      <trkpt lat="46.99363" lon="-0.97775">
        <ele>61.7</ele>
        <time>2025-08-25T10:23:39Z</time>
      </trkpt>
      <trkpt lat="46.99363" lon="-0.97777">
        <ele>61.7</ele>
        <time>2025-08-25T10:23:40Z</time>
      </trkpt>
      <trkpt lat="46.99365" lon="-0.9778">
        <ele>61.7</ele>
        <time>2025-08-25T10:23:41Z</time>
      </trkpt>
      <trkpt lat="46.99366" lon="-0.97782">
        <ele>61.7</ele>
        <time>2025-08-25T10:23:42Z</time>
      </trkpt>
      <trkpt lat="46.99368" lon="-0.97786">
        <ele>61.7</ele>
        <time>2025-08-25T10:23:43Z</time>
      </trkpt>
      <trkpt lat="46.99369" lon="-0.97787">
        <ele>61.7</ele>
        <time>2025-08-25T10:23:44Z</time>
      </trkpt>
      <trkpt lat="46.9937" lon="-0.97789">
        <ele>61.7</ele>
        <time>2025-08-25T10:23:45Z</time>
      </trkpt>
      <trkpt lat="46.99371" lon="-0.9779">
        <ele>61.8</ele>
        <time>2025-08-25T10:23:46Z</time>
      </trkpt>
      <trkpt lat="46.99373" lon="-0.97792">
        <ele>61.8</ele>
        <time>2025-08-25T10:23:47Z</time>
      </trkpt>
      <trkpt lat="46.99374" lon="-0.97794">
        <ele>61.8</ele>
        <time>2025-08-25T10:23:48Z</time>
      </trkpt>
      <trkpt lat="46.99377" lon="-0.97796">
        <ele>61.8</ele>
        <time>2025-08-25T10:23:49Z</time>
      </trkpt>
      <trkpt lat="46.99377" lon="-0.97797">
        <ele>61.8</ele>
        <time>2025-08-25T10:23:50Z</time>
      </trkpt>
      <trkpt lat="46.9938" lon="-0.978">
        <ele>61.8</ele>
        <time>2025-08-25T10:23:51Z</time>
      </trkpt>
      <trkpt lat="46.99381" lon="-0.97801">
        <ele>61.8</ele>
        <time>2025-08-25T10:23:52Z</time>
      </trkpt>
      <trkpt lat="46.99383" lon="-0.97804">
        <ele>61.9</ele>
        <time>2025-08-25T10:23:53Z</time>
      </trkpt>
      <trkpt lat="46.99384" lon="-0.97805">
        <ele>61.9</ele>
        <time>2025-08-25T10:23:54Z</time>
      </trkpt>
      <trkpt lat="46.99386" lon="-0.97806">
        <ele>61.9</ele>
        <time>2025-08-25T10:23:55Z</time>
      </trkpt>
      <trkpt lat="46.99387" lon="-0.97807">
        <ele>61.9</ele>
        <time>2025-08-25T10:23:56Z</time>
      </trkpt>
      <trkpt lat="46.99389" lon="-0.97808">
        <ele>61.9</ele>
        <time>2025-08-25T10:23:57Z</time>
      </trkpt>
      <trkpt lat="46.9939" lon="-0.97808">
        <ele>61.9</ele>
        <time>2025-08-25T10:23:58Z</time>
      </trkpt>
      <trkpt lat="46.9939" lon="-0.97808">
        <ele>61.9</ele>
        <time>2025-08-25T10:23:59Z</time>
      </trkpt>
      <trkpt lat="46.99392" lon="-0.97809">
        <ele>61.9</ele>
        <time>2025-08-25T10:24:00Z</time>
      </trkpt>
      <trkpt lat="46.99393" lon="-0.97809">
        <ele>61.9</ele>
        <time>2025-08-25T10:24:01Z</time>
      </trkpt>
      <trkpt lat="46.99394" lon="-0.9781">
        <ele>61.9</ele>
        <time>2025-08-25T10:24:02Z</time>
      </trkpt>
      <trkpt lat="46.99396" lon="-0.97811">
        <ele>61.9</ele>
        <time>2025-08-25T10:24:03Z</time>
      </trkpt>
      <trkpt lat="46.99398" lon="-0.97812">
        <ele>61.9</ele>
        <time>2025-08-25T10:24:04Z</time>
      </trkpt>
      <trkpt lat="46.99399" lon="-0.97813">
        <ele>61.9</ele>
        <time>2025-08-25T10:24:05Z</time>
      </trkpt>
      <trkpt lat="46.99402" lon="-0.97815">
        <ele>61.9</ele>
        <time>2025-08-25T10:24:06Z</time>
      </trkpt>
      <trkpt lat="46.99403" lon="-0.97815">
        <ele>61.9</ele>
        <time>2025-08-25T10:24:07Z</time>
      </trkpt>
      <trkpt lat="46.99406" lon="-0.97818">
        <ele>61.8</ele>
        <time>2025-08-25T10:24:08Z</time>
      </trkpt>
      <trkpt lat="46.99407" lon="-0.97819">
        <ele>61.8</ele>
        <time>2025-08-25T10:24:09Z</time>
      </trkpt>
      <trkpt lat="46.9941" lon="-0.97821">
        <ele>61.8</ele>
        <time>2025-08-25T10:24:10Z</time>
      </trkpt>
      <trkpt lat="46.9941" lon="-0.97822">
        <ele>61.8</ele>
        <time>2025-08-25T10:24:11Z</time>
      </trkpt>
      <trkpt lat="46.99413" lon="-0.97824">
        <ele>61.8</ele>
        <time>2025-08-25T10:24:12Z</time>
      </trkpt>
      <trkpt lat="46.99414" lon="-0.97824">
        <ele>61.8</ele>
        <time>2025-08-25T10:24:13Z</time>
      </trkpt>
      <trkpt lat="46.99416" lon="-0.97826">
        <ele>61.7</ele>
        <time>2025-08-25T10:24:14Z</time>
      </trkpt>
      <trkpt lat="46.99417" lon="-0.97827">
        <ele>61.7</ele>
        <time>2025-08-25T10:24:15Z</time>
      </trkpt>
      <trkpt lat="46.99419" lon="-0.97828">
        <ele>61.7</ele>
        <time>2025-08-25T10:24:16Z</time>
      </trkpt>
      <trkpt lat="46.9942" lon="-0.97829">
        <ele>61.7</ele>
        <time>2025-08-25T10:24:17Z</time>
      </trkpt>
      <trkpt lat="46.99422" lon="-0.9783">
        <ele>61.7</ele>
        <time>2025-08-25T10:24:18Z</time>
      </trkpt>
      <trkpt lat="46.99423" lon="-0.97831">
        <ele>61.7</ele>
        <time>2025-08-25T10:24:19Z</time>
      </trkpt>
      <trkpt lat="46.99424" lon="-0.97833">
        <ele>61.7</ele>
        <time>2025-08-25T10:24:20Z</time>
      </trkpt>
      <trkpt lat="46.99425" lon="-0.97834">
        <ele>61.6</ele>
        <time>2025-08-25T10:24:21Z</time>
      </trkpt>
      <trkpt lat="46.99426" lon="-0.97835">
        <ele>61.6</ele>
        <time>2025-08-25T10:24:22Z</time>
      </trkpt>
      <trkpt lat="46.99427" lon="-0.97837">
        <ele>61.6</ele>
        <time>2025-08-25T10:24:23Z</time>
      </trkpt>
      <trkpt lat="46.99428" lon="-0.97837">
        <ele>61.6</ele>
        <time>2025-08-25T10:24:24Z</time>
      </trkpt>
      <trkpt lat="46.99429" lon="-0.97838">
        <ele>61.6</ele>
        <time>2025-08-25T10:24:25Z</time>
      </trkpt>
      <trkpt lat="46.99429" lon="-0.97839">
        <ele>61.6</ele>
        <time>2025-08-25T10:24:26Z</time>
      </trkpt>
      <trkpt lat="46.9943" lon="-0.9784">
        <ele>61.6</ele>
        <time>2025-08-25T10:24:27Z</time>
      </trkpt>
      <trkpt lat="46.99431" lon="-0.97841">
        <ele>61.6</ele>
        <time>2025-08-25T10:24:28Z</time>
      </trkpt>
      <trkpt lat="46.99432" lon="-0.97842">
        <ele>61.6</ele>
        <time>2025-08-25T10:24:29Z</time>
      </trkpt>
      <trkpt lat="46.99433" lon="-0.97843">
        <ele>61.6</ele>
        <time>2025-08-25T10:24:30Z</time>
      </trkpt>
      <trkpt lat="46.99434" lon="-0.97844">
        <ele>61.6</ele>
        <time>2025-08-25T10:24:31Z</time>
      </trkpt>
      <trkpt lat="46.99435" lon="-0.97845">
        <ele>61.6</ele>
        <time>2025-08-25T10:24:32Z</time>
      </trkpt>
      <trkpt lat="46.99436" lon="-0.97846">
        <ele>61.6</ele>
        <time>2025-08-25T10:24:33Z</time>
      </trkpt>
      <trkpt lat="46.99437" lon="-0.97847">
        <ele>61.6</ele>
        <time>2025-08-25T10:24:34Z</time>
      </trkpt>
      <trkpt lat="46.99438" lon="-0.97848">
        <ele>61.6</ele>
        <time>2025-08-25T10:24:35Z</time>
      </trkpt>
      <trkpt lat="46.99439" lon="-0.97849">
        <ele>61.6</ele>
        <time>2025-08-25T10:24:36Z</time>
      </trkpt>
      <trkpt lat="46.9944" lon="-0.97849">
        <ele>61.6</ele>
        <time>2025-08-25T10:24:37Z</time>
      </trkpt>
      <trkpt lat="46.99441" lon="-0.9785">
        <ele>61.6</ele>
        <time>2025-08-25T10:24:38Z</time>
      </trkpt>
      <trkpt lat="46.99442" lon="-0.9785">
        <ele>61.6</ele>
        <time>2025-08-25T10:24:39Z</time>
      </trkpt>
      <trkpt lat="46.99445" lon="-0.9785">
        <ele>61.6</ele>
        <time>2025-08-25T10:24:40Z</time>
      </trkpt>
      <trkpt lat="46.99446" lon="-0.9785">
        <ele>61.6</ele>
        <time>2025-08-25T10:24:41Z</time>
      </trkpt>
      <trkpt lat="46.99448" lon="-0.9785">
        <ele>61.6</ele>
        <time>2025-08-25T10:24:42Z</time>
      </trkpt>
      <trkpt lat="46.99449" lon="-0.9785">
        <ele>61.6</ele>
        <time>2025-08-25T10:24:43Z</time>
      </trkpt>
      <trkpt lat="46.9945" lon="-0.9785">
        <ele>61.6</ele>
        <time>2025-08-25T10:24:44Z</time>
      </trkpt>
      <trkpt lat="46.99452" lon="-0.97851">
        <ele>61.6</ele>
        <time>2025-08-25T10:24:45Z</time>
      </trkpt>
      <trkpt lat="46.99453" lon="-0.97852">
        <ele>61.6</ele>
        <time>2025-08-25T10:24:46Z</time>
      </trkpt>
      <trkpt lat="46.99454" lon="-0.97852">
        <ele>61.7</ele>
        <time>2025-08-25T10:24:47Z</time>
      </trkpt>
      <trkpt lat="46.99454" lon="-0.97853">
        <ele>61.7</ele>
        <time>2025-08-25T10:24:48Z</time>
      </trkpt>
      <trkpt lat="46.99455" lon="-0.97854">
        <ele>61.7</ele>
        <time>2025-08-25T10:24:49Z</time>
      </trkpt>
      <trkpt lat="46.99455" lon="-0.97855">
        <ele>61.7</ele>
        <time>2025-08-25T10:24:50Z</time>
      </trkpt>
      <trkpt lat="46.99455" lon="-0.97855">
        <ele>61.7</ele>
        <time>2025-08-25T10:24:51Z</time>
      </trkpt>
      <trkpt lat="46.99455" lon="-0.97855">
        <ele>61.7</ele>
        <time>2025-08-25T10:24:52Z</time>
      </trkpt>
      <trkpt lat="46.99455" lon="-0.97855">
        <ele>61.7</ele>
        <time>2025-08-25T10:24:53Z</time>
      </trkpt>
      <trkpt lat="46.99456" lon="-0.97856">
        <ele>61.7</ele>
        <time>2025-08-25T10:24:54Z</time>
      </trkpt>
      <trkpt lat="46.99456" lon="-0.97856">
        <ele>61.7</ele>
        <time>2025-08-25T10:24:55Z</time>
      </trkpt>
      <trkpt lat="46.99456" lon="-0.97855">
        <ele>61.7</ele>
        <time>2025-08-25T10:24:56Z</time>
      </trkpt>
      <trkpt lat="46.99456" lon="-0.97855">
        <ele>61.7</ele>
        <time>2025-08-25T10:24:57Z</time>
      </trkpt>
      <trkpt lat="46.99456" lon="-0.97854">
        <ele>61.7</ele>
        <time>2025-08-25T10:24:58Z</time>
      </trkpt>
      <trkpt lat="46.99456" lon="-0.97854">
        <ele>61.7</ele>
        <time>2025-08-25T10:24:59Z</time>
      </trkpt>
      <trkpt lat="46.99456" lon="-0.97854">
        <ele>61.8</ele>
        <time>2025-08-25T10:25:00Z</time>
      </trkpt>
      <trkpt lat="46.99456" lon="-0.97855">
        <ele>61.8</ele>
        <time>2025-08-25T10:25:01Z</time>
      </trkpt>
      <trkpt lat="46.99456" lon="-0.97855">
        <ele>61.8</ele>
        <time>2025-08-25T10:25:02Z</time>
      </trkpt>
      <trkpt lat="46.99456" lon="-0.97855">
        <ele>61.8</ele>
        <time>2025-08-25T10:25:03Z</time>
      </trkpt>
      <trkpt lat="46.99455" lon="-0.97855">
        <ele>61.8</ele>
        <time>2025-08-25T10:25:04Z</time>
      </trkpt>
      <trkpt lat="46.99455" lon="-0.97856">
        <ele>61.8</ele>
        <time>2025-08-25T10:25:05Z</time>
      </trkpt>
      <trkpt lat="46.99455" lon="-0.97857">
        <ele>61.8</ele>
        <time>2025-08-25T10:25:06Z</time>
      </trkpt>
      <trkpt lat="46.99455" lon="-0.97857">
        <ele>61.8</ele>
        <time>2025-08-25T10:25:07Z</time>
      </trkpt>
      <trkpt lat="46.99456" lon="-0.97858">
        <ele>61.8</ele>
        <time>2025-08-25T10:25:08Z</time>
      </trkpt>
      <trkpt lat="46.99456" lon="-0.97858">
        <ele>61.8</ele>
        <time>2025-08-25T10:25:09Z</time>
      </trkpt>
      <trkpt lat="46.99456" lon="-0.97859">
        <ele>61.8</ele>
        <time>2025-08-25T10:25:10Z</time>
      </trkpt>
      <trkpt lat="46.99457" lon="-0.9786">
        <ele>61.8</ele>
        <time>2025-08-25T10:25:11Z</time>
      </trkpt>
      <trkpt lat="46.99458" lon="-0.97862">
        <ele>61.9</ele>
        <time>2025-08-25T10:25:12Z</time>
      </trkpt>
      <trkpt lat="46.99458" lon="-0.97863">
        <ele>61.9</ele>
        <time>2025-08-25T10:25:13Z</time>
      </trkpt>
      <trkpt lat="46.99459" lon="-0.97864">
        <ele>62</ele>
        <time>2025-08-25T10:25:14Z</time>
      </trkpt>
      <trkpt lat="46.9946" lon="-0.97866">
        <ele>62.1</ele>
        <time>2025-08-25T10:25:15Z</time>
      </trkpt>
      <trkpt lat="46.99461" lon="-0.97868">
        <ele>62.2</ele>
        <time>2025-08-25T10:25:16Z</time>
      </trkpt>
      <trkpt lat="46.99462" lon="-0.97871">
        <ele>62.3</ele>
        <time>2025-08-25T10:25:17Z</time>
      </trkpt>
      <trkpt lat="46.99465" lon="-0.97875">
        <ele>62.5</ele>
        <time>2025-08-25T10:25:19Z</time>
      </trkpt>
      <trkpt lat="46.99467" lon="-0.97877">
        <ele>62.6</ele>
        <time>2025-08-25T10:25:20Z</time>
      </trkpt>
      <trkpt lat="46.99468" lon="-0.9788">
        <ele>62.7</ele>
        <time>2025-08-25T10:25:21Z</time>
      </trkpt>
      <trkpt lat="46.99469" lon="-0.97881">
        <ele>62.8</ele>
        <time>2025-08-25T10:25:22Z</time>
      </trkpt>
      <trkpt lat="46.9947" lon="-0.97884">
        <ele>62.8</ele>
        <time>2025-08-25T10:25:23Z</time>
      </trkpt>
      <trkpt lat="46.99471" lon="-0.97885">
        <ele>62.8</ele>
        <time>2025-08-25T10:25:24Z</time>
      </trkpt>
      <trkpt lat="46.99471" lon="-0.97886">
        <ele>62.8</ele>
        <time>2025-08-25T10:25:25Z</time>
      </trkpt>
      <trkpt lat="46.99472" lon="-0.97887">
        <ele>62.8</ele>
        <time>2025-08-25T10:25:26Z</time>
      </trkpt>
      <trkpt lat="46.99473" lon="-0.97889">
        <ele>62.8</ele>
        <time>2025-08-25T10:25:27Z</time>
      </trkpt>
      <trkpt lat="46.99473" lon="-0.9789">
        <ele>62.9</ele>
        <time>2025-08-25T10:25:28Z</time>
      </trkpt>
      <trkpt lat="46.99474" lon="-0.97891">
        <ele>62.9</ele>
        <time>2025-08-25T10:25:29Z</time>
      </trkpt>
      <trkpt lat="46.99474" lon="-0.97891">
        <ele>62.9</ele>
        <time>2025-08-25T10:25:30Z</time>
      </trkpt>
      <trkpt lat="46.99474" lon="-0.9789">
        <ele>62.9</ele>
        <time>2025-08-25T10:25:31Z</time>
      </trkpt>
      <trkpt lat="46.99474" lon="-0.9789">
        <ele>62.9</ele>
        <time>2025-08-25T10:25:32Z</time>
      </trkpt>
      <trkpt lat="46.99474" lon="-0.9789">
        <ele>62.9</ele>
        <time>2025-08-25T10:25:33Z</time>
      </trkpt>
      <trkpt lat="46.99474" lon="-0.97889">
        <ele>62.9</ele>
        <time>2025-08-25T10:25:34Z</time>
      </trkpt>
      <trkpt lat="46.99474" lon="-0.97889">
        <ele>62.9</ele>
        <time>2025-08-25T10:25:35Z</time>
      </trkpt>
      <trkpt lat="46.99474" lon="-0.97889">
        <ele>62.9</ele>
        <time>2025-08-25T10:25:36Z</time>
      </trkpt>
      <trkpt lat="46.99475" lon="-0.9789">
        <ele>62.9</ele>
        <time>2025-08-25T10:25:37Z</time>
      </trkpt>
      <trkpt lat="46.99475" lon="-0.9789">
        <ele>62.9</ele>
        <time>2025-08-25T10:25:38Z</time>
      </trkpt>
      <trkpt lat="46.99476" lon="-0.97891">
        <ele>62.9</ele>
        <time>2025-08-25T10:25:39Z</time>
      </trkpt>
      <trkpt lat="46.99477" lon="-0.97892">
        <ele>62.9</ele>
        <time>2025-08-25T10:25:40Z</time>
      </trkpt>
      <trkpt lat="46.99477" lon="-0.97893">
        <ele>62.9</ele>
        <time>2025-08-25T10:25:41Z</time>
      </trkpt>
      <trkpt lat="46.99478" lon="-0.97894">
        <ele>62.9</ele>
        <time>2025-08-25T10:25:42Z</time>
      </trkpt>
      <trkpt lat="46.99479" lon="-0.97896">
        <ele>62.9</ele>
        <time>2025-08-25T10:25:43Z</time>
      </trkpt>
      <trkpt lat="46.9948" lon="-0.97898">
        <ele>62.9</ele>
        <time>2025-08-25T10:25:44Z</time>
      </trkpt>
      <trkpt lat="46.99481" lon="-0.979">
        <ele>62.9</ele>
        <time>2025-08-25T10:25:45Z</time>
      </trkpt>
      <trkpt lat="46.99481" lon="-0.97901">
        <ele>62.9</ele>
        <time>2025-08-25T10:25:46Z</time>
      </trkpt>
      <trkpt lat="46.99483" lon="-0.97902">
        <ele>62.9</ele>
        <time>2025-08-25T10:25:47Z</time>
      </trkpt>
      <trkpt lat="46.99484" lon="-0.97904">
        <ele>62.9</ele>
        <time>2025-08-25T10:25:48Z</time>
      </trkpt>
      <trkpt lat="46.99484" lon="-0.97905">
        <ele>62.9</ele>
        <time>2025-08-25T10:25:49Z</time>
      </trkpt>
      <trkpt lat="46.99485" lon="-0.97907">
        <ele>62.9</ele>
        <time>2025-08-25T10:25:50Z</time>
      </trkpt>
      <trkpt lat="46.99486" lon="-0.97908">
        <ele>62.9</ele>
        <time>2025-08-25T10:25:51Z</time>
      </trkpt>
      <trkpt lat="46.99487" lon="-0.9791">
        <ele>62.9</ele>
        <time>2025-08-25T10:25:52Z</time>
      </trkpt>
      <trkpt lat="46.99488" lon="-0.97913">
        <ele>62.9</ele>
        <time>2025-08-25T10:25:53Z</time>
      </trkpt>
      <trkpt lat="46.99489" lon="-0.97914">
        <ele>62.9</ele>
        <time>2025-08-25T10:25:54Z</time>
      </trkpt>
      <trkpt lat="46.99489" lon="-0.97915">
        <ele>62.9</ele>
        <time>2025-08-25T10:25:55Z</time>
      </trkpt>
      <trkpt lat="46.9949" lon="-0.97916">
        <ele>62.9</ele>
        <time>2025-08-25T10:25:56Z</time>
      </trkpt>
      <trkpt lat="46.9949" lon="-0.97919">
        <ele>62.9</ele>
        <time>2025-08-25T10:25:57Z</time>
      </trkpt>
      <trkpt lat="46.99491" lon="-0.97921">
        <ele>63</ele>
        <time>2025-08-25T10:25:58Z</time>
      </trkpt>
      <trkpt lat="46.99492" lon="-0.97922">
        <ele>63</ele>
        <time>2025-08-25T10:25:59Z</time>
      </trkpt>
      <trkpt lat="46.99492" lon="-0.97923">
        <ele>63</ele>
        <time>2025-08-25T10:26:00Z</time>
      </trkpt>
      <trkpt lat="46.99493" lon="-0.97925">
        <ele>63</ele>
        <time>2025-08-25T10:26:01Z</time>
      </trkpt>
      <trkpt lat="46.99493" lon="-0.97927">
        <ele>63</ele>
        <time>2025-08-25T10:26:02Z</time>
      </trkpt>
      <trkpt lat="46.99494" lon="-0.97928">
        <ele>63</ele>
        <time>2025-08-25T10:26:03Z</time>
      </trkpt>
      <trkpt lat="46.99494" lon="-0.97929">
        <ele>63</ele>
        <time>2025-08-25T10:26:04Z</time>
      </trkpt>
      <trkpt lat="46.99495" lon="-0.97931">
        <ele>63</ele>
        <time>2025-08-25T10:26:05Z</time>
      </trkpt>
      <trkpt lat="46.99495" lon="-0.97932">
        <ele>63</ele>
        <time>2025-08-25T10:26:06Z</time>
      </trkpt>
      <trkpt lat="46.99496" lon="-0.97933">
        <ele>63</ele>
        <time>2025-08-25T10:26:07Z</time>
      </trkpt>
      <trkpt lat="46.99496" lon="-0.97934">
        <ele>63</ele>
        <time>2025-08-25T10:26:08Z</time>
      </trkpt>
      <trkpt lat="46.99497" lon="-0.97935">
        <ele>63</ele>
        <time>2025-08-25T10:26:09Z</time>
      </trkpt>
      <trkpt lat="46.99498" lon="-0.97937">
        <ele>63</ele>
        <time>2025-08-25T10:26:10Z</time>
      </trkpt>
      <trkpt lat="46.99498" lon="-0.97938">
        <ele>63</ele>
        <time>2025-08-25T10:26:11Z</time>
      </trkpt>
      <trkpt lat="46.99499" lon="-0.97939">
        <ele>63.1</ele>
        <time>2025-08-25T10:26:12Z</time>
      </trkpt>
      <trkpt lat="46.99501" lon="-0.97941">
        <ele>63.1</ele>
        <time>2025-08-25T10:26:13Z</time>
      </trkpt>
      <trkpt lat="46.99501" lon="-0.97942">
        <ele>63.1</ele>
        <time>2025-08-25T10:26:14Z</time>
      </trkpt>
      <trkpt lat="46.99502" lon="-0.97943">
        <ele>63.1</ele>
        <time>2025-08-25T10:26:15Z</time>
      </trkpt>
      <trkpt lat="46.99504" lon="-0.97944">
        <ele>63.1</ele>
        <time>2025-08-25T10:26:16Z</time>
      </trkpt>
      <trkpt lat="46.99505" lon="-0.97944">
        <ele>63.1</ele>
        <time>2025-08-25T10:26:17Z</time>
      </trkpt>
      <trkpt lat="46.99505" lon="-0.97945">
        <ele>63</ele>
        <time>2025-08-25T10:26:18Z</time>
      </trkpt>
      <trkpt lat="46.99507" lon="-0.97946">
        <ele>63</ele>
        <time>2025-08-25T10:26:19Z</time>
      </trkpt>
      <trkpt lat="46.99508" lon="-0.97947">
        <ele>63</ele>
        <time>2025-08-25T10:26:20Z</time>
      </trkpt>
      <trkpt lat="46.99509" lon="-0.97947">
        <ele>63</ele>
        <time>2025-08-25T10:26:21Z</time>
      </trkpt>
      <trkpt lat="46.9951" lon="-0.97948">
        <ele>63</ele>
        <time>2025-08-25T10:26:22Z</time>
      </trkpt>
      <trkpt lat="46.99511" lon="-0.97949">
        <ele>63</ele>
        <time>2025-08-25T10:26:23Z</time>
      </trkpt>
      <trkpt lat="46.99513" lon="-0.97951">
        <ele>63</ele>
        <time>2025-08-25T10:26:24Z</time>
      </trkpt>
      <trkpt lat="46.99514" lon="-0.97952">
        <ele>63</ele>
        <time>2025-08-25T10:26:25Z</time>
      </trkpt>
      <trkpt lat="46.99515" lon="-0.97953">
        <ele>63</ele>
        <time>2025-08-25T10:26:26Z</time>
      </trkpt>
      <trkpt lat="46.99517" lon="-0.97955">
        <ele>63</ele>
        <time>2025-08-25T10:26:27Z</time>
      </trkpt>
      <trkpt lat="46.99518" lon="-0.97956">
        <ele>63</ele>
        <time>2025-08-25T10:26:28Z</time>
      </trkpt>
      <trkpt lat="46.99519" lon="-0.97957">
        <ele>63</ele>
        <time>2025-08-25T10:26:29Z</time>
      </trkpt>
      <trkpt lat="46.9952" lon="-0.97958">
        <ele>63</ele>
        <time>2025-08-25T10:26:30Z</time>
      </trkpt>
      <trkpt lat="46.99521" lon="-0.97959">
        <ele>63</ele>
        <time>2025-08-25T10:26:31Z</time>
      </trkpt>
      <trkpt lat="46.99522" lon="-0.9796">
        <ele>63</ele>
        <time>2025-08-25T10:26:32Z</time>
      </trkpt>
      <trkpt lat="46.99523" lon="-0.97961">
        <ele>63</ele>
        <time>2025-08-25T10:26:33Z</time>
      </trkpt>
      <trkpt lat="46.99524" lon="-0.97963">
        <ele>63</ele>
        <time>2025-08-25T10:26:34Z</time>
      </trkpt>
      <trkpt lat="46.99525" lon="-0.97964">
        <ele>63</ele>
        <time>2025-08-25T10:26:35Z</time>
      </trkpt>
      <trkpt lat="46.99525" lon="-0.97965">
        <ele>63</ele>
        <time>2025-08-25T10:26:36Z</time>
      </trkpt>
      <trkpt lat="46.99526" lon="-0.97967">
        <ele>63</ele>
        <time>2025-08-25T10:26:37Z</time>
      </trkpt>
      <trkpt lat="46.99527" lon="-0.97968">
        <ele>62.9</ele>
        <time>2025-08-25T10:26:38Z</time>
      </trkpt>
      <trkpt lat="46.99527" lon="-0.97969">
        <ele>62.9</ele>
        <time>2025-08-25T10:26:39Z</time>
      </trkpt>
      <trkpt lat="46.99528" lon="-0.9797">
        <ele>62.9</ele>
        <time>2025-08-25T10:26:40Z</time>
      </trkpt>
      <trkpt lat="46.99529" lon="-0.97971">
        <ele>62.9</ele>
        <time>2025-08-25T10:26:41Z</time>
      </trkpt>
      <trkpt lat="46.9953" lon="-0.97973">
        <ele>62.9</ele>
        <time>2025-08-25T10:26:42Z</time>
      </trkpt>
      <trkpt lat="46.99531" lon="-0.97974">
        <ele>62.9</ele>
        <time>2025-08-25T10:26:43Z</time>
      </trkpt>
      <trkpt lat="46.99532" lon="-0.97975">
        <ele>62.9</ele>
        <time>2025-08-25T10:26:44Z</time>
      </trkpt>
      <trkpt lat="46.99533" lon="-0.97976">
        <ele>62.9</ele>
        <time>2025-08-25T10:26:45Z</time>
      </trkpt>
      <trkpt lat="46.99534" lon="-0.97978">
        <ele>62.9</ele>
        <time>2025-08-25T10:26:46Z</time>
      </trkpt>
      <trkpt lat="46.99535" lon="-0.97979">
        <ele>62.9</ele>
        <time>2025-08-25T10:26:47Z</time>
      </trkpt>
      <trkpt lat="46.99536" lon="-0.9798">
        <ele>62.9</ele>
        <time>2025-08-25T10:26:48Z</time>
      </trkpt>
      <trkpt lat="46.99537" lon="-0.97982">
        <ele>62.9</ele>
        <time>2025-08-25T10:26:49Z</time>
      </trkpt>
      <trkpt lat="46.99538" lon="-0.97983">
        <ele>62.9</ele>
        <time>2025-08-25T10:26:50Z</time>
      </trkpt>
      <trkpt lat="46.99538" lon="-0.97984">
        <ele>62.9</ele>
        <time>2025-08-25T10:26:51Z</time>
      </trkpt>
      <trkpt lat="46.9954" lon="-0.97987">
        <ele>62.9</ele>
        <time>2025-08-25T10:26:52Z</time>
      </trkpt>
      <trkpt lat="46.9954" lon="-0.97988">
        <ele>62.9</ele>
        <time>2025-08-25T10:26:53Z</time>
      </trkpt>
      <trkpt lat="46.99541" lon="-0.97989">
        <ele>62.9</ele>
        <time>2025-08-25T10:26:54Z</time>
      </trkpt>
      <trkpt lat="46.99541" lon="-0.9799">
        <ele>62.8</ele>
        <time>2025-08-25T10:26:55Z</time>
      </trkpt>
      <trkpt lat="46.99542" lon="-0.97992">
        <ele>62.8</ele>
        <time>2025-08-25T10:26:56Z</time>
      </trkpt>
      <trkpt lat="46.99543" lon="-0.97994">
        <ele>62.8</ele>
        <time>2025-08-25T10:26:57Z</time>
      </trkpt>
      <trkpt lat="46.99544" lon="-0.97996">
        <ele>62.8</ele>
        <time>2025-08-25T10:26:58Z</time>
      </trkpt>
      <trkpt lat="46.99545" lon="-0.97997">
        <ele>62.8</ele>
        <time>2025-08-25T10:26:59Z</time>
      </trkpt>
      <trkpt lat="46.99546" lon="-0.97999">
        <ele>62.8</ele>
        <time>2025-08-25T10:27:00Z</time>
      </trkpt>
      <trkpt lat="46.99547" lon="-0.98">
        <ele>62.8</ele>
        <time>2025-08-25T10:27:01Z</time>
      </trkpt>
      <trkpt lat="46.99548" lon="-0.98002">
        <ele>62.8</ele>
        <time>2025-08-25T10:27:02Z</time>
      </trkpt>
      <trkpt lat="46.99549" lon="-0.98003">
        <ele>62.8</ele>
        <time>2025-08-25T10:27:03Z</time>
      </trkpt>
      <trkpt lat="46.99549" lon="-0.98004">
        <ele>62.8</ele>
        <time>2025-08-25T10:27:04Z</time>
      </trkpt>
      <trkpt lat="46.9955" lon="-0.98006">
        <ele>62.8</ele>
        <time>2025-08-25T10:27:05Z</time>
      </trkpt>
      <trkpt lat="46.99551" lon="-0.98007">
        <ele>62.8</ele>
        <time>2025-08-25T10:27:06Z</time>
      </trkpt>
      <trkpt lat="46.99553" lon="-0.98008">
        <ele>62.8</ele>
        <time>2025-08-25T10:27:07Z</time>
      </trkpt>
      <trkpt lat="46.99553" lon="-0.98009">
        <ele>62.8</ele>
        <time>2025-08-25T10:27:08Z</time>
      </trkpt>
      <trkpt lat="46.99554" lon="-0.98009">
        <ele>62.8</ele>
        <time>2025-08-25T10:27:09Z</time>
      </trkpt>
      <trkpt lat="46.99555" lon="-0.9801">
        <ele>62.8</ele>
        <time>2025-08-25T10:27:10Z</time>
      </trkpt>
      <trkpt lat="46.99555" lon="-0.98011">
        <ele>62.8</ele>
        <time>2025-08-25T10:27:11Z</time>
      </trkpt>
      <trkpt lat="46.99557" lon="-0.98013">
        <ele>62.8</ele>
        <time>2025-08-25T10:27:12Z</time>
      </trkpt>
      <trkpt lat="46.99557" lon="-0.98014">
        <ele>62.8</ele>
        <time>2025-08-25T10:27:13Z</time>
      </trkpt>
      <trkpt lat="46.99558" lon="-0.98015">
        <ele>62.8</ele>
        <time>2025-08-25T10:27:14Z</time>
      </trkpt>
      <trkpt lat="46.99559" lon="-0.98018">
        <ele>62.9</ele>
        <time>2025-08-25T10:27:15Z</time>
      </trkpt>
      <trkpt lat="46.9956" lon="-0.98019">
        <ele>62.9</ele>
        <time>2025-08-25T10:27:16Z</time>
      </trkpt>
      <trkpt lat="46.9956" lon="-0.9802">
        <ele>62.9</ele>
        <time>2025-08-25T10:27:17Z</time>
      </trkpt>
      <trkpt lat="46.99561" lon="-0.98021">
        <ele>62.9</ele>
        <time>2025-08-25T10:27:18Z</time>
      </trkpt>
      <trkpt lat="46.99562" lon="-0.98023">
        <ele>63</ele>
        <time>2025-08-25T10:27:19Z</time>
      </trkpt>
      <trkpt lat="46.99562" lon="-0.98024">
        <ele>63</ele>
        <time>2025-08-25T10:27:20Z</time>
      </trkpt>
      <trkpt lat="46.99563" lon="-0.98025">
        <ele>63.1</ele>
        <time>2025-08-25T10:27:21Z</time>
      </trkpt>
      <trkpt lat="46.99564" lon="-0.98027">
        <ele>63.1</ele>
        <time>2025-08-25T10:27:22Z</time>
      </trkpt>
      <trkpt lat="46.99564" lon="-0.98028">
        <ele>63.2</ele>
        <time>2025-08-25T10:27:23Z</time>
      </trkpt>
      <trkpt lat="46.99564" lon="-0.9803">
        <ele>63.2</ele>
        <time>2025-08-25T10:27:24Z</time>
      </trkpt>
      <trkpt lat="46.99564" lon="-0.98031">
        <ele>63.3</ele>
        <time>2025-08-25T10:27:25Z</time>
      </trkpt>
      <trkpt lat="46.99563" lon="-0.98033">
        <ele>63.4</ele>
        <time>2025-08-25T10:27:26Z</time>
      </trkpt>
      <trkpt lat="46.99562" lon="-0.98034">
        <ele>63.5</ele>
        <time>2025-08-25T10:27:27Z</time>
      </trkpt>
      <trkpt lat="46.99562" lon="-0.98034">
        <ele>63.5</ele>
        <time>2025-08-25T10:27:28Z</time>
      </trkpt>
      <trkpt lat="46.99562" lon="-0.98035">
        <ele>63.6</ele>
        <time>2025-08-25T10:27:29Z</time>
      </trkpt>
      <trkpt lat="46.99561" lon="-0.98035">
        <ele>63.6</ele>
        <time>2025-08-25T10:27:30Z</time>
      </trkpt>
      <trkpt lat="46.99561" lon="-0.98036">
        <ele>63.7</ele>
        <time>2025-08-25T10:27:31Z</time>
      </trkpt>
      <trkpt lat="46.99561" lon="-0.98037">
        <ele>63.7</ele>
        <time>2025-08-25T10:27:32Z</time>
      </trkpt>
      <trkpt lat="46.99561" lon="-0.98037">
        <ele>63.7</ele>
        <time>2025-08-25T10:27:33Z</time>
      </trkpt>
      <trkpt lat="46.9956" lon="-0.98037">
        <ele>63.8</ele>
        <time>2025-08-25T10:27:34Z</time>
      </trkpt>
      <trkpt lat="46.9956" lon="-0.98038">
        <ele>63.8</ele>
        <time>2025-08-25T10:27:35Z</time>
      </trkpt>
      <trkpt lat="46.9956" lon="-0.98038">
        <ele>63.8</ele>
        <time>2025-08-25T10:27:36Z</time>
      </trkpt>
      <trkpt lat="46.99559" lon="-0.98038">
        <ele>63.9</ele>
        <time>2025-08-25T10:27:37Z</time>
      </trkpt>
      <trkpt lat="46.99559" lon="-0.98038">
        <ele>63.9</ele>
        <time>2025-08-25T10:27:38Z</time>
      </trkpt>
      <trkpt lat="46.99559" lon="-0.98038">
        <ele>63.9</ele>
        <time>2025-08-25T10:27:39Z</time>
      </trkpt>
      <trkpt lat="46.99558" lon="-0.98039">
        <ele>64</ele>
        <time>2025-08-25T10:27:40Z</time>
      </trkpt>
      <trkpt lat="46.99558" lon="-0.9804">
        <ele>64.1</ele>
        <time>2025-08-25T10:27:41Z</time>
      </trkpt>
      <trkpt lat="46.99556" lon="-0.98041">
        <ele>64.3</ele>
        <time>2025-08-25T10:27:42Z</time>
      </trkpt>
      <trkpt lat="46.99555" lon="-0.98042">
        <ele>64.4</ele>
        <time>2025-08-25T10:27:43Z</time>
      </trkpt>
      <trkpt lat="46.99554" lon="-0.98043">
        <ele>64.6</ele>
        <time>2025-08-25T10:27:44Z</time>
      </trkpt>
      <trkpt lat="46.99553" lon="-0.98043">
        <ele>64.7</ele>
        <time>2025-08-25T10:27:45Z</time>
      </trkpt>
      <trkpt lat="46.99552" lon="-0.98044">
        <ele>64.9</ele>
        <time>2025-08-25T10:27:46Z</time>
      </trkpt>
      <trkpt lat="46.9955" lon="-0.98044">
        <ele>65.1</ele>
        <time>2025-08-25T10:27:47Z</time>
      </trkpt>
      <trkpt lat="46.99549" lon="-0.98044">
        <ele>65.2</ele>
        <time>2025-08-25T10:27:48Z</time>
      </trkpt>
      <trkpt lat="46.99548" lon="-0.98045">
        <ele>65.3</ele>
        <time>2025-08-25T10:27:49Z</time>
      </trkpt>
      <trkpt lat="46.99547" lon="-0.98045">
        <ele>65.5</ele>
        <time>2025-08-25T10:27:50Z</time>
      </trkpt>
      <trkpt lat="46.99546" lon="-0.98045">
        <ele>65.6</ele>
        <time>2025-08-25T10:27:51Z</time>
      </trkpt>
      <trkpt lat="46.99545" lon="-0.98046">
        <ele>65.7</ele>
        <time>2025-08-25T10:27:52Z</time>
      </trkpt>
      <trkpt lat="46.99543" lon="-0.98047">
        <ele>66.1</ele>
        <time>2025-08-25T10:27:53Z</time>
      </trkpt>
      <trkpt lat="46.99543" lon="-0.98047">
        <ele>66.2</ele>
        <time>2025-08-25T10:27:54Z</time>
      </trkpt>
      <trkpt lat="46.99542" lon="-0.98048">
        <ele>66.3</ele>
        <time>2025-08-25T10:27:55Z</time>
      </trkpt>
      <trkpt lat="46.99541" lon="-0.98049">
        <ele>66.5</ele>
        <time>2025-08-25T10:27:56Z</time>
      </trkpt>
      <trkpt lat="46.99541" lon="-0.98051">
        <ele>66.7</ele>
        <time>2025-08-25T10:27:57Z</time>
      </trkpt>
      <trkpt lat="46.99541" lon="-0.98052">
        <ele>66.7</ele>
        <time>2025-08-25T10:27:58Z</time>
      </trkpt>
      <trkpt lat="46.99541" lon="-0.98053">
        <ele>66.8</ele>
        <time>2025-08-25T10:27:59Z</time>
      </trkpt>
      <trkpt lat="46.99541" lon="-0.98054">
        <ele>66.9</ele>
        <time>2025-08-25T10:28:00Z</time>
      </trkpt>
      <trkpt lat="46.99541" lon="-0.98055">
        <ele>67</ele>
        <time>2025-08-25T10:28:01Z</time>
      </trkpt>
      <trkpt lat="46.99541" lon="-0.98056">
        <ele>67.1</ele>
        <time>2025-08-25T10:28:02Z</time>
      </trkpt>
      <trkpt lat="46.99542" lon="-0.98056">
        <ele>67.1</ele>
        <time>2025-08-25T10:28:03Z</time>
      </trkpt>
      <trkpt lat="46.99542" lon="-0.98057">
        <ele>67</ele>
        <time>2025-08-25T10:28:04Z</time>
      </trkpt>
      <trkpt lat="46.99543" lon="-0.98058">
        <ele>67</ele>
        <time>2025-08-25T10:28:05Z</time>
      </trkpt>
      <trkpt lat="46.99544" lon="-0.98058">
        <ele>67</ele>
        <time>2025-08-25T10:28:06Z</time>
      </trkpt>
      <trkpt lat="46.99545" lon="-0.98059">
        <ele>66.9</ele>
        <time>2025-08-25T10:28:07Z</time>
      </trkpt>
      <trkpt lat="46.99546" lon="-0.9806">
        <ele>66.8</ele>
        <time>2025-08-25T10:28:08Z</time>
      </trkpt>
      <trkpt lat="46.99547" lon="-0.9806">
        <ele>66.8</ele>
        <time>2025-08-25T10:28:09Z</time>
      </trkpt>
      <trkpt lat="46.99548" lon="-0.98061">
        <ele>66.7</ele>
        <time>2025-08-25T10:28:10Z</time>
      </trkpt>
      <trkpt lat="46.99549" lon="-0.98062">
        <ele>66.6</ele>
        <time>2025-08-25T10:28:11Z</time>
      </trkpt>
      <trkpt lat="46.9955" lon="-0.98063">
        <ele>66.5</ele>
        <time>2025-08-25T10:28:12Z</time>
      </trkpt>
      <trkpt lat="46.99551" lon="-0.98064">
        <ele>66.4</ele>
        <time>2025-08-25T10:28:13Z</time>
      </trkpt>
      <trkpt lat="46.99552" lon="-0.98065">
        <ele>66.3</ele>
        <time>2025-08-25T10:28:14Z</time>
      </trkpt>
      <trkpt lat="46.99553" lon="-0.98066">
        <ele>66.3</ele>
        <time>2025-08-25T10:28:15Z</time>
      </trkpt>
      <trkpt lat="46.99555" lon="-0.98067">
        <ele>66.1</ele>
        <time>2025-08-25T10:28:16Z</time>
      </trkpt>
      <trkpt lat="46.99556" lon="-0.98067">
        <ele>66</ele>
        <time>2025-08-25T10:28:17Z</time>
      </trkpt>
      <trkpt lat="46.99556" lon="-0.98068">
        <ele>65.9</ele>
        <time>2025-08-25T10:28:18Z</time>
      </trkpt>
      <trkpt lat="46.99558" lon="-0.98069">
        <ele>65.8</ele>
        <time>2025-08-25T10:28:19Z</time>
      </trkpt>
      <trkpt lat="46.99559" lon="-0.98069">
        <ele>65.7</ele>
        <time>2025-08-25T10:28:20Z</time>
      </trkpt>
      <trkpt lat="46.9956" lon="-0.9807">
        <ele>65.6</ele>
        <time>2025-08-25T10:28:21Z</time>
      </trkpt>
      <trkpt lat="46.99561" lon="-0.9807">
        <ele>65.5</ele>
        <time>2025-08-25T10:28:22Z</time>
      </trkpt>
      <trkpt lat="46.99563" lon="-0.98071">
        <ele>65.4</ele>
        <time>2025-08-25T10:28:23Z</time>
      </trkpt>
      <trkpt lat="46.99565" lon="-0.98071">
        <ele>65.2</ele>
        <time>2025-08-25T10:28:24Z</time>
      </trkpt>
      <trkpt lat="46.99565" lon="-0.98072">
        <ele>65.1</ele>
        <time>2025-08-25T10:28:25Z</time>
      </trkpt>
      <trkpt lat="46.99566" lon="-0.98072">
        <ele>65</ele>
        <time>2025-08-25T10:28:26Z</time>
      </trkpt>
      <trkpt lat="46.99567" lon="-0.98072">
        <ele>64.9</ele>
        <time>2025-08-25T10:28:27Z</time>
      </trkpt>
      <trkpt lat="46.99568" lon="-0.98072">
        <ele>64.8</ele>
        <time>2025-08-25T10:28:28Z</time>
      </trkpt>
      <trkpt lat="46.99569" lon="-0.98072">
        <ele>64.7</ele>
        <time>2025-08-25T10:28:29Z</time>
      </trkpt>
      <trkpt lat="46.99571" lon="-0.98072">
        <ele>64.7</ele>
        <time>2025-08-25T10:28:30Z</time>
      </trkpt>
      <trkpt lat="46.99572" lon="-0.98072">
        <ele>64.6</ele>
        <time>2025-08-25T10:28:31Z</time>
      </trkpt>
      <trkpt lat="46.99573" lon="-0.98072">
        <ele>64.5</ele>
        <time>2025-08-25T10:28:32Z</time>
      </trkpt>
      <trkpt lat="46.99574" lon="-0.98072">
        <ele>64.4</ele>
        <time>2025-08-25T10:28:33Z</time>
      </trkpt>
      <trkpt lat="46.99575" lon="-0.98072">
        <ele>64.3</ele>
        <time>2025-08-25T10:28:34Z</time>
      </trkpt>
      <trkpt lat="46.99576" lon="-0.98073">
        <ele>64.3</ele>
        <time>2025-08-25T10:28:35Z</time>
      </trkpt>
      <trkpt lat="46.99577" lon="-0.98073">
        <ele>64.2</ele>
        <time>2025-08-25T10:28:36Z</time>
      </trkpt>
      <trkpt lat="46.99578" lon="-0.98073">
        <ele>64.1</ele>
        <time>2025-08-25T10:28:37Z</time>
      </trkpt>
      <trkpt lat="46.99579" lon="-0.98073">
        <ele>64.1</ele>
        <time>2025-08-25T10:28:38Z</time>
      </trkpt>
      <trkpt lat="46.9958" lon="-0.98073">
        <ele>64</ele>
        <time>2025-08-25T10:28:39Z</time>
      </trkpt>
      <trkpt lat="46.99581" lon="-0.98074">
        <ele>64</ele>
        <time>2025-08-25T10:28:40Z</time>
      </trkpt>
      <trkpt lat="46.99582" lon="-0.98074">
        <ele>63.9</ele>
        <time>2025-08-25T10:28:41Z</time>
      </trkpt>
      <trkpt lat="46.99583" lon="-0.98074">
        <ele>63.9</ele>
        <time>2025-08-25T10:28:42Z</time>
      </trkpt>
      <trkpt lat="46.99584" lon="-0.98075">
        <ele>63.9</ele>
        <time>2025-08-25T10:28:43Z</time>
      </trkpt>
      <trkpt lat="46.99585" lon="-0.98076">
        <ele>63.8</ele>
        <time>2025-08-25T10:28:44Z</time>
      </trkpt>
      <trkpt lat="46.99586" lon="-0.98076">
        <ele>63.8</ele>
        <time>2025-08-25T10:28:45Z</time>
      </trkpt>
      <trkpt lat="46.99587" lon="-0.98077">
        <ele>63.8</ele>
        <time>2025-08-25T10:28:46Z</time>
      </trkpt>
      <trkpt lat="46.99588" lon="-0.98078">
        <ele>63.7</ele>
        <time>2025-08-25T10:28:47Z</time>
      </trkpt>
      <trkpt lat="46.99589" lon="-0.9808">
        <ele>63.7</ele>
        <time>2025-08-25T10:28:48Z</time>
      </trkpt>
      <trkpt lat="46.9959" lon="-0.98081">
        <ele>63.6</ele>
        <time>2025-08-25T10:28:49Z</time>
      </trkpt>
      <trkpt lat="46.99591" lon="-0.98082">
        <ele>63.6</ele>
        <time>2025-08-25T10:28:50Z</time>
      </trkpt>
      <trkpt lat="46.99592" lon="-0.98083">
        <ele>63.6</ele>
        <time>2025-08-25T10:28:51Z</time>
      </trkpt>
      <trkpt lat="46.99593" lon="-0.98085">
        <ele>63.6</ele>
        <time>2025-08-25T10:28:52Z</time>
      </trkpt>
      <trkpt lat="46.99594" lon="-0.98087">
        <ele>63.5</ele>
        <time>2025-08-25T10:28:53Z</time>
      </trkpt>
      <trkpt lat="46.99594" lon="-0.98088">
        <ele>63.5</ele>
        <time>2025-08-25T10:28:54Z</time>
      </trkpt>
      <trkpt lat="46.99595" lon="-0.98089">
        <ele>63.5</ele>
        <time>2025-08-25T10:28:55Z</time>
      </trkpt>
      <trkpt lat="46.99595" lon="-0.98091">
        <ele>63.4</ele>
        <time>2025-08-25T10:28:56Z</time>
      </trkpt>
      <trkpt lat="46.99596" lon="-0.98092">
        <ele>63.4</ele>
        <time>2025-08-25T10:28:57Z</time>
      </trkpt>
      <trkpt lat="46.99596" lon="-0.98094">
        <ele>63.4</ele>
        <time>2025-08-25T10:28:58Z</time>
      </trkpt>
      <trkpt lat="46.99597" lon="-0.98097">
        <ele>63.3</ele>
        <time>2025-08-25T10:28:59Z</time>
      </trkpt>
      <trkpt lat="46.99597" lon="-0.98098">
        <ele>63.3</ele>
        <time>2025-08-25T10:29:00Z</time>
      </trkpt>
      <trkpt lat="46.99598" lon="-0.98099">
        <ele>63.3</ele>
        <time>2025-08-25T10:29:01Z</time>
      </trkpt>
      <trkpt lat="46.99599" lon="-0.98101">
        <ele>63.3</ele>
        <time>2025-08-25T10:29:02Z</time>
      </trkpt>
      <trkpt lat="46.996" lon="-0.98103">
        <ele>63.2</ele>
        <time>2025-08-25T10:29:03Z</time>
      </trkpt>
      <trkpt lat="46.99601" lon="-0.98105">
        <ele>63.1</ele>
        <time>2025-08-25T10:29:04Z</time>
      </trkpt>
      <trkpt lat="46.99602" lon="-0.98106">
        <ele>63.1</ele>
        <time>2025-08-25T10:29:05Z</time>
      </trkpt>
      <trkpt lat="46.99602" lon="-0.98108">
        <ele>63.1</ele>
        <time>2025-08-25T10:29:06Z</time>
      </trkpt>
      <trkpt lat="46.99603" lon="-0.98109">
        <ele>63</ele>
        <time>2025-08-25T10:29:07Z</time>
      </trkpt>
      <trkpt lat="46.99604" lon="-0.98112">
        <ele>62.9</ele>
        <time>2025-08-25T10:29:08Z</time>
      </trkpt>
      <trkpt lat="46.99605" lon="-0.98113">
        <ele>62.9</ele>
        <time>2025-08-25T10:29:09Z</time>
      </trkpt>
      <trkpt lat="46.99605" lon="-0.98115">
        <ele>62.8</ele>
        <time>2025-08-25T10:29:10Z</time>
      </trkpt>
      <trkpt lat="46.99606" lon="-0.98116">
        <ele>62.8</ele>
        <time>2025-08-25T10:29:11Z</time>
      </trkpt>
      <trkpt lat="46.99607" lon="-0.98118">
        <ele>62.7</ele>
        <time>2025-08-25T10:29:12Z</time>
      </trkpt>
      <trkpt lat="46.99607" lon="-0.98119">
        <ele>62.7</ele>
        <time>2025-08-25T10:29:13Z</time>
      </trkpt>
      <trkpt lat="46.99608" lon="-0.9812">
        <ele>62.6</ele>
        <time>2025-08-25T10:29:14Z</time>
      </trkpt>
      <trkpt lat="46.99609" lon="-0.98121">
        <ele>62.6</ele>
        <time>2025-08-25T10:29:15Z</time>
      </trkpt>
      <trkpt lat="46.99609" lon="-0.98122">
        <ele>62.6</ele>
        <time>2025-08-25T10:29:16Z</time>
      </trkpt>
      <trkpt lat="46.99609" lon="-0.98122">
        <ele>62.6</ele>
        <time>2025-08-25T10:29:17Z</time>
      </trkpt>
      <trkpt lat="46.9961" lon="-0.98123">
        <ele>62.5</ele>
        <time>2025-08-25T10:29:18Z</time>
      </trkpt>
      <trkpt lat="46.9961" lon="-0.98123">
        <ele>62.5</ele>
        <time>2025-08-25T10:29:19Z</time>
      </trkpt>
      <trkpt lat="46.99611" lon="-0.98124">
        <ele>62.5</ele>
        <time>2025-08-25T10:29:20Z</time>
      </trkpt>
      <trkpt lat="46.99612" lon="-0.98125">
        <ele>62.4</ele>
        <time>2025-08-25T10:29:21Z</time>
      </trkpt>
      <trkpt lat="46.99613" lon="-0.98125">
        <ele>62.4</ele>
        <time>2025-08-25T10:29:22Z</time>
      </trkpt>
      <trkpt lat="46.99613" lon="-0.98126">
        <ele>62.4</ele>
        <time>2025-08-25T10:29:23Z</time>
      </trkpt>
      <trkpt lat="46.99615" lon="-0.98128">
        <ele>62.3</ele>
        <time>2025-08-25T10:29:24Z</time>
      </trkpt>
      <trkpt lat="46.99616" lon="-0.98129">
        <ele>62.3</ele>
        <time>2025-08-25T10:29:25Z</time>
      </trkpt>
      <trkpt lat="46.99616" lon="-0.9813">
        <ele>62.2</ele>
        <time>2025-08-25T10:29:26Z</time>
      </trkpt>
      <trkpt lat="46.99617" lon="-0.98132">
        <ele>62.2</ele>
        <time>2025-08-25T10:29:27Z</time>
      </trkpt>
      <trkpt lat="46.99618" lon="-0.98133">
        <ele>62.1</ele>
        <time>2025-08-25T10:29:28Z</time>
      </trkpt>
      <trkpt lat="46.9962" lon="-0.98135">
        <ele>62.1</ele>
        <time>2025-08-25T10:29:29Z</time>
      </trkpt>
      <trkpt lat="46.99621" lon="-0.98136">
        <ele>62</ele>
        <time>2025-08-25T10:29:30Z</time>
      </trkpt>
      <trkpt lat="46.99621" lon="-0.98136">
        <ele>62</ele>
        <time>2025-08-25T10:29:31Z</time>
      </trkpt>
      <trkpt lat="46.99623" lon="-0.98138">
        <ele>62</ele>
        <time>2025-08-25T10:29:32Z</time>
      </trkpt>
      <trkpt lat="46.99623" lon="-0.98139">
        <ele>61.9</ele>
        <time>2025-08-25T10:29:33Z</time>
      </trkpt>
      <trkpt lat="46.99624" lon="-0.9814">
        <ele>61.9</ele>
        <time>2025-08-25T10:29:34Z</time>
      </trkpt>
      <trkpt lat="46.99625" lon="-0.98141">
        <ele>61.9</ele>
        <time>2025-08-25T10:29:35Z</time>
      </trkpt>
      <trkpt lat="46.99625" lon="-0.98142">
        <ele>61.9</ele>
        <time>2025-08-25T10:29:36Z</time>
      </trkpt>
      <trkpt lat="46.99626" lon="-0.98143">
        <ele>61.8</ele>
        <time>2025-08-25T10:29:37Z</time>
      </trkpt>
      <trkpt lat="46.99626" lon="-0.98144">
        <ele>61.8</ele>
        <time>2025-08-25T10:29:38Z</time>
      </trkpt>
      <trkpt lat="46.99627" lon="-0.98145">
        <ele>61.8</ele>
        <time>2025-08-25T10:29:39Z</time>
      </trkpt>
      <trkpt lat="46.99628" lon="-0.98146">
        <ele>61.8</ele>
        <time>2025-08-25T10:29:40Z</time>
      </trkpt>
      <trkpt lat="46.99628" lon="-0.98147">
        <ele>61.8</ele>
        <time>2025-08-25T10:29:41Z</time>
      </trkpt>
      <trkpt lat="46.99629" lon="-0.98149">
        <ele>61.7</ele>
        <time>2025-08-25T10:29:42Z</time>
      </trkpt>
      <trkpt lat="46.99629" lon="-0.9815">
        <ele>61.7</ele>
        <time>2025-08-25T10:29:43Z</time>
      </trkpt>
      <trkpt lat="46.99629" lon="-0.98152">
        <ele>61.7</ele>
        <time>2025-08-25T10:29:44Z</time>
      </trkpt>
      <trkpt lat="46.9963" lon="-0.98153">
        <ele>61.7</ele>
        <time>2025-08-25T10:29:45Z</time>
      </trkpt>
      <trkpt lat="46.9963" lon="-0.98155">
        <ele>61.7</ele>
        <time>2025-08-25T10:29:46Z</time>
      </trkpt>
      <trkpt lat="46.9963" lon="-0.98156">
        <ele>61.7</ele>
        <time>2025-08-25T10:29:47Z</time>
      </trkpt>
      <trkpt lat="46.9963" lon="-0.98157">
        <ele>61.7</ele>
        <time>2025-08-25T10:29:48Z</time>
      </trkpt>
      <trkpt lat="46.9963" lon="-0.98159">
        <ele>61.7</ele>
        <time>2025-08-25T10:29:49Z</time>
      </trkpt>
      <trkpt lat="46.99631" lon="-0.9816">
        <ele>61.7</ele>
        <time>2025-08-25T10:29:50Z</time>
      </trkpt>
      <trkpt lat="46.9963" lon="-0.9816">
        <ele>61.7</ele>
        <time>2025-08-25T10:29:51Z</time>
      </trkpt>
      <trkpt lat="46.9963" lon="-0.98161">
        <ele>61.7</ele>
        <time>2025-08-25T10:29:52Z</time>
      </trkpt>
      <trkpt lat="46.9963" lon="-0.98162">
        <ele>61.7</ele>
        <time>2025-08-25T10:29:53Z</time>
      </trkpt>
      <trkpt lat="46.99631" lon="-0.98164">
        <ele>61.7</ele>
        <time>2025-08-25T10:29:54Z</time>
      </trkpt>
      <trkpt lat="46.99631" lon="-0.98165">
        <ele>61.7</ele>
        <time>2025-08-25T10:29:55Z</time>
      </trkpt>
      <trkpt lat="46.99631" lon="-0.98166">
        <ele>61.7</ele>
        <time>2025-08-25T10:29:56Z</time>
      </trkpt>
      <trkpt lat="46.99632" lon="-0.98167">
        <ele>61.7</ele>
        <time>2025-08-25T10:29:57Z</time>
      </trkpt>
      <trkpt lat="46.99632" lon="-0.98168">
        <ele>61.7</ele>
        <time>2025-08-25T10:29:58Z</time>
      </trkpt>
      <trkpt lat="46.99632" lon="-0.9817">
        <ele>61.7</ele>
        <time>2025-08-25T10:29:59Z</time>
      </trkpt>
      <trkpt lat="46.99633" lon="-0.98171">
        <ele>61.7</ele>
        <time>2025-08-25T10:30:00Z</time>
      </trkpt>
      <trkpt lat="46.99634" lon="-0.98175">
        <ele>61.7</ele>
        <time>2025-08-25T10:30:01Z</time>
      </trkpt>
      <trkpt lat="46.99634" lon="-0.98176">
        <ele>61.7</ele>
        <time>2025-08-25T10:30:02Z</time>
      </trkpt>
      <trkpt lat="46.99634" lon="-0.98178">
        <ele>61.7</ele>
        <time>2025-08-25T10:30:03Z</time>
      </trkpt>
      <trkpt lat="46.99635" lon="-0.9818">
        <ele>61.7</ele>
        <time>2025-08-25T10:30:04Z</time>
      </trkpt>
      <trkpt lat="46.99636" lon="-0.98182">
        <ele>61.8</ele>
        <time>2025-08-25T10:30:05Z</time>
      </trkpt>
      <trkpt lat="46.99637" lon="-0.98185">
        <ele>61.8</ele>
        <time>2025-08-25T10:30:06Z</time>
      </trkpt>
      <trkpt lat="46.99637" lon="-0.98187">
        <ele>61.8</ele>
        <time>2025-08-25T10:30:07Z</time>
      </trkpt>
      <trkpt lat="46.99638" lon="-0.98189">
        <ele>61.8</ele>
        <time>2025-08-25T10:30:08Z</time>
      </trkpt>
      <trkpt lat="46.99639" lon="-0.98191">
        <ele>61.8</ele>
        <time>2025-08-25T10:30:09Z</time>
      </trkpt>
      <trkpt lat="46.99639" lon="-0.98193">
        <ele>61.8</ele>
        <time>2025-08-25T10:30:10Z</time>
      </trkpt>
      <trkpt lat="46.9964" lon="-0.98196">
        <ele>61.8</ele>
        <time>2025-08-25T10:30:11Z</time>
      </trkpt>
      <trkpt lat="46.99641" lon="-0.98198">
        <ele>61.9</ele>
        <time>2025-08-25T10:30:12Z</time>
      </trkpt>
      <trkpt lat="46.99642" lon="-0.982">
        <ele>61.9</ele>
        <time>2025-08-25T10:30:13Z</time>
      </trkpt>
      <trkpt lat="46.99643" lon="-0.98202">
        <ele>61.9</ele>
        <time>2025-08-25T10:30:14Z</time>
      </trkpt>
      <trkpt lat="46.99643" lon="-0.98203">
        <ele>61.9</ele>
        <time>2025-08-25T10:30:15Z</time>
      </trkpt>
      <trkpt lat="46.99644" lon="-0.98205">
        <ele>61.9</ele>
        <time>2025-08-25T10:30:16Z</time>
      </trkpt>
      <trkpt lat="46.99645" lon="-0.98207">
        <ele>61.9</ele>
        <time>2025-08-25T10:30:17Z</time>
      </trkpt>
      <trkpt lat="46.99646" lon="-0.98208">
        <ele>61.9</ele>
        <time>2025-08-25T10:30:18Z</time>
      </trkpt>
      <trkpt lat="46.99647" lon="-0.9821">
        <ele>61.9</ele>
        <time>2025-08-25T10:30:19Z</time>
      </trkpt>
      <trkpt lat="46.99647" lon="-0.98211">
        <ele>61.9</ele>
        <time>2025-08-25T10:30:20Z</time>
      </trkpt>
      <trkpt lat="46.99648" lon="-0.98213">
        <ele>61.9</ele>
        <time>2025-08-25T10:30:21Z</time>
      </trkpt>
      <trkpt lat="46.99648" lon="-0.98214">
        <ele>61.9</ele>
        <time>2025-08-25T10:30:22Z</time>
      </trkpt>
      <trkpt lat="46.99649" lon="-0.98216">
        <ele>61.9</ele>
        <time>2025-08-25T10:30:23Z</time>
      </trkpt>
      <trkpt lat="46.99649" lon="-0.98218">
        <ele>61.9</ele>
        <time>2025-08-25T10:30:24Z</time>
      </trkpt>
      <trkpt lat="46.99649" lon="-0.98219">
        <ele>61.9</ele>
        <time>2025-08-25T10:30:25Z</time>
      </trkpt>
      <trkpt lat="46.9965" lon="-0.9822">
        <ele>61.9</ele>
        <time>2025-08-25T10:30:26Z</time>
      </trkpt>
      <trkpt lat="46.9965" lon="-0.98222">
        <ele>61.9</ele>
        <time>2025-08-25T10:30:27Z</time>
      </trkpt>
      <trkpt lat="46.9965" lon="-0.98223">
        <ele>61.9</ele>
        <time>2025-08-25T10:30:28Z</time>
      </trkpt>
      <trkpt lat="46.99651" lon="-0.98224">
        <ele>61.9</ele>
        <time>2025-08-25T10:30:29Z</time>
      </trkpt>
      <trkpt lat="46.99651" lon="-0.98225">
        <ele>61.9</ele>
        <time>2025-08-25T10:30:30Z</time>
      </trkpt>
      <trkpt lat="46.99652" lon="-0.98226">
        <ele>61.9</ele>
        <time>2025-08-25T10:30:31Z</time>
      </trkpt>
      <trkpt lat="46.99653" lon="-0.98227">
        <ele>61.9</ele>
        <time>2025-08-25T10:30:32Z</time>
      </trkpt>
      <trkpt lat="46.99653" lon="-0.98228">
        <ele>61.9</ele>
        <time>2025-08-25T10:30:33Z</time>
      </trkpt>
      <trkpt lat="46.99654" lon="-0.9823">
        <ele>61.9</ele>
        <time>2025-08-25T10:30:34Z</time>
      </trkpt>
      <trkpt lat="46.99654" lon="-0.98231">
        <ele>61.9</ele>
        <time>2025-08-25T10:30:35Z</time>
      </trkpt>
      <trkpt lat="46.99654" lon="-0.98232">
        <ele>62</ele>
        <time>2025-08-25T10:30:36Z</time>
      </trkpt>
      <trkpt lat="46.99654" lon="-0.98233">
        <ele>62</ele>
        <time>2025-08-25T10:30:37Z</time>
      </trkpt>
      <trkpt lat="46.99655" lon="-0.98235">
        <ele>62</ele>
        <time>2025-08-25T10:30:38Z</time>
      </trkpt>
      <trkpt lat="46.99656" lon="-0.98236">
        <ele>62</ele>
        <time>2025-08-25T10:30:39Z</time>
      </trkpt>
      <trkpt lat="46.99656" lon="-0.98237">
        <ele>62</ele>
        <time>2025-08-25T10:30:40Z</time>
      </trkpt>
      <trkpt lat="46.99657" lon="-0.98238">
        <ele>62</ele>
        <time>2025-08-25T10:30:41Z</time>
      </trkpt>
      <trkpt lat="46.99657" lon="-0.98241">
        <ele>62</ele>
        <time>2025-08-25T10:30:42Z</time>
      </trkpt>
      <trkpt lat="46.99658" lon="-0.98242">
        <ele>62</ele>
        <time>2025-08-25T10:30:43Z</time>
      </trkpt>
      <trkpt lat="46.99658" lon="-0.98243">
        <ele>62</ele>
        <time>2025-08-25T10:30:44Z</time>
      </trkpt>
      <trkpt lat="46.99658" lon="-0.98244">
        <ele>62</ele>
        <time>2025-08-25T10:30:45Z</time>
      </trkpt>
      <trkpt lat="46.99659" lon="-0.98245">
        <ele>62.1</ele>
        <time>2025-08-25T10:30:46Z</time>
      </trkpt>
      <trkpt lat="46.99659" lon="-0.98247">
        <ele>62.1</ele>
        <time>2025-08-25T10:30:47Z</time>
      </trkpt>
      <trkpt lat="46.9966" lon="-0.98248">
        <ele>62.1</ele>
        <time>2025-08-25T10:30:48Z</time>
      </trkpt>
      <trkpt lat="46.99661" lon="-0.98251">
        <ele>62.1</ele>
        <time>2025-08-25T10:30:49Z</time>
      </trkpt>
      <trkpt lat="46.99661" lon="-0.98252">
        <ele>62.1</ele>
        <time>2025-08-25T10:30:50Z</time>
      </trkpt>
      <trkpt lat="46.99661" lon="-0.98254">
        <ele>62.1</ele>
        <time>2025-08-25T10:30:51Z</time>
      </trkpt>
      <trkpt lat="46.99662" lon="-0.98256">
        <ele>62.2</ele>
        <time>2025-08-25T10:30:52Z</time>
      </trkpt>
      <trkpt lat="46.99663" lon="-0.98258">
        <ele>62.2</ele>
        <time>2025-08-25T10:30:53Z</time>
      </trkpt>
      <trkpt lat="46.99663" lon="-0.98259">
        <ele>62.2</ele>
        <time>2025-08-25T10:30:54Z</time>
      </trkpt>
      <trkpt lat="46.99664" lon="-0.9826">
        <ele>62.2</ele>
        <time>2025-08-25T10:30:55Z</time>
      </trkpt>
      <trkpt lat="46.99664" lon="-0.98262">
        <ele>62.2</ele>
        <time>2025-08-25T10:30:56Z</time>
      </trkpt>
      <trkpt lat="46.99665" lon="-0.98264">
        <ele>62.2</ele>
        <time>2025-08-25T10:30:57Z</time>
      </trkpt>
      <trkpt lat="46.99666" lon="-0.98266">
        <ele>62.3</ele>
        <time>2025-08-25T10:30:58Z</time>
      </trkpt>
      <trkpt lat="46.99666" lon="-0.98268">
        <ele>62.3</ele>
        <time>2025-08-25T10:30:59Z</time>
      </trkpt>
      <trkpt lat="46.99667" lon="-0.9827">
        <ele>62.3</ele>
        <time>2025-08-25T10:31:00Z</time>
      </trkpt>
      <trkpt lat="46.99668" lon="-0.98273">
        <ele>62.3</ele>
        <time>2025-08-25T10:31:01Z</time>
      </trkpt>
      <trkpt lat="46.99668" lon="-0.98274">
        <ele>62.3</ele>
        <time>2025-08-25T10:31:02Z</time>
      </trkpt>
      <trkpt lat="46.99669" lon="-0.98275">
        <ele>62.4</ele>
        <time>2025-08-25T10:31:03Z</time>
      </trkpt>
      <trkpt lat="46.99669" lon="-0.98277">
        <ele>62.4</ele>
        <time>2025-08-25T10:31:04Z</time>
      </trkpt>
      <trkpt lat="46.9967" lon="-0.98279">
        <ele>62.4</ele>
        <time>2025-08-25T10:31:05Z</time>
      </trkpt>
      <trkpt lat="46.9967" lon="-0.98281">
        <ele>62.4</ele>
        <time>2025-08-25T10:31:06Z</time>
      </trkpt>
      <trkpt lat="46.99671" lon="-0.98283">
        <ele>62.4</ele>
        <time>2025-08-25T10:31:07Z</time>
      </trkpt>
      <trkpt lat="46.99671" lon="-0.98286">
        <ele>62.5</ele>
        <time>2025-08-25T10:31:08Z</time>
      </trkpt>
      <trkpt lat="46.99672" lon="-0.98288">
        <ele>62.5</ele>
        <time>2025-08-25T10:31:09Z</time>
      </trkpt>
      <trkpt lat="46.99672" lon="-0.98291">
        <ele>62.5</ele>
        <time>2025-08-25T10:31:10Z</time>
      </trkpt>
      <trkpt lat="46.99672" lon="-0.98293">
        <ele>62.6</ele>
        <time>2025-08-25T10:31:11Z</time>
      </trkpt>
      <trkpt lat="46.99673" lon="-0.98295">
        <ele>62.6</ele>
        <time>2025-08-25T10:31:12Z</time>
      </trkpt>
      <trkpt lat="46.99673" lon="-0.98297">
        <ele>62.7</ele>
        <time>2025-08-25T10:31:13Z</time>
      </trkpt>
      <trkpt lat="46.99672" lon="-0.983">
        <ele>62.7</ele>
        <time>2025-08-25T10:31:14Z</time>
      </trkpt>
      <trkpt lat="46.99672" lon="-0.98301">
        <ele>62.8</ele>
        <time>2025-08-25T10:31:15Z</time>
      </trkpt>
      <trkpt lat="46.99672" lon="-0.98303">
        <ele>62.8</ele>
        <time>2025-08-25T10:31:16Z</time>
      </trkpt>
      <trkpt lat="46.99672" lon="-0.98304">
        <ele>62.9</ele>
        <time>2025-08-25T10:31:17Z</time>
      </trkpt>
      <trkpt lat="46.99672" lon="-0.98305">
        <ele>62.9</ele>
        <time>2025-08-25T10:31:18Z</time>
      </trkpt>
      <trkpt lat="46.99672" lon="-0.98306">
        <ele>63</ele>
        <time>2025-08-25T10:31:19Z</time>
      </trkpt>
      <trkpt lat="46.99672" lon="-0.98307">
        <ele>63</ele>
        <time>2025-08-25T10:31:20Z</time>
      </trkpt>
      <trkpt lat="46.99672" lon="-0.98307">
        <ele>63</ele>
        <time>2025-08-25T10:31:21Z</time>
      </trkpt>
      <trkpt lat="46.99672" lon="-0.98309">
        <ele>63.1</ele>
        <time>2025-08-25T10:31:22Z</time>
      </trkpt>
      <trkpt lat="46.99672" lon="-0.98309">
        <ele>63.1</ele>
        <time>2025-08-25T10:31:23Z</time>
      </trkpt>
      <trkpt lat="46.99673" lon="-0.9831">
        <ele>63.2</ele>
        <time>2025-08-25T10:31:24Z</time>
      </trkpt>
      <trkpt lat="46.99673" lon="-0.98311">
        <ele>63.2</ele>
        <time>2025-08-25T10:31:25Z</time>
      </trkpt>
      <trkpt lat="46.99673" lon="-0.98311">
        <ele>63.3</ele>
        <time>2025-08-25T10:31:26Z</time>
      </trkpt>
      <trkpt lat="46.99673" lon="-0.98312">
        <ele>63.4</ele>
        <time>2025-08-25T10:31:27Z</time>
      </trkpt>
      <trkpt lat="46.99673" lon="-0.98312">
        <ele>63.4</ele>
        <time>2025-08-25T10:31:28Z</time>
      </trkpt>
      <trkpt lat="46.99673" lon="-0.98313">
        <ele>63.4</ele>
        <time>2025-08-25T10:31:29Z</time>
      </trkpt>
      <trkpt lat="46.99673" lon="-0.98313">
        <ele>63.4</ele>
        <time>2025-08-25T10:31:30Z</time>
      </trkpt>
      <trkpt lat="46.99672" lon="-0.98314">
        <ele>63.5</ele>
        <time>2025-08-25T10:31:31Z</time>
      </trkpt>
      <trkpt lat="46.99672" lon="-0.98313">
        <ele>63.5</ele>
        <time>2025-08-25T10:31:32Z</time>
      </trkpt>
      <trkpt lat="46.99672" lon="-0.98314">
        <ele>63.5</ele>
        <time>2025-08-25T10:31:33Z</time>
      </trkpt>
      <trkpt lat="46.99672" lon="-0.98313">
        <ele>63.6</ele>
        <time>2025-08-25T10:31:34Z</time>
      </trkpt>
      <trkpt lat="46.99673" lon="-0.98313">
        <ele>63.6</ele>
        <time>2025-08-25T10:31:35Z</time>
      </trkpt>
      <trkpt lat="46.99673" lon="-0.98313">
        <ele>63.6</ele>
        <time>2025-08-25T10:31:36Z</time>
      </trkpt>
      <trkpt lat="46.99673" lon="-0.98314">
        <ele>63.7</ele>
        <time>2025-08-25T10:31:37Z</time>
      </trkpt>
      <trkpt lat="46.99673" lon="-0.98314">
        <ele>63.7</ele>
        <time>2025-08-25T10:31:38Z</time>
      </trkpt>
      <trkpt lat="46.99673" lon="-0.98314">
        <ele>63.8</ele>
        <time>2025-08-25T10:31:39Z</time>
      </trkpt>
      <trkpt lat="46.99673" lon="-0.98314">
        <ele>63.8</ele>
        <time>2025-08-25T10:31:40Z</time>
      </trkpt>
      <trkpt lat="46.99672" lon="-0.98314">
        <ele>63.8</ele>
        <time>2025-08-25T10:31:41Z</time>
      </trkpt>
      <trkpt lat="46.99672" lon="-0.98315">
        <ele>63.9</ele>
        <time>2025-08-25T10:31:42Z</time>
      </trkpt>
      <trkpt lat="46.99672" lon="-0.98315">
        <ele>63.9</ele>
        <time>2025-08-25T10:31:43Z</time>
      </trkpt>
      <trkpt lat="46.99672" lon="-0.98316">
        <ele>64</ele>
        <time>2025-08-25T10:31:44Z</time>
      </trkpt>
      <trkpt lat="46.99672" lon="-0.98317">
        <ele>64</ele>
        <time>2025-08-25T10:31:45Z</time>
      </trkpt>
      <trkpt lat="46.99672" lon="-0.98317">
        <ele>64.1</ele>
        <time>2025-08-25T10:31:46Z</time>
      </trkpt>
      <trkpt lat="46.99672" lon="-0.98318">
        <ele>64.1</ele>
        <time>2025-08-25T10:31:47Z</time>
      </trkpt>
      <trkpt lat="46.99672" lon="-0.98318">
        <ele>64.2</ele>
        <time>2025-08-25T10:31:48Z</time>
      </trkpt>
      <trkpt lat="46.99671" lon="-0.98319">
        <ele>64.3</ele>
        <time>2025-08-25T10:31:49Z</time>
      </trkpt>
      <trkpt lat="46.99671" lon="-0.98319">
        <ele>64.4</ele>
        <time>2025-08-25T10:31:50Z</time>
      </trkpt>
      <trkpt lat="46.99671" lon="-0.98319">
        <ele>64.5</ele>
        <time>2025-08-25T10:31:51Z</time>
      </trkpt>
      <trkpt lat="46.99671" lon="-0.9832">
        <ele>64.6</ele>
        <time>2025-08-25T10:31:52Z</time>
      </trkpt>
      <trkpt lat="46.99671" lon="-0.9832">
        <ele>64.6</ele>
        <time>2025-08-25T10:31:53Z</time>
      </trkpt>
      <trkpt lat="46.99671" lon="-0.98321">
        <ele>64.8</ele>
        <time>2025-08-25T10:31:54Z</time>
      </trkpt>
      <trkpt lat="46.9967" lon="-0.98322">
        <ele>64.9</ele>
        <time>2025-08-25T10:31:55Z</time>
      </trkpt>
      <trkpt lat="46.9967" lon="-0.98323">
        <ele>65</ele>
        <time>2025-08-25T10:31:56Z</time>
      </trkpt>
      <trkpt lat="46.99669" lon="-0.98324">
        <ele>65.2</ele>
        <time>2025-08-25T10:31:57Z</time>
      </trkpt>
      <trkpt lat="46.99668" lon="-0.98326">
        <ele>65.5</ele>
        <time>2025-08-25T10:31:58Z</time>
      </trkpt>
      <trkpt lat="46.99667" lon="-0.98328">
        <ele>65.9</ele>
        <time>2025-08-25T10:31:59Z</time>
      </trkpt>
      <trkpt lat="46.99666" lon="-0.9833">
        <ele>66.2</ele>
        <time>2025-08-25T10:32:00Z</time>
      </trkpt>
      <trkpt lat="46.99665" lon="-0.98331">
        <ele>66.4</ele>
        <time>2025-08-25T10:32:01Z</time>
      </trkpt>
      <trkpt lat="46.99663" lon="-0.98333">
        <ele>66.8</ele>
        <time>2025-08-25T10:32:02Z</time>
      </trkpt>
      <trkpt lat="46.99661" lon="-0.98335">
        <ele>67.2</ele>
        <time>2025-08-25T10:32:03Z</time>
      </trkpt>
      <trkpt lat="46.9966" lon="-0.98335">
        <ele>67.4</ele>
        <time>2025-08-25T10:32:04Z</time>
      </trkpt>
      <trkpt lat="46.99658" lon="-0.98337">
        <ele>67.8</ele>
        <time>2025-08-25T10:32:05Z</time>
      </trkpt>
      <trkpt lat="46.99657" lon="-0.98338">
        <ele>68</ele>
        <time>2025-08-25T10:32:06Z</time>
      </trkpt>
      <trkpt lat="46.99655" lon="-0.98338">
        <ele>68.2</ele>
        <time>2025-08-25T10:32:07Z</time>
      </trkpt>
      <trkpt lat="46.99654" lon="-0.98339">
        <ele>68.5</ele>
        <time>2025-08-25T10:32:08Z</time>
      </trkpt>
      <trkpt lat="46.99652" lon="-0.9834">
        <ele>68.7</ele>
        <time>2025-08-25T10:32:09Z</time>
      </trkpt>
      <trkpt lat="46.99651" lon="-0.9834">
        <ele>68.8</ele>
        <time>2025-08-25T10:32:10Z</time>
      </trkpt>
      <trkpt lat="46.9965" lon="-0.9834">
        <ele>69</ele>
        <time>2025-08-25T10:32:11Z</time>
      </trkpt>
      <trkpt lat="46.99649" lon="-0.98341">
        <ele>69.2</ele>
        <time>2025-08-25T10:32:12Z</time>
      </trkpt>
      <trkpt lat="46.99647" lon="-0.98341">
        <ele>69.4</ele>
        <time>2025-08-25T10:32:13Z</time>
      </trkpt>
      <trkpt lat="46.99646" lon="-0.98342">
        <ele>69.6</ele>
        <time>2025-08-25T10:32:14Z</time>
      </trkpt>
      <trkpt lat="46.99645" lon="-0.98342">
        <ele>69.6</ele>
        <time>2025-08-25T10:32:15Z</time>
      </trkpt>
      <trkpt lat="46.99644" lon="-0.98343">
        <ele>69.8</ele>
        <time>2025-08-25T10:32:16Z</time>
      </trkpt>
      <trkpt lat="46.99642" lon="-0.98343">
        <ele>69.9</ele>
        <time>2025-08-25T10:32:17Z</time>
      </trkpt>
      <trkpt lat="46.99641" lon="-0.98343">
        <ele>70</ele>
        <time>2025-08-25T10:32:18Z</time>
      </trkpt>
      <trkpt lat="46.9964" lon="-0.98344">
        <ele>70.2</ele>
        <time>2025-08-25T10:32:19Z</time>
      </trkpt>
      <trkpt lat="46.99639" lon="-0.98345">
        <ele>70.2</ele>
        <time>2025-08-25T10:32:20Z</time>
      </trkpt>
      <trkpt lat="46.99639" lon="-0.98345">
        <ele>70.3</ele>
        <time>2025-08-25T10:32:21Z</time>
      </trkpt>
      <trkpt lat="46.99637" lon="-0.98345">
        <ele>70.4</ele>
        <time>2025-08-25T10:32:22Z</time>
      </trkpt>
      <trkpt lat="46.99636" lon="-0.98345">
        <ele>70.5</ele>
        <time>2025-08-25T10:32:23Z</time>
      </trkpt>
      <trkpt lat="46.99635" lon="-0.98345">
        <ele>70.7</ele>
        <time>2025-08-25T10:32:24Z</time>
      </trkpt>
      <trkpt lat="46.99634" lon="-0.98345">
        <ele>70.7</ele>
        <time>2025-08-25T10:32:25Z</time>
      </trkpt>
      <trkpt lat="46.99633" lon="-0.98344">
        <ele>70.8</ele>
        <time>2025-08-25T10:32:26Z</time>
      </trkpt>
      <trkpt lat="46.99632" lon="-0.98344">
        <ele>70.9</ele>
        <time>2025-08-25T10:32:27Z</time>
      </trkpt>
      <trkpt lat="46.99631" lon="-0.98344">
        <ele>71</ele>
        <time>2025-08-25T10:32:28Z</time>
      </trkpt>
      <trkpt lat="46.9963" lon="-0.98344">
        <ele>71</ele>
        <time>2025-08-25T10:32:29Z</time>
      </trkpt>
      <trkpt lat="46.99629" lon="-0.98344">
        <ele>71.1</ele>
        <time>2025-08-25T10:32:30Z</time>
      </trkpt>
      <trkpt lat="46.99627" lon="-0.98344">
        <ele>71.2</ele>
        <time>2025-08-25T10:32:31Z</time>
      </trkpt>
      <trkpt lat="46.99626" lon="-0.98344">
        <ele>71.3</ele>
        <time>2025-08-25T10:32:32Z</time>
      </trkpt>
      <trkpt lat="46.99625" lon="-0.98344">
        <ele>71.4</ele>
        <time>2025-08-25T10:32:33Z</time>
      </trkpt>
      <trkpt lat="46.99624" lon="-0.98344">
        <ele>71.5</ele>
        <time>2025-08-25T10:32:34Z</time>
      </trkpt>
      <trkpt lat="46.99623" lon="-0.98344">
        <ele>71.5</ele>
        <time>2025-08-25T10:32:35Z</time>
      </trkpt>
      <trkpt lat="46.99622" lon="-0.98344">
        <ele>71.6</ele>
        <time>2025-08-25T10:32:36Z</time>
      </trkpt>
      <trkpt lat="46.99621" lon="-0.98344">
        <ele>71.7</ele>
        <time>2025-08-25T10:32:37Z</time>
      </trkpt>
      <trkpt lat="46.9962" lon="-0.98344">
        <ele>71.8</ele>
        <time>2025-08-25T10:32:38Z</time>
      </trkpt>
      <trkpt lat="46.99619" lon="-0.98344">
        <ele>71.9</ele>
        <time>2025-08-25T10:32:39Z</time>
      </trkpt>
      <trkpt lat="46.99618" lon="-0.98344">
        <ele>71.9</ele>
        <time>2025-08-25T10:32:40Z</time>
      </trkpt>
      <trkpt lat="46.99617" lon="-0.98345">
        <ele>72</ele>
        <time>2025-08-25T10:32:41Z</time>
      </trkpt>
      <trkpt lat="46.99616" lon="-0.98345">
        <ele>72.1</ele>
        <time>2025-08-25T10:32:42Z</time>
      </trkpt>
      <trkpt lat="46.99615" lon="-0.98345">
        <ele>72.2</ele>
        <time>2025-08-25T10:32:43Z</time>
      </trkpt>
      <trkpt lat="46.99614" lon="-0.98346">
        <ele>72.3</ele>
        <time>2025-08-25T10:32:44Z</time>
      </trkpt>
      <trkpt lat="46.99613" lon="-0.98346">
        <ele>72.3</ele>
        <time>2025-08-25T10:32:45Z</time>
      </trkpt>
      <trkpt lat="46.99612" lon="-0.98346">
        <ele>72.4</ele>
        <time>2025-08-25T10:32:46Z</time>
      </trkpt>
      <trkpt lat="46.99611" lon="-0.98346">
        <ele>72.5</ele>
        <time>2025-08-25T10:32:47Z</time>
      </trkpt>
      <trkpt lat="46.99609" lon="-0.98347">
        <ele>72.5</ele>
        <time>2025-08-25T10:32:48Z</time>
      </trkpt>
      <trkpt lat="46.99608" lon="-0.98347">
        <ele>72.6</ele>
        <time>2025-08-25T10:32:49Z</time>
      </trkpt>
      <trkpt lat="46.99607" lon="-0.98347">
        <ele>72.6</ele>
        <time>2025-08-25T10:32:50Z</time>
      </trkpt>
      <trkpt lat="46.99606" lon="-0.98347">
        <ele>72.7</ele>
        <time>2025-08-25T10:32:51Z</time>
      </trkpt>
      <trkpt lat="46.99605" lon="-0.98348">
        <ele>72.8</ele>
        <time>2025-08-25T10:32:52Z</time>
      </trkpt>
      <trkpt lat="46.99604" lon="-0.98348">
        <ele>72.8</ele>
        <time>2025-08-25T10:32:53Z</time>
      </trkpt>
      <trkpt lat="46.99602" lon="-0.98349">
        <ele>72.9</ele>
        <time>2025-08-25T10:32:54Z</time>
      </trkpt>
      <trkpt lat="46.99601" lon="-0.98349">
        <ele>73</ele>
        <time>2025-08-25T10:32:55Z</time>
      </trkpt>
      <trkpt lat="46.996" lon="-0.98349">
        <ele>73</ele>
        <time>2025-08-25T10:32:56Z</time>
      </trkpt>
      <trkpt lat="46.99598" lon="-0.9835">
        <ele>73.1</ele>
        <time>2025-08-25T10:32:57Z</time>
      </trkpt>
      <trkpt lat="46.99597" lon="-0.9835">
        <ele>73.1</ele>
        <time>2025-08-25T10:32:58Z</time>
      </trkpt>
      <trkpt lat="46.99596" lon="-0.9835">
        <ele>73.1</ele>
        <time>2025-08-25T10:32:59Z</time>
      </trkpt>
      <trkpt lat="46.99595" lon="-0.9835">
        <ele>73.2</ele>
        <time>2025-08-25T10:33:00Z</time>
      </trkpt>
      <trkpt lat="46.99594" lon="-0.98349">
        <ele>73.2</ele>
        <time>2025-08-25T10:33:01Z</time>
      </trkpt>
      <trkpt lat="46.99592" lon="-0.98349">
        <ele>73.3</ele>
        <time>2025-08-25T10:33:02Z</time>
      </trkpt>
      <trkpt lat="46.99591" lon="-0.98349">
        <ele>73.3</ele>
        <time>2025-08-25T10:33:03Z</time>
      </trkpt>
      <trkpt lat="46.9959" lon="-0.98349">
        <ele>73.3</ele>
        <time>2025-08-25T10:33:04Z</time>
      </trkpt>
      <trkpt lat="46.99589" lon="-0.98349">
        <ele>73.4</ele>
        <time>2025-08-25T10:33:05Z</time>
      </trkpt>
      <trkpt lat="46.99588" lon="-0.98349">
        <ele>73.4</ele>
        <time>2025-08-25T10:33:06Z</time>
      </trkpt>
      <trkpt lat="46.99587" lon="-0.98349">
        <ele>73.4</ele>
        <time>2025-08-25T10:33:07Z</time>
      </trkpt>
      <trkpt lat="46.99586" lon="-0.9835">
        <ele>73.5</ele>
        <time>2025-08-25T10:33:08Z</time>
      </trkpt>
      <trkpt lat="46.99585" lon="-0.9835">
        <ele>73.5</ele>
        <time>2025-08-25T10:33:09Z</time>
      </trkpt>
      <trkpt lat="46.99584" lon="-0.9835">
        <ele>73.5</ele>
        <time>2025-08-25T10:33:10Z</time>
      </trkpt>
      <trkpt lat="46.99583" lon="-0.9835">
        <ele>73.5</ele>
        <time>2025-08-25T10:33:11Z</time>
      </trkpt>
      <trkpt lat="46.99582" lon="-0.98351">
        <ele>73.6</ele>
        <time>2025-08-25T10:33:12Z</time>
      </trkpt>
      <trkpt lat="46.99581" lon="-0.98352">
        <ele>73.6</ele>
        <time>2025-08-25T10:33:13Z</time>
      </trkpt>
      <trkpt lat="46.9958" lon="-0.98353">
        <ele>73.6</ele>
        <time>2025-08-25T10:33:14Z</time>
      </trkpt>
      <trkpt lat="46.99578" lon="-0.98354">
        <ele>73.7</ele>
        <time>2025-08-25T10:33:15Z</time>
      </trkpt>
      <trkpt lat="46.99577" lon="-0.98354">
        <ele>73.7</ele>
        <time>2025-08-25T10:33:16Z</time>
      </trkpt>
      <trkpt lat="46.99577" lon="-0.98355">
        <ele>73.8</ele>
        <time>2025-08-25T10:33:17Z</time>
      </trkpt>
      <trkpt lat="46.99575" lon="-0.98356">
        <ele>73.8</ele>
        <time>2025-08-25T10:33:18Z</time>
      </trkpt>
      <trkpt lat="46.99574" lon="-0.98356">
        <ele>73.8</ele>
        <time>2025-08-25T10:33:19Z</time>
      </trkpt>
      <trkpt lat="46.99573" lon="-0.98356">
        <ele>73.9</ele>
        <time>2025-08-25T10:33:20Z</time>
      </trkpt>
      <trkpt lat="46.99572" lon="-0.98357">
        <ele>73.9</ele>
        <time>2025-08-25T10:33:21Z</time>
      </trkpt>
      <trkpt lat="46.99571" lon="-0.98358">
        <ele>74</ele>
        <time>2025-08-25T10:33:22Z</time>
      </trkpt>
      <trkpt lat="46.9957" lon="-0.98358">
        <ele>74</ele>
        <time>2025-08-25T10:33:23Z</time>
      </trkpt>
      <trkpt lat="46.99569" lon="-0.98359">
        <ele>74.1</ele>
        <time>2025-08-25T10:33:24Z</time>
      </trkpt>
      <trkpt lat="46.99568" lon="-0.9836">
        <ele>74.1</ele>
        <time>2025-08-25T10:33:25Z</time>
      </trkpt>
      <trkpt lat="46.99567" lon="-0.9836">
        <ele>74.2</ele>
        <time>2025-08-25T10:33:26Z</time>
      </trkpt>
      <trkpt lat="46.99566" lon="-0.9836">
        <ele>74.2</ele>
        <time>2025-08-25T10:33:27Z</time>
      </trkpt>
      <trkpt lat="46.99566" lon="-0.9836">
        <ele>74.2</ele>
        <time>2025-08-25T10:33:28Z</time>
      </trkpt>
      <trkpt lat="46.99565" lon="-0.9836">
        <ele>74.3</ele>
        <time>2025-08-25T10:33:29Z</time>
      </trkpt>
      <trkpt lat="46.99564" lon="-0.98361">
        <ele>74.3</ele>
        <time>2025-08-25T10:33:30Z</time>
      </trkpt>
      <trkpt lat="46.99563" lon="-0.98361">
        <ele>74.4</ele>
        <time>2025-08-25T10:33:31Z</time>
      </trkpt>
      <trkpt lat="46.99563" lon="-0.98361">
        <ele>74.4</ele>
        <time>2025-08-25T10:33:32Z</time>
      </trkpt>
      <trkpt lat="46.99562" lon="-0.98361">
        <ele>74.5</ele>
        <time>2025-08-25T10:33:33Z</time>
      </trkpt>
      <trkpt lat="46.99561" lon="-0.98362">
        <ele>74.5</ele>
        <time>2025-08-25T10:33:34Z</time>
      </trkpt>
      <trkpt lat="46.9956" lon="-0.98363">
        <ele>74.6</ele>
        <time>2025-08-25T10:33:35Z</time>
      </trkpt>
      <trkpt lat="46.99559" lon="-0.98363">
        <ele>74.6</ele>
        <time>2025-08-25T10:33:36Z</time>
      </trkpt>
      <trkpt lat="46.99558" lon="-0.98363">
        <ele>74.7</ele>
        <time>2025-08-25T10:33:37Z</time>
      </trkpt>
      <trkpt lat="46.99557" lon="-0.98364">
        <ele>74.8</ele>
        <time>2025-08-25T10:33:38Z</time>
      </trkpt>
      <trkpt lat="46.99556" lon="-0.98364">
        <ele>74.9</ele>
        <time>2025-08-25T10:33:39Z</time>
      </trkpt>
      <trkpt lat="46.99555" lon="-0.98364">
        <ele>75</ele>
        <time>2025-08-25T10:33:40Z</time>
      </trkpt>
      <trkpt lat="46.99554" lon="-0.98365">
        <ele>75</ele>
        <time>2025-08-25T10:33:41Z</time>
      </trkpt>
      <trkpt lat="46.99553" lon="-0.98365">
        <ele>75.1</ele>
        <time>2025-08-25T10:33:42Z</time>
      </trkpt>
      <trkpt lat="46.99552" lon="-0.98365">
        <ele>75.2</ele>
        <time>2025-08-25T10:33:43Z</time>
      </trkpt>
      <trkpt lat="46.99551" lon="-0.98365">
        <ele>75.2</ele>
        <time>2025-08-25T10:33:44Z</time>
      </trkpt>
      <trkpt lat="46.9955" lon="-0.98366">
        <ele>75.3</ele>
        <time>2025-08-25T10:33:45Z</time>
      </trkpt>
      <trkpt lat="46.99549" lon="-0.98366">
        <ele>75.4</ele>
        <time>2025-08-25T10:33:46Z</time>
      </trkpt>
      <trkpt lat="46.99548" lon="-0.98366">
        <ele>75.5</ele>
        <time>2025-08-25T10:33:47Z</time>
      </trkpt>
      <trkpt lat="46.99547" lon="-0.98367">
        <ele>75.6</ele>
        <time>2025-08-25T10:33:48Z</time>
      </trkpt>
      <trkpt lat="46.99546" lon="-0.98367">
        <ele>75.6</ele>
        <time>2025-08-25T10:33:49Z</time>
      </trkpt>
      <trkpt lat="46.99546" lon="-0.98367">
        <ele>75.7</ele>
        <time>2025-08-25T10:33:50Z</time>
      </trkpt>
      <trkpt lat="46.99545" lon="-0.98367">
        <ele>75.8</ele>
        <time>2025-08-25T10:33:51Z</time>
      </trkpt>
      <trkpt lat="46.99544" lon="-0.98367">
        <ele>75.9</ele>
        <time>2025-08-25T10:33:52Z</time>
      </trkpt>
      <trkpt lat="46.99543" lon="-0.98367">
        <ele>75.9</ele>
        <time>2025-08-25T10:33:53Z</time>
      </trkpt>
      <trkpt lat="46.99542" lon="-0.98368">
        <ele>76</ele>
        <time>2025-08-25T10:33:54Z</time>
      </trkpt>
      <trkpt lat="46.99541" lon="-0.98368">
        <ele>76.1</ele>
        <time>2025-08-25T10:33:55Z</time>
      </trkpt>
      <trkpt lat="46.99541" lon="-0.98368">
        <ele>76.2</ele>
        <time>2025-08-25T10:33:56Z</time>
      </trkpt>
      <trkpt lat="46.9954" lon="-0.98367">
        <ele>76.3</ele>
        <time>2025-08-25T10:33:57Z</time>
      </trkpt>
      <trkpt lat="46.99539" lon="-0.98367">
        <ele>76.3</ele>
        <time>2025-08-25T10:33:58Z</time>
      </trkpt>
      <trkpt lat="46.99539" lon="-0.98367">
        <ele>76.4</ele>
        <time>2025-08-25T10:33:59Z</time>
      </trkpt>
      <trkpt lat="46.99538" lon="-0.98366">
        <ele>76.5</ele>
        <time>2025-08-25T10:34:00Z</time>
      </trkpt>
      <trkpt lat="46.99538" lon="-0.98365">
        <ele>76.5</ele>
        <time>2025-08-25T10:34:01Z</time>
      </trkpt>
      <trkpt lat="46.99538" lon="-0.98365">
        <ele>76.5</ele>
        <time>2025-08-25T10:34:02Z</time>
      </trkpt>
      <trkpt lat="46.99538" lon="-0.98365">
        <ele>76.6</ele>
        <time>2025-08-25T10:34:03Z</time>
      </trkpt>
      <trkpt lat="46.99538" lon="-0.98364">
        <ele>76.6</ele>
        <time>2025-08-25T10:34:04Z</time>
      </trkpt>
      <trkpt lat="46.99538" lon="-0.98363">
        <ele>76.7</ele>
        <time>2025-08-25T10:34:05Z</time>
      </trkpt>
      <trkpt lat="46.99538" lon="-0.98364">
        <ele>76.7</ele>
        <time>2025-08-25T10:34:06Z</time>
      </trkpt>
      <trkpt lat="46.99537" lon="-0.98363">
        <ele>76.7</ele>
        <time>2025-08-25T10:34:07Z</time>
      </trkpt>
      <trkpt lat="46.99537" lon="-0.98363">
        <ele>76.8</ele>
        <time>2025-08-25T10:34:08Z</time>
      </trkpt>
      <trkpt lat="46.99537" lon="-0.98362">
        <ele>76.8</ele>
        <time>2025-08-25T10:34:09Z</time>
      </trkpt>
      <trkpt lat="46.99537" lon="-0.98362">
        <ele>76.9</ele>
        <time>2025-08-25T10:34:10Z</time>
      </trkpt>
      <trkpt lat="46.99536" lon="-0.98362">
        <ele>77</ele>
        <time>2025-08-25T10:34:11Z</time>
      </trkpt>
      <trkpt lat="46.99536" lon="-0.98361">
        <ele>77.1</ele>
        <time>2025-08-25T10:34:12Z</time>
      </trkpt>
      <trkpt lat="46.99536" lon="-0.98361">
        <ele>77.1</ele>
        <time>2025-08-25T10:34:13Z</time>
      </trkpt>
      <trkpt lat="46.99536" lon="-0.9836">
        <ele>77.2</ele>
        <time>2025-08-25T10:34:14Z</time>
      </trkpt>
      <trkpt lat="46.99536" lon="-0.98361">
        <ele>77.2</ele>
        <time>2025-08-25T10:34:15Z</time>
      </trkpt>
      <trkpt lat="46.99536" lon="-0.98361">
        <ele>77.3</ele>
        <time>2025-08-25T10:34:16Z</time>
      </trkpt>
      <trkpt lat="46.99535" lon="-0.98361">
        <ele>77.3</ele>
        <time>2025-08-25T10:34:17Z</time>
      </trkpt>
      <trkpt lat="46.99535" lon="-0.98361">
        <ele>77.3</ele>
        <time>2025-08-25T10:34:18Z</time>
      </trkpt>
      <trkpt lat="46.99535" lon="-0.98361">
        <ele>77.3</ele>
        <time>2025-08-25T10:34:19Z</time>
      </trkpt>
      <trkpt lat="46.99535" lon="-0.98362">
        <ele>77.4</ele>
        <time>2025-08-25T10:34:20Z</time>
      </trkpt>
      <trkpt lat="46.99536" lon="-0.98361">
        <ele>77.4</ele>
        <time>2025-08-25T10:34:21Z</time>
      </trkpt>
      <trkpt lat="46.99536" lon="-0.98362">
        <ele>77.5</ele>
        <time>2025-08-25T10:34:22Z</time>
      </trkpt>
      <trkpt lat="46.99535" lon="-0.98363">
        <ele>77.6</ele>
        <time>2025-08-25T10:34:23Z</time>
      </trkpt>
      <trkpt lat="46.99535" lon="-0.98363">
        <ele>77.6</ele>
        <time>2025-08-25T10:34:24Z</time>
      </trkpt>
      <trkpt lat="46.99535" lon="-0.98363">
        <ele>77.6</ele>
        <time>2025-08-25T10:34:25Z</time>
      </trkpt>
      <trkpt lat="46.99535" lon="-0.98363">
        <ele>77.7</ele>
        <time>2025-08-25T10:34:26Z</time>
      </trkpt>
      <trkpt lat="46.99535" lon="-0.98363">
        <ele>77.7</ele>
        <time>2025-08-25T10:34:27Z</time>
      </trkpt>
      <trkpt lat="46.99535" lon="-0.98363">
        <ele>77.7</ele>
        <time>2025-08-25T10:34:28Z</time>
      </trkpt>
      <trkpt lat="46.99534" lon="-0.98363">
        <ele>77.8</ele>
        <time>2025-08-25T10:34:29Z</time>
      </trkpt>
      <trkpt lat="46.99534" lon="-0.98362">
        <ele>77.9</ele>
        <time>2025-08-25T10:34:30Z</time>
      </trkpt>
      <trkpt lat="46.99534" lon="-0.98362">
        <ele>77.9</ele>
        <time>2025-08-25T10:34:31Z</time>
      </trkpt>
      <trkpt lat="46.99534" lon="-0.98361">
        <ele>78</ele>
        <time>2025-08-25T10:34:32Z</time>
      </trkpt>
      <trkpt lat="46.99534" lon="-0.98361">
        <ele>78</ele>
        <time>2025-08-25T10:34:33Z</time>
      </trkpt>
      <trkpt lat="46.99534" lon="-0.98361">
        <ele>78.1</ele>
        <time>2025-08-25T10:34:34Z</time>
      </trkpt>
      <trkpt lat="46.99534" lon="-0.98361">
        <ele>78.2</ele>
        <time>2025-08-25T10:34:35Z</time>
      </trkpt>
      <trkpt lat="46.99534" lon="-0.9836">
        <ele>78.3</ele>
        <time>2025-08-25T10:34:36Z</time>
      </trkpt>
      <trkpt lat="46.99534" lon="-0.98359">
        <ele>78.4</ele>
        <time>2025-08-25T10:34:37Z</time>
      </trkpt>
      <trkpt lat="46.99535" lon="-0.98358">
        <ele>78.6</ele>
        <time>2025-08-25T10:34:38Z</time>
      </trkpt>
      <trkpt lat="46.99535" lon="-0.98357">
        <ele>78.8</ele>
        <time>2025-08-25T10:34:39Z</time>
      </trkpt>
      <trkpt lat="46.99536" lon="-0.98355">
        <ele>79</ele>
        <time>2025-08-25T10:34:40Z</time>
      </trkpt>
      <trkpt lat="46.99537" lon="-0.98353">
        <ele>79.4</ele>
        <time>2025-08-25T10:34:41Z</time>
      </trkpt>
      <trkpt lat="46.99537" lon="-0.98351">
        <ele>79.6</ele>
        <time>2025-08-25T10:34:42Z</time>
      </trkpt>
      <trkpt lat="46.99538" lon="-0.9835">
        <ele>79.8</ele>
        <time>2025-08-25T10:34:43Z</time>
      </trkpt>
      <trkpt lat="46.99538" lon="-0.98349">
        <ele>79.9</ele>
        <time>2025-08-25T10:34:44Z</time>
      </trkpt>
      <trkpt lat="46.99538" lon="-0.98349">
        <ele>80.1</ele>
        <time>2025-08-25T10:34:45Z</time>
      </trkpt>
      <trkpt lat="46.99539" lon="-0.98348">
        <ele>80.2</ele>
        <time>2025-08-25T10:34:46Z</time>
      </trkpt>
      <trkpt lat="46.99539" lon="-0.98347">
        <ele>80.3</ele>
        <time>2025-08-25T10:34:47Z</time>
      </trkpt>
      <trkpt lat="46.9954" lon="-0.98346">
        <ele>80.5</ele>
        <time>2025-08-25T10:34:48Z</time>
      </trkpt>
      <trkpt lat="46.99541" lon="-0.98344">
        <ele>81</ele>
        <time>2025-08-25T10:34:49Z</time>
      </trkpt>
      <trkpt lat="46.99542" lon="-0.98343">
        <ele>81.2</ele>
        <time>2025-08-25T10:34:50Z</time>
      </trkpt>
      <trkpt lat="46.99542" lon="-0.98342">
        <ele>81.4</ele>
        <time>2025-08-25T10:34:51Z</time>
      </trkpt>
      <trkpt lat="46.99543" lon="-0.9834">
        <ele>81.7</ele>
        <time>2025-08-25T10:34:52Z</time>
      </trkpt>
      <trkpt lat="46.99544" lon="-0.98339">
        <ele>81.9</ele>
        <time>2025-08-25T10:34:53Z</time>
      </trkpt>
      <trkpt lat="46.99545" lon="-0.98338">
        <ele>82.1</ele>
        <time>2025-08-25T10:34:54Z</time>
      </trkpt>
      <trkpt lat="46.99546" lon="-0.98336">
        <ele>82.3</ele>
        <time>2025-08-25T10:34:55Z</time>
      </trkpt>
      <trkpt lat="46.99546" lon="-0.98335">
        <ele>82.5</ele>
        <time>2025-08-25T10:34:56Z</time>
      </trkpt>
      <trkpt lat="46.99547" lon="-0.98334">
        <ele>82.6</ele>
        <time>2025-08-25T10:34:57Z</time>
      </trkpt>
      <trkpt lat="46.99548" lon="-0.98333">
        <ele>82.7</ele>
        <time>2025-08-25T10:34:58Z</time>
      </trkpt>
      <trkpt lat="46.99549" lon="-0.98333">
        <ele>82.9</ele>
        <time>2025-08-25T10:34:59Z</time>
      </trkpt>
      <trkpt lat="46.9955" lon="-0.98332">
        <ele>83</ele>
        <time>2025-08-25T10:35:00Z</time>
      </trkpt>
      <trkpt lat="46.99551" lon="-0.98331">
        <ele>83.1</ele>
        <time>2025-08-25T10:35:01Z</time>
      </trkpt>
      <trkpt lat="46.99551" lon="-0.9833">
        <ele>83.2</ele>
        <time>2025-08-25T10:35:02Z</time>
      </trkpt>
      <trkpt lat="46.99552" lon="-0.9833">
        <ele>83.2</ele>
        <time>2025-08-25T10:35:03Z</time>
      </trkpt>
      <trkpt lat="46.99553" lon="-0.98329">
        <ele>83.3</ele>
        <time>2025-08-25T10:35:04Z</time>
      </trkpt>
      <trkpt lat="46.99554" lon="-0.98329">
        <ele>83.4</ele>
        <time>2025-08-25T10:35:05Z</time>
      </trkpt>
      <trkpt lat="46.99554" lon="-0.9833">
        <ele>83.4</ele>
        <time>2025-08-25T10:35:06Z</time>
      </trkpt>
      <trkpt lat="46.99555" lon="-0.9833">
        <ele>83.5</ele>
        <time>2025-08-25T10:35:07Z</time>
      </trkpt>
      <trkpt lat="46.99557" lon="-0.98331">
        <ele>83.5</ele>
        <time>2025-08-25T10:35:08Z</time>
      </trkpt>
      <trkpt lat="46.99558" lon="-0.98332">
        <ele>83.6</ele>
        <time>2025-08-25T10:35:09Z</time>
      </trkpt>
      <trkpt lat="46.99559" lon="-0.98333">
        <ele>83.6</ele>
        <time>2025-08-25T10:35:10Z</time>
      </trkpt>
      <trkpt lat="46.99559" lon="-0.98334">
        <ele>83.6</ele>
        <time>2025-08-25T10:35:11Z</time>
      </trkpt>
      <trkpt lat="46.9956" lon="-0.98335">
        <ele>83.6</ele>
        <time>2025-08-25T10:35:12Z</time>
      </trkpt>
      <trkpt lat="46.99562" lon="-0.98336">
        <ele>83.6</ele>
        <time>2025-08-25T10:35:13Z</time>
      </trkpt>
      <trkpt lat="46.99563" lon="-0.98337">
        <ele>83.6</ele>
        <time>2025-08-25T10:35:14Z</time>
      </trkpt>
      <trkpt lat="46.99564" lon="-0.98337">
        <ele>83.5</ele>
        <time>2025-08-25T10:35:15Z</time>
      </trkpt>
      <trkpt lat="46.99565" lon="-0.98337">
        <ele>83.5</ele>
        <time>2025-08-25T10:35:16Z</time>
      </trkpt>
      <trkpt lat="46.99566" lon="-0.98337">
        <ele>83.5</ele>
        <time>2025-08-25T10:35:17Z</time>
      </trkpt>
      <trkpt lat="46.99567" lon="-0.98337">
        <ele>83.4</ele>
        <time>2025-08-25T10:35:18Z</time>
      </trkpt>
      <trkpt lat="46.99568" lon="-0.98338">
        <ele>83.3</ele>
        <time>2025-08-25T10:35:19Z</time>
      </trkpt>
      <trkpt lat="46.99569" lon="-0.9834">
        <ele>83.2</ele>
        <time>2025-08-25T10:35:20Z</time>
      </trkpt>
      <trkpt lat="46.99571" lon="-0.98342">
        <ele>83.1</ele>
        <time>2025-08-25T10:35:21Z</time>
      </trkpt>
      <trkpt lat="46.99571" lon="-0.98343">
        <ele>83</ele>
        <time>2025-08-25T10:35:22Z</time>
      </trkpt>
      <trkpt lat="46.99572" lon="-0.98344">
        <ele>83</ele>
        <time>2025-08-25T10:35:23Z</time>
      </trkpt>
      <trkpt lat="46.99574" lon="-0.98344">
        <ele>82.8</ele>
        <time>2025-08-25T10:35:24Z</time>
      </trkpt>
      <trkpt lat="46.99575" lon="-0.98344">
        <ele>82.7</ele>
        <time>2025-08-25T10:35:25Z</time>
      </trkpt>
      <trkpt lat="46.99576" lon="-0.98343">
        <ele>82.6</ele>
        <time>2025-08-25T10:35:26Z</time>
      </trkpt>
      <trkpt lat="46.99577" lon="-0.98343">
        <ele>82.5</ele>
        <time>2025-08-25T10:35:27Z</time>
      </trkpt>
      <trkpt lat="46.99578" lon="-0.98345">
        <ele>82.4</ele>
        <time>2025-08-25T10:35:28Z</time>
      </trkpt>
      <trkpt lat="46.99579" lon="-0.98346">
        <ele>82.3</ele>
        <time>2025-08-25T10:35:29Z</time>
      </trkpt>
      <trkpt lat="46.9958" lon="-0.98348">
        <ele>82.1</ele>
        <time>2025-08-25T10:35:30Z</time>
      </trkpt>
      <trkpt lat="46.99581" lon="-0.98349">
        <ele>82</ele>
        <time>2025-08-25T10:35:31Z</time>
      </trkpt>
      <trkpt lat="46.99583" lon="-0.98349">
        <ele>81.9</ele>
        <time>2025-08-25T10:35:32Z</time>
      </trkpt>
      <trkpt lat="46.99584" lon="-0.98349">
        <ele>81.8</ele>
        <time>2025-08-25T10:35:33Z</time>
      </trkpt>
      <trkpt lat="46.99585" lon="-0.98348">
        <ele>81.7</ele>
        <time>2025-08-25T10:35:34Z</time>
      </trkpt>
      <trkpt lat="46.99587" lon="-0.98347">
        <ele>81.6</ele>
        <time>2025-08-25T10:35:35Z</time>
      </trkpt>
      <trkpt lat="46.99588" lon="-0.98345">
        <ele>81.5</ele>
        <time>2025-08-25T10:35:36Z</time>
      </trkpt>
      <trkpt lat="46.99589" lon="-0.98344">
        <ele>81.4</ele>
        <time>2025-08-25T10:35:37Z</time>
      </trkpt>
      <trkpt lat="46.99589" lon="-0.98342">
        <ele>81.3</ele>
        <time>2025-08-25T10:35:38Z</time>
      </trkpt>
      <trkpt lat="46.9959" lon="-0.98338">
        <ele>81.2</ele>
        <time>2025-08-25T10:35:39Z</time>
      </trkpt>
      <trkpt lat="46.9959" lon="-0.98336">
        <ele>81.1</ele>
        <time>2025-08-25T10:35:40Z</time>
      </trkpt>
      <trkpt lat="46.9959" lon="-0.98335">
        <ele>81.1</ele>
        <time>2025-08-25T10:35:41Z</time>
      </trkpt>
      <trkpt lat="46.9959" lon="-0.98334">
        <ele>81.1</ele>
        <time>2025-08-25T10:35:42Z</time>
      </trkpt>
      <trkpt lat="46.9959" lon="-0.98333">
        <ele>81.1</ele>
        <time>2025-08-25T10:35:43Z</time>
      </trkpt>
      <trkpt lat="46.99591" lon="-0.98332">
        <ele>81</ele>
        <time>2025-08-25T10:35:44Z</time>
      </trkpt>
      <trkpt lat="46.99593" lon="-0.98331">
        <ele>81</ele>
        <time>2025-08-25T10:35:45Z</time>
      </trkpt>
      <trkpt lat="46.99593" lon="-0.9833">
        <ele>81</ele>
        <time>2025-08-25T10:35:46Z</time>
      </trkpt>
      <trkpt lat="46.99594" lon="-0.9833">
        <ele>81</ele>
        <time>2025-08-25T10:35:47Z</time>
      </trkpt>
      <trkpt lat="46.99594" lon="-0.98329">
        <ele>80.9</ele>
        <time>2025-08-25T10:35:48Z</time>
      </trkpt>
      <trkpt lat="46.99596" lon="-0.98328">
        <ele>80.9</ele>
        <time>2025-08-25T10:35:49Z</time>
      </trkpt>
      <trkpt lat="46.99597" lon="-0.98326">
        <ele>80.9</ele>
        <time>2025-08-25T10:35:50Z</time>
      </trkpt>
      <trkpt lat="46.99598" lon="-0.98324">
        <ele>80.9</ele>
        <time>2025-08-25T10:35:51Z</time>
      </trkpt>
      <trkpt lat="46.996" lon="-0.98324">
        <ele>80.9</ele>
        <time>2025-08-25T10:35:52Z</time>
      </trkpt>
      <trkpt lat="46.99601" lon="-0.98323">
        <ele>80.9</ele>
        <time>2025-08-25T10:35:53Z</time>
      </trkpt>
      <trkpt lat="46.99602" lon="-0.98322">
        <ele>80.9</ele>
        <time>2025-08-25T10:35:54Z</time>
      </trkpt>
      <trkpt lat="46.99603" lon="-0.98321">
        <ele>80.9</ele>
        <time>2025-08-25T10:35:55Z</time>
      </trkpt>
      <trkpt lat="46.99604" lon="-0.9832">
        <ele>80.8</ele>
        <time>2025-08-25T10:35:56Z</time>
      </trkpt>
      <trkpt lat="46.99605" lon="-0.98319">
        <ele>80.8</ele>
        <time>2025-08-25T10:35:57Z</time>
      </trkpt>
      <trkpt lat="46.99605" lon="-0.98319">
        <ele>80.8</ele>
        <time>2025-08-25T10:35:58Z</time>
      </trkpt>
      <trkpt lat="46.99606" lon="-0.98318">
        <ele>80.8</ele>
        <time>2025-08-25T10:35:59Z</time>
      </trkpt>
      <trkpt lat="46.99607" lon="-0.98317">
        <ele>80.8</ele>
        <time>2025-08-25T10:36:00Z</time>
      </trkpt>
      <trkpt lat="46.99608" lon="-0.98316">
        <ele>80.8</ele>
        <time>2025-08-25T10:36:01Z</time>
      </trkpt>
      <trkpt lat="46.99608" lon="-0.98315">
        <ele>80.8</ele>
        <time>2025-08-25T10:36:02Z</time>
      </trkpt>
      <trkpt lat="46.99609" lon="-0.98314">
        <ele>80.8</ele>
        <time>2025-08-25T10:36:03Z</time>
      </trkpt>
      <trkpt lat="46.9961" lon="-0.98313">
        <ele>80.7</ele>
        <time>2025-08-25T10:36:04Z</time>
      </trkpt>
      <trkpt lat="46.99611" lon="-0.98313">
        <ele>80.7</ele>
        <time>2025-08-25T10:36:05Z</time>
      </trkpt>
      <trkpt lat="46.99612" lon="-0.98313">
        <ele>80.7</ele>
        <time>2025-08-25T10:36:06Z</time>
      </trkpt>
      <trkpt lat="46.99613" lon="-0.98313">
        <ele>80.7</ele>
        <time>2025-08-25T10:36:07Z</time>
      </trkpt>
      <trkpt lat="46.99614" lon="-0.98314">
        <ele>80.6</ele>
        <time>2025-08-25T10:36:08Z</time>
      </trkpt>
      <trkpt lat="46.99616" lon="-0.98314">
        <ele>80.6</ele>
        <time>2025-08-25T10:36:09Z</time>
      </trkpt>
      <trkpt lat="46.99617" lon="-0.98314">
        <ele>80.5</ele>
        <time>2025-08-25T10:36:10Z</time>
      </trkpt>
      <trkpt lat="46.99618" lon="-0.98314">
        <ele>80.5</ele>
        <time>2025-08-25T10:36:11Z</time>
      </trkpt>
      <trkpt lat="46.99618" lon="-0.98314">
        <ele>80.4</ele>
        <time>2025-08-25T10:36:12Z</time>
      </trkpt>
      <trkpt lat="46.99619" lon="-0.98314">
        <ele>80.4</ele>
        <time>2025-08-25T10:36:13Z</time>
      </trkpt>
      <trkpt lat="46.99622" lon="-0.98315">
        <ele>80.2</ele>
        <time>2025-08-25T10:36:14Z</time>
      </trkpt>
      <trkpt lat="46.99623" lon="-0.98315">
        <ele>80.2</ele>
        <time>2025-08-25T10:36:15Z</time>
      </trkpt>
      <trkpt lat="46.99623" lon="-0.98315">
        <ele>80.1</ele>
        <time>2025-08-25T10:36:16Z</time>
      </trkpt>
      <trkpt lat="46.99625" lon="-0.98315">
        <ele>80</ele>
        <time>2025-08-25T10:36:17Z</time>
      </trkpt>
      <trkpt lat="46.99626" lon="-0.98315">
        <ele>79.9</ele>
        <time>2025-08-25T10:36:18Z</time>
      </trkpt>
      <trkpt lat="46.99628" lon="-0.98315">
        <ele>79.7</ele>
        <time>2025-08-25T10:36:19Z</time>
      </trkpt>
      <trkpt lat="46.99629" lon="-0.98314">
        <ele>79.7</ele>
        <time>2025-08-25T10:36:20Z</time>
      </trkpt>
      <trkpt lat="46.99631" lon="-0.98314">
        <ele>79.5</ele>
        <time>2025-08-25T10:36:21Z</time>
      </trkpt>
      <trkpt lat="46.99632" lon="-0.98314">
        <ele>79.4</ele>
        <time>2025-08-25T10:36:22Z</time>
      </trkpt>
      <trkpt lat="46.99633" lon="-0.98314">
        <ele>79.3</ele>
        <time>2025-08-25T10:36:23Z</time>
      </trkpt>
      <trkpt lat="46.99634" lon="-0.98313">
        <ele>79.2</ele>
        <time>2025-08-25T10:36:24Z</time>
      </trkpt>
      <trkpt lat="46.99635" lon="-0.98314">
        <ele>79.2</ele>
        <time>2025-08-25T10:36:25Z</time>
      </trkpt>
      <trkpt lat="46.99636" lon="-0.98314">
        <ele>79.1</ele>
        <time>2025-08-25T10:36:26Z</time>
      </trkpt>
      <trkpt lat="46.99637" lon="-0.98314">
        <ele>79</ele>
        <time>2025-08-25T10:36:27Z</time>
      </trkpt>
      <trkpt lat="46.99638" lon="-0.98314">
        <ele>78.9</ele>
        <time>2025-08-25T10:36:28Z</time>
      </trkpt>
      <trkpt lat="46.9964" lon="-0.98314">
        <ele>78.9</ele>
        <time>2025-08-25T10:36:29Z</time>
      </trkpt>
      <trkpt lat="46.99641" lon="-0.98313">
        <ele>78.8</ele>
        <time>2025-08-25T10:36:30Z</time>
      </trkpt>
      <trkpt lat="46.99642" lon="-0.98313">
        <ele>78.7</ele>
        <time>2025-08-25T10:36:31Z</time>
      </trkpt>
      <trkpt lat="46.99643" lon="-0.98312">
        <ele>78.7</ele>
        <time>2025-08-25T10:36:32Z</time>
      </trkpt>
      <trkpt lat="46.99643" lon="-0.98312">
        <ele>78.7</ele>
        <time>2025-08-25T10:36:33Z</time>
      </trkpt>
      <trkpt lat="46.99644" lon="-0.98311">
        <ele>78.6</ele>
        <time>2025-08-25T10:36:34Z</time>
      </trkpt>
      <trkpt lat="46.99645" lon="-0.98311">
        <ele>78.6</ele>
        <time>2025-08-25T10:36:35Z</time>
      </trkpt>
      <trkpt lat="46.99646" lon="-0.98311">
        <ele>78.6</ele>
        <time>2025-08-25T10:36:36Z</time>
      </trkpt>
      <trkpt lat="46.99647" lon="-0.9831">
        <ele>78.6</ele>
        <time>2025-08-25T10:36:37Z</time>
      </trkpt>
      <trkpt lat="46.99647" lon="-0.98309">
        <ele>78.6</ele>
        <time>2025-08-25T10:36:38Z</time>
      </trkpt>
      <trkpt lat="46.99647" lon="-0.98309">
        <ele>78.5</ele>
        <time>2025-08-25T10:36:39Z</time>
      </trkpt>
      <trkpt lat="46.99648" lon="-0.98308">
        <ele>78.5</ele>
        <time>2025-08-25T10:36:40Z</time>
      </trkpt>
      <trkpt lat="46.99648" lon="-0.98307">
        <ele>78.5</ele>
        <time>2025-08-25T10:36:41Z</time>
      </trkpt>
      <trkpt lat="46.99648" lon="-0.98306">
        <ele>78.6</ele>
        <time>2025-08-25T10:36:42Z</time>
      </trkpt>
      <trkpt lat="46.99648" lon="-0.98305">
        <ele>78.6</ele>
        <time>2025-08-25T10:36:43Z</time>
      </trkpt>
      <trkpt lat="46.99648" lon="-0.98304">
        <ele>78.6</ele>
        <time>2025-08-25T10:36:44Z</time>
      </trkpt>
      <trkpt lat="46.99648" lon="-0.98303">
        <ele>78.6</ele>
        <time>2025-08-25T10:36:45Z</time>
      </trkpt>
      <trkpt lat="46.99648" lon="-0.98301">
        <ele>78.6</ele>
        <time>2025-08-25T10:36:46Z</time>
      </trkpt>
      <trkpt lat="46.99648" lon="-0.98299">
        <ele>78.6</ele>
        <time>2025-08-25T10:36:47Z</time>
      </trkpt>
      <trkpt lat="46.99649" lon="-0.98298">
        <ele>78.6</ele>
        <time>2025-08-25T10:36:48Z</time>
      </trkpt>
      <trkpt lat="46.99649" lon="-0.98297">
        <ele>78.7</ele>
        <time>2025-08-25T10:36:49Z</time>
      </trkpt>
      <trkpt lat="46.99649" lon="-0.98296">
        <ele>78.7</ele>
        <time>2025-08-25T10:36:50Z</time>
      </trkpt>
      <trkpt lat="46.99649" lon="-0.98296">
        <ele>78.7</ele>
        <time>2025-08-25T10:36:51Z</time>
      </trkpt>
      <trkpt lat="46.9965" lon="-0.98295">
        <ele>78.7</ele>
        <time>2025-08-25T10:36:52Z</time>
      </trkpt>
      <trkpt lat="46.9965" lon="-0.98294">
        <ele>78.8</ele>
        <time>2025-08-25T10:36:53Z</time>
      </trkpt>
      <trkpt lat="46.99651" lon="-0.98294">
        <ele>78.8</ele>
        <time>2025-08-25T10:36:54Z</time>
      </trkpt>
      <trkpt lat="46.99651" lon="-0.98294">
        <ele>78.8</ele>
        <time>2025-08-25T10:36:55Z</time>
      </trkpt>
      <trkpt lat="46.99651" lon="-0.98294">
        <ele>78.8</ele>
        <time>2025-08-25T10:36:56Z</time>
      </trkpt>
      <trkpt lat="46.99652" lon="-0.98293">
        <ele>78.9</ele>
        <time>2025-08-25T10:36:57Z</time>
      </trkpt>
      <trkpt lat="46.99652" lon="-0.98292">
        <ele>78.9</ele>
        <time>2025-08-25T10:36:58Z</time>
      </trkpt>
      <trkpt lat="46.99652" lon="-0.98291">
        <ele>78.9</ele>
        <time>2025-08-25T10:36:59Z</time>
      </trkpt>
      <trkpt lat="46.99652" lon="-0.98289">
        <ele>79</ele>
        <time>2025-08-25T10:37:00Z</time>
      </trkpt>
      <trkpt lat="46.99651" lon="-0.98288">
        <ele>79</ele>
        <time>2025-08-25T10:37:01Z</time>
      </trkpt>
      <trkpt lat="46.99651" lon="-0.98286">
        <ele>79.1</ele>
        <time>2025-08-25T10:37:02Z</time>
      </trkpt>
      <trkpt lat="46.9965" lon="-0.98284">
        <ele>79.2</ele>
        <time>2025-08-25T10:37:03Z</time>
      </trkpt>
      <trkpt lat="46.99649" lon="-0.98283">
        <ele>79.2</ele>
        <time>2025-08-25T10:37:04Z</time>
      </trkpt>
      <trkpt lat="46.99649" lon="-0.98281">
        <ele>79.3</ele>
        <time>2025-08-25T10:37:05Z</time>
      </trkpt>
      <trkpt lat="46.99647" lon="-0.98278">
        <ele>79.4</ele>
        <time>2025-08-25T10:37:06Z</time>
      </trkpt>
      <trkpt lat="46.99646" lon="-0.98277">
        <ele>79.4</ele>
        <time>2025-08-25T10:37:07Z</time>
      </trkpt>
      <trkpt lat="46.99644" lon="-0.98275">
        <ele>79.4</ele>
        <time>2025-08-25T10:37:08Z</time>
      </trkpt>
      <trkpt lat="46.99644" lon="-0.98274">
        <ele>79.5</ele>
        <time>2025-08-25T10:37:09Z</time>
      </trkpt>
      <trkpt lat="46.99643" lon="-0.98273">
        <ele>79.5</ele>
        <time>2025-08-25T10:37:10Z</time>
      </trkpt>
      <trkpt lat="46.99642" lon="-0.98271">
        <ele>79.4</ele>
        <time>2025-08-25T10:37:11Z</time>
      </trkpt>
      <trkpt lat="46.99641" lon="-0.9827">
        <ele>79.4</ele>
        <time>2025-08-25T10:37:12Z</time>
      </trkpt>
      <trkpt lat="46.9964" lon="-0.98269">
        <ele>79.4</ele>
        <time>2025-08-25T10:37:13Z</time>
      </trkpt>
      <trkpt lat="46.99639" lon="-0.98268">
        <ele>79.4</ele>
        <time>2025-08-25T10:37:14Z</time>
      </trkpt>
      <trkpt lat="46.99639" lon="-0.98267">
        <ele>79.4</ele>
        <time>2025-08-25T10:37:15Z</time>
      </trkpt>
      <trkpt lat="46.99638" lon="-0.98266">
        <ele>79.3</ele>
        <time>2025-08-25T10:37:16Z</time>
      </trkpt>
      <trkpt lat="46.99637" lon="-0.98265">
        <ele>79.3</ele>
        <time>2025-08-25T10:37:17Z</time>
      </trkpt>
      <trkpt lat="46.99636" lon="-0.98264">
        <ele>79.2</ele>
        <time>2025-08-25T10:37:18Z</time>
      </trkpt>
      <trkpt lat="46.99636" lon="-0.98263">
        <ele>79.2</ele>
        <time>2025-08-25T10:37:19Z</time>
      </trkpt>
      <trkpt lat="46.99636" lon="-0.98263">
        <ele>79.2</ele>
        <time>2025-08-25T10:37:20Z</time>
      </trkpt>
      <trkpt lat="46.99636" lon="-0.98262">
        <ele>79.1</ele>
        <time>2025-08-25T10:37:21Z</time>
      </trkpt>
      <trkpt lat="46.99636" lon="-0.98262">
        <ele>79.1</ele>
        <time>2025-08-25T10:37:22Z</time>
      </trkpt>
      <trkpt lat="46.99636" lon="-0.98261">
        <ele>79.1</ele>
        <time>2025-08-25T10:37:23Z</time>
      </trkpt>
      <trkpt lat="46.99636" lon="-0.98261">
        <ele>79.1</ele>
        <time>2025-08-25T10:37:24Z</time>
      </trkpt>
      <trkpt lat="46.99636" lon="-0.9826">
        <ele>79.1</ele>
        <time>2025-08-25T10:37:25Z</time>
      </trkpt>
      <trkpt lat="46.99636" lon="-0.9826">
        <ele>79.1</ele>
        <time>2025-08-25T10:37:26Z</time>
      </trkpt>
      <trkpt lat="46.99636" lon="-0.98259">
        <ele>79</ele>
        <time>2025-08-25T10:37:27Z</time>
      </trkpt>
      <trkpt lat="46.99636" lon="-0.9826">
        <ele>79</ele>
        <time>2025-08-25T10:37:28Z</time>
      </trkpt>
      <trkpt lat="46.99636" lon="-0.98259">
        <ele>79</ele>
        <time>2025-08-25T10:37:29Z</time>
      </trkpt>
      <trkpt lat="46.99636" lon="-0.98259">
        <ele>79</ele>
        <time>2025-08-25T10:37:30Z</time>
      </trkpt>
      <trkpt lat="46.99635" lon="-0.98258">
        <ele>78.9</ele>
        <time>2025-08-25T10:37:31Z</time>
      </trkpt>
      <trkpt lat="46.99635" lon="-0.98257">
        <ele>78.9</ele>
        <time>2025-08-25T10:37:32Z</time>
      </trkpt>
      <trkpt lat="46.99635" lon="-0.98257">
        <ele>78.9</ele>
        <time>2025-08-25T10:37:33Z</time>
      </trkpt>
      <trkpt lat="46.99635" lon="-0.98256">
        <ele>78.8</ele>
        <time>2025-08-25T10:37:34Z</time>
      </trkpt>
      <trkpt lat="46.99635" lon="-0.98256">
        <ele>78.8</ele>
        <time>2025-08-25T10:37:35Z</time>
      </trkpt>
      <trkpt lat="46.99634" lon="-0.98256">
        <ele>78.8</ele>
        <time>2025-08-25T10:37:36Z</time>
      </trkpt>
      <trkpt lat="46.99634" lon="-0.98255">
        <ele>78.8</ele>
        <time>2025-08-25T10:37:37Z</time>
      </trkpt>
      <trkpt lat="46.99634" lon="-0.98252">
        <ele>78.6</ele>
        <time>2025-08-25T10:37:38Z</time>
      </trkpt>
      <trkpt lat="46.99634" lon="-0.98251">
        <ele>78.6</ele>
        <time>2025-08-25T10:37:39Z</time>
      </trkpt>
      <trkpt lat="46.99634" lon="-0.9825">
        <ele>78.5</ele>
        <time>2025-08-25T10:37:40Z</time>
      </trkpt>
      <trkpt lat="46.99634" lon="-0.98249">
        <ele>78.5</ele>
        <time>2025-08-25T10:37:41Z</time>
      </trkpt>
      <trkpt lat="46.99634" lon="-0.98247">
        <ele>78.4</ele>
        <time>2025-08-25T10:37:42Z</time>
      </trkpt>
      <trkpt lat="46.99633" lon="-0.98245">
        <ele>78.3</ele>
        <time>2025-08-25T10:37:43Z</time>
      </trkpt>
      <trkpt lat="46.99633" lon="-0.98244">
        <ele>78.3</ele>
        <time>2025-08-25T10:37:44Z</time>
      </trkpt>
      <trkpt lat="46.99633" lon="-0.98241">
        <ele>78.2</ele>
        <time>2025-08-25T10:37:45Z</time>
      </trkpt>
      <trkpt lat="46.99632" lon="-0.9824">
        <ele>78.1</ele>
        <time>2025-08-25T10:37:46Z</time>
      </trkpt>
      <trkpt lat="46.99632" lon="-0.98238">
        <ele>78.1</ele>
        <time>2025-08-25T10:37:47Z</time>
      </trkpt>
      <trkpt lat="46.99631" lon="-0.98236">
        <ele>78</ele>
        <time>2025-08-25T10:37:48Z</time>
      </trkpt>
      <trkpt lat="46.9963" lon="-0.98234">
        <ele>78</ele>
        <time>2025-08-25T10:37:49Z</time>
      </trkpt>
      <trkpt lat="46.99629" lon="-0.98233">
        <ele>77.9</ele>
        <time>2025-08-25T10:37:50Z</time>
      </trkpt>
      <trkpt lat="46.99629" lon="-0.98231">
        <ele>77.9</ele>
        <time>2025-08-25T10:37:51Z</time>
      </trkpt>
      <trkpt lat="46.99628" lon="-0.98228">
        <ele>77.9</ele>
        <time>2025-08-25T10:37:52Z</time>
      </trkpt>
      <trkpt lat="46.99628" lon="-0.98227">
        <ele>77.9</ele>
        <time>2025-08-25T10:37:53Z</time>
      </trkpt>
      <trkpt lat="46.99627" lon="-0.98226">
        <ele>77.9</ele>
        <time>2025-08-25T10:37:54Z</time>
      </trkpt>
      <trkpt lat="46.99627" lon="-0.98224">
        <ele>77.9</ele>
        <time>2025-08-25T10:37:55Z</time>
      </trkpt>
      <trkpt lat="46.99627" lon="-0.98224">
        <ele>77.9</ele>
        <time>2025-08-25T10:37:56Z</time>
      </trkpt>
      <trkpt lat="46.99627" lon="-0.98223">
        <ele>77.9</ele>
        <time>2025-08-25T10:37:57Z</time>
      </trkpt>
      <trkpt lat="46.99627" lon="-0.98224">
        <ele>77.9</ele>
        <time>2025-08-25T10:37:58Z</time>
      </trkpt>
      <trkpt lat="46.99627" lon="-0.98224">
        <ele>77.9</ele>
        <time>2025-08-25T10:37:59Z</time>
      </trkpt>
      <trkpt lat="46.99627" lon="-0.98224">
        <ele>77.9</ele>
        <time>2025-08-25T10:38:00Z</time>
      </trkpt>
      <trkpt lat="46.99627" lon="-0.98224">
        <ele>77.9</ele>
        <time>2025-08-25T10:38:01Z</time>
      </trkpt>
      <trkpt lat="46.99627" lon="-0.98224">
        <ele>77.9</ele>
        <time>2025-08-25T10:38:02Z</time>
      </trkpt>
      <trkpt lat="46.99627" lon="-0.98224">
        <ele>77.9</ele>
        <time>2025-08-25T10:38:03Z</time>
      </trkpt>
      <trkpt lat="46.99627" lon="-0.98224">
        <ele>77.9</ele>
        <time>2025-08-25T10:38:04Z</time>
      </trkpt>
      <trkpt lat="46.99626" lon="-0.98223">
        <ele>77.9</ele>
        <time>2025-08-25T10:38:05Z</time>
      </trkpt>
      <trkpt lat="46.99626" lon="-0.98223">
        <ele>77.9</ele>
        <time>2025-08-25T10:38:06Z</time>
      </trkpt>
      <trkpt lat="46.99626" lon="-0.98223">
        <ele>77.9</ele>
        <time>2025-08-25T10:38:07Z</time>
      </trkpt>
      <trkpt lat="46.99626" lon="-0.98223">
        <ele>77.9</ele>
        <time>2025-08-25T10:38:08Z</time>
      </trkpt>
      <trkpt lat="46.99626" lon="-0.98223">
        <ele>77.9</ele>
        <time>2025-08-25T10:38:09Z</time>
      </trkpt>
      <trkpt lat="46.99626" lon="-0.98223">
        <ele>77.9</ele>
        <time>2025-08-25T10:38:10Z</time>
      </trkpt>
      <trkpt lat="46.99626" lon="-0.98223">
        <ele>77.9</ele>
        <time>2025-08-25T10:38:11Z</time>
      </trkpt>
      <trkpt lat="46.99626" lon="-0.98222">
        <ele>77.9</ele>
        <time>2025-08-25T10:38:12Z</time>
      </trkpt>
      <trkpt lat="46.99625" lon="-0.98222">
        <ele>77.9</ele>
        <time>2025-08-25T10:38:13Z</time>
      </trkpt>
      <trkpt lat="46.99625" lon="-0.98221">
        <ele>77.9</ele>
        <time>2025-08-25T10:38:14Z</time>
      </trkpt>
      <trkpt lat="46.99624" lon="-0.9822">
        <ele>78</ele>
        <time>2025-08-25T10:38:15Z</time>
      </trkpt>
      <trkpt lat="46.99624" lon="-0.98219">
        <ele>78</ele>
        <time>2025-08-25T10:38:16Z</time>
      </trkpt>
      <trkpt lat="46.99623" lon="-0.98218">
        <ele>78</ele>
        <time>2025-08-25T10:38:17Z</time>
      </trkpt>
      <trkpt lat="46.99623" lon="-0.98217">
        <ele>78</ele>
        <time>2025-08-25T10:38:18Z</time>
      </trkpt>
      <trkpt lat="46.99623" lon="-0.98217">
        <ele>78</ele>
        <time>2025-08-25T10:38:19Z</time>
      </trkpt>
      <trkpt lat="46.99622" lon="-0.98215">
        <ele>78.1</ele>
        <time>2025-08-25T10:38:20Z</time>
      </trkpt>
      <trkpt lat="46.99622" lon="-0.98214">
        <ele>78.1</ele>
        <time>2025-08-25T10:38:21Z</time>
      </trkpt>
      <trkpt lat="46.99622" lon="-0.98212">
        <ele>78.1</ele>
        <time>2025-08-25T10:38:22Z</time>
      </trkpt>
      <trkpt lat="46.99622" lon="-0.9821">
        <ele>78.2</ele>
        <time>2025-08-25T10:38:23Z</time>
      </trkpt>
      <trkpt lat="46.99622" lon="-0.98208">
        <ele>78.2</ele>
        <time>2025-08-25T10:38:24Z</time>
      </trkpt>
      <trkpt lat="46.99621" lon="-0.98206">
        <ele>78.3</ele>
        <time>2025-08-25T10:38:25Z</time>
      </trkpt>
      <trkpt lat="46.9962" lon="-0.98203">
        <ele>78.3</ele>
        <time>2025-08-25T10:38:26Z</time>
      </trkpt>
      <trkpt lat="46.99619" lon="-0.98201">
        <ele>78.3</ele>
        <time>2025-08-25T10:38:27Z</time>
      </trkpt>
      <trkpt lat="46.99619" lon="-0.98199">
        <ele>78.3</ele>
        <time>2025-08-25T10:38:28Z</time>
      </trkpt>
      <trkpt lat="46.99618" lon="-0.98197">
        <ele>78.3</ele>
        <time>2025-08-25T10:38:29Z</time>
      </trkpt>
      <trkpt lat="46.99617" lon="-0.98195">
        <ele>78.3</ele>
        <time>2025-08-25T10:38:30Z</time>
      </trkpt>
      <trkpt lat="46.99616" lon="-0.98193">
        <ele>78.3</ele>
        <time>2025-08-25T10:38:31Z</time>
      </trkpt>
      <trkpt lat="46.99616" lon="-0.98191">
        <ele>78.3</ele>
        <time>2025-08-25T10:38:32Z</time>
      </trkpt>
      <trkpt lat="46.99615" lon="-0.98189">
        <ele>78.2</ele>
        <time>2025-08-25T10:38:33Z</time>
      </trkpt>
      <trkpt lat="46.99614" lon="-0.98187">
        <ele>78.2</ele>
        <time>2025-08-25T10:38:34Z</time>
      </trkpt>
      <trkpt lat="46.99613" lon="-0.98185">
        <ele>78.1</ele>
        <time>2025-08-25T10:38:35Z</time>
      </trkpt>
      <trkpt lat="46.99612" lon="-0.98184">
        <ele>78.1</ele>
        <time>2025-08-25T10:38:36Z</time>
      </trkpt>
      <trkpt lat="46.99611" lon="-0.98182">
        <ele>78</ele>
        <time>2025-08-25T10:38:37Z</time>
      </trkpt>
      <trkpt lat="46.9961" lon="-0.9818">
        <ele>78</ele>
        <time>2025-08-25T10:38:38Z</time>
      </trkpt>
      <trkpt lat="46.99609" lon="-0.98178">
        <ele>77.9</ele>
        <time>2025-08-25T10:38:39Z</time>
      </trkpt>
      <trkpt lat="46.99609" lon="-0.98177">
        <ele>77.8</ele>
        <time>2025-08-25T10:38:40Z</time>
      </trkpt>
      <trkpt lat="46.99608" lon="-0.98175">
        <ele>77.8</ele>
        <time>2025-08-25T10:38:41Z</time>
      </trkpt>
      <trkpt lat="46.99607" lon="-0.98174">
        <ele>77.7</ele>
        <time>2025-08-25T10:38:42Z</time>
      </trkpt>
      <trkpt lat="46.99607" lon="-0.98172">
        <ele>77.6</ele>
        <time>2025-08-25T10:38:43Z</time>
      </trkpt>
      <trkpt lat="46.99606" lon="-0.9817">
        <ele>77.5</ele>
        <time>2025-08-25T10:38:44Z</time>
      </trkpt>
      <trkpt lat="46.99605" lon="-0.98169">
        <ele>77.5</ele>
        <time>2025-08-25T10:38:45Z</time>
      </trkpt>
      <trkpt lat="46.99605" lon="-0.98168">
        <ele>77.4</ele>
        <time>2025-08-25T10:38:46Z</time>
      </trkpt>
      <trkpt lat="46.99604" lon="-0.98167">
        <ele>77.3</ele>
        <time>2025-08-25T10:38:47Z</time>
      </trkpt>
      <trkpt lat="46.99604" lon="-0.98166">
        <ele>77.3</ele>
        <time>2025-08-25T10:38:48Z</time>
      </trkpt>
      <trkpt lat="46.99603" lon="-0.98165">
        <ele>77.2</ele>
        <time>2025-08-25T10:38:49Z</time>
      </trkpt>
      <trkpt lat="46.99602" lon="-0.98165">
        <ele>77.1</ele>
        <time>2025-08-25T10:38:50Z</time>
      </trkpt>
      <trkpt lat="46.99602" lon="-0.98164">
        <ele>77.1</ele>
        <time>2025-08-25T10:38:51Z</time>
      </trkpt>
      <trkpt lat="46.99601" lon="-0.98164">
        <ele>77</ele>
        <time>2025-08-25T10:38:52Z</time>
      </trkpt>
      <trkpt lat="46.99601" lon="-0.98164">
        <ele>77</ele>
        <time>2025-08-25T10:38:53Z</time>
      </trkpt>
      <trkpt lat="46.99601" lon="-0.98164">
        <ele>77</ele>
        <time>2025-08-25T10:38:54Z</time>
      </trkpt>
      <trkpt lat="46.996" lon="-0.98164">
        <ele>76.9</ele>
        <time>2025-08-25T10:38:55Z</time>
      </trkpt>
      <trkpt lat="46.996" lon="-0.98164">
        <ele>76.9</ele>
        <time>2025-08-25T10:38:56Z</time>
      </trkpt>
      <trkpt lat="46.99601" lon="-0.98164">
        <ele>76.9</ele>
        <time>2025-08-25T10:38:57Z</time>
      </trkpt>
      <trkpt lat="46.996" lon="-0.98163">
        <ele>76.9</ele>
        <time>2025-08-25T10:38:58Z</time>
      </trkpt>
      <trkpt lat="46.996" lon="-0.98163">
        <ele>76.8</ele>
        <time>2025-08-25T10:38:59Z</time>
      </trkpt>
      <trkpt lat="46.996" lon="-0.98162">
        <ele>76.8</ele>
        <time>2025-08-25T10:39:00Z</time>
      </trkpt>
      <trkpt lat="46.996" lon="-0.98162">
        <ele>76.8</ele>
        <time>2025-08-25T10:39:01Z</time>
      </trkpt>
      <trkpt lat="46.996" lon="-0.98162">
        <ele>76.7</ele>
        <time>2025-08-25T10:39:02Z</time>
      </trkpt>
      <trkpt lat="46.99601" lon="-0.98162">
        <ele>76.7</ele>
        <time>2025-08-25T10:39:03Z</time>
      </trkpt>
      <trkpt lat="46.99601" lon="-0.98162">
        <ele>76.7</ele>
        <time>2025-08-25T10:39:04Z</time>
      </trkpt>
      <trkpt lat="46.99601" lon="-0.98162">
        <ele>76.6</ele>
        <time>2025-08-25T10:39:05Z</time>
      </trkpt>
      <trkpt lat="46.99601" lon="-0.98162">
        <ele>76.6</ele>
        <time>2025-08-25T10:39:06Z</time>
      </trkpt>
      <trkpt lat="46.996" lon="-0.98161">
        <ele>76.6</ele>
        <time>2025-08-25T10:39:07Z</time>
      </trkpt>
      <trkpt lat="46.996" lon="-0.9816">
        <ele>76.4</ele>
        <time>2025-08-25T10:39:08Z</time>
      </trkpt>
      <trkpt lat="46.99599" lon="-0.98158">
        <ele>76.3</ele>
        <time>2025-08-25T10:39:09Z</time>
      </trkpt>
      <trkpt lat="46.99598" lon="-0.98157">
        <ele>76.1</ele>
        <time>2025-08-25T10:39:10Z</time>
      </trkpt>
      <trkpt lat="46.99596" lon="-0.98155">
        <ele>75.8</ele>
        <time>2025-08-25T10:39:11Z</time>
      </trkpt>
      <trkpt lat="46.99596" lon="-0.98154">
        <ele>75.7</ele>
        <time>2025-08-25T10:39:12Z</time>
      </trkpt>
      <trkpt lat="46.99595" lon="-0.98153">
        <ele>75.6</ele>
        <time>2025-08-25T10:39:13Z</time>
      </trkpt>
      <trkpt lat="46.99594" lon="-0.98151">
        <ele>75.4</ele>
        <time>2025-08-25T10:39:14Z</time>
      </trkpt>
      <trkpt lat="46.99593" lon="-0.98149">
        <ele>75.2</ele>
        <time>2025-08-25T10:39:15Z</time>
      </trkpt>
      <trkpt lat="46.99591" lon="-0.98147">
        <ele>75</ele>
        <time>2025-08-25T10:39:16Z</time>
      </trkpt>
      <trkpt lat="46.9959" lon="-0.98146">
        <ele>74.8</ele>
        <time>2025-08-25T10:39:17Z</time>
      </trkpt>
      <trkpt lat="46.99589" lon="-0.98144">
        <ele>74.7</ele>
        <time>2025-08-25T10:39:18Z</time>
      </trkpt>
      <trkpt lat="46.99588" lon="-0.98142">
        <ele>74.5</ele>
        <time>2025-08-25T10:39:19Z</time>
      </trkpt>
      <trkpt lat="46.99587" lon="-0.9814">
        <ele>74.4</ele>
        <time>2025-08-25T10:39:20Z</time>
      </trkpt>
      <trkpt lat="46.99586" lon="-0.98139">
        <ele>74.3</ele>
        <time>2025-08-25T10:39:21Z</time>
      </trkpt>
      <trkpt lat="46.99585" lon="-0.98137">
        <ele>74.3</ele>
        <time>2025-08-25T10:39:22Z</time>
      </trkpt>
      <trkpt lat="46.99584" lon="-0.98136">
        <ele>74.2</ele>
        <time>2025-08-25T10:39:23Z</time>
      </trkpt>
      <trkpt lat="46.99584" lon="-0.98135">
        <ele>74.2</ele>
        <time>2025-08-25T10:39:24Z</time>
      </trkpt>
      <trkpt lat="46.99583" lon="-0.98134">
        <ele>74.2</ele>
        <time>2025-08-25T10:39:25Z</time>
      </trkpt>
      <trkpt lat="46.99583" lon="-0.98133">
        <ele>74.1</ele>
        <time>2025-08-25T10:39:26Z</time>
      </trkpt>
      <trkpt lat="46.99582" lon="-0.98132">
        <ele>74.1</ele>
        <time>2025-08-25T10:39:27Z</time>
      </trkpt>
      <trkpt lat="46.99582" lon="-0.98131">
        <ele>74.1</ele>
        <time>2025-08-25T10:39:28Z</time>
      </trkpt>
      <trkpt lat="46.99581" lon="-0.9813">
        <ele>74.1</ele>
        <time>2025-08-25T10:39:29Z</time>
      </trkpt>
      <trkpt lat="46.99581" lon="-0.98128">
        <ele>74.1</ele>
        <time>2025-08-25T10:39:30Z</time>
      </trkpt>
      <trkpt lat="46.99581" lon="-0.98128">
        <ele>74.1</ele>
        <time>2025-08-25T10:39:31Z</time>
      </trkpt>
      <trkpt lat="46.9958" lon="-0.98127">
        <ele>74.1</ele>
        <time>2025-08-25T10:39:32Z</time>
      </trkpt>
      <trkpt lat="46.9958" lon="-0.98126">
        <ele>74.1</ele>
        <time>2025-08-25T10:39:33Z</time>
      </trkpt>
      <trkpt lat="46.99579" lon="-0.98125">
        <ele>74.1</ele>
        <time>2025-08-25T10:39:34Z</time>
      </trkpt>
      <trkpt lat="46.99578" lon="-0.98124">
        <ele>74.2</ele>
        <time>2025-08-25T10:39:35Z</time>
      </trkpt>
      <trkpt lat="46.99577" lon="-0.98123">
        <ele>74.2</ele>
        <time>2025-08-25T10:39:36Z</time>
      </trkpt>
      <trkpt lat="46.99577" lon="-0.98122">
        <ele>74.2</ele>
        <time>2025-08-25T10:39:37Z</time>
      </trkpt>
      <trkpt lat="46.99575" lon="-0.9812">
        <ele>74.3</ele>
        <time>2025-08-25T10:39:38Z</time>
      </trkpt>
      <trkpt lat="46.99574" lon="-0.98119">
        <ele>74.3</ele>
        <time>2025-08-25T10:39:39Z</time>
      </trkpt>
      <trkpt lat="46.99573" lon="-0.98119">
        <ele>74.4</ele>
        <time>2025-08-25T10:39:40Z</time>
      </trkpt>
      <trkpt lat="46.99573" lon="-0.98118">
        <ele>74.4</ele>
        <time>2025-08-25T10:39:41Z</time>
      </trkpt>
      <trkpt lat="46.99572" lon="-0.98117">
        <ele>74.4</ele>
        <time>2025-08-25T10:39:42Z</time>
      </trkpt>
      <trkpt lat="46.99571" lon="-0.98116">
        <ele>74.5</ele>
        <time>2025-08-25T10:39:43Z</time>
      </trkpt>
      <trkpt lat="46.9957" lon="-0.98114">
        <ele>74.5</ele>
        <time>2025-08-25T10:39:44Z</time>
      </trkpt>
      <trkpt lat="46.9957" lon="-0.98114">
        <ele>74.5</ele>
        <time>2025-08-25T10:39:45Z</time>
      </trkpt>
      <trkpt lat="46.99569" lon="-0.98113">
        <ele>74.5</ele>
        <time>2025-08-25T10:39:46Z</time>
      </trkpt>
      <trkpt lat="46.99568" lon="-0.98112">
        <ele>74.6</ele>
        <time>2025-08-25T10:39:47Z</time>
      </trkpt>
      <trkpt lat="46.99567" lon="-0.98111">
        <ele>74.6</ele>
        <time>2025-08-25T10:39:48Z</time>
      </trkpt>
      <trkpt lat="46.99567" lon="-0.9811">
        <ele>74.6</ele>
        <time>2025-08-25T10:39:49Z</time>
      </trkpt>
      <trkpt lat="46.99566" lon="-0.98108">
        <ele>74.6</ele>
        <time>2025-08-25T10:39:50Z</time>
      </trkpt>
      <trkpt lat="46.99565" lon="-0.98107">
        <ele>74.6</ele>
        <time>2025-08-25T10:39:51Z</time>
      </trkpt>
      <trkpt lat="46.99565" lon="-0.98106">
        <ele>74.7</ele>
        <time>2025-08-25T10:39:52Z</time>
      </trkpt>
      <trkpt lat="46.99564" lon="-0.98105">
        <ele>74.7</ele>
        <time>2025-08-25T10:39:53Z</time>
      </trkpt>
      <trkpt lat="46.99564" lon="-0.98104">
        <ele>74.7</ele>
        <time>2025-08-25T10:39:54Z</time>
      </trkpt>
      <trkpt lat="46.99564" lon="-0.98103">
        <ele>74.7</ele>
        <time>2025-08-25T10:39:55Z</time>
      </trkpt>
      <trkpt lat="46.99564" lon="-0.98102">
        <ele>74.7</ele>
        <time>2025-08-25T10:39:56Z</time>
      </trkpt>
      <trkpt lat="46.99563" lon="-0.98102">
        <ele>74.7</ele>
        <time>2025-08-25T10:39:57Z</time>
      </trkpt>
      <trkpt lat="46.99562" lon="-0.98101">
        <ele>74.6</ele>
        <time>2025-08-25T10:39:58Z</time>
      </trkpt>
      <trkpt lat="46.99561" lon="-0.98101">
        <ele>74.6</ele>
        <time>2025-08-25T10:39:59Z</time>
      </trkpt>
      <trkpt lat="46.9956" lon="-0.98101">
        <ele>74.6</ele>
        <time>2025-08-25T10:40:00Z</time>
      </trkpt>
      <trkpt lat="46.99559" lon="-0.981">
        <ele>74.6</ele>
        <time>2025-08-25T10:40:01Z</time>
      </trkpt>
      <trkpt lat="46.99558" lon="-0.981">
        <ele>74.6</ele>
        <time>2025-08-25T10:40:02Z</time>
      </trkpt>
      <trkpt lat="46.99557" lon="-0.981">
        <ele>74.5</ele>
        <time>2025-08-25T10:40:03Z</time>
      </trkpt>
      <trkpt lat="46.99556" lon="-0.981">
        <ele>74.5</ele>
        <time>2025-08-25T10:40:04Z</time>
      </trkpt>
      <trkpt lat="46.99556" lon="-0.98099">
        <ele>74.5</ele>
        <time>2025-08-25T10:40:05Z</time>
      </trkpt>
      <trkpt lat="46.99555" lon="-0.98099">
        <ele>74.4</ele>
        <time>2025-08-25T10:40:06Z</time>
      </trkpt>
      <trkpt lat="46.99554" lon="-0.98098">
        <ele>74.4</ele>
        <time>2025-08-25T10:40:07Z</time>
      </trkpt>
      <trkpt lat="46.99554" lon="-0.98097">
        <ele>74.4</ele>
        <time>2025-08-25T10:40:08Z</time>
      </trkpt>
      <trkpt lat="46.99553" lon="-0.98097">
        <ele>74.3</ele>
        <time>2025-08-25T10:40:09Z</time>
      </trkpt>
      <trkpt lat="46.99552" lon="-0.98096">
        <ele>74.3</ele>
        <time>2025-08-25T10:40:10Z</time>
      </trkpt>
      <trkpt lat="46.99552" lon="-0.98095">
        <ele>74.2</ele>
        <time>2025-08-25T10:40:11Z</time>
      </trkpt>
      <trkpt lat="46.99551" lon="-0.98094">
        <ele>74.1</ele>
        <time>2025-08-25T10:40:12Z</time>
      </trkpt>
      <trkpt lat="46.9955" lon="-0.98093">
        <ele>74</ele>
        <time>2025-08-25T10:40:13Z</time>
      </trkpt>
      <trkpt lat="46.99549" lon="-0.98093">
        <ele>73.9</ele>
        <time>2025-08-25T10:40:14Z</time>
      </trkpt>
      <trkpt lat="46.99548" lon="-0.98092">
        <ele>73.8</ele>
        <time>2025-08-25T10:40:15Z</time>
      </trkpt>
      <trkpt lat="46.99547" lon="-0.98092">
        <ele>73.7</ele>
        <time>2025-08-25T10:40:16Z</time>
      </trkpt>
      <trkpt lat="46.99547" lon="-0.98091">
        <ele>73.6</ele>
        <time>2025-08-25T10:40:17Z</time>
      </trkpt>
      <trkpt lat="46.99547" lon="-0.98091">
        <ele>73.6</ele>
        <time>2025-08-25T10:40:18Z</time>
      </trkpt>
      <trkpt lat="46.99547" lon="-0.9809">
        <ele>73.6</ele>
        <time>2025-08-25T10:40:19Z</time>
      </trkpt>
      <trkpt lat="46.99547" lon="-0.98091">
        <ele>73.5</ele>
        <time>2025-08-25T10:40:20Z</time>
      </trkpt>
      <trkpt lat="46.99547" lon="-0.98091">
        <ele>73.5</ele>
        <time>2025-08-25T10:40:21Z</time>
      </trkpt>
      <trkpt lat="46.99547" lon="-0.98092">
        <ele>73.4</ele>
        <time>2025-08-25T10:40:22Z</time>
      </trkpt>
      <trkpt lat="46.99547" lon="-0.98092">
        <ele>73.4</ele>
        <time>2025-08-25T10:40:23Z</time>
      </trkpt>
      <trkpt lat="46.99546" lon="-0.98092">
        <ele>73.4</ele>
        <time>2025-08-25T10:40:24Z</time>
      </trkpt>
      <trkpt lat="46.99546" lon="-0.98092">
        <ele>73.4</ele>
        <time>2025-08-25T10:40:25Z</time>
      </trkpt>
      <trkpt lat="46.99546" lon="-0.98092">
        <ele>73.4</ele>
        <time>2025-08-25T10:40:26Z</time>
      </trkpt>
      <trkpt lat="46.99546" lon="-0.98092">
        <ele>73.4</ele>
        <time>2025-08-25T10:40:27Z</time>
      </trkpt>
      <trkpt lat="46.99546" lon="-0.98092">
        <ele>73.3</ele>
        <time>2025-08-25T10:40:28Z</time>
      </trkpt>
      <trkpt lat="46.99546" lon="-0.98092">
        <ele>73.3</ele>
        <time>2025-08-25T10:40:29Z</time>
      </trkpt>
      <trkpt lat="46.99546" lon="-0.98092">
        <ele>73.3</ele>
        <time>2025-08-25T10:40:30Z</time>
      </trkpt>
      <trkpt lat="46.99545" lon="-0.98092">
        <ele>73.2</ele>
        <time>2025-08-25T10:40:31Z</time>
      </trkpt>
      <trkpt lat="46.99545" lon="-0.98092">
        <ele>73.2</ele>
        <time>2025-08-25T10:40:32Z</time>
      </trkpt>
      <trkpt lat="46.99545" lon="-0.98092">
        <ele>73.1</ele>
        <time>2025-08-25T10:40:33Z</time>
      </trkpt>
      <trkpt lat="46.99545" lon="-0.98092">
        <ele>73.1</ele>
        <time>2025-08-25T10:40:34Z</time>
      </trkpt>
      <trkpt lat="46.99544" lon="-0.98092">
        <ele>73</ele>
        <time>2025-08-25T10:40:35Z</time>
      </trkpt>
      <trkpt lat="46.99544" lon="-0.98092">
        <ele>72.9</ele>
        <time>2025-08-25T10:40:36Z</time>
      </trkpt>
      <trkpt lat="46.99543" lon="-0.98092">
        <ele>72.9</ele>
        <time>2025-08-25T10:40:37Z</time>
      </trkpt>
      <trkpt lat="46.99543" lon="-0.98092">
        <ele>72.8</ele>
        <time>2025-08-25T10:40:38Z</time>
      </trkpt>
      <trkpt lat="46.99543" lon="-0.98092">
        <ele>72.8</ele>
        <time>2025-08-25T10:40:39Z</time>
      </trkpt>
      <trkpt lat="46.99543" lon="-0.98092">
        <ele>72.8</ele>
        <time>2025-08-25T10:40:40Z</time>
      </trkpt>
      <trkpt lat="46.99543" lon="-0.98092">
        <ele>72.8</ele>
        <time>2025-08-25T10:40:41Z</time>
      </trkpt>
      <trkpt lat="46.99543" lon="-0.98092">
        <ele>72.8</ele>
        <time>2025-08-25T10:40:42Z</time>
      </trkpt>
      <trkpt lat="46.99543" lon="-0.98092">
        <ele>72.7</ele>
        <time>2025-08-25T10:40:43Z</time>
      </trkpt>
      <trkpt lat="46.99543" lon="-0.98093">
        <ele>72.7</ele>
        <time>2025-08-25T10:40:44Z</time>
      </trkpt>
      <trkpt lat="46.99543" lon="-0.98093">
        <ele>72.6</ele>
        <time>2025-08-25T10:40:45Z</time>
      </trkpt>
      <trkpt lat="46.99542" lon="-0.98093">
        <ele>72.5</ele>
        <time>2025-08-25T10:40:46Z</time>
      </trkpt>
      <trkpt lat="46.99542" lon="-0.98093">
        <ele>72.5</ele>
        <time>2025-08-25T10:40:47Z</time>
      </trkpt>
      <trkpt lat="46.99542" lon="-0.98093">
        <ele>72.5</ele>
        <time>2025-08-25T10:40:48Z</time>
      </trkpt>
      <trkpt lat="46.99542" lon="-0.98093">
        <ele>72.4</ele>
        <time>2025-08-25T10:40:49Z</time>
      </trkpt>
      <trkpt lat="46.99541" lon="-0.98093">
        <ele>72.4</ele>
        <time>2025-08-25T10:40:50Z</time>
      </trkpt>
      <trkpt lat="46.99541" lon="-0.98093">
        <ele>72.3</ele>
        <time>2025-08-25T10:40:51Z</time>
      </trkpt>
      <trkpt lat="46.99541" lon="-0.98093">
        <ele>72.3</ele>
        <time>2025-08-25T10:40:52Z</time>
      </trkpt>
      <trkpt lat="46.99541" lon="-0.98093">
        <ele>72.3</ele>
        <time>2025-08-25T10:40:53Z</time>
      </trkpt>
      <trkpt lat="46.99541" lon="-0.98093">
        <ele>72.2</ele>
        <time>2025-08-25T10:40:54Z</time>
      </trkpt>
      <trkpt lat="46.99541" lon="-0.98093">
        <ele>72.2</ele>
        <time>2025-08-25T10:40:55Z</time>
      </trkpt>
      <trkpt lat="46.9954" lon="-0.98093">
        <ele>72.2</ele>
        <time>2025-08-25T10:40:56Z</time>
      </trkpt>
      <trkpt lat="46.9954" lon="-0.98093">
        <ele>72.1</ele>
        <time>2025-08-25T10:40:57Z</time>
      </trkpt>
      <trkpt lat="46.9954" lon="-0.98093">
        <ele>72.1</ele>
        <time>2025-08-25T10:40:58Z</time>
      </trkpt>
      <trkpt lat="46.9954" lon="-0.98093">
        <ele>72.1</ele>
        <time>2025-08-25T10:40:59Z</time>
      </trkpt>
      <trkpt lat="46.9954" lon="-0.98093">
        <ele>72</ele>
        <time>2025-08-25T10:41:00Z</time>
      </trkpt>
      <trkpt lat="46.9954" lon="-0.98092">
        <ele>71.9</ele>
        <time>2025-08-25T10:41:01Z</time>
      </trkpt>
      <trkpt lat="46.9954" lon="-0.98092">
        <ele>71.9</ele>
        <time>2025-08-25T10:41:02Z</time>
      </trkpt>
      <trkpt lat="46.9954" lon="-0.98091">
        <ele>71.8</ele>
        <time>2025-08-25T10:41:03Z</time>
      </trkpt>
      <trkpt lat="46.9954" lon="-0.98091">
        <ele>71.7</ele>
        <time>2025-08-25T10:41:04Z</time>
      </trkpt>
      <trkpt lat="46.99541" lon="-0.9809">
        <ele>71.5</ele>
        <time>2025-08-25T10:41:05Z</time>
      </trkpt>
      <trkpt lat="46.99541" lon="-0.98088">
        <ele>71.2</ele>
        <time>2025-08-25T10:41:06Z</time>
      </trkpt>
      <trkpt lat="46.99541" lon="-0.98087">
        <ele>71.1</ele>
        <time>2025-08-25T10:41:07Z</time>
      </trkpt>
      <trkpt lat="46.99541" lon="-0.98085">
        <ele>70.8</ele>
        <time>2025-08-25T10:41:08Z</time>
      </trkpt>
      <trkpt lat="46.9954" lon="-0.98084">
        <ele>70.5</ele>
        <time>2025-08-25T10:41:09Z</time>
      </trkpt>
      <trkpt lat="46.99539" lon="-0.98083">
        <ele>70.3</ele>
        <time>2025-08-25T10:41:10Z</time>
      </trkpt>
      <trkpt lat="46.99538" lon="-0.98081">
        <ele>70</ele>
        <time>2025-08-25T10:41:11Z</time>
      </trkpt>
      <trkpt lat="46.99538" lon="-0.9808">
        <ele>69.9</ele>
        <time>2025-08-25T10:41:12Z</time>
      </trkpt>
      <trkpt lat="46.99537" lon="-0.98079">
        <ele>69.7</ele>
        <time>2025-08-25T10:41:13Z</time>
      </trkpt>
      <trkpt lat="46.99536" lon="-0.98078">
        <ele>69.5</ele>
        <time>2025-08-25T10:41:14Z</time>
      </trkpt>
      <trkpt lat="46.99536" lon="-0.98077">
        <ele>69.4</ele>
        <time>2025-08-25T10:41:15Z</time>
      </trkpt>
      <trkpt lat="46.99535" lon="-0.98076">
        <ele>69.3</ele>
        <time>2025-08-25T10:41:16Z</time>
      </trkpt>
      <trkpt lat="46.99535" lon="-0.98075">
        <ele>69.2</ele>
        <time>2025-08-25T10:41:17Z</time>
      </trkpt>
      <trkpt lat="46.99535" lon="-0.98074">
        <ele>69</ele>
        <time>2025-08-25T10:41:18Z</time>
      </trkpt>
      <trkpt lat="46.99535" lon="-0.98073">
        <ele>69</ele>
        <time>2025-08-25T10:41:19Z</time>
      </trkpt>
      <trkpt lat="46.99535" lon="-0.98072">
        <ele>68.9</ele>
        <time>2025-08-25T10:41:20Z</time>
      </trkpt>
      <trkpt lat="46.99534" lon="-0.98071">
        <ele>68.8</ele>
        <time>2025-08-25T10:41:21Z</time>
      </trkpt>
      <trkpt lat="46.99534" lon="-0.98071">
        <ele>68.8</ele>
        <time>2025-08-25T10:41:22Z</time>
      </trkpt>
      <trkpt lat="46.99534" lon="-0.98069">
        <ele>68.7</ele>
        <time>2025-08-25T10:41:23Z</time>
      </trkpt>
      <trkpt lat="46.99533" lon="-0.98068">
        <ele>68.6</ele>
        <time>2025-08-25T10:41:24Z</time>
      </trkpt>
      <trkpt lat="46.99533" lon="-0.98067">
        <ele>68.5</ele>
        <time>2025-08-25T10:41:25Z</time>
      </trkpt>
      <trkpt lat="46.99533" lon="-0.98065">
        <ele>68.4</ele>
        <time>2025-08-25T10:41:26Z</time>
      </trkpt>
      <trkpt lat="46.99533" lon="-0.98064">
        <ele>68.4</ele>
        <time>2025-08-25T10:41:27Z</time>
      </trkpt>
      <trkpt lat="46.99533" lon="-0.98062">
        <ele>68.3</ele>
        <time>2025-08-25T10:41:28Z</time>
      </trkpt>
      <trkpt lat="46.99533" lon="-0.9806">
        <ele>68.3</ele>
        <time>2025-08-25T10:41:29Z</time>
      </trkpt>
      <trkpt lat="46.99533" lon="-0.98059">
        <ele>68.2</ele>
        <time>2025-08-25T10:41:30Z</time>
      </trkpt>
      <trkpt lat="46.99533" lon="-0.98057">
        <ele>68.2</ele>
        <time>2025-08-25T10:41:31Z</time>
      </trkpt>
      <trkpt lat="46.99532" lon="-0.98055">
        <ele>68.2</ele>
        <time>2025-08-25T10:41:32Z</time>
      </trkpt>
      <trkpt lat="46.99532" lon="-0.98054">
        <ele>68.1</ele>
        <time>2025-08-25T10:41:33Z</time>
      </trkpt>
      <trkpt lat="46.99532" lon="-0.98052">
        <ele>68.1</ele>
        <time>2025-08-25T10:41:34Z</time>
      </trkpt>
      <trkpt lat="46.99532" lon="-0.98051">
        <ele>68.1</ele>
        <time>2025-08-25T10:41:35Z</time>
      </trkpt>
      <trkpt lat="46.99531" lon="-0.9805">
        <ele>68.2</ele>
        <time>2025-08-25T10:41:36Z</time>
      </trkpt>
      <trkpt lat="46.99531" lon="-0.9805">
        <ele>68.3</ele>
        <time>2025-08-25T10:41:37Z</time>
      </trkpt>
      <trkpt lat="46.9953" lon="-0.98049">
        <ele>68.3</ele>
        <time>2025-08-25T10:41:38Z</time>
      </trkpt>
      <trkpt lat="46.9953" lon="-0.98049">
        <ele>68.4</ele>
        <time>2025-08-25T10:41:39Z</time>
      </trkpt>
      <trkpt lat="46.99529" lon="-0.98048">
        <ele>68.5</ele>
        <time>2025-08-25T10:41:40Z</time>
      </trkpt>
      <trkpt lat="46.99528" lon="-0.98047">
        <ele>68.6</ele>
        <time>2025-08-25T10:41:41Z</time>
      </trkpt>
      <trkpt lat="46.99528" lon="-0.98046">
        <ele>68.6</ele>
        <time>2025-08-25T10:41:42Z</time>
      </trkpt>
      <trkpt lat="46.99527" lon="-0.98046">
        <ele>68.7</ele>
        <time>2025-08-25T10:41:43Z</time>
      </trkpt>
      <trkpt lat="46.99527" lon="-0.98045">
        <ele>68.8</ele>
        <time>2025-08-25T10:41:44Z</time>
      </trkpt>
      <trkpt lat="46.99527" lon="-0.98045">
        <ele>68.8</ele>
        <time>2025-08-25T10:41:45Z</time>
      </trkpt>
      <trkpt lat="46.99526" lon="-0.98044">
        <ele>68.9</ele>
        <time>2025-08-25T10:41:46Z</time>
      </trkpt>
      <trkpt lat="46.99526" lon="-0.98044">
        <ele>68.9</ele>
        <time>2025-08-25T10:41:47Z</time>
      </trkpt>
      <trkpt lat="46.99526" lon="-0.98044">
        <ele>68.9</ele>
        <time>2025-08-25T10:41:48Z</time>
      </trkpt>
      <trkpt lat="46.99526" lon="-0.98043">
        <ele>69</ele>
        <time>2025-08-25T10:41:49Z</time>
      </trkpt>
      <trkpt lat="46.99526" lon="-0.98043">
        <ele>69</ele>
        <time>2025-08-25T10:41:50Z</time>
      </trkpt>
      <trkpt lat="46.99526" lon="-0.98042">
        <ele>69.1</ele>
        <time>2025-08-25T10:41:51Z</time>
      </trkpt>
      <trkpt lat="46.99526" lon="-0.98042">
        <ele>69.1</ele>
        <time>2025-08-25T10:41:52Z</time>
      </trkpt>
      <trkpt lat="46.99525" lon="-0.98041">
        <ele>69.2</ele>
        <time>2025-08-25T10:41:53Z</time>
      </trkpt>
      <trkpt lat="46.99525" lon="-0.9804">
        <ele>69.2</ele>
        <time>2025-08-25T10:41:54Z</time>
      </trkpt>
      <trkpt lat="46.99525" lon="-0.98039">
        <ele>69.3</ele>
        <time>2025-08-25T10:41:55Z</time>
      </trkpt>
      <trkpt lat="46.99524" lon="-0.98037">
        <ele>69.5</ele>
        <time>2025-08-25T10:41:56Z</time>
      </trkpt>
      <trkpt lat="46.99523" lon="-0.98037">
        <ele>69.6</ele>
        <time>2025-08-25T10:41:57Z</time>
      </trkpt>
      <trkpt lat="46.99523" lon="-0.98036">
        <ele>69.7</ele>
        <time>2025-08-25T10:41:58Z</time>
      </trkpt>
      <trkpt lat="46.99523" lon="-0.98035">
        <ele>69.7</ele>
        <time>2025-08-25T10:41:59Z</time>
      </trkpt>
      <trkpt lat="46.99523" lon="-0.98033">
        <ele>69.9</ele>
        <time>2025-08-25T10:42:00Z</time>
      </trkpt>
      <trkpt lat="46.99522" lon="-0.98031">
        <ele>70.1</ele>
        <time>2025-08-25T10:42:01Z</time>
      </trkpt>
      <trkpt lat="46.99522" lon="-0.98029">
        <ele>70.2</ele>
        <time>2025-08-25T10:42:02Z</time>
      </trkpt>
      <trkpt lat="46.99521" lon="-0.98028">
        <ele>70.4</ele>
        <time>2025-08-25T10:42:03Z</time>
      </trkpt>
      <trkpt lat="46.99521" lon="-0.98026">
        <ele>70.5</ele>
        <time>2025-08-25T10:42:04Z</time>
      </trkpt>
      <trkpt lat="46.9952" lon="-0.98025">
        <ele>70.6</ele>
        <time>2025-08-25T10:42:05Z</time>
      </trkpt>
      <trkpt lat="46.99519" lon="-0.98024">
        <ele>70.7</ele>
        <time>2025-08-25T10:42:06Z</time>
      </trkpt>
      <trkpt lat="46.99519" lon="-0.98023">
        <ele>70.9</ele>
        <time>2025-08-25T10:42:07Z</time>
      </trkpt>
      <trkpt lat="46.99518" lon="-0.98022">
        <ele>71</ele>
        <time>2025-08-25T10:42:08Z</time>
      </trkpt>
      <trkpt lat="46.99517" lon="-0.9802">
        <ele>71.2</ele>
        <time>2025-08-25T10:42:09Z</time>
      </trkpt>
      <trkpt lat="46.99516" lon="-0.98019">
        <ele>71.3</ele>
        <time>2025-08-25T10:42:10Z</time>
      </trkpt>
      <trkpt lat="46.99515" lon="-0.98017">
        <ele>71.5</ele>
        <time>2025-08-25T10:42:11Z</time>
      </trkpt>
      <trkpt lat="46.99514" lon="-0.98016">
        <ele>71.7</ele>
        <time>2025-08-25T10:42:12Z</time>
      </trkpt>
      <trkpt lat="46.99513" lon="-0.98015">
        <ele>71.9</ele>
        <time>2025-08-25T10:42:13Z</time>
      </trkpt>
      <trkpt lat="46.99513" lon="-0.98014">
        <ele>72</ele>
        <time>2025-08-25T10:42:14Z</time>
      </trkpt>
      <trkpt lat="46.99513" lon="-0.98013">
        <ele>72</ele>
        <time>2025-08-25T10:42:15Z</time>
      </trkpt>
      <trkpt lat="46.99513" lon="-0.98013">
        <ele>72.1</ele>
        <time>2025-08-25T10:42:16Z</time>
      </trkpt>
      <trkpt lat="46.99513" lon="-0.98013">
        <ele>72.1</ele>
        <time>2025-08-25T10:42:17Z</time>
      </trkpt>
      <trkpt lat="46.99513" lon="-0.98013">
        <ele>72.2</ele>
        <time>2025-08-25T10:42:18Z</time>
      </trkpt>
      <trkpt lat="46.99512" lon="-0.98013">
        <ele>72.3</ele>
        <time>2025-08-25T10:42:19Z</time>
      </trkpt>
      <trkpt lat="46.99511" lon="-0.98013">
        <ele>72.3</ele>
        <time>2025-08-25T10:42:20Z</time>
      </trkpt>
      <trkpt lat="46.99511" lon="-0.98013">
        <ele>72.4</ele>
        <time>2025-08-25T10:42:21Z</time>
      </trkpt>
      <trkpt lat="46.99511" lon="-0.98013">
        <ele>72.4</ele>
        <time>2025-08-25T10:42:22Z</time>
      </trkpt>
      <trkpt lat="46.9951" lon="-0.98012">
        <ele>72.5</ele>
        <time>2025-08-25T10:42:23Z</time>
      </trkpt>
      <trkpt lat="46.9951" lon="-0.98012">
        <ele>72.5</ele>
        <time>2025-08-25T10:42:24Z</time>
      </trkpt>
      <trkpt lat="46.99509" lon="-0.98012">
        <ele>72.6</ele>
        <time>2025-08-25T10:42:25Z</time>
      </trkpt>
      <trkpt lat="46.99509" lon="-0.98012">
        <ele>72.6</ele>
        <time>2025-08-25T10:42:26Z</time>
      </trkpt>
      <trkpt lat="46.99509" lon="-0.98012">
        <ele>72.7</ele>
        <time>2025-08-25T10:42:27Z</time>
      </trkpt>
      <trkpt lat="46.99509" lon="-0.98011">
        <ele>72.7</ele>
        <time>2025-08-25T10:42:28Z</time>
      </trkpt>
      <trkpt lat="46.99508" lon="-0.98011">
        <ele>72.7</ele>
        <time>2025-08-25T10:42:29Z</time>
      </trkpt>
      <trkpt lat="46.99508" lon="-0.98011">
        <ele>72.8</ele>
        <time>2025-08-25T10:42:30Z</time>
      </trkpt>
      <trkpt lat="46.99508" lon="-0.98011">
        <ele>72.8</ele>
        <time>2025-08-25T10:42:31Z</time>
      </trkpt>
      <trkpt lat="46.99507" lon="-0.9801">
        <ele>73</ele>
        <time>2025-08-25T10:42:32Z</time>
      </trkpt>
      <trkpt lat="46.99506" lon="-0.98009">
        <ele>73.1</ele>
        <time>2025-08-25T10:42:33Z</time>
      </trkpt>
      <trkpt lat="46.99506" lon="-0.98009">
        <ele>73.1</ele>
        <time>2025-08-25T10:42:34Z</time>
      </trkpt>
      <trkpt lat="46.99506" lon="-0.98009">
        <ele>73.1</ele>
        <time>2025-08-25T10:42:35Z</time>
      </trkpt>
      <trkpt lat="46.99506" lon="-0.98009">
        <ele>73.1</ele>
        <time>2025-08-25T10:42:36Z</time>
      </trkpt>
      <trkpt lat="46.99506" lon="-0.98009">
        <ele>73.2</ele>
        <time>2025-08-25T10:42:37Z</time>
      </trkpt>
      <trkpt lat="46.99506" lon="-0.98009">
        <ele>73.2</ele>
        <time>2025-08-25T10:42:38Z</time>
      </trkpt>
      <trkpt lat="46.99506" lon="-0.98009">
        <ele>73.2</ele>
        <time>2025-08-25T10:42:39Z</time>
      </trkpt>
      <trkpt lat="46.99505" lon="-0.98009">
        <ele>73.2</ele>
        <time>2025-08-25T10:42:40Z</time>
      </trkpt>
      <trkpt lat="46.99506" lon="-0.98009">
        <ele>73.2</ele>
        <time>2025-08-25T10:42:41Z</time>
      </trkpt>
      <trkpt lat="46.99505" lon="-0.98009">
        <ele>73.2</ele>
        <time>2025-08-25T10:42:42Z</time>
      </trkpt>
      <trkpt lat="46.99505" lon="-0.98009">
        <ele>73.2</ele>
        <time>2025-08-25T10:42:43Z</time>
      </trkpt>
      <trkpt lat="46.99505" lon="-0.98009">
        <ele>73.2</ele>
        <time>2025-08-25T10:42:44Z</time>
      </trkpt>
      <trkpt lat="46.99505" lon="-0.98009">
        <ele>73.3</ele>
        <time>2025-08-25T10:42:45Z</time>
      </trkpt>
      <trkpt lat="46.99505" lon="-0.98009">
        <ele>73.3</ele>
        <time>2025-08-25T10:42:46Z</time>
      </trkpt>
      <trkpt lat="46.99505" lon="-0.98009">
        <ele>73.3</ele>
        <time>2025-08-25T10:42:47Z</time>
      </trkpt>
      <trkpt lat="46.99506" lon="-0.98009">
        <ele>73.3</ele>
        <time>2025-08-25T10:42:48Z</time>
      </trkpt>
      <trkpt lat="46.99506" lon="-0.98008">
        <ele>73.3</ele>
        <time>2025-08-25T10:42:49Z</time>
      </trkpt>
      <trkpt lat="46.99506" lon="-0.98008">
        <ele>73.4</ele>
        <time>2025-08-25T10:42:50Z</time>
      </trkpt>
      <trkpt lat="46.99506" lon="-0.98008">
        <ele>73.4</ele>
        <time>2025-08-25T10:42:51Z</time>
      </trkpt>
      <trkpt lat="46.99506" lon="-0.98008">
        <ele>73.4</ele>
        <time>2025-08-25T10:42:52Z</time>
      </trkpt>
      <trkpt lat="46.99506" lon="-0.98008">
        <ele>73.4</ele>
        <time>2025-08-25T10:42:53Z</time>
      </trkpt>
      <trkpt lat="46.99505" lon="-0.98007">
        <ele>73.4</ele>
        <time>2025-08-25T10:42:54Z</time>
      </trkpt>
      <trkpt lat="46.99505" lon="-0.98007">
        <ele>73.5</ele>
        <time>2025-08-25T10:42:55Z</time>
      </trkpt>
      <trkpt lat="46.99505" lon="-0.98007">
        <ele>73.5</ele>
        <time>2025-08-25T10:42:56Z</time>
      </trkpt>
      <trkpt lat="46.99505" lon="-0.98007">
        <ele>73.5</ele>
        <time>2025-08-25T10:42:57Z</time>
      </trkpt>
      <trkpt lat="46.99505" lon="-0.98007">
        <ele>73.5</ele>
        <time>2025-08-25T10:42:58Z</time>
      </trkpt>
      <trkpt lat="46.99505" lon="-0.98007">
        <ele>73.5</ele>
        <time>2025-08-25T10:42:59Z</time>
      </trkpt>
      <trkpt lat="46.99505" lon="-0.98007">
        <ele>73.5</ele>
        <time>2025-08-25T10:43:00Z</time>
      </trkpt>
      <trkpt lat="46.99505" lon="-0.98007">
        <ele>73.5</ele>
        <time>2025-08-25T10:43:01Z</time>
      </trkpt>
      <trkpt lat="46.99505" lon="-0.98007">
        <ele>73.5</ele>
        <time>2025-08-25T10:43:02Z</time>
      </trkpt>
      <trkpt lat="46.99505" lon="-0.98006">
        <ele>73.6</ele>
        <time>2025-08-25T10:43:03Z</time>
      </trkpt>
      <trkpt lat="46.99505" lon="-0.98005">
        <ele>73.7</ele>
        <time>2025-08-25T10:43:04Z</time>
      </trkpt>
      <trkpt lat="46.99504" lon="-0.98004">
        <ele>73.8</ele>
        <time>2025-08-25T10:43:05Z</time>
      </trkpt>
      <trkpt lat="46.99503" lon="-0.98003">
        <ele>73.9</ele>
        <time>2025-08-25T10:43:06Z</time>
      </trkpt>
      <trkpt lat="46.99503" lon="-0.98003">
        <ele>74</ele>
        <time>2025-08-25T10:43:07Z</time>
      </trkpt>
      <trkpt lat="46.99502" lon="-0.98002">
        <ele>74.1</ele>
        <time>2025-08-25T10:43:08Z</time>
      </trkpt>
      <trkpt lat="46.99501" lon="-0.98002">
        <ele>74.2</ele>
        <time>2025-08-25T10:43:09Z</time>
      </trkpt>
      <trkpt lat="46.995" lon="-0.98001">
        <ele>74.4</ele>
        <time>2025-08-25T10:43:10Z</time>
      </trkpt>
      <trkpt lat="46.99498" lon="-0.97998">
        <ele>74.7</ele>
        <time>2025-08-25T10:43:11Z</time>
      </trkpt>
      <trkpt lat="46.99497" lon="-0.97998">
        <ele>74.8</ele>
        <time>2025-08-25T10:43:12Z</time>
      </trkpt>
      <trkpt lat="46.99497" lon="-0.97997">
        <ele>74.9</ele>
        <time>2025-08-25T10:43:13Z</time>
      </trkpt>
      <trkpt lat="46.99495" lon="-0.97995">
        <ele>75.1</ele>
        <time>2025-08-25T10:43:14Z</time>
      </trkpt>
      <trkpt lat="46.99495" lon="-0.97994">
        <ele>75.2</ele>
        <time>2025-08-25T10:43:15Z</time>
      </trkpt>
      <trkpt lat="46.99494" lon="-0.97993">
        <ele>75.3</ele>
        <time>2025-08-25T10:43:16Z</time>
      </trkpt>
      <trkpt lat="46.99493" lon="-0.97992">
        <ele>75.5</ele>
        <time>2025-08-25T10:43:17Z</time>
      </trkpt>
      <trkpt lat="46.99493" lon="-0.97991">
        <ele>75.6</ele>
        <time>2025-08-25T10:43:18Z</time>
      </trkpt>
      <trkpt lat="46.99492" lon="-0.97991">
        <ele>75.7</ele>
        <time>2025-08-25T10:43:19Z</time>
      </trkpt>
      <trkpt lat="46.99491" lon="-0.9799">
        <ele>75.8</ele>
        <time>2025-08-25T10:43:20Z</time>
      </trkpt>
      <trkpt lat="46.9949" lon="-0.9799">
        <ele>75.9</ele>
        <time>2025-08-25T10:43:21Z</time>
      </trkpt>
      <trkpt lat="46.99489" lon="-0.97989">
        <ele>76.1</ele>
        <time>2025-08-25T10:43:22Z</time>
      </trkpt>
      <trkpt lat="46.99487" lon="-0.97989">
        <ele>76.3</ele>
        <time>2025-08-25T10:43:23Z</time>
      </trkpt>
      <trkpt lat="46.99486" lon="-0.97988">
        <ele>76.5</ele>
        <time>2025-08-25T10:43:24Z</time>
      </trkpt>
      <trkpt lat="46.99486" lon="-0.97988">
        <ele>76.6</ele>
        <time>2025-08-25T10:43:25Z</time>
      </trkpt>
      <trkpt lat="46.99484" lon="-0.97987">
        <ele>76.8</ele>
        <time>2025-08-25T10:43:26Z</time>
      </trkpt>
      <trkpt lat="46.99483" lon="-0.97986">
        <ele>76.9</ele>
        <time>2025-08-25T10:43:27Z</time>
      </trkpt>
      <trkpt lat="46.99483" lon="-0.97986">
        <ele>77</ele>
        <time>2025-08-25T10:43:28Z</time>
      </trkpt>
      <trkpt lat="46.99483" lon="-0.97985">
        <ele>77.1</ele>
        <time>2025-08-25T10:43:29Z</time>
      </trkpt>
      <trkpt lat="46.99482" lon="-0.97985">
        <ele>77.2</ele>
        <time>2025-08-25T10:43:30Z</time>
      </trkpt>
      <trkpt lat="46.99481" lon="-0.97984">
        <ele>77.4</ele>
        <time>2025-08-25T10:43:31Z</time>
      </trkpt>
      <trkpt lat="46.9948" lon="-0.97983">
        <ele>77.5</ele>
        <time>2025-08-25T10:43:32Z</time>
      </trkpt>
      <trkpt lat="46.99479" lon="-0.97983">
        <ele>77.7</ele>
        <time>2025-08-25T10:43:33Z</time>
      </trkpt>
      <trkpt lat="46.99478" lon="-0.97982">
        <ele>77.8</ele>
        <time>2025-08-25T10:43:34Z</time>
      </trkpt>
      <trkpt lat="46.99477" lon="-0.97982">
        <ele>78</ele>
        <time>2025-08-25T10:43:35Z</time>
      </trkpt>
      <trkpt lat="46.99476" lon="-0.97982">
        <ele>78.1</ele>
        <time>2025-08-25T10:43:36Z</time>
      </trkpt>
      <trkpt lat="46.99475" lon="-0.97982">
        <ele>78.2</ele>
        <time>2025-08-25T10:43:37Z</time>
      </trkpt>
      <trkpt lat="46.99475" lon="-0.97982">
        <ele>78.4</ele>
        <time>2025-08-25T10:43:38Z</time>
      </trkpt>
      <trkpt lat="46.99474" lon="-0.97982">
        <ele>78.5</ele>
        <time>2025-08-25T10:43:39Z</time>
      </trkpt>
      <trkpt lat="46.99473" lon="-0.97982">
        <ele>78.6</ele>
        <time>2025-08-25T10:43:40Z</time>
      </trkpt>
      <trkpt lat="46.99472" lon="-0.97982">
        <ele>78.8</ele>
        <time>2025-08-25T10:43:41Z</time>
      </trkpt>
      <trkpt lat="46.99471" lon="-0.97982">
        <ele>78.9</ele>
        <time>2025-08-25T10:43:42Z</time>
      </trkpt>
      <trkpt lat="46.9947" lon="-0.97983">
        <ele>79</ele>
        <time>2025-08-25T10:43:43Z</time>
      </trkpt>
      <trkpt lat="46.9947" lon="-0.97983">
        <ele>79.1</ele>
        <time>2025-08-25T10:43:44Z</time>
      </trkpt>
      <trkpt lat="46.99469" lon="-0.97983">
        <ele>79.2</ele>
        <time>2025-08-25T10:43:45Z</time>
      </trkpt>
      <trkpt lat="46.99468" lon="-0.97983">
        <ele>79.3</ele>
        <time>2025-08-25T10:43:46Z</time>
      </trkpt>
      <trkpt lat="46.99468" lon="-0.97984">
        <ele>79.5</ele>
        <time>2025-08-25T10:43:47Z</time>
      </trkpt>
      <trkpt lat="46.99467" lon="-0.97985">
        <ele>79.6</ele>
        <time>2025-08-25T10:43:48Z</time>
      </trkpt>
      <trkpt lat="46.99466" lon="-0.97986">
        <ele>79.7</ele>
        <time>2025-08-25T10:43:49Z</time>
      </trkpt>
      <trkpt lat="46.99466" lon="-0.97986">
        <ele>79.8</ele>
        <time>2025-08-25T10:43:50Z</time>
      </trkpt>
      <trkpt lat="46.99465" lon="-0.97987">
        <ele>79.9</ele>
        <time>2025-08-25T10:43:51Z</time>
      </trkpt>
      <trkpt lat="46.99464" lon="-0.97988">
        <ele>80</ele>
        <time>2025-08-25T10:43:52Z</time>
      </trkpt>
      <trkpt lat="46.99464" lon="-0.97988">
        <ele>80.1</ele>
        <time>2025-08-25T10:43:53Z</time>
      </trkpt>
      <trkpt lat="46.99463" lon="-0.97989">
        <ele>80.2</ele>
        <time>2025-08-25T10:43:54Z</time>
      </trkpt>
      <trkpt lat="46.99462" lon="-0.9799">
        <ele>80.4</ele>
        <time>2025-08-25T10:43:55Z</time>
      </trkpt>
      <trkpt lat="46.99462" lon="-0.9799">
        <ele>80.5</ele>
        <time>2025-08-25T10:43:56Z</time>
      </trkpt>
      <trkpt lat="46.99461" lon="-0.97991">
        <ele>80.6</ele>
        <time>2025-08-25T10:43:57Z</time>
      </trkpt>
      <trkpt lat="46.9946" lon="-0.97992">
        <ele>80.8</ele>
        <time>2025-08-25T10:43:58Z</time>
      </trkpt>
      <trkpt lat="46.99459" lon="-0.97992">
        <ele>80.9</ele>
        <time>2025-08-25T10:43:59Z</time>
      </trkpt>
      <trkpt lat="46.99458" lon="-0.97993">
        <ele>81</ele>
        <time>2025-08-25T10:44:00Z</time>
      </trkpt>
      <trkpt lat="46.99457" lon="-0.97994">
        <ele>81.2</ele>
        <time>2025-08-25T10:44:01Z</time>
      </trkpt>
      <trkpt lat="46.99456" lon="-0.97994">
        <ele>81.3</ele>
        <time>2025-08-25T10:44:02Z</time>
      </trkpt>
      <trkpt lat="46.99455" lon="-0.97995">
        <ele>81.5</ele>
        <time>2025-08-25T10:44:03Z</time>
      </trkpt>
      <trkpt lat="46.99454" lon="-0.97995">
        <ele>81.6</ele>
        <time>2025-08-25T10:44:04Z</time>
      </trkpt>
      <trkpt lat="46.99453" lon="-0.97996">
        <ele>81.8</ele>
        <time>2025-08-25T10:44:05Z</time>
      </trkpt>
      <trkpt lat="46.99452" lon="-0.97997">
        <ele>81.9</ele>
        <time>2025-08-25T10:44:06Z</time>
      </trkpt>
      <trkpt lat="46.99451" lon="-0.97997">
        <ele>82</ele>
        <time>2025-08-25T10:44:07Z</time>
      </trkpt>
      <trkpt lat="46.99451" lon="-0.97998">
        <ele>82.2</ele>
        <time>2025-08-25T10:44:08Z</time>
      </trkpt>
      <trkpt lat="46.9945" lon="-0.97999">
        <ele>82.3</ele>
        <time>2025-08-25T10:44:09Z</time>
      </trkpt>
      <trkpt lat="46.99449" lon="-0.98">
        <ele>82.4</ele>
        <time>2025-08-25T10:44:10Z</time>
      </trkpt>
      <trkpt lat="46.99448" lon="-0.98">
        <ele>82.5</ele>
        <time>2025-08-25T10:44:11Z</time>
      </trkpt>
      <trkpt lat="46.99448" lon="-0.98001">
        <ele>82.6</ele>
        <time>2025-08-25T10:44:12Z</time>
      </trkpt>
      <trkpt lat="46.99447" lon="-0.98002">
        <ele>82.7</ele>
        <time>2025-08-25T10:44:13Z</time>
      </trkpt>
      <trkpt lat="46.99446" lon="-0.98002">
        <ele>82.9</ele>
        <time>2025-08-25T10:44:14Z</time>
      </trkpt>
      <trkpt lat="46.99445" lon="-0.98003">
        <ele>83</ele>
        <time>2025-08-25T10:44:15Z</time>
      </trkpt>
      <trkpt lat="46.99444" lon="-0.98004">
        <ele>83.1</ele>
        <time>2025-08-25T10:44:16Z</time>
      </trkpt>
      <trkpt lat="46.99443" lon="-0.98005">
        <ele>83.3</ele>
        <time>2025-08-25T10:44:17Z</time>
      </trkpt>
      <trkpt lat="46.99443" lon="-0.98006">
        <ele>83.4</ele>
        <time>2025-08-25T10:44:18Z</time>
      </trkpt>
      <trkpt lat="46.99442" lon="-0.98006">
        <ele>83.6</ele>
        <time>2025-08-25T10:44:19Z</time>
      </trkpt>
      <trkpt lat="46.99441" lon="-0.98007">
        <ele>83.7</ele>
        <time>2025-08-25T10:44:20Z</time>
      </trkpt>
      <trkpt lat="46.9944" lon="-0.98008">
        <ele>83.8</ele>
        <time>2025-08-25T10:44:21Z</time>
      </trkpt>
      <trkpt lat="46.99439" lon="-0.98009">
        <ele>84</ele>
        <time>2025-08-25T10:44:22Z</time>
      </trkpt>
      <trkpt lat="46.99438" lon="-0.98009">
        <ele>84.1</ele>
        <time>2025-08-25T10:44:23Z</time>
      </trkpt>
      <trkpt lat="46.99437" lon="-0.9801">
        <ele>84.3</ele>
        <time>2025-08-25T10:44:24Z</time>
      </trkpt>
      <trkpt lat="46.99436" lon="-0.98011">
        <ele>84.4</ele>
        <time>2025-08-25T10:44:25Z</time>
      </trkpt>
      <trkpt lat="46.99435" lon="-0.98012">
        <ele>84.5</ele>
        <time>2025-08-25T10:44:26Z</time>
      </trkpt>
      <trkpt lat="46.99434" lon="-0.98013">
        <ele>84.7</ele>
        <time>2025-08-25T10:44:27Z</time>
      </trkpt>
      <trkpt lat="46.99434" lon="-0.98014">
        <ele>84.8</ele>
        <time>2025-08-25T10:44:28Z</time>
      </trkpt>
      <trkpt lat="46.99433" lon="-0.98014">
        <ele>84.9</ele>
        <time>2025-08-25T10:44:29Z</time>
      </trkpt>
      <trkpt lat="46.99432" lon="-0.98015">
        <ele>85</ele>
        <time>2025-08-25T10:44:30Z</time>
      </trkpt>
      <trkpt lat="46.99431" lon="-0.98016">
        <ele>85.1</ele>
        <time>2025-08-25T10:44:31Z</time>
      </trkpt>
      <trkpt lat="46.9943" lon="-0.98017">
        <ele>85.3</ele>
        <time>2025-08-25T10:44:32Z</time>
      </trkpt>
      <trkpt lat="46.99429" lon="-0.98017">
        <ele>85.3</ele>
        <time>2025-08-25T10:44:33Z</time>
      </trkpt>
      <trkpt lat="46.99429" lon="-0.98018">
        <ele>85.4</ele>
        <time>2025-08-25T10:44:34Z</time>
      </trkpt>
      <trkpt lat="46.99428" lon="-0.98018">
        <ele>85.5</ele>
        <time>2025-08-25T10:44:35Z</time>
      </trkpt>
      <trkpt lat="46.99427" lon="-0.98019">
        <ele>85.6</ele>
        <time>2025-08-25T10:44:36Z</time>
      </trkpt>
      <trkpt lat="46.99426" lon="-0.9802">
        <ele>85.7</ele>
        <time>2025-08-25T10:44:37Z</time>
      </trkpt>
      <trkpt lat="46.99426" lon="-0.9802">
        <ele>85.8</ele>
        <time>2025-08-25T10:44:38Z</time>
      </trkpt>
      <trkpt lat="46.99425" lon="-0.9802">
        <ele>85.8</ele>
        <time>2025-08-25T10:44:39Z</time>
      </trkpt>
      <trkpt lat="46.99424" lon="-0.98021">
        <ele>85.9</ele>
        <time>2025-08-25T10:44:40Z</time>
      </trkpt>
      <trkpt lat="46.99423" lon="-0.98021">
        <ele>86</ele>
        <time>2025-08-25T10:44:41Z</time>
      </trkpt>
      <trkpt lat="46.99422" lon="-0.98022">
        <ele>86.1</ele>
        <time>2025-08-25T10:44:42Z</time>
      </trkpt>
      <trkpt lat="46.99422" lon="-0.98023">
        <ele>86.2</ele>
        <time>2025-08-25T10:44:43Z</time>
      </trkpt>
      <trkpt lat="46.99421" lon="-0.98023">
        <ele>86.3</ele>
        <time>2025-08-25T10:44:44Z</time>
      </trkpt>
      <trkpt lat="46.9942" lon="-0.98024">
        <ele>86.4</ele>
        <time>2025-08-25T10:44:45Z</time>
      </trkpt>
      <trkpt lat="46.99419" lon="-0.98025">
        <ele>86.5</ele>
        <time>2025-08-25T10:44:46Z</time>
      </trkpt>
      <trkpt lat="46.99418" lon="-0.98025">
        <ele>86.6</ele>
        <time>2025-08-25T10:44:47Z</time>
      </trkpt>
      <trkpt lat="46.99417" lon="-0.98026">
        <ele>86.7</ele>
        <time>2025-08-25T10:44:48Z</time>
      </trkpt>
      <trkpt lat="46.99416" lon="-0.98027">
        <ele>86.8</ele>
        <time>2025-08-25T10:44:49Z</time>
      </trkpt>
      <trkpt lat="46.99414" lon="-0.98028">
        <ele>86.9</ele>
        <time>2025-08-25T10:44:50Z</time>
      </trkpt>
      <trkpt lat="46.99413" lon="-0.98028">
        <ele>87</ele>
        <time>2025-08-25T10:44:51Z</time>
      </trkpt>
      <trkpt lat="46.99412" lon="-0.9803">
        <ele>87.2</ele>
        <time>2025-08-25T10:44:52Z</time>
      </trkpt>
      <trkpt lat="46.99411" lon="-0.9803">
        <ele>87.3</ele>
        <time>2025-08-25T10:44:53Z</time>
      </trkpt>
      <trkpt lat="46.9941" lon="-0.98031">
        <ele>87.3</ele>
        <time>2025-08-25T10:44:54Z</time>
      </trkpt>
      <trkpt lat="46.9941" lon="-0.98031">
        <ele>87.4</ele>
        <time>2025-08-25T10:44:55Z</time>
      </trkpt>
      <trkpt lat="46.99409" lon="-0.98032">
        <ele>87.5</ele>
        <time>2025-08-25T10:44:56Z</time>
      </trkpt>
      <trkpt lat="46.99408" lon="-0.98033">
        <ele>87.6</ele>
        <time>2025-08-25T10:44:57Z</time>
      </trkpt>
      <trkpt lat="46.99407" lon="-0.98034">
        <ele>87.7</ele>
        <time>2025-08-25T10:44:58Z</time>
      </trkpt>
      <trkpt lat="46.99406" lon="-0.98035">
        <ele>87.8</ele>
        <time>2025-08-25T10:44:59Z</time>
      </trkpt>
      <trkpt lat="46.99405" lon="-0.98036">
        <ele>87.9</ele>
        <time>2025-08-25T10:45:00Z</time>
      </trkpt>
      <trkpt lat="46.99405" lon="-0.98037">
        <ele>88</ele>
        <time>2025-08-25T10:45:01Z</time>
      </trkpt>
      <trkpt lat="46.99403" lon="-0.98038">
        <ele>88.1</ele>
        <time>2025-08-25T10:45:02Z</time>
      </trkpt>
      <trkpt lat="46.99403" lon="-0.98039">
        <ele>88.2</ele>
        <time>2025-08-25T10:45:03Z</time>
      </trkpt>
      <trkpt lat="46.99402" lon="-0.9804">
        <ele>88.3</ele>
        <time>2025-08-25T10:45:04Z</time>
      </trkpt>
      <trkpt lat="46.99401" lon="-0.9804">
        <ele>88.4</ele>
        <time>2025-08-25T10:45:05Z</time>
      </trkpt>
      <trkpt lat="46.994" lon="-0.98041">
        <ele>88.5</ele>
        <time>2025-08-25T10:45:06Z</time>
      </trkpt>
      <trkpt lat="46.99398" lon="-0.98042">
        <ele>88.6</ele>
        <time>2025-08-25T10:45:07Z</time>
      </trkpt>
      <trkpt lat="46.99398" lon="-0.98042">
        <ele>88.7</ele>
        <time>2025-08-25T10:45:08Z</time>
      </trkpt>
      <trkpt lat="46.99397" lon="-0.98043">
        <ele>88.7</ele>
        <time>2025-08-25T10:45:09Z</time>
      </trkpt>
      <trkpt lat="46.99396" lon="-0.98043">
        <ele>88.8</ele>
        <time>2025-08-25T10:45:10Z</time>
      </trkpt>
      <trkpt lat="46.99395" lon="-0.98044">
        <ele>88.9</ele>
        <time>2025-08-25T10:45:11Z</time>
      </trkpt>
      <trkpt lat="46.99394" lon="-0.98045">
        <ele>89</ele>
        <time>2025-08-25T10:45:12Z</time>
      </trkpt>
      <trkpt lat="46.99393" lon="-0.98045">
        <ele>89.1</ele>
        <time>2025-08-25T10:45:13Z</time>
      </trkpt>
      <trkpt lat="46.99392" lon="-0.98046">
        <ele>89.2</ele>
        <time>2025-08-25T10:45:14Z</time>
      </trkpt>
      <trkpt lat="46.9939" lon="-0.98048">
        <ele>89.3</ele>
        <time>2025-08-25T10:45:15Z</time>
      </trkpt>
      <trkpt lat="46.9939" lon="-0.98048">
        <ele>89.4</ele>
        <time>2025-08-25T10:45:16Z</time>
      </trkpt>
      <trkpt lat="46.99389" lon="-0.98049">
        <ele>89.5</ele>
        <time>2025-08-25T10:45:17Z</time>
      </trkpt>
      <trkpt lat="46.99388" lon="-0.9805">
        <ele>89.5</ele>
        <time>2025-08-25T10:45:18Z</time>
      </trkpt>
      <trkpt lat="46.99387" lon="-0.9805">
        <ele>89.6</ele>
        <time>2025-08-25T10:45:19Z</time>
      </trkpt>
      <trkpt lat="46.99386" lon="-0.98051">
        <ele>89.7</ele>
        <time>2025-08-25T10:45:20Z</time>
      </trkpt>
      <trkpt lat="46.99385" lon="-0.98052">
        <ele>89.8</ele>
        <time>2025-08-25T10:45:21Z</time>
      </trkpt>
      <trkpt lat="46.99384" lon="-0.98052">
        <ele>89.9</ele>
        <time>2025-08-25T10:45:22Z</time>
      </trkpt>
      <trkpt lat="46.99383" lon="-0.98053">
        <ele>89.9</ele>
        <time>2025-08-25T10:45:23Z</time>
      </trkpt>
      <trkpt lat="46.99382" lon="-0.98053">
        <ele>90</ele>
        <time>2025-08-25T10:45:24Z</time>
      </trkpt>
      <trkpt lat="46.99381" lon="-0.98054">
        <ele>90.1</ele>
        <time>2025-08-25T10:45:25Z</time>
      </trkpt>
      <trkpt lat="46.9938" lon="-0.98054">
        <ele>90.2</ele>
        <time>2025-08-25T10:45:26Z</time>
      </trkpt>
      <trkpt lat="46.99379" lon="-0.98055">
        <ele>90.3</ele>
        <time>2025-08-25T10:45:27Z</time>
      </trkpt>
      <trkpt lat="46.99379" lon="-0.98055">
        <ele>90.3</ele>
        <time>2025-08-25T10:45:28Z</time>
      </trkpt>
      <trkpt lat="46.99378" lon="-0.98056">
        <ele>90.4</ele>
        <time>2025-08-25T10:45:29Z</time>
      </trkpt>
      <trkpt lat="46.99376" lon="-0.98058">
        <ele>90.5</ele>
        <time>2025-08-25T10:45:30Z</time>
      </trkpt>
      <trkpt lat="46.99375" lon="-0.98058">
        <ele>90.6</ele>
        <time>2025-08-25T10:45:31Z</time>
      </trkpt>
      <trkpt lat="46.99375" lon="-0.98059">
        <ele>90.6</ele>
        <time>2025-08-25T10:45:32Z</time>
      </trkpt>
      <trkpt lat="46.99374" lon="-0.9806">
        <ele>90.7</ele>
        <time>2025-08-25T10:45:33Z</time>
      </trkpt>
      <trkpt lat="46.99373" lon="-0.98061">
        <ele>90.8</ele>
        <time>2025-08-25T10:45:34Z</time>
      </trkpt>
      <trkpt lat="46.99372" lon="-0.98062">
        <ele>90.9</ele>
        <time>2025-08-25T10:45:35Z</time>
      </trkpt>
      <trkpt lat="46.99371" lon="-0.98062">
        <ele>90.9</ele>
        <time>2025-08-25T10:45:36Z</time>
      </trkpt>
      <trkpt lat="46.9937" lon="-0.98063">
        <ele>91</ele>
        <time>2025-08-25T10:45:37Z</time>
      </trkpt>
      <trkpt lat="46.99369" lon="-0.98064">
        <ele>91.1</ele>
        <time>2025-08-25T10:45:38Z</time>
      </trkpt>
      <trkpt lat="46.99369" lon="-0.98064">
        <ele>91.2</ele>
        <time>2025-08-25T10:45:39Z</time>
      </trkpt>
      <trkpt lat="46.99368" lon="-0.98065">
        <ele>91.2</ele>
        <time>2025-08-25T10:45:40Z</time>
      </trkpt>
      <trkpt lat="46.99367" lon="-0.98065">
        <ele>91.3</ele>
        <time>2025-08-25T10:45:41Z</time>
      </trkpt>
      <trkpt lat="46.99366" lon="-0.98065">
        <ele>91.4</ele>
        <time>2025-08-25T10:45:42Z</time>
      </trkpt>
      <trkpt lat="46.99366" lon="-0.98065">
        <ele>91.4</ele>
        <time>2025-08-25T10:45:43Z</time>
      </trkpt>
      <trkpt lat="46.99365" lon="-0.98064">
        <ele>91.4</ele>
        <time>2025-08-25T10:45:44Z</time>
      </trkpt>
      <trkpt lat="46.99364" lon="-0.98064">
        <ele>91.5</ele>
        <time>2025-08-25T10:45:45Z</time>
      </trkpt>
      <trkpt lat="46.99363" lon="-0.98063">
        <ele>91.6</ele>
        <time>2025-08-25T10:45:46Z</time>
      </trkpt>
      <trkpt lat="46.99362" lon="-0.98063">
        <ele>91.5</ele>
        <time>2025-08-25T10:45:47Z</time>
      </trkpt>
      <trkpt lat="46.99362" lon="-0.98062">
        <ele>91.4</ele>
        <time>2025-08-25T10:45:48Z</time>
      </trkpt>
      <trkpt lat="46.99361" lon="-0.98062">
        <ele>91.3</ele>
        <time>2025-08-25T10:45:49Z</time>
      </trkpt>
      <trkpt lat="46.9936" lon="-0.98061">
        <ele>91.3</ele>
        <time>2025-08-25T10:45:50Z</time>
      </trkpt>
      <trkpt lat="46.9936" lon="-0.9806">
        <ele>91.2</ele>
        <time>2025-08-25T10:45:51Z</time>
      </trkpt>
      <trkpt lat="46.99359" lon="-0.98059">
        <ele>91.1</ele>
        <time>2025-08-25T10:45:52Z</time>
      </trkpt>
      <trkpt lat="46.99359" lon="-0.98057">
        <ele>91</ele>
        <time>2025-08-25T10:45:53Z</time>
      </trkpt>
      <trkpt lat="46.9936" lon="-0.98055">
        <ele>90.9</ele>
        <time>2025-08-25T10:45:54Z</time>
      </trkpt>
      <trkpt lat="46.99359" lon="-0.98054">
        <ele>90.8</ele>
        <time>2025-08-25T10:45:55Z</time>
      </trkpt>
      <trkpt lat="46.99359" lon="-0.98052">
        <ele>90.7</ele>
        <time>2025-08-25T10:45:56Z</time>
      </trkpt>
      <trkpt lat="46.99359" lon="-0.98051">
        <ele>90.6</ele>
        <time>2025-08-25T10:45:57Z</time>
      </trkpt>
      <trkpt lat="46.99359" lon="-0.98051">
        <ele>90.6</ele>
        <time>2025-08-25T10:45:58Z</time>
      </trkpt>
      <trkpt lat="46.99359" lon="-0.98049">
        <ele>90.5</ele>
        <time>2025-08-25T10:45:59Z</time>
      </trkpt>
      <trkpt lat="46.99359" lon="-0.98048">
        <ele>90.4</ele>
        <time>2025-08-25T10:46:00Z</time>
      </trkpt>
      <trkpt lat="46.9936" lon="-0.98047">
        <ele>90.3</ele>
        <time>2025-08-25T10:46:01Z</time>
      </trkpt>
      <trkpt lat="46.9936" lon="-0.98045">
        <ele>90.2</ele>
        <time>2025-08-25T10:46:02Z</time>
      </trkpt>
      <trkpt lat="46.9936" lon="-0.98044">
        <ele>90.1</ele>
        <time>2025-08-25T10:46:03Z</time>
      </trkpt>
      <trkpt lat="46.9936" lon="-0.98043">
        <ele>89.9</ele>
        <time>2025-08-25T10:46:04Z</time>
      </trkpt>
      <trkpt lat="46.9936" lon="-0.98041">
        <ele>89.8</ele>
        <time>2025-08-25T10:46:05Z</time>
      </trkpt>
      <trkpt lat="46.9936" lon="-0.9804">
        <ele>89.7</ele>
        <time>2025-08-25T10:46:06Z</time>
      </trkpt>
      <trkpt lat="46.9936" lon="-0.98038">
        <ele>89.5</ele>
        <time>2025-08-25T10:46:07Z</time>
      </trkpt>
      <trkpt lat="46.99361" lon="-0.98037">
        <ele>89.4</ele>
        <time>2025-08-25T10:46:08Z</time>
      </trkpt>
      <trkpt lat="46.99361" lon="-0.98035">
        <ele>89.3</ele>
        <time>2025-08-25T10:46:09Z</time>
      </trkpt>
      <trkpt lat="46.99361" lon="-0.98034">
        <ele>89.2</ele>
        <time>2025-08-25T10:46:10Z</time>
      </trkpt>
      <trkpt lat="46.9936" lon="-0.98033">
        <ele>89</ele>
        <time>2025-08-25T10:46:11Z</time>
      </trkpt>
      <trkpt lat="46.9936" lon="-0.98033">
        <ele>89</ele>
        <time>2025-08-25T10:46:12Z</time>
      </trkpt>
      <trkpt lat="46.9936" lon="-0.98032">
        <ele>88.9</ele>
        <time>2025-08-25T10:46:13Z</time>
      </trkpt>
      <trkpt lat="46.9936" lon="-0.98031">
        <ele>88.8</ele>
        <time>2025-08-25T10:46:14Z</time>
      </trkpt>
      <trkpt lat="46.99361" lon="-0.9803">
        <ele>88.7</ele>
        <time>2025-08-25T10:46:15Z</time>
      </trkpt>
      <trkpt lat="46.99361" lon="-0.9803">
        <ele>88.7</ele>
        <time>2025-08-25T10:46:16Z</time>
      </trkpt>
      <trkpt lat="46.99361" lon="-0.9803">
        <ele>88.6</ele>
        <time>2025-08-25T10:46:17Z</time>
      </trkpt>
      <trkpt lat="46.99361" lon="-0.9803">
        <ele>88.6</ele>
        <time>2025-08-25T10:46:18Z</time>
      </trkpt>
      <trkpt lat="46.99361" lon="-0.98029">
        <ele>88.5</ele>
        <time>2025-08-25T10:46:19Z</time>
      </trkpt>
      <trkpt lat="46.99361" lon="-0.98031">
        <ele>88.3</ele>
        <time>2025-08-25T10:46:20Z</time>
      </trkpt>
      <trkpt lat="46.9936" lon="-0.98031">
        <ele>88.3</ele>
        <time>2025-08-25T10:46:21Z</time>
      </trkpt>
      <trkpt lat="46.9936" lon="-0.98032">
        <ele>88.2</ele>
        <time>2025-08-25T10:46:22Z</time>
      </trkpt>
      <trkpt lat="46.9936" lon="-0.98032">
        <ele>88.1</ele>
        <time>2025-08-25T10:46:23Z</time>
      </trkpt>
      <trkpt lat="46.99361" lon="-0.98033">
        <ele>88.1</ele>
        <time>2025-08-25T10:46:24Z</time>
      </trkpt>
      <trkpt lat="46.9936" lon="-0.98032">
        <ele>88</ele>
        <time>2025-08-25T10:46:25Z</time>
      </trkpt>
      <trkpt lat="46.9936" lon="-0.98031">
        <ele>87.8</ele>
        <time>2025-08-25T10:46:26Z</time>
      </trkpt>
      <trkpt lat="46.99359" lon="-0.98029">
        <ele>87.6</ele>
        <time>2025-08-25T10:46:27Z</time>
      </trkpt>
      <trkpt lat="46.99359" lon="-0.98027">
        <ele>87.3</ele>
        <time>2025-08-25T10:46:28Z</time>
      </trkpt>
      <trkpt lat="46.99359" lon="-0.98025">
        <ele>87.1</ele>
        <time>2025-08-25T10:46:29Z</time>
      </trkpt>
      <trkpt lat="46.9936" lon="-0.98021">
        <ele>86.6</ele>
        <time>2025-08-25T10:46:30Z</time>
      </trkpt>
      <trkpt lat="46.9936" lon="-0.9802">
        <ele>86.4</ele>
        <time>2025-08-25T10:46:31Z</time>
      </trkpt>
      <trkpt lat="46.9936" lon="-0.98018">
        <ele>86.2</ele>
        <time>2025-08-25T10:46:32Z</time>
      </trkpt>
      <trkpt lat="46.9936" lon="-0.98015">
        <ele>85.8</ele>
        <time>2025-08-25T10:46:33Z</time>
      </trkpt>
      <trkpt lat="46.99361" lon="-0.98014">
        <ele>85.6</ele>
        <time>2025-08-25T10:46:34Z</time>
      </trkpt>
      <trkpt lat="46.99361" lon="-0.98013">
        <ele>85.5</ele>
        <time>2025-08-25T10:46:35Z</time>
      </trkpt>
      <trkpt lat="46.99361" lon="-0.98011">
        <ele>85.2</ele>
        <time>2025-08-25T10:46:36Z</time>
      </trkpt>
      <trkpt lat="46.99361" lon="-0.98009">
        <ele>84.9</ele>
        <time>2025-08-25T10:46:37Z</time>
      </trkpt>
      <trkpt lat="46.99361" lon="-0.98007">
        <ele>84.7</ele>
        <time>2025-08-25T10:46:38Z</time>
      </trkpt>
      <trkpt lat="46.99361" lon="-0.98005">
        <ele>84.4</ele>
        <time>2025-08-25T10:46:39Z</time>
      </trkpt>
      <trkpt lat="46.99361" lon="-0.98003">
        <ele>84.3</ele>
        <time>2025-08-25T10:46:40Z</time>
      </trkpt>
      <trkpt lat="46.99362" lon="-0.98002">
        <ele>84.1</ele>
        <time>2025-08-25T10:46:41Z</time>
      </trkpt>
      <trkpt lat="46.99362" lon="-0.98001">
        <ele>83.9</ele>
        <time>2025-08-25T10:46:42Z</time>
      </trkpt>
      <trkpt lat="46.99363" lon="-0.98">
        <ele>83.7</ele>
        <time>2025-08-25T10:46:43Z</time>
      </trkpt>
      <trkpt lat="46.99364" lon="-0.97998">
        <ele>83.5</ele>
        <time>2025-08-25T10:46:44Z</time>
      </trkpt>
      <trkpt lat="46.99365" lon="-0.97997">
        <ele>83.3</ele>
        <time>2025-08-25T10:46:45Z</time>
      </trkpt>
      <trkpt lat="46.99365" lon="-0.97996">
        <ele>83.1</ele>
        <time>2025-08-25T10:46:46Z</time>
      </trkpt>
      <trkpt lat="46.99366" lon="-0.97995">
        <ele>82.9</ele>
        <time>2025-08-25T10:46:47Z</time>
      </trkpt>
      <trkpt lat="46.99366" lon="-0.97993">
        <ele>82.8</ele>
        <time>2025-08-25T10:46:48Z</time>
      </trkpt>
      <trkpt lat="46.99365" lon="-0.97991">
        <ele>82.6</ele>
        <time>2025-08-25T10:46:49Z</time>
      </trkpt>
      <trkpt lat="46.99366" lon="-0.97989">
        <ele>82.3</ele>
        <time>2025-08-25T10:46:50Z</time>
      </trkpt>
      <trkpt lat="46.99366" lon="-0.97988">
        <ele>82.2</ele>
        <time>2025-08-25T10:46:51Z</time>
      </trkpt>
      <trkpt lat="46.99367" lon="-0.97987">
        <ele>82.1</ele>
        <time>2025-08-25T10:46:52Z</time>
      </trkpt>
      <trkpt lat="46.99367" lon="-0.97986">
        <ele>82</ele>
        <time>2025-08-25T10:46:53Z</time>
      </trkpt>
      <trkpt lat="46.99368" lon="-0.97984">
        <ele>81.8</ele>
        <time>2025-08-25T10:46:54Z</time>
      </trkpt>
      <trkpt lat="46.99368" lon="-0.97984">
        <ele>81.7</ele>
        <time>2025-08-25T10:46:55Z</time>
      </trkpt>
      <trkpt lat="46.99369" lon="-0.97983">
        <ele>81.6</ele>
        <time>2025-08-25T10:46:56Z</time>
      </trkpt>
      <trkpt lat="46.99369" lon="-0.97981">
        <ele>81.4</ele>
        <time>2025-08-25T10:46:57Z</time>
      </trkpt>
      <trkpt lat="46.9937" lon="-0.9798">
        <ele>81.3</ele>
        <time>2025-08-25T10:46:58Z</time>
      </trkpt>
      <trkpt lat="46.99371" lon="-0.97979">
        <ele>81.1</ele>
        <time>2025-08-25T10:46:59Z</time>
      </trkpt>
      <trkpt lat="46.99371" lon="-0.97978">
        <ele>81</ele>
        <time>2025-08-25T10:47:00Z</time>
      </trkpt>
      <trkpt lat="46.99372" lon="-0.97977">
        <ele>80.8</ele>
        <time>2025-08-25T10:47:01Z</time>
      </trkpt>
      <trkpt lat="46.99372" lon="-0.97976">
        <ele>80.7</ele>
        <time>2025-08-25T10:47:02Z</time>
      </trkpt>
      <trkpt lat="46.99373" lon="-0.97975">
        <ele>80.6</ele>
        <time>2025-08-25T10:47:03Z</time>
      </trkpt>
      <trkpt lat="46.99373" lon="-0.97974">
        <ele>80.5</ele>
        <time>2025-08-25T10:47:04Z</time>
      </trkpt>
      <trkpt lat="46.99373" lon="-0.97973">
        <ele>80.4</ele>
        <time>2025-08-25T10:47:05Z</time>
      </trkpt>
      <trkpt lat="46.99373" lon="-0.97973">
        <ele>80.4</ele>
        <time>2025-08-25T10:47:06Z</time>
      </trkpt>
      <trkpt lat="46.99373" lon="-0.97974">
        <ele>80.3</ele>
        <time>2025-08-25T10:47:07Z</time>
      </trkpt>
      <trkpt lat="46.99373" lon="-0.97973">
        <ele>80.3</ele>
        <time>2025-08-25T10:47:08Z</time>
      </trkpt>
      <trkpt lat="46.99373" lon="-0.97973">
        <ele>80.3</ele>
        <time>2025-08-25T10:47:09Z</time>
      </trkpt>
      <trkpt lat="46.99374" lon="-0.97972">
        <ele>80.2</ele>
        <time>2025-08-25T10:47:10Z</time>
      </trkpt>
      <trkpt lat="46.99375" lon="-0.97972">
        <ele>80</ele>
        <time>2025-08-25T10:47:11Z</time>
      </trkpt>
      <trkpt lat="46.99375" lon="-0.9797">
        <ele>79.9</ele>
        <time>2025-08-25T10:47:12Z</time>
      </trkpt>
      <trkpt lat="46.99376" lon="-0.97969">
        <ele>79.7</ele>
        <time>2025-08-25T10:47:13Z</time>
      </trkpt>
      <trkpt lat="46.99377" lon="-0.97967">
        <ele>79.5</ele>
        <time>2025-08-25T10:47:14Z</time>
      </trkpt>
      <trkpt lat="46.99378" lon="-0.97966">
        <ele>79.3</ele>
        <time>2025-08-25T10:47:15Z</time>
      </trkpt>
      <trkpt lat="46.99379" lon="-0.97965">
        <ele>79.1</ele>
        <time>2025-08-25T10:47:16Z</time>
      </trkpt>
      <trkpt lat="46.99381" lon="-0.97963">
        <ele>78.8</ele>
        <time>2025-08-25T10:47:17Z</time>
      </trkpt>
      <trkpt lat="46.99381" lon="-0.97962">
        <ele>78.7</ele>
        <time>2025-08-25T10:47:18Z</time>
      </trkpt>
      <trkpt lat="46.99382" lon="-0.97961">
        <ele>78.5</ele>
        <time>2025-08-25T10:47:19Z</time>
      </trkpt>
      <trkpt lat="46.99384" lon="-0.9796">
        <ele>78.3</ele>
        <time>2025-08-25T10:47:20Z</time>
      </trkpt>
      <trkpt lat="46.99385" lon="-0.97959">
        <ele>78.1</ele>
        <time>2025-08-25T10:47:21Z</time>
      </trkpt>
      <trkpt lat="46.99386" lon="-0.97958">
        <ele>77.9</ele>
        <time>2025-08-25T10:47:22Z</time>
      </trkpt>
      <trkpt lat="46.99387" lon="-0.97957">
        <ele>77.8</ele>
        <time>2025-08-25T10:47:23Z</time>
      </trkpt>
      <trkpt lat="46.99389" lon="-0.97956">
        <ele>77.6</ele>
        <time>2025-08-25T10:47:24Z</time>
      </trkpt>
      <trkpt lat="46.9939" lon="-0.97956">
        <ele>77.4</ele>
        <time>2025-08-25T10:47:25Z</time>
      </trkpt>
      <trkpt lat="46.99391" lon="-0.97955">
        <ele>77.3</ele>
        <time>2025-08-25T10:47:26Z</time>
      </trkpt>
      <trkpt lat="46.99392" lon="-0.97955">
        <ele>77.1</ele>
        <time>2025-08-25T10:47:27Z</time>
      </trkpt>
      <trkpt lat="46.99393" lon="-0.97954">
        <ele>77</ele>
        <time>2025-08-25T10:47:28Z</time>
      </trkpt>
      <trkpt lat="46.99394" lon="-0.97953">
        <ele>76.9</ele>
        <time>2025-08-25T10:47:29Z</time>
      </trkpt>
      <trkpt lat="46.99395" lon="-0.97953">
        <ele>76.8</ele>
        <time>2025-08-25T10:47:30Z</time>
      </trkpt>
      <trkpt lat="46.99396" lon="-0.97953">
        <ele>76.8</ele>
        <time>2025-08-25T10:47:31Z</time>
      </trkpt>
      <trkpt lat="46.99397" lon="-0.97953">
        <ele>76.7</ele>
        <time>2025-08-25T10:47:32Z</time>
      </trkpt>
      <trkpt lat="46.99397" lon="-0.97952">
        <ele>76.6</ele>
        <time>2025-08-25T10:47:33Z</time>
      </trkpt>
      <trkpt lat="46.99398" lon="-0.97951">
        <ele>76.5</ele>
        <time>2025-08-25T10:47:34Z</time>
      </trkpt>
      <trkpt lat="46.99398" lon="-0.97951">
        <ele>76.5</ele>
        <time>2025-08-25T10:47:35Z</time>
      </trkpt>
      <trkpt lat="46.99398" lon="-0.9795">
        <ele>76.4</ele>
        <time>2025-08-25T10:47:36Z</time>
      </trkpt>
      <trkpt lat="46.99399" lon="-0.9795">
        <ele>76.4</ele>
        <time>2025-08-25T10:47:37Z</time>
      </trkpt>
      <trkpt lat="46.99399" lon="-0.97949">
        <ele>76.3</ele>
        <time>2025-08-25T10:47:38Z</time>
      </trkpt>
      <trkpt lat="46.994" lon="-0.97948">
        <ele>76.2</ele>
        <time>2025-08-25T10:47:39Z</time>
      </trkpt>
      <trkpt lat="46.99401" lon="-0.97947">
        <ele>76.1</ele>
        <time>2025-08-25T10:47:40Z</time>
      </trkpt>
      <trkpt lat="46.99401" lon="-0.97946">
        <ele>76</ele>
        <time>2025-08-25T10:47:41Z</time>
      </trkpt>
      <trkpt lat="46.99402" lon="-0.97945">
        <ele>75.9</ele>
        <time>2025-08-25T10:47:42Z</time>
      </trkpt>
      <trkpt lat="46.99402" lon="-0.97944">
        <ele>75.8</ele>
        <time>2025-08-25T10:47:43Z</time>
      </trkpt>
      <trkpt lat="46.99403" lon="-0.97942">
        <ele>75.6</ele>
        <time>2025-08-25T10:47:44Z</time>
      </trkpt>
      <trkpt lat="46.99404" lon="-0.97941">
        <ele>75.5</ele>
        <time>2025-08-25T10:47:45Z</time>
      </trkpt>
      <trkpt lat="46.99405" lon="-0.9794">
        <ele>75.4</ele>
        <time>2025-08-25T10:47:46Z</time>
      </trkpt>
      <trkpt lat="46.99406" lon="-0.97938">
        <ele>75.1</ele>
        <time>2025-08-25T10:47:47Z</time>
      </trkpt>
      <trkpt lat="46.99407" lon="-0.97938">
        <ele>75</ele>
        <time>2025-08-25T10:47:48Z</time>
      </trkpt>
      <trkpt lat="46.99408" lon="-0.97937">
        <ele>74.9</ele>
        <time>2025-08-25T10:47:49Z</time>
      </trkpt>
      <trkpt lat="46.99408" lon="-0.97936">
        <ele>74.7</ele>
        <time>2025-08-25T10:47:50Z</time>
      </trkpt>
      <trkpt lat="46.99409" lon="-0.97935">
        <ele>74.6</ele>
        <time>2025-08-25T10:47:51Z</time>
      </trkpt>
      <trkpt lat="46.99409" lon="-0.97935">
        <ele>74.5</ele>
        <time>2025-08-25T10:47:52Z</time>
      </trkpt>
      <trkpt lat="46.99409" lon="-0.97934">
        <ele>74.5</ele>
        <time>2025-08-25T10:47:53Z</time>
      </trkpt>
      <trkpt lat="46.9941" lon="-0.97934">
        <ele>74.5</ele>
        <time>2025-08-25T10:47:54Z</time>
      </trkpt>
      <trkpt lat="46.9941" lon="-0.97934">
        <ele>74.4</ele>
        <time>2025-08-25T10:47:55Z</time>
      </trkpt>
      <trkpt lat="46.99411" lon="-0.97933">
        <ele>74.2</ele>
        <time>2025-08-25T10:47:56Z</time>
      </trkpt>
      <trkpt lat="46.99412" lon="-0.97933">
        <ele>74.1</ele>
        <time>2025-08-25T10:47:57Z</time>
      </trkpt>
      <trkpt lat="46.99412" lon="-0.97933">
        <ele>74.1</ele>
        <time>2025-08-25T10:47:58Z</time>
      </trkpt>
      <trkpt lat="46.99413" lon="-0.97932">
        <ele>74</ele>
        <time>2025-08-25T10:47:59Z</time>
      </trkpt>
      <trkpt lat="46.99413" lon="-0.97932">
        <ele>73.9</ele>
        <time>2025-08-25T10:48:00Z</time>
      </trkpt>
      <trkpt lat="46.99414" lon="-0.97931">
        <ele>73.7</ele>
        <time>2025-08-25T10:48:01Z</time>
      </trkpt>
      <trkpt lat="46.99415" lon="-0.97929">
        <ele>73.5</ele>
        <time>2025-08-25T10:48:02Z</time>
      </trkpt>
      <trkpt lat="46.99415" lon="-0.97928">
        <ele>73.3</ele>
        <time>2025-08-25T10:48:03Z</time>
      </trkpt>
      <trkpt lat="46.99415" lon="-0.97926">
        <ele>73.1</ele>
        <time>2025-08-25T10:48:04Z</time>
      </trkpt>
      <trkpt lat="46.99416" lon="-0.97924">
        <ele>73</ele>
        <time>2025-08-25T10:48:05Z</time>
      </trkpt>
      <trkpt lat="46.99416" lon="-0.97923">
        <ele>72.8</ele>
        <time>2025-08-25T10:48:06Z</time>
      </trkpt>
      <trkpt lat="46.99417" lon="-0.97921">
        <ele>72.6</ele>
        <time>2025-08-25T10:48:07Z</time>
      </trkpt>
      <trkpt lat="46.99417" lon="-0.9792">
        <ele>72.5</ele>
        <time>2025-08-25T10:48:08Z</time>
      </trkpt>
      <trkpt lat="46.99418" lon="-0.97919">
        <ele>72.4</ele>
        <time>2025-08-25T10:48:09Z</time>
      </trkpt>
      <trkpt lat="46.99418" lon="-0.97918">
        <ele>72.3</ele>
        <time>2025-08-25T10:48:10Z</time>
      </trkpt>
      <trkpt lat="46.99419" lon="-0.97918">
        <ele>72.2</ele>
        <time>2025-08-25T10:48:11Z</time>
      </trkpt>
      <trkpt lat="46.99419" lon="-0.97917">
        <ele>72.1</ele>
        <time>2025-08-25T10:48:12Z</time>
      </trkpt>
      <trkpt lat="46.9942" lon="-0.97917">
        <ele>71.9</ele>
        <time>2025-08-25T10:48:13Z</time>
      </trkpt>
      <trkpt lat="46.99421" lon="-0.97916">
        <ele>71.8</ele>
        <time>2025-08-25T10:48:14Z</time>
      </trkpt>
      <trkpt lat="46.99422" lon="-0.97915">
        <ele>71.7</ele>
        <time>2025-08-25T10:48:15Z</time>
      </trkpt>
      <trkpt lat="46.99423" lon="-0.97915">
        <ele>71.5</ele>
        <time>2025-08-25T10:48:16Z</time>
      </trkpt>
      <trkpt lat="46.99423" lon="-0.97914">
        <ele>71.4</ele>
        <time>2025-08-25T10:48:17Z</time>
      </trkpt>
      <trkpt lat="46.99424" lon="-0.97914">
        <ele>71.3</ele>
        <time>2025-08-25T10:48:18Z</time>
      </trkpt>
      <trkpt lat="46.99425" lon="-0.97913">
        <ele>71.1</ele>
        <time>2025-08-25T10:48:19Z</time>
      </trkpt>
      <trkpt lat="46.99425" lon="-0.97913">
        <ele>71.1</ele>
        <time>2025-08-25T10:48:20Z</time>
      </trkpt>
      <trkpt lat="46.99425" lon="-0.97912">
        <ele>71</ele>
        <time>2025-08-25T10:48:21Z</time>
      </trkpt>
      <trkpt lat="46.99426" lon="-0.97912">
        <ele>71</ele>
        <time>2025-08-25T10:48:22Z</time>
      </trkpt>
      <trkpt lat="46.99426" lon="-0.97912">
        <ele>71</ele>
        <time>2025-08-25T10:48:23Z</time>
      </trkpt>
      <trkpt lat="46.99426" lon="-0.97911">
        <ele>70.9</ele>
        <time>2025-08-25T10:48:24Z</time>
      </trkpt>
      <trkpt lat="46.99426" lon="-0.97912">
        <ele>70.7</ele>
        <time>2025-08-25T10:48:25Z</time>
      </trkpt>
      <trkpt lat="46.99425" lon="-0.97911">
        <ele>70.7</ele>
        <time>2025-08-25T10:48:26Z</time>
      </trkpt>
      <trkpt lat="46.99426" lon="-0.97911">
        <ele>70.6</ele>
        <time>2025-08-25T10:48:27Z</time>
      </trkpt>
      <trkpt lat="46.99426" lon="-0.9791">
        <ele>70.6</ele>
        <time>2025-08-25T10:48:28Z</time>
      </trkpt>
      <trkpt lat="46.99426" lon="-0.97911">
        <ele>70.5</ele>
        <time>2025-08-25T10:48:29Z</time>
      </trkpt>
      <trkpt lat="46.99426" lon="-0.97911">
        <ele>70.4</ele>
        <time>2025-08-25T10:48:30Z</time>
      </trkpt>
      <trkpt lat="46.99427" lon="-0.97911">
        <ele>70.3</ele>
        <time>2025-08-25T10:48:31Z</time>
      </trkpt>
      <trkpt lat="46.99425" lon="-0.97912">
        <ele>70.1</ele>
        <time>2025-08-25T10:48:32Z</time>
      </trkpt>
      <trkpt lat="46.99425" lon="-0.97913">
        <ele>70</ele>
        <time>2025-08-25T10:48:33Z</time>
      </trkpt>
      <trkpt lat="46.99425" lon="-0.97913">
        <ele>69.9</ele>
        <time>2025-08-25T10:48:34Z</time>
      </trkpt>
      <trkpt lat="46.99424" lon="-0.97913">
        <ele>69.9</ele>
        <time>2025-08-25T10:48:35Z</time>
      </trkpt>
      <trkpt lat="46.99424" lon="-0.97912">
        <ele>69.9</ele>
        <time>2025-08-25T10:48:36Z</time>
      </trkpt>
      <trkpt lat="46.99424" lon="-0.97912">
        <ele>69.8</ele>
        <time>2025-08-25T10:48:37Z</time>
      </trkpt>
      <trkpt lat="46.99424" lon="-0.97912">
        <ele>69.8</ele>
        <time>2025-08-25T10:48:38Z</time>
      </trkpt>
      <trkpt lat="46.99424" lon="-0.9791">
        <ele>69.6</ele>
        <time>2025-08-25T10:48:39Z</time>
      </trkpt>
      <trkpt lat="46.99424" lon="-0.97908">
        <ele>69.4</ele>
        <time>2025-08-25T10:48:40Z</time>
      </trkpt>
      <trkpt lat="46.99424" lon="-0.97907">
        <ele>69.3</ele>
        <time>2025-08-25T10:48:41Z</time>
      </trkpt>
      <trkpt lat="46.99425" lon="-0.97906">
        <ele>69.1</ele>
        <time>2025-08-25T10:48:42Z</time>
      </trkpt>
      <trkpt lat="46.99426" lon="-0.97905">
        <ele>68.9</ele>
        <time>2025-08-25T10:48:43Z</time>
      </trkpt>
      <trkpt lat="46.99427" lon="-0.97903">
        <ele>68.6</ele>
        <time>2025-08-25T10:48:44Z</time>
      </trkpt>
      <trkpt lat="46.99428" lon="-0.97902">
        <ele>68.3</ele>
        <time>2025-08-25T10:48:45Z</time>
      </trkpt>
      <trkpt lat="46.9943" lon="-0.979">
        <ele>68</ele>
        <time>2025-08-25T10:48:46Z</time>
      </trkpt>
      <trkpt lat="46.9943" lon="-0.97899">
        <ele>67.8</ele>
        <time>2025-08-25T10:48:47Z</time>
      </trkpt>
      <trkpt lat="46.99431" lon="-0.97898">
        <ele>67.6</ele>
        <time>2025-08-25T10:48:48Z</time>
      </trkpt>
      <trkpt lat="46.99432" lon="-0.97897">
        <ele>67.4</ele>
        <time>2025-08-25T10:48:49Z</time>
      </trkpt>
      <trkpt lat="46.99434" lon="-0.97897">
        <ele>67.1</ele>
        <time>2025-08-25T10:48:50Z</time>
      </trkpt>
      <trkpt lat="46.99436" lon="-0.97895">
        <ele>66.7</ele>
        <time>2025-08-25T10:48:51Z</time>
      </trkpt>
      <trkpt lat="46.99436" lon="-0.97894">
        <ele>66.5</ele>
        <time>2025-08-25T10:48:52Z</time>
      </trkpt>
      <trkpt lat="46.99437" lon="-0.97893">
        <ele>66.3</ele>
        <time>2025-08-25T10:48:53Z</time>
      </trkpt>
      <trkpt lat="46.99438" lon="-0.97891">
        <ele>66</ele>
        <time>2025-08-25T10:48:54Z</time>
      </trkpt>
      <trkpt lat="46.9944" lon="-0.97889">
        <ele>65.7</ele>
        <time>2025-08-25T10:48:55Z</time>
      </trkpt>
      <trkpt lat="46.99441" lon="-0.97888">
        <ele>65.5</ele>
        <time>2025-08-25T10:48:56Z</time>
      </trkpt>
      <trkpt lat="46.99442" lon="-0.97886">
        <ele>65.2</ele>
        <time>2025-08-25T10:48:57Z</time>
      </trkpt>
      <trkpt lat="46.99443" lon="-0.97885">
        <ele>65</ele>
        <time>2025-08-25T10:48:58Z</time>
      </trkpt>
      <trkpt lat="46.99444" lon="-0.97883">
        <ele>64.8</ele>
        <time>2025-08-25T10:48:59Z</time>
      </trkpt>
      <trkpt lat="46.99444" lon="-0.97882">
        <ele>64.6</ele>
        <time>2025-08-25T10:49:00Z</time>
      </trkpt>
      <trkpt lat="46.99444" lon="-0.97881">
        <ele>64.5</ele>
        <time>2025-08-25T10:49:01Z</time>
      </trkpt>
      <trkpt lat="46.99444" lon="-0.97881">
        <ele>64.4</ele>
        <time>2025-08-25T10:49:02Z</time>
      </trkpt>
      <trkpt lat="46.99444" lon="-0.9788">
        <ele>64.4</ele>
        <time>2025-08-25T10:49:03Z</time>
      </trkpt>
      <trkpt lat="46.99444" lon="-0.9788">
        <ele>64.3</ele>
        <time>2025-08-25T10:49:04Z</time>
      </trkpt>
      <trkpt lat="46.99444" lon="-0.97879">
        <ele>64.3</ele>
        <time>2025-08-25T10:49:05Z</time>
      </trkpt>
      <trkpt lat="46.99445" lon="-0.97879">
        <ele>64.2</ele>
        <time>2025-08-25T10:49:06Z</time>
      </trkpt>
      <trkpt lat="46.99445" lon="-0.97879">
        <ele>64.2</ele>
        <time>2025-08-25T10:49:07Z</time>
      </trkpt>
      <trkpt lat="46.99445" lon="-0.97879">
        <ele>64.1</ele>
        <time>2025-08-25T10:49:08Z</time>
      </trkpt>
      <trkpt lat="46.99445" lon="-0.97878">
        <ele>64</ele>
        <time>2025-08-25T10:49:09Z</time>
      </trkpt>
      <trkpt lat="46.99446" lon="-0.97878">
        <ele>64</ele>
        <time>2025-08-25T10:49:10Z</time>
      </trkpt>
      <trkpt lat="46.99446" lon="-0.97877">
        <ele>63.8</ele>
        <time>2025-08-25T10:49:11Z</time>
      </trkpt>
      <trkpt lat="46.99447" lon="-0.97876">
        <ele>63.6</ele>
        <time>2025-08-25T10:49:12Z</time>
      </trkpt>
      <trkpt lat="46.99449" lon="-0.97874">
        <ele>63.3</ele>
        <time>2025-08-25T10:49:13Z</time>
      </trkpt>
      <trkpt lat="46.9945" lon="-0.97873">
        <ele>63</ele>
        <time>2025-08-25T10:49:14Z</time>
      </trkpt>
      <trkpt lat="46.99451" lon="-0.97871">
        <ele>62.7</ele>
        <time>2025-08-25T10:49:15Z</time>
      </trkpt>
      <trkpt lat="46.99451" lon="-0.9787">
        <ele>62.6</ele>
        <time>2025-08-25T10:49:16Z</time>
      </trkpt>
      <trkpt lat="46.99451" lon="-0.97869">
        <ele>62.5</ele>
        <time>2025-08-25T10:49:17Z</time>
      </trkpt>
      <trkpt lat="46.99452" lon="-0.97868">
        <ele>62.3</ele>
        <time>2025-08-25T10:49:18Z</time>
      </trkpt>
      <trkpt lat="46.99453" lon="-0.97868">
        <ele>62.2</ele>
        <time>2025-08-25T10:49:19Z</time>
      </trkpt>
      <trkpt lat="46.99454" lon="-0.97868">
        <ele>61.9</ele>
        <time>2025-08-25T10:49:20Z</time>
      </trkpt>
      <trkpt lat="46.99455" lon="-0.97868">
        <ele>61.9</ele>
        <time>2025-08-25T10:49:21Z</time>
      </trkpt>
      <trkpt lat="46.99456" lon="-0.97869">
        <ele>61.8</ele>
        <time>2025-08-25T10:49:22Z</time>
      </trkpt>
      <trkpt lat="46.99457" lon="-0.9787">
        <ele>61.8</ele>
        <time>2025-08-25T10:49:23Z</time>
      </trkpt>
      <trkpt lat="46.99457" lon="-0.9787">
        <ele>61.7</ele>
        <time>2025-08-25T10:49:24Z</time>
      </trkpt>
      <trkpt lat="46.99458" lon="-0.9787">
        <ele>61.7</ele>
        <time>2025-08-25T10:49:25Z</time>
      </trkpt>
      <trkpt lat="46.99458" lon="-0.9787">
        <ele>61.7</ele>
        <time>2025-08-25T10:49:26Z</time>
      </trkpt>
      <trkpt lat="46.99459" lon="-0.9787">
        <ele>61.7</ele>
        <time>2025-08-25T10:49:27Z</time>
      </trkpt>
      <trkpt lat="46.99459" lon="-0.97869">
        <ele>61.7</ele>
        <time>2025-08-25T10:49:28Z</time>
      </trkpt>
      <trkpt lat="46.9946" lon="-0.97869">
        <ele>61.6</ele>
        <time>2025-08-25T10:49:29Z</time>
      </trkpt>
      <trkpt lat="46.99461" lon="-0.97868">
        <ele>61.6</ele>
        <time>2025-08-25T10:49:30Z</time>
      </trkpt>
      <trkpt lat="46.99462" lon="-0.97868">
        <ele>61.6</ele>
        <time>2025-08-25T10:49:31Z</time>
      </trkpt>
      <trkpt lat="46.99463" lon="-0.97867">
        <ele>61.5</ele>
        <time>2025-08-25T10:49:32Z</time>
      </trkpt>
      <trkpt lat="46.99465" lon="-0.97867">
        <ele>61.5</ele>
        <time>2025-08-25T10:49:33Z</time>
      </trkpt>
      <trkpt lat="46.99466" lon="-0.97867">
        <ele>61.5</ele>
        <time>2025-08-25T10:49:34Z</time>
      </trkpt>
      <trkpt lat="46.99467" lon="-0.97867">
        <ele>61.5</ele>
        <time>2025-08-25T10:49:35Z</time>
      </trkpt>
      <trkpt lat="46.99468" lon="-0.97867">
        <ele>61.4</ele>
        <time>2025-08-25T10:49:36Z</time>
      </trkpt>
      <trkpt lat="46.99469" lon="-0.97866">
        <ele>61.4</ele>
        <time>2025-08-25T10:49:37Z</time>
      </trkpt>
      <trkpt lat="46.9947" lon="-0.97866">
        <ele>61.4</ele>
        <time>2025-08-25T10:49:38Z</time>
      </trkpt>
      <trkpt lat="46.99471" lon="-0.97865">
        <ele>61.4</ele>
        <time>2025-08-25T10:49:39Z</time>
      </trkpt>
      <trkpt lat="46.99473" lon="-0.97865">
        <ele>61.4</ele>
        <time>2025-08-25T10:49:40Z</time>
      </trkpt>
      <trkpt lat="46.99473" lon="-0.97865">
        <ele>61.4</ele>
        <time>2025-08-25T10:49:41Z</time>
      </trkpt>
      <trkpt lat="46.99475" lon="-0.97866">
        <ele>61.4</ele>
        <time>2025-08-25T10:49:42Z</time>
      </trkpt>
      <trkpt lat="46.99476" lon="-0.97865">
        <ele>61.4</ele>
        <time>2025-08-25T10:49:43Z</time>
      </trkpt>
      <trkpt lat="46.99477" lon="-0.97866">
        <ele>61.4</ele>
        <time>2025-08-25T10:49:44Z</time>
      </trkpt>
      <trkpt lat="46.99479" lon="-0.97866">
        <ele>61.4</ele>
        <time>2025-08-25T10:49:45Z</time>
      </trkpt>
      <trkpt lat="46.9948" lon="-0.97867">
        <ele>61.4</ele>
        <time>2025-08-25T10:49:46Z</time>
      </trkpt>
      <trkpt lat="46.99481" lon="-0.97867">
        <ele>61.4</ele>
        <time>2025-08-25T10:49:47Z</time>
      </trkpt>
      <trkpt lat="46.99482" lon="-0.97868">
        <ele>61.4</ele>
        <time>2025-08-25T10:49:48Z</time>
      </trkpt>
      <trkpt lat="46.99483" lon="-0.97868">
        <ele>61.4</ele>
        <time>2025-08-25T10:49:49Z</time>
      </trkpt>
      <trkpt lat="46.99485" lon="-0.97868">
        <ele>61.4</ele>
        <time>2025-08-25T10:49:50Z</time>
      </trkpt>
      <trkpt lat="46.99486" lon="-0.97869">
        <ele>61.4</ele>
        <time>2025-08-25T10:49:51Z</time>
      </trkpt>
      <trkpt lat="46.99487" lon="-0.97868">
        <ele>61.4</ele>
        <time>2025-08-25T10:49:52Z</time>
      </trkpt>
      <trkpt lat="46.99488" lon="-0.97868">
        <ele>61.4</ele>
        <time>2025-08-25T10:49:53Z</time>
      </trkpt>
      <trkpt lat="46.99489" lon="-0.97867">
        <ele>61.4</ele>
        <time>2025-08-25T10:49:54Z</time>
      </trkpt>
      <trkpt lat="46.9949" lon="-0.97866">
        <ele>61.4</ele>
        <time>2025-08-25T10:49:55Z</time>
      </trkpt>
      <trkpt lat="46.99491" lon="-0.97865">
        <ele>61.4</ele>
        <time>2025-08-25T10:49:56Z</time>
      </trkpt>
      <trkpt lat="46.99491" lon="-0.97865">
        <ele>61.5</ele>
        <time>2025-08-25T10:49:57Z</time>
      </trkpt>
      <trkpt lat="46.99492" lon="-0.97864">
        <ele>61.5</ele>
        <time>2025-08-25T10:49:58Z</time>
      </trkpt>
      <trkpt lat="46.99493" lon="-0.97863">
        <ele>61.5</ele>
        <time>2025-08-25T10:49:59Z</time>
      </trkpt>
      <trkpt lat="46.99494" lon="-0.97862">
        <ele>61.5</ele>
        <time>2025-08-25T10:50:00Z</time>
      </trkpt>
      <trkpt lat="46.99494" lon="-0.97862">
        <ele>61.5</ele>
        <time>2025-08-25T10:50:01Z</time>
      </trkpt>
      <trkpt lat="46.99495" lon="-0.97861">
        <ele>61.5</ele>
        <time>2025-08-25T10:50:02Z</time>
      </trkpt>
      <trkpt lat="46.99495" lon="-0.9786">
        <ele>61.5</ele>
        <time>2025-08-25T10:50:03Z</time>
      </trkpt>
      <trkpt lat="46.99496" lon="-0.97858">
        <ele>61.6</ele>
        <time>2025-08-25T10:50:04Z</time>
      </trkpt>
      <trkpt lat="46.99496" lon="-0.97857">
        <ele>61.6</ele>
        <time>2025-08-25T10:50:05Z</time>
      </trkpt>
      <trkpt lat="46.99496" lon="-0.97856">
        <ele>61.6</ele>
        <time>2025-08-25T10:50:06Z</time>
      </trkpt>
      <trkpt lat="46.99496" lon="-0.97855">
        <ele>61.6</ele>
        <time>2025-08-25T10:50:07Z</time>
      </trkpt>
      <trkpt lat="46.99497" lon="-0.97854">
        <ele>61.6</ele>
        <time>2025-08-25T10:50:08Z</time>
      </trkpt>
      <trkpt lat="46.99497" lon="-0.97853">
        <ele>61.7</ele>
        <time>2025-08-25T10:50:09Z</time>
      </trkpt>
      <trkpt lat="46.99497" lon="-0.97852">
        <ele>61.7</ele>
        <time>2025-08-25T10:50:10Z</time>
      </trkpt>
      <trkpt lat="46.99497" lon="-0.97851">
        <ele>61.7</ele>
        <time>2025-08-25T10:50:11Z</time>
      </trkpt>
      <trkpt lat="46.99498" lon="-0.9785">
        <ele>61.7</ele>
        <time>2025-08-25T10:50:12Z</time>
      </trkpt>
      <trkpt lat="46.99498" lon="-0.97849">
        <ele>61.7</ele>
        <time>2025-08-25T10:50:13Z</time>
      </trkpt>
      <trkpt lat="46.99499" lon="-0.97848">
        <ele>61.7</ele>
        <time>2025-08-25T10:50:14Z</time>
      </trkpt>
      <trkpt lat="46.995" lon="-0.97847">
        <ele>61.8</ele>
        <time>2025-08-25T10:50:15Z</time>
      </trkpt>
      <trkpt lat="46.99501" lon="-0.97845">
        <ele>61.8</ele>
        <time>2025-08-25T10:50:16Z</time>
      </trkpt>
      <trkpt lat="46.99502" lon="-0.97843">
        <ele>61.8</ele>
        <time>2025-08-25T10:50:17Z</time>
      </trkpt>
      <trkpt lat="46.99503" lon="-0.97841">
        <ele>61.9</ele>
        <time>2025-08-25T10:50:18Z</time>
      </trkpt>
      <trkpt lat="46.99504" lon="-0.9784">
        <ele>61.9</ele>
        <time>2025-08-25T10:50:19Z</time>
      </trkpt>
      <trkpt lat="46.99506" lon="-0.97838">
        <ele>62</ele>
        <time>2025-08-25T10:50:20Z</time>
      </trkpt>
      <trkpt lat="46.99507" lon="-0.97837">
        <ele>62</ele>
        <time>2025-08-25T10:50:21Z</time>
      </trkpt>
      <trkpt lat="46.99508" lon="-0.97836">
        <ele>62</ele>
        <time>2025-08-25T10:50:22Z</time>
      </trkpt>
      <trkpt lat="46.9951" lon="-0.97835">
        <ele>62</ele>
        <time>2025-08-25T10:50:23Z</time>
      </trkpt>
      <trkpt lat="46.99512" lon="-0.97833">
        <ele>62.1</ele>
        <time>2025-08-25T10:50:24Z</time>
      </trkpt>
      <trkpt lat="46.99512" lon="-0.97832">
        <ele>62.1</ele>
        <time>2025-08-25T10:50:25Z</time>
      </trkpt>
      <trkpt lat="46.99513" lon="-0.97829">
        <ele>62.2</ele>
        <time>2025-08-25T10:50:26Z</time>
      </trkpt>
      <trkpt lat="46.99514" lon="-0.97828">
        <ele>62.2</ele>
        <time>2025-08-25T10:50:27Z</time>
      </trkpt>
      <trkpt lat="46.99515" lon="-0.97827">
        <ele>62.2</ele>
        <time>2025-08-25T10:50:28Z</time>
      </trkpt>
      <trkpt lat="46.99515" lon="-0.97825">
        <ele>62.2</ele>
        <time>2025-08-25T10:50:29Z</time>
      </trkpt>
      <trkpt lat="46.99517" lon="-0.97823">
        <ele>62.3</ele>
        <time>2025-08-25T10:50:30Z</time>
      </trkpt>
      <trkpt lat="46.99517" lon="-0.97823">
        <ele>62.3</ele>
        <time>2025-08-25T10:50:31Z</time>
      </trkpt>
      <trkpt lat="46.99518" lon="-0.97822">
        <ele>62.3</ele>
        <time>2025-08-25T10:50:32Z</time>
      </trkpt>
      <trkpt lat="46.99519" lon="-0.97821">
        <ele>62.3</ele>
        <time>2025-08-25T10:50:33Z</time>
      </trkpt>
      <trkpt lat="46.9952" lon="-0.97821">
        <ele>62.3</ele>
        <time>2025-08-25T10:50:34Z</time>
      </trkpt>
      <trkpt lat="46.99521" lon="-0.97821">
        <ele>62.3</ele>
        <time>2025-08-25T10:50:35Z</time>
      </trkpt>
      <trkpt lat="46.99522" lon="-0.9782">
        <ele>62.4</ele>
        <time>2025-08-25T10:50:36Z</time>
      </trkpt>
      <trkpt lat="46.99524" lon="-0.97821">
        <ele>62.4</ele>
        <time>2025-08-25T10:50:37Z</time>
      </trkpt>
      <trkpt lat="46.99525" lon="-0.97821">
        <ele>62.4</ele>
        <time>2025-08-25T10:50:38Z</time>
      </trkpt>
      <trkpt lat="46.99528" lon="-0.97822">
        <ele>62.4</ele>
        <time>2025-08-25T10:50:39Z</time>
      </trkpt>
      <trkpt lat="46.99529" lon="-0.97822">
        <ele>62.4</ele>
        <time>2025-08-25T10:50:40Z</time>
      </trkpt>
      <trkpt lat="46.99531" lon="-0.97822">
        <ele>62.4</ele>
        <time>2025-08-25T10:50:41Z</time>
      </trkpt>
      <trkpt lat="46.99532" lon="-0.97823">
        <ele>62.4</ele>
        <time>2025-08-25T10:50:42Z</time>
      </trkpt>
      <trkpt lat="46.99533" lon="-0.97823">
        <ele>62.4</ele>
        <time>2025-08-25T10:50:43Z</time>
      </trkpt>
      <trkpt lat="46.99534" lon="-0.97822">
        <ele>62.4</ele>
        <time>2025-08-25T10:50:44Z</time>
      </trkpt>
      <trkpt lat="46.99533" lon="-0.97821">
        <ele>62.4</ele>
        <time>2025-08-25T10:50:45Z</time>
      </trkpt>
      <trkpt lat="46.99533" lon="-0.97821">
        <ele>62.4</ele>
        <time>2025-08-25T10:50:46Z</time>
      </trkpt>
      <trkpt lat="46.99533" lon="-0.97821">
        <ele>62.4</ele>
        <time>2025-08-25T10:50:47Z</time>
      </trkpt>
      <trkpt lat="46.99533" lon="-0.9782">
        <ele>62.4</ele>
        <time>2025-08-25T10:50:48Z</time>
      </trkpt>
      <trkpt lat="46.99534" lon="-0.97818">
        <ele>62.4</ele>
        <time>2025-08-25T10:50:49Z</time>
      </trkpt>
      <trkpt lat="46.99538" lon="-0.97818">
        <ele>62.4</ele>
        <time>2025-08-25T10:50:50Z</time>
      </trkpt>
      <trkpt lat="46.99539" lon="-0.97819">
        <ele>62.4</ele>
        <time>2025-08-25T10:50:51Z</time>
      </trkpt>
      <trkpt lat="46.99542" lon="-0.97823">
        <ele>62.4</ele>
        <time>2025-08-25T10:50:52Z</time>
      </trkpt>
      <trkpt lat="46.99542" lon="-0.97824">
        <ele>62.4</ele>
        <time>2025-08-25T10:50:53Z</time>
      </trkpt>
      <trkpt lat="46.99542" lon="-0.97826">
        <ele>62.4</ele>
        <time>2025-08-25T10:50:54Z</time>
      </trkpt>
      <trkpt lat="46.99543" lon="-0.97827">
        <ele>62.4</ele>
        <time>2025-08-25T10:50:55Z</time>
      </trkpt>
      <trkpt lat="46.99543" lon="-0.97828">
        <ele>62.4</ele>
        <time>2025-08-25T10:50:56Z</time>
      </trkpt>
      <trkpt lat="46.99544" lon="-0.97828">
        <ele>62.4</ele>
        <time>2025-08-25T10:50:57Z</time>
      </trkpt>
      <trkpt lat="46.99546" lon="-0.97828">
        <ele>62.4</ele>
        <time>2025-08-25T10:50:58Z</time>
      </trkpt>
      <trkpt lat="46.99548" lon="-0.97829">
        <ele>62.4</ele>
        <time>2025-08-25T10:50:59Z</time>
      </trkpt>
      <trkpt lat="46.99551" lon="-0.97829">
        <ele>62.4</ele>
        <time>2025-08-25T10:51:01Z</time>
      </trkpt>
      <trkpt lat="46.99553" lon="-0.97829">
        <ele>62.4</ele>
        <time>2025-08-25T10:51:02Z</time>
      </trkpt>
      <trkpt lat="46.99554" lon="-0.97828">
        <ele>62.4</ele>
        <time>2025-08-25T10:51:03Z</time>
      </trkpt>
      <trkpt lat="46.99555" lon="-0.97828">
        <ele>62.4</ele>
        <time>2025-08-25T10:51:04Z</time>
      </trkpt>
      <trkpt lat="46.99556" lon="-0.97828">
        <ele>62.5</ele>
        <time>2025-08-25T10:51:05Z</time>
      </trkpt>
      <trkpt lat="46.99557" lon="-0.97829">
        <ele>62.5</ele>
        <time>2025-08-25T10:51:06Z</time>
      </trkpt>
      <trkpt lat="46.99558" lon="-0.97829">
        <ele>62.5</ele>
        <time>2025-08-25T10:51:07Z</time>
      </trkpt>
      <trkpt lat="46.99559" lon="-0.9783">
        <ele>62.5</ele>
        <time>2025-08-25T10:51:08Z</time>
      </trkpt>
      <trkpt lat="46.9956" lon="-0.97831">
        <ele>62.5</ele>
        <time>2025-08-25T10:51:09Z</time>
      </trkpt>
      <trkpt lat="46.9956" lon="-0.97832">
        <ele>62.5</ele>
        <time>2025-08-25T10:51:10Z</time>
      </trkpt>
      <trkpt lat="46.99561" lon="-0.97833">
        <ele>62.5</ele>
        <time>2025-08-25T10:51:11Z</time>
      </trkpt>
      <trkpt lat="46.99562" lon="-0.97833">
        <ele>62.5</ele>
        <time>2025-08-25T10:51:12Z</time>
      </trkpt>
      <trkpt lat="46.99563" lon="-0.97834">
        <ele>62.6</ele>
        <time>2025-08-25T10:51:13Z</time>
      </trkpt>
      <trkpt lat="46.99564" lon="-0.97834">
        <ele>62.6</ele>
        <time>2025-08-25T10:51:14Z</time>
      </trkpt>
      <trkpt lat="46.99564" lon="-0.97834">
        <ele>62.6</ele>
        <time>2025-08-25T10:51:15Z</time>
      </trkpt>
      <trkpt lat="46.99565" lon="-0.97834">
        <ele>62.6</ele>
        <time>2025-08-25T10:51:16Z</time>
      </trkpt>
      <trkpt lat="46.99566" lon="-0.97834">
        <ele>62.6</ele>
        <time>2025-08-25T10:51:17Z</time>
      </trkpt>
      <trkpt lat="46.99566" lon="-0.97835">
        <ele>62.6</ele>
        <time>2025-08-25T10:51:18Z</time>
      </trkpt>
      <trkpt lat="46.99567" lon="-0.97835">
        <ele>62.6</ele>
        <time>2025-08-25T10:51:19Z</time>
      </trkpt>
      <trkpt lat="46.99567" lon="-0.97835">
        <ele>62.6</ele>
        <time>2025-08-25T10:51:20Z</time>
      </trkpt>
      <trkpt lat="46.99567" lon="-0.97835">
        <ele>62.6</ele>
        <time>2025-08-25T10:51:21Z</time>
      </trkpt>
      <trkpt lat="46.99567" lon="-0.97835">
        <ele>62.6</ele>
        <time>2025-08-25T10:51:22Z</time>
      </trkpt>
      <trkpt lat="46.99566" lon="-0.97834">
        <ele>62.6</ele>
        <time>2025-08-25T10:51:23Z</time>
      </trkpt>
      <trkpt lat="46.99566" lon="-0.97834">
        <ele>62.6</ele>
        <time>2025-08-25T10:51:24Z</time>
      </trkpt>
      <trkpt lat="46.99567" lon="-0.97833">
        <ele>62.6</ele>
        <time>2025-08-25T10:51:25Z</time>
      </trkpt>
      <trkpt lat="46.99567" lon="-0.97833">
        <ele>62.6</ele>
        <time>2025-08-25T10:51:26Z</time>
      </trkpt>
      <trkpt lat="46.99567" lon="-0.97832">
        <ele>62.7</ele>
        <time>2025-08-25T10:51:27Z</time>
      </trkpt>
      <trkpt lat="46.99568" lon="-0.97831">
        <ele>62.7</ele>
        <time>2025-08-25T10:51:28Z</time>
      </trkpt>
      <trkpt lat="46.99568" lon="-0.9783">
        <ele>62.7</ele>
        <time>2025-08-25T10:51:29Z</time>
      </trkpt>
      <trkpt lat="46.99569" lon="-0.97828">
        <ele>62.7</ele>
        <time>2025-08-25T10:51:30Z</time>
      </trkpt>
      <trkpt lat="46.99569" lon="-0.97827">
        <ele>62.7</ele>
        <time>2025-08-25T10:51:31Z</time>
      </trkpt>
      <trkpt lat="46.9957" lon="-0.97827">
        <ele>62.7</ele>
        <time>2025-08-25T10:51:32Z</time>
      </trkpt>
      <trkpt lat="46.9957" lon="-0.97826">
        <ele>62.7</ele>
        <time>2025-08-25T10:51:33Z</time>
      </trkpt>
      <trkpt lat="46.99571" lon="-0.97826">
        <ele>62.7</ele>
        <time>2025-08-25T10:51:34Z</time>
      </trkpt>
      <trkpt lat="46.99572" lon="-0.97825">
        <ele>62.7</ele>
        <time>2025-08-25T10:51:35Z</time>
      </trkpt>
      <trkpt lat="46.99572" lon="-0.97824">
        <ele>62.8</ele>
        <time>2025-08-25T10:51:36Z</time>
      </trkpt>
      <trkpt lat="46.99573" lon="-0.97824">
        <ele>62.8</ele>
        <time>2025-08-25T10:51:37Z</time>
      </trkpt>
      <trkpt lat="46.99574" lon="-0.97824">
        <ele>62.8</ele>
        <time>2025-08-25T10:51:38Z</time>
      </trkpt>
      <trkpt lat="46.99574" lon="-0.97825">
        <ele>62.8</ele>
        <time>2025-08-25T10:51:39Z</time>
      </trkpt>
      <trkpt lat="46.99574" lon="-0.97825">
        <ele>62.8</ele>
        <time>2025-08-25T10:51:40Z</time>
      </trkpt>
      <trkpt lat="46.99574" lon="-0.97825">
        <ele>62.8</ele>
        <time>2025-08-25T10:51:41Z</time>
      </trkpt>
      <trkpt lat="46.99574" lon="-0.97825">
        <ele>62.8</ele>
        <time>2025-08-25T10:51:42Z</time>
      </trkpt>
      <trkpt lat="46.99574" lon="-0.97824">
        <ele>62.8</ele>
        <time>2025-08-25T10:51:43Z</time>
      </trkpt>
      <trkpt lat="46.99574" lon="-0.97824">
        <ele>62.8</ele>
        <time>2025-08-25T10:51:45Z</time>
      </trkpt>
      <trkpt lat="46.99574" lon="-0.97824">
        <ele>62.8</ele>
        <time>2025-08-25T10:51:46Z</time>
      </trkpt>
      <trkpt lat="46.99575" lon="-0.97824">
        <ele>62.8</ele>
        <time>2025-08-25T10:51:47Z</time>
      </trkpt>
      <trkpt lat="46.99575" lon="-0.97824">
        <ele>62.8</ele>
        <time>2025-08-25T10:51:48Z</time>
      </trkpt>
      <trkpt lat="46.99575" lon="-0.97824">
        <ele>62.8</ele>
        <time>2025-08-25T10:51:49Z</time>
      </trkpt>
      <trkpt lat="46.99575" lon="-0.97824">
        <ele>62.8</ele>
        <time>2025-08-25T10:51:50Z</time>
      </trkpt>
      <trkpt lat="46.99575" lon="-0.97824">
        <ele>62.8</ele>
        <time>2025-08-25T10:51:51Z</time>
      </trkpt>
      <trkpt lat="46.99575" lon="-0.97824">
        <ele>62.8</ele>
        <time>2025-08-25T10:51:52Z</time>
      </trkpt>
      <trkpt lat="46.99575" lon="-0.97824">
        <ele>62.8</ele>
        <time>2025-08-25T10:51:53Z</time>
      </trkpt>
      <trkpt lat="46.99575" lon="-0.97824">
        <ele>62.8</ele>
        <time>2025-08-25T10:51:54Z</time>
      </trkpt>
      <trkpt lat="46.99575" lon="-0.97825">
        <ele>62.8</ele>
        <time>2025-08-25T10:51:55Z</time>
      </trkpt>
      <trkpt lat="46.99576" lon="-0.97825">
        <ele>62.8</ele>
        <time>2025-08-25T10:51:56Z</time>
      </trkpt>
      <trkpt lat="46.99576" lon="-0.97825">
        <ele>62.8</ele>
        <time>2025-08-25T10:51:57Z</time>
      </trkpt>
      <trkpt lat="46.99575" lon="-0.97824">
        <ele>62.8</ele>
        <time>2025-08-25T10:51:58Z</time>
      </trkpt>
      <trkpt lat="46.99575" lon="-0.97824">
        <ele>62.8</ele>
        <time>2025-08-25T10:51:59Z</time>
      </trkpt>
      <trkpt lat="46.99575" lon="-0.97824">
        <ele>62.8</ele>
        <time>2025-08-25T10:52:00Z</time>
      </trkpt>
      <trkpt lat="46.99575" lon="-0.97824">
        <ele>62.8</ele>
        <time>2025-08-25T10:52:01Z</time>
      </trkpt>
      <trkpt lat="46.99575" lon="-0.97824">
        <ele>62.8</ele>
        <time>2025-08-25T10:52:02Z</time>
      </trkpt>
      <trkpt lat="46.99575" lon="-0.97824">
        <ele>62.8</ele>
        <time>2025-08-25T10:52:03Z</time>
      </trkpt>
      <trkpt lat="46.99575" lon="-0.97824">
        <ele>62.8</ele>
        <time>2025-08-25T10:52:04Z</time>
      </trkpt>
      <trkpt lat="46.99575" lon="-0.97824">
        <ele>62.8</ele>
        <time>2025-08-25T10:52:05Z</time>
      </trkpt>
      <trkpt lat="46.99575" lon="-0.97824">
        <ele>62.8</ele>
        <time>2025-08-25T10:52:06Z</time>
      </trkpt>
      <trkpt lat="46.99575" lon="-0.97824">
        <ele>62.8</ele>
        <time>2025-08-25T10:52:07Z</time>
      </trkpt>
      <trkpt lat="46.99575" lon="-0.97824">
        <ele>62.8</ele>
        <time>2025-08-25T10:52:08Z</time>
      </trkpt>
      <trkpt lat="46.99575" lon="-0.97824">
        <ele>62.8</ele>
        <time>2025-08-25T10:52:09Z</time>
      </trkpt>
      <trkpt lat="46.99575" lon="-0.97824">
        <ele>62.8</ele>
        <time>2025-08-25T10:52:10Z</time>
      </trkpt>
      <trkpt lat="46.99575" lon="-0.97824">
        <ele>62.8</ele>
        <time>2025-08-25T10:52:11Z</time>
      </trkpt>
      <trkpt lat="46.99575" lon="-0.97824">
        <ele>62.8</ele>
        <time>2025-08-25T10:52:12Z</time>
      </trkpt>
      <trkpt lat="46.99575" lon="-0.97824">
        <ele>62.8</ele>
        <time>2025-08-25T10:52:13Z</time>
      </trkpt>
      <trkpt lat="46.99575" lon="-0.97824">
        <ele>62.8</ele>
        <time>2025-08-25T10:52:14Z</time>
      </trkpt>
      <trkpt lat="46.99575" lon="-0.97824">
        <ele>62.8</ele>
        <time>2025-08-25T10:52:15Z</time>
      </trkpt>
      <trkpt lat="46.99575" lon="-0.97825">
        <ele>62.8</ele>
        <time>2025-08-25T10:52:16Z</time>
      </trkpt>
      <trkpt lat="46.99575" lon="-0.97825">
        <ele>62.8</ele>
        <time>2025-08-25T10:52:17Z</time>
      </trkpt>
      <trkpt lat="46.99575" lon="-0.97825">
        <ele>62.8</ele>
        <time>2025-08-25T10:52:18Z</time>
      </trkpt>
      <trkpt lat="46.99575" lon="-0.97825">
        <ele>62.8</ele>
        <time>2025-08-25T10:52:19Z</time>
      </trkpt>
      <trkpt lat="46.99575" lon="-0.97825">
        <ele>62.8</ele>
        <time>2025-08-25T10:52:20Z</time>
      </trkpt>
      <trkpt lat="46.99575" lon="-0.97825">
        <ele>62.8</ele>
        <time>2025-08-25T10:52:21Z</time>
      </trkpt>
      <trkpt lat="46.99575" lon="-0.97825">
        <ele>62.8</ele>
        <time>2025-08-25T10:52:22Z</time>
      </trkpt>
      <trkpt lat="46.99575" lon="-0.97825">
        <ele>62.8</ele>
        <time>2025-08-25T10:52:23Z</time>
      </trkpt>
      <trkpt lat="46.99575" lon="-0.97825">
        <ele>62.8</ele>
        <time>2025-08-25T10:52:24Z</time>
      </trkpt>
      <trkpt lat="46.99575" lon="-0.97825">
        <ele>62.8</ele>
        <time>2025-08-25T10:52:25Z</time>
      </trkpt>
      <trkpt lat="46.99575" lon="-0.97825">
        <ele>62.9</ele>
        <time>2025-08-25T10:52:26Z</time>
      </trkpt>
      <trkpt lat="46.99575" lon="-0.97825">
        <ele>62.9</ele>
        <time>2025-08-25T10:52:27Z</time>
      </trkpt>
      <trkpt lat="46.99575" lon="-0.97825">
        <ele>62.9</ele>
        <time>2025-08-25T10:52:28Z</time>
      </trkpt>
      <trkpt lat="46.99575" lon="-0.97826">
        <ele>62.9</ele>
        <time>2025-08-25T10:52:29Z</time>
      </trkpt>
      <trkpt lat="46.99576" lon="-0.97826">
        <ele>62.9</ele>
        <time>2025-08-25T10:52:30Z</time>
      </trkpt>
      <trkpt lat="46.99576" lon="-0.97826">
        <ele>62.9</ele>
        <time>2025-08-25T10:52:31Z</time>
      </trkpt>
      <trkpt lat="46.99577" lon="-0.97827">
        <ele>62.9</ele>
        <time>2025-08-25T10:52:32Z</time>
      </trkpt>
      <trkpt lat="46.99577" lon="-0.97829">
        <ele>62.9</ele>
        <time>2025-08-25T10:52:33Z</time>
      </trkpt>
      <trkpt lat="46.99577" lon="-0.9783">
        <ele>62.9</ele>
        <time>2025-08-25T10:52:34Z</time>
      </trkpt>
      <trkpt lat="46.99577" lon="-0.97832">
        <ele>62.9</ele>
        <time>2025-08-25T10:52:35Z</time>
      </trkpt>
      <trkpt lat="46.99578" lon="-0.97834">
        <ele>62.9</ele>
        <time>2025-08-25T10:52:36Z</time>
      </trkpt>
      <trkpt lat="46.99579" lon="-0.97835">
        <ele>63</ele>
        <time>2025-08-25T10:52:37Z</time>
      </trkpt>
      <trkpt lat="46.9958" lon="-0.97836">
        <ele>63</ele>
        <time>2025-08-25T10:52:38Z</time>
      </trkpt>
      <trkpt lat="46.99581" lon="-0.97837">
        <ele>63</ele>
        <time>2025-08-25T10:52:39Z</time>
      </trkpt>
      <trkpt lat="46.99583" lon="-0.97838">
        <ele>63</ele>
        <time>2025-08-25T10:52:40Z</time>
      </trkpt>
      <trkpt lat="46.99584" lon="-0.97838">
        <ele>63</ele>
        <time>2025-08-25T10:52:41Z</time>
      </trkpt>
      <trkpt lat="46.99586" lon="-0.97838">
        <ele>63.1</ele>
        <time>2025-08-25T10:52:42Z</time>
      </trkpt>
      <trkpt lat="46.99587" lon="-0.97838">
        <ele>63.1</ele>
        <time>2025-08-25T10:52:43Z</time>
      </trkpt>
      <trkpt lat="46.99588" lon="-0.97839">
        <ele>63.1</ele>
        <time>2025-08-25T10:52:44Z</time>
      </trkpt>
      <trkpt lat="46.99589" lon="-0.97839">
        <ele>63.1</ele>
        <time>2025-08-25T10:52:45Z</time>
      </trkpt>
      <trkpt lat="46.9959" lon="-0.97839">
        <ele>63.1</ele>
        <time>2025-08-25T10:52:46Z</time>
      </trkpt>
      <trkpt lat="46.99591" lon="-0.97839">
        <ele>63.1</ele>
        <time>2025-08-25T10:52:47Z</time>
      </trkpt>
      <trkpt lat="46.99593" lon="-0.97841">
        <ele>63.1</ele>
        <time>2025-08-25T10:52:48Z</time>
      </trkpt>
      <trkpt lat="46.99594" lon="-0.97841">
        <ele>63.2</ele>
        <time>2025-08-25T10:52:49Z</time>
      </trkpt>
      <trkpt lat="46.99594" lon="-0.97842">
        <ele>63.2</ele>
        <time>2025-08-25T10:52:50Z</time>
      </trkpt>
      <trkpt lat="46.99595" lon="-0.97842">
        <ele>63.2</ele>
        <time>2025-08-25T10:52:51Z</time>
      </trkpt>
      <trkpt lat="46.99596" lon="-0.97842">
        <ele>63.2</ele>
        <time>2025-08-25T10:52:52Z</time>
      </trkpt>
      <trkpt lat="46.99597" lon="-0.97843">
        <ele>63.2</ele>
        <time>2025-08-25T10:52:53Z</time>
      </trkpt>
      <trkpt lat="46.99599" lon="-0.97843">
        <ele>63.2</ele>
        <time>2025-08-25T10:52:54Z</time>
      </trkpt>
      <trkpt lat="46.996" lon="-0.97843">
        <ele>63.3</ele>
        <time>2025-08-25T10:52:55Z</time>
      </trkpt>
      <trkpt lat="46.99601" lon="-0.97844">
        <ele>63.3</ele>
        <time>2025-08-25T10:52:56Z</time>
      </trkpt>
      <trkpt lat="46.99603" lon="-0.97845">
        <ele>63.3</ele>
        <time>2025-08-25T10:52:57Z</time>
      </trkpt>
      <trkpt lat="46.99603" lon="-0.97845">
        <ele>63.3</ele>
        <time>2025-08-25T10:52:58Z</time>
      </trkpt>
      <trkpt lat="46.99604" lon="-0.97846">
        <ele>63.3</ele>
        <time>2025-08-25T10:52:59Z</time>
      </trkpt>
      <trkpt lat="46.99606" lon="-0.97847">
        <ele>63.4</ele>
        <time>2025-08-25T10:53:00Z</time>
      </trkpt>
      <trkpt lat="46.99606" lon="-0.97847">
        <ele>63.4</ele>
        <time>2025-08-25T10:53:01Z</time>
      </trkpt>
      <trkpt lat="46.99607" lon="-0.97848">
        <ele>63.4</ele>
        <time>2025-08-25T10:53:02Z</time>
      </trkpt>
      <trkpt lat="46.99609" lon="-0.97849">
        <ele>63.4</ele>
        <time>2025-08-25T10:53:03Z</time>
      </trkpt>
      <trkpt lat="46.9961" lon="-0.9785">
        <ele>63.4</ele>
        <time>2025-08-25T10:53:04Z</time>
      </trkpt>
      <trkpt lat="46.99611" lon="-0.97851">
        <ele>63.5</ele>
        <time>2025-08-25T10:53:05Z</time>
      </trkpt>
      <trkpt lat="46.99612" lon="-0.97851">
        <ele>63.5</ele>
        <time>2025-08-25T10:53:06Z</time>
      </trkpt>
      <trkpt lat="46.99613" lon="-0.97852">
        <ele>63.5</ele>
        <time>2025-08-25T10:53:07Z</time>
      </trkpt>
      <trkpt lat="46.99613" lon="-0.97853">
        <ele>63.5</ele>
        <time>2025-08-25T10:53:08Z</time>
      </trkpt>
      <trkpt lat="46.99614" lon="-0.97854">
        <ele>63.5</ele>
        <time>2025-08-25T10:53:09Z</time>
      </trkpt>
      <trkpt lat="46.99615" lon="-0.97856">
        <ele>63.6</ele>
        <time>2025-08-25T10:53:10Z</time>
      </trkpt>
      <trkpt lat="46.99616" lon="-0.97856">
        <ele>63.6</ele>
        <time>2025-08-25T10:53:11Z</time>
      </trkpt>
      <trkpt lat="46.99617" lon="-0.97858">
        <ele>63.6</ele>
        <time>2025-08-25T10:53:12Z</time>
      </trkpt>
      <trkpt lat="46.99617" lon="-0.97859">
        <ele>63.6</ele>
        <time>2025-08-25T10:53:13Z</time>
      </trkpt>
      <trkpt lat="46.99618" lon="-0.9786">
        <ele>63.7</ele>
        <time>2025-08-25T10:53:14Z</time>
      </trkpt>
      <trkpt lat="46.99619" lon="-0.97862">
        <ele>63.7</ele>
        <time>2025-08-25T10:53:15Z</time>
      </trkpt>
      <trkpt lat="46.9962" lon="-0.97862">
        <ele>63.7</ele>
        <time>2025-08-25T10:53:16Z</time>
      </trkpt>
      <trkpt lat="46.99621" lon="-0.97863">
        <ele>63.7</ele>
        <time>2025-08-25T10:53:17Z</time>
      </trkpt>
      <trkpt lat="46.99622" lon="-0.97864">
        <ele>63.8</ele>
        <time>2025-08-25T10:53:18Z</time>
      </trkpt>
      <trkpt lat="46.99623" lon="-0.97865">
        <ele>63.8</ele>
        <time>2025-08-25T10:53:19Z</time>
      </trkpt>
      <trkpt lat="46.99624" lon="-0.97866">
        <ele>63.8</ele>
        <time>2025-08-25T10:53:20Z</time>
      </trkpt>
      <trkpt lat="46.99624" lon="-0.97867">
        <ele>63.8</ele>
        <time>2025-08-25T10:53:21Z</time>
      </trkpt>
      <trkpt lat="46.99625" lon="-0.97867">
        <ele>63.9</ele>
        <time>2025-08-25T10:53:22Z</time>
      </trkpt>
      <trkpt lat="46.99626" lon="-0.97868">
        <ele>63.9</ele>
        <time>2025-08-25T10:53:23Z</time>
      </trkpt>
      <trkpt lat="46.99627" lon="-0.97869">
        <ele>63.9</ele>
        <time>2025-08-25T10:53:24Z</time>
      </trkpt>
      <trkpt lat="46.99629" lon="-0.97869">
        <ele>63.9</ele>
        <time>2025-08-25T10:53:25Z</time>
      </trkpt>
      <trkpt lat="46.99629" lon="-0.9787">
        <ele>64</ele>
        <time>2025-08-25T10:53:26Z</time>
      </trkpt>
      <trkpt lat="46.9963" lon="-0.97871">
        <ele>64</ele>
        <time>2025-08-25T10:53:27Z</time>
      </trkpt>
      <trkpt lat="46.99632" lon="-0.97873">
        <ele>64</ele>
        <time>2025-08-25T10:53:28Z</time>
      </trkpt>
      <trkpt lat="46.99632" lon="-0.97874">
        <ele>64.1</ele>
        <time>2025-08-25T10:53:29Z</time>
      </trkpt>
      <trkpt lat="46.99633" lon="-0.97875">
        <ele>64.1</ele>
        <time>2025-08-25T10:53:30Z</time>
      </trkpt>
      <trkpt lat="46.99633" lon="-0.97876">
        <ele>64.1</ele>
        <time>2025-08-25T10:53:31Z</time>
      </trkpt>
      <trkpt lat="46.99634" lon="-0.97877">
        <ele>64.2</ele>
        <time>2025-08-25T10:53:32Z</time>
      </trkpt>
      <trkpt lat="46.99634" lon="-0.97879">
        <ele>64.2</ele>
        <time>2025-08-25T10:53:33Z</time>
      </trkpt>
      <trkpt lat="46.99635" lon="-0.9788">
        <ele>64.2</ele>
        <time>2025-08-25T10:53:34Z</time>
      </trkpt>
      <trkpt lat="46.99637" lon="-0.97882">
        <ele>64.3</ele>
        <time>2025-08-25T10:53:35Z</time>
      </trkpt>
      <trkpt lat="46.99637" lon="-0.97883">
        <ele>64.3</ele>
        <time>2025-08-25T10:53:36Z</time>
      </trkpt>
      <trkpt lat="46.99638" lon="-0.97884">
        <ele>64.3</ele>
        <time>2025-08-25T10:53:37Z</time>
      </trkpt>
      <trkpt lat="46.99639" lon="-0.97885">
        <ele>64.4</ele>
        <time>2025-08-25T10:53:38Z</time>
      </trkpt>
      <trkpt lat="46.9964" lon="-0.97886">
        <ele>64.4</ele>
        <time>2025-08-25T10:53:39Z</time>
      </trkpt>
      <trkpt lat="46.99641" lon="-0.97888">
        <ele>64.5</ele>
        <time>2025-08-25T10:53:40Z</time>
      </trkpt>
      <trkpt lat="46.99643" lon="-0.9789">
        <ele>64.5</ele>
        <time>2025-08-25T10:53:41Z</time>
      </trkpt>
      <trkpt lat="46.99643" lon="-0.97891">
        <ele>64.6</ele>
        <time>2025-08-25T10:53:42Z</time>
      </trkpt>
      <trkpt lat="46.99644" lon="-0.97892">
        <ele>64.6</ele>
        <time>2025-08-25T10:53:43Z</time>
      </trkpt>
      <trkpt lat="46.99645" lon="-0.97895">
        <ele>64.7</ele>
        <time>2025-08-25T10:53:44Z</time>
      </trkpt>
      <trkpt lat="46.99646" lon="-0.97895">
        <ele>64.7</ele>
        <time>2025-08-25T10:53:45Z</time>
      </trkpt>
      <trkpt lat="46.99647" lon="-0.97896">
        <ele>64.7</ele>
        <time>2025-08-25T10:53:46Z</time>
      </trkpt>
      <trkpt lat="46.99649" lon="-0.97898">
        <ele>64.8</ele>
        <time>2025-08-25T10:53:47Z</time>
      </trkpt>
      <trkpt lat="46.9965" lon="-0.97899">
        <ele>64.8</ele>
        <time>2025-08-25T10:53:48Z</time>
      </trkpt>
      <trkpt lat="46.9965" lon="-0.97899">
        <ele>64.9</ele>
        <time>2025-08-25T10:53:49Z</time>
      </trkpt>
      <trkpt lat="46.99652" lon="-0.97901">
        <ele>64.9</ele>
        <time>2025-08-25T10:53:50Z</time>
      </trkpt>
      <trkpt lat="46.99653" lon="-0.97902">
        <ele>65</ele>
        <time>2025-08-25T10:53:51Z</time>
      </trkpt>
      <trkpt lat="46.99655" lon="-0.97903">
        <ele>65</ele>
        <time>2025-08-25T10:53:52Z</time>
      </trkpt>
      <trkpt lat="46.99656" lon="-0.97904">
        <ele>65.1</ele>
        <time>2025-08-25T10:53:53Z</time>
      </trkpt>
      <trkpt lat="46.99657" lon="-0.97905">
        <ele>65.2</ele>
        <time>2025-08-25T10:53:54Z</time>
      </trkpt>
      <trkpt lat="46.99658" lon="-0.97907">
        <ele>65.2</ele>
        <time>2025-08-25T10:53:55Z</time>
      </trkpt>
      <trkpt lat="46.9966" lon="-0.97908">
        <ele>65.3</ele>
        <time>2025-08-25T10:53:56Z</time>
      </trkpt>
      <trkpt lat="46.99661" lon="-0.97909">
        <ele>65.3</ele>
        <time>2025-08-25T10:53:57Z</time>
      </trkpt>
      <trkpt lat="46.99662" lon="-0.97911">
        <ele>65.4</ele>
        <time>2025-08-25T10:53:58Z</time>
      </trkpt>
      <trkpt lat="46.99663" lon="-0.97912">
        <ele>65.5</ele>
        <time>2025-08-25T10:53:59Z</time>
      </trkpt>
      <trkpt lat="46.99664" lon="-0.97914">
        <ele>65.5</ele>
        <time>2025-08-25T10:54:00Z</time>
      </trkpt>
      <trkpt lat="46.99665" lon="-0.97915">
        <ele>65.6</ele>
        <time>2025-08-25T10:54:01Z</time>
      </trkpt>
      <trkpt lat="46.99666" lon="-0.97917">
        <ele>65.6</ele>
        <time>2025-08-25T10:54:02Z</time>
      </trkpt>
      <trkpt lat="46.99667" lon="-0.97919">
        <ele>65.7</ele>
        <time>2025-08-25T10:54:03Z</time>
      </trkpt>
      <trkpt lat="46.99668" lon="-0.97921">
        <ele>65.7</ele>
        <time>2025-08-25T10:54:04Z</time>
      </trkpt>
      <trkpt lat="46.99669" lon="-0.97923">
        <ele>65.7</ele>
        <time>2025-08-25T10:54:05Z</time>
      </trkpt>
      <trkpt lat="46.99669" lon="-0.97924">
        <ele>65.7</ele>
        <time>2025-08-25T10:54:06Z</time>
      </trkpt>
      <trkpt lat="46.9967" lon="-0.97925">
        <ele>65.7</ele>
        <time>2025-08-25T10:54:07Z</time>
      </trkpt>
      <trkpt lat="46.99671" lon="-0.97927">
        <ele>65.7</ele>
        <time>2025-08-25T10:54:08Z</time>
      </trkpt>
      <trkpt lat="46.99671" lon="-0.97928">
        <ele>65.8</ele>
        <time>2025-08-25T10:54:09Z</time>
      </trkpt>
      <trkpt lat="46.99672" lon="-0.9793">
        <ele>65.8</ele>
        <time>2025-08-25T10:54:10Z</time>
      </trkpt>
      <trkpt lat="46.99672" lon="-0.97933">
        <ele>65.8</ele>
        <time>2025-08-25T10:54:11Z</time>
      </trkpt>
      <trkpt lat="46.99673" lon="-0.97934">
        <ele>65.8</ele>
        <time>2025-08-25T10:54:12Z</time>
      </trkpt>
      <trkpt lat="46.99673" lon="-0.97936">
        <ele>65.8</ele>
        <time>2025-08-25T10:54:13Z</time>
      </trkpt>
      <trkpt lat="46.99674" lon="-0.97937">
        <ele>65.8</ele>
        <time>2025-08-25T10:54:14Z</time>
      </trkpt>
      <trkpt lat="46.99674" lon="-0.9794">
        <ele>65.8</ele>
        <time>2025-08-25T10:54:15Z</time>
      </trkpt>
      <trkpt lat="46.99675" lon="-0.97941">
        <ele>65.8</ele>
        <time>2025-08-25T10:54:16Z</time>
      </trkpt>
      <trkpt lat="46.99675" lon="-0.97943">
        <ele>65.8</ele>
        <time>2025-08-25T10:54:17Z</time>
      </trkpt>
      <trkpt lat="46.99675" lon="-0.97944">
        <ele>65.7</ele>
        <time>2025-08-25T10:54:18Z</time>
      </trkpt>
      <trkpt lat="46.99675" lon="-0.97946">
        <ele>65.7</ele>
        <time>2025-08-25T10:54:19Z</time>
      </trkpt>
      <trkpt lat="46.99676" lon="-0.97947">
        <ele>65.7</ele>
        <time>2025-08-25T10:54:20Z</time>
      </trkpt>
      <trkpt lat="46.99676" lon="-0.97949">
        <ele>65.7</ele>
        <time>2025-08-25T10:54:21Z</time>
      </trkpt>
      <trkpt lat="46.99676" lon="-0.9795">
        <ele>65.7</ele>
        <time>2025-08-25T10:54:22Z</time>
      </trkpt>
      <trkpt lat="46.99676" lon="-0.97952">
        <ele>65.7</ele>
        <time>2025-08-25T10:54:23Z</time>
      </trkpt>
      <trkpt lat="46.99677" lon="-0.97953">
        <ele>65.7</ele>
        <time>2025-08-25T10:54:24Z</time>
      </trkpt>
      <trkpt lat="46.99677" lon="-0.97954">
        <ele>65.7</ele>
        <time>2025-08-25T10:54:25Z</time>
      </trkpt>
      <trkpt lat="46.99678" lon="-0.97956">
        <ele>65.6</ele>
        <time>2025-08-25T10:54:26Z</time>
      </trkpt>
      <trkpt lat="46.99679" lon="-0.97959">
        <ele>65.6</ele>
        <time>2025-08-25T10:54:27Z</time>
      </trkpt>
      <trkpt lat="46.99679" lon="-0.9796">
        <ele>65.6</ele>
        <time>2025-08-25T10:54:28Z</time>
      </trkpt>
      <trkpt lat="46.99679" lon="-0.97961">
        <ele>65.6</ele>
        <time>2025-08-25T10:54:29Z</time>
      </trkpt>
      <trkpt lat="46.9968" lon="-0.97964">
        <ele>65.6</ele>
        <time>2025-08-25T10:54:30Z</time>
      </trkpt>
      <trkpt lat="46.9968" lon="-0.97966">
        <ele>65.6</ele>
        <time>2025-08-25T10:54:31Z</time>
      </trkpt>
      <trkpt lat="46.99681" lon="-0.97968">
        <ele>65.5</ele>
        <time>2025-08-25T10:54:32Z</time>
      </trkpt>
      <trkpt lat="46.99682" lon="-0.9797">
        <ele>65.5</ele>
        <time>2025-08-25T10:54:33Z</time>
      </trkpt>
      <trkpt lat="46.99682" lon="-0.97972">
        <ele>65.5</ele>
        <time>2025-08-25T10:54:34Z</time>
      </trkpt>
      <trkpt lat="46.99683" lon="-0.97973">
        <ele>65.5</ele>
        <time>2025-08-25T10:54:35Z</time>
      </trkpt>
      <trkpt lat="46.99683" lon="-0.97976">
        <ele>65.5</ele>
        <time>2025-08-25T10:54:36Z</time>
      </trkpt>
      <trkpt lat="46.99684" lon="-0.97977">
        <ele>65.5</ele>
        <time>2025-08-25T10:54:37Z</time>
      </trkpt>
      <trkpt lat="46.99685" lon="-0.97979">
        <ele>65.4</ele>
        <time>2025-08-25T10:54:38Z</time>
      </trkpt>
      <trkpt lat="46.99685" lon="-0.97981">
        <ele>65.4</ele>
        <time>2025-08-25T10:54:39Z</time>
      </trkpt>
      <trkpt lat="46.99686" lon="-0.97983">
        <ele>65.4</ele>
        <time>2025-08-25T10:54:40Z</time>
      </trkpt>
      <trkpt lat="46.99687" lon="-0.97985">
        <ele>65.4</ele>
        <time>2025-08-25T10:54:41Z</time>
      </trkpt>
      <trkpt lat="46.99688" lon="-0.97987">
        <ele>65.4</ele>
        <time>2025-08-25T10:54:42Z</time>
      </trkpt>
      <trkpt lat="46.99689" lon="-0.97989">
        <ele>65.4</ele>
        <time>2025-08-25T10:54:43Z</time>
      </trkpt>
      <trkpt lat="46.9969" lon="-0.97991">
        <ele>65.4</ele>
        <time>2025-08-25T10:54:44Z</time>
      </trkpt>
      <trkpt lat="46.99691" lon="-0.97993">
        <ele>65.4</ele>
        <time>2025-08-25T10:54:45Z</time>
      </trkpt>
      <trkpt lat="46.99692" lon="-0.97994">
        <ele>65.4</ele>
        <time>2025-08-25T10:54:46Z</time>
      </trkpt>
      <trkpt lat="46.99692" lon="-0.97996">
        <ele>65.3</ele>
        <time>2025-08-25T10:54:47Z</time>
      </trkpt>
      <trkpt lat="46.99694" lon="-0.97999">
        <ele>65.3</ele>
        <time>2025-08-25T10:54:48Z</time>
      </trkpt>
      <trkpt lat="46.99695" lon="-0.98">
        <ele>65.3</ele>
        <time>2025-08-25T10:54:49Z</time>
      </trkpt>
      <trkpt lat="46.99695" lon="-0.98002">
        <ele>65.3</ele>
        <time>2025-08-25T10:54:50Z</time>
      </trkpt>
      <trkpt lat="46.99697" lon="-0.98004">
        <ele>65.3</ele>
        <time>2025-08-25T10:54:51Z</time>
      </trkpt>
      <trkpt lat="46.99697" lon="-0.98005">
        <ele>65.3</ele>
        <time>2025-08-25T10:54:52Z</time>
      </trkpt>
      <trkpt lat="46.99698" lon="-0.98006">
        <ele>65.3</ele>
        <time>2025-08-25T10:54:53Z</time>
      </trkpt>
      <trkpt lat="46.99699" lon="-0.98008">
        <ele>65.3</ele>
        <time>2025-08-25T10:54:54Z</time>
      </trkpt>
      <trkpt lat="46.997" lon="-0.98009">
        <ele>65.3</ele>
        <time>2025-08-25T10:54:55Z</time>
      </trkpt>
      <trkpt lat="46.99701" lon="-0.98011">
        <ele>65.2</ele>
        <time>2025-08-25T10:54:56Z</time>
      </trkpt>
      <trkpt lat="46.99702" lon="-0.98012">
        <ele>65.2</ele>
        <time>2025-08-25T10:54:57Z</time>
      </trkpt>
      <trkpt lat="46.99703" lon="-0.98014">
        <ele>65.2</ele>
        <time>2025-08-25T10:54:58Z</time>
      </trkpt>
      <trkpt lat="46.99704" lon="-0.98015">
        <ele>65.2</ele>
        <time>2025-08-25T10:54:59Z</time>
      </trkpt>
      <trkpt lat="46.99705" lon="-0.98017">
        <ele>65.2</ele>
        <time>2025-08-25T10:55:00Z</time>
      </trkpt>
      <trkpt lat="46.99706" lon="-0.98018">
        <ele>65.2</ele>
        <time>2025-08-25T10:55:01Z</time>
      </trkpt>
      <trkpt lat="46.99707" lon="-0.9802">
        <ele>65.2</ele>
        <time>2025-08-25T10:55:02Z</time>
      </trkpt>
      <trkpt lat="46.99709" lon="-0.98021">
        <ele>65.2</ele>
        <time>2025-08-25T10:55:03Z</time>
      </trkpt>
      <trkpt lat="46.9971" lon="-0.98023">
        <ele>65.2</ele>
        <time>2025-08-25T10:55:04Z</time>
      </trkpt>
      <trkpt lat="46.99711" lon="-0.98024">
        <ele>65.2</ele>
        <time>2025-08-25T10:55:05Z</time>
      </trkpt>
      <trkpt lat="46.99712" lon="-0.98025">
        <ele>65.2</ele>
        <time>2025-08-25T10:55:06Z</time>
      </trkpt>
      <trkpt lat="46.99713" lon="-0.98026">
        <ele>65.2</ele>
        <time>2025-08-25T10:55:07Z</time>
      </trkpt>
      <trkpt lat="46.99714" lon="-0.98028">
        <ele>65.2</ele>
        <time>2025-08-25T10:55:08Z</time>
      </trkpt>
      <trkpt lat="46.99715" lon="-0.98029">
        <ele>65.2</ele>
        <time>2025-08-25T10:55:09Z</time>
      </trkpt>
      <trkpt lat="46.99717" lon="-0.9803">
        <ele>65.2</ele>
        <time>2025-08-25T10:55:10Z</time>
      </trkpt>
      <trkpt lat="46.99718" lon="-0.98031">
        <ele>65.2</ele>
        <time>2025-08-25T10:55:11Z</time>
      </trkpt>
      <trkpt lat="46.9972" lon="-0.98033">
        <ele>65.2</ele>
        <time>2025-08-25T10:55:12Z</time>
      </trkpt>
      <trkpt lat="46.9972" lon="-0.98034">
        <ele>65.2</ele>
        <time>2025-08-25T10:55:13Z</time>
      </trkpt>
      <trkpt lat="46.99721" lon="-0.98034">
        <ele>65.2</ele>
        <time>2025-08-25T10:55:14Z</time>
      </trkpt>
      <trkpt lat="46.99722" lon="-0.98035">
        <ele>65.2</ele>
        <time>2025-08-25T10:55:15Z</time>
      </trkpt>
      <trkpt lat="46.99724" lon="-0.98037">
        <ele>65.2</ele>
        <time>2025-08-25T10:55:16Z</time>
      </trkpt>
      <trkpt lat="46.99725" lon="-0.98039">
        <ele>65.2</ele>
        <time>2025-08-25T10:55:17Z</time>
      </trkpt>
      <trkpt lat="46.99726" lon="-0.9804">
        <ele>65.2</ele>
        <time>2025-08-25T10:55:18Z</time>
      </trkpt>
      <trkpt lat="46.99727" lon="-0.9804">
        <ele>65.2</ele>
        <time>2025-08-25T10:55:19Z</time>
      </trkpt>
      <trkpt lat="46.99728" lon="-0.98042">
        <ele>65.2</ele>
        <time>2025-08-25T10:55:20Z</time>
      </trkpt>
      <trkpt lat="46.99729" lon="-0.98043">
        <ele>65.2</ele>
        <time>2025-08-25T10:55:21Z</time>
      </trkpt>
      <trkpt lat="46.99731" lon="-0.98045">
        <ele>65.2</ele>
        <time>2025-08-25T10:55:22Z</time>
      </trkpt>
      <trkpt lat="46.99732" lon="-0.98046">
        <ele>65.3</ele>
        <time>2025-08-25T10:55:23Z</time>
      </trkpt>
      <trkpt lat="46.99732" lon="-0.98046">
        <ele>65.3</ele>
        <time>2025-08-25T10:55:24Z</time>
      </trkpt>
      <trkpt lat="46.99734" lon="-0.98048">
        <ele>65.3</ele>
        <time>2025-08-25T10:55:25Z</time>
      </trkpt>
      <trkpt lat="46.99735" lon="-0.98049">
        <ele>65.3</ele>
        <time>2025-08-25T10:55:26Z</time>
      </trkpt>
      <trkpt lat="46.99736" lon="-0.9805">
        <ele>65.3</ele>
        <time>2025-08-25T10:55:27Z</time>
      </trkpt>
      <trkpt lat="46.99737" lon="-0.98052">
        <ele>65.3</ele>
        <time>2025-08-25T10:55:28Z</time>
      </trkpt>
      <trkpt lat="46.99739" lon="-0.98054">
        <ele>65.3</ele>
        <time>2025-08-25T10:55:29Z</time>
      </trkpt>
      <trkpt lat="46.99739" lon="-0.98055">
        <ele>65.3</ele>
        <time>2025-08-25T10:55:30Z</time>
      </trkpt>
      <trkpt lat="46.99739" lon="-0.98055">
        <ele>65.3</ele>
        <time>2025-08-25T10:55:31Z</time>
      </trkpt>
      <trkpt lat="46.99741" lon="-0.98058">
        <ele>65.4</ele>
        <time>2025-08-25T10:55:32Z</time>
      </trkpt>
      <trkpt lat="46.99742" lon="-0.98059">
        <ele>65.4</ele>
        <time>2025-08-25T10:55:33Z</time>
      </trkpt>
      <trkpt lat="46.99742" lon="-0.9806">
        <ele>65.4</ele>
        <time>2025-08-25T10:55:34Z</time>
      </trkpt>
      <trkpt lat="46.99743" lon="-0.98062">
        <ele>65.4</ele>
        <time>2025-08-25T10:55:35Z</time>
      </trkpt>
      <trkpt lat="46.99744" lon="-0.98063">
        <ele>65.4</ele>
        <time>2025-08-25T10:55:36Z</time>
      </trkpt>
      <trkpt lat="46.99744" lon="-0.98065">
        <ele>65.4</ele>
        <time>2025-08-25T10:55:37Z</time>
      </trkpt>
      <trkpt lat="46.99745" lon="-0.98066">
        <ele>65.4</ele>
        <time>2025-08-25T10:55:38Z</time>
      </trkpt>
      <trkpt lat="46.99746" lon="-0.98069">
        <ele>65.4</ele>
        <time>2025-08-25T10:55:39Z</time>
      </trkpt>
      <trkpt lat="46.99747" lon="-0.9807">
        <ele>65.4</ele>
        <time>2025-08-25T10:55:40Z</time>
      </trkpt>
      <trkpt lat="46.99748" lon="-0.98071">
        <ele>65.4</ele>
        <time>2025-08-25T10:55:41Z</time>
      </trkpt>
      <trkpt lat="46.99748" lon="-0.98073">
        <ele>65.4</ele>
        <time>2025-08-25T10:55:42Z</time>
      </trkpt>
      <trkpt lat="46.9975" lon="-0.98075">
        <ele>65.4</ele>
        <time>2025-08-25T10:55:43Z</time>
      </trkpt>
      <trkpt lat="46.99751" lon="-0.98076">
        <ele>65.4</ele>
        <time>2025-08-25T10:55:44Z</time>
      </trkpt>
      <trkpt lat="46.99751" lon="-0.98077">
        <ele>65.4</ele>
        <time>2025-08-25T10:55:45Z</time>
      </trkpt>
      <trkpt lat="46.99753" lon="-0.98079">
        <ele>65.4</ele>
        <time>2025-08-25T10:55:46Z</time>
      </trkpt>
      <trkpt lat="46.99754" lon="-0.9808">
        <ele>65.4</ele>
        <time>2025-08-25T10:55:47Z</time>
      </trkpt>
      <trkpt lat="46.99754" lon="-0.9808">
        <ele>65.4</ele>
        <time>2025-08-25T10:55:48Z</time>
      </trkpt>
      <trkpt lat="46.99756" lon="-0.98082">
        <ele>65.4</ele>
        <time>2025-08-25T10:55:49Z</time>
      </trkpt>
      <trkpt lat="46.99757" lon="-0.98083">
        <ele>65.4</ele>
        <time>2025-08-25T10:55:50Z</time>
      </trkpt>
      <trkpt lat="46.99758" lon="-0.98083">
        <ele>65.4</ele>
        <time>2025-08-25T10:55:51Z</time>
      </trkpt>
      <trkpt lat="46.9976" lon="-0.98085">
        <ele>65.4</ele>
        <time>2025-08-25T10:55:52Z</time>
      </trkpt>
      <trkpt lat="46.9976" lon="-0.98086">
        <ele>65.4</ele>
        <time>2025-08-25T10:55:53Z</time>
      </trkpt>
      <trkpt lat="46.99761" lon="-0.98086">
        <ele>65.4</ele>
        <time>2025-08-25T10:55:54Z</time>
      </trkpt>
      <trkpt lat="46.99762" lon="-0.98087">
        <ele>65.4</ele>
        <time>2025-08-25T10:55:55Z</time>
      </trkpt>
      <trkpt lat="46.99763" lon="-0.98088">
        <ele>65.4</ele>
        <time>2025-08-25T10:55:56Z</time>
      </trkpt>
      <trkpt lat="46.99764" lon="-0.98089">
        <ele>65.4</ele>
        <time>2025-08-25T10:55:57Z</time>
      </trkpt>
      <trkpt lat="46.99765" lon="-0.9809">
        <ele>65.4</ele>
        <time>2025-08-25T10:55:58Z</time>
      </trkpt>
      <trkpt lat="46.99766" lon="-0.98091">
        <ele>65.4</ele>
        <time>2025-08-25T10:55:59Z</time>
      </trkpt>
      <trkpt lat="46.99767" lon="-0.98092">
        <ele>65.4</ele>
        <time>2025-08-25T10:56:00Z</time>
      </trkpt>
      <trkpt lat="46.99767" lon="-0.98093">
        <ele>65.4</ele>
        <time>2025-08-25T10:56:01Z</time>
      </trkpt>
      <trkpt lat="46.99768" lon="-0.98094">
        <ele>65.4</ele>
        <time>2025-08-25T10:56:02Z</time>
      </trkpt>
      <trkpt lat="46.99769" lon="-0.98095">
        <ele>65.4</ele>
        <time>2025-08-25T10:56:03Z</time>
      </trkpt>
      <trkpt lat="46.99769" lon="-0.98097">
        <ele>65.4</ele>
        <time>2025-08-25T10:56:04Z</time>
      </trkpt>
      <trkpt lat="46.99769" lon="-0.98097">
        <ele>65.4</ele>
        <time>2025-08-25T10:56:05Z</time>
      </trkpt>
      <trkpt lat="46.9977" lon="-0.98098">
        <ele>65.4</ele>
        <time>2025-08-25T10:56:06Z</time>
      </trkpt>
      <trkpt lat="46.99771" lon="-0.98099">
        <ele>65.4</ele>
        <time>2025-08-25T10:56:07Z</time>
      </trkpt>
      <trkpt lat="46.99771" lon="-0.981">
        <ele>65.4</ele>
        <time>2025-08-25T10:56:08Z</time>
      </trkpt>
      <trkpt lat="46.99772" lon="-0.98101">
        <ele>65.4</ele>
        <time>2025-08-25T10:56:09Z</time>
      </trkpt>
      <trkpt lat="46.99772" lon="-0.98102">
        <ele>65.4</ele>
        <time>2025-08-25T10:56:10Z</time>
      </trkpt>
      <trkpt lat="46.99773" lon="-0.98103">
        <ele>65.4</ele>
        <time>2025-08-25T10:56:11Z</time>
      </trkpt>
      <trkpt lat="46.99773" lon="-0.98105">
        <ele>65.4</ele>
        <time>2025-08-25T10:56:12Z</time>
      </trkpt>
      <trkpt lat="46.99773" lon="-0.98106">
        <ele>65.4</ele>
        <time>2025-08-25T10:56:13Z</time>
      </trkpt>
      <trkpt lat="46.99773" lon="-0.98108">
        <ele>65.4</ele>
        <time>2025-08-25T10:56:14Z</time>
      </trkpt>
      <trkpt lat="46.99773" lon="-0.98109">
        <ele>65.4</ele>
        <time>2025-08-25T10:56:15Z</time>
      </trkpt>
      <trkpt lat="46.99773" lon="-0.98111">
        <ele>65.4</ele>
        <time>2025-08-25T10:56:16Z</time>
      </trkpt>
      <trkpt lat="46.99773" lon="-0.98112">
        <ele>65.4</ele>
        <time>2025-08-25T10:56:17Z</time>
      </trkpt>
      <trkpt lat="46.99773" lon="-0.98114">
        <ele>65.5</ele>
        <time>2025-08-25T10:56:18Z</time>
      </trkpt>
      <trkpt lat="46.99773" lon="-0.98115">
        <ele>65.5</ele>
        <time>2025-08-25T10:56:19Z</time>
      </trkpt>
      <trkpt lat="46.99773" lon="-0.98118">
        <ele>65.5</ele>
        <time>2025-08-25T10:56:20Z</time>
      </trkpt>
      <trkpt lat="46.99773" lon="-0.98119">
        <ele>65.5</ele>
        <time>2025-08-25T10:56:21Z</time>
      </trkpt>
      <trkpt lat="46.99772" lon="-0.98121">
        <ele>65.5</ele>
        <time>2025-08-25T10:56:22Z</time>
      </trkpt>
      <trkpt lat="46.99772" lon="-0.98124">
        <ele>65.6</ele>
        <time>2025-08-25T10:56:23Z</time>
      </trkpt>
      <trkpt lat="46.99772" lon="-0.98125">
        <ele>65.6</ele>
        <time>2025-08-25T10:56:24Z</time>
      </trkpt>
      <trkpt lat="46.99772" lon="-0.98126">
        <ele>65.6</ele>
        <time>2025-08-25T10:56:25Z</time>
      </trkpt>
      <trkpt lat="46.99772" lon="-0.98127">
        <ele>65.6</ele>
        <time>2025-08-25T10:56:26Z</time>
      </trkpt>
      <trkpt lat="46.99771" lon="-0.98129">
        <ele>65.7</ele>
        <time>2025-08-25T10:56:27Z</time>
      </trkpt>
      <trkpt lat="46.99771" lon="-0.98131">
        <ele>65.7</ele>
        <time>2025-08-25T10:56:28Z</time>
      </trkpt>
      <trkpt lat="46.99771" lon="-0.98132">
        <ele>65.7</ele>
        <time>2025-08-25T10:56:29Z</time>
      </trkpt>
      <trkpt lat="46.99771" lon="-0.98134">
        <ele>65.7</ele>
        <time>2025-08-25T10:56:30Z</time>
      </trkpt>
      <trkpt lat="46.99771" lon="-0.98135">
        <ele>65.8</ele>
        <time>2025-08-25T10:56:31Z</time>
      </trkpt>
      <trkpt lat="46.99771" lon="-0.98138">
        <ele>65.8</ele>
        <time>2025-08-25T10:56:32Z</time>
      </trkpt>
      <trkpt lat="46.99771" lon="-0.9814">
        <ele>65.8</ele>
        <time>2025-08-25T10:56:33Z</time>
      </trkpt>
      <trkpt lat="46.99772" lon="-0.98141">
        <ele>65.8</ele>
        <time>2025-08-25T10:56:34Z</time>
      </trkpt>
      <trkpt lat="46.99772" lon="-0.98144">
        <ele>65.9</ele>
        <time>2025-08-25T10:56:35Z</time>
      </trkpt>
      <trkpt lat="46.99772" lon="-0.98146">
        <ele>65.9</ele>
        <time>2025-08-25T10:56:36Z</time>
      </trkpt>
      <trkpt lat="46.99773" lon="-0.98149">
        <ele>65.9</ele>
        <time>2025-08-25T10:56:37Z</time>
      </trkpt>
      <trkpt lat="46.99773" lon="-0.98151">
        <ele>65.9</ele>
        <time>2025-08-25T10:56:38Z</time>
      </trkpt>
      <trkpt lat="46.99774" lon="-0.98154">
        <ele>65.9</ele>
        <time>2025-08-25T10:56:39Z</time>
      </trkpt>
      <trkpt lat="46.99774" lon="-0.98156">
        <ele>65.9</ele>
        <time>2025-08-25T10:56:40Z</time>
      </trkpt>
      <trkpt lat="46.99774" lon="-0.98158">
        <ele>65.9</ele>
        <time>2025-08-25T10:56:41Z</time>
      </trkpt>
      <trkpt lat="46.99775" lon="-0.9816">
        <ele>65.9</ele>
        <time>2025-08-25T10:56:42Z</time>
      </trkpt>
      <trkpt lat="46.99775" lon="-0.98163">
        <ele>65.8</ele>
        <time>2025-08-25T10:56:43Z</time>
      </trkpt>
      <trkpt lat="46.99775" lon="-0.98165">
        <ele>65.8</ele>
        <time>2025-08-25T10:56:44Z</time>
      </trkpt>
      <trkpt lat="46.99776" lon="-0.98166">
        <ele>65.8</ele>
        <time>2025-08-25T10:56:45Z</time>
      </trkpt>
      <trkpt lat="46.99776" lon="-0.98168">
        <ele>65.8</ele>
        <time>2025-08-25T10:56:46Z</time>
      </trkpt>
      <trkpt lat="46.99776" lon="-0.9817">
        <ele>65.7</ele>
        <time>2025-08-25T10:56:47Z</time>
      </trkpt>
      <trkpt lat="46.99776" lon="-0.98172">
        <ele>65.7</ele>
        <time>2025-08-25T10:56:48Z</time>
      </trkpt>
      <trkpt lat="46.99776" lon="-0.98174">
        <ele>65.6</ele>
        <time>2025-08-25T10:56:49Z</time>
      </trkpt>
      <trkpt lat="46.99776" lon="-0.98176">
        <ele>65.6</ele>
        <time>2025-08-25T10:56:50Z</time>
      </trkpt>
      <trkpt lat="46.99776" lon="-0.98179">
        <ele>65.6</ele>
        <time>2025-08-25T10:56:51Z</time>
      </trkpt>
      <trkpt lat="46.99776" lon="-0.98181">
        <ele>65.5</ele>
        <time>2025-08-25T10:56:52Z</time>
      </trkpt>
      <trkpt lat="46.99777" lon="-0.98183">
        <ele>65.5</ele>
        <time>2025-08-25T10:56:53Z</time>
      </trkpt>
      <trkpt lat="46.99777" lon="-0.98185">
        <ele>65.4</ele>
        <time>2025-08-25T10:56:54Z</time>
      </trkpt>
      <trkpt lat="46.99777" lon="-0.98187">
        <ele>65.4</ele>
        <time>2025-08-25T10:56:55Z</time>
      </trkpt>
      <trkpt lat="46.99778" lon="-0.9819">
        <ele>65.3</ele>
        <time>2025-08-25T10:56:56Z</time>
      </trkpt>
      <trkpt lat="46.99778" lon="-0.98192">
        <ele>65.3</ele>
        <time>2025-08-25T10:56:57Z</time>
      </trkpt>
      <trkpt lat="46.99778" lon="-0.98193">
        <ele>65.3</ele>
        <time>2025-08-25T10:56:58Z</time>
      </trkpt>
      <trkpt lat="46.99779" lon="-0.98196">
        <ele>65.2</ele>
        <time>2025-08-25T10:56:59Z</time>
      </trkpt>
      <trkpt lat="46.99779" lon="-0.98197">
        <ele>65.2</ele>
        <time>2025-08-25T10:57:00Z</time>
      </trkpt>
      <trkpt lat="46.99779" lon="-0.98198">
        <ele>65.1</ele>
        <time>2025-08-25T10:57:01Z</time>
      </trkpt>
      <trkpt lat="46.9978" lon="-0.98201">
        <ele>65.1</ele>
        <time>2025-08-25T10:57:02Z</time>
      </trkpt>
      <trkpt lat="46.9978" lon="-0.98202">
        <ele>65</ele>
        <time>2025-08-25T10:57:03Z</time>
      </trkpt>
      <trkpt lat="46.9978" lon="-0.98203">
        <ele>65</ele>
        <time>2025-08-25T10:57:04Z</time>
      </trkpt>
      <trkpt lat="46.99781" lon="-0.98207">
        <ele>65</ele>
        <time>2025-08-25T10:57:05Z</time>
      </trkpt>
      <trkpt lat="46.99781" lon="-0.98208">
        <ele>64.9</ele>
        <time>2025-08-25T10:57:06Z</time>
      </trkpt>
      <trkpt lat="46.99781" lon="-0.98209">
        <ele>64.9</ele>
        <time>2025-08-25T10:57:07Z</time>
      </trkpt>
      <trkpt lat="46.99782" lon="-0.98211">
        <ele>64.9</ele>
        <time>2025-08-25T10:57:08Z</time>
      </trkpt>
      <trkpt lat="46.99782" lon="-0.98213">
        <ele>64.8</ele>
        <time>2025-08-25T10:57:09Z</time>
      </trkpt>
      <trkpt lat="46.99783" lon="-0.98216">
        <ele>64.7</ele>
        <time>2025-08-25T10:57:10Z</time>
      </trkpt>
      <trkpt lat="46.99783" lon="-0.98218">
        <ele>64.7</ele>
        <time>2025-08-25T10:57:11Z</time>
      </trkpt>
      <trkpt lat="46.99784" lon="-0.98219">
        <ele>64.7</ele>
        <time>2025-08-25T10:57:12Z</time>
      </trkpt>
      <trkpt lat="46.99784" lon="-0.98222">
        <ele>64.6</ele>
        <time>2025-08-25T10:57:13Z</time>
      </trkpt>
      <trkpt lat="46.99784" lon="-0.98223">
        <ele>64.6</ele>
        <time>2025-08-25T10:57:14Z</time>
      </trkpt>
      <trkpt lat="46.99785" lon="-0.98224">
        <ele>64.6</ele>
        <time>2025-08-25T10:57:15Z</time>
      </trkpt>
      <trkpt lat="46.99785" lon="-0.98227">
        <ele>64.5</ele>
        <time>2025-08-25T10:57:16Z</time>
      </trkpt>
      <trkpt lat="46.99786" lon="-0.98229">
        <ele>64.5</ele>
        <time>2025-08-25T10:57:17Z</time>
      </trkpt>
      <trkpt lat="46.99786" lon="-0.9823">
        <ele>64.5</ele>
        <time>2025-08-25T10:57:18Z</time>
      </trkpt>
      <trkpt lat="46.99786" lon="-0.98231">
        <ele>64.5</ele>
        <time>2025-08-25T10:57:19Z</time>
      </trkpt>
      <trkpt lat="46.99787" lon="-0.98233">
        <ele>64.4</ele>
        <time>2025-08-25T10:57:20Z</time>
      </trkpt>
      <trkpt lat="46.99787" lon="-0.98234">
        <ele>64.4</ele>
        <time>2025-08-25T10:57:21Z</time>
      </trkpt>
      <trkpt lat="46.99787" lon="-0.98236">
        <ele>64.4</ele>
        <time>2025-08-25T10:57:22Z</time>
      </trkpt>
      <trkpt lat="46.99788" lon="-0.98238">
        <ele>64.3</ele>
        <time>2025-08-25T10:57:23Z</time>
      </trkpt>
      <trkpt lat="46.99788" lon="-0.98239">
        <ele>64.3</ele>
        <time>2025-08-25T10:57:24Z</time>
      </trkpt>
      <trkpt lat="46.99789" lon="-0.98241">
        <ele>64.3</ele>
        <time>2025-08-25T10:57:25Z</time>
      </trkpt>
      <trkpt lat="46.99789" lon="-0.98243">
        <ele>64.3</ele>
        <time>2025-08-25T10:57:26Z</time>
      </trkpt>
      <trkpt lat="46.99789" lon="-0.98244">
        <ele>64.3</ele>
        <time>2025-08-25T10:57:27Z</time>
      </trkpt>
      <trkpt lat="46.9979" lon="-0.98247">
        <ele>64.2</ele>
        <time>2025-08-25T10:57:28Z</time>
      </trkpt>
      <trkpt lat="46.9979" lon="-0.98248">
        <ele>64.2</ele>
        <time>2025-08-25T10:57:29Z</time>
      </trkpt>
      <trkpt lat="46.9979" lon="-0.98249">
        <ele>64.2</ele>
        <time>2025-08-25T10:57:30Z</time>
      </trkpt>
      <trkpt lat="46.9979" lon="-0.98251">
        <ele>64.2</ele>
        <time>2025-08-25T10:57:31Z</time>
      </trkpt>
      <trkpt lat="46.9979" lon="-0.98252">
        <ele>64.2</ele>
        <time>2025-08-25T10:57:32Z</time>
      </trkpt>
      <trkpt lat="46.9979" lon="-0.98254">
        <ele>64.2</ele>
        <time>2025-08-25T10:57:33Z</time>
      </trkpt>
      <trkpt lat="46.9979" lon="-0.98256">
        <ele>64.2</ele>
        <time>2025-08-25T10:57:34Z</time>
      </trkpt>
      <trkpt lat="46.99791" lon="-0.98259">
        <ele>64.2</ele>
        <time>2025-08-25T10:57:35Z</time>
      </trkpt>
      <trkpt lat="46.99791" lon="-0.9826">
        <ele>64.2</ele>
        <time>2025-08-25T10:57:36Z</time>
      </trkpt>
      <trkpt lat="46.99791" lon="-0.98262">
        <ele>64.2</ele>
        <time>2025-08-25T10:57:37Z</time>
      </trkpt>
      <trkpt lat="46.99791" lon="-0.98264">
        <ele>64.2</ele>
        <time>2025-08-25T10:57:38Z</time>
      </trkpt>
      <trkpt lat="46.99791" lon="-0.98266">
        <ele>64.2</ele>
        <time>2025-08-25T10:57:39Z</time>
      </trkpt>
      <trkpt lat="46.99791" lon="-0.98268">
        <ele>64.2</ele>
        <time>2025-08-25T10:57:40Z</time>
      </trkpt>
      <trkpt lat="46.99791" lon="-0.98271">
        <ele>64.2</ele>
        <time>2025-08-25T10:57:41Z</time>
      </trkpt>
      <trkpt lat="46.99791" lon="-0.98273">
        <ele>64.3</ele>
        <time>2025-08-25T10:57:42Z</time>
      </trkpt>
      <trkpt lat="46.99792" lon="-0.98275">
        <ele>64.3</ele>
        <time>2025-08-25T10:57:43Z</time>
      </trkpt>
      <trkpt lat="46.99792" lon="-0.98277">
        <ele>64.3</ele>
        <time>2025-08-25T10:57:44Z</time>
      </trkpt>
      <trkpt lat="46.99792" lon="-0.98279">
        <ele>64.3</ele>
        <time>2025-08-25T10:57:45Z</time>
      </trkpt>
      <trkpt lat="46.99793" lon="-0.98282">
        <ele>64.4</ele>
        <time>2025-08-25T10:57:46Z</time>
      </trkpt>
      <trkpt lat="46.99793" lon="-0.98283">
        <ele>64.4</ele>
        <time>2025-08-25T10:57:47Z</time>
      </trkpt>
      <trkpt lat="46.99793" lon="-0.98284">
        <ele>64.4</ele>
        <time>2025-08-25T10:57:48Z</time>
      </trkpt>
      <trkpt lat="46.99794" lon="-0.98287">
        <ele>64.5</ele>
        <time>2025-08-25T10:57:49Z</time>
      </trkpt>
      <trkpt lat="46.99794" lon="-0.98288">
        <ele>64.5</ele>
        <time>2025-08-25T10:57:50Z</time>
      </trkpt>
      <trkpt lat="46.99795" lon="-0.98289">
        <ele>64.6</ele>
        <time>2025-08-25T10:57:51Z</time>
      </trkpt>
      <trkpt lat="46.99795" lon="-0.98291">
        <ele>64.6</ele>
        <time>2025-08-25T10:57:52Z</time>
      </trkpt>
      <trkpt lat="46.99796" lon="-0.98293">
        <ele>64.7</ele>
        <time>2025-08-25T10:57:53Z</time>
      </trkpt>
      <trkpt lat="46.99797" lon="-0.98295">
        <ele>64.8</ele>
        <time>2025-08-25T10:57:54Z</time>
      </trkpt>
      <trkpt lat="46.99798" lon="-0.98296">
        <ele>64.8</ele>
        <time>2025-08-25T10:57:55Z</time>
      </trkpt>
      <trkpt lat="46.99799" lon="-0.98299">
        <ele>64.9</ele>
        <time>2025-08-25T10:57:56Z</time>
      </trkpt>
      <trkpt lat="46.998" lon="-0.98299">
        <ele>65</ele>
        <time>2025-08-25T10:57:57Z</time>
      </trkpt>
      <trkpt lat="46.99801" lon="-0.983">
        <ele>65</ele>
        <time>2025-08-25T10:57:58Z</time>
      </trkpt>
      <trkpt lat="46.99802" lon="-0.98302">
        <ele>65.1</ele>
        <time>2025-08-25T10:57:59Z</time>
      </trkpt>
      <trkpt lat="46.99803" lon="-0.98303">
        <ele>65.2</ele>
        <time>2025-08-25T10:58:00Z</time>
      </trkpt>
      <trkpt lat="46.99804" lon="-0.98304">
        <ele>65.2</ele>
        <time>2025-08-25T10:58:01Z</time>
      </trkpt>
      <trkpt lat="46.99805" lon="-0.98305">
        <ele>65.3</ele>
        <time>2025-08-25T10:58:02Z</time>
      </trkpt>
      <trkpt lat="46.99806" lon="-0.98306">
        <ele>65.4</ele>
        <time>2025-08-25T10:58:03Z</time>
      </trkpt>
      <trkpt lat="46.99808" lon="-0.98308">
        <ele>65.5</ele>
        <time>2025-08-25T10:58:04Z</time>
      </trkpt>
      <trkpt lat="46.99808" lon="-0.98308">
        <ele>65.5</ele>
        <time>2025-08-25T10:58:05Z</time>
      </trkpt>
      <trkpt lat="46.99809" lon="-0.98309">
        <ele>65.6</ele>
        <time>2025-08-25T10:58:06Z</time>
      </trkpt>
      <trkpt lat="46.99811" lon="-0.98311">
        <ele>65.7</ele>
        <time>2025-08-25T10:58:07Z</time>
      </trkpt>
      <trkpt lat="46.99812" lon="-0.98311">
        <ele>65.7</ele>
        <time>2025-08-25T10:58:08Z</time>
      </trkpt>
      <trkpt lat="46.99812" lon="-0.98312">
        <ele>65.8</ele>
        <time>2025-08-25T10:58:09Z</time>
      </trkpt>
      <trkpt lat="46.99813" lon="-0.98313">
        <ele>65.9</ele>
        <time>2025-08-25T10:58:10Z</time>
      </trkpt>
      <trkpt lat="46.99814" lon="-0.98314">
        <ele>65.9</ele>
        <time>2025-08-25T10:58:11Z</time>
      </trkpt>
      <trkpt lat="46.99815" lon="-0.98314">
        <ele>66</ele>
        <time>2025-08-25T10:58:12Z</time>
      </trkpt>
      <trkpt lat="46.99816" lon="-0.98315">
        <ele>66</ele>
        <time>2025-08-25T10:58:13Z</time>
      </trkpt>
      <trkpt lat="46.99817" lon="-0.98316">
        <ele>66.1</ele>
        <time>2025-08-25T10:58:14Z</time>
      </trkpt>
      <trkpt lat="46.99818" lon="-0.98318">
        <ele>66.1</ele>
        <time>2025-08-25T10:58:15Z</time>
      </trkpt>
      <trkpt lat="46.99819" lon="-0.98319">
        <ele>66.2</ele>
        <time>2025-08-25T10:58:16Z</time>
      </trkpt>
      <trkpt lat="46.99819" lon="-0.9832">
        <ele>66.2</ele>
        <time>2025-08-25T10:58:17Z</time>
      </trkpt>
      <trkpt lat="46.9982" lon="-0.98321">
        <ele>66.3</ele>
        <time>2025-08-25T10:58:18Z</time>
      </trkpt>
      <trkpt lat="46.99821" lon="-0.98322">
        <ele>66.3</ele>
        <time>2025-08-25T10:58:19Z</time>
      </trkpt>
      <trkpt lat="46.99821" lon="-0.98324">
        <ele>66.4</ele>
        <time>2025-08-25T10:58:20Z</time>
      </trkpt>
      <trkpt lat="46.99822" lon="-0.98325">
        <ele>66.4</ele>
        <time>2025-08-25T10:58:21Z</time>
      </trkpt>
      <trkpt lat="46.99823" lon="-0.98326">
        <ele>66.4</ele>
        <time>2025-08-25T10:58:22Z</time>
      </trkpt>
      <trkpt lat="46.99823" lon="-0.98328">
        <ele>66.5</ele>
        <time>2025-08-25T10:58:23Z</time>
      </trkpt>
      <trkpt lat="46.99824" lon="-0.98329">
        <ele>66.5</ele>
        <time>2025-08-25T10:58:24Z</time>
      </trkpt>
      <trkpt lat="46.99824" lon="-0.98331">
        <ele>66.6</ele>
        <time>2025-08-25T10:58:25Z</time>
      </trkpt>
      <trkpt lat="46.99825" lon="-0.98332">
        <ele>66.6</ele>
        <time>2025-08-25T10:58:26Z</time>
      </trkpt>
      <trkpt lat="46.99825" lon="-0.98334">
        <ele>66.6</ele>
        <time>2025-08-25T10:58:27Z</time>
      </trkpt>
      <trkpt lat="46.99826" lon="-0.98335">
        <ele>66.7</ele>
        <time>2025-08-25T10:58:28Z</time>
      </trkpt>
      <trkpt lat="46.99827" lon="-0.98336">
        <ele>66.7</ele>
        <time>2025-08-25T10:58:29Z</time>
      </trkpt>
      <trkpt lat="46.99827" lon="-0.98338">
        <ele>66.7</ele>
        <time>2025-08-25T10:58:30Z</time>
      </trkpt>
      <trkpt lat="46.99828" lon="-0.98341">
        <ele>66.8</ele>
        <time>2025-08-25T10:58:31Z</time>
      </trkpt>
      <trkpt lat="46.99828" lon="-0.98342">
        <ele>66.8</ele>
        <time>2025-08-25T10:58:32Z</time>
      </trkpt>
      <trkpt lat="46.99829" lon="-0.98343">
        <ele>66.8</ele>
        <time>2025-08-25T10:58:33Z</time>
      </trkpt>
      <trkpt lat="46.99829" lon="-0.98345">
        <ele>66.9</ele>
        <time>2025-08-25T10:58:34Z</time>
      </trkpt>
      <trkpt lat="46.99829" lon="-0.98347">
        <ele>66.9</ele>
        <time>2025-08-25T10:58:35Z</time>
      </trkpt>
      <trkpt lat="46.9983" lon="-0.98349">
        <ele>66.9</ele>
        <time>2025-08-25T10:58:36Z</time>
      </trkpt>
      <trkpt lat="46.99831" lon="-0.98351">
        <ele>67</ele>
        <time>2025-08-25T10:58:37Z</time>
      </trkpt>
      <trkpt lat="46.99832" lon="-0.98354">
        <ele>67</ele>
        <time>2025-08-25T10:58:38Z</time>
      </trkpt>
      <trkpt lat="46.99832" lon="-0.98355">
        <ele>67</ele>
        <time>2025-08-25T10:58:39Z</time>
      </trkpt>
      <trkpt lat="46.99833" lon="-0.98356">
        <ele>67</ele>
        <time>2025-08-25T10:58:40Z</time>
      </trkpt>
      <trkpt lat="46.99833" lon="-0.98357">
        <ele>67.1</ele>
        <time>2025-08-25T10:58:41Z</time>
      </trkpt>
      <trkpt lat="46.99834" lon="-0.98358">
        <ele>67.1</ele>
        <time>2025-08-25T10:58:42Z</time>
      </trkpt>
      <trkpt lat="46.99835" lon="-0.9836">
        <ele>67.1</ele>
        <time>2025-08-25T10:58:43Z</time>
      </trkpt>
      <trkpt lat="46.99835" lon="-0.98361">
        <ele>67.1</ele>
        <time>2025-08-25T10:58:44Z</time>
      </trkpt>
      <trkpt lat="46.99835" lon="-0.98362">
        <ele>67.1</ele>
        <time>2025-08-25T10:58:45Z</time>
      </trkpt>
      <trkpt lat="46.99836" lon="-0.98363">
        <ele>67.1</ele>
        <time>2025-08-25T10:58:46Z</time>
      </trkpt>
      <trkpt lat="46.99836" lon="-0.98365">
        <ele>67</ele>
        <time>2025-08-25T10:58:47Z</time>
      </trkpt>
      <trkpt lat="46.99836" lon="-0.98366">
        <ele>67</ele>
        <time>2025-08-25T10:58:48Z</time>
      </trkpt>
      <trkpt lat="46.99836" lon="-0.98368">
        <ele>66.9</ele>
        <time>2025-08-25T10:58:49Z</time>
      </trkpt>
      <trkpt lat="46.99836" lon="-0.98369">
        <ele>66.9</ele>
        <time>2025-08-25T10:58:50Z</time>
      </trkpt>
      <trkpt lat="46.99836" lon="-0.98371">
        <ele>66.8</ele>
        <time>2025-08-25T10:58:51Z</time>
      </trkpt>
      <trkpt lat="46.99836" lon="-0.98372">
        <ele>66.8</ele>
        <time>2025-08-25T10:58:52Z</time>
      </trkpt>
      <trkpt lat="46.99836" lon="-0.98374">
        <ele>66.8</ele>
        <time>2025-08-25T10:58:53Z</time>
      </trkpt>
      <trkpt lat="46.99836" lon="-0.98375">
        <ele>66.7</ele>
        <time>2025-08-25T10:58:54Z</time>
      </trkpt>
      <trkpt lat="46.99837" lon="-0.98377">
        <ele>66.7</ele>
        <time>2025-08-25T10:58:55Z</time>
      </trkpt>
      <trkpt lat="46.99837" lon="-0.9838">
        <ele>66.6</ele>
        <time>2025-08-25T10:58:56Z</time>
      </trkpt>
      <trkpt lat="46.99837" lon="-0.98381">
        <ele>66.6</ele>
        <time>2025-08-25T10:58:57Z</time>
      </trkpt>
      <trkpt lat="46.99838" lon="-0.98382">
        <ele>66.5</ele>
        <time>2025-08-25T10:58:58Z</time>
      </trkpt>
      <trkpt lat="46.99838" lon="-0.98385">
        <ele>66.4</ele>
        <time>2025-08-25T10:58:59Z</time>
      </trkpt>
      <trkpt lat="46.99838" lon="-0.98387">
        <ele>66.4</ele>
        <time>2025-08-25T10:59:00Z</time>
      </trkpt>
      <trkpt lat="46.99839" lon="-0.98388">
        <ele>66.4</ele>
        <time>2025-08-25T10:59:01Z</time>
      </trkpt>
      <trkpt lat="46.99839" lon="-0.9839">
        <ele>66.3</ele>
        <time>2025-08-25T10:59:02Z</time>
      </trkpt>
      <trkpt lat="46.9984" lon="-0.98392">
        <ele>66.2</ele>
        <time>2025-08-25T10:59:03Z</time>
      </trkpt>
      <trkpt lat="46.9984" lon="-0.98394">
        <ele>66.2</ele>
        <time>2025-08-25T10:59:04Z</time>
      </trkpt>
      <trkpt lat="46.99841" lon="-0.98396">
        <ele>66.1</ele>
        <time>2025-08-25T10:59:05Z</time>
      </trkpt>
      <trkpt lat="46.99842" lon="-0.98398">
        <ele>66.1</ele>
        <time>2025-08-25T10:59:06Z</time>
      </trkpt>
      <trkpt lat="46.99842" lon="-0.98399">
        <ele>66</ele>
        <time>2025-08-25T10:59:07Z</time>
      </trkpt>
      <trkpt lat="46.99843" lon="-0.98401">
        <ele>66</ele>
        <time>2025-08-25T10:59:08Z</time>
      </trkpt>
      <trkpt lat="46.99844" lon="-0.98403">
        <ele>65.9</ele>
        <time>2025-08-25T10:59:09Z</time>
      </trkpt>
      <trkpt lat="46.99845" lon="-0.98405">
        <ele>65.8</ele>
        <time>2025-08-25T10:59:10Z</time>
      </trkpt>
      <trkpt lat="46.99846" lon="-0.98407">
        <ele>65.8</ele>
        <time>2025-08-25T10:59:11Z</time>
      </trkpt>
      <trkpt lat="46.99846" lon="-0.98409">
        <ele>65.7</ele>
        <time>2025-08-25T10:59:12Z</time>
      </trkpt>
      <trkpt lat="46.99847" lon="-0.98411">
        <ele>65.7</ele>
        <time>2025-08-25T10:59:13Z</time>
      </trkpt>
      <trkpt lat="46.99848" lon="-0.98413">
        <ele>65.6</ele>
        <time>2025-08-25T10:59:14Z</time>
      </trkpt>
      <trkpt lat="46.99848" lon="-0.98415">
        <ele>65.6</ele>
        <time>2025-08-25T10:59:15Z</time>
      </trkpt>
      <trkpt lat="46.99849" lon="-0.98416">
        <ele>65.5</ele>
        <time>2025-08-25T10:59:16Z</time>
      </trkpt>
      <trkpt lat="46.9985" lon="-0.98418">
        <ele>65.5</ele>
        <time>2025-08-25T10:59:17Z</time>
      </trkpt>
      <trkpt lat="46.99851" lon="-0.98421">
        <ele>65.4</ele>
        <time>2025-08-25T10:59:18Z</time>
      </trkpt>
      <trkpt lat="46.99851" lon="-0.98422">
        <ele>65.4</ele>
        <time>2025-08-25T10:59:19Z</time>
      </trkpt>
      <trkpt lat="46.99852" lon="-0.98423">
        <ele>65.4</ele>
        <time>2025-08-25T10:59:20Z</time>
      </trkpt>
      <trkpt lat="46.99852" lon="-0.98425">
        <ele>65.3</ele>
        <time>2025-08-25T10:59:21Z</time>
      </trkpt>
      <trkpt lat="46.99853" lon="-0.98427">
        <ele>65.3</ele>
        <time>2025-08-25T10:59:22Z</time>
      </trkpt>
      <trkpt lat="46.99854" lon="-0.9843">
        <ele>65.2</ele>
        <time>2025-08-25T10:59:23Z</time>
      </trkpt>
      <trkpt lat="46.99854" lon="-0.98431">
        <ele>65.2</ele>
        <time>2025-08-25T10:59:24Z</time>
      </trkpt>
      <trkpt lat="46.99855" lon="-0.98432">
        <ele>65.2</ele>
        <time>2025-08-25T10:59:25Z</time>
      </trkpt>
      <trkpt lat="46.99856" lon="-0.98434">
        <ele>65.1</ele>
        <time>2025-08-25T10:59:26Z</time>
      </trkpt>
      <trkpt lat="46.99856" lon="-0.98436">
        <ele>65.1</ele>
        <time>2025-08-25T10:59:27Z</time>
      </trkpt>
      <trkpt lat="46.99857" lon="-0.98437">
        <ele>65.1</ele>
        <time>2025-08-25T10:59:28Z</time>
      </trkpt>
      <trkpt lat="46.99858" lon="-0.98439">
        <ele>65</ele>
        <time>2025-08-25T10:59:29Z</time>
      </trkpt>
      <trkpt lat="46.99858" lon="-0.98441">
        <ele>65</ele>
        <time>2025-08-25T10:59:30Z</time>
      </trkpt>
      <trkpt lat="46.99859" lon="-0.98442">
        <ele>65</ele>
        <time>2025-08-25T10:59:31Z</time>
      </trkpt>
      <trkpt lat="46.9986" lon="-0.98444">
        <ele>65</ele>
        <time>2025-08-25T10:59:32Z</time>
      </trkpt>
      <trkpt lat="46.9986" lon="-0.98445">
        <ele>65</ele>
        <time>2025-08-25T10:59:33Z</time>
      </trkpt>
      <trkpt lat="46.99861" lon="-0.98446">
        <ele>65</ele>
        <time>2025-08-25T10:59:34Z</time>
      </trkpt>
      <trkpt lat="46.99862" lon="-0.98448">
        <ele>64.9</ele>
        <time>2025-08-25T10:59:35Z</time>
      </trkpt>
      <trkpt lat="46.99862" lon="-0.98449">
        <ele>64.9</ele>
        <time>2025-08-25T10:59:36Z</time>
      </trkpt>
      <trkpt lat="46.99863" lon="-0.98451">
        <ele>64.9</ele>
        <time>2025-08-25T10:59:37Z</time>
      </trkpt>
      <trkpt lat="46.99864" lon="-0.98452">
        <ele>64.9</ele>
        <time>2025-08-25T10:59:38Z</time>
      </trkpt>
      <trkpt lat="46.99865" lon="-0.98454">
        <ele>64.9</ele>
        <time>2025-08-25T10:59:39Z</time>
      </trkpt>
      <trkpt lat="46.99866" lon="-0.98455">
        <ele>64.9</ele>
        <time>2025-08-25T10:59:40Z</time>
      </trkpt>
      <trkpt lat="46.99866" lon="-0.98456">
        <ele>64.9</ele>
        <time>2025-08-25T10:59:41Z</time>
      </trkpt>
      <trkpt lat="46.99867" lon="-0.98459">
        <ele>64.9</ele>
        <time>2025-08-25T10:59:42Z</time>
      </trkpt>
      <trkpt lat="46.99868" lon="-0.9846">
        <ele>64.9</ele>
        <time>2025-08-25T10:59:43Z</time>
      </trkpt>
      <trkpt lat="46.99868" lon="-0.98461">
        <ele>64.9</ele>
        <time>2025-08-25T10:59:44Z</time>
      </trkpt>
      <trkpt lat="46.99869" lon="-0.98463">
        <ele>64.9</ele>
        <time>2025-08-25T10:59:45Z</time>
      </trkpt>
      <trkpt lat="46.9987" lon="-0.98464">
        <ele>64.9</ele>
        <time>2025-08-25T10:59:46Z</time>
      </trkpt>
      <trkpt lat="46.9987" lon="-0.98465">
        <ele>64.9</ele>
        <time>2025-08-25T10:59:47Z</time>
      </trkpt>
      <trkpt lat="46.99871" lon="-0.98468">
        <ele>64.9</ele>
        <time>2025-08-25T10:59:48Z</time>
      </trkpt>
      <trkpt lat="46.99872" lon="-0.98469">
        <ele>64.9</ele>
        <time>2025-08-25T10:59:49Z</time>
      </trkpt>
      <trkpt lat="46.99872" lon="-0.9847">
        <ele>64.9</ele>
        <time>2025-08-25T10:59:50Z</time>
      </trkpt>
      <trkpt lat="46.99873" lon="-0.98472">
        <ele>64.9</ele>
        <time>2025-08-25T10:59:51Z</time>
      </trkpt>
      <trkpt lat="46.99874" lon="-0.98473">
        <ele>64.9</ele>
        <time>2025-08-25T10:59:52Z</time>
      </trkpt>
      <trkpt lat="46.99875" lon="-0.98475">
        <ele>64.9</ele>
        <time>2025-08-25T10:59:53Z</time>
      </trkpt>
      <trkpt lat="46.99876" lon="-0.98477">
        <ele>64.9</ele>
        <time>2025-08-25T10:59:54Z</time>
      </trkpt>
      <trkpt lat="46.99877" lon="-0.98479">
        <ele>64.9</ele>
        <time>2025-08-25T10:59:55Z</time>
      </trkpt>
      <trkpt lat="46.99877" lon="-0.98481">
        <ele>64.9</ele>
        <time>2025-08-25T10:59:56Z</time>
      </trkpt>
      <trkpt lat="46.99877" lon="-0.98482">
        <ele>64.9</ele>
        <time>2025-08-25T10:59:57Z</time>
      </trkpt>
      <trkpt lat="46.99878" lon="-0.98484">
        <ele>64.9</ele>
        <time>2025-08-25T10:59:58Z</time>
      </trkpt>
      <trkpt lat="46.99879" lon="-0.98486">
        <ele>64.9</ele>
        <time>2025-08-25T10:59:59Z</time>
      </trkpt>
      <trkpt lat="46.99879" lon="-0.98487">
        <ele>64.9</ele>
        <time>2025-08-25T11:00:00Z</time>
      </trkpt>
      <trkpt lat="46.9988" lon="-0.98489">
        <ele>65</ele>
        <time>2025-08-25T11:00:01Z</time>
      </trkpt>
      <trkpt lat="46.99881" lon="-0.98492">
        <ele>65</ele>
        <time>2025-08-25T11:00:02Z</time>
      </trkpt>
      <trkpt lat="46.99881" lon="-0.98493">
        <ele>65</ele>
        <time>2025-08-25T11:00:03Z</time>
      </trkpt>
      <trkpt lat="46.99882" lon="-0.98494">
        <ele>65</ele>
        <time>2025-08-25T11:00:04Z</time>
      </trkpt>
      <trkpt lat="46.99883" lon="-0.98497">
        <ele>65</ele>
        <time>2025-08-25T11:00:05Z</time>
      </trkpt>
      <trkpt lat="46.99883" lon="-0.98498">
        <ele>65</ele>
        <time>2025-08-25T11:00:06Z</time>
      </trkpt>
      <trkpt lat="46.99884" lon="-0.98499">
        <ele>65</ele>
        <time>2025-08-25T11:00:07Z</time>
      </trkpt>
      <trkpt lat="46.99884" lon="-0.985">
        <ele>65</ele>
        <time>2025-08-25T11:00:08Z</time>
      </trkpt>
      <trkpt lat="46.99885" lon="-0.98502">
        <ele>65</ele>
        <time>2025-08-25T11:00:09Z</time>
      </trkpt>
      <trkpt lat="46.99886" lon="-0.98505">
        <ele>65</ele>
        <time>2025-08-25T11:00:10Z</time>
      </trkpt>
      <trkpt lat="46.99887" lon="-0.98506">
        <ele>65</ele>
        <time>2025-08-25T11:00:11Z</time>
      </trkpt>
      <trkpt lat="46.99887" lon="-0.98507">
        <ele>65</ele>
        <time>2025-08-25T11:00:12Z</time>
      </trkpt>
      <trkpt lat="46.99888" lon="-0.98509">
        <ele>65</ele>
        <time>2025-08-25T11:00:13Z</time>
      </trkpt>
      <trkpt lat="46.99888" lon="-0.9851">
        <ele>65</ele>
        <time>2025-08-25T11:00:14Z</time>
      </trkpt>
      <trkpt lat="46.99889" lon="-0.98512">
        <ele>65</ele>
        <time>2025-08-25T11:00:15Z</time>
      </trkpt>
      <trkpt lat="46.99889" lon="-0.98513">
        <ele>65</ele>
        <time>2025-08-25T11:00:16Z</time>
      </trkpt>
      <trkpt lat="46.9989" lon="-0.98515">
        <ele>65</ele>
        <time>2025-08-25T11:00:17Z</time>
      </trkpt>
      <trkpt lat="46.99891" lon="-0.98518">
        <ele>65</ele>
        <time>2025-08-25T11:00:18Z</time>
      </trkpt>
      <trkpt lat="46.99891" lon="-0.98519">
        <ele>65</ele>
        <time>2025-08-25T11:00:19Z</time>
      </trkpt>
      <trkpt lat="46.99891" lon="-0.98521">
        <ele>65</ele>
        <time>2025-08-25T11:00:20Z</time>
      </trkpt>
      <trkpt lat="46.99891" lon="-0.98523">
        <ele>65</ele>
        <time>2025-08-25T11:00:21Z</time>
      </trkpt>
      <trkpt lat="46.99891" lon="-0.98525">
        <ele>65</ele>
        <time>2025-08-25T11:00:22Z</time>
      </trkpt>
      <trkpt lat="46.99892" lon="-0.98526">
        <ele>65</ele>
        <time>2025-08-25T11:00:23Z</time>
      </trkpt>
      <trkpt lat="46.99892" lon="-0.98528">
        <ele>65</ele>
        <time>2025-08-25T11:00:24Z</time>
      </trkpt>
      <trkpt lat="46.99892" lon="-0.9853">
        <ele>65</ele>
        <time>2025-08-25T11:00:25Z</time>
      </trkpt>
      <trkpt lat="46.99892" lon="-0.98532">
        <ele>65</ele>
        <time>2025-08-25T11:00:26Z</time>
      </trkpt>
      <trkpt lat="46.99893" lon="-0.98534">
        <ele>65</ele>
        <time>2025-08-25T11:00:27Z</time>
      </trkpt>
      <trkpt lat="46.99893" lon="-0.98537">
        <ele>65</ele>
        <time>2025-08-25T11:00:28Z</time>
      </trkpt>
      <trkpt lat="46.99893" lon="-0.98538">
        <ele>65</ele>
        <time>2025-08-25T11:00:29Z</time>
      </trkpt>
      <trkpt lat="46.99893" lon="-0.9854">
        <ele>65</ele>
        <time>2025-08-25T11:00:30Z</time>
      </trkpt>
      <trkpt lat="46.99893" lon="-0.98542">
        <ele>64.9</ele>
        <time>2025-08-25T11:00:31Z</time>
      </trkpt>
      <trkpt lat="46.99893" lon="-0.98544">
        <ele>64.9</ele>
        <time>2025-08-25T11:00:32Z</time>
      </trkpt>
      <trkpt lat="46.99894" lon="-0.98546">
        <ele>64.9</ele>
        <time>2025-08-25T11:00:33Z</time>
      </trkpt>
      <trkpt lat="46.99894" lon="-0.98548">
        <ele>64.9</ele>
        <time>2025-08-25T11:00:34Z</time>
      </trkpt>
      <trkpt lat="46.99894" lon="-0.98551">
        <ele>64.9</ele>
        <time>2025-08-25T11:00:35Z</time>
      </trkpt>
      <trkpt lat="46.99895" lon="-0.98552">
        <ele>64.9</ele>
        <time>2025-08-25T11:00:36Z</time>
      </trkpt>
      <trkpt lat="46.99895" lon="-0.98553">
        <ele>64.8</ele>
        <time>2025-08-25T11:00:37Z</time>
      </trkpt>
      <trkpt lat="46.99895" lon="-0.98555">
        <ele>64.8</ele>
        <time>2025-08-25T11:00:38Z</time>
      </trkpt>
      <trkpt lat="46.99895" lon="-0.98557">
        <ele>64.8</ele>
        <time>2025-08-25T11:00:39Z</time>
      </trkpt>
      <trkpt lat="46.99896" lon="-0.9856">
        <ele>64.7</ele>
        <time>2025-08-25T11:00:40Z</time>
      </trkpt>
      <trkpt lat="46.99896" lon="-0.98562">
        <ele>64.7</ele>
        <time>2025-08-25T11:00:41Z</time>
      </trkpt>
      <trkpt lat="46.99896" lon="-0.98563">
        <ele>64.7</ele>
        <time>2025-08-25T11:00:42Z</time>
      </trkpt>
      <trkpt lat="46.99896" lon="-0.98565">
        <ele>64.7</ele>
        <time>2025-08-25T11:00:43Z</time>
      </trkpt>
      <trkpt lat="46.99896" lon="-0.98567">
        <ele>64.6</ele>
        <time>2025-08-25T11:00:44Z</time>
      </trkpt>
      <trkpt lat="46.99897" lon="-0.98569">
        <ele>64.6</ele>
        <time>2025-08-25T11:00:45Z</time>
      </trkpt>
      <trkpt lat="46.99897" lon="-0.98571">
        <ele>64.5</ele>
        <time>2025-08-25T11:00:46Z</time>
      </trkpt>
      <trkpt lat="46.99897" lon="-0.98573">
        <ele>64.5</ele>
        <time>2025-08-25T11:00:47Z</time>
      </trkpt>
      <trkpt lat="46.99898" lon="-0.98575">
        <ele>64.4</ele>
        <time>2025-08-25T11:00:48Z</time>
      </trkpt>
      <trkpt lat="46.99898" lon="-0.98576">
        <ele>64.4</ele>
        <time>2025-08-25T11:00:49Z</time>
      </trkpt>
      <trkpt lat="46.99899" lon="-0.98578">
        <ele>64.4</ele>
        <time>2025-08-25T11:00:50Z</time>
      </trkpt>
      <trkpt lat="46.99899" lon="-0.9858">
        <ele>64.3</ele>
        <time>2025-08-25T11:00:51Z</time>
      </trkpt>
      <trkpt lat="46.999" lon="-0.98583">
        <ele>64.2</ele>
        <time>2025-08-25T11:00:52Z</time>
      </trkpt>
      <trkpt lat="46.999" lon="-0.98584">
        <ele>64.2</ele>
        <time>2025-08-25T11:00:53Z</time>
      </trkpt>
      <trkpt lat="46.999" lon="-0.98585">
        <ele>64.2</ele>
        <time>2025-08-25T11:00:54Z</time>
      </trkpt>
      <trkpt lat="46.99901" lon="-0.98588">
        <ele>64.1</ele>
        <time>2025-08-25T11:00:55Z</time>
      </trkpt>
      <trkpt lat="46.99901" lon="-0.98589">
        <ele>64.1</ele>
        <time>2025-08-25T11:00:56Z</time>
      </trkpt>
      <trkpt lat="46.99902" lon="-0.98591">
        <ele>64</ele>
        <time>2025-08-25T11:00:57Z</time>
      </trkpt>
      <trkpt lat="46.99902" lon="-0.98593">
        <ele>63.9</ele>
        <time>2025-08-25T11:00:58Z</time>
      </trkpt>
      <trkpt lat="46.99902" lon="-0.98595">
        <ele>63.9</ele>
        <time>2025-08-25T11:00:59Z</time>
      </trkpt>
      <trkpt lat="46.99902" lon="-0.98596">
        <ele>63.9</ele>
        <time>2025-08-25T11:01:00Z</time>
      </trkpt>
      <trkpt lat="46.99903" lon="-0.98598">
        <ele>63.8</ele>
        <time>2025-08-25T11:01:01Z</time>
      </trkpt>
      <trkpt lat="46.99903" lon="-0.986">
        <ele>63.8</ele>
        <time>2025-08-25T11:01:02Z</time>
      </trkpt>
      <trkpt lat="46.99904" lon="-0.98601">
        <ele>63.7</ele>
        <time>2025-08-25T11:01:03Z</time>
      </trkpt>
      <trkpt lat="46.99904" lon="-0.98603">
        <ele>63.7</ele>
        <time>2025-08-25T11:01:04Z</time>
      </trkpt>
      <trkpt lat="46.99904" lon="-0.98605">
        <ele>63.6</ele>
        <time>2025-08-25T11:01:05Z</time>
      </trkpt>
      <trkpt lat="46.99904" lon="-0.98606">
        <ele>63.6</ele>
        <time>2025-08-25T11:01:06Z</time>
      </trkpt>
      <trkpt lat="46.99905" lon="-0.98609">
        <ele>63.5</ele>
        <time>2025-08-25T11:01:07Z</time>
      </trkpt>
      <trkpt lat="46.99905" lon="-0.9861">
        <ele>63.5</ele>
        <time>2025-08-25T11:01:08Z</time>
      </trkpt>
      <trkpt lat="46.99905" lon="-0.98611">
        <ele>63.5</ele>
        <time>2025-08-25T11:01:09Z</time>
      </trkpt>
      <trkpt lat="46.99905" lon="-0.98613">
        <ele>63.4</ele>
        <time>2025-08-25T11:01:10Z</time>
      </trkpt>
      <trkpt lat="46.99906" lon="-0.98614">
        <ele>63.4</ele>
        <time>2025-08-25T11:01:11Z</time>
      </trkpt>
      <trkpt lat="46.99906" lon="-0.98616">
        <ele>63.3</ele>
        <time>2025-08-25T11:01:12Z</time>
      </trkpt>
      <trkpt lat="46.99906" lon="-0.98618">
        <ele>63.3</ele>
        <time>2025-08-25T11:01:13Z</time>
      </trkpt>
      <trkpt lat="46.99907" lon="-0.9862">
        <ele>63.2</ele>
        <time>2025-08-25T11:01:14Z</time>
      </trkpt>
      <trkpt lat="46.99907" lon="-0.98622">
        <ele>63.2</ele>
        <time>2025-08-25T11:01:15Z</time>
      </trkpt>
      <trkpt lat="46.99907" lon="-0.98624">
        <ele>63.1</ele>
        <time>2025-08-25T11:01:16Z</time>
      </trkpt>
      <trkpt lat="46.99908" lon="-0.98627">
        <ele>63.1</ele>
        <time>2025-08-25T11:01:17Z</time>
      </trkpt>
      <trkpt lat="46.99908" lon="-0.9863">
        <ele>63</ele>
        <time>2025-08-25T11:01:18Z</time>
      </trkpt>
      <trkpt lat="46.99908" lon="-0.98631">
        <ele>62.9</ele>
        <time>2025-08-25T11:01:19Z</time>
      </trkpt>
      <trkpt lat="46.99909" lon="-0.98632">
        <ele>62.9</ele>
        <time>2025-08-25T11:01:20Z</time>
      </trkpt>
      <trkpt lat="46.99909" lon="-0.98634">
        <ele>62.9</ele>
        <time>2025-08-25T11:01:21Z</time>
      </trkpt>
      <trkpt lat="46.99909" lon="-0.98637">
        <ele>62.8</ele>
        <time>2025-08-25T11:01:22Z</time>
      </trkpt>
      <trkpt lat="46.9991" lon="-0.98639">
        <ele>62.8</ele>
        <time>2025-08-25T11:01:23Z</time>
      </trkpt>
      <trkpt lat="46.9991" lon="-0.98641">
        <ele>62.7</ele>
        <time>2025-08-25T11:01:24Z</time>
      </trkpt>
      <trkpt lat="46.99911" lon="-0.98642">
        <ele>62.7</ele>
        <time>2025-08-25T11:01:25Z</time>
      </trkpt>
      <trkpt lat="46.99911" lon="-0.98644">
        <ele>62.7</ele>
        <time>2025-08-25T11:01:26Z</time>
      </trkpt>
      <trkpt lat="46.99911" lon="-0.98646">
        <ele>62.6</ele>
        <time>2025-08-25T11:01:27Z</time>
      </trkpt>
      <trkpt lat="46.99911" lon="-0.98648">
        <ele>62.6</ele>
        <time>2025-08-25T11:01:28Z</time>
      </trkpt>
      <trkpt lat="46.99912" lon="-0.9865">
        <ele>62.6</ele>
        <time>2025-08-25T11:01:29Z</time>
      </trkpt>
      <trkpt lat="46.99912" lon="-0.98652">
        <ele>62.5</ele>
        <time>2025-08-25T11:01:30Z</time>
      </trkpt>
      <trkpt lat="46.99912" lon="-0.98654">
        <ele>62.5</ele>
        <time>2025-08-25T11:01:31Z</time>
      </trkpt>
      <trkpt lat="46.99913" lon="-0.98657">
        <ele>62.5</ele>
        <time>2025-08-25T11:01:32Z</time>
      </trkpt>
      <trkpt lat="46.99913" lon="-0.98658">
        <ele>62.5</ele>
        <time>2025-08-25T11:01:33Z</time>
      </trkpt>
      <trkpt lat="46.99913" lon="-0.98659">
        <ele>62.4</ele>
        <time>2025-08-25T11:01:34Z</time>
      </trkpt>
      <trkpt lat="46.99914" lon="-0.98662">
        <ele>62.4</ele>
        <time>2025-08-25T11:01:35Z</time>
      </trkpt>
      <trkpt lat="46.99915" lon="-0.98663">
        <ele>62.4</ele>
        <time>2025-08-25T11:01:36Z</time>
      </trkpt>
      <trkpt lat="46.99915" lon="-0.98664">
        <ele>62.4</ele>
        <time>2025-08-25T11:01:37Z</time>
      </trkpt>
      <trkpt lat="46.99916" lon="-0.98667">
        <ele>62.3</ele>
        <time>2025-08-25T11:01:38Z</time>
      </trkpt>
      <trkpt lat="46.99916" lon="-0.98668">
        <ele>62.3</ele>
        <time>2025-08-25T11:01:39Z</time>
      </trkpt>
      <trkpt lat="46.99917" lon="-0.98669">
        <ele>62.3</ele>
        <time>2025-08-25T11:01:40Z</time>
      </trkpt>
      <trkpt lat="46.99917" lon="-0.98671">
        <ele>62.3</ele>
        <time>2025-08-25T11:01:41Z</time>
      </trkpt>
      <trkpt lat="46.99918" lon="-0.98674">
        <ele>62.3</ele>
        <time>2025-08-25T11:01:42Z</time>
      </trkpt>
      <trkpt lat="46.99918" lon="-0.98675">
        <ele>62.3</ele>
        <time>2025-08-25T11:01:43Z</time>
      </trkpt>
      <trkpt lat="46.99918" lon="-0.98677">
        <ele>62.3</ele>
        <time>2025-08-25T11:01:44Z</time>
      </trkpt>
      <trkpt lat="46.99918" lon="-0.98678">
        <ele>62.3</ele>
        <time>2025-08-25T11:01:45Z</time>
      </trkpt>
      <trkpt lat="46.99919" lon="-0.9868">
        <ele>62.2</ele>
        <time>2025-08-25T11:01:46Z</time>
      </trkpt>
      <trkpt lat="46.99919" lon="-0.98682">
        <ele>62.2</ele>
        <time>2025-08-25T11:01:47Z</time>
      </trkpt>
      <trkpt lat="46.9992" lon="-0.98684">
        <ele>62.2</ele>
        <time>2025-08-25T11:01:48Z</time>
      </trkpt>
      <trkpt lat="46.9992" lon="-0.98686">
        <ele>62.2</ele>
        <time>2025-08-25T11:01:49Z</time>
      </trkpt>
      <trkpt lat="46.99921" lon="-0.98688">
        <ele>62.2</ele>
        <time>2025-08-25T11:01:50Z</time>
      </trkpt>
      <trkpt lat="46.99921" lon="-0.9869">
        <ele>62.2</ele>
        <time>2025-08-25T11:01:51Z</time>
      </trkpt>
      <trkpt lat="46.99922" lon="-0.98692">
        <ele>62.2</ele>
        <time>2025-08-25T11:01:52Z</time>
      </trkpt>
      <trkpt lat="46.99922" lon="-0.98694">
        <ele>62.2</ele>
        <time>2025-08-25T11:01:53Z</time>
      </trkpt>
      <trkpt lat="46.99923" lon="-0.98696">
        <ele>62.2</ele>
        <time>2025-08-25T11:01:54Z</time>
      </trkpt>
      <trkpt lat="46.99923" lon="-0.98698">
        <ele>62.2</ele>
        <time>2025-08-25T11:01:55Z</time>
      </trkpt>
      <trkpt lat="46.99923" lon="-0.987">
        <ele>62.2</ele>
        <time>2025-08-25T11:01:56Z</time>
      </trkpt>
      <trkpt lat="46.99924" lon="-0.98702">
        <ele>62.2</ele>
        <time>2025-08-25T11:01:57Z</time>
      </trkpt>
      <trkpt lat="46.99924" lon="-0.98704">
        <ele>62.2</ele>
        <time>2025-08-25T11:01:58Z</time>
      </trkpt>
      <trkpt lat="46.99925" lon="-0.98705">
        <ele>62.2</ele>
        <time>2025-08-25T11:01:59Z</time>
      </trkpt>
      <trkpt lat="46.99925" lon="-0.98707">
        <ele>62.2</ele>
        <time>2025-08-25T11:02:00Z</time>
      </trkpt>
      <trkpt lat="46.99926" lon="-0.98708">
        <ele>62.2</ele>
        <time>2025-08-25T11:02:01Z</time>
      </trkpt>
      <trkpt lat="46.99926" lon="-0.9871">
        <ele>62.2</ele>
        <time>2025-08-25T11:02:02Z</time>
      </trkpt>
      <trkpt lat="46.99926" lon="-0.98713">
        <ele>62.2</ele>
        <time>2025-08-25T11:02:03Z</time>
      </trkpt>
      <trkpt lat="46.99926" lon="-0.98714">
        <ele>62.2</ele>
        <time>2025-08-25T11:02:04Z</time>
      </trkpt>
      <trkpt lat="46.99926" lon="-0.98716">
        <ele>62.2</ele>
        <time>2025-08-25T11:02:05Z</time>
      </trkpt>
      <trkpt lat="46.99926" lon="-0.98717">
        <ele>62.2</ele>
        <time>2025-08-25T11:02:06Z</time>
      </trkpt>
      <trkpt lat="46.99926" lon="-0.98719">
        <ele>62.2</ele>
        <time>2025-08-25T11:02:07Z</time>
      </trkpt>
      <trkpt lat="46.99927" lon="-0.9872">
        <ele>62.2</ele>
        <time>2025-08-25T11:02:08Z</time>
      </trkpt>
      <trkpt lat="46.99927" lon="-0.98722">
        <ele>62.2</ele>
        <time>2025-08-25T11:02:09Z</time>
      </trkpt>
      <trkpt lat="46.99927" lon="-0.98724">
        <ele>62.2</ele>
        <time>2025-08-25T11:02:10Z</time>
      </trkpt>
      <trkpt lat="46.99927" lon="-0.98725">
        <ele>62.2</ele>
        <time>2025-08-25T11:02:11Z</time>
      </trkpt>
      <trkpt lat="46.99927" lon="-0.98727">
        <ele>62.2</ele>
        <time>2025-08-25T11:02:12Z</time>
      </trkpt>
      <trkpt lat="46.99927" lon="-0.98728">
        <ele>62.2</ele>
        <time>2025-08-25T11:02:13Z</time>
      </trkpt>
      <trkpt lat="46.99928" lon="-0.9873">
        <ele>62.2</ele>
        <time>2025-08-25T11:02:14Z</time>
      </trkpt>
      <trkpt lat="46.99928" lon="-0.98732">
        <ele>62.2</ele>
        <time>2025-08-25T11:02:15Z</time>
      </trkpt>
      <trkpt lat="46.99928" lon="-0.98734">
        <ele>62.2</ele>
        <time>2025-08-25T11:02:16Z</time>
      </trkpt>
      <trkpt lat="46.99928" lon="-0.98735">
        <ele>62.3</ele>
        <time>2025-08-25T11:02:17Z</time>
      </trkpt>
      <trkpt lat="46.99928" lon="-0.98736">
        <ele>62.3</ele>
        <time>2025-08-25T11:02:18Z</time>
      </trkpt>
      <trkpt lat="46.99928" lon="-0.98738">
        <ele>62.3</ele>
        <time>2025-08-25T11:02:19Z</time>
      </trkpt>
      <trkpt lat="46.99929" lon="-0.98739">
        <ele>62.3</ele>
        <time>2025-08-25T11:02:20Z</time>
      </trkpt>
      <trkpt lat="46.99929" lon="-0.98741">
        <ele>62.3</ele>
        <time>2025-08-25T11:02:21Z</time>
      </trkpt>
      <trkpt lat="46.9993" lon="-0.98741">
        <ele>62.3</ele>
        <time>2025-08-25T11:02:22Z</time>
      </trkpt>
      <trkpt lat="46.99931" lon="-0.98742">
        <ele>62.4</ele>
        <time>2025-08-25T11:02:23Z</time>
      </trkpt>
      <trkpt lat="46.99931" lon="-0.98744">
        <ele>62.4</ele>
        <time>2025-08-25T11:02:24Z</time>
      </trkpt>
      <trkpt lat="46.99932" lon="-0.98745">
        <ele>62.4</ele>
        <time>2025-08-25T11:02:25Z</time>
      </trkpt>
      <trkpt lat="46.99932" lon="-0.98746">
        <ele>62.5</ele>
        <time>2025-08-25T11:02:26Z</time>
      </trkpt>
      <trkpt lat="46.99933" lon="-0.98748">
        <ele>62.5</ele>
        <time>2025-08-25T11:02:27Z</time>
      </trkpt>
      <trkpt lat="46.99933" lon="-0.98749">
        <ele>62.5</ele>
        <time>2025-08-25T11:02:28Z</time>
      </trkpt>
      <trkpt lat="46.99934" lon="-0.9875">
        <ele>62.6</ele>
        <time>2025-08-25T11:02:29Z</time>
      </trkpt>
      <trkpt lat="46.99935" lon="-0.98751">
        <ele>62.6</ele>
        <time>2025-08-25T11:02:30Z</time>
      </trkpt>
      <trkpt lat="46.99935" lon="-0.98752">
        <ele>62.6</ele>
        <time>2025-08-25T11:02:31Z</time>
      </trkpt>
      <trkpt lat="46.99936" lon="-0.98752">
        <ele>62.7</ele>
        <time>2025-08-25T11:02:32Z</time>
      </trkpt>
      <trkpt lat="46.99937" lon="-0.98752">
        <ele>62.7</ele>
        <time>2025-08-25T11:02:33Z</time>
      </trkpt>
      <trkpt lat="46.99938" lon="-0.98753">
        <ele>62.8</ele>
        <time>2025-08-25T11:02:34Z</time>
      </trkpt>
      <trkpt lat="46.9994" lon="-0.98754">
        <ele>62.8</ele>
        <time>2025-08-25T11:02:35Z</time>
      </trkpt>
      <trkpt lat="46.9994" lon="-0.98754">
        <ele>62.9</ele>
        <time>2025-08-25T11:02:36Z</time>
      </trkpt>
      <trkpt lat="46.99941" lon="-0.98754">
        <ele>62.9</ele>
        <time>2025-08-25T11:02:37Z</time>
      </trkpt>
      <trkpt lat="46.99942" lon="-0.98755">
        <ele>63</ele>
        <time>2025-08-25T11:02:38Z</time>
      </trkpt>
      <trkpt lat="46.99944" lon="-0.98755">
        <ele>63.1</ele>
        <time>2025-08-25T11:02:39Z</time>
      </trkpt>
      <trkpt lat="46.99945" lon="-0.98756">
        <ele>63.1</ele>
        <time>2025-08-25T11:02:40Z</time>
      </trkpt>
      <trkpt lat="46.99946" lon="-0.98756">
        <ele>63.2</ele>
        <time>2025-08-25T11:02:41Z</time>
      </trkpt>
      <trkpt lat="46.99947" lon="-0.98756">
        <ele>63.2</ele>
        <time>2025-08-25T11:02:42Z</time>
      </trkpt>
      <trkpt lat="46.99948" lon="-0.98757">
        <ele>63.3</ele>
        <time>2025-08-25T11:02:43Z</time>
      </trkpt>
      <trkpt lat="46.99948" lon="-0.98758">
        <ele>63.4</ele>
        <time>2025-08-25T11:02:44Z</time>
      </trkpt>
      <trkpt lat="46.99949" lon="-0.98759">
        <ele>63.4</ele>
        <time>2025-08-25T11:02:45Z</time>
      </trkpt>
      <trkpt lat="46.9995" lon="-0.9876">
        <ele>63.5</ele>
        <time>2025-08-25T11:02:46Z</time>
      </trkpt>
      <trkpt lat="46.9995" lon="-0.98761">
        <ele>63.6</ele>
        <time>2025-08-25T11:02:47Z</time>
      </trkpt>
      <trkpt lat="46.99951" lon="-0.98762">
        <ele>63.6</ele>
        <time>2025-08-25T11:02:48Z</time>
      </trkpt>
      <trkpt lat="46.99952" lon="-0.98762">
        <ele>63.7</ele>
        <time>2025-08-25T11:02:49Z</time>
      </trkpt>
      <trkpt lat="46.99953" lon="-0.98763">
        <ele>63.8</ele>
        <time>2025-08-25T11:02:50Z</time>
      </trkpt>
      <trkpt lat="46.99954" lon="-0.98764">
        <ele>63.8</ele>
        <time>2025-08-25T11:02:51Z</time>
      </trkpt>
      <trkpt lat="46.99954" lon="-0.98764">
        <ele>63.9</ele>
        <time>2025-08-25T11:02:52Z</time>
      </trkpt>
      <trkpt lat="46.99955" lon="-0.98765">
        <ele>64</ele>
        <time>2025-08-25T11:02:53Z</time>
      </trkpt>
      <trkpt lat="46.99956" lon="-0.98765">
        <ele>64</ele>
        <time>2025-08-25T11:02:54Z</time>
      </trkpt>
      <trkpt lat="46.99956" lon="-0.98764">
        <ele>64.1</ele>
        <time>2025-08-25T11:02:55Z</time>
      </trkpt>
      <trkpt lat="46.99957" lon="-0.98763">
        <ele>64.1</ele>
        <time>2025-08-25T11:02:56Z</time>
      </trkpt>
      <trkpt lat="46.99957" lon="-0.98764">
        <ele>64.1</ele>
        <time>2025-08-25T11:02:57Z</time>
      </trkpt>
      <trkpt lat="46.99957" lon="-0.98764">
        <ele>64.2</ele>
        <time>2025-08-25T11:02:58Z</time>
      </trkpt>
      <trkpt lat="46.99957" lon="-0.98764">
        <ele>64.2</ele>
        <time>2025-08-25T11:02:59Z</time>
      </trkpt>
      <trkpt lat="46.99957" lon="-0.98765">
        <ele>64.2</ele>
        <time>2025-08-25T11:03:00Z</time>
      </trkpt>
      <trkpt lat="46.99957" lon="-0.98765">
        <ele>64.2</ele>
        <time>2025-08-25T11:03:01Z</time>
      </trkpt>
      <trkpt lat="46.99957" lon="-0.98765">
        <ele>64.2</ele>
        <time>2025-08-25T11:03:02Z</time>
      </trkpt>
      <trkpt lat="46.99957" lon="-0.98765">
        <ele>64.2</ele>
        <time>2025-08-25T11:03:03Z</time>
      </trkpt>
      <trkpt lat="46.99957" lon="-0.98765">
        <ele>64.2</ele>
        <time>2025-08-25T11:03:04Z</time>
      </trkpt>
      <trkpt lat="46.99957" lon="-0.98765">
        <ele>64.2</ele>
        <time>2025-08-25T11:03:05Z</time>
      </trkpt>
      <trkpt lat="46.99958" lon="-0.98766">
        <ele>64.3</ele>
        <time>2025-08-25T11:03:06Z</time>
      </trkpt>
      <trkpt lat="46.99958" lon="-0.98765">
        <ele>64.3</ele>
        <time>2025-08-25T11:03:07Z</time>
      </trkpt>
      <trkpt lat="46.99958" lon="-0.98765">
        <ele>64.3</ele>
        <time>2025-08-25T11:03:08Z</time>
      </trkpt>
      <trkpt lat="46.99958" lon="-0.98765">
        <ele>64.3</ele>
        <time>2025-08-25T11:03:09Z</time>
      </trkpt>
      <trkpt lat="46.99959" lon="-0.98767">
        <ele>64.4</ele>
        <time>2025-08-25T11:03:10Z</time>
      </trkpt>
      <trkpt lat="46.99959" lon="-0.98768">
        <ele>64.5</ele>
        <time>2025-08-25T11:03:11Z</time>
      </trkpt>
      <trkpt lat="46.9996" lon="-0.98768">
        <ele>64.5</ele>
        <time>2025-08-25T11:03:12Z</time>
      </trkpt>
      <trkpt lat="46.9996" lon="-0.98769">
        <ele>64.6</ele>
        <time>2025-08-25T11:03:13Z</time>
      </trkpt>
      <trkpt lat="46.9996" lon="-0.9877">
        <ele>64.6</ele>
        <time>2025-08-25T11:03:14Z</time>
      </trkpt>
      <trkpt lat="46.9996" lon="-0.9877">
        <ele>64.7</ele>
        <time>2025-08-25T11:03:15Z</time>
      </trkpt>
      <trkpt lat="46.9996" lon="-0.98771">
        <ele>64.7</ele>
        <time>2025-08-25T11:03:16Z</time>
      </trkpt>
      <trkpt lat="46.9996" lon="-0.98772">
        <ele>64.7</ele>
        <time>2025-08-25T11:03:17Z</time>
      </trkpt>
      <trkpt lat="46.9996" lon="-0.98772">
        <ele>64.8</ele>
        <time>2025-08-25T11:03:18Z</time>
      </trkpt>
      <trkpt lat="46.99961" lon="-0.98773">
        <ele>64.8</ele>
        <time>2025-08-25T11:03:19Z</time>
      </trkpt>
      <trkpt lat="46.99961" lon="-0.98774">
        <ele>64.9</ele>
        <time>2025-08-25T11:03:20Z</time>
      </trkpt>
      <trkpt lat="46.99962" lon="-0.98775">
        <ele>65</ele>
        <time>2025-08-25T11:03:21Z</time>
      </trkpt>
      <trkpt lat="46.99963" lon="-0.98776">
        <ele>65.1</ele>
        <time>2025-08-25T11:03:22Z</time>
      </trkpt>
      <trkpt lat="46.99963" lon="-0.98778">
        <ele>65.2</ele>
        <time>2025-08-25T11:03:23Z</time>
      </trkpt>
      <trkpt lat="46.99964" lon="-0.98779">
        <ele>65.4</ele>
        <time>2025-08-25T11:03:24Z</time>
      </trkpt>
      <trkpt lat="46.99964" lon="-0.98781">
        <ele>65.5</ele>
        <time>2025-08-25T11:03:25Z</time>
      </trkpt>
      <trkpt lat="46.99965" lon="-0.98783">
        <ele>65.6</ele>
        <time>2025-08-25T11:03:26Z</time>
      </trkpt>
      <trkpt lat="46.99965" lon="-0.98785">
        <ele>65.8</ele>
        <time>2025-08-25T11:03:27Z</time>
      </trkpt>
      <trkpt lat="46.99966" lon="-0.98787">
        <ele>66</ele>
        <time>2025-08-25T11:03:28Z</time>
      </trkpt>
      <trkpt lat="46.99966" lon="-0.98789">
        <ele>66.1</ele>
        <time>2025-08-25T11:03:29Z</time>
      </trkpt>
      <trkpt lat="46.99967" lon="-0.98792">
        <ele>66.4</ele>
        <time>2025-08-25T11:03:30Z</time>
      </trkpt>
      <trkpt lat="46.99968" lon="-0.98793">
        <ele>66.5</ele>
        <time>2025-08-25T11:03:31Z</time>
      </trkpt>
      <trkpt lat="46.99968" lon="-0.98794">
        <ele>66.6</ele>
        <time>2025-08-25T11:03:32Z</time>
      </trkpt>
      <trkpt lat="46.9997" lon="-0.98797">
        <ele>66.9</ele>
        <time>2025-08-25T11:03:33Z</time>
      </trkpt>
      <trkpt lat="46.9997" lon="-0.98798">
        <ele>67</ele>
        <time>2025-08-25T11:03:34Z</time>
      </trkpt>
      <trkpt lat="46.99971" lon="-0.98799">
        <ele>67.1</ele>
        <time>2025-08-25T11:03:35Z</time>
      </trkpt>
      <trkpt lat="46.99973" lon="-0.98801">
        <ele>67.4</ele>
        <time>2025-08-25T11:03:36Z</time>
      </trkpt>
      <trkpt lat="46.99973" lon="-0.98802">
        <ele>67.5</ele>
        <time>2025-08-25T11:03:37Z</time>
      </trkpt>
      <trkpt lat="46.99974" lon="-0.98803">
        <ele>67.7</ele>
        <time>2025-08-25T11:03:38Z</time>
      </trkpt>
      <trkpt lat="46.99975" lon="-0.98805">
        <ele>68</ele>
        <time>2025-08-25T11:03:39Z</time>
      </trkpt>
      <trkpt lat="46.99976" lon="-0.98806">
        <ele>68.1</ele>
        <time>2025-08-25T11:03:40Z</time>
      </trkpt>
      <trkpt lat="46.99977" lon="-0.98807">
        <ele>68.2</ele>
        <time>2025-08-25T11:03:41Z</time>
      </trkpt>
      <trkpt lat="46.99978" lon="-0.98809">
        <ele>68.5</ele>
        <time>2025-08-25T11:03:42Z</time>
      </trkpt>
      <trkpt lat="46.99978" lon="-0.9881">
        <ele>68.6</ele>
        <time>2025-08-25T11:03:43Z</time>
      </trkpt>
      <trkpt lat="46.99978" lon="-0.98811">
        <ele>68.7</ele>
        <time>2025-08-25T11:03:44Z</time>
      </trkpt>
      <trkpt lat="46.99979" lon="-0.98813">
        <ele>68.8</ele>
        <time>2025-08-25T11:03:45Z</time>
      </trkpt>
      <trkpt lat="46.99979" lon="-0.98814">
        <ele>69</ele>
        <time>2025-08-25T11:03:46Z</time>
      </trkpt>
      <trkpt lat="46.9998" lon="-0.98816">
        <ele>69.1</ele>
        <time>2025-08-25T11:03:47Z</time>
      </trkpt>
      <trkpt lat="46.9998" lon="-0.98817">
        <ele>69.1</ele>
        <time>2025-08-25T11:03:48Z</time>
      </trkpt>
      <trkpt lat="46.9998" lon="-0.98818">
        <ele>69.2</ele>
        <time>2025-08-25T11:03:49Z</time>
      </trkpt>
      <trkpt lat="46.9998" lon="-0.98819">
        <ele>69.3</ele>
        <time>2025-08-25T11:03:50Z</time>
      </trkpt>
      <trkpt lat="46.99981" lon="-0.9882">
        <ele>69.4</ele>
        <time>2025-08-25T11:03:51Z</time>
      </trkpt>
      <trkpt lat="46.99981" lon="-0.98821">
        <ele>69.5</ele>
        <time>2025-08-25T11:03:52Z</time>
      </trkpt>
      <trkpt lat="46.99981" lon="-0.98822">
        <ele>69.6</ele>
        <time>2025-08-25T11:03:53Z</time>
      </trkpt>
      <trkpt lat="46.99982" lon="-0.98823">
        <ele>69.7</ele>
        <time>2025-08-25T11:03:54Z</time>
      </trkpt>
      <trkpt lat="46.99982" lon="-0.98825">
        <ele>69.7</ele>
        <time>2025-08-25T11:03:55Z</time>
      </trkpt>
      <trkpt lat="46.99983" lon="-0.98826">
        <ele>69.8</ele>
        <time>2025-08-25T11:03:56Z</time>
      </trkpt>
      <trkpt lat="46.99983" lon="-0.98827">
        <ele>69.9</ele>
        <time>2025-08-25T11:03:57Z</time>
      </trkpt>
      <trkpt lat="46.99984" lon="-0.98828">
        <ele>70</ele>
        <time>2025-08-25T11:03:58Z</time>
      </trkpt>
      <trkpt lat="46.99985" lon="-0.98831">
        <ele>70.1</ele>
        <time>2025-08-25T11:03:59Z</time>
      </trkpt>
      <trkpt lat="46.99986" lon="-0.98832">
        <ele>70.1</ele>
        <time>2025-08-25T11:04:00Z</time>
      </trkpt>
      <trkpt lat="46.99986" lon="-0.98833">
        <ele>70.2</ele>
        <time>2025-08-25T11:04:01Z</time>
      </trkpt>
      <trkpt lat="46.99987" lon="-0.98834">
        <ele>70.2</ele>
        <time>2025-08-25T11:04:02Z</time>
      </trkpt>
      <trkpt lat="46.99987" lon="-0.98835">
        <ele>70.2</ele>
        <time>2025-08-25T11:04:03Z</time>
      </trkpt>
      <trkpt lat="46.99988" lon="-0.98837">
        <ele>70.2</ele>
        <time>2025-08-25T11:04:04Z</time>
      </trkpt>
      <trkpt lat="46.99989" lon="-0.9884">
        <ele>70.2</ele>
        <time>2025-08-25T11:04:05Z</time>
      </trkpt>
      <trkpt lat="46.99989" lon="-0.98841">
        <ele>70.2</ele>
        <time>2025-08-25T11:04:06Z</time>
      </trkpt>
      <trkpt lat="46.9999" lon="-0.98842">
        <ele>70.2</ele>
        <time>2025-08-25T11:04:07Z</time>
      </trkpt>
      <trkpt lat="46.9999" lon="-0.98844">
        <ele>70.2</ele>
        <time>2025-08-25T11:04:08Z</time>
      </trkpt>
      <trkpt lat="46.9999" lon="-0.98845">
        <ele>70.2</ele>
        <time>2025-08-25T11:04:09Z</time>
      </trkpt>
      <trkpt lat="46.99991" lon="-0.98847">
        <ele>70.1</ele>
        <time>2025-08-25T11:04:10Z</time>
      </trkpt>
      <trkpt lat="46.99993" lon="-0.98849">
        <ele>70</ele>
        <time>2025-08-25T11:04:11Z</time>
      </trkpt>
      <trkpt lat="46.99993" lon="-0.9885">
        <ele>70</ele>
        <time>2025-08-25T11:04:12Z</time>
      </trkpt>
      <trkpt lat="46.99994" lon="-0.98851">
        <ele>69.9</ele>
        <time>2025-08-25T11:04:13Z</time>
      </trkpt>
      <trkpt lat="46.99995" lon="-0.98853">
        <ele>69.8</ele>
        <time>2025-08-25T11:04:14Z</time>
      </trkpt>
      <trkpt lat="46.99997" lon="-0.98854">
        <ele>69.7</ele>
        <time>2025-08-25T11:04:15Z</time>
      </trkpt>
      <trkpt lat="46.99998" lon="-0.98856">
        <ele>69.6</ele>
        <time>2025-08-25T11:04:16Z</time>
      </trkpt>
      <trkpt lat="46.99999" lon="-0.98857">
        <ele>69.5</ele>
        <time>2025-08-25T11:04:17Z</time>
      </trkpt>
      <trkpt lat="46.99999" lon="-0.98858">
        <ele>69.4</ele>
        <time>2025-08-25T11:04:18Z</time>
      </trkpt>
      <trkpt lat="47" lon="-0.9886">
        <ele>69.3</ele>
        <time>2025-08-25T11:04:19Z</time>
      </trkpt>
      <trkpt lat="47.00001" lon="-0.98862">
        <ele>69.2</ele>
        <time>2025-08-25T11:04:20Z</time>
      </trkpt>
      <trkpt lat="47.00002" lon="-0.98863">
        <ele>69.1</ele>
        <time>2025-08-25T11:04:21Z</time>
      </trkpt>
      <trkpt lat="47.00002" lon="-0.98865">
        <ele>69</ele>
        <time>2025-08-25T11:04:22Z</time>
      </trkpt>
      <trkpt lat="47.00003" lon="-0.98866">
        <ele>68.9</ele>
        <time>2025-08-25T11:04:23Z</time>
      </trkpt>
      <trkpt lat="47.00003" lon="-0.98868">
        <ele>68.8</ele>
        <time>2025-08-25T11:04:24Z</time>
      </trkpt>
      <trkpt lat="47.00004" lon="-0.98869">
        <ele>68.7</ele>
        <time>2025-08-25T11:04:25Z</time>
      </trkpt>
      <trkpt lat="47.00004" lon="-0.9887">
        <ele>68.6</ele>
        <time>2025-08-25T11:04:26Z</time>
      </trkpt>
      <trkpt lat="47.00005" lon="-0.98872">
        <ele>68.5</ele>
        <time>2025-08-25T11:04:27Z</time>
      </trkpt>
      <trkpt lat="47.00005" lon="-0.98874">
        <ele>68.4</ele>
        <time>2025-08-25T11:04:28Z</time>
      </trkpt>
      <trkpt lat="47.00005" lon="-0.98874">
        <ele>68.4</ele>
        <time>2025-08-25T11:04:29Z</time>
      </trkpt>
      <trkpt lat="47.00005" lon="-0.98875">
        <ele>68.3</ele>
        <time>2025-08-25T11:04:30Z</time>
      </trkpt>
      <trkpt lat="47.00005" lon="-0.98876">
        <ele>68.3</ele>
        <time>2025-08-25T11:04:31Z</time>
      </trkpt>
      <trkpt lat="47.00005" lon="-0.98876">
        <ele>68.2</ele>
        <time>2025-08-25T11:04:32Z</time>
      </trkpt>
      <trkpt lat="47.00005" lon="-0.98876">
        <ele>68.2</ele>
        <time>2025-08-25T11:04:33Z</time>
      </trkpt>
      <trkpt lat="47.00005" lon="-0.98877">
        <ele>68.1</ele>
        <time>2025-08-25T11:04:34Z</time>
      </trkpt>
      <trkpt lat="47.00005" lon="-0.98878">
        <ele>68</ele>
        <time>2025-08-25T11:04:35Z</time>
      </trkpt>
      <trkpt lat="47.00005" lon="-0.9888">
        <ele>68</ele>
        <time>2025-08-25T11:04:36Z</time>
      </trkpt>
      <trkpt lat="47.00005" lon="-0.98881">
        <ele>67.9</ele>
        <time>2025-08-25T11:04:37Z</time>
      </trkpt>
      <trkpt lat="47.00004" lon="-0.98882">
        <ele>67.8</ele>
        <time>2025-08-25T11:04:38Z</time>
      </trkpt>
      <trkpt lat="47.00004" lon="-0.98884">
        <ele>67.7</ele>
        <time>2025-08-25T11:04:39Z</time>
      </trkpt>
      <trkpt lat="47.00003" lon="-0.98885">
        <ele>67.6</ele>
        <time>2025-08-25T11:04:40Z</time>
      </trkpt>
      <trkpt lat="47.00003" lon="-0.98885">
        <ele>67.6</ele>
        <time>2025-08-25T11:04:41Z</time>
      </trkpt>
      <trkpt lat="47.00003" lon="-0.98886">
        <ele>67.5</ele>
        <time>2025-08-25T11:04:42Z</time>
      </trkpt>
      <trkpt lat="47.00002" lon="-0.98886">
        <ele>67.4</ele>
        <time>2025-08-25T11:04:43Z</time>
      </trkpt>
      <trkpt lat="47.00002" lon="-0.98886">
        <ele>67.4</ele>
        <time>2025-08-25T11:04:44Z</time>
      </trkpt>
      <trkpt lat="47.00001" lon="-0.98887">
        <ele>67.3</ele>
        <time>2025-08-25T11:04:45Z</time>
      </trkpt>
      <trkpt lat="47" lon="-0.98886">
        <ele>67.2</ele>
        <time>2025-08-25T11:04:46Z</time>
      </trkpt>
      <trkpt lat="46.99999" lon="-0.98886">
        <ele>67.2</ele>
        <time>2025-08-25T11:04:47Z</time>
      </trkpt>
      <trkpt lat="46.99999" lon="-0.98887">
        <ele>67.1</ele>
        <time>2025-08-25T11:04:48Z</time>
      </trkpt>
      <trkpt lat="46.99998" lon="-0.98888">
        <ele>67</ele>
        <time>2025-08-25T11:04:49Z</time>
      </trkpt>
      <trkpt lat="46.99997" lon="-0.98888">
        <ele>66.9</ele>
        <time>2025-08-25T11:04:50Z</time>
      </trkpt>
      <trkpt lat="46.99996" lon="-0.98888">
        <ele>66.9</ele>
        <time>2025-08-25T11:04:51Z</time>
      </trkpt>
      <trkpt lat="46.99996" lon="-0.98889">
        <ele>66.8</ele>
        <time>2025-08-25T11:04:52Z</time>
      </trkpt>
      <trkpt lat="46.99995" lon="-0.98889">
        <ele>66.7</ele>
        <time>2025-08-25T11:04:53Z</time>
      </trkpt>
      <trkpt lat="46.99994" lon="-0.98889">
        <ele>66.6</ele>
        <time>2025-08-25T11:04:54Z</time>
      </trkpt>
      <trkpt lat="46.99994" lon="-0.9889">
        <ele>66.6</ele>
        <time>2025-08-25T11:04:55Z</time>
      </trkpt>
      <trkpt lat="46.99993" lon="-0.98891">
        <ele>66.5</ele>
        <time>2025-08-25T11:04:56Z</time>
      </trkpt>
      <trkpt lat="46.99992" lon="-0.98891">
        <ele>66.4</ele>
        <time>2025-08-25T11:04:57Z</time>
      </trkpt>
      <trkpt lat="46.99991" lon="-0.98892">
        <ele>66.3</ele>
        <time>2025-08-25T11:04:58Z</time>
      </trkpt>
      <trkpt lat="46.9999" lon="-0.98892">
        <ele>66.2</ele>
        <time>2025-08-25T11:04:59Z</time>
      </trkpt>
      <trkpt lat="46.9999" lon="-0.98893">
        <ele>66.2</ele>
        <time>2025-08-25T11:05:00Z</time>
      </trkpt>
      <trkpt lat="46.99989" lon="-0.98894">
        <ele>66.1</ele>
        <time>2025-08-25T11:05:01Z</time>
      </trkpt>
      <trkpt lat="46.99988" lon="-0.98895">
        <ele>66</ele>
        <time>2025-08-25T11:05:02Z</time>
      </trkpt>
      <trkpt lat="46.99988" lon="-0.98895">
        <ele>65.9</ele>
        <time>2025-08-25T11:05:03Z</time>
      </trkpt>
      <trkpt lat="46.99987" lon="-0.98895">
        <ele>65.9</ele>
        <time>2025-08-25T11:05:04Z</time>
      </trkpt>
      <trkpt lat="46.99986" lon="-0.98896">
        <ele>65.8</ele>
        <time>2025-08-25T11:05:05Z</time>
      </trkpt>
      <trkpt lat="46.99985" lon="-0.98897">
        <ele>65.7</ele>
        <time>2025-08-25T11:05:06Z</time>
      </trkpt>
      <trkpt lat="46.99985" lon="-0.98898">
        <ele>65.6</ele>
        <time>2025-08-25T11:05:07Z</time>
      </trkpt>
      <trkpt lat="46.99984" lon="-0.98899">
        <ele>65.6</ele>
        <time>2025-08-25T11:05:08Z</time>
      </trkpt>
      <trkpt lat="46.99983" lon="-0.98902">
        <ele>65.4</ele>
        <time>2025-08-25T11:05:09Z</time>
      </trkpt>
      <trkpt lat="46.99983" lon="-0.98903">
        <ele>65.3</ele>
        <time>2025-08-25T11:05:10Z</time>
      </trkpt>
      <trkpt lat="46.99982" lon="-0.98904">
        <ele>65.3</ele>
        <time>2025-08-25T11:05:11Z</time>
      </trkpt>
      <trkpt lat="46.99981" lon="-0.98906">
        <ele>65.1</ele>
        <time>2025-08-25T11:05:12Z</time>
      </trkpt>
      <trkpt lat="46.9998" lon="-0.98907">
        <ele>65</ele>
        <time>2025-08-25T11:05:13Z</time>
      </trkpt>
      <trkpt lat="46.99979" lon="-0.98909">
        <ele>64.9</ele>
        <time>2025-08-25T11:05:14Z</time>
      </trkpt>
      <trkpt lat="46.99978" lon="-0.98911">
        <ele>64.8</ele>
        <time>2025-08-25T11:05:15Z</time>
      </trkpt>
      <trkpt lat="46.99977" lon="-0.98913">
        <ele>64.7</ele>
        <time>2025-08-25T11:05:16Z</time>
      </trkpt>
      <trkpt lat="46.99976" lon="-0.98914">
        <ele>64.6</ele>
        <time>2025-08-25T11:05:17Z</time>
      </trkpt>
      <trkpt lat="46.99975" lon="-0.98916">
        <ele>64.5</ele>
        <time>2025-08-25T11:05:18Z</time>
      </trkpt>
      <trkpt lat="46.99974" lon="-0.98918">
        <ele>64.4</ele>
        <time>2025-08-25T11:05:19Z</time>
      </trkpt>
      <trkpt lat="46.99973" lon="-0.9892">
        <ele>64.3</ele>
        <time>2025-08-25T11:05:20Z</time>
      </trkpt>
      <trkpt lat="46.99972" lon="-0.98922">
        <ele>64.2</ele>
        <time>2025-08-25T11:05:21Z</time>
      </trkpt>
      <trkpt lat="46.99971" lon="-0.98924">
        <ele>64.1</ele>
        <time>2025-08-25T11:05:22Z</time>
      </trkpt>
      <trkpt lat="46.9997" lon="-0.98926">
        <ele>64</ele>
        <time>2025-08-25T11:05:23Z</time>
      </trkpt>
      <trkpt lat="46.99969" lon="-0.98928">
        <ele>63.9</ele>
        <time>2025-08-25T11:05:24Z</time>
      </trkpt>
      <trkpt lat="46.99968" lon="-0.9893">
        <ele>63.9</ele>
        <time>2025-08-25T11:05:25Z</time>
      </trkpt>
      <trkpt lat="46.99967" lon="-0.98932">
        <ele>63.8</ele>
        <time>2025-08-25T11:05:26Z</time>
      </trkpt>
      <trkpt lat="46.99966" lon="-0.98934">
        <ele>63.7</ele>
        <time>2025-08-25T11:05:27Z</time>
      </trkpt>
      <trkpt lat="46.99965" lon="-0.98936">
        <ele>63.7</ele>
        <time>2025-08-25T11:05:28Z</time>
      </trkpt>
      <trkpt lat="46.99965" lon="-0.98938">
        <ele>63.6</ele>
        <time>2025-08-25T11:05:29Z</time>
      </trkpt>
      <trkpt lat="46.99964" lon="-0.98941">
        <ele>63.5</ele>
        <time>2025-08-25T11:05:30Z</time>
      </trkpt>
      <trkpt lat="46.99964" lon="-0.98942">
        <ele>63.5</ele>
        <time>2025-08-25T11:05:31Z</time>
      </trkpt>
      <trkpt lat="46.99964" lon="-0.98944">
        <ele>63.5</ele>
        <time>2025-08-25T11:05:32Z</time>
      </trkpt>
      <trkpt lat="46.99964" lon="-0.98946">
        <ele>63.4</ele>
        <time>2025-08-25T11:05:33Z</time>
      </trkpt>
      <trkpt lat="46.99964" lon="-0.98948">
        <ele>63.4</ele>
        <time>2025-08-25T11:05:34Z</time>
      </trkpt>
      <trkpt lat="46.99964" lon="-0.98949">
        <ele>63.4</ele>
        <time>2025-08-25T11:05:35Z</time>
      </trkpt>
      <trkpt lat="46.99964" lon="-0.98951">
        <ele>63.3</ele>
        <time>2025-08-25T11:05:36Z</time>
      </trkpt>
      <trkpt lat="46.99964" lon="-0.98954">
        <ele>63.3</ele>
        <time>2025-08-25T11:05:37Z</time>
      </trkpt>
      <trkpt lat="46.99964" lon="-0.98956">
        <ele>63.3</ele>
        <time>2025-08-25T11:05:38Z</time>
      </trkpt>
      <trkpt lat="46.99965" lon="-0.98957">
        <ele>63.2</ele>
        <time>2025-08-25T11:05:39Z</time>
      </trkpt>
      <trkpt lat="46.99965" lon="-0.98959">
        <ele>63.2</ele>
        <time>2025-08-25T11:05:40Z</time>
      </trkpt>
      <trkpt lat="46.99965" lon="-0.98961">
        <ele>63.2</ele>
        <time>2025-08-25T11:05:41Z</time>
      </trkpt>
      <trkpt lat="46.99965" lon="-0.98963">
        <ele>63.2</ele>
        <time>2025-08-25T11:05:42Z</time>
      </trkpt>
      <trkpt lat="46.99966" lon="-0.98964">
        <ele>63.2</ele>
        <time>2025-08-25T11:05:43Z</time>
      </trkpt>
      <trkpt lat="46.99966" lon="-0.98966">
        <ele>63.1</ele>
        <time>2025-08-25T11:05:44Z</time>
      </trkpt>
      <trkpt lat="46.99966" lon="-0.98968">
        <ele>63.1</ele>
        <time>2025-08-25T11:05:45Z</time>
      </trkpt>
      <trkpt lat="46.99967" lon="-0.98969">
        <ele>63.1</ele>
        <time>2025-08-25T11:05:46Z</time>
      </trkpt>
      <trkpt lat="46.99967" lon="-0.98971">
        <ele>63.1</ele>
        <time>2025-08-25T11:05:47Z</time>
      </trkpt>
      <trkpt lat="46.99967" lon="-0.98972">
        <ele>63.1</ele>
        <time>2025-08-25T11:05:48Z</time>
      </trkpt>
      <trkpt lat="46.99967" lon="-0.98974">
        <ele>63.1</ele>
        <time>2025-08-25T11:05:49Z</time>
      </trkpt>
      <trkpt lat="46.99967" lon="-0.98975">
        <ele>63.1</ele>
        <time>2025-08-25T11:05:50Z</time>
      </trkpt>
      <trkpt lat="46.99967" lon="-0.98976">
        <ele>63.1</ele>
        <time>2025-08-25T11:05:51Z</time>
      </trkpt>
      <trkpt lat="46.99967" lon="-0.98977">
        <ele>63</ele>
        <time>2025-08-25T11:05:52Z</time>
      </trkpt>
      <trkpt lat="46.99967" lon="-0.98978">
        <ele>63</ele>
        <time>2025-08-25T11:05:53Z</time>
      </trkpt>
      <trkpt lat="46.99967" lon="-0.9898">
        <ele>63</ele>
        <time>2025-08-25T11:05:54Z</time>
      </trkpt>
      <trkpt lat="46.99967" lon="-0.98981">
        <ele>63</ele>
        <time>2025-08-25T11:05:55Z</time>
      </trkpt>
      <trkpt lat="46.99967" lon="-0.98983">
        <ele>63</ele>
        <time>2025-08-25T11:05:56Z</time>
      </trkpt>
      <trkpt lat="46.99967" lon="-0.98986">
        <ele>63</ele>
        <time>2025-08-25T11:05:57Z</time>
      </trkpt>
      <trkpt lat="46.99967" lon="-0.98989">
        <ele>63</ele>
        <time>2025-08-25T11:05:58Z</time>
      </trkpt>
      <trkpt lat="46.99967" lon="-0.9899">
        <ele>63</ele>
        <time>2025-08-25T11:05:59Z</time>
      </trkpt>
      <trkpt lat="46.99967" lon="-0.98992">
        <ele>63</ele>
        <time>2025-08-25T11:06:00Z</time>
      </trkpt>
      <trkpt lat="46.99968" lon="-0.98994">
        <ele>63</ele>
        <time>2025-08-25T11:06:01Z</time>
      </trkpt>
      <trkpt lat="46.99968" lon="-0.98996">
        <ele>63</ele>
        <time>2025-08-25T11:06:02Z</time>
      </trkpt>
      <trkpt lat="46.99968" lon="-0.98998">
        <ele>63</ele>
        <time>2025-08-25T11:06:03Z</time>
      </trkpt>
      <trkpt lat="46.99968" lon="-0.98999">
        <ele>63</ele>
        <time>2025-08-25T11:06:04Z</time>
      </trkpt>
      <trkpt lat="46.99968" lon="-0.99001">
        <ele>63</ele>
        <time>2025-08-25T11:06:05Z</time>
      </trkpt>
      <trkpt lat="46.99968" lon="-0.99004">
        <ele>63</ele>
        <time>2025-08-25T11:06:06Z</time>
      </trkpt>
      <trkpt lat="46.99968" lon="-0.99005">
        <ele>63</ele>
        <time>2025-08-25T11:06:07Z</time>
      </trkpt>
      <trkpt lat="46.99968" lon="-0.99007">
        <ele>63</ele>
        <time>2025-08-25T11:06:08Z</time>
      </trkpt>
      <trkpt lat="46.99968" lon="-0.99008">
        <ele>63</ele>
        <time>2025-08-25T11:06:09Z</time>
      </trkpt>
      <trkpt lat="46.99968" lon="-0.9901">
        <ele>63</ele>
        <time>2025-08-25T11:06:10Z</time>
      </trkpt>
      <trkpt lat="46.99969" lon="-0.99012">
        <ele>63</ele>
        <time>2025-08-25T11:06:11Z</time>
      </trkpt>
      <trkpt lat="46.99969" lon="-0.99015">
        <ele>63</ele>
        <time>2025-08-25T11:06:12Z</time>
      </trkpt>
      <trkpt lat="46.99969" lon="-0.99016">
        <ele>63</ele>
        <time>2025-08-25T11:06:13Z</time>
      </trkpt>
      <trkpt lat="46.99969" lon="-0.99017">
        <ele>63</ele>
        <time>2025-08-25T11:06:14Z</time>
      </trkpt>
      <trkpt lat="46.99969" lon="-0.9902">
        <ele>63</ele>
        <time>2025-08-25T11:06:15Z</time>
      </trkpt>
      <trkpt lat="46.99969" lon="-0.99021">
        <ele>63</ele>
        <time>2025-08-25T11:06:16Z</time>
      </trkpt>
      <trkpt lat="46.99969" lon="-0.99023">
        <ele>63</ele>
        <time>2025-08-25T11:06:17Z</time>
      </trkpt>
      <trkpt lat="46.99968" lon="-0.99026">
        <ele>63</ele>
        <time>2025-08-25T11:06:18Z</time>
      </trkpt>
      <trkpt lat="46.99968" lon="-0.99027">
        <ele>63.1</ele>
        <time>2025-08-25T11:06:19Z</time>
      </trkpt>
      <trkpt lat="46.99968" lon="-0.99028">
        <ele>63.1</ele>
        <time>2025-08-25T11:06:20Z</time>
      </trkpt>
      <trkpt lat="46.99968" lon="-0.9903">
        <ele>63.1</ele>
        <time>2025-08-25T11:06:21Z</time>
      </trkpt>
      <trkpt lat="46.99968" lon="-0.99032">
        <ele>63.1</ele>
        <time>2025-08-25T11:06:22Z</time>
      </trkpt>
      <trkpt lat="46.99968" lon="-0.99034">
        <ele>63.1</ele>
        <time>2025-08-25T11:06:23Z</time>
      </trkpt>
      <trkpt lat="46.99968" lon="-0.99035">
        <ele>63.1</ele>
        <time>2025-08-25T11:06:24Z</time>
      </trkpt>
      <trkpt lat="46.99968" lon="-0.99037">
        <ele>63.1</ele>
        <time>2025-08-25T11:06:25Z</time>
      </trkpt>
      <trkpt lat="46.99968" lon="-0.99039">
        <ele>63.1</ele>
        <time>2025-08-25T11:06:26Z</time>
      </trkpt>
      <trkpt lat="46.99968" lon="-0.9904">
        <ele>63.2</ele>
        <time>2025-08-25T11:06:27Z</time>
      </trkpt>
      <trkpt lat="46.99968" lon="-0.99042">
        <ele>63.2</ele>
        <time>2025-08-25T11:06:28Z</time>
      </trkpt>
      <trkpt lat="46.99968" lon="-0.99043">
        <ele>63.2</ele>
        <time>2025-08-25T11:06:29Z</time>
      </trkpt>
      <trkpt lat="46.99968" lon="-0.99044">
        <ele>63.2</ele>
        <time>2025-08-25T11:06:30Z</time>
      </trkpt>
      <trkpt lat="46.99969" lon="-0.99045">
        <ele>63.2</ele>
        <time>2025-08-25T11:06:31Z</time>
      </trkpt>
      <trkpt lat="46.99969" lon="-0.99047">
        <ele>63.2</ele>
        <time>2025-08-25T11:06:32Z</time>
      </trkpt>
      <trkpt lat="46.99969" lon="-0.9905">
        <ele>63.2</ele>
        <time>2025-08-25T11:06:33Z</time>
      </trkpt>
      <trkpt lat="46.99969" lon="-0.99051">
        <ele>63.2</ele>
        <time>2025-08-25T11:06:34Z</time>
      </trkpt>
      <trkpt lat="46.99969" lon="-0.99052">
        <ele>63.2</ele>
        <time>2025-08-25T11:06:35Z</time>
      </trkpt>
      <trkpt lat="46.99969" lon="-0.99056">
        <ele>63.3</ele>
        <time>2025-08-25T11:06:36Z</time>
      </trkpt>
      <trkpt lat="46.9997" lon="-0.99057">
        <ele>63.3</ele>
        <time>2025-08-25T11:06:37Z</time>
      </trkpt>
      <trkpt lat="46.9997" lon="-0.99058">
        <ele>63.3</ele>
        <time>2025-08-25T11:06:38Z</time>
      </trkpt>
      <trkpt lat="46.9997" lon="-0.9906">
        <ele>63.3</ele>
        <time>2025-08-25T11:06:39Z</time>
      </trkpt>
      <trkpt lat="46.9997" lon="-0.99062">
        <ele>63.3</ele>
        <time>2025-08-25T11:06:40Z</time>
      </trkpt>
      <trkpt lat="46.9997" lon="-0.99064">
        <ele>63.3</ele>
        <time>2025-08-25T11:06:41Z</time>
      </trkpt>
      <trkpt lat="46.9997" lon="-0.99067">
        <ele>63.3</ele>
        <time>2025-08-25T11:06:42Z</time>
      </trkpt>
      <trkpt lat="46.9997" lon="-0.99069">
        <ele>63.3</ele>
        <time>2025-08-25T11:06:43Z</time>
      </trkpt>
      <trkpt lat="46.9997" lon="-0.99071">
        <ele>63.3</ele>
        <time>2025-08-25T11:06:44Z</time>
      </trkpt>
      <trkpt lat="46.9997" lon="-0.99074">
        <ele>63.3</ele>
        <time>2025-08-25T11:06:45Z</time>
      </trkpt>
      <trkpt lat="46.9997" lon="-0.99075">
        <ele>63.3</ele>
        <time>2025-08-25T11:06:46Z</time>
      </trkpt>
      <trkpt lat="46.9997" lon="-0.99076">
        <ele>63.3</ele>
        <time>2025-08-25T11:06:47Z</time>
      </trkpt>
      <trkpt lat="46.9997" lon="-0.99078">
        <ele>63.2</ele>
        <time>2025-08-25T11:06:48Z</time>
      </trkpt>
      <trkpt lat="46.9997" lon="-0.9908">
        <ele>63.2</ele>
        <time>2025-08-25T11:06:49Z</time>
      </trkpt>
      <trkpt lat="46.9997" lon="-0.99084">
        <ele>63.2</ele>
        <time>2025-08-25T11:06:50Z</time>
      </trkpt>
      <trkpt lat="46.9997" lon="-0.99085">
        <ele>63.2</ele>
        <time>2025-08-25T11:06:51Z</time>
      </trkpt>
      <trkpt lat="46.9997" lon="-0.99086">
        <ele>63.2</ele>
        <time>2025-08-25T11:06:52Z</time>
      </trkpt>
      <trkpt lat="46.9997" lon="-0.99089">
        <ele>63.1</ele>
        <time>2025-08-25T11:06:53Z</time>
      </trkpt>
      <trkpt lat="46.9997" lon="-0.9909">
        <ele>63.1</ele>
        <time>2025-08-25T11:06:54Z</time>
      </trkpt>
      <trkpt lat="46.9997" lon="-0.99092">
        <ele>63.1</ele>
        <time>2025-08-25T11:06:55Z</time>
      </trkpt>
      <trkpt lat="46.9997" lon="-0.99094">
        <ele>63</ele>
        <time>2025-08-25T11:06:56Z</time>
      </trkpt>
      <trkpt lat="46.99971" lon="-0.99096">
        <ele>63</ele>
        <time>2025-08-25T11:06:57Z</time>
      </trkpt>
      <trkpt lat="46.99971" lon="-0.99097">
        <ele>63</ele>
        <time>2025-08-25T11:06:58Z</time>
      </trkpt>
      <trkpt lat="46.99971" lon="-0.99101">
        <ele>62.9</ele>
        <time>2025-08-25T11:06:59Z</time>
      </trkpt>
      <trkpt lat="46.99971" lon="-0.99103">
        <ele>62.9</ele>
        <time>2025-08-25T11:07:00Z</time>
      </trkpt>
      <trkpt lat="46.99971" lon="-0.99106">
        <ele>62.9</ele>
        <time>2025-08-25T11:07:01Z</time>
      </trkpt>
      <trkpt lat="46.99971" lon="-0.99107">
        <ele>62.9</ele>
        <time>2025-08-25T11:07:02Z</time>
      </trkpt>
      <trkpt lat="46.99971" lon="-0.99108">
        <ele>62.8</ele>
        <time>2025-08-25T11:07:03Z</time>
      </trkpt>
      <trkpt lat="46.99971" lon="-0.99111">
        <ele>62.8</ele>
        <time>2025-08-25T11:07:04Z</time>
      </trkpt>
      <trkpt lat="46.99972" lon="-0.99113">
        <ele>62.8</ele>
        <time>2025-08-25T11:07:05Z</time>
      </trkpt>
      <trkpt lat="46.99972" lon="-0.99114">
        <ele>62.8</ele>
        <time>2025-08-25T11:07:06Z</time>
      </trkpt>
      <trkpt lat="46.99972" lon="-0.99117">
        <ele>62.7</ele>
        <time>2025-08-25T11:07:07Z</time>
      </trkpt>
      <trkpt lat="46.99972" lon="-0.99118">
        <ele>62.7</ele>
        <time>2025-08-25T11:07:08Z</time>
      </trkpt>
      <trkpt lat="46.99973" lon="-0.99119">
        <ele>62.7</ele>
        <time>2025-08-25T11:07:09Z</time>
      </trkpt>
      <trkpt lat="46.99973" lon="-0.9912">
        <ele>62.7</ele>
        <time>2025-08-25T11:07:10Z</time>
      </trkpt>
      <trkpt lat="46.99973" lon="-0.99124">
        <ele>62.7</ele>
        <time>2025-08-25T11:07:11Z</time>
      </trkpt>
      <trkpt lat="46.99974" lon="-0.99126">
        <ele>62.7</ele>
        <time>2025-08-25T11:07:12Z</time>
      </trkpt>
      <trkpt lat="46.99974" lon="-0.99128">
        <ele>62.6</ele>
        <time>2025-08-25T11:07:13Z</time>
      </trkpt>
      <trkpt lat="46.99974" lon="-0.9913">
        <ele>62.6</ele>
        <time>2025-08-25T11:07:14Z</time>
      </trkpt>
      <trkpt lat="46.99975" lon="-0.99131">
        <ele>62.6</ele>
        <time>2025-08-25T11:07:15Z</time>
      </trkpt>
      <trkpt lat="46.99975" lon="-0.99133">
        <ele>62.6</ele>
        <time>2025-08-25T11:07:16Z</time>
      </trkpt>
      <trkpt lat="46.99975" lon="-0.99134">
        <ele>62.6</ele>
        <time>2025-08-25T11:07:17Z</time>
      </trkpt>
      <trkpt lat="46.99976" lon="-0.99135">
        <ele>62.6</ele>
        <time>2025-08-25T11:07:18Z</time>
      </trkpt>
      <trkpt lat="46.99976" lon="-0.99137">
        <ele>62.6</ele>
        <time>2025-08-25T11:07:19Z</time>
      </trkpt>
      <trkpt lat="46.99976" lon="-0.99138">
        <ele>62.6</ele>
        <time>2025-08-25T11:07:20Z</time>
      </trkpt>
      <trkpt lat="46.99976" lon="-0.9914">
        <ele>62.6</ele>
        <time>2025-08-25T11:07:21Z</time>
      </trkpt>
      <trkpt lat="46.99977" lon="-0.99141">
        <ele>62.6</ele>
        <time>2025-08-25T11:07:22Z</time>
      </trkpt>
      <trkpt lat="46.99977" lon="-0.99142">
        <ele>62.6</ele>
        <time>2025-08-25T11:07:23Z</time>
      </trkpt>
      <trkpt lat="46.99977" lon="-0.99144">
        <ele>62.6</ele>
        <time>2025-08-25T11:07:24Z</time>
      </trkpt>
      <trkpt lat="46.99978" lon="-0.99146">
        <ele>62.6</ele>
        <time>2025-08-25T11:07:25Z</time>
      </trkpt>
      <trkpt lat="46.99979" lon="-0.99149">
        <ele>62.6</ele>
        <time>2025-08-25T11:07:26Z</time>
      </trkpt>
      <trkpt lat="46.99979" lon="-0.9915">
        <ele>62.6</ele>
        <time>2025-08-25T11:07:27Z</time>
      </trkpt>
      <trkpt lat="46.99979" lon="-0.99151">
        <ele>62.7</ele>
        <time>2025-08-25T11:07:28Z</time>
      </trkpt>
      <trkpt lat="46.9998" lon="-0.99153">
        <ele>62.7</ele>
        <time>2025-08-25T11:07:29Z</time>
      </trkpt>
      <trkpt lat="46.99981" lon="-0.99154">
        <ele>62.7</ele>
        <time>2025-08-25T11:07:30Z</time>
      </trkpt>
      <trkpt lat="46.99982" lon="-0.99157">
        <ele>62.7</ele>
        <time>2025-08-25T11:07:31Z</time>
      </trkpt>
      <trkpt lat="46.99982" lon="-0.99159">
        <ele>62.7</ele>
        <time>2025-08-25T11:07:32Z</time>
      </trkpt>
      <trkpt lat="46.99983" lon="-0.99161">
        <ele>62.7</ele>
        <time>2025-08-25T11:07:33Z</time>
      </trkpt>
      <trkpt lat="46.99984" lon="-0.99163">
        <ele>62.8</ele>
        <time>2025-08-25T11:07:34Z</time>
      </trkpt>
      <trkpt lat="46.99985" lon="-0.99165">
        <ele>62.8</ele>
        <time>2025-08-25T11:07:35Z</time>
      </trkpt>
      <trkpt lat="46.99985" lon="-0.99166">
        <ele>62.8</ele>
        <time>2025-08-25T11:07:36Z</time>
      </trkpt>
      <trkpt lat="46.99986" lon="-0.99168">
        <ele>62.8</ele>
        <time>2025-08-25T11:07:37Z</time>
      </trkpt>
      <trkpt lat="46.99987" lon="-0.9917">
        <ele>62.9</ele>
        <time>2025-08-25T11:07:38Z</time>
      </trkpt>
      <trkpt lat="46.99989" lon="-0.99172">
        <ele>62.9</ele>
        <time>2025-08-25T11:07:39Z</time>
      </trkpt>
      <trkpt lat="46.99989" lon="-0.99173">
        <ele>62.9</ele>
        <time>2025-08-25T11:07:40Z</time>
      </trkpt>
      <trkpt lat="46.9999" lon="-0.99174">
        <ele>62.9</ele>
        <time>2025-08-25T11:07:41Z</time>
      </trkpt>
      <trkpt lat="46.99991" lon="-0.99176">
        <ele>63</ele>
        <time>2025-08-25T11:07:42Z</time>
      </trkpt>
      <trkpt lat="46.99992" lon="-0.99177">
        <ele>63</ele>
        <time>2025-08-25T11:07:43Z</time>
      </trkpt>
      <trkpt lat="46.99993" lon="-0.99179">
        <ele>63</ele>
        <time>2025-08-25T11:07:44Z</time>
      </trkpt>
      <trkpt lat="46.99994" lon="-0.9918">
        <ele>63</ele>
        <time>2025-08-25T11:07:45Z</time>
      </trkpt>
      <trkpt lat="46.99995" lon="-0.99182">
        <ele>63.1</ele>
        <time>2025-08-25T11:07:46Z</time>
      </trkpt>
      <trkpt lat="46.99996" lon="-0.99184">
        <ele>63.1</ele>
        <time>2025-08-25T11:07:47Z</time>
      </trkpt>
      <trkpt lat="46.99997" lon="-0.99185">
        <ele>63.1</ele>
        <time>2025-08-25T11:07:48Z</time>
      </trkpt>
      <trkpt lat="46.99998" lon="-0.99186">
        <ele>63.1</ele>
        <time>2025-08-25T11:07:49Z</time>
      </trkpt>
      <trkpt lat="47" lon="-0.99188">
        <ele>63.2</ele>
        <time>2025-08-25T11:07:50Z</time>
      </trkpt>
      <trkpt lat="47" lon="-0.99189">
        <ele>63.2</ele>
        <time>2025-08-25T11:07:51Z</time>
      </trkpt>
      <trkpt lat="47.00001" lon="-0.9919">
        <ele>63.2</ele>
        <time>2025-08-25T11:07:52Z</time>
      </trkpt>
      <trkpt lat="47.00002" lon="-0.99192">
        <ele>63.2</ele>
        <time>2025-08-25T11:07:53Z</time>
      </trkpt>
      <trkpt lat="47.00003" lon="-0.99193">
        <ele>63.2</ele>
        <time>2025-08-25T11:07:54Z</time>
      </trkpt>
      <trkpt lat="47.00004" lon="-0.99194">
        <ele>63.2</ele>
        <time>2025-08-25T11:07:55Z</time>
      </trkpt>
      <trkpt lat="47.00005" lon="-0.99196">
        <ele>63.2</ele>
        <time>2025-08-25T11:07:56Z</time>
      </trkpt>
      <trkpt lat="47.00006" lon="-0.99197">
        <ele>63.2</ele>
        <time>2025-08-25T11:07:57Z</time>
      </trkpt>
      <trkpt lat="47.00007" lon="-0.99199">
        <ele>63.1</ele>
        <time>2025-08-25T11:07:58Z</time>
      </trkpt>
      <trkpt lat="47.00007" lon="-0.99201">
        <ele>63.1</ele>
        <time>2025-08-25T11:07:59Z</time>
      </trkpt>
      <trkpt lat="47.00008" lon="-0.99202">
        <ele>63.1</ele>
        <time>2025-08-25T11:08:00Z</time>
      </trkpt>
      <trkpt lat="47.00009" lon="-0.99203">
        <ele>63.1</ele>
        <time>2025-08-25T11:08:01Z</time>
      </trkpt>
      <trkpt lat="47.00009" lon="-0.99205">
        <ele>63.1</ele>
        <time>2025-08-25T11:08:02Z</time>
      </trkpt>
      <trkpt lat="47.0001" lon="-0.99206">
        <ele>63.1</ele>
        <time>2025-08-25T11:08:03Z</time>
      </trkpt>
      <trkpt lat="47.00011" lon="-0.99208">
        <ele>63</ele>
        <time>2025-08-25T11:08:04Z</time>
      </trkpt>
      <trkpt lat="47.00012" lon="-0.9921">
        <ele>63</ele>
        <time>2025-08-25T11:08:05Z</time>
      </trkpt>
      <trkpt lat="47.00013" lon="-0.99211">
        <ele>63</ele>
        <time>2025-08-25T11:08:06Z</time>
      </trkpt>
      <trkpt lat="47.00014" lon="-0.99213">
        <ele>62.9</ele>
        <time>2025-08-25T11:08:07Z</time>
      </trkpt>
      <trkpt lat="47.00014" lon="-0.99215">
        <ele>62.9</ele>
        <time>2025-08-25T11:08:08Z</time>
      </trkpt>
      <trkpt lat="47.00015" lon="-0.99217">
        <ele>62.8</ele>
        <time>2025-08-25T11:08:09Z</time>
      </trkpt>
      <trkpt lat="47.00016" lon="-0.99218">
        <ele>62.8</ele>
        <time>2025-08-25T11:08:10Z</time>
      </trkpt>
      <trkpt lat="47.00017" lon="-0.9922">
        <ele>62.7</ele>
        <time>2025-08-25T11:08:11Z</time>
      </trkpt>
      <trkpt lat="47.00018" lon="-0.99222">
        <ele>62.7</ele>
        <time>2025-08-25T11:08:12Z</time>
      </trkpt>
      <trkpt lat="47.00018" lon="-0.99223">
        <ele>62.7</ele>
        <time>2025-08-25T11:08:13Z</time>
      </trkpt>
      <trkpt lat="47.00019" lon="-0.99225">
        <ele>62.6</ele>
        <time>2025-08-25T11:08:14Z</time>
      </trkpt>
      <trkpt lat="47.0002" lon="-0.99228">
        <ele>62.5</ele>
        <time>2025-08-25T11:08:15Z</time>
      </trkpt>
      <trkpt lat="47.00021" lon="-0.99229">
        <ele>62.5</ele>
        <time>2025-08-25T11:08:16Z</time>
      </trkpt>
      <trkpt lat="47.00021" lon="-0.9923">
        <ele>62.5</ele>
        <time>2025-08-25T11:08:17Z</time>
      </trkpt>
      <trkpt lat="47.00022" lon="-0.99232">
        <ele>62.4</ele>
        <time>2025-08-25T11:08:18Z</time>
      </trkpt>
      <trkpt lat="47.00022" lon="-0.99233">
        <ele>62.4</ele>
        <time>2025-08-25T11:08:19Z</time>
      </trkpt>
      <trkpt lat="47.00023" lon="-0.99234">
        <ele>62.4</ele>
        <time>2025-08-25T11:08:20Z</time>
      </trkpt>
      <trkpt lat="47.00024" lon="-0.99234">
        <ele>62.3</ele>
        <time>2025-08-25T11:08:21Z</time>
      </trkpt>
      <trkpt lat="47.00024" lon="-0.99235">
        <ele>62.3</ele>
        <time>2025-08-25T11:08:22Z</time>
      </trkpt>
      <trkpt lat="47.00025" lon="-0.99236">
        <ele>62.3</ele>
        <time>2025-08-25T11:08:23Z</time>
      </trkpt>
      <trkpt lat="47.00025" lon="-0.99237">
        <ele>62.3</ele>
        <time>2025-08-25T11:08:24Z</time>
      </trkpt>
      <trkpt lat="47.00025" lon="-0.99238">
        <ele>62.2</ele>
        <time>2025-08-25T11:08:25Z</time>
      </trkpt>
      <trkpt lat="47.00025" lon="-0.99239">
        <ele>62.2</ele>
        <time>2025-08-25T11:08:26Z</time>
      </trkpt>
      <trkpt lat="47.00025" lon="-0.9924">
        <ele>62.2</ele>
        <time>2025-08-25T11:08:27Z</time>
      </trkpt>
      <trkpt lat="47.00025" lon="-0.99242">
        <ele>62.2</ele>
        <time>2025-08-25T11:08:28Z</time>
      </trkpt>
      <trkpt lat="47.00025" lon="-0.99243">
        <ele>62.1</ele>
        <time>2025-08-25T11:08:29Z</time>
      </trkpt>
      <trkpt lat="47.00025" lon="-0.99244">
        <ele>62.1</ele>
        <time>2025-08-25T11:08:30Z</time>
      </trkpt>
      <trkpt lat="47.00025" lon="-0.99246">
        <ele>62.1</ele>
        <time>2025-08-25T11:08:31Z</time>
      </trkpt>
      <trkpt lat="47.00026" lon="-0.99249">
        <ele>62</ele>
        <time>2025-08-25T11:08:32Z</time>
      </trkpt>
      <trkpt lat="47.00026" lon="-0.9925">
        <ele>62</ele>
        <time>2025-08-25T11:08:33Z</time>
      </trkpt>
      <trkpt lat="47.00026" lon="-0.99251">
        <ele>62</ele>
        <time>2025-08-25T11:08:34Z</time>
      </trkpt>
      <trkpt lat="47.00027" lon="-0.99253">
        <ele>62</ele>
        <time>2025-08-25T11:08:35Z</time>
      </trkpt>
      <trkpt lat="47.00028" lon="-0.99255">
        <ele>62</ele>
        <time>2025-08-25T11:08:36Z</time>
      </trkpt>
      <trkpt lat="47.00028" lon="-0.99257">
        <ele>61.9</ele>
        <time>2025-08-25T11:08:37Z</time>
      </trkpt>
      <trkpt lat="47.00029" lon="-0.99259">
        <ele>61.9</ele>
        <time>2025-08-25T11:08:38Z</time>
      </trkpt>
      <trkpt lat="47.0003" lon="-0.99261">
        <ele>61.9</ele>
        <time>2025-08-25T11:08:39Z</time>
      </trkpt>
      <trkpt lat="47.00031" lon="-0.99262">
        <ele>61.9</ele>
        <time>2025-08-25T11:08:40Z</time>
      </trkpt>
      <trkpt lat="47.00032" lon="-0.99263">
        <ele>61.8</ele>
        <time>2025-08-25T11:08:41Z</time>
      </trkpt>
      <trkpt lat="47.00032" lon="-0.99264">
        <ele>61.8</ele>
        <time>2025-08-25T11:08:42Z</time>
      </trkpt>
      <trkpt lat="47.00033" lon="-0.99266">
        <ele>61.8</ele>
        <time>2025-08-25T11:08:43Z</time>
      </trkpt>
      <trkpt lat="47.00034" lon="-0.99267">
        <ele>61.8</ele>
        <time>2025-08-25T11:08:44Z</time>
      </trkpt>
      <trkpt lat="47.00035" lon="-0.99268">
        <ele>61.8</ele>
        <time>2025-08-25T11:08:45Z</time>
      </trkpt>
      <trkpt lat="47.00036" lon="-0.99269">
        <ele>61.8</ele>
        <time>2025-08-25T11:08:46Z</time>
      </trkpt>
      <trkpt lat="47.00037" lon="-0.99269">
        <ele>61.8</ele>
        <time>2025-08-25T11:08:47Z</time>
      </trkpt>
      <trkpt lat="47.00038" lon="-0.9927">
        <ele>61.8</ele>
        <time>2025-08-25T11:08:48Z</time>
      </trkpt>
      <trkpt lat="47.00039" lon="-0.99271">
        <ele>61.8</ele>
        <time>2025-08-25T11:08:49Z</time>
      </trkpt>
      <trkpt lat="47.0004" lon="-0.99272">
        <ele>61.8</ele>
        <time>2025-08-25T11:08:50Z</time>
      </trkpt>
      <trkpt lat="47.00041" lon="-0.99274">
        <ele>61.7</ele>
        <time>2025-08-25T11:08:51Z</time>
      </trkpt>
      <trkpt lat="47.00042" lon="-0.99275">
        <ele>61.7</ele>
        <time>2025-08-25T11:08:52Z</time>
      </trkpt>
      <trkpt lat="47.00042" lon="-0.99276">
        <ele>61.7</ele>
        <time>2025-08-25T11:08:53Z</time>
      </trkpt>
      <trkpt lat="47.00043" lon="-0.99278">
        <ele>61.7</ele>
        <time>2025-08-25T11:08:54Z</time>
      </trkpt>
      <trkpt lat="47.00043" lon="-0.99279">
        <ele>61.6</ele>
        <time>2025-08-25T11:08:55Z</time>
      </trkpt>
      <trkpt lat="47.00043" lon="-0.99281">
        <ele>61.6</ele>
        <time>2025-08-25T11:08:56Z</time>
      </trkpt>
      <trkpt lat="47.00044" lon="-0.99284">
        <ele>61.6</ele>
        <time>2025-08-25T11:08:57Z</time>
      </trkpt>
      <trkpt lat="47.00044" lon="-0.99285">
        <ele>61.5</ele>
        <time>2025-08-25T11:08:58Z</time>
      </trkpt>
      <trkpt lat="47.00044" lon="-0.99287">
        <ele>61.5</ele>
        <time>2025-08-25T11:08:59Z</time>
      </trkpt>
      <trkpt lat="47.00044" lon="-0.99288">
        <ele>61.5</ele>
        <time>2025-08-25T11:09:00Z</time>
      </trkpt>
      <trkpt lat="47.00044" lon="-0.99289">
        <ele>61.4</ele>
        <time>2025-08-25T11:09:01Z</time>
      </trkpt>
      <trkpt lat="47.00044" lon="-0.9929">
        <ele>61.4</ele>
        <time>2025-08-25T11:09:02Z</time>
      </trkpt>
      <trkpt lat="47.00044" lon="-0.99291">
        <ele>61.4</ele>
        <time>2025-08-25T11:09:03Z</time>
      </trkpt>
      <trkpt lat="47.00044" lon="-0.99292">
        <ele>61.4</ele>
        <time>2025-08-25T11:09:04Z</time>
      </trkpt>
      <trkpt lat="47.00044" lon="-0.99293">
        <ele>61.3</ele>
        <time>2025-08-25T11:09:05Z</time>
      </trkpt>
      <trkpt lat="47.00044" lon="-0.99294">
        <ele>61.3</ele>
        <time>2025-08-25T11:09:06Z</time>
      </trkpt>
      <trkpt lat="47.00044" lon="-0.99295">
        <ele>61.3</ele>
        <time>2025-08-25T11:09:07Z</time>
      </trkpt>
      <trkpt lat="47.00044" lon="-0.99296">
        <ele>61.3</ele>
        <time>2025-08-25T11:09:08Z</time>
      </trkpt>
      <trkpt lat="47.00044" lon="-0.99298">
        <ele>61.2</ele>
        <time>2025-08-25T11:09:09Z</time>
      </trkpt>
      <trkpt lat="47.00044" lon="-0.99299">
        <ele>61.2</ele>
        <time>2025-08-25T11:09:10Z</time>
      </trkpt>
      <trkpt lat="47.00044" lon="-0.993">
        <ele>61.1</ele>
        <time>2025-08-25T11:09:11Z</time>
      </trkpt>
      <trkpt lat="47.00045" lon="-0.99302">
        <ele>61.1</ele>
        <time>2025-08-25T11:09:12Z</time>
      </trkpt>
      <trkpt lat="47.00045" lon="-0.99303">
        <ele>61.1</ele>
        <time>2025-08-25T11:09:13Z</time>
      </trkpt>
      <trkpt lat="47.00046" lon="-0.99305">
        <ele>61</ele>
        <time>2025-08-25T11:09:14Z</time>
      </trkpt>
      <trkpt lat="47.00046" lon="-0.99306">
        <ele>61</ele>
        <time>2025-08-25T11:09:15Z</time>
      </trkpt>
      <trkpt lat="47.00047" lon="-0.99308">
        <ele>60.9</ele>
        <time>2025-08-25T11:09:16Z</time>
      </trkpt>
      <trkpt lat="47.00047" lon="-0.9931">
        <ele>60.9</ele>
        <time>2025-08-25T11:09:17Z</time>
      </trkpt>
      <trkpt lat="47.00047" lon="-0.99311">
        <ele>60.8</ele>
        <time>2025-08-25T11:09:18Z</time>
      </trkpt>
      <trkpt lat="47.00048" lon="-0.99313">
        <ele>60.8</ele>
        <time>2025-08-25T11:09:19Z</time>
      </trkpt>
      <trkpt lat="47.00048" lon="-0.99314">
        <ele>60.8</ele>
        <time>2025-08-25T11:09:20Z</time>
      </trkpt>
      <trkpt lat="47.00049" lon="-0.99316">
        <ele>60.8</ele>
        <time>2025-08-25T11:09:21Z</time>
      </trkpt>
      <trkpt lat="47.0005" lon="-0.99317">
        <ele>60.7</ele>
        <time>2025-08-25T11:09:22Z</time>
      </trkpt>
      <trkpt lat="47.0005" lon="-0.99318">
        <ele>60.7</ele>
        <time>2025-08-25T11:09:23Z</time>
      </trkpt>
      <trkpt lat="47.00051" lon="-0.9932">
        <ele>60.7</ele>
        <time>2025-08-25T11:09:24Z</time>
      </trkpt>
      <trkpt lat="47.00052" lon="-0.9932">
        <ele>60.7</ele>
        <time>2025-08-25T11:09:25Z</time>
      </trkpt>
      <trkpt lat="47.00053" lon="-0.99321">
        <ele>60.7</ele>
        <time>2025-08-25T11:09:26Z</time>
      </trkpt>
      <trkpt lat="47.00053" lon="-0.99322">
        <ele>60.7</ele>
        <time>2025-08-25T11:09:27Z</time>
      </trkpt>
      <trkpt lat="47.00054" lon="-0.99323">
        <ele>60.7</ele>
        <time>2025-08-25T11:09:28Z</time>
      </trkpt>
      <trkpt lat="47.00055" lon="-0.99325">
        <ele>60.7</ele>
        <time>2025-08-25T11:09:29Z</time>
      </trkpt>
      <trkpt lat="47.00055" lon="-0.99326">
        <ele>60.7</ele>
        <time>2025-08-25T11:09:30Z</time>
      </trkpt>
      <trkpt lat="47.00056" lon="-0.99327">
        <ele>60.7</ele>
        <time>2025-08-25T11:09:31Z</time>
      </trkpt>
      <trkpt lat="47.00056" lon="-0.99328">
        <ele>60.7</ele>
        <time>2025-08-25T11:09:32Z</time>
      </trkpt>
      <trkpt lat="47.00057" lon="-0.9933">
        <ele>60.8</ele>
        <time>2025-08-25T11:09:33Z</time>
      </trkpt>
      <trkpt lat="47.00057" lon="-0.99331">
        <ele>60.8</ele>
        <time>2025-08-25T11:09:34Z</time>
      </trkpt>
      <trkpt lat="47.00058" lon="-0.99333">
        <ele>60.8</ele>
        <time>2025-08-25T11:09:35Z</time>
      </trkpt>
      <trkpt lat="47.00059" lon="-0.99334">
        <ele>60.8</ele>
        <time>2025-08-25T11:09:36Z</time>
      </trkpt>
      <trkpt lat="47.00059" lon="-0.99336">
        <ele>60.9</ele>
        <time>2025-08-25T11:09:37Z</time>
      </trkpt>
      <trkpt lat="47.0006" lon="-0.99337">
        <ele>60.9</ele>
        <time>2025-08-25T11:09:38Z</time>
      </trkpt>
      <trkpt lat="47.00061" lon="-0.99338">
        <ele>60.9</ele>
        <time>2025-08-25T11:09:39Z</time>
      </trkpt>
      <trkpt lat="47.00061" lon="-0.99339">
        <ele>60.9</ele>
        <time>2025-08-25T11:09:40Z</time>
      </trkpt>
      <trkpt lat="47.00062" lon="-0.9934">
        <ele>61</ele>
        <time>2025-08-25T11:09:41Z</time>
      </trkpt>
      <trkpt lat="47.00062" lon="-0.99341">
        <ele>61</ele>
        <time>2025-08-25T11:09:42Z</time>
      </trkpt>
      <trkpt lat="47.00063" lon="-0.99342">
        <ele>61</ele>
        <time>2025-08-25T11:09:43Z</time>
      </trkpt>
      <trkpt lat="47.00063" lon="-0.99343">
        <ele>61.1</ele>
        <time>2025-08-25T11:09:44Z</time>
      </trkpt>
      <trkpt lat="47.00063" lon="-0.99344">
        <ele>61.1</ele>
        <time>2025-08-25T11:09:45Z</time>
      </trkpt>
      <trkpt lat="47.00063" lon="-0.99345">
        <ele>61.1</ele>
        <time>2025-08-25T11:09:46Z</time>
      </trkpt>
      <trkpt lat="47.00063" lon="-0.99346">
        <ele>61.1</ele>
        <time>2025-08-25T11:09:47Z</time>
      </trkpt>
      <trkpt lat="47.00062" lon="-0.99346">
        <ele>61.1</ele>
        <time>2025-08-25T11:09:48Z</time>
      </trkpt>
      <trkpt lat="47.00062" lon="-0.99347">
        <ele>61.2</ele>
        <time>2025-08-25T11:09:49Z</time>
      </trkpt>
      <trkpt lat="47.00062" lon="-0.99348">
        <ele>61.2</ele>
        <time>2025-08-25T11:09:50Z</time>
      </trkpt>
      <trkpt lat="47.00063" lon="-0.99349">
        <ele>61.2</ele>
        <time>2025-08-25T11:09:51Z</time>
      </trkpt>
      <trkpt lat="47.00063" lon="-0.9935">
        <ele>61.2</ele>
        <time>2025-08-25T11:09:52Z</time>
      </trkpt>
      <trkpt lat="47.00063" lon="-0.99351">
        <ele>61.2</ele>
        <time>2025-08-25T11:09:53Z</time>
      </trkpt>
      <trkpt lat="47.00064" lon="-0.99352">
        <ele>61.3</ele>
        <time>2025-08-25T11:09:54Z</time>
      </trkpt>
      <trkpt lat="47.00064" lon="-0.99353">
        <ele>61.3</ele>
        <time>2025-08-25T11:09:55Z</time>
      </trkpt>
      <trkpt lat="47.00065" lon="-0.99353">
        <ele>61.3</ele>
        <time>2025-08-25T11:09:56Z</time>
      </trkpt>
      <trkpt lat="47.00066" lon="-0.99354">
        <ele>61.3</ele>
        <time>2025-08-25T11:09:57Z</time>
      </trkpt>
      <trkpt lat="47.00066" lon="-0.99355">
        <ele>61.4</ele>
        <time>2025-08-25T11:09:58Z</time>
      </trkpt>
      <trkpt lat="47.00067" lon="-0.99357">
        <ele>61.4</ele>
        <time>2025-08-25T11:10:00Z</time>
      </trkpt>
      <trkpt lat="47.00067" lon="-0.99358">
        <ele>61.4</ele>
        <time>2025-08-25T11:10:01Z</time>
      </trkpt>
      <trkpt lat="47.00067" lon="-0.99359">
        <ele>61.4</ele>
        <time>2025-08-25T11:10:02Z</time>
      </trkpt>
      <trkpt lat="47.00067" lon="-0.99361">
        <ele>61.5</ele>
        <time>2025-08-25T11:10:03Z</time>
      </trkpt>
      <trkpt lat="47.00067" lon="-0.99363">
        <ele>61.5</ele>
        <time>2025-08-25T11:10:04Z</time>
      </trkpt>
      <trkpt lat="47.00067" lon="-0.99364">
        <ele>61.5</ele>
        <time>2025-08-25T11:10:05Z</time>
      </trkpt>
      <trkpt lat="47.00067" lon="-0.99366">
        <ele>61.5</ele>
        <time>2025-08-25T11:10:06Z</time>
      </trkpt>
      <trkpt lat="47.00068" lon="-0.99369">
        <ele>61.6</ele>
        <time>2025-08-25T11:10:07Z</time>
      </trkpt>
      <trkpt lat="47.00068" lon="-0.9937">
        <ele>61.6</ele>
        <time>2025-08-25T11:10:08Z</time>
      </trkpt>
      <trkpt lat="47.00068" lon="-0.99373">
        <ele>61.6</ele>
        <time>2025-08-25T11:10:09Z</time>
      </trkpt>
      <trkpt lat="47.00068" lon="-0.99374">
        <ele>61.6</ele>
        <time>2025-08-25T11:10:10Z</time>
      </trkpt>
      <trkpt lat="47.00067" lon="-0.99375">
        <ele>61.6</ele>
        <time>2025-08-25T11:10:11Z</time>
      </trkpt>
      <trkpt lat="47.00067" lon="-0.99377">
        <ele>61.6</ele>
        <time>2025-08-25T11:10:12Z</time>
      </trkpt>
      <trkpt lat="47.00067" lon="-0.99378">
        <ele>61.6</ele>
        <time>2025-08-25T11:10:13Z</time>
      </trkpt>
      <trkpt lat="47.00067" lon="-0.9938">
        <ele>61.7</ele>
        <time>2025-08-25T11:10:14Z</time>
      </trkpt>
      <trkpt lat="47.00067" lon="-0.99381">
        <ele>61.7</ele>
        <time>2025-08-25T11:10:15Z</time>
      </trkpt>
      <trkpt lat="47.00066" lon="-0.99383">
        <ele>61.7</ele>
        <time>2025-08-25T11:10:16Z</time>
      </trkpt>
      <trkpt lat="47.00066" lon="-0.99384">
        <ele>61.7</ele>
        <time>2025-08-25T11:10:17Z</time>
      </trkpt>
      <trkpt lat="47.00066" lon="-0.99386">
        <ele>61.7</ele>
        <time>2025-08-25T11:10:18Z</time>
      </trkpt>
      <trkpt lat="47.00066" lon="-0.99389">
        <ele>61.7</ele>
        <time>2025-08-25T11:10:19Z</time>
      </trkpt>
      <trkpt lat="47.00066" lon="-0.9939">
        <ele>61.7</ele>
        <time>2025-08-25T11:10:20Z</time>
      </trkpt>
      <trkpt lat="47.00067" lon="-0.99393">
        <ele>61.7</ele>
        <time>2025-08-25T11:10:21Z</time>
      </trkpt>
      <trkpt lat="47.00067" lon="-0.99395">
        <ele>61.7</ele>
        <time>2025-08-25T11:10:22Z</time>
      </trkpt>
      <trkpt lat="47.00067" lon="-0.99397">
        <ele>61.7</ele>
        <time>2025-08-25T11:10:23Z</time>
      </trkpt>
      <trkpt lat="47.00068" lon="-0.994">
        <ele>61.6</ele>
        <time>2025-08-25T11:10:24Z</time>
      </trkpt>
      <trkpt lat="47.00068" lon="-0.99402">
        <ele>61.6</ele>
        <time>2025-08-25T11:10:25Z</time>
      </trkpt>
      <trkpt lat="47.00068" lon="-0.99405">
        <ele>61.6</ele>
        <time>2025-08-25T11:10:26Z</time>
      </trkpt>
      <trkpt lat="47.00068" lon="-0.99407">
        <ele>61.6</ele>
        <time>2025-08-25T11:10:27Z</time>
      </trkpt>
      <trkpt lat="47.00069" lon="-0.9941">
        <ele>61.6</ele>
        <time>2025-08-25T11:10:28Z</time>
      </trkpt>
      <trkpt lat="47.00068" lon="-0.99412">
        <ele>61.6</ele>
        <time>2025-08-25T11:10:29Z</time>
      </trkpt>
      <trkpt lat="47.00068" lon="-0.99414">
        <ele>61.6</ele>
        <time>2025-08-25T11:10:30Z</time>
      </trkpt>
      <trkpt lat="47.00068" lon="-0.99416">
        <ele>61.5</ele>
        <time>2025-08-25T11:10:31Z</time>
      </trkpt>
      <trkpt lat="47.00068" lon="-0.99419">
        <ele>61.5</ele>
        <time>2025-08-25T11:10:32Z</time>
      </trkpt>
      <trkpt lat="47.00069" lon="-0.99421">
        <ele>61.5</ele>
        <time>2025-08-25T11:10:33Z</time>
      </trkpt>
      <trkpt lat="47.00068" lon="-0.99422">
        <ele>61.5</ele>
        <time>2025-08-25T11:10:34Z</time>
      </trkpt>
      <trkpt lat="47.00068" lon="-0.99423">
        <ele>61.5</ele>
        <time>2025-08-25T11:10:35Z</time>
      </trkpt>
      <trkpt lat="47.00068" lon="-0.99424">
        <ele>61.4</ele>
        <time>2025-08-25T11:10:36Z</time>
      </trkpt>
      <trkpt lat="47.00068" lon="-0.99425">
        <ele>61.4</ele>
        <time>2025-08-25T11:10:37Z</time>
      </trkpt>
      <trkpt lat="47.00067" lon="-0.99426">
        <ele>61.4</ele>
        <time>2025-08-25T11:10:38Z</time>
      </trkpt>
      <trkpt lat="47.00067" lon="-0.99427">
        <ele>61.4</ele>
        <time>2025-08-25T11:10:39Z</time>
      </trkpt>
      <trkpt lat="47.00066" lon="-0.99427">
        <ele>61.4</ele>
        <time>2025-08-25T11:10:40Z</time>
      </trkpt>
      <trkpt lat="47.00066" lon="-0.99428">
        <ele>61.3</ele>
        <time>2025-08-25T11:10:41Z</time>
      </trkpt>
      <trkpt lat="47.00065" lon="-0.99429">
        <ele>61.3</ele>
        <time>2025-08-25T11:10:42Z</time>
      </trkpt>
      <trkpt lat="47.00064" lon="-0.9943">
        <ele>61.3</ele>
        <time>2025-08-25T11:10:43Z</time>
      </trkpt>
      <trkpt lat="47.00064" lon="-0.9943">
        <ele>61.3</ele>
        <time>2025-08-25T11:10:44Z</time>
      </trkpt>
      <trkpt lat="47.00063" lon="-0.99431">
        <ele>61.2</ele>
        <time>2025-08-25T11:10:45Z</time>
      </trkpt>
      <trkpt lat="47.00062" lon="-0.99431">
        <ele>61.2</ele>
        <time>2025-08-25T11:10:46Z</time>
      </trkpt>
      <trkpt lat="47.00061" lon="-0.99433">
        <ele>61.2</ele>
        <time>2025-08-25T11:10:47Z</time>
      </trkpt>
      <trkpt lat="47.00061" lon="-0.99434">
        <ele>61.1</ele>
        <time>2025-08-25T11:10:48Z</time>
      </trkpt>
      <trkpt lat="47.0006" lon="-0.99435">
        <ele>61.1</ele>
        <time>2025-08-25T11:10:49Z</time>
      </trkpt>
      <trkpt lat="47.0006" lon="-0.99436">
        <ele>61.1</ele>
        <time>2025-08-25T11:10:50Z</time>
      </trkpt>
      <trkpt lat="47.0006" lon="-0.9944">
        <ele>61</ele>
        <time>2025-08-25T11:10:51Z</time>
      </trkpt>
      <trkpt lat="47.0006" lon="-0.99441">
        <ele>60.9</ele>
        <time>2025-08-25T11:10:52Z</time>
      </trkpt>
      <trkpt lat="47.0006" lon="-0.99442">
        <ele>60.9</ele>
        <time>2025-08-25T11:10:53Z</time>
      </trkpt>
      <trkpt lat="47.0006" lon="-0.99444">
        <ele>60.9</ele>
        <time>2025-08-25T11:10:54Z</time>
      </trkpt>
      <trkpt lat="47.0006" lon="-0.99446">
        <ele>60.8</ele>
        <time>2025-08-25T11:10:55Z</time>
      </trkpt>
      <trkpt lat="47.00059" lon="-0.99449">
        <ele>60.7</ele>
        <time>2025-08-25T11:10:56Z</time>
      </trkpt>
      <trkpt lat="47.00059" lon="-0.9945">
        <ele>60.7</ele>
        <time>2025-08-25T11:10:57Z</time>
      </trkpt>
      <trkpt lat="47.00059" lon="-0.99453">
        <ele>60.7</ele>
        <time>2025-08-25T11:10:58Z</time>
      </trkpt>
      <trkpt lat="47.00059" lon="-0.99455">
        <ele>60.6</ele>
        <time>2025-08-25T11:10:59Z</time>
      </trkpt>
      <trkpt lat="47.00059" lon="-0.99456">
        <ele>60.6</ele>
        <time>2025-08-25T11:11:00Z</time>
      </trkpt>
      <trkpt lat="47.00058" lon="-0.99458">
        <ele>60.6</ele>
        <time>2025-08-25T11:11:01Z</time>
      </trkpt>
      <trkpt lat="47.00058" lon="-0.99459">
        <ele>60.6</ele>
        <time>2025-08-25T11:11:02Z</time>
      </trkpt>
      <trkpt lat="47.00057" lon="-0.9946">
        <ele>60.5</ele>
        <time>2025-08-25T11:11:03Z</time>
      </trkpt>
      <trkpt lat="47.00057" lon="-0.99462">
        <ele>60.5</ele>
        <time>2025-08-25T11:11:04Z</time>
      </trkpt>
      <trkpt lat="47.00057" lon="-0.99463">
        <ele>60.5</ele>
        <time>2025-08-25T11:11:05Z</time>
      </trkpt>
      <trkpt lat="47.00057" lon="-0.99465">
        <ele>60.5</ele>
        <time>2025-08-25T11:11:06Z</time>
      </trkpt>
      <trkpt lat="47.00057" lon="-0.99466">
        <ele>60.5</ele>
        <time>2025-08-25T11:11:07Z</time>
      </trkpt>
      <trkpt lat="47.00057" lon="-0.99468">
        <ele>60.5</ele>
        <time>2025-08-25T11:11:08Z</time>
      </trkpt>
      <trkpt lat="47.00057" lon="-0.99469">
        <ele>60.5</ele>
        <time>2025-08-25T11:11:09Z</time>
      </trkpt>
      <trkpt lat="47.00058" lon="-0.9947">
        <ele>60.5</ele>
        <time>2025-08-25T11:11:10Z</time>
      </trkpt>
      <trkpt lat="47.00059" lon="-0.99471">
        <ele>60.5</ele>
        <time>2025-08-25T11:11:11Z</time>
      </trkpt>
      <trkpt lat="47.00059" lon="-0.99473">
        <ele>60.5</ele>
        <time>2025-08-25T11:11:12Z</time>
      </trkpt>
      <trkpt lat="47.00059" lon="-0.99475">
        <ele>60.5</ele>
        <time>2025-08-25T11:11:13Z</time>
      </trkpt>
      <trkpt lat="47.0006" lon="-0.99477">
        <ele>60.5</ele>
        <time>2025-08-25T11:11:14Z</time>
      </trkpt>
      <trkpt lat="47.0006" lon="-0.99478">
        <ele>60.5</ele>
        <time>2025-08-25T11:11:15Z</time>
      </trkpt>
      <trkpt lat="47.0006" lon="-0.9948">
        <ele>60.5</ele>
        <time>2025-08-25T11:11:16Z</time>
      </trkpt>
      <trkpt lat="47.00061" lon="-0.99481">
        <ele>60.5</ele>
        <time>2025-08-25T11:11:17Z</time>
      </trkpt>
      <trkpt lat="47.00061" lon="-0.99483">
        <ele>60.5</ele>
        <time>2025-08-25T11:11:18Z</time>
      </trkpt>
      <trkpt lat="47.00062" lon="-0.99484">
        <ele>60.6</ele>
        <time>2025-08-25T11:11:19Z</time>
      </trkpt>
      <trkpt lat="47.00063" lon="-0.99486">
        <ele>60.6</ele>
        <time>2025-08-25T11:11:20Z</time>
      </trkpt>
      <trkpt lat="47.00063" lon="-0.99487">
        <ele>60.6</ele>
        <time>2025-08-25T11:11:21Z</time>
      </trkpt>
      <trkpt lat="47.00064" lon="-0.99488">
        <ele>60.6</ele>
        <time>2025-08-25T11:11:22Z</time>
      </trkpt>
      <trkpt lat="47.00064" lon="-0.9949">
        <ele>60.6</ele>
        <time>2025-08-25T11:11:23Z</time>
      </trkpt>
      <trkpt lat="47.00064" lon="-0.99491">
        <ele>60.7</ele>
        <time>2025-08-25T11:11:24Z</time>
      </trkpt>
      <trkpt lat="47.00064" lon="-0.99493">
        <ele>60.7</ele>
        <time>2025-08-25T11:11:25Z</time>
      </trkpt>
      <trkpt lat="47.00064" lon="-0.99494">
        <ele>60.7</ele>
        <time>2025-08-25T11:11:26Z</time>
      </trkpt>
      <trkpt lat="47.00065" lon="-0.99495">
        <ele>60.8</ele>
        <time>2025-08-25T11:11:27Z</time>
      </trkpt>
      <trkpt lat="47.00065" lon="-0.99497">
        <ele>60.8</ele>
        <time>2025-08-25T11:11:28Z</time>
      </trkpt>
      <trkpt lat="47.00065" lon="-0.99498">
        <ele>60.8</ele>
        <time>2025-08-25T11:11:29Z</time>
      </trkpt>
      <trkpt lat="47.00065" lon="-0.995">
        <ele>60.9</ele>
        <time>2025-08-25T11:11:30Z</time>
      </trkpt>
      <trkpt lat="47.00065" lon="-0.99501">
        <ele>60.9</ele>
        <time>2025-08-25T11:11:31Z</time>
      </trkpt>
      <trkpt lat="47.00065" lon="-0.99503">
        <ele>60.9</ele>
        <time>2025-08-25T11:11:32Z</time>
      </trkpt>
      <trkpt lat="47.00065" lon="-0.99505">
        <ele>61</ele>
        <time>2025-08-25T11:11:33Z</time>
      </trkpt>
      <trkpt lat="47.00065" lon="-0.99506">
        <ele>61</ele>
        <time>2025-08-25T11:11:34Z</time>
      </trkpt>
      <trkpt lat="47.00065" lon="-0.99508">
        <ele>61.1</ele>
        <time>2025-08-25T11:11:35Z</time>
      </trkpt>
      <trkpt lat="47.00065" lon="-0.9951">
        <ele>61.1</ele>
        <time>2025-08-25T11:11:36Z</time>
      </trkpt>
      <trkpt lat="47.00065" lon="-0.99511">
        <ele>61.2</ele>
        <time>2025-08-25T11:11:37Z</time>
      </trkpt>
      <trkpt lat="47.00065" lon="-0.99513">
        <ele>61.2</ele>
        <time>2025-08-25T11:11:38Z</time>
      </trkpt>
      <trkpt lat="47.00065" lon="-0.99514">
        <ele>61.3</ele>
        <time>2025-08-25T11:11:39Z</time>
      </trkpt>
      <trkpt lat="47.00065" lon="-0.99516">
        <ele>61.3</ele>
        <time>2025-08-25T11:11:40Z</time>
      </trkpt>
      <trkpt lat="47.00065" lon="-0.99518">
        <ele>61.4</ele>
        <time>2025-08-25T11:11:41Z</time>
      </trkpt>
      <trkpt lat="47.00065" lon="-0.99519">
        <ele>61.4</ele>
        <time>2025-08-25T11:11:42Z</time>
      </trkpt>
      <trkpt lat="47.00065" lon="-0.99521">
        <ele>61.4</ele>
        <time>2025-08-25T11:11:43Z</time>
      </trkpt>
      <trkpt lat="47.00065" lon="-0.99523">
        <ele>61.5</ele>
        <time>2025-08-25T11:11:44Z</time>
      </trkpt>
      <trkpt lat="47.00065" lon="-0.99524">
        <ele>61.5</ele>
        <time>2025-08-25T11:11:45Z</time>
      </trkpt>
      <trkpt lat="47.00065" lon="-0.99526">
        <ele>61.6</ele>
        <time>2025-08-25T11:11:46Z</time>
      </trkpt>
      <trkpt lat="47.00066" lon="-0.99527">
        <ele>61.6</ele>
        <time>2025-08-25T11:11:47Z</time>
      </trkpt>
      <trkpt lat="47.00066" lon="-0.99528">
        <ele>61.7</ele>
        <time>2025-08-25T11:11:48Z</time>
      </trkpt>
      <trkpt lat="47.00067" lon="-0.9953">
        <ele>61.8</ele>
        <time>2025-08-25T11:11:49Z</time>
      </trkpt>
      <trkpt lat="47.00067" lon="-0.99532">
        <ele>61.8</ele>
        <time>2025-08-25T11:11:50Z</time>
      </trkpt>
      <trkpt lat="47.00068" lon="-0.99533">
        <ele>61.8</ele>
        <time>2025-08-25T11:11:51Z</time>
      </trkpt>
      <trkpt lat="47.00069" lon="-0.99537">
        <ele>62</ele>
        <time>2025-08-25T11:11:52Z</time>
      </trkpt>
      <trkpt lat="47.0007" lon="-0.99538">
        <ele>62</ele>
        <time>2025-08-25T11:11:53Z</time>
      </trkpt>
      <trkpt lat="47.00071" lon="-0.99543">
        <ele>62.2</ele>
        <time>2025-08-25T11:11:54Z</time>
      </trkpt>
      <trkpt lat="47.00071" lon="-0.99544">
        <ele>62.2</ele>
        <time>2025-08-25T11:11:55Z</time>
      </trkpt>
      <trkpt lat="47.00073" lon="-0.99548">
        <ele>62.4</ele>
        <time>2025-08-25T11:11:56Z</time>
      </trkpt>
      <trkpt lat="47.00073" lon="-0.99549">
        <ele>62.4</ele>
        <time>2025-08-25T11:11:57Z</time>
      </trkpt>
      <trkpt lat="47.00076" lon="-0.99552">
        <ele>62.6</ele>
        <time>2025-08-25T11:11:58Z</time>
      </trkpt>
      <trkpt lat="47.00076" lon="-0.99554">
        <ele>62.6</ele>
        <time>2025-08-25T11:11:59Z</time>
      </trkpt>
      <trkpt lat="47.00078" lon="-0.99557">
        <ele>62.8</ele>
        <time>2025-08-25T11:12:00Z</time>
      </trkpt>
      <trkpt lat="47.00078" lon="-0.99558">
        <ele>62.8</ele>
        <time>2025-08-25T11:12:01Z</time>
      </trkpt>
      <trkpt lat="47.0008" lon="-0.99562">
        <ele>63</ele>
        <time>2025-08-25T11:12:02Z</time>
      </trkpt>
      <trkpt lat="47.00081" lon="-0.99562">
        <ele>63</ele>
        <time>2025-08-25T11:12:03Z</time>
      </trkpt>
      <trkpt lat="47.00081" lon="-0.99564">
        <ele>63.1</ele>
        <time>2025-08-25T11:12:04Z</time>
      </trkpt>
      <trkpt lat="47.00082" lon="-0.99566">
        <ele>63.2</ele>
        <time>2025-08-25T11:12:05Z</time>
      </trkpt>
      <trkpt lat="47.00083" lon="-0.99567">
        <ele>63.3</ele>
        <time>2025-08-25T11:12:06Z</time>
      </trkpt>
      <trkpt lat="47.00083" lon="-0.99568">
        <ele>63.3</ele>
        <time>2025-08-25T11:12:07Z</time>
      </trkpt>
      <trkpt lat="47.00084" lon="-0.9957">
        <ele>63.4</ele>
        <time>2025-08-25T11:12:08Z</time>
      </trkpt>
      <trkpt lat="47.00084" lon="-0.99571">
        <ele>63.5</ele>
        <time>2025-08-25T11:12:09Z</time>
      </trkpt>
      <trkpt lat="47.00085" lon="-0.99572">
        <ele>63.6</ele>
        <time>2025-08-25T11:12:10Z</time>
      </trkpt>
      <trkpt lat="47.00086" lon="-0.99573">
        <ele>63.6</ele>
        <time>2025-08-25T11:12:11Z</time>
      </trkpt>
      <trkpt lat="47.00087" lon="-0.99576">
        <ele>63.8</ele>
        <time>2025-08-25T11:12:12Z</time>
      </trkpt>
      <trkpt lat="47.00088" lon="-0.99577">
        <ele>63.8</ele>
        <time>2025-08-25T11:12:13Z</time>
      </trkpt>
      <trkpt lat="47.00088" lon="-0.99578">
        <ele>63.9</ele>
        <time>2025-08-25T11:12:14Z</time>
      </trkpt>
      <trkpt lat="47.00089" lon="-0.9958">
        <ele>64</ele>
        <time>2025-08-25T11:12:15Z</time>
      </trkpt>
      <trkpt lat="47.0009" lon="-0.99582">
        <ele>64.1</ele>
        <time>2025-08-25T11:12:16Z</time>
      </trkpt>
      <trkpt lat="47.0009" lon="-0.99584">
        <ele>64.2</ele>
        <time>2025-08-25T11:12:17Z</time>
      </trkpt>
      <trkpt lat="47.0009" lon="-0.99585">
        <ele>64.2</ele>
        <time>2025-08-25T11:12:18Z</time>
      </trkpt>
      <trkpt lat="47.0009" lon="-0.99587">
        <ele>64.3</ele>
        <time>2025-08-25T11:12:19Z</time>
      </trkpt>
      <trkpt lat="47.0009" lon="-0.99588">
        <ele>64.3</ele>
        <time>2025-08-25T11:12:20Z</time>
      </trkpt>
      <trkpt lat="47.0009" lon="-0.99589">
        <ele>64.4</ele>
        <time>2025-08-25T11:12:21Z</time>
      </trkpt>
      <trkpt lat="47.0009" lon="-0.99591">
        <ele>64.5</ele>
        <time>2025-08-25T11:12:22Z</time>
      </trkpt>
      <trkpt lat="47.0009" lon="-0.99592">
        <ele>64.5</ele>
        <time>2025-08-25T11:12:23Z</time>
      </trkpt>
      <trkpt lat="47.0009" lon="-0.99593">
        <ele>64.5</ele>
        <time>2025-08-25T11:12:24Z</time>
      </trkpt>
      <trkpt lat="47.0009" lon="-0.99594">
        <ele>64.5</ele>
        <time>2025-08-25T11:12:25Z</time>
      </trkpt>
      <trkpt lat="47.00091" lon="-0.99596">
        <ele>64.5</ele>
        <time>2025-08-25T11:12:26Z</time>
      </trkpt>
      <trkpt lat="47.00091" lon="-0.99598">
        <ele>64.5</ele>
        <time>2025-08-25T11:12:27Z</time>
      </trkpt>
      <trkpt lat="47.00092" lon="-0.996">
        <ele>64.4</ele>
        <time>2025-08-25T11:12:28Z</time>
      </trkpt>
      <trkpt lat="47.00092" lon="-0.99601">
        <ele>64.4</ele>
        <time>2025-08-25T11:12:29Z</time>
      </trkpt>
      <trkpt lat="47.00092" lon="-0.99603">
        <ele>64.4</ele>
        <time>2025-08-25T11:12:30Z</time>
      </trkpt>
      <trkpt lat="47.00092" lon="-0.99606">
        <ele>64.4</ele>
        <time>2025-08-25T11:12:31Z</time>
      </trkpt>
      <trkpt lat="47.00092" lon="-0.99607">
        <ele>64.4</ele>
        <time>2025-08-25T11:12:32Z</time>
      </trkpt>
      <trkpt lat="47.00091" lon="-0.99609">
        <ele>64.3</ele>
        <time>2025-08-25T11:12:33Z</time>
      </trkpt>
      <trkpt lat="47.00091" lon="-0.99611">
        <ele>64.3</ele>
        <time>2025-08-25T11:12:34Z</time>
      </trkpt>
      <trkpt lat="47.0009" lon="-0.99613">
        <ele>64.3</ele>
        <time>2025-08-25T11:12:35Z</time>
      </trkpt>
      <trkpt lat="47.0009" lon="-0.99616">
        <ele>64.2</ele>
        <time>2025-08-25T11:12:36Z</time>
      </trkpt>
      <trkpt lat="47.00089" lon="-0.99617">
        <ele>64.2</ele>
        <time>2025-08-25T11:12:37Z</time>
      </trkpt>
      <trkpt lat="47.00089" lon="-0.99619">
        <ele>64.2</ele>
        <time>2025-08-25T11:12:38Z</time>
      </trkpt>
      <trkpt lat="47.00089" lon="-0.99622">
        <ele>64.1</ele>
        <time>2025-08-25T11:12:39Z</time>
      </trkpt>
      <trkpt lat="47.00089" lon="-0.99623">
        <ele>64.1</ele>
        <time>2025-08-25T11:12:40Z</time>
      </trkpt>
      <trkpt lat="47.00088" lon="-0.99624">
        <ele>64.1</ele>
        <time>2025-08-25T11:12:41Z</time>
      </trkpt>
      <trkpt lat="47.00088" lon="-0.99626">
        <ele>64.1</ele>
        <time>2025-08-25T11:12:42Z</time>
      </trkpt>
      <trkpt lat="47.00088" lon="-0.99627">
        <ele>64</ele>
        <time>2025-08-25T11:12:43Z</time>
      </trkpt>
      <trkpt lat="47.00088" lon="-0.99628">
        <ele>64</ele>
        <time>2025-08-25T11:12:44Z</time>
      </trkpt>
      <trkpt lat="47.00087" lon="-0.99629">
        <ele>64</ele>
        <time>2025-08-25T11:12:45Z</time>
      </trkpt>
      <trkpt lat="47.00087" lon="-0.9963">
        <ele>64</ele>
        <time>2025-08-25T11:12:46Z</time>
      </trkpt>
      <trkpt lat="47.00087" lon="-0.99631">
        <ele>63.9</ele>
        <time>2025-08-25T11:12:47Z</time>
      </trkpt>
      <trkpt lat="47.00086" lon="-0.99633">
        <ele>63.9</ele>
        <time>2025-08-25T11:12:48Z</time>
      </trkpt>
      <trkpt lat="47.00086" lon="-0.99634">
        <ele>63.9</ele>
        <time>2025-08-25T11:12:49Z</time>
      </trkpt>
      <trkpt lat="47.00086" lon="-0.99636">
        <ele>63.9</ele>
        <time>2025-08-25T11:12:50Z</time>
      </trkpt>
      <trkpt lat="47.00086" lon="-0.99637">
        <ele>63.8</ele>
        <time>2025-08-25T11:12:51Z</time>
      </trkpt>
      <trkpt lat="47.00086" lon="-0.99638">
        <ele>63.8</ele>
        <time>2025-08-25T11:12:52Z</time>
      </trkpt>
      <trkpt lat="47.00086" lon="-0.9964">
        <ele>63.8</ele>
        <time>2025-08-25T11:12:53Z</time>
      </trkpt>
      <trkpt lat="47.00086" lon="-0.99641">
        <ele>63.8</ele>
        <time>2025-08-25T11:12:54Z</time>
      </trkpt>
      <trkpt lat="47.00086" lon="-0.99642">
        <ele>63.8</ele>
        <time>2025-08-25T11:12:55Z</time>
      </trkpt>
      <trkpt lat="47.00086" lon="-0.99642">
        <ele>63.8</ele>
        <time>2025-08-25T11:12:56Z</time>
      </trkpt>
      <trkpt lat="47.00085" lon="-0.99642">
        <ele>63.7</ele>
        <time>2025-08-25T11:12:57Z</time>
      </trkpt>
      <trkpt lat="47.00085" lon="-0.99642">
        <ele>63.7</ele>
        <time>2025-08-25T11:12:58Z</time>
      </trkpt>
      <trkpt lat="47.00085" lon="-0.99642">
        <ele>63.7</ele>
        <time>2025-08-25T11:12:59Z</time>
      </trkpt>
      <trkpt lat="47.00085" lon="-0.99641">
        <ele>63.7</ele>
        <time>2025-08-25T11:13:00Z</time>
      </trkpt>
      <trkpt lat="47.00085" lon="-0.99641">
        <ele>63.7</ele>
        <time>2025-08-25T11:13:01Z</time>
      </trkpt>
      <trkpt lat="47.00085" lon="-0.99641">
        <ele>63.7</ele>
        <time>2025-08-25T11:13:02Z</time>
      </trkpt>
      <trkpt lat="47.00085" lon="-0.99642">
        <ele>63.7</ele>
        <time>2025-08-25T11:13:03Z</time>
      </trkpt>
      <trkpt lat="47.00085" lon="-0.99642">
        <ele>63.7</ele>
        <time>2025-08-25T11:13:04Z</time>
      </trkpt>
      <trkpt lat="47.00084" lon="-0.99643">
        <ele>63.7</ele>
        <time>2025-08-25T11:13:05Z</time>
      </trkpt>
      <trkpt lat="47.00084" lon="-0.99644">
        <ele>63.7</ele>
        <time>2025-08-25T11:13:06Z</time>
      </trkpt>
      <trkpt lat="47.00084" lon="-0.99645">
        <ele>63.7</ele>
        <time>2025-08-25T11:13:07Z</time>
      </trkpt>
      <trkpt lat="47.00084" lon="-0.99647">
        <ele>63.6</ele>
        <time>2025-08-25T11:13:08Z</time>
      </trkpt>
      <trkpt lat="47.00083" lon="-0.99648">
        <ele>63.6</ele>
        <time>2025-08-25T11:13:09Z</time>
      </trkpt>
      <trkpt lat="47.00083" lon="-0.9965">
        <ele>63.6</ele>
        <time>2025-08-25T11:13:10Z</time>
      </trkpt>
      <trkpt lat="47.00082" lon="-0.99653">
        <ele>63.5</ele>
        <time>2025-08-25T11:13:11Z</time>
      </trkpt>
      <trkpt lat="47.00081" lon="-0.99654">
        <ele>63.5</ele>
        <time>2025-08-25T11:13:12Z</time>
      </trkpt>
      <trkpt lat="47.00081" lon="-0.99655">
        <ele>63.5</ele>
        <time>2025-08-25T11:13:13Z</time>
      </trkpt>
      <trkpt lat="47.00081" lon="-0.99656">
        <ele>63.5</ele>
        <time>2025-08-25T11:13:14Z</time>
      </trkpt>
      <trkpt lat="47.0008" lon="-0.99658">
        <ele>63.5</ele>
        <time>2025-08-25T11:13:15Z</time>
      </trkpt>
      <trkpt lat="47.0008" lon="-0.99659">
        <ele>63.5</ele>
        <time>2025-08-25T11:13:16Z</time>
      </trkpt>
      <trkpt lat="47.00079" lon="-0.99661">
        <ele>63.4</ele>
        <time>2025-08-25T11:13:17Z</time>
      </trkpt>
      <trkpt lat="47.00079" lon="-0.99662">
        <ele>63.4</ele>
        <time>2025-08-25T11:13:18Z</time>
      </trkpt>
      <trkpt lat="47.00078" lon="-0.99664">
        <ele>63.4</ele>
        <time>2025-08-25T11:13:19Z</time>
      </trkpt>
      <trkpt lat="47.00078" lon="-0.99665">
        <ele>63.4</ele>
        <time>2025-08-25T11:13:20Z</time>
      </trkpt>
      <trkpt lat="47.00078" lon="-0.99667">
        <ele>63.4</ele>
        <time>2025-08-25T11:13:21Z</time>
      </trkpt>
      <trkpt lat="47.00077" lon="-0.99668">
        <ele>63.4</ele>
        <time>2025-08-25T11:13:22Z</time>
      </trkpt>
      <trkpt lat="47.00078" lon="-0.9967">
        <ele>63.4</ele>
        <time>2025-08-25T11:13:23Z</time>
      </trkpt>
      <trkpt lat="47.00078" lon="-0.99671">
        <ele>63.4</ele>
        <time>2025-08-25T11:13:24Z</time>
      </trkpt>
      <trkpt lat="47.00078" lon="-0.99672">
        <ele>63.4</ele>
        <time>2025-08-25T11:13:25Z</time>
      </trkpt>
      <trkpt lat="47.00079" lon="-0.99673">
        <ele>63.4</ele>
        <time>2025-08-25T11:13:26Z</time>
      </trkpt>
      <trkpt lat="47.00079" lon="-0.99674">
        <ele>63.3</ele>
        <time>2025-08-25T11:13:27Z</time>
      </trkpt>
      <trkpt lat="47.00079" lon="-0.99675">
        <ele>63.3</ele>
        <time>2025-08-25T11:13:28Z</time>
      </trkpt>
      <trkpt lat="47.00079" lon="-0.99676">
        <ele>63.3</ele>
        <time>2025-08-25T11:13:29Z</time>
      </trkpt>
      <trkpt lat="47.0008" lon="-0.99679">
        <ele>63.3</ele>
        <time>2025-08-25T11:13:30Z</time>
      </trkpt>
      <trkpt lat="47.0008" lon="-0.9968">
        <ele>63.3</ele>
        <time>2025-08-25T11:13:31Z</time>
      </trkpt>
      <trkpt lat="47.00081" lon="-0.99681">
        <ele>63.3</ele>
        <time>2025-08-25T11:13:32Z</time>
      </trkpt>
      <trkpt lat="47.00081" lon="-0.99683">
        <ele>63.3</ele>
        <time>2025-08-25T11:13:33Z</time>
      </trkpt>
      <trkpt lat="47.00082" lon="-0.99685">
        <ele>63.3</ele>
        <time>2025-08-25T11:13:34Z</time>
      </trkpt>
      <trkpt lat="47.00082" lon="-0.99688">
        <ele>63.3</ele>
        <time>2025-08-25T11:13:35Z</time>
      </trkpt>
      <trkpt lat="47.00083" lon="-0.99689">
        <ele>63.3</ele>
        <time>2025-08-25T11:13:36Z</time>
      </trkpt>
      <trkpt lat="47.00083" lon="-0.9969">
        <ele>63.3</ele>
        <time>2025-08-25T11:13:37Z</time>
      </trkpt>
      <trkpt lat="47.00084" lon="-0.99693">
        <ele>63.2</ele>
        <time>2025-08-25T11:13:38Z</time>
      </trkpt>
      <trkpt lat="47.00085" lon="-0.99693">
        <ele>63.2</ele>
        <time>2025-08-25T11:13:39Z</time>
      </trkpt>
      <trkpt lat="47.00086" lon="-0.99695">
        <ele>63.2</ele>
        <time>2025-08-25T11:13:40Z</time>
      </trkpt>
      <trkpt lat="47.00087" lon="-0.99696">
        <ele>63.2</ele>
        <time>2025-08-25T11:13:41Z</time>
      </trkpt>
      <trkpt lat="47.00088" lon="-0.99697">
        <ele>63.2</ele>
        <time>2025-08-25T11:13:42Z</time>
      </trkpt>
      <trkpt lat="47.00089" lon="-0.997">
        <ele>63.2</ele>
        <time>2025-08-25T11:13:43Z</time>
      </trkpt>
      <trkpt lat="47.00089" lon="-0.99701">
        <ele>63.2</ele>
        <time>2025-08-25T11:13:44Z</time>
      </trkpt>
      <trkpt lat="47.0009" lon="-0.99704">
        <ele>63.2</ele>
        <time>2025-08-25T11:13:45Z</time>
      </trkpt>
      <trkpt lat="47.0009" lon="-0.99705">
        <ele>63.2</ele>
        <time>2025-08-25T11:13:46Z</time>
      </trkpt>
      <trkpt lat="47.0009" lon="-0.99706">
        <ele>63.2</ele>
        <time>2025-08-25T11:13:47Z</time>
      </trkpt>
      <trkpt lat="47.00091" lon="-0.99709">
        <ele>63.2</ele>
        <time>2025-08-25T11:13:48Z</time>
      </trkpt>
      <trkpt lat="47.00092" lon="-0.9971">
        <ele>63.2</ele>
        <time>2025-08-25T11:13:49Z</time>
      </trkpt>
      <trkpt lat="47.00093" lon="-0.99712">
        <ele>63.2</ele>
        <time>2025-08-25T11:13:50Z</time>
      </trkpt>
      <trkpt lat="47.00093" lon="-0.99714">
        <ele>63.2</ele>
        <time>2025-08-25T11:13:51Z</time>
      </trkpt>
      <trkpt lat="47.00095" lon="-0.99718">
        <ele>63.2</ele>
        <time>2025-08-25T11:13:52Z</time>
      </trkpt>
      <trkpt lat="47.00095" lon="-0.9972">
        <ele>63.2</ele>
        <time>2025-08-25T11:13:53Z</time>
      </trkpt>
      <trkpt lat="47.00095" lon="-0.99722">
        <ele>63.2</ele>
        <time>2025-08-25T11:13:54Z</time>
      </trkpt>
      <trkpt lat="47.00096" lon="-0.99724">
        <ele>63.2</ele>
        <time>2025-08-25T11:13:55Z</time>
      </trkpt>
      <trkpt lat="47.00097" lon="-0.99726">
        <ele>63.2</ele>
        <time>2025-08-25T11:13:56Z</time>
      </trkpt>
      <trkpt lat="47.00098" lon="-0.99729">
        <ele>63.2</ele>
        <time>2025-08-25T11:13:57Z</time>
      </trkpt>
      <trkpt lat="47.00098" lon="-0.99731">
        <ele>63.2</ele>
        <time>2025-08-25T11:13:58Z</time>
      </trkpt>
      <trkpt lat="47.00099" lon="-0.99733">
        <ele>63.2</ele>
        <time>2025-08-25T11:13:59Z</time>
      </trkpt>
      <trkpt lat="47.00099" lon="-0.99736">
        <ele>63.2</ele>
        <time>2025-08-25T11:14:00Z</time>
      </trkpt>
      <trkpt lat="47.001" lon="-0.99738">
        <ele>63.2</ele>
        <time>2025-08-25T11:14:01Z</time>
      </trkpt>
      <trkpt lat="47.001" lon="-0.99739">
        <ele>63.3</ele>
        <time>2025-08-25T11:14:02Z</time>
      </trkpt>
      <trkpt lat="47.00101" lon="-0.99741">
        <ele>63.3</ele>
        <time>2025-08-25T11:14:03Z</time>
      </trkpt>
      <trkpt lat="47.00101" lon="-0.99743">
        <ele>63.3</ele>
        <time>2025-08-25T11:14:04Z</time>
      </trkpt>
      <trkpt lat="47.00102" lon="-0.99746">
        <ele>63.3</ele>
        <time>2025-08-25T11:14:05Z</time>
      </trkpt>
      <trkpt lat="47.00102" lon="-0.99747">
        <ele>63.3</ele>
        <time>2025-08-25T11:14:06Z</time>
      </trkpt>
      <trkpt lat="47.00103" lon="-0.99748">
        <ele>63.3</ele>
        <time>2025-08-25T11:14:07Z</time>
      </trkpt>
      <trkpt lat="47.00103" lon="-0.99751">
        <ele>63.4</ele>
        <time>2025-08-25T11:14:08Z</time>
      </trkpt>
      <trkpt lat="47.00103" lon="-0.99752">
        <ele>63.4</ele>
        <time>2025-08-25T11:14:09Z</time>
      </trkpt>
      <trkpt lat="47.00104" lon="-0.99754">
        <ele>63.4</ele>
        <time>2025-08-25T11:14:10Z</time>
      </trkpt>
      <trkpt lat="47.00104" lon="-0.99755">
        <ele>63.4</ele>
        <time>2025-08-25T11:14:11Z</time>
      </trkpt>
      <trkpt lat="47.00104" lon="-0.99757">
        <ele>63.4</ele>
        <time>2025-08-25T11:14:12Z</time>
      </trkpt>
      <trkpt lat="47.00104" lon="-0.99758">
        <ele>63.4</ele>
        <time>2025-08-25T11:14:13Z</time>
      </trkpt>
      <trkpt lat="47.00105" lon="-0.99759">
        <ele>63.4</ele>
        <time>2025-08-25T11:14:14Z</time>
      </trkpt>
      <trkpt lat="47.00105" lon="-0.9976">
        <ele>63.5</ele>
        <time>2025-08-25T11:14:15Z</time>
      </trkpt>
      <trkpt lat="47.00106" lon="-0.99761">
        <ele>63.5</ele>
        <time>2025-08-25T11:14:16Z</time>
      </trkpt>
      <trkpt lat="47.00106" lon="-0.99763">
        <ele>63.5</ele>
        <time>2025-08-25T11:14:17Z</time>
      </trkpt>
      <trkpt lat="47.00107" lon="-0.99763">
        <ele>63.5</ele>
        <time>2025-08-25T11:14:18Z</time>
      </trkpt>
      <trkpt lat="47.00107" lon="-0.99764">
        <ele>63.6</ele>
        <time>2025-08-25T11:14:19Z</time>
      </trkpt>
      <trkpt lat="47.00108" lon="-0.99765">
        <ele>63.6</ele>
        <time>2025-08-25T11:14:20Z</time>
      </trkpt>
      <trkpt lat="47.00108" lon="-0.99767">
        <ele>63.6</ele>
        <time>2025-08-25T11:14:21Z</time>
      </trkpt>
      <trkpt lat="47.00109" lon="-0.99768">
        <ele>63.7</ele>
        <time>2025-08-25T11:14:22Z</time>
      </trkpt>
      <trkpt lat="47.00109" lon="-0.99769">
        <ele>63.7</ele>
        <time>2025-08-25T11:14:23Z</time>
      </trkpt>
      <trkpt lat="47.00111" lon="-0.99771">
        <ele>63.8</ele>
        <time>2025-08-25T11:14:24Z</time>
      </trkpt>
      <trkpt lat="47.00111" lon="-0.99773">
        <ele>63.8</ele>
        <time>2025-08-25T11:14:25Z</time>
      </trkpt>
      <trkpt lat="47.00112" lon="-0.99774">
        <ele>63.9</ele>
        <time>2025-08-25T11:14:26Z</time>
      </trkpt>
      <trkpt lat="47.00113" lon="-0.99776">
        <ele>64</ele>
        <time>2025-08-25T11:14:27Z</time>
      </trkpt>
      <trkpt lat="47.00113" lon="-0.99777">
        <ele>64</ele>
        <time>2025-08-25T11:14:28Z</time>
      </trkpt>
      <trkpt lat="47.00114" lon="-0.99778">
        <ele>64.1</ele>
        <time>2025-08-25T11:14:29Z</time>
      </trkpt>
      <trkpt lat="47.00115" lon="-0.9978">
        <ele>64.2</ele>
        <time>2025-08-25T11:14:30Z</time>
      </trkpt>
      <trkpt lat="47.00116" lon="-0.99782">
        <ele>64.3</ele>
        <time>2025-08-25T11:14:31Z</time>
      </trkpt>
      <trkpt lat="47.00117" lon="-0.99785">
        <ele>64.4</ele>
        <time>2025-08-25T11:14:32Z</time>
      </trkpt>
      <trkpt lat="47.00117" lon="-0.99786">
        <ele>64.5</ele>
        <time>2025-08-25T11:14:33Z</time>
      </trkpt>
      <trkpt lat="47.00118" lon="-0.99787">
        <ele>64.6</ele>
        <time>2025-08-25T11:14:34Z</time>
      </trkpt>
      <trkpt lat="47.00118" lon="-0.99789">
        <ele>64.6</ele>
        <time>2025-08-25T11:14:35Z</time>
      </trkpt>
      <trkpt lat="47.00119" lon="-0.9979">
        <ele>64.7</ele>
        <time>2025-08-25T11:14:36Z</time>
      </trkpt>
      <trkpt lat="47.0012" lon="-0.99791">
        <ele>64.8</ele>
        <time>2025-08-25T11:14:37Z</time>
      </trkpt>
      <trkpt lat="47.0012" lon="-0.99791">
        <ele>64.8</ele>
        <time>2025-08-25T11:14:38Z</time>
      </trkpt>
      <trkpt lat="47.0012" lon="-0.99794">
        <ele>65</ele>
        <time>2025-08-25T11:14:39Z</time>
      </trkpt>
      <trkpt lat="47.00121" lon="-0.99795">
        <ele>65.1</ele>
        <time>2025-08-25T11:14:40Z</time>
      </trkpt>
      <trkpt lat="47.00121" lon="-0.99797">
        <ele>65.2</ele>
        <time>2025-08-25T11:14:41Z</time>
      </trkpt>
      <trkpt lat="47.00122" lon="-0.99798">
        <ele>65.3</ele>
        <time>2025-08-25T11:14:42Z</time>
      </trkpt>
      <trkpt lat="47.00123" lon="-0.99799">
        <ele>65.4</ele>
        <time>2025-08-25T11:14:43Z</time>
      </trkpt>
      <trkpt lat="47.00124" lon="-0.998">
        <ele>65.5</ele>
        <time>2025-08-25T11:14:44Z</time>
      </trkpt>
      <trkpt lat="47.00125" lon="-0.99802">
        <ele>65.7</ele>
        <time>2025-08-25T11:14:45Z</time>
      </trkpt>
      <trkpt lat="47.00125" lon="-0.99802">
        <ele>65.7</ele>
        <time>2025-08-25T11:14:46Z</time>
      </trkpt>
      <trkpt lat="47.00126" lon="-0.99804">
        <ele>65.8</ele>
        <time>2025-08-25T11:14:47Z</time>
      </trkpt>
      <trkpt lat="47.00126" lon="-0.99805">
        <ele>65.9</ele>
        <time>2025-08-25T11:14:48Z</time>
      </trkpt>
      <trkpt lat="47.00127" lon="-0.99806">
        <ele>66</ele>
        <time>2025-08-25T11:14:49Z</time>
      </trkpt>
      <trkpt lat="47.00129" lon="-0.99809">
        <ele>66.3</ele>
        <time>2025-08-25T11:14:50Z</time>
      </trkpt>
      <trkpt lat="47.00129" lon="-0.9981">
        <ele>66.3</ele>
        <time>2025-08-25T11:14:51Z</time>
      </trkpt>
      <trkpt lat="47.00129" lon="-0.99811">
        <ele>66.4</ele>
        <time>2025-08-25T11:14:52Z</time>
      </trkpt>
      <trkpt lat="47.0013" lon="-0.99813">
        <ele>66.6</ele>
        <time>2025-08-25T11:14:53Z</time>
      </trkpt>
      <trkpt lat="47.00131" lon="-0.99815">
        <ele>66.7</ele>
        <time>2025-08-25T11:14:54Z</time>
      </trkpt>
      <trkpt lat="47.00131" lon="-0.99817">
        <ele>66.8</ele>
        <time>2025-08-25T11:14:55Z</time>
      </trkpt>
      <trkpt lat="47.00132" lon="-0.99819">
        <ele>66.9</ele>
        <time>2025-08-25T11:14:56Z</time>
      </trkpt>
      <trkpt lat="47.00133" lon="-0.99821">
        <ele>67.1</ele>
        <time>2025-08-25T11:14:57Z</time>
      </trkpt>
      <trkpt lat="47.00134" lon="-0.99823">
        <ele>67.1</ele>
        <time>2025-08-25T11:14:58Z</time>
      </trkpt>
      <trkpt lat="47.00134" lon="-0.99824">
        <ele>67.2</ele>
        <time>2025-08-25T11:14:59Z</time>
      </trkpt>
      <trkpt lat="47.00134" lon="-0.99825">
        <ele>67.2</ele>
        <time>2025-08-25T11:15:00Z</time>
      </trkpt>
      <trkpt lat="47.00135" lon="-0.99827">
        <ele>67.3</ele>
        <time>2025-08-25T11:15:01Z</time>
      </trkpt>
      <trkpt lat="47.00135" lon="-0.99828">
        <ele>67.3</ele>
        <time>2025-08-25T11:15:02Z</time>
      </trkpt>
      <trkpt lat="47.00136" lon="-0.9983">
        <ele>67.4</ele>
        <time>2025-08-25T11:15:03Z</time>
      </trkpt>
      <trkpt lat="47.00137" lon="-0.99832">
        <ele>67.4</ele>
        <time>2025-08-25T11:15:04Z</time>
      </trkpt>
      <trkpt lat="47.00137" lon="-0.99833">
        <ele>67.4</ele>
        <time>2025-08-25T11:15:05Z</time>
      </trkpt>
      <trkpt lat="47.00138" lon="-0.99835">
        <ele>67.5</ele>
        <time>2025-08-25T11:15:06Z</time>
      </trkpt>
      <trkpt lat="47.00138" lon="-0.99836">
        <ele>67.5</ele>
        <time>2025-08-25T11:15:07Z</time>
      </trkpt>
      <trkpt lat="47.00139" lon="-0.99838">
        <ele>67.5</ele>
        <time>2025-08-25T11:15:08Z</time>
      </trkpt>
      <trkpt lat="47.00139" lon="-0.99839">
        <ele>67.5</ele>
        <time>2025-08-25T11:15:09Z</time>
      </trkpt>
      <trkpt lat="47.0014" lon="-0.99841">
        <ele>67.5</ele>
        <time>2025-08-25T11:15:10Z</time>
      </trkpt>
      <trkpt lat="47.0014" lon="-0.99842">
        <ele>67.5</ele>
        <time>2025-08-25T11:15:11Z</time>
      </trkpt>
      <trkpt lat="47.0014" lon="-0.99843">
        <ele>67.5</ele>
        <time>2025-08-25T11:15:12Z</time>
      </trkpt>
      <trkpt lat="47.0014" lon="-0.99844">
        <ele>67.5</ele>
        <time>2025-08-25T11:15:13Z</time>
      </trkpt>
      <trkpt lat="47.0014" lon="-0.99845">
        <ele>67.5</ele>
        <time>2025-08-25T11:15:14Z</time>
      </trkpt>
      <trkpt lat="47.00141" lon="-0.99846">
        <ele>67.4</ele>
        <time>2025-08-25T11:15:15Z</time>
      </trkpt>
      <trkpt lat="47.00141" lon="-0.99846">
        <ele>67.4</ele>
        <time>2025-08-25T11:15:16Z</time>
      </trkpt>
      <trkpt lat="47.00141" lon="-0.99847">
        <ele>67.4</ele>
        <time>2025-08-25T11:15:17Z</time>
      </trkpt>
      <trkpt lat="47.00141" lon="-0.99847">
        <ele>67.4</ele>
        <time>2025-08-25T11:15:18Z</time>
      </trkpt>
      <trkpt lat="47.00142" lon="-0.99848">
        <ele>67.4</ele>
        <time>2025-08-25T11:15:19Z</time>
      </trkpt>
      <trkpt lat="47.00142" lon="-0.99849">
        <ele>67.4</ele>
        <time>2025-08-25T11:15:20Z</time>
      </trkpt>
      <trkpt lat="47.00142" lon="-0.9985">
        <ele>67.4</ele>
        <time>2025-08-25T11:15:21Z</time>
      </trkpt>
      <trkpt lat="47.00142" lon="-0.9985">
        <ele>67.4</ele>
        <time>2025-08-25T11:15:22Z</time>
      </trkpt>
      <trkpt lat="47.00141" lon="-0.99851">
        <ele>67.3</ele>
        <time>2025-08-25T11:15:23Z</time>
      </trkpt>
      <trkpt lat="47.00141" lon="-0.99852">
        <ele>67.3</ele>
        <time>2025-08-25T11:15:24Z</time>
      </trkpt>
      <trkpt lat="47.0014" lon="-0.99853">
        <ele>67.3</ele>
        <time>2025-08-25T11:15:25Z</time>
      </trkpt>
      <trkpt lat="47.00141" lon="-0.99854">
        <ele>67.3</ele>
        <time>2025-08-25T11:15:26Z</time>
      </trkpt>
      <trkpt lat="47.0014" lon="-0.99855">
        <ele>67.2</ele>
        <time>2025-08-25T11:15:27Z</time>
      </trkpt>
      <trkpt lat="47.0014" lon="-0.99856">
        <ele>67.2</ele>
        <time>2025-08-25T11:15:28Z</time>
      </trkpt>
      <trkpt lat="47.00139" lon="-0.99857">
        <ele>67.2</ele>
        <time>2025-08-25T11:15:29Z</time>
      </trkpt>
      <trkpt lat="47.00139" lon="-0.99858">
        <ele>67.2</ele>
        <time>2025-08-25T11:15:30Z</time>
      </trkpt>
      <trkpt lat="47.00138" lon="-0.99859">
        <ele>67.1</ele>
        <time>2025-08-25T11:15:31Z</time>
      </trkpt>
      <trkpt lat="47.00138" lon="-0.9986">
        <ele>67.1</ele>
        <time>2025-08-25T11:15:32Z</time>
      </trkpt>
      <trkpt lat="47.00138" lon="-0.99862">
        <ele>67.1</ele>
        <time>2025-08-25T11:15:33Z</time>
      </trkpt>
      <trkpt lat="47.00138" lon="-0.99863">
        <ele>67</ele>
        <time>2025-08-25T11:15:34Z</time>
      </trkpt>
      <trkpt lat="47.00138" lon="-0.99865">
        <ele>67</ele>
        <time>2025-08-25T11:15:35Z</time>
      </trkpt>
      <trkpt lat="47.00138" lon="-0.99867">
        <ele>67</ele>
        <time>2025-08-25T11:15:36Z</time>
      </trkpt>
      <trkpt lat="47.00138" lon="-0.99868">
        <ele>66.9</ele>
        <time>2025-08-25T11:15:37Z</time>
      </trkpt>
      <trkpt lat="47.00139" lon="-0.9987">
        <ele>66.9</ele>
        <time>2025-08-25T11:15:38Z</time>
      </trkpt>
      <trkpt lat="47.00139" lon="-0.99872">
        <ele>66.8</ele>
        <time>2025-08-25T11:15:39Z</time>
      </trkpt>
      <trkpt lat="47.00139" lon="-0.99873">
        <ele>66.8</ele>
        <time>2025-08-25T11:15:40Z</time>
      </trkpt>
      <trkpt lat="47.0014" lon="-0.99874">
        <ele>66.8</ele>
        <time>2025-08-25T11:15:41Z</time>
      </trkpt>
      <trkpt lat="47.0014" lon="-0.99875">
        <ele>66.7</ele>
        <time>2025-08-25T11:15:42Z</time>
      </trkpt>
      <trkpt lat="47.0014" lon="-0.99876">
        <ele>66.7</ele>
        <time>2025-08-25T11:15:43Z</time>
      </trkpt>
      <trkpt lat="47.0014" lon="-0.99878">
        <ele>66.7</ele>
        <time>2025-08-25T11:15:44Z</time>
      </trkpt>
      <trkpt lat="47.0014" lon="-0.9988">
        <ele>66.6</ele>
        <time>2025-08-25T11:15:45Z</time>
      </trkpt>
      <trkpt lat="47.00139" lon="-0.99883">
        <ele>66.6</ele>
        <time>2025-08-25T11:15:46Z</time>
      </trkpt>
      <trkpt lat="47.00138" lon="-0.99884">
        <ele>66.5</ele>
        <time>2025-08-25T11:15:47Z</time>
      </trkpt>
      <trkpt lat="47.00138" lon="-0.99885">
        <ele>66.5</ele>
        <time>2025-08-25T11:15:48Z</time>
      </trkpt>
      <trkpt lat="47.00137" lon="-0.99887">
        <ele>66.5</ele>
        <time>2025-08-25T11:15:49Z</time>
      </trkpt>
      <trkpt lat="47.00136" lon="-0.9989">
        <ele>66.4</ele>
        <time>2025-08-25T11:15:50Z</time>
      </trkpt>
      <trkpt lat="47.00135" lon="-0.99891">
        <ele>66.4</ele>
        <time>2025-08-25T11:15:51Z</time>
      </trkpt>
      <trkpt lat="47.00135" lon="-0.99893">
        <ele>66.3</ele>
        <time>2025-08-25T11:15:52Z</time>
      </trkpt>
      <trkpt lat="47.00134" lon="-0.99896">
        <ele>66.3</ele>
        <time>2025-08-25T11:15:53Z</time>
      </trkpt>
      <trkpt lat="47.00133" lon="-0.99897">
        <ele>66.2</ele>
        <time>2025-08-25T11:15:54Z</time>
      </trkpt>
      <trkpt lat="47.00133" lon="-0.99898">
        <ele>66.2</ele>
        <time>2025-08-25T11:15:55Z</time>
      </trkpt>
      <trkpt lat="47.00132" lon="-0.99899">
        <ele>66.2</ele>
        <time>2025-08-25T11:15:56Z</time>
      </trkpt>
      <trkpt lat="47.00131" lon="-0.99901">
        <ele>66.2</ele>
        <time>2025-08-25T11:15:57Z</time>
      </trkpt>
      <trkpt lat="47.00131" lon="-0.99903">
        <ele>66.1</ele>
        <time>2025-08-25T11:15:58Z</time>
      </trkpt>
      <trkpt lat="47.00129" lon="-0.99905">
        <ele>66.1</ele>
        <time>2025-08-25T11:15:59Z</time>
      </trkpt>
      <trkpt lat="47.00129" lon="-0.99907">
        <ele>66.1</ele>
        <time>2025-08-25T11:16:00Z</time>
      </trkpt>
      <trkpt lat="47.00128" lon="-0.99908">
        <ele>66</ele>
        <time>2025-08-25T11:16:01Z</time>
      </trkpt>
      <trkpt lat="47.00128" lon="-0.99909">
        <ele>66</ele>
        <time>2025-08-25T11:16:02Z</time>
      </trkpt>
      <trkpt lat="47.00128" lon="-0.99911">
        <ele>66</ele>
        <time>2025-08-25T11:16:03Z</time>
      </trkpt>
      <trkpt lat="47.00127" lon="-0.99912">
        <ele>65.9</ele>
        <time>2025-08-25T11:16:04Z</time>
      </trkpt>
      <trkpt lat="47.00127" lon="-0.99914">
        <ele>65.9</ele>
        <time>2025-08-25T11:16:05Z</time>
      </trkpt>
      <trkpt lat="47.00127" lon="-0.99917">
        <ele>65.9</ele>
        <time>2025-08-25T11:16:06Z</time>
      </trkpt>
      <trkpt lat="47.00127" lon="-0.99918">
        <ele>65.9</ele>
        <time>2025-08-25T11:16:07Z</time>
      </trkpt>
      <trkpt lat="47.00127" lon="-0.99919">
        <ele>65.8</ele>
        <time>2025-08-25T11:16:08Z</time>
      </trkpt>
      <trkpt lat="47.00127" lon="-0.99921">
        <ele>65.8</ele>
        <time>2025-08-25T11:16:09Z</time>
      </trkpt>
      <trkpt lat="47.00127" lon="-0.99923">
        <ele>65.8</ele>
        <time>2025-08-25T11:16:10Z</time>
      </trkpt>
      <trkpt lat="47.00127" lon="-0.99926">
        <ele>65.7</ele>
        <time>2025-08-25T11:16:11Z</time>
      </trkpt>
      <trkpt lat="47.00127" lon="-0.99927">
        <ele>65.7</ele>
        <time>2025-08-25T11:16:12Z</time>
      </trkpt>
      <trkpt lat="47.00127" lon="-0.99929">
        <ele>65.7</ele>
        <time>2025-08-25T11:16:13Z</time>
      </trkpt>
      <trkpt lat="47.00127" lon="-0.99931">
        <ele>65.6</ele>
        <time>2025-08-25T11:16:14Z</time>
      </trkpt>
      <trkpt lat="47.00127" lon="-0.99933">
        <ele>65.6</ele>
        <time>2025-08-25T11:16:15Z</time>
      </trkpt>
      <trkpt lat="47.00127" lon="-0.99936">
        <ele>65.6</ele>
        <time>2025-08-25T11:16:16Z</time>
      </trkpt>
      <trkpt lat="47.00127" lon="-0.99937">
        <ele>65.5</ele>
        <time>2025-08-25T11:16:17Z</time>
      </trkpt>
      <trkpt lat="47.00126" lon="-0.99938">
        <ele>65.5</ele>
        <time>2025-08-25T11:16:18Z</time>
      </trkpt>
      <trkpt lat="47.00126" lon="-0.9994">
        <ele>65.5</ele>
        <time>2025-08-25T11:16:19Z</time>
      </trkpt>
      <trkpt lat="47.00125" lon="-0.99944">
        <ele>65.4</ele>
        <time>2025-08-25T11:16:20Z</time>
      </trkpt>
      <trkpt lat="47.00125" lon="-0.99945">
        <ele>65.4</ele>
        <time>2025-08-25T11:16:21Z</time>
      </trkpt>
      <trkpt lat="47.00125" lon="-0.99946">
        <ele>65.4</ele>
        <time>2025-08-25T11:16:22Z</time>
      </trkpt>
      <trkpt lat="47.00125" lon="-0.99949">
        <ele>65.4</ele>
        <time>2025-08-25T11:16:23Z</time>
      </trkpt>
      <trkpt lat="47.00124" lon="-0.9995">
        <ele>65.3</ele>
        <time>2025-08-25T11:16:24Z</time>
      </trkpt>
      <trkpt lat="47.00124" lon="-0.99952">
        <ele>65.3</ele>
        <time>2025-08-25T11:16:25Z</time>
      </trkpt>
      <trkpt lat="47.00124" lon="-0.99954">
        <ele>65.3</ele>
        <time>2025-08-25T11:16:26Z</time>
      </trkpt>
      <trkpt lat="47.00124" lon="-0.99955">
        <ele>65.3</ele>
        <time>2025-08-25T11:16:27Z</time>
      </trkpt>
      <trkpt lat="47.00124" lon="-0.99957">
        <ele>65.2</ele>
        <time>2025-08-25T11:16:28Z</time>
      </trkpt>
      <trkpt lat="47.00123" lon="-0.99959">
        <ele>65.2</ele>
        <time>2025-08-25T11:16:29Z</time>
      </trkpt>
      <trkpt lat="47.00123" lon="-0.99961">
        <ele>65.2</ele>
        <time>2025-08-25T11:16:30Z</time>
      </trkpt>
      <trkpt lat="47.00123" lon="-0.99963">
        <ele>65.2</ele>
        <time>2025-08-25T11:16:31Z</time>
      </trkpt>
      <trkpt lat="47.00122" lon="-0.99965">
        <ele>65.2</ele>
        <time>2025-08-25T11:16:32Z</time>
      </trkpt>
      <trkpt lat="47.00122" lon="-0.99968">
        <ele>65.1</ele>
        <time>2025-08-25T11:16:33Z</time>
      </trkpt>
      <trkpt lat="47.00122" lon="-0.9997">
        <ele>65.1</ele>
        <time>2025-08-25T11:16:34Z</time>
      </trkpt>
      <trkpt lat="47.00121" lon="-0.99972">
        <ele>65.1</ele>
        <time>2025-08-25T11:16:35Z</time>
      </trkpt>
      <trkpt lat="47.00121" lon="-0.99975">
        <ele>65.1</ele>
        <time>2025-08-25T11:16:36Z</time>
      </trkpt>
      <trkpt lat="47.0012" lon="-0.99977">
        <ele>65.1</ele>
        <time>2025-08-25T11:16:37Z</time>
      </trkpt>
      <trkpt lat="47.0012" lon="-0.99979">
        <ele>65</ele>
        <time>2025-08-25T11:16:38Z</time>
      </trkpt>
      <trkpt lat="47.00119" lon="-0.99981">
        <ele>65</ele>
        <time>2025-08-25T11:16:39Z</time>
      </trkpt>
      <trkpt lat="47.00119" lon="-0.99983">
        <ele>65</ele>
        <time>2025-08-25T11:16:40Z</time>
      </trkpt>
      <trkpt lat="47.00119" lon="-0.99986">
        <ele>65</ele>
        <time>2025-08-25T11:16:41Z</time>
      </trkpt>
      <trkpt lat="47.00119" lon="-0.99988">
        <ele>65</ele>
        <time>2025-08-25T11:16:42Z</time>
      </trkpt>
      <trkpt lat="47.00118" lon="-0.99989">
        <ele>65</ele>
        <time>2025-08-25T11:16:43Z</time>
      </trkpt>
      <trkpt lat="47.00118" lon="-0.9999">
        <ele>65</ele>
        <time>2025-08-25T11:16:44Z</time>
      </trkpt>
      <trkpt lat="47.00118" lon="-0.99991">
        <ele>65</ele>
        <time>2025-08-25T11:16:45Z</time>
      </trkpt>
      <trkpt lat="47.00118" lon="-0.99992">
        <ele>64.9</ele>
        <time>2025-08-25T11:16:46Z</time>
      </trkpt>
      <trkpt lat="47.00118" lon="-0.99994">
        <ele>64.9</ele>
        <time>2025-08-25T11:16:47Z</time>
      </trkpt>
      <trkpt lat="47.00118" lon="-0.99995">
        <ele>64.9</ele>
        <time>2025-08-25T11:16:48Z</time>
      </trkpt>
      <trkpt lat="47.00118" lon="-0.99996">
        <ele>64.9</ele>
        <time>2025-08-25T11:16:49Z</time>
      </trkpt>
      <trkpt lat="47.00118" lon="-0.99998">
        <ele>64.9</ele>
        <time>2025-08-25T11:16:50Z</time>
      </trkpt>
      <trkpt lat="47.00117" lon="-1.00001">
        <ele>64.9</ele>
        <time>2025-08-25T11:16:51Z</time>
      </trkpt>
      <trkpt lat="47.00117" lon="-1.00002">
        <ele>64.9</ele>
        <time>2025-08-25T11:16:52Z</time>
      </trkpt>
      <trkpt lat="47.00117" lon="-1.00003">
        <ele>64.9</ele>
        <time>2025-08-25T11:16:53Z</time>
      </trkpt>
      <trkpt lat="47.00116" lon="-1.00005">
        <ele>64.9</ele>
        <time>2025-08-25T11:16:54Z</time>
      </trkpt>
      <trkpt lat="47.00116" lon="-1.00007">
        <ele>64.9</ele>
        <time>2025-08-25T11:16:55Z</time>
      </trkpt>
      <trkpt lat="47.00116" lon="-1.00008">
        <ele>64.8</ele>
        <time>2025-08-25T11:16:56Z</time>
      </trkpt>
      <trkpt lat="47.00116" lon="-1.00009">
        <ele>64.8</ele>
        <time>2025-08-25T11:16:57Z</time>
      </trkpt>
      <trkpt lat="47.00116" lon="-1.00011">
        <ele>64.8</ele>
        <time>2025-08-25T11:16:58Z</time>
      </trkpt>
      <trkpt lat="47.00116" lon="-1.00011">
        <ele>64.8</ele>
        <time>2025-08-25T11:16:59Z</time>
      </trkpt>
      <trkpt lat="47.00116" lon="-1.00012">
        <ele>64.8</ele>
        <time>2025-08-25T11:17:00Z</time>
      </trkpt>
      <trkpt lat="47.00116" lon="-1.00015">
        <ele>64.8</ele>
        <time>2025-08-25T11:17:01Z</time>
      </trkpt>
      <trkpt lat="47.00116" lon="-1.00016">
        <ele>64.8</ele>
        <time>2025-08-25T11:17:02Z</time>
      </trkpt>
      <trkpt lat="47.00116" lon="-1.00017">
        <ele>64.8</ele>
        <time>2025-08-25T11:17:03Z</time>
      </trkpt>
      <trkpt lat="47.00116" lon="-1.0002">
        <ele>64.8</ele>
        <time>2025-08-25T11:17:04Z</time>
      </trkpt>
      <trkpt lat="47.00116" lon="-1.00022">
        <ele>64.8</ele>
        <time>2025-08-25T11:17:05Z</time>
      </trkpt>
      <trkpt lat="47.00116" lon="-1.00023">
        <ele>64.7</ele>
        <time>2025-08-25T11:17:06Z</time>
      </trkpt>
      <trkpt lat="47.00116" lon="-1.00025">
        <ele>64.7</ele>
        <time>2025-08-25T11:17:07Z</time>
      </trkpt>
      <trkpt lat="47.00116" lon="-1.00026">
        <ele>64.7</ele>
        <time>2025-08-25T11:17:08Z</time>
      </trkpt>
      <trkpt lat="47.00116" lon="-1.00028">
        <ele>64.7</ele>
        <time>2025-08-25T11:17:09Z</time>
      </trkpt>
      <trkpt lat="47.00115" lon="-1.0003">
        <ele>64.7</ele>
        <time>2025-08-25T11:17:10Z</time>
      </trkpt>
      <trkpt lat="47.00115" lon="-1.00032">
        <ele>64.6</ele>
        <time>2025-08-25T11:17:11Z</time>
      </trkpt>
      <trkpt lat="47.00115" lon="-1.00034">
        <ele>64.6</ele>
        <time>2025-08-25T11:17:12Z</time>
      </trkpt>
      <trkpt lat="47.00115" lon="-1.00035">
        <ele>64.6</ele>
        <time>2025-08-25T11:17:13Z</time>
      </trkpt>
      <trkpt lat="47.00115" lon="-1.00037">
        <ele>64.6</ele>
        <time>2025-08-25T11:17:14Z</time>
      </trkpt>
      <trkpt lat="47.00115" lon="-1.00039">
        <ele>64.6</ele>
        <time>2025-08-25T11:17:15Z</time>
      </trkpt>
      <trkpt lat="47.00115" lon="-1.00043">
        <ele>64.5</ele>
        <time>2025-08-25T11:17:16Z</time>
      </trkpt>
      <trkpt lat="47.00115" lon="-1.00044">
        <ele>64.5</ele>
        <time>2025-08-25T11:17:17Z</time>
      </trkpt>
      <trkpt lat="47.00115" lon="-1.00047">
        <ele>64.4</ele>
        <time>2025-08-25T11:17:18Z</time>
      </trkpt>
      <trkpt lat="47.00115" lon="-1.00049">
        <ele>64.3</ele>
        <time>2025-08-25T11:17:19Z</time>
      </trkpt>
      <trkpt lat="47.00115" lon="-1.00052">
        <ele>64.3</ele>
        <time>2025-08-25T11:17:20Z</time>
      </trkpt>
      <trkpt lat="47.00115" lon="-1.00054">
        <ele>64.2</ele>
        <time>2025-08-25T11:17:21Z</time>
      </trkpt>
      <trkpt lat="47.00116" lon="-1.00056">
        <ele>64.2</ele>
        <time>2025-08-25T11:17:22Z</time>
      </trkpt>
      <trkpt lat="47.00116" lon="-1.00058">
        <ele>64.1</ele>
        <time>2025-08-25T11:17:23Z</time>
      </trkpt>
      <trkpt lat="47.00117" lon="-1.0006">
        <ele>64.1</ele>
        <time>2025-08-25T11:17:24Z</time>
      </trkpt>
      <trkpt lat="47.00117" lon="-1.00063">
        <ele>64</ele>
        <time>2025-08-25T11:17:25Z</time>
      </trkpt>
      <trkpt lat="47.00117" lon="-1.00064">
        <ele>63.9</ele>
        <time>2025-08-25T11:17:26Z</time>
      </trkpt>
      <trkpt lat="47.00118" lon="-1.00065">
        <ele>63.9</ele>
        <time>2025-08-25T11:17:27Z</time>
      </trkpt>
      <trkpt lat="47.00118" lon="-1.00067">
        <ele>63.8</ele>
        <time>2025-08-25T11:17:28Z</time>
      </trkpt>
      <trkpt lat="47.00118" lon="-1.00069">
        <ele>63.8</ele>
        <time>2025-08-25T11:17:29Z</time>
      </trkpt>
      <trkpt lat="47.00119" lon="-1.00072">
        <ele>63.7</ele>
        <time>2025-08-25T11:17:30Z</time>
      </trkpt>
      <trkpt lat="47.00119" lon="-1.00074">
        <ele>63.7</ele>
        <time>2025-08-25T11:17:31Z</time>
      </trkpt>
      <trkpt lat="47.00119" lon="-1.00077">
        <ele>63.6</ele>
        <time>2025-08-25T11:17:32Z</time>
      </trkpt>
      <trkpt lat="47.00119" lon="-1.00078">
        <ele>63.5</ele>
        <time>2025-08-25T11:17:33Z</time>
      </trkpt>
      <trkpt lat="47.00119" lon="-1.00079">
        <ele>63.5</ele>
        <time>2025-08-25T11:17:34Z</time>
      </trkpt>
      <trkpt lat="47.0012" lon="-1.00082">
        <ele>63.4</ele>
        <time>2025-08-25T11:17:35Z</time>
      </trkpt>
      <trkpt lat="47.0012" lon="-1.00083">
        <ele>63.4</ele>
        <time>2025-08-25T11:17:36Z</time>
      </trkpt>
      <trkpt lat="47.00121" lon="-1.00086">
        <ele>63.3</ele>
        <time>2025-08-25T11:17:37Z</time>
      </trkpt>
      <trkpt lat="47.00121" lon="-1.00087">
        <ele>63.3</ele>
        <time>2025-08-25T11:17:38Z</time>
      </trkpt>
      <trkpt lat="47.00121" lon="-1.00089">
        <ele>63.2</ele>
        <time>2025-08-25T11:17:39Z</time>
      </trkpt>
      <trkpt lat="47.00121" lon="-1.0009">
        <ele>63.2</ele>
        <time>2025-08-25T11:17:40Z</time>
      </trkpt>
      <trkpt lat="47.00121" lon="-1.00093">
        <ele>63.1</ele>
        <time>2025-08-25T11:17:41Z</time>
      </trkpt>
      <trkpt lat="47.00121" lon="-1.00094">
        <ele>63.1</ele>
        <time>2025-08-25T11:17:42Z</time>
      </trkpt>
      <trkpt lat="47.00122" lon="-1.00096">
        <ele>63</ele>
        <time>2025-08-25T11:17:43Z</time>
      </trkpt>
      <trkpt lat="47.00122" lon="-1.00099">
        <ele>63</ele>
        <time>2025-08-25T11:17:44Z</time>
      </trkpt>
      <trkpt lat="47.00122" lon="-1.00101">
        <ele>62.9</ele>
        <time>2025-08-25T11:17:45Z</time>
      </trkpt>
      <trkpt lat="47.00122" lon="-1.00103">
        <ele>62.9</ele>
        <time>2025-08-25T11:17:46Z</time>
      </trkpt>
      <trkpt lat="47.00122" lon="-1.00105">
        <ele>62.8</ele>
        <time>2025-08-25T11:17:47Z</time>
      </trkpt>
      <trkpt lat="47.00122" lon="-1.00107">
        <ele>62.8</ele>
        <time>2025-08-25T11:17:48Z</time>
      </trkpt>
      <trkpt lat="47.00122" lon="-1.00108">
        <ele>62.8</ele>
        <time>2025-08-25T11:17:49Z</time>
      </trkpt>
      <trkpt lat="47.00122" lon="-1.00111">
        <ele>62.7</ele>
        <time>2025-08-25T11:17:50Z</time>
      </trkpt>
      <trkpt lat="47.00122" lon="-1.00112">
        <ele>62.7</ele>
        <time>2025-08-25T11:17:51Z</time>
      </trkpt>
      <trkpt lat="47.00122" lon="-1.00114">
        <ele>62.7</ele>
        <time>2025-08-25T11:17:52Z</time>
      </trkpt>
      <trkpt lat="47.00122" lon="-1.00116">
        <ele>62.6</ele>
        <time>2025-08-25T11:17:53Z</time>
      </trkpt>
      <trkpt lat="47.00122" lon="-1.00119">
        <ele>62.6</ele>
        <time>2025-08-25T11:17:54Z</time>
      </trkpt>
      <trkpt lat="47.00123" lon="-1.0012">
        <ele>62.6</ele>
        <time>2025-08-25T11:17:55Z</time>
      </trkpt>
      <trkpt lat="47.00123" lon="-1.00122">
        <ele>62.5</ele>
        <time>2025-08-25T11:17:56Z</time>
      </trkpt>
      <trkpt lat="47.00123" lon="-1.00124">
        <ele>62.5</ele>
        <time>2025-08-25T11:17:57Z</time>
      </trkpt>
      <trkpt lat="47.00123" lon="-1.00126">
        <ele>62.5</ele>
        <time>2025-08-25T11:17:58Z</time>
      </trkpt>
      <trkpt lat="47.00123" lon="-1.00128">
        <ele>62.5</ele>
        <time>2025-08-25T11:17:59Z</time>
      </trkpt>
      <trkpt lat="47.00124" lon="-1.00131">
        <ele>62.5</ele>
        <time>2025-08-25T11:18:00Z</time>
      </trkpt>
      <trkpt lat="47.00123" lon="-1.00132">
        <ele>62.4</ele>
        <time>2025-08-25T11:18:01Z</time>
      </trkpt>
      <trkpt lat="47.00124" lon="-1.00134">
        <ele>62.4</ele>
        <time>2025-08-25T11:18:02Z</time>
      </trkpt>
      <trkpt lat="47.00123" lon="-1.00135">
        <ele>62.4</ele>
        <time>2025-08-25T11:18:03Z</time>
      </trkpt>
      <trkpt lat="47.00123" lon="-1.00137">
        <ele>62.4</ele>
        <time>2025-08-25T11:18:04Z</time>
      </trkpt>
      <trkpt lat="47.00123" lon="-1.00138">
        <ele>62.4</ele>
        <time>2025-08-25T11:18:05Z</time>
      </trkpt>
      <trkpt lat="47.00123" lon="-1.00139">
        <ele>62.4</ele>
        <time>2025-08-25T11:18:06Z</time>
      </trkpt>
      <trkpt lat="47.00123" lon="-1.00141">
        <ele>62.4</ele>
        <time>2025-08-25T11:18:07Z</time>
      </trkpt>
      <trkpt lat="47.00123" lon="-1.00142">
        <ele>62.4</ele>
        <time>2025-08-25T11:18:08Z</time>
      </trkpt>
      <trkpt lat="47.00124" lon="-1.00144">
        <ele>62.4</ele>
        <time>2025-08-25T11:18:09Z</time>
      </trkpt>
      <trkpt lat="47.00124" lon="-1.00145">
        <ele>62.4</ele>
        <time>2025-08-25T11:18:10Z</time>
      </trkpt>
      <trkpt lat="47.00124" lon="-1.00147">
        <ele>62.4</ele>
        <time>2025-08-25T11:18:11Z</time>
      </trkpt>
      <trkpt lat="47.00124" lon="-1.00148">
        <ele>62.4</ele>
        <time>2025-08-25T11:18:12Z</time>
      </trkpt>
      <trkpt lat="47.00125" lon="-1.0015">
        <ele>62.4</ele>
        <time>2025-08-25T11:18:13Z</time>
      </trkpt>
      <trkpt lat="47.00126" lon="-1.00152">
        <ele>62.4</ele>
        <time>2025-08-25T11:18:14Z</time>
      </trkpt>
      <trkpt lat="47.00127" lon="-1.00153">
        <ele>62.4</ele>
        <time>2025-08-25T11:18:15Z</time>
      </trkpt>
      <trkpt lat="47.00128" lon="-1.00155">
        <ele>62.4</ele>
        <time>2025-08-25T11:18:16Z</time>
      </trkpt>
      <trkpt lat="47.00128" lon="-1.00157">
        <ele>62.4</ele>
        <time>2025-08-25T11:18:17Z</time>
      </trkpt>
      <trkpt lat="47.00129" lon="-1.00158">
        <ele>62.4</ele>
        <time>2025-08-25T11:18:18Z</time>
      </trkpt>
      <trkpt lat="47.00129" lon="-1.0016">
        <ele>62.4</ele>
        <time>2025-08-25T11:18:19Z</time>
      </trkpt>
      <trkpt lat="47.0013" lon="-1.00161">
        <ele>62.4</ele>
        <time>2025-08-25T11:18:20Z</time>
      </trkpt>
      <trkpt lat="47.0013" lon="-1.00164">
        <ele>62.4</ele>
        <time>2025-08-25T11:18:21Z</time>
      </trkpt>
      <trkpt lat="47.00131" lon="-1.00165">
        <ele>62.4</ele>
        <time>2025-08-25T11:18:22Z</time>
      </trkpt>
      <trkpt lat="47.00132" lon="-1.00166">
        <ele>62.4</ele>
        <time>2025-08-25T11:18:23Z</time>
      </trkpt>
      <trkpt lat="47.00133" lon="-1.00167">
        <ele>62.4</ele>
        <time>2025-08-25T11:18:24Z</time>
      </trkpt>
      <trkpt lat="47.00134" lon="-1.0017">
        <ele>62.4</ele>
        <time>2025-08-25T11:18:25Z</time>
      </trkpt>
      <trkpt lat="47.00135" lon="-1.00171">
        <ele>62.4</ele>
        <time>2025-08-25T11:18:26Z</time>
      </trkpt>
      <trkpt lat="47.00135" lon="-1.00172">
        <ele>62.4</ele>
        <time>2025-08-25T11:18:27Z</time>
      </trkpt>
      <trkpt lat="47.00136" lon="-1.00173">
        <ele>62.4</ele>
        <time>2025-08-25T11:18:28Z</time>
      </trkpt>
      <trkpt lat="47.00137" lon="-1.00175">
        <ele>62.4</ele>
        <time>2025-08-25T11:18:29Z</time>
      </trkpt>
      <trkpt lat="47.00138" lon="-1.00177">
        <ele>62.4</ele>
        <time>2025-08-25T11:18:30Z</time>
      </trkpt>
      <trkpt lat="47.00139" lon="-1.00179">
        <ele>62.4</ele>
        <time>2025-08-25T11:18:31Z</time>
      </trkpt>
      <trkpt lat="47.0014" lon="-1.0018">
        <ele>62.4</ele>
        <time>2025-08-25T11:18:32Z</time>
      </trkpt>
      <trkpt lat="47.00141" lon="-1.00182">
        <ele>62.4</ele>
        <time>2025-08-25T11:18:33Z</time>
      </trkpt>
      <trkpt lat="47.00142" lon="-1.00183">
        <ele>62.5</ele>
        <time>2025-08-25T11:18:34Z</time>
      </trkpt>
      <trkpt lat="47.00143" lon="-1.00185">
        <ele>62.5</ele>
        <time>2025-08-25T11:18:35Z</time>
      </trkpt>
      <trkpt lat="47.00144" lon="-1.00186">
        <ele>62.5</ele>
        <time>2025-08-25T11:18:36Z</time>
      </trkpt>
      <trkpt lat="47.00145" lon="-1.00188">
        <ele>62.5</ele>
        <time>2025-08-25T11:18:37Z</time>
      </trkpt>
      <trkpt lat="47.00146" lon="-1.0019">
        <ele>62.6</ele>
        <time>2025-08-25T11:18:38Z</time>
      </trkpt>
      <trkpt lat="47.00147" lon="-1.00191">
        <ele>62.6</ele>
        <time>2025-08-25T11:18:39Z</time>
      </trkpt>
      <trkpt lat="47.00147" lon="-1.00193">
        <ele>62.6</ele>
        <time>2025-08-25T11:18:40Z</time>
      </trkpt>
      <trkpt lat="47.00148" lon="-1.00195">
        <ele>62.6</ele>
        <time>2025-08-25T11:18:41Z</time>
      </trkpt>
      <trkpt lat="47.00149" lon="-1.00197">
        <ele>62.7</ele>
        <time>2025-08-25T11:18:42Z</time>
      </trkpt>
      <trkpt lat="47.0015" lon="-1.00199">
        <ele>62.7</ele>
        <time>2025-08-25T11:18:43Z</time>
      </trkpt>
      <trkpt lat="47.00151" lon="-1.00201">
        <ele>62.7</ele>
        <time>2025-08-25T11:18:44Z</time>
      </trkpt>
      <trkpt lat="47.00152" lon="-1.00203">
        <ele>62.8</ele>
        <time>2025-08-25T11:18:45Z</time>
      </trkpt>
      <trkpt lat="47.00152" lon="-1.00205">
        <ele>62.8</ele>
        <time>2025-08-25T11:18:46Z</time>
      </trkpt>
      <trkpt lat="47.00153" lon="-1.00206">
        <ele>62.9</ele>
        <time>2025-08-25T11:18:47Z</time>
      </trkpt>
      <trkpt lat="47.00154" lon="-1.00209">
        <ele>62.9</ele>
        <time>2025-08-25T11:18:48Z</time>
      </trkpt>
      <trkpt lat="47.00155" lon="-1.0021">
        <ele>62.9</ele>
        <time>2025-08-25T11:18:49Z</time>
      </trkpt>
      <trkpt lat="47.00155" lon="-1.00211">
        <ele>63</ele>
        <time>2025-08-25T11:18:50Z</time>
      </trkpt>
      <trkpt lat="47.00156" lon="-1.00214">
        <ele>63</ele>
        <time>2025-08-25T11:18:51Z</time>
      </trkpt>
      <trkpt lat="47.00157" lon="-1.00215">
        <ele>63</ele>
        <time>2025-08-25T11:18:52Z</time>
      </trkpt>
      <trkpt lat="47.00157" lon="-1.00215">
        <ele>63.1</ele>
        <time>2025-08-25T11:18:53Z</time>
      </trkpt>
      <trkpt lat="47.00158" lon="-1.00217">
        <ele>63.1</ele>
        <time>2025-08-25T11:18:54Z</time>
      </trkpt>
      <trkpt lat="47.00159" lon="-1.00218">
        <ele>63.1</ele>
        <time>2025-08-25T11:18:55Z</time>
      </trkpt>
      <trkpt lat="47.00159" lon="-1.00219">
        <ele>63.1</ele>
        <time>2025-08-25T11:18:56Z</time>
      </trkpt>
      <trkpt lat="47.00159" lon="-1.0022">
        <ele>63.1</ele>
        <time>2025-08-25T11:18:57Z</time>
      </trkpt>
      <trkpt lat="47.00159" lon="-1.0022">
        <ele>63.1</ele>
        <time>2025-08-25T11:18:58Z</time>
      </trkpt>
      <trkpt lat="47.00159" lon="-1.0022">
        <ele>63.1</ele>
        <time>2025-08-25T11:18:59Z</time>
      </trkpt>
      <trkpt lat="47.00159" lon="-1.00219">
        <ele>63.1</ele>
        <time>2025-08-25T11:19:00Z</time>
      </trkpt>
      <trkpt lat="47.00159" lon="-1.00219">
        <ele>63.2</ele>
        <time>2025-08-25T11:19:01Z</time>
      </trkpt>
      <trkpt lat="47.00158" lon="-1.00219">
        <ele>63.2</ele>
        <time>2025-08-25T11:19:02Z</time>
      </trkpt>
      <trkpt lat="47.00158" lon="-1.00219">
        <ele>63.2</ele>
        <time>2025-08-25T11:19:03Z</time>
      </trkpt>
      <trkpt lat="47.00158" lon="-1.00219">
        <ele>63.2</ele>
        <time>2025-08-25T11:19:04Z</time>
      </trkpt>
      <trkpt lat="47.00158" lon="-1.00219">
        <ele>63.2</ele>
        <time>2025-08-25T11:19:05Z</time>
      </trkpt>
      <trkpt lat="47.00158" lon="-1.00219">
        <ele>63.2</ele>
        <time>2025-08-25T11:19:06Z</time>
      </trkpt>
      <trkpt lat="47.00158" lon="-1.00219">
        <ele>63.2</ele>
        <time>2025-08-25T11:19:07Z</time>
      </trkpt>
      <trkpt lat="47.00158" lon="-1.00219">
        <ele>63.2</ele>
        <time>2025-08-25T11:19:08Z</time>
      </trkpt>
      <trkpt lat="47.00158" lon="-1.00219">
        <ele>63.2</ele>
        <time>2025-08-25T11:19:09Z</time>
      </trkpt>
      <trkpt lat="47.00158" lon="-1.00219">
        <ele>63.2</ele>
        <time>2025-08-25T11:19:10Z</time>
      </trkpt>
      <trkpt lat="47.00158" lon="-1.00219">
        <ele>63.2</ele>
        <time>2025-08-25T11:19:11Z</time>
      </trkpt>
      <trkpt lat="47.00158" lon="-1.00219">
        <ele>63.2</ele>
        <time>2025-08-25T11:19:12Z</time>
      </trkpt>
      <trkpt lat="47.00158" lon="-1.00219">
        <ele>63.2</ele>
        <time>2025-08-25T11:19:13Z</time>
      </trkpt>
      <trkpt lat="47.00158" lon="-1.00219">
        <ele>63.2</ele>
        <time>2025-08-25T11:19:14Z</time>
      </trkpt>
      <trkpt lat="47.00158" lon="-1.00219">
        <ele>63.2</ele>
        <time>2025-08-25T11:19:15Z</time>
      </trkpt>
      <trkpt lat="47.00158" lon="-1.0022">
        <ele>63.2</ele>
        <time>2025-08-25T11:19:16Z</time>
      </trkpt>
      <trkpt lat="47.00158" lon="-1.0022">
        <ele>63.2</ele>
        <time>2025-08-25T11:19:17Z</time>
      </trkpt>
      <trkpt lat="47.00158" lon="-1.0022">
        <ele>63.2</ele>
        <time>2025-08-25T11:19:18Z</time>
      </trkpt>
      <trkpt lat="47.00158" lon="-1.0022">
        <ele>63.2</ele>
        <time>2025-08-25T11:19:19Z</time>
      </trkpt>
      <trkpt lat="47.00158" lon="-1.0022">
        <ele>63.2</ele>
        <time>2025-08-25T11:19:20Z</time>
      </trkpt>
      <trkpt lat="47.00158" lon="-1.00221">
        <ele>63.2</ele>
        <time>2025-08-25T11:19:21Z</time>
      </trkpt>
      <trkpt lat="47.00159" lon="-1.00221">
        <ele>63.2</ele>
        <time>2025-08-25T11:19:22Z</time>
      </trkpt>
      <trkpt lat="47.00159" lon="-1.00221">
        <ele>63.2</ele>
        <time>2025-08-25T11:19:23Z</time>
      </trkpt>
      <trkpt lat="47.00159" lon="-1.00222">
        <ele>63.2</ele>
        <time>2025-08-25T11:19:24Z</time>
      </trkpt>
      <trkpt lat="47.00159" lon="-1.00222">
        <ele>63.2</ele>
        <time>2025-08-25T11:19:25Z</time>
      </trkpt>
      <trkpt lat="47.0016" lon="-1.00223">
        <ele>63.2</ele>
        <time>2025-08-25T11:19:26Z</time>
      </trkpt>
      <trkpt lat="47.0016" lon="-1.00223">
        <ele>63.2</ele>
        <time>2025-08-25T11:19:27Z</time>
      </trkpt>
      <trkpt lat="47.00161" lon="-1.00224">
        <ele>63.2</ele>
        <time>2025-08-25T11:19:28Z</time>
      </trkpt>
      <trkpt lat="47.00161" lon="-1.00224">
        <ele>63.3</ele>
        <time>2025-08-25T11:19:29Z</time>
      </trkpt>
      <trkpt lat="47.00161" lon="-1.00225">
        <ele>63.3</ele>
        <time>2025-08-25T11:19:30Z</time>
      </trkpt>
      <trkpt lat="47.00161" lon="-1.00225">
        <ele>63.3</ele>
        <time>2025-08-25T11:19:31Z</time>
      </trkpt>
      <trkpt lat="47.00162" lon="-1.00225">
        <ele>63.3</ele>
        <time>2025-08-25T11:19:32Z</time>
      </trkpt>
      <trkpt lat="47.00162" lon="-1.00226">
        <ele>63.3</ele>
        <time>2025-08-25T11:19:33Z</time>
      </trkpt>
      <trkpt lat="47.00162" lon="-1.00226">
        <ele>63.3</ele>
        <time>2025-08-25T11:19:34Z</time>
      </trkpt>
      <trkpt lat="47.00162" lon="-1.00226">
        <ele>63.3</ele>
        <time>2025-08-25T11:19:35Z</time>
      </trkpt>
      <trkpt lat="47.00162" lon="-1.00226">
        <ele>63.3</ele>
        <time>2025-08-25T11:19:36Z</time>
      </trkpt>
      <trkpt lat="47.00163" lon="-1.00226">
        <ele>63.3</ele>
        <time>2025-08-25T11:19:37Z</time>
      </trkpt>
      <trkpt lat="47.00163" lon="-1.00226">
        <ele>63.3</ele>
        <time>2025-08-25T11:19:38Z</time>
      </trkpt>
      <trkpt lat="47.00162" lon="-1.00226">
        <ele>63.3</ele>
        <time>2025-08-25T11:19:39Z</time>
      </trkpt>
      <trkpt lat="47.00162" lon="-1.00226">
        <ele>63.3</ele>
        <time>2025-08-25T11:19:40Z</time>
      </trkpt>
      <trkpt lat="47.00162" lon="-1.00226">
        <ele>63.3</ele>
        <time>2025-08-25T11:19:41Z</time>
      </trkpt>
      <trkpt lat="47.00162" lon="-1.00226">
        <ele>63.3</ele>
        <time>2025-08-25T11:19:42Z</time>
      </trkpt>
      <trkpt lat="47.00162" lon="-1.00226">
        <ele>63.3</ele>
        <time>2025-08-25T11:19:43Z</time>
      </trkpt>
      <trkpt lat="47.00162" lon="-1.00226">
        <ele>63.3</ele>
        <time>2025-08-25T11:19:44Z</time>
      </trkpt>
      <trkpt lat="47.00162" lon="-1.00226">
        <ele>63.3</ele>
        <time>2025-08-25T11:19:45Z</time>
      </trkpt>
      <trkpt lat="47.00162" lon="-1.00226">
        <ele>63.3</ele>
        <time>2025-08-25T11:19:46Z</time>
      </trkpt>
      <trkpt lat="47.00162" lon="-1.00226">
        <ele>63.3</ele>
        <time>2025-08-25T11:19:47Z</time>
      </trkpt>
      <trkpt lat="47.00162" lon="-1.00226">
        <ele>63.3</ele>
        <time>2025-08-25T11:19:48Z</time>
      </trkpt>
      <trkpt lat="47.00162" lon="-1.00226">
        <ele>63.3</ele>
        <time>2025-08-25T11:19:49Z</time>
      </trkpt>
      <trkpt lat="47.00162" lon="-1.00226">
        <ele>63.3</ele>
        <time>2025-08-25T11:19:50Z</time>
      </trkpt>
      <trkpt lat="47.00162" lon="-1.00226">
        <ele>63.3</ele>
        <time>2025-08-25T11:19:51Z</time>
      </trkpt>
      <trkpt lat="47.00163" lon="-1.00226">
        <ele>63.3</ele>
        <time>2025-08-25T11:19:52Z</time>
      </trkpt>
      <trkpt lat="47.00163" lon="-1.00225">
        <ele>63.3</ele>
        <time>2025-08-25T11:19:53Z</time>
      </trkpt>
      <trkpt lat="47.00163" lon="-1.00225">
        <ele>63.3</ele>
        <time>2025-08-25T11:19:54Z</time>
      </trkpt>
      <trkpt lat="47.00163" lon="-1.00226">
        <ele>63.3</ele>
        <time>2025-08-25T11:19:55Z</time>
      </trkpt>
      <trkpt lat="47.00163" lon="-1.00226">
        <ele>63.3</ele>
        <time>2025-08-25T11:19:56Z</time>
      </trkpt>
      <trkpt lat="47.00163" lon="-1.00226">
        <ele>63.3</ele>
        <time>2025-08-25T11:19:57Z</time>
      </trkpt>
      <trkpt lat="47.00163" lon="-1.00225">
        <ele>63.3</ele>
        <time>2025-08-25T11:19:58Z</time>
      </trkpt>
      <trkpt lat="47.00163" lon="-1.00225">
        <ele>63.3</ele>
        <time>2025-08-25T11:19:59Z</time>
      </trkpt>
      <trkpt lat="47.00163" lon="-1.00225">
        <ele>63.3</ele>
        <time>2025-08-25T11:20:00Z</time>
      </trkpt>
      <trkpt lat="47.00163" lon="-1.00225">
        <ele>63.3</ele>
        <time>2025-08-25T11:20:01Z</time>
      </trkpt>
      <trkpt lat="47.00163" lon="-1.00225">
        <ele>63.3</ele>
        <time>2025-08-25T11:20:02Z</time>
      </trkpt>
      <trkpt lat="47.00163" lon="-1.00225">
        <ele>63.3</ele>
        <time>2025-08-25T11:20:03Z</time>
      </trkpt>
      <trkpt lat="47.00163" lon="-1.00225">
        <ele>63.3</ele>
        <time>2025-08-25T11:20:04Z</time>
      </trkpt>
      <trkpt lat="47.00163" lon="-1.00224">
        <ele>63.3</ele>
        <time>2025-08-25T11:20:05Z</time>
      </trkpt>
      <trkpt lat="47.00163" lon="-1.00224">
        <ele>63.3</ele>
        <time>2025-08-25T11:20:06Z</time>
      </trkpt>
      <trkpt lat="47.00164" lon="-1.00224">
        <ele>63.3</ele>
        <time>2025-08-25T11:20:07Z</time>
      </trkpt>
      <trkpt lat="47.00164" lon="-1.00224">
        <ele>63.3</ele>
        <time>2025-08-25T11:20:08Z</time>
      </trkpt>
      <trkpt lat="47.00164" lon="-1.00224">
        <ele>63.3</ele>
        <time>2025-08-25T11:20:09Z</time>
      </trkpt>
      <trkpt lat="47.00164" lon="-1.00224">
        <ele>63.3</ele>
        <time>2025-08-25T11:20:10Z</time>
      </trkpt>
      <trkpt lat="47.00164" lon="-1.00224">
        <ele>63.3</ele>
        <time>2025-08-25T11:20:11Z</time>
      </trkpt>
      <trkpt lat="47.00164" lon="-1.00224">
        <ele>63.3</ele>
        <time>2025-08-25T11:20:12Z</time>
      </trkpt>
      <trkpt lat="47.00164" lon="-1.00224">
        <ele>63.3</ele>
        <time>2025-08-25T11:20:13Z</time>
      </trkpt>
      <trkpt lat="47.00164" lon="-1.00225">
        <ele>63.3</ele>
        <time>2025-08-25T11:20:14Z</time>
      </trkpt>
      <trkpt lat="47.00165" lon="-1.00225">
        <ele>63.3</ele>
        <time>2025-08-25T11:20:15Z</time>
      </trkpt>
      <trkpt lat="47.00165" lon="-1.00226">
        <ele>63.3</ele>
        <time>2025-08-25T11:20:16Z</time>
      </trkpt>
      <trkpt lat="47.00165" lon="-1.00227">
        <ele>63.3</ele>
        <time>2025-08-25T11:20:17Z</time>
      </trkpt>
      <trkpt lat="47.00165" lon="-1.00227">
        <ele>63.3</ele>
        <time>2025-08-25T11:20:18Z</time>
      </trkpt>
      <trkpt lat="47.00166" lon="-1.00228">
        <ele>63.3</ele>
        <time>2025-08-25T11:20:19Z</time>
      </trkpt>
      <trkpt lat="47.00166" lon="-1.00228">
        <ele>63.3</ele>
        <time>2025-08-25T11:20:20Z</time>
      </trkpt>
      <trkpt lat="47.00166" lon="-1.00229">
        <ele>63.4</ele>
        <time>2025-08-25T11:20:21Z</time>
      </trkpt>
      <trkpt lat="47.00166" lon="-1.0023">
        <ele>63.4</ele>
        <time>2025-08-25T11:20:22Z</time>
      </trkpt>
      <trkpt lat="47.00166" lon="-1.0023">
        <ele>63.4</ele>
        <time>2025-08-25T11:20:23Z</time>
      </trkpt>
      <trkpt lat="47.00166" lon="-1.0023">
        <ele>63.4</ele>
        <time>2025-08-25T11:20:24Z</time>
      </trkpt>
      <trkpt lat="47.00166" lon="-1.00231">
        <ele>63.4</ele>
        <time>2025-08-25T11:20:25Z</time>
      </trkpt>
      <trkpt lat="47.00166" lon="-1.00231">
        <ele>63.4</ele>
        <time>2025-08-25T11:20:26Z</time>
      </trkpt>
      <trkpt lat="47.00166" lon="-1.00231">
        <ele>63.4</ele>
        <time>2025-08-25T11:20:27Z</time>
      </trkpt>
      <trkpt lat="47.00167" lon="-1.00231">
        <ele>63.4</ele>
        <time>2025-08-25T11:20:28Z</time>
      </trkpt>
      <trkpt lat="47.00167" lon="-1.00231">
        <ele>63.4</ele>
        <time>2025-08-25T11:20:29Z</time>
      </trkpt>
      <trkpt lat="47.00167" lon="-1.00231">
        <ele>63.4</ele>
        <time>2025-08-25T11:20:30Z</time>
      </trkpt>
      <trkpt lat="47.00167" lon="-1.00231">
        <ele>63.4</ele>
        <time>2025-08-25T11:20:31Z</time>
      </trkpt>
      <trkpt lat="47.00167" lon="-1.00231">
        <ele>63.4</ele>
        <time>2025-08-25T11:20:32Z</time>
      </trkpt>
      <trkpt lat="47.00167" lon="-1.00232">
        <ele>63.4</ele>
        <time>2025-08-25T11:20:33Z</time>
      </trkpt>
      <trkpt lat="47.00167" lon="-1.00232">
        <ele>63.4</ele>
        <time>2025-08-25T11:20:34Z</time>
      </trkpt>
      <trkpt lat="47.00167" lon="-1.00232">
        <ele>63.4</ele>
        <time>2025-08-25T11:20:35Z</time>
      </trkpt>
      <trkpt lat="47.00167" lon="-1.00233">
        <ele>63.4</ele>
        <time>2025-08-25T11:20:36Z</time>
      </trkpt>
      <trkpt lat="47.00167" lon="-1.00235">
        <ele>63.4</ele>
        <time>2025-08-25T11:20:37Z</time>
      </trkpt>
      <trkpt lat="47.00167" lon="-1.00238">
        <ele>63.4</ele>
        <time>2025-08-25T11:20:38Z</time>
      </trkpt>
      <trkpt lat="47.00167" lon="-1.00239">
        <ele>63.4</ele>
        <time>2025-08-25T11:20:39Z</time>
      </trkpt>
      <trkpt lat="47.00167" lon="-1.00241">
        <ele>63.5</ele>
        <time>2025-08-25T11:20:40Z</time>
      </trkpt>
      <trkpt lat="47.00166" lon="-1.00242">
        <ele>63.5</ele>
        <time>2025-08-25T11:20:41Z</time>
      </trkpt>
      <trkpt lat="47.00166" lon="-1.00244">
        <ele>63.5</ele>
        <time>2025-08-25T11:20:42Z</time>
      </trkpt>
      <trkpt lat="47.00166" lon="-1.00245">
        <ele>63.5</ele>
        <time>2025-08-25T11:20:43Z</time>
      </trkpt>
      <trkpt lat="47.00166" lon="-1.00246">
        <ele>63.5</ele>
        <time>2025-08-25T11:20:44Z</time>
      </trkpt>
      <trkpt lat="47.00165" lon="-1.00247">
        <ele>63.5</ele>
        <time>2025-08-25T11:20:45Z</time>
      </trkpt>
      <trkpt lat="47.00165" lon="-1.00247">
        <ele>63.6</ele>
        <time>2025-08-25T11:20:46Z</time>
      </trkpt>
      <trkpt lat="47.00165" lon="-1.00248">
        <ele>63.6</ele>
        <time>2025-08-25T11:20:47Z</time>
      </trkpt>
      <trkpt lat="47.00166" lon="-1.00249">
        <ele>63.6</ele>
        <time>2025-08-25T11:20:48Z</time>
      </trkpt>
      <trkpt lat="47.00166" lon="-1.0025">
        <ele>63.6</ele>
        <time>2025-08-25T11:20:49Z</time>
      </trkpt>
      <trkpt lat="47.00167" lon="-1.00251">
        <ele>63.6</ele>
        <time>2025-08-25T11:20:50Z</time>
      </trkpt>
      <trkpt lat="47.00167" lon="-1.00252">
        <ele>63.6</ele>
        <time>2025-08-25T11:20:51Z</time>
      </trkpt>
      <trkpt lat="47.00167" lon="-1.00254">
        <ele>63.7</ele>
        <time>2025-08-25T11:20:52Z</time>
      </trkpt>
      <trkpt lat="47.00168" lon="-1.00256">
        <ele>63.7</ele>
        <time>2025-08-25T11:20:53Z</time>
      </trkpt>
      <trkpt lat="47.00168" lon="-1.00257">
        <ele>63.7</ele>
        <time>2025-08-25T11:20:54Z</time>
      </trkpt>
      <trkpt lat="47.00168" lon="-1.00258">
        <ele>63.7</ele>
        <time>2025-08-25T11:20:55Z</time>
      </trkpt>
      <trkpt lat="47.00168" lon="-1.00259">
        <ele>63.7</ele>
        <time>2025-08-25T11:20:56Z</time>
      </trkpt>
      <trkpt lat="47.00168" lon="-1.0026">
        <ele>63.8</ele>
        <time>2025-08-25T11:20:57Z</time>
      </trkpt>
      <trkpt lat="47.00169" lon="-1.00261">
        <ele>63.8</ele>
        <time>2025-08-25T11:20:58Z</time>
      </trkpt>
      <trkpt lat="47.00169" lon="-1.00263">
        <ele>63.8</ele>
        <time>2025-08-25T11:20:59Z</time>
      </trkpt>
      <trkpt lat="47.00169" lon="-1.00264">
        <ele>63.8</ele>
        <time>2025-08-25T11:21:00Z</time>
      </trkpt>
      <trkpt lat="47.00169" lon="-1.00265">
        <ele>63.8</ele>
        <time>2025-08-25T11:21:01Z</time>
      </trkpt>
      <trkpt lat="47.00169" lon="-1.00267">
        <ele>63.9</ele>
        <time>2025-08-25T11:21:02Z</time>
      </trkpt>
      <trkpt lat="47.00169" lon="-1.00269">
        <ele>63.9</ele>
        <time>2025-08-25T11:21:03Z</time>
      </trkpt>
      <trkpt lat="47.00169" lon="-1.0027">
        <ele>63.9</ele>
        <time>2025-08-25T11:21:04Z</time>
      </trkpt>
      <trkpt lat="47.00169" lon="-1.00272">
        <ele>63.9</ele>
        <time>2025-08-25T11:21:05Z</time>
      </trkpt>
      <trkpt lat="47.0017" lon="-1.00274">
        <ele>63.9</ele>
        <time>2025-08-25T11:21:06Z</time>
      </trkpt>
      <trkpt lat="47.0017" lon="-1.00277">
        <ele>63.8</ele>
        <time>2025-08-25T11:21:07Z</time>
      </trkpt>
      <trkpt lat="47.00171" lon="-1.00279">
        <ele>63.8</ele>
        <time>2025-08-25T11:21:08Z</time>
      </trkpt>
      <trkpt lat="47.00172" lon="-1.00281">
        <ele>63.8</ele>
        <time>2025-08-25T11:21:09Z</time>
      </trkpt>
      <trkpt lat="47.00173" lon="-1.00283">
        <ele>63.7</ele>
        <time>2025-08-25T11:21:10Z</time>
      </trkpt>
      <trkpt lat="47.00174" lon="-1.00285">
        <ele>63.7</ele>
        <time>2025-08-25T11:21:11Z</time>
      </trkpt>
      <trkpt lat="47.00174" lon="-1.00287">
        <ele>63.6</ele>
        <time>2025-08-25T11:21:12Z</time>
      </trkpt>
      <trkpt lat="47.00175" lon="-1.00288">
        <ele>63.6</ele>
        <time>2025-08-25T11:21:13Z</time>
      </trkpt>
      <trkpt lat="47.00175" lon="-1.0029">
        <ele>63.5</ele>
        <time>2025-08-25T11:21:14Z</time>
      </trkpt>
      <trkpt lat="47.00176" lon="-1.00293">
        <ele>63.4</ele>
        <time>2025-08-25T11:21:15Z</time>
      </trkpt>
      <trkpt lat="47.00177" lon="-1.00295">
        <ele>63.3</ele>
        <time>2025-08-25T11:21:16Z</time>
      </trkpt>
      <trkpt lat="47.00177" lon="-1.00296">
        <ele>63.3</ele>
        <time>2025-08-25T11:21:17Z</time>
      </trkpt>
      <trkpt lat="47.00178" lon="-1.00299">
        <ele>63.2</ele>
        <time>2025-08-25T11:21:18Z</time>
      </trkpt>
      <trkpt lat="47.00178" lon="-1.003">
        <ele>63.2</ele>
        <time>2025-08-25T11:21:19Z</time>
      </trkpt>
      <trkpt lat="47.00178" lon="-1.00302">
        <ele>63.1</ele>
        <time>2025-08-25T11:21:20Z</time>
      </trkpt>
      <trkpt lat="47.00179" lon="-1.00304">
        <ele>63</ele>
        <time>2025-08-25T11:21:21Z</time>
      </trkpt>
      <trkpt lat="47.00179" lon="-1.00308">
        <ele>62.8</ele>
        <time>2025-08-25T11:21:22Z</time>
      </trkpt>
      <trkpt lat="47.0018" lon="-1.0031">
        <ele>62.8</ele>
        <time>2025-08-25T11:21:23Z</time>
      </trkpt>
      <trkpt lat="47.00181" lon="-1.00312">
        <ele>62.7</ele>
        <time>2025-08-25T11:21:24Z</time>
      </trkpt>
      <trkpt lat="47.00181" lon="-1.00314">
        <ele>62.6</ele>
        <time>2025-08-25T11:21:25Z</time>
      </trkpt>
      <trkpt lat="47.00181" lon="-1.00315">
        <ele>62.5</ele>
        <time>2025-08-25T11:21:26Z</time>
      </trkpt>
      <trkpt lat="47.00182" lon="-1.00317">
        <ele>62.5</ele>
        <time>2025-08-25T11:21:27Z</time>
      </trkpt>
      <trkpt lat="47.00183" lon="-1.0032">
        <ele>62.3</ele>
        <time>2025-08-25T11:21:28Z</time>
      </trkpt>
      <trkpt lat="47.00183" lon="-1.00321">
        <ele>62.3</ele>
        <time>2025-08-25T11:21:29Z</time>
      </trkpt>
      <trkpt lat="47.00184" lon="-1.00322">
        <ele>62.2</ele>
        <time>2025-08-25T11:21:30Z</time>
      </trkpt>
      <trkpt lat="47.00184" lon="-1.00324">
        <ele>62.2</ele>
        <time>2025-08-25T11:21:31Z</time>
      </trkpt>
      <trkpt lat="47.00185" lon="-1.00325">
        <ele>62.1</ele>
        <time>2025-08-25T11:21:32Z</time>
      </trkpt>
      <trkpt lat="47.00185" lon="-1.00327">
        <ele>62.1</ele>
        <time>2025-08-25T11:21:33Z</time>
      </trkpt>
      <trkpt lat="47.00185" lon="-1.00328">
        <ele>62.1</ele>
        <time>2025-08-25T11:21:34Z</time>
      </trkpt>
      <trkpt lat="47.00185" lon="-1.00329">
        <ele>62</ele>
        <time>2025-08-25T11:21:35Z</time>
      </trkpt>
      <trkpt lat="47.00185" lon="-1.0033">
        <ele>62</ele>
        <time>2025-08-25T11:21:36Z</time>
      </trkpt>
      <trkpt lat="47.00185" lon="-1.00331">
        <ele>62</ele>
        <time>2025-08-25T11:21:37Z</time>
      </trkpt>
      <trkpt lat="47.00186" lon="-1.00332">
        <ele>61.9</ele>
        <time>2025-08-25T11:21:38Z</time>
      </trkpt>
      <trkpt lat="47.00186" lon="-1.00333">
        <ele>61.9</ele>
        <time>2025-08-25T11:21:39Z</time>
      </trkpt>
      <trkpt lat="47.00187" lon="-1.00333">
        <ele>61.8</ele>
        <time>2025-08-25T11:21:40Z</time>
      </trkpt>
      <trkpt lat="47.00187" lon="-1.00334">
        <ele>61.8</ele>
        <time>2025-08-25T11:21:41Z</time>
      </trkpt>
      <trkpt lat="47.00187" lon="-1.00334">
        <ele>61.8</ele>
        <time>2025-08-25T11:21:42Z</time>
      </trkpt>
      <trkpt lat="47.00188" lon="-1.00335">
        <ele>61.8</ele>
        <time>2025-08-25T11:21:43Z</time>
      </trkpt>
      <trkpt lat="47.00188" lon="-1.00336">
        <ele>61.8</ele>
        <time>2025-08-25T11:21:44Z</time>
      </trkpt>
      <trkpt lat="47.00189" lon="-1.00336">
        <ele>61.7</ele>
        <time>2025-08-25T11:21:45Z</time>
      </trkpt>
      <trkpt lat="47.00189" lon="-1.00337">
        <ele>61.7</ele>
        <time>2025-08-25T11:21:46Z</time>
      </trkpt>
      <trkpt lat="47.00189" lon="-1.00338">
        <ele>61.7</ele>
        <time>2025-08-25T11:21:47Z</time>
      </trkpt>
      <trkpt lat="47.00189" lon="-1.0034">
        <ele>61.6</ele>
        <time>2025-08-25T11:21:48Z</time>
      </trkpt>
      <trkpt lat="47.00189" lon="-1.00341">
        <ele>61.6</ele>
        <time>2025-08-25T11:21:49Z</time>
      </trkpt>
      <trkpt lat="47.0019" lon="-1.00342">
        <ele>61.6</ele>
        <time>2025-08-25T11:21:50Z</time>
      </trkpt>
      <trkpt lat="47.0019" lon="-1.00343">
        <ele>61.6</ele>
        <time>2025-08-25T11:21:51Z</time>
      </trkpt>
      <trkpt lat="47.0019" lon="-1.00344">
        <ele>61.5</ele>
        <time>2025-08-25T11:21:52Z</time>
      </trkpt>
      <trkpt lat="47.0019" lon="-1.00345">
        <ele>61.5</ele>
        <time>2025-08-25T11:21:53Z</time>
      </trkpt>
      <trkpt lat="47.00191" lon="-1.00347">
        <ele>61.5</ele>
        <time>2025-08-25T11:21:54Z</time>
      </trkpt>
      <trkpt lat="47.00191" lon="-1.00348">
        <ele>61.4</ele>
        <time>2025-08-25T11:21:55Z</time>
      </trkpt>
      <trkpt lat="47.00192" lon="-1.0035">
        <ele>61.4</ele>
        <time>2025-08-25T11:21:56Z</time>
      </trkpt>
      <trkpt lat="47.00192" lon="-1.00351">
        <ele>61.4</ele>
        <time>2025-08-25T11:21:57Z</time>
      </trkpt>
      <trkpt lat="47.00192" lon="-1.00353">
        <ele>61.3</ele>
        <time>2025-08-25T11:21:58Z</time>
      </trkpt>
      <trkpt lat="47.00192" lon="-1.00354">
        <ele>61.3</ele>
        <time>2025-08-25T11:21:59Z</time>
      </trkpt>
      <trkpt lat="47.00192" lon="-1.00356">
        <ele>61.3</ele>
        <time>2025-08-25T11:22:00Z</time>
      </trkpt>
      <trkpt lat="47.00192" lon="-1.00358">
        <ele>61.2</ele>
        <time>2025-08-25T11:22:01Z</time>
      </trkpt>
      <trkpt lat="47.00193" lon="-1.00361">
        <ele>61.2</ele>
        <time>2025-08-25T11:22:02Z</time>
      </trkpt>
      <trkpt lat="47.00193" lon="-1.00362">
        <ele>61.2</ele>
        <time>2025-08-25T11:22:03Z</time>
      </trkpt>
      <trkpt lat="47.00193" lon="-1.00363">
        <ele>61.2</ele>
        <time>2025-08-25T11:22:04Z</time>
      </trkpt>
      <trkpt lat="47.00194" lon="-1.00366">
        <ele>61.1</ele>
        <time>2025-08-25T11:22:05Z</time>
      </trkpt>
      <trkpt lat="47.00194" lon="-1.00367">
        <ele>61.1</ele>
        <time>2025-08-25T11:22:06Z</time>
      </trkpt>
      <trkpt lat="47.00195" lon="-1.00368">
        <ele>61.1</ele>
        <time>2025-08-25T11:22:07Z</time>
      </trkpt>
      <trkpt lat="47.00195" lon="-1.0037">
        <ele>61.1</ele>
        <time>2025-08-25T11:22:08Z</time>
      </trkpt>
      <trkpt lat="47.00196" lon="-1.00372">
        <ele>61</ele>
        <time>2025-08-25T11:22:09Z</time>
      </trkpt>
      <trkpt lat="47.00196" lon="-1.00373">
        <ele>61</ele>
        <time>2025-08-25T11:22:10Z</time>
      </trkpt>
      <trkpt lat="47.00197" lon="-1.00376">
        <ele>61</ele>
        <time>2025-08-25T11:22:11Z</time>
      </trkpt>
      <trkpt lat="47.00197" lon="-1.00377">
        <ele>61</ele>
        <time>2025-08-25T11:22:12Z</time>
      </trkpt>
      <trkpt lat="47.00197" lon="-1.00378">
        <ele>61</ele>
        <time>2025-08-25T11:22:13Z</time>
      </trkpt>
      <trkpt lat="47.00198" lon="-1.0038">
        <ele>60.9</ele>
        <time>2025-08-25T11:22:14Z</time>
      </trkpt>
      <trkpt lat="47.00198" lon="-1.00382">
        <ele>60.9</ele>
        <time>2025-08-25T11:22:15Z</time>
      </trkpt>
      <trkpt lat="47.002" lon="-1.00385">
        <ele>60.9</ele>
        <time>2025-08-25T11:22:16Z</time>
      </trkpt>
      <trkpt lat="47.002" lon="-1.00386">
        <ele>60.9</ele>
        <time>2025-08-25T11:22:17Z</time>
      </trkpt>
      <trkpt lat="47.002" lon="-1.00387">
        <ele>60.9</ele>
        <time>2025-08-25T11:22:18Z</time>
      </trkpt>
      <trkpt lat="47.00201" lon="-1.00388">
        <ele>60.9</ele>
        <time>2025-08-25T11:22:19Z</time>
      </trkpt>
      <trkpt lat="47.00201" lon="-1.0039">
        <ele>60.9</ele>
        <time>2025-08-25T11:22:20Z</time>
      </trkpt>
      <trkpt lat="47.00202" lon="-1.00391">
        <ele>60.8</ele>
        <time>2025-08-25T11:22:21Z</time>
      </trkpt>
      <trkpt lat="47.00203" lon="-1.00394">
        <ele>60.8</ele>
        <time>2025-08-25T11:22:22Z</time>
      </trkpt>
      <trkpt lat="47.00203" lon="-1.00395">
        <ele>60.8</ele>
        <time>2025-08-25T11:22:23Z</time>
      </trkpt>
      <trkpt lat="47.00204" lon="-1.00396">
        <ele>60.8</ele>
        <time>2025-08-25T11:22:24Z</time>
      </trkpt>
      <trkpt lat="47.00204" lon="-1.00398">
        <ele>60.8</ele>
        <time>2025-08-25T11:22:25Z</time>
      </trkpt>
      <trkpt lat="47.00204" lon="-1.00399">
        <ele>60.8</ele>
        <time>2025-08-25T11:22:26Z</time>
      </trkpt>
      <trkpt lat="47.00205" lon="-1.00401">
        <ele>60.8</ele>
        <time>2025-08-25T11:22:27Z</time>
      </trkpt>
      <trkpt lat="47.00205" lon="-1.00403">
        <ele>60.8</ele>
        <time>2025-08-25T11:22:28Z</time>
      </trkpt>
      <trkpt lat="47.00205" lon="-1.00405">
        <ele>60.8</ele>
        <time>2025-08-25T11:22:29Z</time>
      </trkpt>
      <trkpt lat="47.00206" lon="-1.00406">
        <ele>60.8</ele>
        <time>2025-08-25T11:22:30Z</time>
      </trkpt>
      <trkpt lat="47.00206" lon="-1.00409">
        <ele>60.7</ele>
        <time>2025-08-25T11:22:31Z</time>
      </trkpt>
      <trkpt lat="47.00206" lon="-1.0041">
        <ele>60.7</ele>
        <time>2025-08-25T11:22:32Z</time>
      </trkpt>
      <trkpt lat="47.00207" lon="-1.00411">
        <ele>60.7</ele>
        <time>2025-08-25T11:22:33Z</time>
      </trkpt>
      <trkpt lat="47.00207" lon="-1.00413">
        <ele>60.7</ele>
        <time>2025-08-25T11:22:34Z</time>
      </trkpt>
      <trkpt lat="47.00207" lon="-1.00415">
        <ele>60.7</ele>
        <time>2025-08-25T11:22:35Z</time>
      </trkpt>
      <trkpt lat="47.00207" lon="-1.00417">
        <ele>60.7</ele>
        <time>2025-08-25T11:22:36Z</time>
      </trkpt>
      <trkpt lat="47.00208" lon="-1.0042">
        <ele>60.6</ele>
        <time>2025-08-25T11:22:37Z</time>
      </trkpt>
      <trkpt lat="47.00208" lon="-1.00422">
        <ele>60.6</ele>
        <time>2025-08-25T11:22:38Z</time>
      </trkpt>
      <trkpt lat="47.00208" lon="-1.00425">
        <ele>60.6</ele>
        <time>2025-08-25T11:22:39Z</time>
      </trkpt>
      <trkpt lat="47.00208" lon="-1.00426">
        <ele>60.5</ele>
        <time>2025-08-25T11:22:40Z</time>
      </trkpt>
      <trkpt lat="47.00209" lon="-1.00429">
        <ele>60.5</ele>
        <time>2025-08-25T11:22:41Z</time>
      </trkpt>
      <trkpt lat="47.00209" lon="-1.00431">
        <ele>60.4</ele>
        <time>2025-08-25T11:22:42Z</time>
      </trkpt>
      <trkpt lat="47.00209" lon="-1.00433">
        <ele>60.4</ele>
        <time>2025-08-25T11:22:43Z</time>
      </trkpt>
      <trkpt lat="47.0021" lon="-1.00435">
        <ele>60.3</ele>
        <time>2025-08-25T11:22:44Z</time>
      </trkpt>
      <trkpt lat="47.0021" lon="-1.00437">
        <ele>60.3</ele>
        <time>2025-08-25T11:22:45Z</time>
      </trkpt>
      <trkpt lat="47.0021" lon="-1.00439">
        <ele>60.2</ele>
        <time>2025-08-25T11:22:46Z</time>
      </trkpt>
      <trkpt lat="47.0021" lon="-1.00441">
        <ele>60.2</ele>
        <time>2025-08-25T11:22:47Z</time>
      </trkpt>
      <trkpt lat="47.0021" lon="-1.00443">
        <ele>60.2</ele>
        <time>2025-08-25T11:22:48Z</time>
      </trkpt>
      <trkpt lat="47.00211" lon="-1.00446">
        <ele>60.1</ele>
        <time>2025-08-25T11:22:49Z</time>
      </trkpt>
      <trkpt lat="47.00211" lon="-1.00448">
        <ele>60.1</ele>
        <time>2025-08-25T11:22:50Z</time>
      </trkpt>
      <trkpt lat="47.00211" lon="-1.0045">
        <ele>60</ele>
        <time>2025-08-25T11:22:51Z</time>
      </trkpt>
      <trkpt lat="47.00211" lon="-1.00451">
        <ele>60</ele>
        <time>2025-08-25T11:22:52Z</time>
      </trkpt>
      <trkpt lat="47.00211" lon="-1.00453">
        <ele>59.9</ele>
        <time>2025-08-25T11:22:53Z</time>
      </trkpt>
      <trkpt lat="47.00211" lon="-1.00454">
        <ele>59.9</ele>
        <time>2025-08-25T11:22:54Z</time>
      </trkpt>
      <trkpt lat="47.00211" lon="-1.00455">
        <ele>59.9</ele>
        <time>2025-08-25T11:22:55Z</time>
      </trkpt>
      <trkpt lat="47.00211" lon="-1.00457">
        <ele>59.9</ele>
        <time>2025-08-25T11:22:56Z</time>
      </trkpt>
      <trkpt lat="47.00211" lon="-1.00459">
        <ele>59.8</ele>
        <time>2025-08-25T11:22:57Z</time>
      </trkpt>
      <trkpt lat="47.00211" lon="-1.00461">
        <ele>59.8</ele>
        <time>2025-08-25T11:22:58Z</time>
      </trkpt>
      <trkpt lat="47.00211" lon="-1.00464">
        <ele>59.8</ele>
        <time>2025-08-25T11:22:59Z</time>
      </trkpt>
      <trkpt lat="47.00211" lon="-1.00465">
        <ele>59.7</ele>
        <time>2025-08-25T11:23:00Z</time>
      </trkpt>
      <trkpt lat="47.0021" lon="-1.00466">
        <ele>59.7</ele>
        <time>2025-08-25T11:23:01Z</time>
      </trkpt>
      <trkpt lat="47.0021" lon="-1.00469">
        <ele>59.7</ele>
        <time>2025-08-25T11:23:02Z</time>
      </trkpt>
      <trkpt lat="47.0021" lon="-1.00471">
        <ele>59.7</ele>
        <time>2025-08-25T11:23:03Z</time>
      </trkpt>
      <trkpt lat="47.0021" lon="-1.00472">
        <ele>59.7</ele>
        <time>2025-08-25T11:23:04Z</time>
      </trkpt>
      <trkpt lat="47.0021" lon="-1.00474">
        <ele>59.6</ele>
        <time>2025-08-25T11:23:05Z</time>
      </trkpt>
      <trkpt lat="47.0021" lon="-1.00475">
        <ele>59.6</ele>
        <time>2025-08-25T11:23:06Z</time>
      </trkpt>
      <trkpt lat="47.0021" lon="-1.00477">
        <ele>59.6</ele>
        <time>2025-08-25T11:23:07Z</time>
      </trkpt>
      <trkpt lat="47.0021" lon="-1.0048">
        <ele>59.6</ele>
        <time>2025-08-25T11:23:08Z</time>
      </trkpt>
      <trkpt lat="47.0021" lon="-1.00482">
        <ele>59.6</ele>
        <time>2025-08-25T11:23:09Z</time>
      </trkpt>
      <trkpt lat="47.0021" lon="-1.00484">
        <ele>59.6</ele>
        <time>2025-08-25T11:23:10Z</time>
      </trkpt>
      <trkpt lat="47.0021" lon="-1.00486">
        <ele>59.6</ele>
        <time>2025-08-25T11:23:11Z</time>
      </trkpt>
      <trkpt lat="47.0021" lon="-1.00489">
        <ele>59.6</ele>
        <time>2025-08-25T11:23:12Z</time>
      </trkpt>
      <trkpt lat="47.00211" lon="-1.00491">
        <ele>59.6</ele>
        <time>2025-08-25T11:23:13Z</time>
      </trkpt>
      <trkpt lat="47.00212" lon="-1.00495">
        <ele>59.6</ele>
        <time>2025-08-25T11:23:14Z</time>
      </trkpt>
      <trkpt lat="47.00212" lon="-1.00496">
        <ele>59.6</ele>
        <time>2025-08-25T11:23:15Z</time>
      </trkpt>
      <trkpt lat="47.00213" lon="-1.00498">
        <ele>59.6</ele>
        <time>2025-08-25T11:23:16Z</time>
      </trkpt>
      <trkpt lat="47.00214" lon="-1.00501">
        <ele>59.7</ele>
        <time>2025-08-25T11:23:17Z</time>
      </trkpt>
      <trkpt lat="47.00215" lon="-1.00503">
        <ele>59.7</ele>
        <time>2025-08-25T11:23:18Z</time>
      </trkpt>
      <trkpt lat="47.00215" lon="-1.00505">
        <ele>59.7</ele>
        <time>2025-08-25T11:23:19Z</time>
      </trkpt>
      <trkpt lat="47.00216" lon="-1.00508">
        <ele>59.7</ele>
        <time>2025-08-25T11:23:20Z</time>
      </trkpt>
      <trkpt lat="47.00217" lon="-1.0051">
        <ele>59.7</ele>
        <time>2025-08-25T11:23:21Z</time>
      </trkpt>
      <trkpt lat="47.00218" lon="-1.00512">
        <ele>59.8</ele>
        <time>2025-08-25T11:23:22Z</time>
      </trkpt>
      <trkpt lat="47.00218" lon="-1.00514">
        <ele>59.8</ele>
        <time>2025-08-25T11:23:23Z</time>
      </trkpt>
      <trkpt lat="47.00218" lon="-1.00516">
        <ele>59.8</ele>
        <time>2025-08-25T11:23:24Z</time>
      </trkpt>
      <trkpt lat="47.00219" lon="-1.00518">
        <ele>59.8</ele>
        <time>2025-08-25T11:23:25Z</time>
      </trkpt>
      <trkpt lat="47.00219" lon="-1.00522">
        <ele>59.9</ele>
        <time>2025-08-25T11:23:26Z</time>
      </trkpt>
      <trkpt lat="47.00219" lon="-1.00523">
        <ele>59.9</ele>
        <time>2025-08-25T11:23:27Z</time>
      </trkpt>
      <trkpt lat="47.0022" lon="-1.00524">
        <ele>59.9</ele>
        <time>2025-08-25T11:23:28Z</time>
      </trkpt>
      <trkpt lat="47.00219" lon="-1.00527">
        <ele>59.9</ele>
        <time>2025-08-25T11:23:29Z</time>
      </trkpt>
      <trkpt lat="47.00219" lon="-1.00528">
        <ele>60</ele>
        <time>2025-08-25T11:23:30Z</time>
      </trkpt>
      <trkpt lat="47.00219" lon="-1.00529">
        <ele>60</ele>
        <time>2025-08-25T11:23:31Z</time>
      </trkpt>
      <trkpt lat="47.00219" lon="-1.0053">
        <ele>60</ele>
        <time>2025-08-25T11:23:32Z</time>
      </trkpt>
      <trkpt lat="47.00218" lon="-1.00532">
        <ele>60</ele>
        <time>2025-08-25T11:23:33Z</time>
      </trkpt>
      <trkpt lat="47.00218" lon="-1.00533">
        <ele>60</ele>
        <time>2025-08-25T11:23:34Z</time>
      </trkpt>
      <trkpt lat="47.00218" lon="-1.00534">
        <ele>60</ele>
        <time>2025-08-25T11:23:35Z</time>
      </trkpt>
      <trkpt lat="47.00217" lon="-1.00536">
        <ele>60.1</ele>
        <time>2025-08-25T11:23:36Z</time>
      </trkpt>
      <trkpt lat="47.00217" lon="-1.00537">
        <ele>60.1</ele>
        <time>2025-08-25T11:23:37Z</time>
      </trkpt>
      <trkpt lat="47.00217" lon="-1.00538">
        <ele>60.1</ele>
        <time>2025-08-25T11:23:38Z</time>
      </trkpt>
      <trkpt lat="47.00217" lon="-1.00539">
        <ele>60.1</ele>
        <time>2025-08-25T11:23:39Z</time>
      </trkpt>
      <trkpt lat="47.00216" lon="-1.00541">
        <ele>60.1</ele>
        <time>2025-08-25T11:23:40Z</time>
      </trkpt>
      <trkpt lat="47.00216" lon="-1.00543">
        <ele>60.1</ele>
        <time>2025-08-25T11:23:41Z</time>
      </trkpt>
      <trkpt lat="47.00216" lon="-1.00544">
        <ele>60.1</ele>
        <time>2025-08-25T11:23:42Z</time>
      </trkpt>
      <trkpt lat="47.00215" lon="-1.00545">
        <ele>60.1</ele>
        <time>2025-08-25T11:23:43Z</time>
      </trkpt>
      <trkpt lat="47.00215" lon="-1.00546">
        <ele>60.1</ele>
        <time>2025-08-25T11:23:44Z</time>
      </trkpt>
      <trkpt lat="47.00215" lon="-1.00548">
        <ele>60.1</ele>
        <time>2025-08-25T11:23:45Z</time>
      </trkpt>
      <trkpt lat="47.00214" lon="-1.0055">
        <ele>60.1</ele>
        <time>2025-08-25T11:23:46Z</time>
      </trkpt>
      <trkpt lat="47.00214" lon="-1.00551">
        <ele>60.1</ele>
        <time>2025-08-25T11:23:47Z</time>
      </trkpt>
      <trkpt lat="47.00214" lon="-1.00552">
        <ele>60.1</ele>
        <time>2025-08-25T11:23:48Z</time>
      </trkpt>
      <trkpt lat="47.00214" lon="-1.00556">
        <ele>60.1</ele>
        <time>2025-08-25T11:23:49Z</time>
      </trkpt>
      <trkpt lat="47.00214" lon="-1.00557">
        <ele>60.1</ele>
        <time>2025-08-25T11:23:50Z</time>
      </trkpt>
      <trkpt lat="47.00214" lon="-1.00559">
        <ele>60.1</ele>
        <time>2025-08-25T11:23:51Z</time>
      </trkpt>
      <trkpt lat="47.00214" lon="-1.0056">
        <ele>60.1</ele>
        <time>2025-08-25T11:23:52Z</time>
      </trkpt>
      <trkpt lat="47.00213" lon="-1.00562">
        <ele>60.1</ele>
        <time>2025-08-25T11:23:53Z</time>
      </trkpt>
      <trkpt lat="47.00213" lon="-1.00564">
        <ele>60.1</ele>
        <time>2025-08-25T11:23:54Z</time>
      </trkpt>
      <trkpt lat="47.00213" lon="-1.00566">
        <ele>60.1</ele>
        <time>2025-08-25T11:23:55Z</time>
      </trkpt>
      <trkpt lat="47.00212" lon="-1.00568">
        <ele>60.1</ele>
        <time>2025-08-25T11:23:56Z</time>
      </trkpt>
      <trkpt lat="47.00212" lon="-1.0057">
        <ele>60.1</ele>
        <time>2025-08-25T11:23:57Z</time>
      </trkpt>
      <trkpt lat="47.00212" lon="-1.00571">
        <ele>60.1</ele>
        <time>2025-08-25T11:23:58Z</time>
      </trkpt>
      <trkpt lat="47.00212" lon="-1.00573">
        <ele>60.1</ele>
        <time>2025-08-25T11:23:59Z</time>
      </trkpt>
      <trkpt lat="47.00212" lon="-1.00577">
        <ele>60.1</ele>
        <time>2025-08-25T11:24:00Z</time>
      </trkpt>
      <trkpt lat="47.00213" lon="-1.00578">
        <ele>60.1</ele>
        <time>2025-08-25T11:24:01Z</time>
      </trkpt>
      <trkpt lat="47.00213" lon="-1.00579">
        <ele>60.1</ele>
        <time>2025-08-25T11:24:02Z</time>
      </trkpt>
      <trkpt lat="47.00213" lon="-1.00582">
        <ele>60.1</ele>
        <time>2025-08-25T11:24:03Z</time>
      </trkpt>
      <trkpt lat="47.00213" lon="-1.00584">
        <ele>60.1</ele>
        <time>2025-08-25T11:24:04Z</time>
      </trkpt>
      <trkpt lat="47.00213" lon="-1.00585">
        <ele>60.1</ele>
        <time>2025-08-25T11:24:05Z</time>
      </trkpt>
      <trkpt lat="47.00214" lon="-1.00588">
        <ele>60.1</ele>
        <time>2025-08-25T11:24:06Z</time>
      </trkpt>
      <trkpt lat="47.00214" lon="-1.00589">
        <ele>60.1</ele>
        <time>2025-08-25T11:24:07Z</time>
      </trkpt>
      <trkpt lat="47.00214" lon="-1.0059">
        <ele>60.1</ele>
        <time>2025-08-25T11:24:08Z</time>
      </trkpt>
      <trkpt lat="47.00215" lon="-1.00592">
        <ele>60.1</ele>
        <time>2025-08-25T11:24:09Z</time>
      </trkpt>
      <trkpt lat="47.00215" lon="-1.00594">
        <ele>60.2</ele>
        <time>2025-08-25T11:24:10Z</time>
      </trkpt>
      <trkpt lat="47.00215" lon="-1.00596">
        <ele>60.2</ele>
        <time>2025-08-25T11:24:11Z</time>
      </trkpt>
      <trkpt lat="47.00215" lon="-1.00599">
        <ele>60.2</ele>
        <time>2025-08-25T11:24:12Z</time>
      </trkpt>
      <trkpt lat="47.00216" lon="-1.00601">
        <ele>60.2</ele>
        <time>2025-08-25T11:24:13Z</time>
      </trkpt>
      <trkpt lat="47.00216" lon="-1.00604">
        <ele>60.2</ele>
        <time>2025-08-25T11:24:14Z</time>
      </trkpt>
      <trkpt lat="47.00216" lon="-1.00606">
        <ele>60.3</ele>
        <time>2025-08-25T11:24:15Z</time>
      </trkpt>
      <trkpt lat="47.00216" lon="-1.00609">
        <ele>60.3</ele>
        <time>2025-08-25T11:24:16Z</time>
      </trkpt>
      <trkpt lat="47.00216" lon="-1.00611">
        <ele>60.3</ele>
        <time>2025-08-25T11:24:17Z</time>
      </trkpt>
      <trkpt lat="47.00216" lon="-1.00613">
        <ele>60.4</ele>
        <time>2025-08-25T11:24:18Z</time>
      </trkpt>
      <trkpt lat="47.00216" lon="-1.00616">
        <ele>60.4</ele>
        <time>2025-08-25T11:24:19Z</time>
      </trkpt>
      <trkpt lat="47.00215" lon="-1.00618">
        <ele>60.5</ele>
        <time>2025-08-25T11:24:20Z</time>
      </trkpt>
      <trkpt lat="47.00215" lon="-1.0062">
        <ele>60.5</ele>
        <time>2025-08-25T11:24:21Z</time>
      </trkpt>
      <trkpt lat="47.00215" lon="-1.00622">
        <ele>60.5</ele>
        <time>2025-08-25T11:24:22Z</time>
      </trkpt>
      <trkpt lat="47.00214" lon="-1.00625">
        <ele>60.6</ele>
        <time>2025-08-25T11:24:23Z</time>
      </trkpt>
      <trkpt lat="47.00214" lon="-1.00626">
        <ele>60.6</ele>
        <time>2025-08-25T11:24:24Z</time>
      </trkpt>
      <trkpt lat="47.00214" lon="-1.00627">
        <ele>60.7</ele>
        <time>2025-08-25T11:24:25Z</time>
      </trkpt>
      <trkpt lat="47.00213" lon="-1.00628">
        <ele>60.7</ele>
        <time>2025-08-25T11:24:26Z</time>
      </trkpt>
      <trkpt lat="47.00213" lon="-1.0063">
        <ele>60.7</ele>
        <time>2025-08-25T11:24:27Z</time>
      </trkpt>
      <trkpt lat="47.00213" lon="-1.00631">
        <ele>60.8</ele>
        <time>2025-08-25T11:24:28Z</time>
      </trkpt>
      <trkpt lat="47.00212" lon="-1.00632">
        <ele>60.8</ele>
        <time>2025-08-25T11:24:29Z</time>
      </trkpt>
      <trkpt lat="47.00212" lon="-1.00633">
        <ele>60.8</ele>
        <time>2025-08-25T11:24:30Z</time>
      </trkpt>
      <trkpt lat="47.00212" lon="-1.00635">
        <ele>60.9</ele>
        <time>2025-08-25T11:24:31Z</time>
      </trkpt>
      <trkpt lat="47.00211" lon="-1.00636">
        <ele>60.9</ele>
        <time>2025-08-25T11:24:32Z</time>
      </trkpt>
      <trkpt lat="47.00211" lon="-1.00637">
        <ele>60.9</ele>
        <time>2025-08-25T11:24:33Z</time>
      </trkpt>
      <trkpt lat="47.00211" lon="-1.00639">
        <ele>61</ele>
        <time>2025-08-25T11:24:34Z</time>
      </trkpt>
      <trkpt lat="47.0021" lon="-1.0064">
        <ele>61</ele>
        <time>2025-08-25T11:24:35Z</time>
      </trkpt>
      <trkpt lat="47.0021" lon="-1.00642">
        <ele>61.1</ele>
        <time>2025-08-25T11:24:36Z</time>
      </trkpt>
      <trkpt lat="47.0021" lon="-1.00643">
        <ele>61.1</ele>
        <time>2025-08-25T11:24:37Z</time>
      </trkpt>
      <trkpt lat="47.0021" lon="-1.00645">
        <ele>61.1</ele>
        <time>2025-08-25T11:24:38Z</time>
      </trkpt>
      <trkpt lat="47.0021" lon="-1.00646">
        <ele>61.2</ele>
        <time>2025-08-25T11:24:39Z</time>
      </trkpt>
      <trkpt lat="47.0021" lon="-1.00648">
        <ele>61.2</ele>
        <time>2025-08-25T11:24:40Z</time>
      </trkpt>
      <trkpt lat="47.0021" lon="-1.00649">
        <ele>61.3</ele>
        <time>2025-08-25T11:24:41Z</time>
      </trkpt>
      <trkpt lat="47.0021" lon="-1.00651">
        <ele>61.3</ele>
        <time>2025-08-25T11:24:42Z</time>
      </trkpt>
      <trkpt lat="47.0021" lon="-1.00653">
        <ele>61.4</ele>
        <time>2025-08-25T11:24:43Z</time>
      </trkpt>
      <trkpt lat="47.0021" lon="-1.00656">
        <ele>61.4</ele>
        <time>2025-08-25T11:24:44Z</time>
      </trkpt>
      <trkpt lat="47.0021" lon="-1.00657">
        <ele>61.5</ele>
        <time>2025-08-25T11:24:45Z</time>
      </trkpt>
      <trkpt lat="47.0021" lon="-1.00659">
        <ele>61.5</ele>
        <time>2025-08-25T11:24:46Z</time>
      </trkpt>
      <trkpt lat="47.0021" lon="-1.00662">
        <ele>61.6</ele>
        <time>2025-08-25T11:24:47Z</time>
      </trkpt>
      <trkpt lat="47.0021" lon="-1.00663">
        <ele>61.6</ele>
        <time>2025-08-25T11:24:48Z</time>
      </trkpt>
      <trkpt lat="47.0021" lon="-1.00665">
        <ele>61.7</ele>
        <time>2025-08-25T11:24:49Z</time>
      </trkpt>
      <trkpt lat="47.0021" lon="-1.00668">
        <ele>61.8</ele>
        <time>2025-08-25T11:24:50Z</time>
      </trkpt>
      <trkpt lat="47.0021" lon="-1.00669">
        <ele>61.8</ele>
        <time>2025-08-25T11:24:51Z</time>
      </trkpt>
      <trkpt lat="47.0021" lon="-1.0067">
        <ele>61.8</ele>
        <time>2025-08-25T11:24:52Z</time>
      </trkpt>
      <trkpt lat="47.0021" lon="-1.00673">
        <ele>61.9</ele>
        <time>2025-08-25T11:24:53Z</time>
      </trkpt>
      <trkpt lat="47.0021" lon="-1.00675">
        <ele>61.9</ele>
        <time>2025-08-25T11:24:54Z</time>
      </trkpt>
      <trkpt lat="47.0021" lon="-1.00677">
        <ele>61.9</ele>
        <time>2025-08-25T11:24:55Z</time>
      </trkpt>
      <trkpt lat="47.0021" lon="-1.00679">
        <ele>62</ele>
        <time>2025-08-25T11:24:56Z</time>
      </trkpt>
      <trkpt lat="47.0021" lon="-1.00681">
        <ele>62</ele>
        <time>2025-08-25T11:24:57Z</time>
      </trkpt>
      <trkpt lat="47.0021" lon="-1.00684">
        <ele>62.1</ele>
        <time>2025-08-25T11:24:58Z</time>
      </trkpt>
      <trkpt lat="47.00211" lon="-1.00686">
        <ele>62.1</ele>
        <time>2025-08-25T11:24:59Z</time>
      </trkpt>
      <trkpt lat="47.00211" lon="-1.00688">
        <ele>62.1</ele>
        <time>2025-08-25T11:25:00Z</time>
      </trkpt>
      <trkpt lat="47.00211" lon="-1.0069">
        <ele>62.1</ele>
        <time>2025-08-25T11:25:01Z</time>
      </trkpt>
      <trkpt lat="47.00211" lon="-1.00692">
        <ele>62.2</ele>
        <time>2025-08-25T11:25:02Z</time>
      </trkpt>
      <trkpt lat="47.00212" lon="-1.00694">
        <ele>62.2</ele>
        <time>2025-08-25T11:25:03Z</time>
      </trkpt>
      <trkpt lat="47.00212" lon="-1.00696">
        <ele>62.2</ele>
        <time>2025-08-25T11:25:04Z</time>
      </trkpt>
      <trkpt lat="47.00213" lon="-1.00698">
        <ele>62.2</ele>
        <time>2025-08-25T11:25:05Z</time>
      </trkpt>
      <trkpt lat="47.00213" lon="-1.007">
        <ele>62.2</ele>
        <time>2025-08-25T11:25:06Z</time>
      </trkpt>
      <trkpt lat="47.00214" lon="-1.00702">
        <ele>62.2</ele>
        <time>2025-08-25T11:25:07Z</time>
      </trkpt>
      <trkpt lat="47.00214" lon="-1.00704">
        <ele>62.3</ele>
        <time>2025-08-25T11:25:08Z</time>
      </trkpt>
      <trkpt lat="47.00215" lon="-1.00706">
        <ele>62.3</ele>
        <time>2025-08-25T11:25:09Z</time>
      </trkpt>
      <trkpt lat="47.00215" lon="-1.00708">
        <ele>62.3</ele>
        <time>2025-08-25T11:25:10Z</time>
      </trkpt>
      <trkpt lat="47.00216" lon="-1.0071">
        <ele>62.3</ele>
        <time>2025-08-25T11:25:11Z</time>
      </trkpt>
      <trkpt lat="47.00216" lon="-1.00712">
        <ele>62.3</ele>
        <time>2025-08-25T11:25:12Z</time>
      </trkpt>
      <trkpt lat="47.00217" lon="-1.00714">
        <ele>62.3</ele>
        <time>2025-08-25T11:25:13Z</time>
      </trkpt>
      <trkpt lat="47.00217" lon="-1.00716">
        <ele>62.4</ele>
        <time>2025-08-25T11:25:14Z</time>
      </trkpt>
      <trkpt lat="47.00218" lon="-1.00718">
        <ele>62.4</ele>
        <time>2025-08-25T11:25:15Z</time>
      </trkpt>
      <trkpt lat="47.00218" lon="-1.0072">
        <ele>62.4</ele>
        <time>2025-08-25T11:25:16Z</time>
      </trkpt>
      <trkpt lat="47.00219" lon="-1.00722">
        <ele>62.4</ele>
        <time>2025-08-25T11:25:17Z</time>
      </trkpt>
      <trkpt lat="47.00219" lon="-1.00724">
        <ele>62.4</ele>
        <time>2025-08-25T11:25:18Z</time>
      </trkpt>
      <trkpt lat="47.00219" lon="-1.00726">
        <ele>62.4</ele>
        <time>2025-08-25T11:25:19Z</time>
      </trkpt>
      <trkpt lat="47.0022" lon="-1.00728">
        <ele>62.5</ele>
        <time>2025-08-25T11:25:20Z</time>
      </trkpt>
      <trkpt lat="47.0022" lon="-1.0073">
        <ele>62.5</ele>
        <time>2025-08-25T11:25:21Z</time>
      </trkpt>
      <trkpt lat="47.0022" lon="-1.00733">
        <ele>62.5</ele>
        <time>2025-08-25T11:25:22Z</time>
      </trkpt>
      <trkpt lat="47.0022" lon="-1.00735">
        <ele>62.5</ele>
        <time>2025-08-25T11:25:23Z</time>
      </trkpt>
      <trkpt lat="47.0022" lon="-1.00737">
        <ele>62.5</ele>
        <time>2025-08-25T11:25:24Z</time>
      </trkpt>
      <trkpt lat="47.0022" lon="-1.00739">
        <ele>62.6</ele>
        <time>2025-08-25T11:25:25Z</time>
      </trkpt>
      <trkpt lat="47.00221" lon="-1.00741">
        <ele>62.6</ele>
        <time>2025-08-25T11:25:26Z</time>
      </trkpt>
      <trkpt lat="47.00221" lon="-1.00743">
        <ele>62.6</ele>
        <time>2025-08-25T11:25:27Z</time>
      </trkpt>
      <trkpt lat="47.00221" lon="-1.00746">
        <ele>62.6</ele>
        <time>2025-08-25T11:25:28Z</time>
      </trkpt>
      <trkpt lat="47.00221" lon="-1.00748">
        <ele>62.7</ele>
        <time>2025-08-25T11:25:29Z</time>
      </trkpt>
      <trkpt lat="47.00221" lon="-1.0075">
        <ele>62.7</ele>
        <time>2025-08-25T11:25:30Z</time>
      </trkpt>
      <trkpt lat="47.00221" lon="-1.00753">
        <ele>62.7</ele>
        <time>2025-08-25T11:25:31Z</time>
      </trkpt>
      <trkpt lat="47.00221" lon="-1.00755">
        <ele>62.8</ele>
        <time>2025-08-25T11:25:32Z</time>
      </trkpt>
      <trkpt lat="47.00221" lon="-1.00757">
        <ele>62.8</ele>
        <time>2025-08-25T11:25:33Z</time>
      </trkpt>
      <trkpt lat="47.00221" lon="-1.00759">
        <ele>62.8</ele>
        <time>2025-08-25T11:25:34Z</time>
      </trkpt>
      <trkpt lat="47.00221" lon="-1.00761">
        <ele>62.8</ele>
        <time>2025-08-25T11:25:35Z</time>
      </trkpt>
      <trkpt lat="47.0022" lon="-1.00763">
        <ele>62.9</ele>
        <time>2025-08-25T11:25:36Z</time>
      </trkpt>
      <trkpt lat="47.0022" lon="-1.00765">
        <ele>62.9</ele>
        <time>2025-08-25T11:25:37Z</time>
      </trkpt>
      <trkpt lat="47.0022" lon="-1.00767">
        <ele>62.9</ele>
        <time>2025-08-25T11:25:38Z</time>
      </trkpt>
      <trkpt lat="47.0022" lon="-1.00768">
        <ele>62.9</ele>
        <time>2025-08-25T11:25:39Z</time>
      </trkpt>
      <trkpt lat="47.0022" lon="-1.0077">
        <ele>62.9</ele>
        <time>2025-08-25T11:25:40Z</time>
      </trkpt>
      <trkpt lat="47.00219" lon="-1.00772">
        <ele>63</ele>
        <time>2025-08-25T11:25:41Z</time>
      </trkpt>
      <trkpt lat="47.00219" lon="-1.00773">
        <ele>63</ele>
        <time>2025-08-25T11:25:42Z</time>
      </trkpt>
      <trkpt lat="47.00219" lon="-1.00774">
        <ele>63</ele>
        <time>2025-08-25T11:25:43Z</time>
      </trkpt>
      <trkpt lat="47.00219" lon="-1.00776">
        <ele>63</ele>
        <time>2025-08-25T11:25:44Z</time>
      </trkpt>
      <trkpt lat="47.0022" lon="-1.00778">
        <ele>63</ele>
        <time>2025-08-25T11:25:45Z</time>
      </trkpt>
      <trkpt lat="47.0022" lon="-1.0078">
        <ele>63</ele>
        <time>2025-08-25T11:25:46Z</time>
      </trkpt>
      <trkpt lat="47.0022" lon="-1.00782">
        <ele>63</ele>
        <time>2025-08-25T11:25:47Z</time>
      </trkpt>
      <trkpt lat="47.00221" lon="-1.00784">
        <ele>63</ele>
        <time>2025-08-25T11:25:48Z</time>
      </trkpt>
      <trkpt lat="47.00221" lon="-1.00786">
        <ele>63</ele>
        <time>2025-08-25T11:25:49Z</time>
      </trkpt>
      <trkpt lat="47.00222" lon="-1.0079">
        <ele>63</ele>
        <time>2025-08-25T11:25:50Z</time>
      </trkpt>
      <trkpt lat="47.00222" lon="-1.00791">
        <ele>63</ele>
        <time>2025-08-25T11:25:51Z</time>
      </trkpt>
      <trkpt lat="47.00222" lon="-1.00793">
        <ele>63</ele>
        <time>2025-08-25T11:25:52Z</time>
      </trkpt>
      <trkpt lat="47.00222" lon="-1.00795">
        <ele>63</ele>
        <time>2025-08-25T11:25:53Z</time>
      </trkpt>
      <trkpt lat="47.00222" lon="-1.00797">
        <ele>63</ele>
        <time>2025-08-25T11:25:54Z</time>
      </trkpt>
      <trkpt lat="47.00222" lon="-1.008">
        <ele>63</ele>
        <time>2025-08-25T11:25:55Z</time>
      </trkpt>
      <trkpt lat="47.00222" lon="-1.00801">
        <ele>63</ele>
        <time>2025-08-25T11:25:56Z</time>
      </trkpt>
      <trkpt lat="47.00222" lon="-1.00802">
        <ele>63</ele>
        <time>2025-08-25T11:25:57Z</time>
      </trkpt>
      <trkpt lat="47.00223" lon="-1.00804">
        <ele>63</ele>
        <time>2025-08-25T11:25:58Z</time>
      </trkpt>
      <trkpt lat="47.00223" lon="-1.00806">
        <ele>63</ele>
        <time>2025-08-25T11:25:59Z</time>
      </trkpt>
      <trkpt lat="47.00223" lon="-1.00807">
        <ele>63</ele>
        <time>2025-08-25T11:26:00Z</time>
      </trkpt>
      <trkpt lat="47.00223" lon="-1.00808">
        <ele>63</ele>
        <time>2025-08-25T11:26:01Z</time>
      </trkpt>
      <trkpt lat="47.00223" lon="-1.00809">
        <ele>63</ele>
        <time>2025-08-25T11:26:02Z</time>
      </trkpt>
      <trkpt lat="47.00223" lon="-1.0081">
        <ele>62.9</ele>
        <time>2025-08-25T11:26:03Z</time>
      </trkpt>
      <trkpt lat="47.00222" lon="-1.00811">
        <ele>62.9</ele>
        <time>2025-08-25T11:26:04Z</time>
      </trkpt>
      <trkpt lat="47.00222" lon="-1.00813">
        <ele>62.9</ele>
        <time>2025-08-25T11:26:05Z</time>
      </trkpt>
      <trkpt lat="47.00222" lon="-1.00814">
        <ele>62.9</ele>
        <time>2025-08-25T11:26:06Z</time>
      </trkpt>
      <trkpt lat="47.00222" lon="-1.00816">
        <ele>62.9</ele>
        <time>2025-08-25T11:26:07Z</time>
      </trkpt>
      <trkpt lat="47.00222" lon="-1.00818">
        <ele>62.9</ele>
        <time>2025-08-25T11:26:08Z</time>
      </trkpt>
      <trkpt lat="47.00222" lon="-1.00821">
        <ele>62.9</ele>
        <time>2025-08-25T11:26:09Z</time>
      </trkpt>
      <trkpt lat="47.00222" lon="-1.00823">
        <ele>62.9</ele>
        <time>2025-08-25T11:26:10Z</time>
      </trkpt>
      <trkpt lat="47.00222" lon="-1.00825">
        <ele>62.8</ele>
        <time>2025-08-25T11:26:11Z</time>
      </trkpt>
      <trkpt lat="47.00223" lon="-1.00827">
        <ele>62.8</ele>
        <time>2025-08-25T11:26:12Z</time>
      </trkpt>
      <trkpt lat="47.00223" lon="-1.0083">
        <ele>62.8</ele>
        <time>2025-08-25T11:26:13Z</time>
      </trkpt>
      <trkpt lat="47.00224" lon="-1.00832">
        <ele>62.8</ele>
        <time>2025-08-25T11:26:14Z</time>
      </trkpt>
      <trkpt lat="47.00224" lon="-1.00834">
        <ele>62.8</ele>
        <time>2025-08-25T11:26:15Z</time>
      </trkpt>
      <trkpt lat="47.00224" lon="-1.00836">
        <ele>62.8</ele>
        <time>2025-08-25T11:26:16Z</time>
      </trkpt>
      <trkpt lat="47.00224" lon="-1.00838">
        <ele>62.7</ele>
        <time>2025-08-25T11:26:17Z</time>
      </trkpt>
      <trkpt lat="47.00224" lon="-1.00841">
        <ele>62.7</ele>
        <time>2025-08-25T11:26:18Z</time>
      </trkpt>
      <trkpt lat="47.00225" lon="-1.00843">
        <ele>62.7</ele>
        <time>2025-08-25T11:26:19Z</time>
      </trkpt>
      <trkpt lat="47.00225" lon="-1.00846">
        <ele>62.7</ele>
        <time>2025-08-25T11:26:20Z</time>
      </trkpt>
      <trkpt lat="47.00225" lon="-1.00848">
        <ele>62.7</ele>
        <time>2025-08-25T11:26:21Z</time>
      </trkpt>
      <trkpt lat="47.00225" lon="-1.0085">
        <ele>62.7</ele>
        <time>2025-08-25T11:26:22Z</time>
      </trkpt>
      <trkpt lat="47.00224" lon="-1.00852">
        <ele>62.7</ele>
        <time>2025-08-25T11:26:23Z</time>
      </trkpt>
      <trkpt lat="47.00224" lon="-1.00854">
        <ele>62.7</ele>
        <time>2025-08-25T11:26:24Z</time>
      </trkpt>
      <trkpt lat="47.00224" lon="-1.00856">
        <ele>62.7</ele>
        <time>2025-08-25T11:26:25Z</time>
      </trkpt>
      <trkpt lat="47.00224" lon="-1.00859">
        <ele>62.7</ele>
        <time>2025-08-25T11:26:26Z</time>
      </trkpt>
      <trkpt lat="47.00223" lon="-1.00861">
        <ele>62.7</ele>
        <time>2025-08-25T11:26:27Z</time>
      </trkpt>
      <trkpt lat="47.00223" lon="-1.00863">
        <ele>62.7</ele>
        <time>2025-08-25T11:26:28Z</time>
      </trkpt>
      <trkpt lat="47.00223" lon="-1.00865">
        <ele>62.7</ele>
        <time>2025-08-25T11:26:29Z</time>
      </trkpt>
      <trkpt lat="47.00223" lon="-1.00868">
        <ele>62.7</ele>
        <time>2025-08-25T11:26:30Z</time>
      </trkpt>
      <trkpt lat="47.00223" lon="-1.0087">
        <ele>62.7</ele>
        <time>2025-08-25T11:26:31Z</time>
      </trkpt>
      <trkpt lat="47.00222" lon="-1.00872">
        <ele>62.7</ele>
        <time>2025-08-25T11:26:32Z</time>
      </trkpt>
      <trkpt lat="47.00222" lon="-1.00874">
        <ele>62.7</ele>
        <time>2025-08-25T11:26:33Z</time>
      </trkpt>
      <trkpt lat="47.00221" lon="-1.00876">
        <ele>62.7</ele>
        <time>2025-08-25T11:26:34Z</time>
      </trkpt>
      <trkpt lat="47.00221" lon="-1.00879">
        <ele>62.7</ele>
        <time>2025-08-25T11:26:35Z</time>
      </trkpt>
      <trkpt lat="47.00221" lon="-1.0088">
        <ele>62.7</ele>
        <time>2025-08-25T11:26:36Z</time>
      </trkpt>
      <trkpt lat="47.00221" lon="-1.00882">
        <ele>62.7</ele>
        <time>2025-08-25T11:26:37Z</time>
      </trkpt>
      <trkpt lat="47.00221" lon="-1.00883">
        <ele>62.7</ele>
        <time>2025-08-25T11:26:38Z</time>
      </trkpt>
      <trkpt lat="47.0022" lon="-1.00885">
        <ele>62.7</ele>
        <time>2025-08-25T11:26:39Z</time>
      </trkpt>
      <trkpt lat="47.0022" lon="-1.00887">
        <ele>62.7</ele>
        <time>2025-08-25T11:26:40Z</time>
      </trkpt>
      <trkpt lat="47.0022" lon="-1.00888">
        <ele>62.7</ele>
        <time>2025-08-25T11:26:41Z</time>
      </trkpt>
      <trkpt lat="47.0022" lon="-1.0089">
        <ele>62.7</ele>
        <time>2025-08-25T11:26:42Z</time>
      </trkpt>
      <trkpt lat="47.00221" lon="-1.00891">
        <ele>62.7</ele>
        <time>2025-08-25T11:26:43Z</time>
      </trkpt>
      <trkpt lat="47.00221" lon="-1.00893">
        <ele>62.7</ele>
        <time>2025-08-25T11:26:44Z</time>
      </trkpt>
      <trkpt lat="47.00221" lon="-1.00896">
        <ele>62.7</ele>
        <time>2025-08-25T11:26:45Z</time>
      </trkpt>
      <trkpt lat="47.00221" lon="-1.00897">
        <ele>62.7</ele>
        <time>2025-08-25T11:26:46Z</time>
      </trkpt>
      <trkpt lat="47.00221" lon="-1.00898">
        <ele>62.7</ele>
        <time>2025-08-25T11:26:47Z</time>
      </trkpt>
      <trkpt lat="47.00221" lon="-1.009">
        <ele>62.7</ele>
        <time>2025-08-25T11:26:48Z</time>
      </trkpt>
      <trkpt lat="47.00221" lon="-1.00903">
        <ele>62.7</ele>
        <time>2025-08-25T11:26:49Z</time>
      </trkpt>
      <trkpt lat="47.00221" lon="-1.00905">
        <ele>62.8</ele>
        <time>2025-08-25T11:26:50Z</time>
      </trkpt>
      <trkpt lat="47.00221" lon="-1.00908">
        <ele>62.8</ele>
        <time>2025-08-25T11:26:51Z</time>
      </trkpt>
      <trkpt lat="47.00221" lon="-1.0091">
        <ele>62.8</ele>
        <time>2025-08-25T11:26:52Z</time>
      </trkpt>
      <trkpt lat="47.00221" lon="-1.00913">
        <ele>62.8</ele>
        <time>2025-08-25T11:26:53Z</time>
      </trkpt>
      <trkpt lat="47.00221" lon="-1.00915">
        <ele>62.8</ele>
        <time>2025-08-25T11:26:54Z</time>
      </trkpt>
      <trkpt lat="47.00221" lon="-1.00918">
        <ele>62.8</ele>
        <time>2025-08-25T11:26:55Z</time>
      </trkpt>
      <trkpt lat="47.00222" lon="-1.0092">
        <ele>62.8</ele>
        <time>2025-08-25T11:26:56Z</time>
      </trkpt>
      <trkpt lat="47.00222" lon="-1.00922">
        <ele>62.8</ele>
        <time>2025-08-25T11:26:57Z</time>
      </trkpt>
      <trkpt lat="47.00222" lon="-1.00925">
        <ele>62.8</ele>
        <time>2025-08-25T11:26:58Z</time>
      </trkpt>
      <trkpt lat="47.00223" lon="-1.00927">
        <ele>62.8</ele>
        <time>2025-08-25T11:26:59Z</time>
      </trkpt>
      <trkpt lat="47.00224" lon="-1.00932">
        <ele>62.9</ele>
        <time>2025-08-25T11:27:01Z</time>
      </trkpt>
      <trkpt lat="47.00224" lon="-1.00935">
        <ele>62.9</ele>
        <time>2025-08-25T11:27:02Z</time>
      </trkpt>
      <trkpt lat="47.00224" lon="-1.00937">
        <ele>62.9</ele>
        <time>2025-08-25T11:27:03Z</time>
      </trkpt>
      <trkpt lat="47.00225" lon="-1.00939">
        <ele>62.9</ele>
        <time>2025-08-25T11:27:04Z</time>
      </trkpt>
      <trkpt lat="47.00225" lon="-1.00942">
        <ele>62.9</ele>
        <time>2025-08-25T11:27:05Z</time>
      </trkpt>
      <trkpt lat="47.00225" lon="-1.00945">
        <ele>62.9</ele>
        <time>2025-08-25T11:27:06Z</time>
      </trkpt>
      <trkpt lat="47.00225" lon="-1.00947">
        <ele>62.8</ele>
        <time>2025-08-25T11:27:07Z</time>
      </trkpt>
      <trkpt lat="47.00226" lon="-1.0095">
        <ele>62.8</ele>
        <time>2025-08-25T11:27:08Z</time>
      </trkpt>
      <trkpt lat="47.00226" lon="-1.00953">
        <ele>62.8</ele>
        <time>2025-08-25T11:27:09Z</time>
      </trkpt>
      <trkpt lat="47.00226" lon="-1.00956">
        <ele>62.8</ele>
        <time>2025-08-25T11:27:10Z</time>
      </trkpt>
      <trkpt lat="47.00226" lon="-1.00957">
        <ele>62.8</ele>
        <time>2025-08-25T11:27:11Z</time>
      </trkpt>
      <trkpt lat="47.00227" lon="-1.00958">
        <ele>62.8</ele>
        <time>2025-08-25T11:27:12Z</time>
      </trkpt>
      <trkpt lat="47.00227" lon="-1.00961">
        <ele>62.8</ele>
        <time>2025-08-25T11:27:13Z</time>
      </trkpt>
      <trkpt lat="47.00227" lon="-1.00962">
        <ele>62.8</ele>
        <time>2025-08-25T11:27:14Z</time>
      </trkpt>
      <trkpt lat="47.00227" lon="-1.00964">
        <ele>62.8</ele>
        <time>2025-08-25T11:27:15Z</time>
      </trkpt>
      <trkpt lat="47.00227" lon="-1.00964">
        <ele>62.8</ele>
        <time>2025-08-25T11:27:16Z</time>
      </trkpt>
      <trkpt lat="47.00226" lon="-1.00967">
        <ele>62.8</ele>
        <time>2025-08-25T11:27:17Z</time>
      </trkpt>
      <trkpt lat="47.00226" lon="-1.00968">
        <ele>62.8</ele>
        <time>2025-08-25T11:27:18Z</time>
      </trkpt>
      <trkpt lat="47.00226" lon="-1.00972">
        <ele>62.8</ele>
        <time>2025-08-25T11:27:19Z</time>
      </trkpt>
      <trkpt lat="47.00226" lon="-1.00973">
        <ele>62.8</ele>
        <time>2025-08-25T11:27:20Z</time>
      </trkpt>
      <trkpt lat="47.00226" lon="-1.00974">
        <ele>62.8</ele>
        <time>2025-08-25T11:27:21Z</time>
      </trkpt>
      <trkpt lat="47.00225" lon="-1.00975">
        <ele>62.8</ele>
        <time>2025-08-25T11:27:22Z</time>
      </trkpt>
      <trkpt lat="47.00225" lon="-1.00977">
        <ele>62.8</ele>
        <time>2025-08-25T11:27:23Z</time>
      </trkpt>
      <trkpt lat="47.00226" lon="-1.00979">
        <ele>62.8</ele>
        <time>2025-08-25T11:27:24Z</time>
      </trkpt>
      <trkpt lat="47.00226" lon="-1.0098">
        <ele>62.8</ele>
        <time>2025-08-25T11:27:25Z</time>
      </trkpt>
      <trkpt lat="47.00226" lon="-1.00982">
        <ele>62.8</ele>
        <time>2025-08-25T11:27:26Z</time>
      </trkpt>
      <trkpt lat="47.00226" lon="-1.00983">
        <ele>62.8</ele>
        <time>2025-08-25T11:27:27Z</time>
      </trkpt>
      <trkpt lat="47.00226" lon="-1.00985">
        <ele>62.8</ele>
        <time>2025-08-25T11:27:28Z</time>
      </trkpt>
      <trkpt lat="47.00226" lon="-1.00987">
        <ele>62.8</ele>
        <time>2025-08-25T11:27:29Z</time>
      </trkpt>
      <trkpt lat="47.00226" lon="-1.00988">
        <ele>62.8</ele>
        <time>2025-08-25T11:27:30Z</time>
      </trkpt>
      <trkpt lat="47.00226" lon="-1.00991">
        <ele>62.8</ele>
        <time>2025-08-25T11:27:31Z</time>
      </trkpt>
      <trkpt lat="47.00227" lon="-1.00992">
        <ele>62.8</ele>
        <time>2025-08-25T11:27:32Z</time>
      </trkpt>
      <trkpt lat="47.00227" lon="-1.00993">
        <ele>62.8</ele>
        <time>2025-08-25T11:27:33Z</time>
      </trkpt>
      <trkpt lat="47.00227" lon="-1.00995">
        <ele>62.8</ele>
        <time>2025-08-25T11:27:34Z</time>
      </trkpt>
      <trkpt lat="47.00227" lon="-1.00996">
        <ele>62.8</ele>
        <time>2025-08-25T11:27:35Z</time>
      </trkpt>
      <trkpt lat="47.00227" lon="-1.00999">
        <ele>62.8</ele>
        <time>2025-08-25T11:27:36Z</time>
      </trkpt>
      <trkpt lat="47.00227" lon="-1.01">
        <ele>62.8</ele>
        <time>2025-08-25T11:27:37Z</time>
      </trkpt>
      <trkpt lat="47.00227" lon="-1.01001">
        <ele>62.8</ele>
        <time>2025-08-25T11:27:38Z</time>
      </trkpt>
      <trkpt lat="47.00227" lon="-1.01003">
        <ele>62.9</ele>
        <time>2025-08-25T11:27:39Z</time>
      </trkpt>
      <trkpt lat="47.00227" lon="-1.01005">
        <ele>62.9</ele>
        <time>2025-08-25T11:27:40Z</time>
      </trkpt>
      <trkpt lat="47.00227" lon="-1.01007">
        <ele>62.9</ele>
        <time>2025-08-25T11:27:41Z</time>
      </trkpt>
      <trkpt lat="47.00227" lon="-1.01009">
        <ele>62.9</ele>
        <time>2025-08-25T11:27:42Z</time>
      </trkpt>
      <trkpt lat="47.00227" lon="-1.0101">
        <ele>62.9</ele>
        <time>2025-08-25T11:27:43Z</time>
      </trkpt>
      <trkpt lat="47.00226" lon="-1.01012">
        <ele>62.9</ele>
        <time>2025-08-25T11:27:44Z</time>
      </trkpt>
      <trkpt lat="47.00225" lon="-1.01014">
        <ele>62.9</ele>
        <time>2025-08-25T11:27:45Z</time>
      </trkpt>
      <trkpt lat="47.00224" lon="-1.01015">
        <ele>62.9</ele>
        <time>2025-08-25T11:27:46Z</time>
      </trkpt>
      <trkpt lat="47.00224" lon="-1.01017">
        <ele>62.9</ele>
        <time>2025-08-25T11:27:47Z</time>
      </trkpt>
      <trkpt lat="47.00223" lon="-1.01018">
        <ele>62.9</ele>
        <time>2025-08-25T11:27:48Z</time>
      </trkpt>
      <trkpt lat="47.00223" lon="-1.01019">
        <ele>62.9</ele>
        <time>2025-08-25T11:27:49Z</time>
      </trkpt>
      <trkpt lat="47.00223" lon="-1.01021">
        <ele>62.9</ele>
        <time>2025-08-25T11:27:50Z</time>
      </trkpt>
      <trkpt lat="47.00222" lon="-1.01022">
        <ele>62.9</ele>
        <time>2025-08-25T11:27:51Z</time>
      </trkpt>
      <trkpt lat="47.00221" lon="-1.01023">
        <ele>62.9</ele>
        <time>2025-08-25T11:27:52Z</time>
      </trkpt>
      <trkpt lat="47.00221" lon="-1.01024">
        <ele>63</ele>
        <time>2025-08-25T11:27:53Z</time>
      </trkpt>
      <trkpt lat="47.0022" lon="-1.01025">
        <ele>63</ele>
        <time>2025-08-25T11:27:54Z</time>
      </trkpt>
      <trkpt lat="47.00219" lon="-1.01026">
        <ele>63</ele>
        <time>2025-08-25T11:27:55Z</time>
      </trkpt>
      <trkpt lat="47.00219" lon="-1.01027">
        <ele>63</ele>
        <time>2025-08-25T11:27:56Z</time>
      </trkpt>
      <trkpt lat="47.00219" lon="-1.01028">
        <ele>63</ele>
        <time>2025-08-25T11:27:57Z</time>
      </trkpt>
      <trkpt lat="47.00219" lon="-1.0103">
        <ele>63</ele>
        <time>2025-08-25T11:27:58Z</time>
      </trkpt>
      <trkpt lat="47.00218" lon="-1.01031">
        <ele>63</ele>
        <time>2025-08-25T11:27:59Z</time>
      </trkpt>
      <trkpt lat="47.00218" lon="-1.01032">
        <ele>63</ele>
        <time>2025-08-25T11:28:00Z</time>
      </trkpt>
      <trkpt lat="47.00218" lon="-1.01033">
        <ele>63</ele>
        <time>2025-08-25T11:28:01Z</time>
      </trkpt>
      <trkpt lat="47.00218" lon="-1.01035">
        <ele>63</ele>
        <time>2025-08-25T11:28:02Z</time>
      </trkpt>
      <trkpt lat="47.00218" lon="-1.01036">
        <ele>63</ele>
        <time>2025-08-25T11:28:03Z</time>
      </trkpt>
      <trkpt lat="47.00218" lon="-1.01038">
        <ele>63</ele>
        <time>2025-08-25T11:28:04Z</time>
      </trkpt>
      <trkpt lat="47.00218" lon="-1.01039">
        <ele>63</ele>
        <time>2025-08-25T11:28:05Z</time>
      </trkpt>
      <trkpt lat="47.00218" lon="-1.01041">
        <ele>63.1</ele>
        <time>2025-08-25T11:28:06Z</time>
      </trkpt>
      <trkpt lat="47.00218" lon="-1.01043">
        <ele>63.1</ele>
        <time>2025-08-25T11:28:07Z</time>
      </trkpt>
      <trkpt lat="47.00218" lon="-1.01044">
        <ele>63.1</ele>
        <time>2025-08-25T11:28:08Z</time>
      </trkpt>
      <trkpt lat="47.00218" lon="-1.01046">
        <ele>63.1</ele>
        <time>2025-08-25T11:28:09Z</time>
      </trkpt>
      <trkpt lat="47.00218" lon="-1.01047">
        <ele>63.1</ele>
        <time>2025-08-25T11:28:10Z</time>
      </trkpt>
      <trkpt lat="47.00219" lon="-1.01049">
        <ele>63.1</ele>
        <time>2025-08-25T11:28:11Z</time>
      </trkpt>
      <trkpt lat="47.00219" lon="-1.01051">
        <ele>63.1</ele>
        <time>2025-08-25T11:28:12Z</time>
      </trkpt>
      <trkpt lat="47.00219" lon="-1.01052">
        <ele>63.1</ele>
        <time>2025-08-25T11:28:13Z</time>
      </trkpt>
      <trkpt lat="47.00219" lon="-1.01052">
        <ele>63.1</ele>
        <time>2025-08-25T11:28:14Z</time>
      </trkpt>
      <trkpt lat="47.00219" lon="-1.01053">
        <ele>63.1</ele>
        <time>2025-08-25T11:28:15Z</time>
      </trkpt>
      <trkpt lat="47.00219" lon="-1.01054">
        <ele>63.2</ele>
        <time>2025-08-25T11:28:16Z</time>
      </trkpt>
      <trkpt lat="47.00219" lon="-1.01056">
        <ele>63.2</ele>
        <time>2025-08-25T11:28:17Z</time>
      </trkpt>
      <trkpt lat="47.00219" lon="-1.01056">
        <ele>63.2</ele>
        <time>2025-08-25T11:28:18Z</time>
      </trkpt>
      <trkpt lat="47.00219" lon="-1.01057">
        <ele>63.2</ele>
        <time>2025-08-25T11:28:19Z</time>
      </trkpt>
      <trkpt lat="47.00219" lon="-1.01059">
        <ele>63.2</ele>
        <time>2025-08-25T11:28:20Z</time>
      </trkpt>
      <trkpt lat="47.00219" lon="-1.0106">
        <ele>63.2</ele>
        <time>2025-08-25T11:28:21Z</time>
      </trkpt>
      <trkpt lat="47.0022" lon="-1.0106">
        <ele>63.2</ele>
        <time>2025-08-25T11:28:22Z</time>
      </trkpt>
      <trkpt lat="47.0022" lon="-1.0106">
        <ele>63.2</ele>
        <time>2025-08-25T11:28:23Z</time>
      </trkpt>
      <trkpt lat="47.0022" lon="-1.01061">
        <ele>63.2</ele>
        <time>2025-08-25T11:28:24Z</time>
      </trkpt>
      <trkpt lat="47.0022" lon="-1.01061">
        <ele>63.2</ele>
        <time>2025-08-25T11:28:25Z</time>
      </trkpt>
      <trkpt lat="47.0022" lon="-1.01061">
        <ele>63.2</ele>
        <time>2025-08-25T11:28:26Z</time>
      </trkpt>
      <trkpt lat="47.0022" lon="-1.01061">
        <ele>63.2</ele>
        <time>2025-08-25T11:28:27Z</time>
      </trkpt>
      <trkpt lat="47.0022" lon="-1.01061">
        <ele>63.2</ele>
        <time>2025-08-25T11:28:28Z</time>
      </trkpt>
      <trkpt lat="47.0022" lon="-1.01061">
        <ele>63.2</ele>
        <time>2025-08-25T11:28:29Z</time>
      </trkpt>
      <trkpt lat="47.0022" lon="-1.01062">
        <ele>63.2</ele>
        <time>2025-08-25T11:28:30Z</time>
      </trkpt>
      <trkpt lat="47.00221" lon="-1.01062">
        <ele>63.2</ele>
        <time>2025-08-25T11:28:31Z</time>
      </trkpt>
      <trkpt lat="47.00221" lon="-1.01064">
        <ele>63.2</ele>
        <time>2025-08-25T11:28:32Z</time>
      </trkpt>
      <trkpt lat="47.00221" lon="-1.01064">
        <ele>63.3</ele>
        <time>2025-08-25T11:28:33Z</time>
      </trkpt>
      <trkpt lat="47.00221" lon="-1.01065">
        <ele>63.3</ele>
        <time>2025-08-25T11:28:34Z</time>
      </trkpt>
      <trkpt lat="47.0022" lon="-1.01065">
        <ele>63.3</ele>
        <time>2025-08-25T11:28:35Z</time>
      </trkpt>
      <trkpt lat="47.0022" lon="-1.01067">
        <ele>63.3</ele>
        <time>2025-08-25T11:28:36Z</time>
      </trkpt>
      <trkpt lat="47.00219" lon="-1.01066">
        <ele>63.3</ele>
        <time>2025-08-25T11:28:37Z</time>
      </trkpt>
      <trkpt lat="47.00218" lon="-1.01067">
        <ele>63.3</ele>
        <time>2025-08-25T11:28:38Z</time>
      </trkpt>
      <trkpt lat="47.00218" lon="-1.01067">
        <ele>63.3</ele>
        <time>2025-08-25T11:28:39Z</time>
      </trkpt>
      <trkpt lat="47.00217" lon="-1.01067">
        <ele>63.3</ele>
        <time>2025-08-25T11:28:40Z</time>
      </trkpt>
      <trkpt lat="47.00217" lon="-1.01067">
        <ele>63.3</ele>
        <time>2025-08-25T11:28:41Z</time>
      </trkpt>
      <trkpt lat="47.00217" lon="-1.01068">
        <ele>63.3</ele>
        <time>2025-08-25T11:28:42Z</time>
      </trkpt>
      <trkpt lat="47.00218" lon="-1.01068">
        <ele>63.3</ele>
        <time>2025-08-25T11:28:43Z</time>
      </trkpt>
      <trkpt lat="47.00218" lon="-1.01069">
        <ele>63.4</ele>
        <time>2025-08-25T11:28:44Z</time>
      </trkpt>
      <trkpt lat="47.00218" lon="-1.01071">
        <ele>63.4</ele>
        <time>2025-08-25T11:28:45Z</time>
      </trkpt>
      <trkpt lat="47.00218" lon="-1.01073">
        <ele>63.4</ele>
        <time>2025-08-25T11:28:46Z</time>
      </trkpt>
      <trkpt lat="47.00217" lon="-1.01076">
        <ele>63.4</ele>
        <time>2025-08-25T11:28:47Z</time>
      </trkpt>
      <trkpt lat="47.00217" lon="-1.01077">
        <ele>63.4</ele>
        <time>2025-08-25T11:28:48Z</time>
      </trkpt>
      <trkpt lat="47.00217" lon="-1.01079">
        <ele>63.5</ele>
        <time>2025-08-25T11:28:49Z</time>
      </trkpt>
      <trkpt lat="47.00216" lon="-1.01081">
        <ele>63.5</ele>
        <time>2025-08-25T11:28:50Z</time>
      </trkpt>
      <trkpt lat="47.00216" lon="-1.01083">
        <ele>63.5</ele>
        <time>2025-08-25T11:28:51Z</time>
      </trkpt>
      <trkpt lat="47.00216" lon="-1.01086">
        <ele>63.5</ele>
        <time>2025-08-25T11:28:52Z</time>
      </trkpt>
      <trkpt lat="47.00216" lon="-1.01087">
        <ele>63.6</ele>
        <time>2025-08-25T11:28:53Z</time>
      </trkpt>
      <trkpt lat="47.00216" lon="-1.01089">
        <ele>63.6</ele>
        <time>2025-08-25T11:28:54Z</time>
      </trkpt>
      <trkpt lat="47.00216" lon="-1.01091">
        <ele>63.6</ele>
        <time>2025-08-25T11:28:55Z</time>
      </trkpt>
      <trkpt lat="47.00216" lon="-1.01093">
        <ele>63.6</ele>
        <time>2025-08-25T11:28:56Z</time>
      </trkpt>
      <trkpt lat="47.00217" lon="-1.01096">
        <ele>63.7</ele>
        <time>2025-08-25T11:28:57Z</time>
      </trkpt>
      <trkpt lat="47.00217" lon="-1.01096">
        <ele>63.7</ele>
        <time>2025-08-25T11:28:58Z</time>
      </trkpt>
      <trkpt lat="47.00217" lon="-1.01098">
        <ele>63.7</ele>
        <time>2025-08-25T11:28:59Z</time>
      </trkpt>
      <trkpt lat="47.00217" lon="-1.01098">
        <ele>63.7</ele>
        <time>2025-08-25T11:29:00Z</time>
      </trkpt>
      <trkpt lat="47.00217" lon="-1.01098">
        <ele>63.6</ele>
        <time>2025-08-25T11:29:01Z</time>
      </trkpt>
      <trkpt lat="47.00218" lon="-1.01097">
        <ele>64.1</ele>
        <time>2025-08-25T11:29:02Z</time>
      </trkpt>
      <trkpt lat="47.00218" lon="-1.01097">
        <ele>64</ele>
        <time>2025-08-25T11:29:03Z</time>
      </trkpt>
      <trkpt lat="47.00219" lon="-1.01097">
        <ele>64</ele>
        <time>2025-08-25T11:29:04Z</time>
      </trkpt>
      <trkpt lat="47.0022" lon="-1.01097">
        <ele>63.9</ele>
        <time>2025-08-25T11:29:05Z</time>
      </trkpt>
      <trkpt lat="47.00221" lon="-1.01097">
        <ele>63.9</ele>
        <time>2025-08-25T11:29:06Z</time>
      </trkpt>
      <trkpt lat="47.00222" lon="-1.01097">
        <ele>64.4</ele>
        <time>2025-08-25T11:29:07Z</time>
      </trkpt>
      <trkpt lat="47.00223" lon="-1.01097">
        <ele>64.3</ele>
        <time>2025-08-25T11:29:08Z</time>
      </trkpt>
      <trkpt lat="47.00224" lon="-1.01097">
        <ele>64.8</ele>
        <time>2025-08-25T11:29:09Z</time>
      </trkpt>
      <trkpt lat="47.00226" lon="-1.01098">
        <ele>64.8</ele>
        <time>2025-08-25T11:29:10Z</time>
      </trkpt>
      <trkpt lat="47.00229" lon="-1.01101">
        <ele>65.4</ele>
        <time>2025-08-25T11:29:11Z</time>
      </trkpt>
      <trkpt lat="47.0023" lon="-1.01103">
        <ele>65.9</ele>
        <time>2025-08-25T11:29:12Z</time>
      </trkpt>
      <trkpt lat="47.00231" lon="-1.01105">
        <ele>65.9</ele>
        <time>2025-08-25T11:29:13Z</time>
      </trkpt>
      <trkpt lat="47.00232" lon="-1.01107">
        <ele>65.8</ele>
        <time>2025-08-25T11:29:14Z</time>
      </trkpt>
      <trkpt lat="47.00234" lon="-1.01109">
        <ele>66.3</ele>
        <time>2025-08-25T11:29:15Z</time>
      </trkpt>
      <trkpt lat="47.00234" lon="-1.01111">
        <ele>66.3</ele>
        <time>2025-08-25T11:29:16Z</time>
      </trkpt>
      <trkpt lat="47.00235" lon="-1.01112">
        <ele>66.2</ele>
        <time>2025-08-25T11:29:17Z</time>
      </trkpt>
      <trkpt lat="47.00235" lon="-1.01114">
        <ele>66.2</ele>
        <time>2025-08-25T11:29:18Z</time>
      </trkpt>
      <trkpt lat="47.00235" lon="-1.01115">
        <ele>66.2</ele>
        <time>2025-08-25T11:29:19Z</time>
      </trkpt>
      <trkpt lat="47.00235" lon="-1.01116">
        <ele>66.1</ele>
        <time>2025-08-25T11:29:20Z</time>
      </trkpt>
      <trkpt lat="47.00236" lon="-1.01116">
        <ele>66.5</ele>
        <time>2025-08-25T11:29:21Z</time>
      </trkpt>
      <trkpt lat="47.00236" lon="-1.01117">
        <ele>66.5</ele>
        <time>2025-08-25T11:29:22Z</time>
      </trkpt>
      <trkpt lat="47.00237" lon="-1.01119">
        <ele>66.5</ele>
        <time>2025-08-25T11:29:23Z</time>
      </trkpt>
      <trkpt lat="47.00237" lon="-1.0112">
        <ele>66.4</ele>
        <time>2025-08-25T11:29:24Z</time>
      </trkpt>
      <trkpt lat="47.00238" lon="-1.01121">
        <ele>66.4</ele>
        <time>2025-08-25T11:29:25Z</time>
      </trkpt>
      <trkpt lat="47.00238" lon="-1.01122">
        <ele>66.3</ele>
        <time>2025-08-25T11:29:26Z</time>
      </trkpt>
      <trkpt lat="47.00238" lon="-1.01121">
        <ele>66.4</ele>
        <time>2025-08-25T11:29:27Z</time>
      </trkpt>
      <trkpt lat="47.00239" lon="-1.01121">
        <ele>66.4</ele>
        <time>2025-08-25T11:29:28Z</time>
      </trkpt>
      <trkpt lat="47.0024" lon="-1.01121">
        <ele>66.4</ele>
        <time>2025-08-25T11:29:29Z</time>
      </trkpt>
      <trkpt lat="47.00241" lon="-1.01119">
        <ele>66.5</ele>
        <time>2025-08-25T11:29:30Z</time>
      </trkpt>
      <trkpt lat="47.00241" lon="-1.01119">
        <ele>66.5</ele>
        <time>2025-08-25T11:29:31Z</time>
      </trkpt>
      <trkpt lat="47.00242" lon="-1.01118">
        <ele>66.6</ele>
        <time>2025-08-25T11:29:32Z</time>
      </trkpt>
      <trkpt lat="47.00243" lon="-1.01118">
        <ele>66.6</ele>
        <time>2025-08-25T11:29:33Z</time>
      </trkpt>
      <trkpt lat="47.00244" lon="-1.01118">
        <ele>66.6</ele>
        <time>2025-08-25T11:29:34Z</time>
      </trkpt>
      <trkpt lat="47.00245" lon="-1.01117">
        <ele>66.7</ele>
        <time>2025-08-25T11:29:35Z</time>
      </trkpt>
      <trkpt lat="47.00246" lon="-1.01117">
        <ele>66.7</ele>
        <time>2025-08-25T11:29:36Z</time>
      </trkpt>
      <trkpt lat="47.00247" lon="-1.01116">
        <ele>66.8</ele>
        <time>2025-08-25T11:29:37Z</time>
      </trkpt>
      <trkpt lat="47.00248" lon="-1.01116">
        <ele>66.8</ele>
        <time>2025-08-25T11:29:38Z</time>
      </trkpt>
      <trkpt lat="47.00249" lon="-1.01115">
        <ele>66.9</ele>
        <time>2025-08-25T11:29:39Z</time>
      </trkpt>
      <trkpt lat="47.0025" lon="-1.01115">
        <ele>66.9</ele>
        <time>2025-08-25T11:29:40Z</time>
      </trkpt>
      <trkpt lat="47.00251" lon="-1.01115">
        <ele>67</ele>
        <time>2025-08-25T11:29:41Z</time>
      </trkpt>
      <trkpt lat="47.00253" lon="-1.01114">
        <ele>67.1</ele>
        <time>2025-08-25T11:29:42Z</time>
      </trkpt>
      <trkpt lat="47.00254" lon="-1.01114">
        <ele>67.1</ele>
        <time>2025-08-25T11:29:43Z</time>
      </trkpt>
      <trkpt lat="47.00255" lon="-1.01113">
        <ele>67.2</ele>
        <time>2025-08-25T11:29:44Z</time>
      </trkpt>
      <trkpt lat="47.00256" lon="-1.01112">
        <ele>67.2</ele>
        <time>2025-08-25T11:29:45Z</time>
      </trkpt>
      <trkpt lat="47.00257" lon="-1.01112">
        <ele>67.3</ele>
        <time>2025-08-25T11:29:46Z</time>
      </trkpt>
      <trkpt lat="47.00259" lon="-1.0111">
        <ele>67.3</ele>
        <time>2025-08-25T11:29:47Z</time>
      </trkpt>
      <trkpt lat="47.00259" lon="-1.0111">
        <ele>67.4</ele>
        <time>2025-08-25T11:29:48Z</time>
      </trkpt>
      <trkpt lat="47.0026" lon="-1.01109">
        <ele>67.4</ele>
        <time>2025-08-25T11:29:49Z</time>
      </trkpt>
      <trkpt lat="47.00261" lon="-1.01108">
        <ele>67.5</ele>
        <time>2025-08-25T11:29:50Z</time>
      </trkpt>
      <trkpt lat="47.00262" lon="-1.01103">
        <ele>67.7</ele>
        <time>2025-08-25T11:29:51Z</time>
      </trkpt>
      <trkpt lat="47.00261" lon="-1.01099">
        <ele>67.8</ele>
        <time>2025-08-25T11:29:52Z</time>
      </trkpt>
      <trkpt lat="47.00261" lon="-1.01094">
        <ele>68</ele>
        <time>2025-08-25T11:29:53Z</time>
      </trkpt>
      <trkpt lat="47.00261" lon="-1.01089">
        <ele>68.2</ele>
        <time>2025-08-25T11:29:54Z</time>
      </trkpt>
      <trkpt lat="47.00262" lon="-1.01084">
        <ele>68.4</ele>
        <time>2025-08-25T11:29:55Z</time>
      </trkpt>
      <trkpt lat="47.00262" lon="-1.01083">
        <ele>68.5</ele>
        <time>2025-08-25T11:29:56Z</time>
      </trkpt>
      <trkpt lat="47.00263" lon="-1.0108">
        <ele>68.6</ele>
        <time>2025-08-25T11:29:57Z</time>
      </trkpt>
      <trkpt lat="47.00262" lon="-1.01078">
        <ele>68.7</ele>
        <time>2025-08-25T11:29:58Z</time>
      </trkpt>
      <trkpt lat="47.00262" lon="-1.01077">
        <ele>68.8</ele>
        <time>2025-08-25T11:29:59Z</time>
      </trkpt>
      <trkpt lat="47.00263" lon="-1.01073">
        <ele>69</ele>
        <time>2025-08-25T11:30:01Z</time>
      </trkpt>
      <trkpt lat="47.00263" lon="-1.01071">
        <ele>69.1</ele>
        <time>2025-08-25T11:30:02Z</time>
      </trkpt>
      <trkpt lat="47.00262" lon="-1.01069">
        <ele>69.2</ele>
        <time>2025-08-25T11:30:03Z</time>
      </trkpt>
      <trkpt lat="47.0026" lon="-1.01066">
        <ele>69.4</ele>
        <time>2025-08-25T11:30:04Z</time>
      </trkpt>
      <trkpt lat="47.0026" lon="-1.01065">
        <ele>69.5</ele>
        <time>2025-08-25T11:30:05Z</time>
      </trkpt>
      <trkpt lat="47.00257" lon="-1.01062">
        <ele>69.8</ele>
        <time>2025-08-25T11:30:06Z</time>
      </trkpt>
      <trkpt lat="47.00255" lon="-1.0106">
        <ele>70</ele>
        <time>2025-08-25T11:30:07Z</time>
      </trkpt>
      <trkpt lat="47.00255" lon="-1.01059">
        <ele>70.1</ele>
        <time>2025-08-25T11:30:08Z</time>
      </trkpt>
      <trkpt lat="47.00254" lon="-1.01058">
        <ele>70.2</ele>
        <time>2025-08-25T11:30:09Z</time>
      </trkpt>
      <trkpt lat="47.00254" lon="-1.01057">
        <ele>70.3</ele>
        <time>2025-08-25T11:30:10Z</time>
      </trkpt>
      <trkpt lat="47.00253" lon="-1.01057">
        <ele>70.4</ele>
        <time>2025-08-25T11:30:11Z</time>
      </trkpt>
      <trkpt lat="47.00253" lon="-1.01055">
        <ele>70.5</ele>
        <time>2025-08-25T11:30:12Z</time>
      </trkpt>
      <trkpt lat="47.00252" lon="-1.01056">
        <ele>70.5</ele>
        <time>2025-08-25T11:30:13Z</time>
      </trkpt>
      <trkpt lat="47.00252" lon="-1.01055">
        <ele>70.6</ele>
        <time>2025-08-25T11:30:14Z</time>
      </trkpt>
      <trkpt lat="47.00251" lon="-1.01054">
        <ele>70.7</ele>
        <time>2025-08-25T11:30:15Z</time>
      </trkpt>
      <trkpt lat="47.00251" lon="-1.01053">
        <ele>70.8</ele>
        <time>2025-08-25T11:30:16Z</time>
      </trkpt>
      <trkpt lat="47.00251" lon="-1.01052">
        <ele>70.9</ele>
        <time>2025-08-25T11:30:17Z</time>
      </trkpt>
      <trkpt lat="47.00251" lon="-1.01051">
        <ele>70.9</ele>
        <time>2025-08-25T11:30:18Z</time>
      </trkpt>
      <trkpt lat="47.0025" lon="-1.0105">
        <ele>71.1</ele>
        <time>2025-08-25T11:30:19Z</time>
      </trkpt>
      <trkpt lat="47.00251" lon="-1.01049">
        <ele>71.1</ele>
        <time>2025-08-25T11:30:20Z</time>
      </trkpt>
      <trkpt lat="47.00251" lon="-1.01048">
        <ele>71.2</ele>
        <time>2025-08-25T11:30:21Z</time>
      </trkpt>
      <trkpt lat="47.00251" lon="-1.01047">
        <ele>71.2</ele>
        <time>2025-08-25T11:30:22Z</time>
      </trkpt>
      <trkpt lat="47.0025" lon="-1.01046">
        <ele>71.3</ele>
        <time>2025-08-25T11:30:23Z</time>
      </trkpt>
      <trkpt lat="47.00251" lon="-1.01045">
        <ele>71.4</ele>
        <time>2025-08-25T11:30:24Z</time>
      </trkpt>
      <trkpt lat="47.00251" lon="-1.01044">
        <ele>71.5</ele>
        <time>2025-08-25T11:30:25Z</time>
      </trkpt>
      <trkpt lat="47.00251" lon="-1.01043">
        <ele>71.6</ele>
        <time>2025-08-25T11:30:26Z</time>
      </trkpt>
      <trkpt lat="47.00251" lon="-1.0104">
        <ele>71.8</ele>
        <time>2025-08-25T11:30:27Z</time>
      </trkpt>
      <trkpt lat="47.00251" lon="-1.01039">
        <ele>71.9</ele>
        <time>2025-08-25T11:30:28Z</time>
      </trkpt>
      <trkpt lat="47.00251" lon="-1.01037">
        <ele>72</ele>
        <time>2025-08-25T11:30:29Z</time>
      </trkpt>
      <trkpt lat="47.00252" lon="-1.01035">
        <ele>72.3</ele>
        <time>2025-08-25T11:30:30Z</time>
      </trkpt>
      <trkpt lat="47.00253" lon="-1.01033">
        <ele>72.4</ele>
        <time>2025-08-25T11:30:31Z</time>
      </trkpt>
      <trkpt lat="47.00254" lon="-1.01032">
        <ele>72.5</ele>
        <time>2025-08-25T11:30:32Z</time>
      </trkpt>
      <trkpt lat="47.00255" lon="-1.0103">
        <ele>72.7</ele>
        <time>2025-08-25T11:30:33Z</time>
      </trkpt>
      <trkpt lat="47.00255" lon="-1.01028">
        <ele>72.8</ele>
        <time>2025-08-25T11:30:34Z</time>
      </trkpt>
      <trkpt lat="47.00256" lon="-1.01027">
        <ele>72.9</ele>
        <time>2025-08-25T11:30:35Z</time>
      </trkpt>
      <trkpt lat="47.00257" lon="-1.01023">
        <ele>73.2</ele>
        <time>2025-08-25T11:30:36Z</time>
      </trkpt>
      <trkpt lat="47.00258" lon="-1.01022">
        <ele>73.3</ele>
        <time>2025-08-25T11:30:37Z</time>
      </trkpt>
      <trkpt lat="47.00259" lon="-1.0102">
        <ele>73.4</ele>
        <time>2025-08-25T11:30:38Z</time>
      </trkpt>
      <trkpt lat="47.0026" lon="-1.01018">
        <ele>73.5</ele>
        <time>2025-08-25T11:30:39Z</time>
      </trkpt>
      <trkpt lat="47.00261" lon="-1.01016">
        <ele>73.6</ele>
        <time>2025-08-25T11:30:40Z</time>
      </trkpt>
      <trkpt lat="47.00262" lon="-1.01014">
        <ele>73.8</ele>
        <time>2025-08-25T11:30:41Z</time>
      </trkpt>
      <trkpt lat="47.00263" lon="-1.01011">
        <ele>74</ele>
        <time>2025-08-25T11:30:42Z</time>
      </trkpt>
      <trkpt lat="47.00263" lon="-1.01009">
        <ele>74</ele>
        <time>2025-08-25T11:30:43Z</time>
      </trkpt>
      <trkpt lat="47.00264" lon="-1.01006">
        <ele>74.2</ele>
        <time>2025-08-25T11:30:44Z</time>
      </trkpt>
      <trkpt lat="47.00264" lon="-1.01004">
        <ele>74.3</ele>
        <time>2025-08-25T11:30:45Z</time>
      </trkpt>
      <trkpt lat="47.00265" lon="-1.01">
        <ele>74.4</ele>
        <time>2025-08-25T11:30:46Z</time>
      </trkpt>
      <trkpt lat="47.00266" lon="-1.00999">
        <ele>74.5</ele>
        <time>2025-08-25T11:30:47Z</time>
      </trkpt>
      <trkpt lat="47.00267" lon="-1.00994">
        <ele>74.7</ele>
        <time>2025-08-25T11:30:48Z</time>
      </trkpt>
      <trkpt lat="47.00267" lon="-1.00992">
        <ele>74.7</ele>
        <time>2025-08-25T11:30:49Z</time>
      </trkpt>
      <trkpt lat="47.00268" lon="-1.00988">
        <ele>74.8</ele>
        <time>2025-08-25T11:30:50Z</time>
      </trkpt>
      <trkpt lat="47.00268" lon="-1.00987">
        <ele>74.9</ele>
        <time>2025-08-25T11:30:51Z</time>
      </trkpt>
      <trkpt lat="47.00269" lon="-1.00984">
        <ele>75</ele>
        <time>2025-08-25T11:30:52Z</time>
      </trkpt>
      <trkpt lat="47.00269" lon="-1.00982">
        <ele>75</ele>
        <time>2025-08-25T11:30:53Z</time>
      </trkpt>
      <trkpt lat="47.0027" lon="-1.00978">
        <ele>75.1</ele>
        <time>2025-08-25T11:30:54Z</time>
      </trkpt>
      <trkpt lat="47.0027" lon="-1.00976">
        <ele>75.2</ele>
        <time>2025-08-25T11:30:55Z</time>
      </trkpt>
      <trkpt lat="47.00271" lon="-1.00974">
        <ele>75.2</ele>
        <time>2025-08-25T11:30:56Z</time>
      </trkpt>
      <trkpt lat="47.00272" lon="-1.00972">
        <ele>75.3</ele>
        <time>2025-08-25T11:30:57Z</time>
      </trkpt>
      <trkpt lat="47.00272" lon="-1.0097">
        <ele>75.3</ele>
        <time>2025-08-25T11:30:58Z</time>
      </trkpt>
      <trkpt lat="47.00273" lon="-1.00968">
        <ele>75.4</ele>
        <time>2025-08-25T11:30:59Z</time>
      </trkpt>
      <trkpt lat="47.00273" lon="-1.00966">
        <ele>75.4</ele>
        <time>2025-08-25T11:31:00Z</time>
      </trkpt>
      <trkpt lat="47.00274" lon="-1.00965">
        <ele>75.5</ele>
        <time>2025-08-25T11:31:01Z</time>
      </trkpt>
      <trkpt lat="47.00274" lon="-1.00963">
        <ele>75.5</ele>
        <time>2025-08-25T11:31:02Z</time>
      </trkpt>
      <trkpt lat="47.00275" lon="-1.00962">
        <ele>75.5</ele>
        <time>2025-08-25T11:31:03Z</time>
      </trkpt>
      <trkpt lat="47.00275" lon="-1.00961">
        <ele>75.5</ele>
        <time>2025-08-25T11:31:04Z</time>
      </trkpt>
      <trkpt lat="47.00276" lon="-1.0096">
        <ele>75.6</ele>
        <time>2025-08-25T11:31:05Z</time>
      </trkpt>
      <trkpt lat="47.00276" lon="-1.0096">
        <ele>75.6</ele>
        <time>2025-08-25T11:31:06Z</time>
      </trkpt>
      <trkpt lat="47.00276" lon="-1.00959">
        <ele>75.6</ele>
        <time>2025-08-25T11:31:07Z</time>
      </trkpt>
      <trkpt lat="47.00276" lon="-1.00959">
        <ele>75.6</ele>
        <time>2025-08-25T11:31:08Z</time>
      </trkpt>
      <trkpt lat="47.00276" lon="-1.00959">
        <ele>75.6</ele>
        <time>2025-08-25T11:31:09Z</time>
      </trkpt>
      <trkpt lat="47.00277" lon="-1.00958">
        <ele>75.6</ele>
        <time>2025-08-25T11:31:10Z</time>
      </trkpt>
      <trkpt lat="47.00277" lon="-1.00957">
        <ele>75.6</ele>
        <time>2025-08-25T11:31:11Z</time>
      </trkpt>
      <trkpt lat="47.00277" lon="-1.00957">
        <ele>75.6</ele>
        <time>2025-08-25T11:31:12Z</time>
      </trkpt>
      <trkpt lat="47.00278" lon="-1.00956">
        <ele>75.7</ele>
        <time>2025-08-25T11:31:13Z</time>
      </trkpt>
      <trkpt lat="47.00278" lon="-1.00955">
        <ele>75.7</ele>
        <time>2025-08-25T11:31:14Z</time>
      </trkpt>
      <trkpt lat="47.00279" lon="-1.00954">
        <ele>75.7</ele>
        <time>2025-08-25T11:31:15Z</time>
      </trkpt>
      <trkpt lat="47.00279" lon="-1.00953">
        <ele>75.7</ele>
        <time>2025-08-25T11:31:16Z</time>
      </trkpt>
      <trkpt lat="47.00279" lon="-1.00952">
        <ele>75.7</ele>
        <time>2025-08-25T11:31:17Z</time>
      </trkpt>
      <trkpt lat="47.0028" lon="-1.00951">
        <ele>75.8</ele>
        <time>2025-08-25T11:31:18Z</time>
      </trkpt>
      <trkpt lat="47.0028" lon="-1.00949">
        <ele>75.8</ele>
        <time>2025-08-25T11:31:19Z</time>
      </trkpt>
      <trkpt lat="47.00281" lon="-1.00947">
        <ele>75.8</ele>
        <time>2025-08-25T11:31:20Z</time>
      </trkpt>
      <trkpt lat="47.00281" lon="-1.00945">
        <ele>75.9</ele>
        <time>2025-08-25T11:31:21Z</time>
      </trkpt>
      <trkpt lat="47.00281" lon="-1.00943">
        <ele>75.9</ele>
        <time>2025-08-25T11:31:22Z</time>
      </trkpt>
      <trkpt lat="47.00282" lon="-1.00941">
        <ele>75.9</ele>
        <time>2025-08-25T11:31:23Z</time>
      </trkpt>
      <trkpt lat="47.00282" lon="-1.00938">
        <ele>76</ele>
        <time>2025-08-25T11:31:24Z</time>
      </trkpt>
      <trkpt lat="47.00283" lon="-1.00936">
        <ele>76</ele>
        <time>2025-08-25T11:31:25Z</time>
      </trkpt>
      <trkpt lat="47.00284" lon="-1.00931">
        <ele>76.1</ele>
        <time>2025-08-25T11:31:26Z</time>
      </trkpt>
      <trkpt lat="47.00284" lon="-1.0093">
        <ele>76.1</ele>
        <time>2025-08-25T11:31:27Z</time>
      </trkpt>
      <trkpt lat="47.00285" lon="-1.00926">
        <ele>76.2</ele>
        <time>2025-08-25T11:31:28Z</time>
      </trkpt>
      <trkpt lat="47.00285" lon="-1.00925">
        <ele>76.2</ele>
        <time>2025-08-25T11:31:29Z</time>
      </trkpt>
      <trkpt lat="47.00286" lon="-1.00922">
        <ele>76.3</ele>
        <time>2025-08-25T11:31:30Z</time>
      </trkpt>
      <trkpt lat="47.00286" lon="-1.0092">
        <ele>76.3</ele>
        <time>2025-08-25T11:31:31Z</time>
      </trkpt>
      <trkpt lat="47.00286" lon="-1.00918">
        <ele>76.4</ele>
        <time>2025-08-25T11:31:32Z</time>
      </trkpt>
      <trkpt lat="47.00287" lon="-1.00916">
        <ele>76.4</ele>
        <time>2025-08-25T11:31:33Z</time>
      </trkpt>
      <trkpt lat="47.00287" lon="-1.00913">
        <ele>76.5</ele>
        <time>2025-08-25T11:31:34Z</time>
      </trkpt>
      <trkpt lat="47.00288" lon="-1.00911">
        <ele>76.5</ele>
        <time>2025-08-25T11:31:35Z</time>
      </trkpt>
      <trkpt lat="47.00288" lon="-1.0091">
        <ele>76.6</ele>
        <time>2025-08-25T11:31:36Z</time>
      </trkpt>
      <trkpt lat="47.00288" lon="-1.00909">
        <ele>76.6</ele>
        <time>2025-08-25T11:31:37Z</time>
      </trkpt>
      <trkpt lat="47.00289" lon="-1.00907">
        <ele>76.7</ele>
        <time>2025-08-25T11:31:38Z</time>
      </trkpt>
      <trkpt lat="47.00289" lon="-1.00906">
        <ele>76.7</ele>
        <time>2025-08-25T11:31:39Z</time>
      </trkpt>
      <trkpt lat="47.00289" lon="-1.00904">
        <ele>76.8</ele>
        <time>2025-08-25T11:31:40Z</time>
      </trkpt>
      <trkpt lat="47.0029" lon="-1.00901">
        <ele>76.9</ele>
        <time>2025-08-25T11:31:41Z</time>
      </trkpt>
      <trkpt lat="47.0029" lon="-1.009">
        <ele>76.9</ele>
        <time>2025-08-25T11:31:42Z</time>
      </trkpt>
      <trkpt lat="47.00291" lon="-1.00899">
        <ele>77</ele>
        <time>2025-08-25T11:31:43Z</time>
      </trkpt>
      <trkpt lat="47.00291" lon="-1.00897">
        <ele>77</ele>
        <time>2025-08-25T11:31:44Z</time>
      </trkpt>
      <trkpt lat="47.00291" lon="-1.00895">
        <ele>77.1</ele>
        <time>2025-08-25T11:31:45Z</time>
      </trkpt>
      <trkpt lat="47.00291" lon="-1.00893">
        <ele>77.2</ele>
        <time>2025-08-25T11:31:46Z</time>
      </trkpt>
      <trkpt lat="47.0029" lon="-1.0089">
        <ele>77.4</ele>
        <time>2025-08-25T11:31:47Z</time>
      </trkpt>
      <trkpt lat="47.0029" lon="-1.00888">
        <ele>77.4</ele>
        <time>2025-08-25T11:31:48Z</time>
      </trkpt>
      <trkpt lat="47.0029" lon="-1.00887">
        <ele>77.5</ele>
        <time>2025-08-25T11:31:49Z</time>
      </trkpt>
      <trkpt lat="47.00289" lon="-1.00884">
        <ele>77.6</ele>
        <time>2025-08-25T11:31:50Z</time>
      </trkpt>
      <trkpt lat="47.00289" lon="-1.00883">
        <ele>77.7</ele>
        <time>2025-08-25T11:31:51Z</time>
      </trkpt>
      <trkpt lat="47.00288" lon="-1.00882">
        <ele>77.8</ele>
        <time>2025-08-25T11:31:52Z</time>
      </trkpt>
      <trkpt lat="47.00287" lon="-1.00879">
        <ele>77.9</ele>
        <time>2025-08-25T11:31:53Z</time>
      </trkpt>
      <trkpt lat="47.00287" lon="-1.00876">
        <ele>78.1</ele>
        <time>2025-08-25T11:31:55Z</time>
      </trkpt>
      <trkpt lat="47.00287" lon="-1.00874">
        <ele>78.2</ele>
        <time>2025-08-25T11:31:56Z</time>
      </trkpt>
      <trkpt lat="47.00286" lon="-1.00873">
        <ele>78.3</ele>
        <time>2025-08-25T11:31:57Z</time>
      </trkpt>
      <trkpt lat="47.00286" lon="-1.00871">
        <ele>78.4</ele>
        <time>2025-08-25T11:31:58Z</time>
      </trkpt>
      <trkpt lat="47.00285" lon="-1.0087">
        <ele>78.5</ele>
        <time>2025-08-25T11:31:59Z</time>
      </trkpt>
      <trkpt lat="47.00285" lon="-1.00869">
        <ele>78.5</ele>
        <time>2025-08-25T11:32:00Z</time>
      </trkpt>
      <trkpt lat="47.00285" lon="-1.00867">
        <ele>78.6</ele>
        <time>2025-08-25T11:32:01Z</time>
      </trkpt>
      <trkpt lat="47.00285" lon="-1.00866">
        <ele>78.7</ele>
        <time>2025-08-25T11:32:02Z</time>
      </trkpt>
      <trkpt lat="47.00284" lon="-1.00864">
        <ele>78.8</ele>
        <time>2025-08-25T11:32:03Z</time>
      </trkpt>
      <trkpt lat="47.00284" lon="-1.00863">
        <ele>78.9</ele>
        <time>2025-08-25T11:32:04Z</time>
      </trkpt>
      <trkpt lat="47.00283" lon="-1.00862">
        <ele>79</ele>
        <time>2025-08-25T11:32:05Z</time>
      </trkpt>
      <trkpt lat="47.00282" lon="-1.00861">
        <ele>79.1</ele>
        <time>2025-08-25T11:32:06Z</time>
      </trkpt>
      <trkpt lat="47.00282" lon="-1.0086">
        <ele>79.1</ele>
        <time>2025-08-25T11:32:07Z</time>
      </trkpt>
      <trkpt lat="47.00282" lon="-1.0086">
        <ele>79.2</ele>
        <time>2025-08-25T11:32:08Z</time>
      </trkpt>
      <trkpt lat="47.00281" lon="-1.0086">
        <ele>79.2</ele>
        <time>2025-08-25T11:32:09Z</time>
      </trkpt>
      <trkpt lat="47.00282" lon="-1.0086">
        <ele>79.3</ele>
        <time>2025-08-25T11:32:10Z</time>
      </trkpt>
      <trkpt lat="47.00282" lon="-1.00859">
        <ele>79.3</ele>
        <time>2025-08-25T11:32:11Z</time>
      </trkpt>
      <trkpt lat="47.00282" lon="-1.00859">
        <ele>79.3</ele>
        <time>2025-08-25T11:32:12Z</time>
      </trkpt>
      <trkpt lat="47.00281" lon="-1.00858">
        <ele>79.3</ele>
        <time>2025-08-25T11:32:13Z</time>
      </trkpt>
      <trkpt lat="47.00281" lon="-1.00857">
        <ele>79.4</ele>
        <time>2025-08-25T11:32:14Z</time>
      </trkpt>
      <trkpt lat="47.00281" lon="-1.00857">
        <ele>79.4</ele>
        <time>2025-08-25T11:32:15Z</time>
      </trkpt>
      <trkpt lat="47.00282" lon="-1.00856">
        <ele>79.5</ele>
        <time>2025-08-25T11:32:16Z</time>
      </trkpt>
      <trkpt lat="47.00282" lon="-1.00855">
        <ele>79.6</ele>
        <time>2025-08-25T11:32:17Z</time>
      </trkpt>
      <trkpt lat="47.00283" lon="-1.00854">
        <ele>79.7</ele>
        <time>2025-08-25T11:32:18Z</time>
      </trkpt>
      <trkpt lat="47.00284" lon="-1.00853">
        <ele>79.8</ele>
        <time>2025-08-25T11:32:19Z</time>
      </trkpt>
      <trkpt lat="47.00284" lon="-1.00851">
        <ele>80</ele>
        <time>2025-08-25T11:32:20Z</time>
      </trkpt>
      <trkpt lat="47.00285" lon="-1.00851">
        <ele>80</ele>
        <time>2025-08-25T11:32:21Z</time>
      </trkpt>
      <trkpt lat="47.00285" lon="-1.00849">
        <ele>80.2</ele>
        <time>2025-08-25T11:32:22Z</time>
      </trkpt>
      <trkpt lat="47.00286" lon="-1.00849">
        <ele>80.3</ele>
        <time>2025-08-25T11:32:23Z</time>
      </trkpt>
      <trkpt lat="47.00287" lon="-1.00848">
        <ele>80.4</ele>
        <time>2025-08-25T11:32:24Z</time>
      </trkpt>
      <trkpt lat="47.00288" lon="-1.00847">
        <ele>80.5</ele>
        <time>2025-08-25T11:32:25Z</time>
      </trkpt>
      <trkpt lat="47.00288" lon="-1.00845">
        <ele>80.7</ele>
        <time>2025-08-25T11:32:26Z</time>
      </trkpt>
      <trkpt lat="47.00289" lon="-1.00844">
        <ele>80.8</ele>
        <time>2025-08-25T11:32:27Z</time>
      </trkpt>
      <trkpt lat="47.00289" lon="-1.00843">
        <ele>80.9</ele>
        <time>2025-08-25T11:32:28Z</time>
      </trkpt>
      <trkpt lat="47.00289" lon="-1.00842">
        <ele>81</ele>
        <time>2025-08-25T11:32:29Z</time>
      </trkpt>
      <trkpt lat="47.00289" lon="-1.00841">
        <ele>81</ele>
        <time>2025-08-25T11:32:30Z</time>
      </trkpt>
      <trkpt lat="47.00289" lon="-1.00841">
        <ele>81.1</ele>
        <time>2025-08-25T11:32:31Z</time>
      </trkpt>
      <trkpt lat="47.0029" lon="-1.0084">
        <ele>81.2</ele>
        <time>2025-08-25T11:32:32Z</time>
      </trkpt>
      <trkpt lat="47.0029" lon="-1.0084">
        <ele>81.2</ele>
        <time>2025-08-25T11:32:33Z</time>
      </trkpt>
      <trkpt lat="47.0029" lon="-1.00839">
        <ele>81.3</ele>
        <time>2025-08-25T11:32:34Z</time>
      </trkpt>
      <trkpt lat="47.0029" lon="-1.00838">
        <ele>81.4</ele>
        <time>2025-08-25T11:32:35Z</time>
      </trkpt>
      <trkpt lat="47.0029" lon="-1.00837">
        <ele>81.5</ele>
        <time>2025-08-25T11:32:36Z</time>
      </trkpt>
      <trkpt lat="47.00291" lon="-1.00835">
        <ele>81.7</ele>
        <time>2025-08-25T11:32:37Z</time>
      </trkpt>
      <trkpt lat="47.00292" lon="-1.00831">
        <ele>82.1</ele>
        <time>2025-08-25T11:32:39Z</time>
      </trkpt>
      <trkpt lat="47.00293" lon="-1.00829">
        <ele>82.3</ele>
        <time>2025-08-25T11:32:40Z</time>
      </trkpt>
      <trkpt lat="47.00294" lon="-1.00827">
        <ele>82.6</ele>
        <time>2025-08-25T11:32:41Z</time>
      </trkpt>
      <trkpt lat="47.00296" lon="-1.00824">
        <ele>83</ele>
        <time>2025-08-25T11:32:42Z</time>
      </trkpt>
      <trkpt lat="47.00296" lon="-1.00823">
        <ele>83.1</ele>
        <time>2025-08-25T11:32:43Z</time>
      </trkpt>
      <trkpt lat="47.00298" lon="-1.0082">
        <ele>83.5</ele>
        <time>2025-08-25T11:32:44Z</time>
      </trkpt>
      <trkpt lat="47.00298" lon="-1.00818">
        <ele>83.7</ele>
        <time>2025-08-25T11:32:45Z</time>
      </trkpt>
      <trkpt lat="47.003" lon="-1.00815">
        <ele>84.1</ele>
        <time>2025-08-25T11:32:46Z</time>
      </trkpt>
      <trkpt lat="47.00301" lon="-1.00814">
        <ele>84.2</ele>
        <time>2025-08-25T11:32:47Z</time>
      </trkpt>
      <trkpt lat="47.00302" lon="-1.00812">
        <ele>84.4</ele>
        <time>2025-08-25T11:32:48Z</time>
      </trkpt>
      <trkpt lat="47.00302" lon="-1.0081">
        <ele>84.6</ele>
        <time>2025-08-25T11:32:49Z</time>
      </trkpt>
      <trkpt lat="47.00303" lon="-1.00808">
        <ele>84.8</ele>
        <time>2025-08-25T11:32:50Z</time>
      </trkpt>
      <trkpt lat="47.00303" lon="-1.00807">
        <ele>85</ele>
        <time>2025-08-25T11:32:51Z</time>
      </trkpt>
      <trkpt lat="47.00304" lon="-1.00806">
        <ele>85.1</ele>
        <time>2025-08-25T11:32:52Z</time>
      </trkpt>
      <trkpt lat="47.00305" lon="-1.00804">
        <ele>85.2</ele>
        <time>2025-08-25T11:32:53Z</time>
      </trkpt>
      <trkpt lat="47.00305" lon="-1.00803">
        <ele>85.3</ele>
        <time>2025-08-25T11:32:54Z</time>
      </trkpt>
      <trkpt lat="47.00306" lon="-1.00802">
        <ele>85.5</ele>
        <time>2025-08-25T11:32:55Z</time>
      </trkpt>
      <trkpt lat="47.00306" lon="-1.00801">
        <ele>85.6</ele>
        <time>2025-08-25T11:32:56Z</time>
      </trkpt>
      <trkpt lat="47.00307" lon="-1.008">
        <ele>85.7</ele>
        <time>2025-08-25T11:32:57Z</time>
      </trkpt>
      <trkpt lat="47.00308" lon="-1.00799">
        <ele>85.9</ele>
        <time>2025-08-25T11:32:58Z</time>
      </trkpt>
      <trkpt lat="47.00308" lon="-1.00798">
        <ele>86</ele>
        <time>2025-08-25T11:32:59Z</time>
      </trkpt>
      <trkpt lat="47.00309" lon="-1.00798">
        <ele>86</ele>
        <time>2025-08-25T11:33:00Z</time>
      </trkpt>
      <trkpt lat="47.00309" lon="-1.00798">
        <ele>86.1</ele>
        <time>2025-08-25T11:33:01Z</time>
      </trkpt>
      <trkpt lat="47.0031" lon="-1.00797">
        <ele>86.2</ele>
        <time>2025-08-25T11:33:02Z</time>
      </trkpt>
      <trkpt lat="47.00311" lon="-1.00797">
        <ele>86.3</ele>
        <time>2025-08-25T11:33:03Z</time>
      </trkpt>
      <trkpt lat="47.00311" lon="-1.00797">
        <ele>86.3</ele>
        <time>2025-08-25T11:33:04Z</time>
      </trkpt>
      <trkpt lat="47.00312" lon="-1.00797">
        <ele>86.4</ele>
        <time>2025-08-25T11:33:05Z</time>
      </trkpt>
      <trkpt lat="47.00313" lon="-1.00796">
        <ele>86.5</ele>
        <time>2025-08-25T11:33:06Z</time>
      </trkpt>
      <trkpt lat="47.00314" lon="-1.00796">
        <ele>86.6</ele>
        <time>2025-08-25T11:33:07Z</time>
      </trkpt>
      <trkpt lat="47.00315" lon="-1.00795">
        <ele>86.7</ele>
        <time>2025-08-25T11:33:08Z</time>
      </trkpt>
      <trkpt lat="47.00315" lon="-1.00794">
        <ele>86.8</ele>
        <time>2025-08-25T11:33:09Z</time>
      </trkpt>
      <trkpt lat="47.00316" lon="-1.00794">
        <ele>86.9</ele>
        <time>2025-08-25T11:33:10Z</time>
      </trkpt>
      <trkpt lat="47.00317" lon="-1.00794">
        <ele>86.9</ele>
        <time>2025-08-25T11:33:11Z</time>
      </trkpt>
      <trkpt lat="47.00318" lon="-1.00794">
        <ele>87</ele>
        <time>2025-08-25T11:33:12Z</time>
      </trkpt>
      <trkpt lat="47.00319" lon="-1.00793">
        <ele>87.1</ele>
        <time>2025-08-25T11:33:13Z</time>
      </trkpt>
      <trkpt lat="47.0032" lon="-1.00793">
        <ele>87.2</ele>
        <time>2025-08-25T11:33:14Z</time>
      </trkpt>
      <trkpt lat="47.00321" lon="-1.00792">
        <ele>87.2</ele>
        <time>2025-08-25T11:33:15Z</time>
      </trkpt>
      <trkpt lat="47.00322" lon="-1.00791">
        <ele>87.3</ele>
        <time>2025-08-25T11:33:16Z</time>
      </trkpt>
      <trkpt lat="47.00323" lon="-1.00791">
        <ele>87.4</ele>
        <time>2025-08-25T11:33:17Z</time>
      </trkpt>
      <trkpt lat="47.00324" lon="-1.0079">
        <ele>87.5</ele>
        <time>2025-08-25T11:33:18Z</time>
      </trkpt>
      <trkpt lat="47.00325" lon="-1.00789">
        <ele>87.5</ele>
        <time>2025-08-25T11:33:19Z</time>
      </trkpt>
      <trkpt lat="47.00327" lon="-1.00787">
        <ele>87.6</ele>
        <time>2025-08-25T11:33:20Z</time>
      </trkpt>
      <trkpt lat="47.00327" lon="-1.00786">
        <ele>87.7</ele>
        <time>2025-08-25T11:33:21Z</time>
      </trkpt>
      <trkpt lat="47.00328" lon="-1.00785">
        <ele>87.7</ele>
        <time>2025-08-25T11:33:22Z</time>
      </trkpt>
      <trkpt lat="47.00329" lon="-1.00784">
        <ele>87.8</ele>
        <time>2025-08-25T11:33:23Z</time>
      </trkpt>
      <trkpt lat="47.0033" lon="-1.00783">
        <ele>87.9</ele>
        <time>2025-08-25T11:33:24Z</time>
      </trkpt>
      <trkpt lat="47.0033" lon="-1.00782">
        <ele>87.9</ele>
        <time>2025-08-25T11:33:25Z</time>
      </trkpt>
      <trkpt lat="47.00332" lon="-1.0078">
        <ele>88</ele>
        <time>2025-08-25T11:33:26Z</time>
      </trkpt>
      <trkpt lat="47.00333" lon="-1.00779">
        <ele>88.1</ele>
        <time>2025-08-25T11:33:27Z</time>
      </trkpt>
      <trkpt lat="47.00333" lon="-1.00778">
        <ele>88.1</ele>
        <time>2025-08-25T11:33:28Z</time>
      </trkpt>
      <trkpt lat="47.00334" lon="-1.00777">
        <ele>88.2</ele>
        <time>2025-08-25T11:33:29Z</time>
      </trkpt>
      <trkpt lat="47.00335" lon="-1.00776">
        <ele>88.2</ele>
        <time>2025-08-25T11:33:30Z</time>
      </trkpt>
      <trkpt lat="47.00336" lon="-1.00775">
        <ele>88.3</ele>
        <time>2025-08-25T11:33:31Z</time>
      </trkpt>
      <trkpt lat="47.00337" lon="-1.00772">
        <ele>88.4</ele>
        <time>2025-08-25T11:33:32Z</time>
      </trkpt>
      <trkpt lat="47.00338" lon="-1.00771">
        <ele>88.4</ele>
        <time>2025-08-25T11:33:33Z</time>
      </trkpt>
      <trkpt lat="47.00338" lon="-1.0077">
        <ele>88.5</ele>
        <time>2025-08-25T11:33:34Z</time>
      </trkpt>
      <trkpt lat="47.00339" lon="-1.00769">
        <ele>88.5</ele>
        <time>2025-08-25T11:33:35Z</time>
      </trkpt>
      <trkpt lat="47.00339" lon="-1.00768">
        <ele>88.6</ele>
        <time>2025-08-25T11:33:36Z</time>
      </trkpt>
      <trkpt lat="47.0034" lon="-1.00766">
        <ele>88.7</ele>
        <time>2025-08-25T11:33:37Z</time>
      </trkpt>
      <trkpt lat="47.00341" lon="-1.00764">
        <ele>88.8</ele>
        <time>2025-08-25T11:33:38Z</time>
      </trkpt>
      <trkpt lat="47.00342" lon="-1.00763">
        <ele>88.8</ele>
        <time>2025-08-25T11:33:39Z</time>
      </trkpt>
      <trkpt lat="47.00342" lon="-1.00762">
        <ele>88.9</ele>
        <time>2025-08-25T11:33:40Z</time>
      </trkpt>
      <trkpt lat="47.00343" lon="-1.0076">
        <ele>89</ele>
        <time>2025-08-25T11:33:41Z</time>
      </trkpt>
      <trkpt lat="47.00344" lon="-1.00759">
        <ele>89.1</ele>
        <time>2025-08-25T11:33:42Z</time>
      </trkpt>
      <trkpt lat="47.00345" lon="-1.00757">
        <ele>89.2</ele>
        <time>2025-08-25T11:33:43Z</time>
      </trkpt>
      <trkpt lat="47.00345" lon="-1.00755">
        <ele>89.3</ele>
        <time>2025-08-25T11:33:44Z</time>
      </trkpt>
      <trkpt lat="47.00346" lon="-1.00753">
        <ele>89.4</ele>
        <time>2025-08-25T11:33:45Z</time>
      </trkpt>
      <trkpt lat="47.00347" lon="-1.00751">
        <ele>89.5</ele>
        <time>2025-08-25T11:33:46Z</time>
      </trkpt>
      <trkpt lat="47.00348" lon="-1.00749">
        <ele>89.6</ele>
        <time>2025-08-25T11:33:47Z</time>
      </trkpt>
      <trkpt lat="47.00348" lon="-1.00747">
        <ele>89.8</ele>
        <time>2025-08-25T11:33:48Z</time>
      </trkpt>
      <trkpt lat="47.00349" lon="-1.00744">
        <ele>89.9</ele>
        <time>2025-08-25T11:33:49Z</time>
      </trkpt>
      <trkpt lat="47.00349" lon="-1.00742">
        <ele>90</ele>
        <time>2025-08-25T11:33:50Z</time>
      </trkpt>
      <trkpt lat="47.0035" lon="-1.0074">
        <ele>90.1</ele>
        <time>2025-08-25T11:33:51Z</time>
      </trkpt>
      <trkpt lat="47.00351" lon="-1.00738">
        <ele>90.3</ele>
        <time>2025-08-25T11:33:52Z</time>
      </trkpt>
      <trkpt lat="47.00351" lon="-1.00736">
        <ele>90.4</ele>
        <time>2025-08-25T11:33:53Z</time>
      </trkpt>
      <trkpt lat="47.00352" lon="-1.00734">
        <ele>90.5</ele>
        <time>2025-08-25T11:33:54Z</time>
      </trkpt>
      <trkpt lat="47.00352" lon="-1.00732">
        <ele>90.6</ele>
        <time>2025-08-25T11:33:55Z</time>
      </trkpt>
      <trkpt lat="47.00352" lon="-1.0073">
        <ele>90.7</ele>
        <time>2025-08-25T11:33:56Z</time>
      </trkpt>
      <trkpt lat="47.00353" lon="-1.00729">
        <ele>90.8</ele>
        <time>2025-08-25T11:33:57Z</time>
      </trkpt>
      <trkpt lat="47.00354" lon="-1.00727">
        <ele>90.9</ele>
        <time>2025-08-25T11:33:58Z</time>
      </trkpt>
      <trkpt lat="47.00354" lon="-1.00726">
        <ele>91</ele>
        <time>2025-08-25T11:33:59Z</time>
      </trkpt>
      <trkpt lat="47.00355" lon="-1.00725">
        <ele>91.1</ele>
        <time>2025-08-25T11:34:00Z</time>
      </trkpt>
      <trkpt lat="47.00357" lon="-1.00723">
        <ele>91.3</ele>
        <time>2025-08-25T11:34:01Z</time>
      </trkpt>
      <trkpt lat="47.00358" lon="-1.00723">
        <ele>91.4</ele>
        <time>2025-08-25T11:34:02Z</time>
      </trkpt>
      <trkpt lat="47.00358" lon="-1.00722">
        <ele>91.5</ele>
        <time>2025-08-25T11:34:03Z</time>
      </trkpt>
      <trkpt lat="47.0036" lon="-1.00721">
        <ele>91.6</ele>
        <time>2025-08-25T11:34:04Z</time>
      </trkpt>
      <trkpt lat="47.00361" lon="-1.0072">
        <ele>91.7</ele>
        <time>2025-08-25T11:34:05Z</time>
      </trkpt>
      <trkpt lat="47.00362" lon="-1.00719">
        <ele>91.8</ele>
        <time>2025-08-25T11:34:06Z</time>
      </trkpt>
      <trkpt lat="47.00363" lon="-1.00718">
        <ele>91.9</ele>
        <time>2025-08-25T11:34:07Z</time>
      </trkpt>
      <trkpt lat="47.00365" lon="-1.00715">
        <ele>92.2</ele>
        <time>2025-08-25T11:34:08Z</time>
      </trkpt>
      <trkpt lat="47.00366" lon="-1.00715">
        <ele>92.2</ele>
        <time>2025-08-25T11:34:09Z</time>
      </trkpt>
      <trkpt lat="47.00366" lon="-1.00714">
        <ele>92.3</ele>
        <time>2025-08-25T11:34:10Z</time>
      </trkpt>
      <trkpt lat="47.00367" lon="-1.00713">
        <ele>92.4</ele>
        <time>2025-08-25T11:34:11Z</time>
      </trkpt>
      <trkpt lat="47.00368" lon="-1.00712">
        <ele>92.5</ele>
        <time>2025-08-25T11:34:12Z</time>
      </trkpt>
      <trkpt lat="47.00369" lon="-1.00711">
        <ele>92.6</ele>
        <time>2025-08-25T11:34:13Z</time>
      </trkpt>
      <trkpt lat="47.0037" lon="-1.00711">
        <ele>92.7</ele>
        <time>2025-08-25T11:34:14Z</time>
      </trkpt>
      <trkpt lat="47.00371" lon="-1.00711">
        <ele>92.7</ele>
        <time>2025-08-25T11:34:15Z</time>
      </trkpt>
      <trkpt lat="47.00372" lon="-1.0071">
        <ele>92.8</ele>
        <time>2025-08-25T11:34:16Z</time>
      </trkpt>
      <trkpt lat="47.00373" lon="-1.0071">
        <ele>92.9</ele>
        <time>2025-08-25T11:34:17Z</time>
      </trkpt>
      <trkpt lat="47.00374" lon="-1.0071">
        <ele>93</ele>
        <time>2025-08-25T11:34:18Z</time>
      </trkpt>
      <trkpt lat="47.00375" lon="-1.00709">
        <ele>93.1</ele>
        <time>2025-08-25T11:34:19Z</time>
      </trkpt>
      <trkpt lat="47.00377" lon="-1.00709">
        <ele>93.2</ele>
        <time>2025-08-25T11:34:20Z</time>
      </trkpt>
      <trkpt lat="47.00377" lon="-1.00709">
        <ele>93.3</ele>
        <time>2025-08-25T11:34:21Z</time>
      </trkpt>
      <trkpt lat="47.00378" lon="-1.00709">
        <ele>93.4</ele>
        <time>2025-08-25T11:34:22Z</time>
      </trkpt>
      <trkpt lat="47.00379" lon="-1.00709">
        <ele>93.4</ele>
        <time>2025-08-25T11:34:23Z</time>
      </trkpt>
      <trkpt lat="47.00379" lon="-1.00708">
        <ele>93.5</ele>
        <time>2025-08-25T11:34:24Z</time>
      </trkpt>
      <trkpt lat="47.0038" lon="-1.00708">
        <ele>93.6</ele>
        <time>2025-08-25T11:34:25Z</time>
      </trkpt>
      <trkpt lat="47.00381" lon="-1.00708">
        <ele>93.6</ele>
        <time>2025-08-25T11:34:26Z</time>
      </trkpt>
      <trkpt lat="47.00382" lon="-1.00708">
        <ele>93.7</ele>
        <time>2025-08-25T11:34:27Z</time>
      </trkpt>
      <trkpt lat="47.00383" lon="-1.00708">
        <ele>93.8</ele>
        <time>2025-08-25T11:34:28Z</time>
      </trkpt>
      <trkpt lat="47.00384" lon="-1.00708">
        <ele>93.9</ele>
        <time>2025-08-25T11:34:29Z</time>
      </trkpt>
      <trkpt lat="47.00386" lon="-1.00707">
        <ele>93.9</ele>
        <time>2025-08-25T11:34:30Z</time>
      </trkpt>
      <trkpt lat="47.00387" lon="-1.00707">
        <ele>94.1</ele>
        <time>2025-08-25T11:34:31Z</time>
      </trkpt>
      <trkpt lat="47.00388" lon="-1.00706">
        <ele>94.1</ele>
        <time>2025-08-25T11:34:32Z</time>
      </trkpt>
      <trkpt lat="47.00389" lon="-1.00705">
        <ele>94.2</ele>
        <time>2025-08-25T11:34:33Z</time>
      </trkpt>
      <trkpt lat="47.00391" lon="-1.00705">
        <ele>94.3</ele>
        <time>2025-08-25T11:34:34Z</time>
      </trkpt>
      <trkpt lat="47.00393" lon="-1.00705">
        <ele>94.4</ele>
        <time>2025-08-25T11:34:35Z</time>
      </trkpt>
      <trkpt lat="47.00394" lon="-1.00704">
        <ele>94.5</ele>
        <time>2025-08-25T11:34:36Z</time>
      </trkpt>
      <trkpt lat="47.00394" lon="-1.00704">
        <ele>94.5</ele>
        <time>2025-08-25T11:34:37Z</time>
      </trkpt>
      <trkpt lat="47.00397" lon="-1.00704">
        <ele>94.7</ele>
        <time>2025-08-25T11:34:38Z</time>
      </trkpt>
      <trkpt lat="47.00397" lon="-1.00704">
        <ele>94.7</ele>
        <time>2025-08-25T11:34:39Z</time>
      </trkpt>
      <trkpt lat="47.00398" lon="-1.00704">
        <ele>94.7</ele>
        <time>2025-08-25T11:34:40Z</time>
      </trkpt>
      <trkpt lat="47.004" lon="-1.00704">
        <ele>94.8</ele>
        <time>2025-08-25T11:34:41Z</time>
      </trkpt>
      <trkpt lat="47.00401" lon="-1.00704">
        <ele>94.9</ele>
        <time>2025-08-25T11:34:42Z</time>
      </trkpt>
      <trkpt lat="47.00402" lon="-1.00704">
        <ele>94.9</ele>
        <time>2025-08-25T11:34:43Z</time>
      </trkpt>
      <trkpt lat="47.00404" lon="-1.00705">
        <ele>95</ele>
        <time>2025-08-25T11:34:44Z</time>
      </trkpt>
      <trkpt lat="47.00406" lon="-1.00705">
        <ele>95.1</ele>
        <time>2025-08-25T11:34:45Z</time>
      </trkpt>
      <trkpt lat="47.00407" lon="-1.00705">
        <ele>95.1</ele>
        <time>2025-08-25T11:34:46Z</time>
      </trkpt>
      <trkpt lat="47.00408" lon="-1.00706">
        <ele>95.1</ele>
        <time>2025-08-25T11:34:47Z</time>
      </trkpt>
      <trkpt lat="47.00409" lon="-1.00706">
        <ele>95.2</ele>
        <time>2025-08-25T11:34:48Z</time>
      </trkpt>
      <trkpt lat="47.00411" lon="-1.00706">
        <ele>95.2</ele>
        <time>2025-08-25T11:34:49Z</time>
      </trkpt>
      <trkpt lat="47.00413" lon="-1.00707">
        <ele>95.3</ele>
        <time>2025-08-25T11:34:50Z</time>
      </trkpt>
      <trkpt lat="47.00414" lon="-1.00707">
        <ele>95.3</ele>
        <time>2025-08-25T11:34:51Z</time>
      </trkpt>
      <trkpt lat="47.00415" lon="-1.00707">
        <ele>95.4</ele>
        <time>2025-08-25T11:34:52Z</time>
      </trkpt>
      <trkpt lat="47.00416" lon="-1.00706">
        <ele>95.4</ele>
        <time>2025-08-25T11:34:53Z</time>
      </trkpt>
      <trkpt lat="47.00418" lon="-1.00705">
        <ele>95.5</ele>
        <time>2025-08-25T11:34:54Z</time>
      </trkpt>
      <trkpt lat="47.00419" lon="-1.00705">
        <ele>95.5</ele>
        <time>2025-08-25T11:34:55Z</time>
      </trkpt>
      <trkpt lat="47.0042" lon="-1.00705">
        <ele>95.5</ele>
        <time>2025-08-25T11:34:56Z</time>
      </trkpt>
      <trkpt lat="47.00422" lon="-1.00705">
        <ele>95.6</ele>
        <time>2025-08-25T11:34:57Z</time>
      </trkpt>
      <trkpt lat="47.00423" lon="-1.00705">
        <ele>95.6</ele>
        <time>2025-08-25T11:34:58Z</time>
      </trkpt>
      <trkpt lat="47.00424" lon="-1.00704">
        <ele>95.7</ele>
        <time>2025-08-25T11:34:59Z</time>
      </trkpt>
      <trkpt lat="47.00426" lon="-1.00704">
        <ele>95.7</ele>
        <time>2025-08-25T11:35:00Z</time>
      </trkpt>
      <trkpt lat="47.00427" lon="-1.00704">
        <ele>95.7</ele>
        <time>2025-08-25T11:35:01Z</time>
      </trkpt>
      <trkpt lat="47.00428" lon="-1.00704">
        <ele>95.8</ele>
        <time>2025-08-25T11:35:02Z</time>
      </trkpt>
      <trkpt lat="47.0043" lon="-1.00704">
        <ele>95.8</ele>
        <time>2025-08-25T11:35:03Z</time>
      </trkpt>
      <trkpt lat="47.00431" lon="-1.00704">
        <ele>95.8</ele>
        <time>2025-08-25T11:35:04Z</time>
      </trkpt>
      <trkpt lat="47.00433" lon="-1.00705">
        <ele>95.9</ele>
        <time>2025-08-25T11:35:05Z</time>
      </trkpt>
      <trkpt lat="47.00434" lon="-1.00705">
        <ele>95.9</ele>
        <time>2025-08-25T11:35:06Z</time>
      </trkpt>
      <trkpt lat="47.00435" lon="-1.00705">
        <ele>95.9</ele>
        <time>2025-08-25T11:35:07Z</time>
      </trkpt>
      <trkpt lat="47.00436" lon="-1.00705">
        <ele>96</ele>
        <time>2025-08-25T11:35:08Z</time>
      </trkpt>
      <trkpt lat="47.00437" lon="-1.00705">
        <ele>96</ele>
        <time>2025-08-25T11:35:09Z</time>
      </trkpt>
      <trkpt lat="47.00439" lon="-1.00705">
        <ele>96.1</ele>
        <time>2025-08-25T11:35:10Z</time>
      </trkpt>
      <trkpt lat="47.0044" lon="-1.00705">
        <ele>96.1</ele>
        <time>2025-08-25T11:35:11Z</time>
      </trkpt>
      <trkpt lat="47.00441" lon="-1.00705">
        <ele>96.1</ele>
        <time>2025-08-25T11:35:12Z</time>
      </trkpt>
      <trkpt lat="47.00443" lon="-1.00706">
        <ele>96.2</ele>
        <time>2025-08-25T11:35:13Z</time>
      </trkpt>
      <trkpt lat="47.00444" lon="-1.00706">
        <ele>96.2</ele>
        <time>2025-08-25T11:35:14Z</time>
      </trkpt>
      <trkpt lat="47.00446" lon="-1.00705">
        <ele>96.3</ele>
        <time>2025-08-25T11:35:15Z</time>
      </trkpt>
      <trkpt lat="47.00447" lon="-1.00705">
        <ele>96.3</ele>
        <time>2025-08-25T11:35:16Z</time>
      </trkpt>
      <trkpt lat="47.00448" lon="-1.00705">
        <ele>96.4</ele>
        <time>2025-08-25T11:35:17Z</time>
      </trkpt>
      <trkpt lat="47.0045" lon="-1.00705">
        <ele>96.4</ele>
        <time>2025-08-25T11:35:18Z</time>
      </trkpt>
      <trkpt lat="47.00451" lon="-1.00705">
        <ele>96.4</ele>
        <time>2025-08-25T11:35:19Z</time>
      </trkpt>
      <trkpt lat="47.00453" lon="-1.00705">
        <ele>96.5</ele>
        <time>2025-08-25T11:35:20Z</time>
      </trkpt>
      <trkpt lat="47.00455" lon="-1.00705">
        <ele>96.6</ele>
        <time>2025-08-25T11:35:21Z</time>
      </trkpt>
      <trkpt lat="47.00456" lon="-1.00705">
        <ele>96.6</ele>
        <time>2025-08-25T11:35:22Z</time>
      </trkpt>
      <trkpt lat="47.00457" lon="-1.00705">
        <ele>96.6</ele>
        <time>2025-08-25T11:35:23Z</time>
      </trkpt>
      <trkpt lat="47.00459" lon="-1.00705">
        <ele>96.7</ele>
        <time>2025-08-25T11:35:24Z</time>
      </trkpt>
      <trkpt lat="47.0046" lon="-1.00705">
        <ele>96.7</ele>
        <time>2025-08-25T11:35:25Z</time>
      </trkpt>
      <trkpt lat="47.00461" lon="-1.00706">
        <ele>96.8</ele>
        <time>2025-08-25T11:35:26Z</time>
      </trkpt>
      <trkpt lat="47.00462" lon="-1.00706">
        <ele>96.8</ele>
        <time>2025-08-25T11:35:27Z</time>
      </trkpt>
      <trkpt lat="47.00464" lon="-1.00706">
        <ele>96.9</ele>
        <time>2025-08-25T11:35:28Z</time>
      </trkpt>
      <trkpt lat="47.00465" lon="-1.00706">
        <ele>96.9</ele>
        <time>2025-08-25T11:35:29Z</time>
      </trkpt>
      <trkpt lat="47.00467" lon="-1.00706">
        <ele>97</ele>
        <time>2025-08-25T11:35:30Z</time>
      </trkpt>
      <trkpt lat="47.00469" lon="-1.00706">
        <ele>97</ele>
        <time>2025-08-25T11:35:31Z</time>
      </trkpt>
      <trkpt lat="47.0047" lon="-1.00706">
        <ele>97.1</ele>
        <time>2025-08-25T11:35:32Z</time>
      </trkpt>
      <trkpt lat="47.00472" lon="-1.00706">
        <ele>97.1</ele>
        <time>2025-08-25T11:35:33Z</time>
      </trkpt>
      <trkpt lat="47.00473" lon="-1.00706">
        <ele>97.2</ele>
        <time>2025-08-25T11:35:34Z</time>
      </trkpt>
      <trkpt lat="47.00474" lon="-1.00706">
        <ele>97.2</ele>
        <time>2025-08-25T11:35:35Z</time>
      </trkpt>
      <trkpt lat="47.00476" lon="-1.00706">
        <ele>97.3</ele>
        <time>2025-08-25T11:35:36Z</time>
      </trkpt>
      <trkpt lat="47.00477" lon="-1.00706">
        <ele>97.3</ele>
        <time>2025-08-25T11:35:37Z</time>
      </trkpt>
      <trkpt lat="47.00477" lon="-1.00706">
        <ele>97.3</ele>
        <time>2025-08-25T11:35:38Z</time>
      </trkpt>
      <trkpt lat="47.00479" lon="-1.00706">
        <ele>97.4</ele>
        <time>2025-08-25T11:35:39Z</time>
      </trkpt>
      <trkpt lat="47.0048" lon="-1.00706">
        <ele>97.4</ele>
        <time>2025-08-25T11:35:40Z</time>
      </trkpt>
      <trkpt lat="47.00481" lon="-1.00706">
        <ele>97.4</ele>
        <time>2025-08-25T11:35:41Z</time>
      </trkpt>
      <trkpt lat="47.00482" lon="-1.00706">
        <ele>97.5</ele>
        <time>2025-08-25T11:35:42Z</time>
      </trkpt>
      <trkpt lat="47.00484" lon="-1.00706">
        <ele>97.6</ele>
        <time>2025-08-25T11:35:43Z</time>
      </trkpt>
      <trkpt lat="47.00485" lon="-1.00706">
        <ele>97.6</ele>
        <time>2025-08-25T11:35:44Z</time>
      </trkpt>
      <trkpt lat="47.00486" lon="-1.00705">
        <ele>97.6</ele>
        <time>2025-08-25T11:35:45Z</time>
      </trkpt>
      <trkpt lat="47.00487" lon="-1.00705">
        <ele>97.7</ele>
        <time>2025-08-25T11:35:46Z</time>
      </trkpt>
      <trkpt lat="47.00488" lon="-1.00704">
        <ele>97.7</ele>
        <time>2025-08-25T11:35:47Z</time>
      </trkpt>
      <trkpt lat="47.0049" lon="-1.00704">
        <ele>97.8</ele>
        <time>2025-08-25T11:35:48Z</time>
      </trkpt>
      <trkpt lat="47.00491" lon="-1.00703">
        <ele>97.8</ele>
        <time>2025-08-25T11:35:49Z</time>
      </trkpt>
      <trkpt lat="47.00492" lon="-1.00703">
        <ele>97.8</ele>
        <time>2025-08-25T11:35:50Z</time>
      </trkpt>
      <trkpt lat="47.00493" lon="-1.00703">
        <ele>97.9</ele>
        <time>2025-08-25T11:35:51Z</time>
      </trkpt>
      <trkpt lat="47.00495" lon="-1.00702">
        <ele>97.9</ele>
        <time>2025-08-25T11:35:52Z</time>
      </trkpt>
      <trkpt lat="47.00496" lon="-1.00702">
        <ele>98</ele>
        <time>2025-08-25T11:35:53Z</time>
      </trkpt>
      <trkpt lat="47.00497" lon="-1.00702">
        <ele>98</ele>
        <time>2025-08-25T11:35:54Z</time>
      </trkpt>
      <trkpt lat="47.00498" lon="-1.00702">
        <ele>98</ele>
        <time>2025-08-25T11:35:55Z</time>
      </trkpt>
      <trkpt lat="47.00499" lon="-1.00701">
        <ele>98.1</ele>
        <time>2025-08-25T11:35:56Z</time>
      </trkpt>
      <trkpt lat="47.00501" lon="-1.00701">
        <ele>98.1</ele>
        <time>2025-08-25T11:35:57Z</time>
      </trkpt>
      <trkpt lat="47.00502" lon="-1.00701">
        <ele>98.1</ele>
        <time>2025-08-25T11:35:58Z</time>
      </trkpt>
      <trkpt lat="47.00504" lon="-1.00701">
        <ele>98.2</ele>
        <time>2025-08-25T11:35:59Z</time>
      </trkpt>
      <trkpt lat="47.00505" lon="-1.00701">
        <ele>98.2</ele>
        <time>2025-08-25T11:36:00Z</time>
      </trkpt>
      <trkpt lat="47.00507" lon="-1.00701">
        <ele>98.2</ele>
        <time>2025-08-25T11:36:01Z</time>
      </trkpt>
      <trkpt lat="47.00508" lon="-1.00701">
        <ele>98.3</ele>
        <time>2025-08-25T11:36:02Z</time>
      </trkpt>
      <trkpt lat="47.0051" lon="-1.00701">
        <ele>98.3</ele>
        <time>2025-08-25T11:36:03Z</time>
      </trkpt>
      <trkpt lat="47.00511" lon="-1.00701">
        <ele>98.3</ele>
        <time>2025-08-25T11:36:04Z</time>
      </trkpt>
      <trkpt lat="47.00512" lon="-1.00701">
        <ele>98.3</ele>
        <time>2025-08-25T11:36:05Z</time>
      </trkpt>
      <trkpt lat="47.00514" lon="-1.00701">
        <ele>98.4</ele>
        <time>2025-08-25T11:36:06Z</time>
      </trkpt>
      <trkpt lat="47.00515" lon="-1.00701">
        <ele>98.4</ele>
        <time>2025-08-25T11:36:07Z</time>
      </trkpt>
      <trkpt lat="47.00516" lon="-1.00702">
        <ele>98.4</ele>
        <time>2025-08-25T11:36:08Z</time>
      </trkpt>
      <trkpt lat="47.00518" lon="-1.00703">
        <ele>98.4</ele>
        <time>2025-08-25T11:36:09Z</time>
      </trkpt>
      <trkpt lat="47.00518" lon="-1.00703">
        <ele>98.4</ele>
        <time>2025-08-25T11:36:10Z</time>
      </trkpt>
      <trkpt lat="47.00519" lon="-1.00703">
        <ele>98.4</ele>
        <time>2025-08-25T11:36:11Z</time>
      </trkpt>
      <trkpt lat="47.00521" lon="-1.00704">
        <ele>98.5</ele>
        <time>2025-08-25T11:36:12Z</time>
      </trkpt>
      <trkpt lat="47.00522" lon="-1.00704">
        <ele>98.5</ele>
        <time>2025-08-25T11:36:13Z</time>
      </trkpt>
      <trkpt lat="47.00524" lon="-1.00705">
        <ele>98.5</ele>
        <time>2025-08-25T11:36:14Z</time>
      </trkpt>
      <trkpt lat="47.00525" lon="-1.00706">
        <ele>98.5</ele>
        <time>2025-08-25T11:36:15Z</time>
      </trkpt>
      <trkpt lat="47.00526" lon="-1.00706">
        <ele>98.5</ele>
        <time>2025-08-25T11:36:16Z</time>
      </trkpt>
      <trkpt lat="47.00528" lon="-1.00706">
        <ele>98.5</ele>
        <time>2025-08-25T11:36:17Z</time>
      </trkpt>
      <trkpt lat="47.00529" lon="-1.00707">
        <ele>98.5</ele>
        <time>2025-08-25T11:36:18Z</time>
      </trkpt>
      <trkpt lat="47.00531" lon="-1.00707">
        <ele>98.5</ele>
        <time>2025-08-25T11:36:19Z</time>
      </trkpt>
      <trkpt lat="47.00533" lon="-1.00707">
        <ele>98.5</ele>
        <time>2025-08-25T11:36:20Z</time>
      </trkpt>
      <trkpt lat="47.00534" lon="-1.00706">
        <ele>98.5</ele>
        <time>2025-08-25T11:36:21Z</time>
      </trkpt>
      <trkpt lat="47.00535" lon="-1.00706">
        <ele>98.5</ele>
        <time>2025-08-25T11:36:22Z</time>
      </trkpt>
      <trkpt lat="47.00536" lon="-1.00706">
        <ele>98.5</ele>
        <time>2025-08-25T11:36:23Z</time>
      </trkpt>
      <trkpt lat="47.00538" lon="-1.00705">
        <ele>98.5</ele>
        <time>2025-08-25T11:36:24Z</time>
      </trkpt>
      <trkpt lat="47.00539" lon="-1.00705">
        <ele>98.5</ele>
        <time>2025-08-25T11:36:25Z</time>
      </trkpt>
      <trkpt lat="47.0054" lon="-1.00704">
        <ele>98.5</ele>
        <time>2025-08-25T11:36:26Z</time>
      </trkpt>
      <trkpt lat="47.00542" lon="-1.00704">
        <ele>98.5</ele>
        <time>2025-08-25T11:36:27Z</time>
      </trkpt>
      <trkpt lat="47.00543" lon="-1.00703">
        <ele>98.5</ele>
        <time>2025-08-25T11:36:28Z</time>
      </trkpt>
      <trkpt lat="47.00544" lon="-1.00703">
        <ele>98.4</ele>
        <time>2025-08-25T11:36:29Z</time>
      </trkpt>
      <trkpt lat="47.00545" lon="-1.00703">
        <ele>98.4</ele>
        <time>2025-08-25T11:36:30Z</time>
      </trkpt>
      <trkpt lat="47.00547" lon="-1.00703">
        <ele>98.4</ele>
        <time>2025-08-25T11:36:31Z</time>
      </trkpt>
      <trkpt lat="47.00548" lon="-1.00703">
        <ele>98.4</ele>
        <time>2025-08-25T11:36:32Z</time>
      </trkpt>
      <trkpt lat="47.00549" lon="-1.00703">
        <ele>98.4</ele>
        <time>2025-08-25T11:36:33Z</time>
      </trkpt>
      <trkpt lat="47.0055" lon="-1.00703">
        <ele>98.4</ele>
        <time>2025-08-25T11:36:34Z</time>
      </trkpt>
      <trkpt lat="47.00551" lon="-1.00702">
        <ele>98.4</ele>
        <time>2025-08-25T11:36:35Z</time>
      </trkpt>
      <trkpt lat="47.00552" lon="-1.00702">
        <ele>98.4</ele>
        <time>2025-08-25T11:36:36Z</time>
      </trkpt>
      <trkpt lat="47.00553" lon="-1.00702">
        <ele>98.4</ele>
        <time>2025-08-25T11:36:37Z</time>
      </trkpt>
      <trkpt lat="47.00555" lon="-1.00702">
        <ele>98.4</ele>
        <time>2025-08-25T11:36:38Z</time>
      </trkpt>
      <trkpt lat="47.00555" lon="-1.00701">
        <ele>98.4</ele>
        <time>2025-08-25T11:36:39Z</time>
      </trkpt>
      <trkpt lat="47.00557" lon="-1.00701">
        <ele>98.5</ele>
        <time>2025-08-25T11:36:40Z</time>
      </trkpt>
      <trkpt lat="47.00558" lon="-1.007">
        <ele>98.6</ele>
        <time>2025-08-25T11:36:41Z</time>
      </trkpt>
      <trkpt lat="47.00559" lon="-1.00699">
        <ele>98.7</ele>
        <time>2025-08-25T11:36:42Z</time>
      </trkpt>
      <trkpt lat="47.0056" lon="-1.00698">
        <ele>98.8</ele>
        <time>2025-08-25T11:36:43Z</time>
      </trkpt>
      <trkpt lat="47.00561" lon="-1.00695">
        <ele>99</ele>
        <time>2025-08-25T11:36:44Z</time>
      </trkpt>
      <trkpt lat="47.00561" lon="-1.00695">
        <ele>99</ele>
        <time>2025-08-25T11:36:45Z</time>
      </trkpt>
      <trkpt lat="47.00562" lon="-1.00694">
        <ele>99</ele>
        <time>2025-08-25T11:36:46Z</time>
      </trkpt>
      <trkpt lat="47.00562" lon="-1.00693">
        <ele>99</ele>
        <time>2025-08-25T11:36:47Z</time>
      </trkpt>
      <trkpt lat="47.00562" lon="-1.00692">
        <ele>99</ele>
        <time>2025-08-25T11:36:48Z</time>
      </trkpt>
      <trkpt lat="47.00562" lon="-1.00692">
        <ele>99</ele>
        <time>2025-08-25T11:36:49Z</time>
      </trkpt>
      <trkpt lat="47.00562" lon="-1.00691">
        <ele>99</ele>
        <time>2025-08-25T11:36:50Z</time>
      </trkpt>
      <trkpt lat="47.00563" lon="-1.0069">
        <ele>99</ele>
        <time>2025-08-25T11:36:51Z</time>
      </trkpt>
      <trkpt lat="47.00563" lon="-1.00689">
        <ele>99</ele>
        <time>2025-08-25T11:36:52Z</time>
      </trkpt>
      <trkpt lat="47.00564" lon="-1.00689">
        <ele>99</ele>
        <time>2025-08-25T11:36:53Z</time>
      </trkpt>
      <trkpt lat="47.00565" lon="-1.00688">
        <ele>99</ele>
        <time>2025-08-25T11:36:54Z</time>
      </trkpt>
      <trkpt lat="47.00566" lon="-1.00687">
        <ele>99</ele>
        <time>2025-08-25T11:36:55Z</time>
      </trkpt>
      <trkpt lat="47.00568" lon="-1.00685">
        <ele>99</ele>
        <time>2025-08-25T11:36:56Z</time>
      </trkpt>
      <trkpt lat="47.00569" lon="-1.00685">
        <ele>99</ele>
        <time>2025-08-25T11:36:57Z</time>
      </trkpt>
      <trkpt lat="47.0057" lon="-1.00684">
        <ele>99</ele>
        <time>2025-08-25T11:36:58Z</time>
      </trkpt>
      <trkpt lat="47.00572" lon="-1.00683">
        <ele>98.9</ele>
        <time>2025-08-25T11:36:59Z</time>
      </trkpt>
      <trkpt lat="47.00572" lon="-1.00682">
        <ele>98.9</ele>
        <time>2025-08-25T11:37:00Z</time>
      </trkpt>
      <trkpt lat="47.00573" lon="-1.00682">
        <ele>98.9</ele>
        <time>2025-08-25T11:37:01Z</time>
      </trkpt>
      <trkpt lat="47.00575" lon="-1.00681">
        <ele>98.9</ele>
        <time>2025-08-25T11:37:02Z</time>
      </trkpt>
      <trkpt lat="47.00576" lon="-1.00681">
        <ele>98.9</ele>
        <time>2025-08-25T11:37:03Z</time>
      </trkpt>
      <trkpt lat="47.00578" lon="-1.0068">
        <ele>98.9</ele>
        <time>2025-08-25T11:37:04Z</time>
      </trkpt>
      <trkpt lat="47.00579" lon="-1.0068">
        <ele>98.9</ele>
        <time>2025-08-25T11:37:05Z</time>
      </trkpt>
      <trkpt lat="47.0058" lon="-1.0068">
        <ele>98.9</ele>
        <time>2025-08-25T11:37:06Z</time>
      </trkpt>
      <trkpt lat="47.00582" lon="-1.0068">
        <ele>98.9</ele>
        <time>2025-08-25T11:37:07Z</time>
      </trkpt>
      <trkpt lat="47.00583" lon="-1.0068">
        <ele>98.9</ele>
        <time>2025-08-25T11:37:08Z</time>
      </trkpt>
      <trkpt lat="47.00584" lon="-1.0068">
        <ele>98.9</ele>
        <time>2025-08-25T11:37:09Z</time>
      </trkpt>
      <trkpt lat="47.00586" lon="-1.0068">
        <ele>98.9</ele>
        <time>2025-08-25T11:37:10Z</time>
      </trkpt>
      <trkpt lat="47.00587" lon="-1.0068">
        <ele>98.9</ele>
        <time>2025-08-25T11:37:11Z</time>
      </trkpt>
      <trkpt lat="47.00588" lon="-1.0068">
        <ele>98.9</ele>
        <time>2025-08-25T11:37:12Z</time>
      </trkpt>
      <trkpt lat="47.00589" lon="-1.0068">
        <ele>98.9</ele>
        <time>2025-08-25T11:37:13Z</time>
      </trkpt>
      <trkpt lat="47.0059" lon="-1.0068">
        <ele>98.9</ele>
        <time>2025-08-25T11:37:14Z</time>
      </trkpt>
      <trkpt lat="47.00591" lon="-1.00681">
        <ele>98.9</ele>
        <time>2025-08-25T11:37:15Z</time>
      </trkpt>
      <trkpt lat="47.00592" lon="-1.00681">
        <ele>98.9</ele>
        <time>2025-08-25T11:37:16Z</time>
      </trkpt>
      <trkpt lat="47.00593" lon="-1.0068">
        <ele>98.9</ele>
        <time>2025-08-25T11:37:17Z</time>
      </trkpt>
      <trkpt lat="47.00594" lon="-1.0068">
        <ele>99</ele>
        <time>2025-08-25T11:37:18Z</time>
      </trkpt>
      <trkpt lat="47.00595" lon="-1.0068">
        <ele>99</ele>
        <time>2025-08-25T11:37:19Z</time>
      </trkpt>
      <trkpt lat="47.00596" lon="-1.0068">
        <ele>99</ele>
        <time>2025-08-25T11:37:20Z</time>
      </trkpt>
      <trkpt lat="47.00597" lon="-1.0068">
        <ele>99</ele>
        <time>2025-08-25T11:37:21Z</time>
      </trkpt>
      <trkpt lat="47.00598" lon="-1.0068">
        <ele>99.1</ele>
        <time>2025-08-25T11:37:22Z</time>
      </trkpt>
      <trkpt lat="47.00599" lon="-1.00679">
        <ele>99.1</ele>
        <time>2025-08-25T11:37:23Z</time>
      </trkpt>
      <trkpt lat="47.006" lon="-1.00679">
        <ele>99.1</ele>
        <time>2025-08-25T11:37:24Z</time>
      </trkpt>
      <trkpt lat="47.00601" lon="-1.00678">
        <ele>99.1</ele>
        <time>2025-08-25T11:37:25Z</time>
      </trkpt>
      <trkpt lat="47.00602" lon="-1.00677">
        <ele>99.1</ele>
        <time>2025-08-25T11:37:26Z</time>
      </trkpt>
      <trkpt lat="47.00603" lon="-1.00677">
        <ele>99.2</ele>
        <time>2025-08-25T11:37:27Z</time>
      </trkpt>
      <trkpt lat="47.00604" lon="-1.00676">
        <ele>99.2</ele>
        <time>2025-08-25T11:37:28Z</time>
      </trkpt>
      <trkpt lat="47.00605" lon="-1.00676">
        <ele>99.2</ele>
        <time>2025-08-25T11:37:29Z</time>
      </trkpt>
      <trkpt lat="47.00606" lon="-1.00675">
        <ele>99.3</ele>
        <time>2025-08-25T11:37:30Z</time>
      </trkpt>
      <trkpt lat="47.00607" lon="-1.00674">
        <ele>99.3</ele>
        <time>2025-08-25T11:37:31Z</time>
      </trkpt>
      <trkpt lat="47.00608" lon="-1.00674">
        <ele>99.3</ele>
        <time>2025-08-25T11:37:32Z</time>
      </trkpt>
      <trkpt lat="47.00609" lon="-1.00673">
        <ele>99.4</ele>
        <time>2025-08-25T11:37:33Z</time>
      </trkpt>
      <trkpt lat="47.0061" lon="-1.00672">
        <ele>99.4</ele>
        <time>2025-08-25T11:37:34Z</time>
      </trkpt>
      <trkpt lat="47.00611" lon="-1.00671">
        <ele>99.5</ele>
        <time>2025-08-25T11:37:35Z</time>
      </trkpt>
      <trkpt lat="47.00612" lon="-1.0067">
        <ele>99.5</ele>
        <time>2025-08-25T11:37:36Z</time>
      </trkpt>
      <trkpt lat="47.00614" lon="-1.00669">
        <ele>99.6</ele>
        <time>2025-08-25T11:37:37Z</time>
      </trkpt>
      <trkpt lat="47.00614" lon="-1.00668">
        <ele>99.6</ele>
        <time>2025-08-25T11:37:38Z</time>
      </trkpt>
      <trkpt lat="47.00615" lon="-1.00667">
        <ele>99.7</ele>
        <time>2025-08-25T11:37:39Z</time>
      </trkpt>
      <trkpt lat="47.00616" lon="-1.00666">
        <ele>99.7</ele>
        <time>2025-08-25T11:37:40Z</time>
      </trkpt>
      <trkpt lat="47.00618" lon="-1.00665">
        <ele>99.8</ele>
        <time>2025-08-25T11:37:41Z</time>
      </trkpt>
      <trkpt lat="47.00619" lon="-1.00664">
        <ele>99.9</ele>
        <time>2025-08-25T11:37:42Z</time>
      </trkpt>
      <trkpt lat="47.0062" lon="-1.00662">
        <ele>99.9</ele>
        <time>2025-08-25T11:37:43Z</time>
      </trkpt>
      <trkpt lat="47.00621" lon="-1.00661">
        <ele>100</ele>
        <time>2025-08-25T11:37:44Z</time>
      </trkpt>
      <trkpt lat="47.00623" lon="-1.00659">
        <ele>100.1</ele>
        <time>2025-08-25T11:37:45Z</time>
      </trkpt>
      <trkpt lat="47.00624" lon="-1.00658">
        <ele>100.2</ele>
        <time>2025-08-25T11:37:46Z</time>
      </trkpt>
      <trkpt lat="47.00625" lon="-1.00656">
        <ele>100.3</ele>
        <time>2025-08-25T11:37:47Z</time>
      </trkpt>
      <trkpt lat="47.00627" lon="-1.00655">
        <ele>100.4</ele>
        <time>2025-08-25T11:37:48Z</time>
      </trkpt>
      <trkpt lat="47.00628" lon="-1.00654">
        <ele>100.5</ele>
        <time>2025-08-25T11:37:49Z</time>
      </trkpt>
      <trkpt lat="47.00629" lon="-1.00652">
        <ele>100.6</ele>
        <time>2025-08-25T11:37:50Z</time>
      </trkpt>
      <trkpt lat="47.0063" lon="-1.00651">
        <ele>100.6</ele>
        <time>2025-08-25T11:37:51Z</time>
      </trkpt>
      <trkpt lat="47.00631" lon="-1.0065">
        <ele>100.7</ele>
        <time>2025-08-25T11:37:52Z</time>
      </trkpt>
      <trkpt lat="47.00632" lon="-1.00648">
        <ele>100.8</ele>
        <time>2025-08-25T11:37:53Z</time>
      </trkpt>
      <trkpt lat="47.00633" lon="-1.00647">
        <ele>100.9</ele>
        <time>2025-08-25T11:37:54Z</time>
      </trkpt>
      <trkpt lat="47.00633" lon="-1.00646">
        <ele>100.9</ele>
        <time>2025-08-25T11:37:55Z</time>
      </trkpt>
      <trkpt lat="47.00635" lon="-1.00645">
        <ele>101</ele>
        <time>2025-08-25T11:37:56Z</time>
      </trkpt>
      <trkpt lat="47.00636" lon="-1.00644">
        <ele>101.1</ele>
        <time>2025-08-25T11:37:57Z</time>
      </trkpt>
      <trkpt lat="47.00637" lon="-1.00643">
        <ele>101.2</ele>
        <time>2025-08-25T11:37:58Z</time>
      </trkpt>
      <trkpt lat="47.00639" lon="-1.00642">
        <ele>101.3</ele>
        <time>2025-08-25T11:37:59Z</time>
      </trkpt>
      <trkpt lat="47.0064" lon="-1.00641">
        <ele>101.3</ele>
        <time>2025-08-25T11:38:00Z</time>
      </trkpt>
      <trkpt lat="47.0064" lon="-1.0064">
        <ele>101.4</ele>
        <time>2025-08-25T11:38:01Z</time>
      </trkpt>
      <trkpt lat="47.00642" lon="-1.00639">
        <ele>101.5</ele>
        <time>2025-08-25T11:38:02Z</time>
      </trkpt>
      <trkpt lat="47.00643" lon="-1.00638">
        <ele>101.6</ele>
        <time>2025-08-25T11:38:03Z</time>
      </trkpt>
      <trkpt lat="47.00644" lon="-1.00638">
        <ele>101.6</ele>
        <time>2025-08-25T11:38:04Z</time>
      </trkpt>
      <trkpt lat="47.00646" lon="-1.00635">
        <ele>101.8</ele>
        <time>2025-08-25T11:38:05Z</time>
      </trkpt>
      <trkpt lat="47.00647" lon="-1.00634">
        <ele>101.9</ele>
        <time>2025-08-25T11:38:06Z</time>
      </trkpt>
      <trkpt lat="47.00647" lon="-1.00633">
        <ele>101.9</ele>
        <time>2025-08-25T11:38:07Z</time>
      </trkpt>
      <trkpt lat="47.00648" lon="-1.00632">
        <ele>102</ele>
        <time>2025-08-25T11:38:08Z</time>
      </trkpt>
      <trkpt lat="47.00649" lon="-1.00631">
        <ele>102.1</ele>
        <time>2025-08-25T11:38:09Z</time>
      </trkpt>
      <trkpt lat="47.0065" lon="-1.00629">
        <ele>102.2</ele>
        <time>2025-08-25T11:38:10Z</time>
      </trkpt>
      <trkpt lat="47.00651" lon="-1.00627">
        <ele>102.3</ele>
        <time>2025-08-25T11:38:11Z</time>
      </trkpt>
      <trkpt lat="47.00652" lon="-1.00626">
        <ele>102.3</ele>
        <time>2025-08-25T11:38:12Z</time>
      </trkpt>
      <trkpt lat="47.00652" lon="-1.00625">
        <ele>102.4</ele>
        <time>2025-08-25T11:38:13Z</time>
      </trkpt>
      <trkpt lat="47.00653" lon="-1.00624">
        <ele>102.5</ele>
        <time>2025-08-25T11:38:14Z</time>
      </trkpt>
      <trkpt lat="47.00654" lon="-1.00622">
        <ele>102.6</ele>
        <time>2025-08-25T11:38:15Z</time>
      </trkpt>
      <trkpt lat="47.00655" lon="-1.00621">
        <ele>102.6</ele>
        <time>2025-08-25T11:38:16Z</time>
      </trkpt>
      <trkpt lat="47.00656" lon="-1.00619">
        <ele>102.8</ele>
        <time>2025-08-25T11:38:17Z</time>
      </trkpt>
      <trkpt lat="47.00657" lon="-1.00618">
        <ele>102.8</ele>
        <time>2025-08-25T11:38:18Z</time>
      </trkpt>
      <trkpt lat="47.00657" lon="-1.00617">
        <ele>102.9</ele>
        <time>2025-08-25T11:38:19Z</time>
      </trkpt>
      <trkpt lat="47.00658" lon="-1.00615">
        <ele>102.9</ele>
        <time>2025-08-25T11:38:20Z</time>
      </trkpt>
      <trkpt lat="47.00659" lon="-1.00614">
        <ele>103</ele>
        <time>2025-08-25T11:38:21Z</time>
      </trkpt>
      <trkpt lat="47.00659" lon="-1.00613">
        <ele>103.1</ele>
        <time>2025-08-25T11:38:22Z</time>
      </trkpt>
      <trkpt lat="47.0066" lon="-1.00611">
        <ele>103.2</ele>
        <time>2025-08-25T11:38:23Z</time>
      </trkpt>
      <trkpt lat="47.00661" lon="-1.0061">
        <ele>103.3</ele>
        <time>2025-08-25T11:38:24Z</time>
      </trkpt>
      <trkpt lat="47.00661" lon="-1.00609">
        <ele>103.3</ele>
        <time>2025-08-25T11:38:25Z</time>
      </trkpt>
      <trkpt lat="47.00663" lon="-1.00606">
        <ele>103.5</ele>
        <time>2025-08-25T11:38:26Z</time>
      </trkpt>
      <trkpt lat="47.00663" lon="-1.00605">
        <ele>103.6</ele>
        <time>2025-08-25T11:38:27Z</time>
      </trkpt>
      <trkpt lat="47.00664" lon="-1.00604">
        <ele>103.6</ele>
        <time>2025-08-25T11:38:28Z</time>
      </trkpt>
      <trkpt lat="47.00664" lon="-1.00602">
        <ele>103.7</ele>
        <time>2025-08-25T11:38:29Z</time>
      </trkpt>
      <trkpt lat="47.00665" lon="-1.00601">
        <ele>103.8</ele>
        <time>2025-08-25T11:38:30Z</time>
      </trkpt>
      <trkpt lat="47.00666" lon="-1.006">
        <ele>103.9</ele>
        <time>2025-08-25T11:38:31Z</time>
      </trkpt>
      <trkpt lat="47.00667" lon="-1.00599">
        <ele>103.9</ele>
        <time>2025-08-25T11:38:32Z</time>
      </trkpt>
      <trkpt lat="47.00668" lon="-1.00597">
        <ele>104</ele>
        <time>2025-08-25T11:38:33Z</time>
      </trkpt>
      <trkpt lat="47.00669" lon="-1.00596">
        <ele>104.1</ele>
        <time>2025-08-25T11:38:34Z</time>
      </trkpt>
      <trkpt lat="47.0067" lon="-1.00595">
        <ele>104.2</ele>
        <time>2025-08-25T11:38:35Z</time>
      </trkpt>
      <trkpt lat="47.00671" lon="-1.00594">
        <ele>104.3</ele>
        <time>2025-08-25T11:38:36Z</time>
      </trkpt>
      <trkpt lat="47.00672" lon="-1.00591">
        <ele>104.4</ele>
        <time>2025-08-25T11:38:37Z</time>
      </trkpt>
      <trkpt lat="47.00673" lon="-1.00591">
        <ele>104.5</ele>
        <time>2025-08-25T11:38:38Z</time>
      </trkpt>
      <trkpt lat="47.00674" lon="-1.0059">
        <ele>104.5</ele>
        <time>2025-08-25T11:38:39Z</time>
      </trkpt>
      <trkpt lat="47.00675" lon="-1.00588">
        <ele>104.7</ele>
        <time>2025-08-25T11:38:40Z</time>
      </trkpt>
      <trkpt lat="47.00676" lon="-1.00587">
        <ele>104.7</ele>
        <time>2025-08-25T11:38:41Z</time>
      </trkpt>
      <trkpt lat="47.00676" lon="-1.00586">
        <ele>104.8</ele>
        <time>2025-08-25T11:38:42Z</time>
      </trkpt>
      <trkpt lat="47.00677" lon="-1.00584">
        <ele>104.9</ele>
        <time>2025-08-25T11:38:43Z</time>
      </trkpt>
      <trkpt lat="47.00678" lon="-1.00583">
        <ele>105</ele>
        <time>2025-08-25T11:38:44Z</time>
      </trkpt>
      <trkpt lat="47.00679" lon="-1.00581">
        <ele>105.1</ele>
        <time>2025-08-25T11:38:45Z</time>
      </trkpt>
      <trkpt lat="47.0068" lon="-1.0058">
        <ele>105.2</ele>
        <time>2025-08-25T11:38:46Z</time>
      </trkpt>
      <trkpt lat="47.00681" lon="-1.00579">
        <ele>105.2</ele>
        <time>2025-08-25T11:38:47Z</time>
      </trkpt>
      <trkpt lat="47.00682" lon="-1.00577">
        <ele>105.4</ele>
        <time>2025-08-25T11:38:48Z</time>
      </trkpt>
      <trkpt lat="47.00683" lon="-1.00576">
        <ele>105.4</ele>
        <time>2025-08-25T11:38:49Z</time>
      </trkpt>
      <trkpt lat="47.00683" lon="-1.00575">
        <ele>105.5</ele>
        <time>2025-08-25T11:38:50Z</time>
      </trkpt>
      <trkpt lat="47.00685" lon="-1.00573">
        <ele>105.7</ele>
        <time>2025-08-25T11:38:51Z</time>
      </trkpt>
      <trkpt lat="47.00685" lon="-1.00572">
        <ele>105.7</ele>
        <time>2025-08-25T11:38:52Z</time>
      </trkpt>
      <trkpt lat="47.00686" lon="-1.00571">
        <ele>105.8</ele>
        <time>2025-08-25T11:38:53Z</time>
      </trkpt>
      <trkpt lat="47.00687" lon="-1.0057">
        <ele>105.9</ele>
        <time>2025-08-25T11:38:54Z</time>
      </trkpt>
      <trkpt lat="47.00688" lon="-1.00569">
        <ele>105.9</ele>
        <time>2025-08-25T11:38:55Z</time>
      </trkpt>
      <trkpt lat="47.00688" lon="-1.00568">
        <ele>106</ele>
        <time>2025-08-25T11:38:56Z</time>
      </trkpt>
      <trkpt lat="47.00689" lon="-1.00567">
        <ele>106.1</ele>
        <time>2025-08-25T11:38:57Z</time>
      </trkpt>
      <trkpt lat="47.0069" lon="-1.00566">
        <ele>106.2</ele>
        <time>2025-08-25T11:38:58Z</time>
      </trkpt>
      <trkpt lat="47.00691" lon="-1.00565">
        <ele>106.2</ele>
        <time>2025-08-25T11:38:59Z</time>
      </trkpt>
      <trkpt lat="47.00691" lon="-1.00565">
        <ele>106.3</ele>
        <time>2025-08-25T11:39:00Z</time>
      </trkpt>
      <trkpt lat="47.00692" lon="-1.00564">
        <ele>106.4</ele>
        <time>2025-08-25T11:39:01Z</time>
      </trkpt>
      <trkpt lat="47.00693" lon="-1.00563">
        <ele>106.4</ele>
        <time>2025-08-25T11:39:02Z</time>
      </trkpt>
      <trkpt lat="47.00694" lon="-1.00562">
        <ele>106.5</ele>
        <time>2025-08-25T11:39:03Z</time>
      </trkpt>
      <trkpt lat="47.00695" lon="-1.00561">
        <ele>106.6</ele>
        <time>2025-08-25T11:39:04Z</time>
      </trkpt>
      <trkpt lat="47.00695" lon="-1.0056">
        <ele>106.7</ele>
        <time>2025-08-25T11:39:05Z</time>
      </trkpt>
      <trkpt lat="47.00697" lon="-1.00558">
        <ele>106.8</ele>
        <time>2025-08-25T11:39:06Z</time>
      </trkpt>
      <trkpt lat="47.00697" lon="-1.00557">
        <ele>106.9</ele>
        <time>2025-08-25T11:39:07Z</time>
      </trkpt>
      <trkpt lat="47.00698" lon="-1.00556">
        <ele>106.9</ele>
        <time>2025-08-25T11:39:08Z</time>
      </trkpt>
      <trkpt lat="47.00699" lon="-1.00555">
        <ele>107</ele>
        <time>2025-08-25T11:39:09Z</time>
      </trkpt>
      <trkpt lat="47.00699" lon="-1.00554">
        <ele>107.1</ele>
        <time>2025-08-25T11:39:10Z</time>
      </trkpt>
      <trkpt lat="47.007" lon="-1.00552">
        <ele>107.2</ele>
        <time>2025-08-25T11:39:11Z</time>
      </trkpt>
      <trkpt lat="47.00701" lon="-1.00551">
        <ele>107.3</ele>
        <time>2025-08-25T11:39:12Z</time>
      </trkpt>
      <trkpt lat="47.00702" lon="-1.00549">
        <ele>107.4</ele>
        <time>2025-08-25T11:39:13Z</time>
      </trkpt>
      <trkpt lat="47.00703" lon="-1.00548">
        <ele>107.5</ele>
        <time>2025-08-25T11:39:14Z</time>
      </trkpt>
      <trkpt lat="47.00704" lon="-1.00547">
        <ele>107.6</ele>
        <time>2025-08-25T11:39:15Z</time>
      </trkpt>
      <trkpt lat="47.00705" lon="-1.00546">
        <ele>107.7</ele>
        <time>2025-08-25T11:39:16Z</time>
      </trkpt>
      <trkpt lat="47.00706" lon="-1.00544">
        <ele>107.8</ele>
        <time>2025-08-25T11:39:17Z</time>
      </trkpt>
      <trkpt lat="47.00707" lon="-1.00542">
        <ele>107.9</ele>
        <time>2025-08-25T11:39:18Z</time>
      </trkpt>
      <trkpt lat="47.00708" lon="-1.00539">
        <ele>108.1</ele>
        <time>2025-08-25T11:39:19Z</time>
      </trkpt>
      <trkpt lat="47.00708" lon="-1.00538">
        <ele>108.1</ele>
        <time>2025-08-25T11:39:20Z</time>
      </trkpt>
      <trkpt lat="47.00709" lon="-1.00537">
        <ele>108.2</ele>
        <time>2025-08-25T11:39:21Z</time>
      </trkpt>
      <trkpt lat="47.00709" lon="-1.00536">
        <ele>108.3</ele>
        <time>2025-08-25T11:39:22Z</time>
      </trkpt>
      <trkpt lat="47.0071" lon="-1.00534">
        <ele>108.4</ele>
        <time>2025-08-25T11:39:23Z</time>
      </trkpt>
      <trkpt lat="47.00711" lon="-1.00533">
        <ele>108.5</ele>
        <time>2025-08-25T11:39:24Z</time>
      </trkpt>
      <trkpt lat="47.00711" lon="-1.00532">
        <ele>108.6</ele>
        <time>2025-08-25T11:39:25Z</time>
      </trkpt>
      <trkpt lat="47.00712" lon="-1.00531">
        <ele>108.6</ele>
        <time>2025-08-25T11:39:26Z</time>
      </trkpt>
      <trkpt lat="47.00713" lon="-1.0053">
        <ele>108.7</ele>
        <time>2025-08-25T11:39:27Z</time>
      </trkpt>
      <trkpt lat="47.00714" lon="-1.00529">
        <ele>108.8</ele>
        <time>2025-08-25T11:39:28Z</time>
      </trkpt>
      <trkpt lat="47.00714" lon="-1.00528">
        <ele>108.9</ele>
        <time>2025-08-25T11:39:29Z</time>
      </trkpt>
      <trkpt lat="47.00715" lon="-1.00527">
        <ele>108.9</ele>
        <time>2025-08-25T11:39:30Z</time>
      </trkpt>
      <trkpt lat="47.00716" lon="-1.00526">
        <ele>109</ele>
        <time>2025-08-25T11:39:31Z</time>
      </trkpt>
      <trkpt lat="47.00717" lon="-1.00525">
        <ele>109.1</ele>
        <time>2025-08-25T11:39:32Z</time>
      </trkpt>
      <trkpt lat="47.00718" lon="-1.00524">
        <ele>109.2</ele>
        <time>2025-08-25T11:39:33Z</time>
      </trkpt>
      <trkpt lat="47.00719" lon="-1.00523">
        <ele>109.3</ele>
        <time>2025-08-25T11:39:34Z</time>
      </trkpt>
      <trkpt lat="47.00719" lon="-1.00522">
        <ele>109.4</ele>
        <time>2025-08-25T11:39:35Z</time>
      </trkpt>
      <trkpt lat="47.0072" lon="-1.00521">
        <ele>109.5</ele>
        <time>2025-08-25T11:39:36Z</time>
      </trkpt>
      <trkpt lat="47.00721" lon="-1.00519">
        <ele>109.5</ele>
        <time>2025-08-25T11:39:37Z</time>
      </trkpt>
      <trkpt lat="47.00722" lon="-1.00518">
        <ele>109.7</ele>
        <time>2025-08-25T11:39:38Z</time>
      </trkpt>
      <trkpt lat="47.00722" lon="-1.00517">
        <ele>109.7</ele>
        <time>2025-08-25T11:39:39Z</time>
      </trkpt>
      <trkpt lat="47.00723" lon="-1.00516">
        <ele>109.8</ele>
        <time>2025-08-25T11:39:40Z</time>
      </trkpt>
      <trkpt lat="47.00724" lon="-1.00515">
        <ele>109.9</ele>
        <time>2025-08-25T11:39:41Z</time>
      </trkpt>
      <trkpt lat="47.00725" lon="-1.00513">
        <ele>110</ele>
        <time>2025-08-25T11:39:42Z</time>
      </trkpt>
      <trkpt lat="47.00726" lon="-1.00512">
        <ele>110.1</ele>
        <time>2025-08-25T11:39:43Z</time>
      </trkpt>
      <trkpt lat="47.00726" lon="-1.00511">
        <ele>110.2</ele>
        <time>2025-08-25T11:39:44Z</time>
      </trkpt>
      <trkpt lat="47.00727" lon="-1.0051">
        <ele>110.2</ele>
        <time>2025-08-25T11:39:45Z</time>
      </trkpt>
      <trkpt lat="47.00728" lon="-1.00509">
        <ele>110.3</ele>
        <time>2025-08-25T11:39:46Z</time>
      </trkpt>
      <trkpt lat="47.00728" lon="-1.00508">
        <ele>110.4</ele>
        <time>2025-08-25T11:39:47Z</time>
      </trkpt>
      <trkpt lat="47.00729" lon="-1.00507">
        <ele>110.5</ele>
        <time>2025-08-25T11:39:48Z</time>
      </trkpt>
      <trkpt lat="47.0073" lon="-1.00506">
        <ele>110.6</ele>
        <time>2025-08-25T11:39:49Z</time>
      </trkpt>
      <trkpt lat="47.00731" lon="-1.00505">
        <ele>110.7</ele>
        <time>2025-08-25T11:39:50Z</time>
      </trkpt>
      <trkpt lat="47.00731" lon="-1.00504">
        <ele>110.8</ele>
        <time>2025-08-25T11:39:51Z</time>
      </trkpt>
      <trkpt lat="47.00732" lon="-1.00503">
        <ele>110.9</ele>
        <time>2025-08-25T11:39:52Z</time>
      </trkpt>
      <trkpt lat="47.00733" lon="-1.00502">
        <ele>111</ele>
        <time>2025-08-25T11:39:53Z</time>
      </trkpt>
      <trkpt lat="47.00734" lon="-1.00502">
        <ele>111</ele>
        <time>2025-08-25T11:39:54Z</time>
      </trkpt>
      <trkpt lat="47.00735" lon="-1.00501">
        <ele>111.1</ele>
        <time>2025-08-25T11:39:55Z</time>
      </trkpt>
      <trkpt lat="47.00736" lon="-1.005">
        <ele>111.2</ele>
        <time>2025-08-25T11:39:56Z</time>
      </trkpt>
      <trkpt lat="47.00737" lon="-1.00499">
        <ele>111.3</ele>
        <time>2025-08-25T11:39:57Z</time>
      </trkpt>
      <trkpt lat="47.00737" lon="-1.00498">
        <ele>111.4</ele>
        <time>2025-08-25T11:39:58Z</time>
      </trkpt>
      <trkpt lat="47.00738" lon="-1.00497">
        <ele>111.5</ele>
        <time>2025-08-25T11:39:59Z</time>
      </trkpt>
      <trkpt lat="47.00739" lon="-1.00496">
        <ele>111.5</ele>
        <time>2025-08-25T11:40:00Z</time>
      </trkpt>
      <trkpt lat="47.00739" lon="-1.00495">
        <ele>111.6</ele>
        <time>2025-08-25T11:40:01Z</time>
      </trkpt>
      <trkpt lat="47.0074" lon="-1.00494">
        <ele>111.7</ele>
        <time>2025-08-25T11:40:02Z</time>
      </trkpt>
      <trkpt lat="47.00741" lon="-1.00493">
        <ele>111.8</ele>
        <time>2025-08-25T11:40:03Z</time>
      </trkpt>
      <trkpt lat="47.00742" lon="-1.00492">
        <ele>111.9</ele>
        <time>2025-08-25T11:40:04Z</time>
      </trkpt>
      <trkpt lat="47.00743" lon="-1.00491">
        <ele>111.9</ele>
        <time>2025-08-25T11:40:05Z</time>
      </trkpt>
      <trkpt lat="47.00743" lon="-1.0049">
        <ele>112</ele>
        <time>2025-08-25T11:40:06Z</time>
      </trkpt>
      <trkpt lat="47.00744" lon="-1.00489">
        <ele>112.1</ele>
        <time>2025-08-25T11:40:07Z</time>
      </trkpt>
      <trkpt lat="47.00745" lon="-1.00488">
        <ele>112.2</ele>
        <time>2025-08-25T11:40:08Z</time>
      </trkpt>
      <trkpt lat="47.00745" lon="-1.00487">
        <ele>112.2</ele>
        <time>2025-08-25T11:40:09Z</time>
      </trkpt>
      <trkpt lat="47.00746" lon="-1.00485">
        <ele>112.3</ele>
        <time>2025-08-25T11:40:10Z</time>
      </trkpt>
      <trkpt lat="47.00747" lon="-1.00484">
        <ele>112.4</ele>
        <time>2025-08-25T11:40:11Z</time>
      </trkpt>
      <trkpt lat="47.00747" lon="-1.00483">
        <ele>112.4</ele>
        <time>2025-08-25T11:40:12Z</time>
      </trkpt>
      <trkpt lat="47.00747" lon="-1.00482">
        <ele>112.5</ele>
        <time>2025-08-25T11:40:13Z</time>
      </trkpt>
      <trkpt lat="47.00748" lon="-1.0048">
        <ele>112.6</ele>
        <time>2025-08-25T11:40:14Z</time>
      </trkpt>
      <trkpt lat="47.0075" lon="-1.00479">
        <ele>112.7</ele>
        <time>2025-08-25T11:40:15Z</time>
      </trkpt>
      <trkpt lat="47.00751" lon="-1.00478">
        <ele>112.8</ele>
        <time>2025-08-25T11:40:16Z</time>
      </trkpt>
      <trkpt lat="47.00752" lon="-1.00477">
        <ele>112.9</ele>
        <time>2025-08-25T11:40:17Z</time>
      </trkpt>
      <trkpt lat="47.00754" lon="-1.00476">
        <ele>113</ele>
        <time>2025-08-25T11:40:18Z</time>
      </trkpt>
      <trkpt lat="47.00755" lon="-1.00475">
        <ele>113</ele>
        <time>2025-08-25T11:40:19Z</time>
      </trkpt>
      <trkpt lat="47.00756" lon="-1.00473">
        <ele>113.1</ele>
        <time>2025-08-25T11:40:20Z</time>
      </trkpt>
      <trkpt lat="47.00757" lon="-1.00472">
        <ele>113.2</ele>
        <time>2025-08-25T11:40:21Z</time>
      </trkpt>
      <trkpt lat="47.00758" lon="-1.0047">
        <ele>113.2</ele>
        <time>2025-08-25T11:40:22Z</time>
      </trkpt>
      <trkpt lat="47.00759" lon="-1.00469">
        <ele>113.3</ele>
        <time>2025-08-25T11:40:23Z</time>
      </trkpt>
      <trkpt lat="47.0076" lon="-1.00467">
        <ele>113.4</ele>
        <time>2025-08-25T11:40:24Z</time>
      </trkpt>
      <trkpt lat="47.00761" lon="-1.00466">
        <ele>113.4</ele>
        <time>2025-08-25T11:40:25Z</time>
      </trkpt>
      <trkpt lat="47.00761" lon="-1.00465">
        <ele>113.5</ele>
        <time>2025-08-25T11:40:26Z</time>
      </trkpt>
      <trkpt lat="47.00763" lon="-1.00463">
        <ele>113.6</ele>
        <time>2025-08-25T11:40:27Z</time>
      </trkpt>
      <trkpt lat="47.00763" lon="-1.00462">
        <ele>113.6</ele>
        <time>2025-08-25T11:40:28Z</time>
      </trkpt>
      <trkpt lat="47.00764" lon="-1.00461">
        <ele>113.6</ele>
        <time>2025-08-25T11:40:29Z</time>
      </trkpt>
      <trkpt lat="47.00766" lon="-1.00459">
        <ele>113.7</ele>
        <time>2025-08-25T11:40:30Z</time>
      </trkpt>
      <trkpt lat="47.00766" lon="-1.00458">
        <ele>113.7</ele>
        <time>2025-08-25T11:40:31Z</time>
      </trkpt>
      <trkpt lat="47.00767" lon="-1.00457">
        <ele>113.8</ele>
        <time>2025-08-25T11:40:32Z</time>
      </trkpt>
      <trkpt lat="47.00768" lon="-1.00455">
        <ele>113.8</ele>
        <time>2025-08-25T11:40:33Z</time>
      </trkpt>
      <trkpt lat="47.00769" lon="-1.00454">
        <ele>113.9</ele>
        <time>2025-08-25T11:40:34Z</time>
      </trkpt>
      <trkpt lat="47.0077" lon="-1.00453">
        <ele>113.9</ele>
        <time>2025-08-25T11:40:35Z</time>
      </trkpt>
      <trkpt lat="47.00771" lon="-1.00451">
        <ele>114</ele>
        <time>2025-08-25T11:40:36Z</time>
      </trkpt>
      <trkpt lat="47.00772" lon="-1.0045">
        <ele>114</ele>
        <time>2025-08-25T11:40:37Z</time>
      </trkpt>
      <trkpt lat="47.00773" lon="-1.00449">
        <ele>114</ele>
        <time>2025-08-25T11:40:38Z</time>
      </trkpt>
      <trkpt lat="47.00774" lon="-1.00448">
        <ele>114</ele>
        <time>2025-08-25T11:40:39Z</time>
      </trkpt>
      <trkpt lat="47.00775" lon="-1.00447">
        <ele>114.1</ele>
        <time>2025-08-25T11:40:40Z</time>
      </trkpt>
      <trkpt lat="47.00776" lon="-1.00446">
        <ele>114.1</ele>
        <time>2025-08-25T11:40:41Z</time>
      </trkpt>
      <trkpt lat="47.00777" lon="-1.00445">
        <ele>114.2</ele>
        <time>2025-08-25T11:40:42Z</time>
      </trkpt>
      <trkpt lat="47.00778" lon="-1.00443">
        <ele>114.2</ele>
        <time>2025-08-25T11:40:43Z</time>
      </trkpt>
      <trkpt lat="47.00779" lon="-1.00442">
        <ele>114.2</ele>
        <time>2025-08-25T11:40:44Z</time>
      </trkpt>
      <trkpt lat="47.0078" lon="-1.00441">
        <ele>114.3</ele>
        <time>2025-08-25T11:40:45Z</time>
      </trkpt>
      <trkpt lat="47.0078" lon="-1.0044">
        <ele>114.3</ele>
        <time>2025-08-25T11:40:46Z</time>
      </trkpt>
      <trkpt lat="47.00782" lon="-1.00438">
        <ele>114.4</ele>
        <time>2025-08-25T11:40:47Z</time>
      </trkpt>
      <trkpt lat="47.00783" lon="-1.00437">
        <ele>114.4</ele>
        <time>2025-08-25T11:40:48Z</time>
      </trkpt>
      <trkpt lat="47.00783" lon="-1.00437">
        <ele>114.4</ele>
        <time>2025-08-25T11:40:49Z</time>
      </trkpt>
      <trkpt lat="47.00785" lon="-1.00435">
        <ele>114.4</ele>
        <time>2025-08-25T11:40:50Z</time>
      </trkpt>
      <trkpt lat="47.00786" lon="-1.00434">
        <ele>114.5</ele>
        <time>2025-08-25T11:40:51Z</time>
      </trkpt>
      <trkpt lat="47.00786" lon="-1.00433">
        <ele>114.5</ele>
        <time>2025-08-25T11:40:52Z</time>
      </trkpt>
      <trkpt lat="47.00788" lon="-1.00432">
        <ele>114.5</ele>
        <time>2025-08-25T11:40:53Z</time>
      </trkpt>
      <trkpt lat="47.00789" lon="-1.00431">
        <ele>114.6</ele>
        <time>2025-08-25T11:40:54Z</time>
      </trkpt>
      <trkpt lat="47.00789" lon="-1.0043">
        <ele>114.6</ele>
        <time>2025-08-25T11:40:55Z</time>
      </trkpt>
      <trkpt lat="47.00791" lon="-1.00428">
        <ele>114.6</ele>
        <time>2025-08-25T11:40:56Z</time>
      </trkpt>
      <trkpt lat="47.00791" lon="-1.00427">
        <ele>114.6</ele>
        <time>2025-08-25T11:40:57Z</time>
      </trkpt>
      <trkpt lat="47.00792" lon="-1.00426">
        <ele>114.7</ele>
        <time>2025-08-25T11:40:58Z</time>
      </trkpt>
      <trkpt lat="47.00794" lon="-1.00424">
        <ele>114.7</ele>
        <time>2025-08-25T11:40:59Z</time>
      </trkpt>
      <trkpt lat="47.00794" lon="-1.00424">
        <ele>114.7</ele>
        <time>2025-08-25T11:41:00Z</time>
      </trkpt>
      <trkpt lat="47.00795" lon="-1.00423">
        <ele>114.7</ele>
        <time>2025-08-25T11:41:01Z</time>
      </trkpt>
      <trkpt lat="47.00797" lon="-1.00421">
        <ele>114.8</ele>
        <time>2025-08-25T11:41:02Z</time>
      </trkpt>
      <trkpt lat="47.00797" lon="-1.0042">
        <ele>114.8</ele>
        <time>2025-08-25T11:41:03Z</time>
      </trkpt>
      <trkpt lat="47.00798" lon="-1.0042">
        <ele>114.8</ele>
        <time>2025-08-25T11:41:04Z</time>
      </trkpt>
      <trkpt lat="47.008" lon="-1.00417">
        <ele>114.9</ele>
        <time>2025-08-25T11:41:05Z</time>
      </trkpt>
      <trkpt lat="47.008" lon="-1.00417">
        <ele>114.9</ele>
        <time>2025-08-25T11:41:06Z</time>
      </trkpt>
      <trkpt lat="47.00801" lon="-1.00416">
        <ele>114.9</ele>
        <time>2025-08-25T11:41:07Z</time>
      </trkpt>
      <trkpt lat="47.00803" lon="-1.00413">
        <ele>115</ele>
        <time>2025-08-25T11:41:08Z</time>
      </trkpt>
      <trkpt lat="47.00803" lon="-1.00413">
        <ele>115</ele>
        <time>2025-08-25T11:41:09Z</time>
      </trkpt>
      <trkpt lat="47.00804" lon="-1.00412">
        <ele>115</ele>
        <time>2025-08-25T11:41:10Z</time>
      </trkpt>
      <trkpt lat="47.00805" lon="-1.0041">
        <ele>115.1</ele>
        <time>2025-08-25T11:41:11Z</time>
      </trkpt>
      <trkpt lat="47.00806" lon="-1.00409">
        <ele>115.1</ele>
        <time>2025-08-25T11:41:12Z</time>
      </trkpt>
      <trkpt lat="47.00807" lon="-1.00408">
        <ele>115.1</ele>
        <time>2025-08-25T11:41:13Z</time>
      </trkpt>
      <trkpt lat="47.00807" lon="-1.00407">
        <ele>115.1</ele>
        <time>2025-08-25T11:41:14Z</time>
      </trkpt>
      <trkpt lat="47.00808" lon="-1.00406">
        <ele>115.2</ele>
        <time>2025-08-25T11:41:15Z</time>
      </trkpt>
      <trkpt lat="47.00809" lon="-1.00405">
        <ele>115.2</ele>
        <time>2025-08-25T11:41:16Z</time>
      </trkpt>
      <trkpt lat="47.0081" lon="-1.00403">
        <ele>115.3</ele>
        <time>2025-08-25T11:41:17Z</time>
      </trkpt>
      <trkpt lat="47.00812" lon="-1.00401">
        <ele>115.3</ele>
        <time>2025-08-25T11:41:18Z</time>
      </trkpt>
      <trkpt lat="47.00812" lon="-1.00401">
        <ele>115.4</ele>
        <time>2025-08-25T11:41:19Z</time>
      </trkpt>
      <trkpt lat="47.00813" lon="-1.00399">
        <ele>115.4</ele>
        <time>2025-08-25T11:41:20Z</time>
      </trkpt>
      <trkpt lat="47.00814" lon="-1.00398">
        <ele>115.4</ele>
        <time>2025-08-25T11:41:21Z</time>
      </trkpt>
      <trkpt lat="47.00815" lon="-1.00397">
        <ele>115.5</ele>
        <time>2025-08-25T11:41:22Z</time>
      </trkpt>
      <trkpt lat="47.00816" lon="-1.00395">
        <ele>115.5</ele>
        <time>2025-08-25T11:41:23Z</time>
      </trkpt>
      <trkpt lat="47.00817" lon="-1.00395">
        <ele>115.6</ele>
        <time>2025-08-25T11:41:24Z</time>
      </trkpt>
      <trkpt lat="47.00817" lon="-1.00393">
        <ele>115.6</ele>
        <time>2025-08-25T11:41:25Z</time>
      </trkpt>
      <trkpt lat="47.00818" lon="-1.00392">
        <ele>115.7</ele>
        <time>2025-08-25T11:41:26Z</time>
      </trkpt>
      <trkpt lat="47.0082" lon="-1.0039">
        <ele>115.8</ele>
        <time>2025-08-25T11:41:27Z</time>
      </trkpt>
      <trkpt lat="47.0082" lon="-1.00389">
        <ele>115.8</ele>
        <time>2025-08-25T11:41:28Z</time>
      </trkpt>
      <trkpt lat="47.00821" lon="-1.00388">
        <ele>115.8</ele>
        <time>2025-08-25T11:41:29Z</time>
      </trkpt>
      <trkpt lat="47.00822" lon="-1.00387">
        <ele>115.9</ele>
        <time>2025-08-25T11:41:30Z</time>
      </trkpt>
      <trkpt lat="47.00822" lon="-1.00385">
        <ele>115.9</ele>
        <time>2025-08-25T11:41:31Z</time>
      </trkpt>
      <trkpt lat="47.00823" lon="-1.00384">
        <ele>116</ele>
        <time>2025-08-25T11:41:32Z</time>
      </trkpt>
      <trkpt lat="47.00823" lon="-1.00382">
        <ele>116</ele>
        <time>2025-08-25T11:41:33Z</time>
      </trkpt>
      <trkpt lat="47.00822" lon="-1.0038">
        <ele>115.9</ele>
        <time>2025-08-25T11:41:34Z</time>
      </trkpt>
      <trkpt lat="47.00822" lon="-1.00379">
        <ele>115.9</ele>
        <time>2025-08-25T11:41:35Z</time>
      </trkpt>
      <trkpt lat="47.0082" lon="-1.00376">
        <ele>115.9</ele>
        <time>2025-08-25T11:41:36Z</time>
      </trkpt>
      <trkpt lat="47.0082" lon="-1.00376">
        <ele>115.9</ele>
        <time>2025-08-25T11:41:37Z</time>
      </trkpt>
      <trkpt lat="47.00819" lon="-1.00375">
        <ele>115.9</ele>
        <time>2025-08-25T11:41:38Z</time>
      </trkpt>
      <trkpt lat="47.00817" lon="-1.00373">
        <ele>115.8</ele>
        <time>2025-08-25T11:41:39Z</time>
      </trkpt>
      <trkpt lat="47.00817" lon="-1.00372">
        <ele>115.8</ele>
        <time>2025-08-25T11:41:40Z</time>
      </trkpt>
      <trkpt lat="47.00816" lon="-1.00371">
        <ele>115.8</ele>
        <time>2025-08-25T11:41:41Z</time>
      </trkpt>
      <trkpt lat="47.00815" lon="-1.0037">
        <ele>115.8</ele>
        <time>2025-08-25T11:41:42Z</time>
      </trkpt>
      <trkpt lat="47.00814" lon="-1.00368">
        <ele>115.7</ele>
        <time>2025-08-25T11:41:43Z</time>
      </trkpt>
      <trkpt lat="47.00812" lon="-1.00366">
        <ele>115.7</ele>
        <time>2025-08-25T11:41:44Z</time>
      </trkpt>
      <trkpt lat="47.00812" lon="-1.00365">
        <ele>115.7</ele>
        <time>2025-08-25T11:41:45Z</time>
      </trkpt>
      <trkpt lat="47.00811" lon="-1.00364">
        <ele>115.7</ele>
        <time>2025-08-25T11:41:46Z</time>
      </trkpt>
      <trkpt lat="47.0081" lon="-1.00363">
        <ele>115.6</ele>
        <time>2025-08-25T11:41:47Z</time>
      </trkpt>
      <trkpt lat="47.00809" lon="-1.00361">
        <ele>115.6</ele>
        <time>2025-08-25T11:41:48Z</time>
      </trkpt>
      <trkpt lat="47.00808" lon="-1.0036">
        <ele>115.6</ele>
        <time>2025-08-25T11:41:49Z</time>
      </trkpt>
      <trkpt lat="47.00807" lon="-1.00359">
        <ele>115.5</ele>
        <time>2025-08-25T11:41:50Z</time>
      </trkpt>
      <trkpt lat="47.00806" lon="-1.00357">
        <ele>115.5</ele>
        <time>2025-08-25T11:41:51Z</time>
      </trkpt>
      <trkpt lat="47.00805" lon="-1.00356">
        <ele>115.5</ele>
        <time>2025-08-25T11:41:52Z</time>
      </trkpt>
      <trkpt lat="47.00804" lon="-1.00355">
        <ele>115.5</ele>
        <time>2025-08-25T11:41:53Z</time>
      </trkpt>
      <trkpt lat="47.00803" lon="-1.00354">
        <ele>115.4</ele>
        <time>2025-08-25T11:41:54Z</time>
      </trkpt>
      <trkpt lat="47.00802" lon="-1.00352">
        <ele>115.4</ele>
        <time>2025-08-25T11:41:55Z</time>
      </trkpt>
      <trkpt lat="47.00801" lon="-1.00351">
        <ele>115.4</ele>
        <time>2025-08-25T11:41:56Z</time>
      </trkpt>
      <trkpt lat="47.00799" lon="-1.00349">
        <ele>115.3</ele>
        <time>2025-08-25T11:41:57Z</time>
      </trkpt>
      <trkpt lat="47.00798" lon="-1.00348">
        <ele>115.3</ele>
        <time>2025-08-25T11:41:58Z</time>
      </trkpt>
      <trkpt lat="47.00798" lon="-1.00347">
        <ele>115.3</ele>
        <time>2025-08-25T11:41:59Z</time>
      </trkpt>
      <trkpt lat="47.00797" lon="-1.00346">
        <ele>115.3</ele>
        <time>2025-08-25T11:42:00Z</time>
      </trkpt>
      <trkpt lat="47.00796" lon="-1.00345">
        <ele>115.3</ele>
        <time>2025-08-25T11:42:01Z</time>
      </trkpt>
      <trkpt lat="47.00795" lon="-1.00343">
        <ele>115.2</ele>
        <time>2025-08-25T11:42:02Z</time>
      </trkpt>
      <trkpt lat="47.00794" lon="-1.00342">
        <ele>115.2</ele>
        <time>2025-08-25T11:42:03Z</time>
      </trkpt>
      <trkpt lat="47.00792" lon="-1.0034">
        <ele>115.2</ele>
        <time>2025-08-25T11:42:04Z</time>
      </trkpt>
      <trkpt lat="47.00791" lon="-1.00339">
        <ele>115.2</ele>
        <time>2025-08-25T11:42:05Z</time>
      </trkpt>
      <trkpt lat="47.0079" lon="-1.00337">
        <ele>115.2</ele>
        <time>2025-08-25T11:42:06Z</time>
      </trkpt>
      <trkpt lat="47.00789" lon="-1.00336">
        <ele>115.2</ele>
        <time>2025-08-25T11:42:07Z</time>
      </trkpt>
      <trkpt lat="47.00788" lon="-1.00336">
        <ele>115.2</ele>
        <time>2025-08-25T11:42:08Z</time>
      </trkpt>
      <trkpt lat="47.00787" lon="-1.00334">
        <ele>115.1</ele>
        <time>2025-08-25T11:42:09Z</time>
      </trkpt>
      <trkpt lat="47.00786" lon="-1.00333">
        <ele>115.1</ele>
        <time>2025-08-25T11:42:10Z</time>
      </trkpt>
      <trkpt lat="47.00785" lon="-1.00332">
        <ele>115.1</ele>
        <time>2025-08-25T11:42:11Z</time>
      </trkpt>
      <trkpt lat="47.00783" lon="-1.0033">
        <ele>115.1</ele>
        <time>2025-08-25T11:42:12Z</time>
      </trkpt>
      <trkpt lat="47.00783" lon="-1.00329">
        <ele>115.1</ele>
        <time>2025-08-25T11:42:13Z</time>
      </trkpt>
      <trkpt lat="47.00782" lon="-1.00329">
        <ele>115.1</ele>
        <time>2025-08-25T11:42:14Z</time>
      </trkpt>
      <trkpt lat="47.0078" lon="-1.00327">
        <ele>115.1</ele>
        <time>2025-08-25T11:42:15Z</time>
      </trkpt>
      <trkpt lat="47.0078" lon="-1.00326">
        <ele>115.1</ele>
        <time>2025-08-25T11:42:16Z</time>
      </trkpt>
      <trkpt lat="47.00779" lon="-1.00325">
        <ele>115.1</ele>
        <time>2025-08-25T11:42:17Z</time>
      </trkpt>
      <trkpt lat="47.00778" lon="-1.00324">
        <ele>115.1</ele>
        <time>2025-08-25T11:42:18Z</time>
      </trkpt>
      <trkpt lat="47.00777" lon="-1.00322">
        <ele>115</ele>
        <time>2025-08-25T11:42:19Z</time>
      </trkpt>
      <trkpt lat="47.00775" lon="-1.0032">
        <ele>115</ele>
        <time>2025-08-25T11:42:20Z</time>
      </trkpt>
      <trkpt lat="47.00775" lon="-1.0032">
        <ele>115</ele>
        <time>2025-08-25T11:42:21Z</time>
      </trkpt>
      <trkpt lat="47.00774" lon="-1.00319">
        <ele>115</ele>
        <time>2025-08-25T11:42:22Z</time>
      </trkpt>
      <trkpt lat="47.00773" lon="-1.00317">
        <ele>115</ele>
        <time>2025-08-25T11:42:23Z</time>
      </trkpt>
      <trkpt lat="47.00772" lon="-1.00316">
        <ele>115</ele>
        <time>2025-08-25T11:42:24Z</time>
      </trkpt>
      <trkpt lat="47.0077" lon="-1.00314">
        <ele>115</ele>
        <time>2025-08-25T11:42:25Z</time>
      </trkpt>
      <trkpt lat="47.00769" lon="-1.00313">
        <ele>115</ele>
        <time>2025-08-25T11:42:26Z</time>
      </trkpt>
      <trkpt lat="47.00769" lon="-1.00312">
        <ele>115</ele>
        <time>2025-08-25T11:42:27Z</time>
      </trkpt>
      <trkpt lat="47.00767" lon="-1.0031">
        <ele>115</ele>
        <time>2025-08-25T11:42:28Z</time>
      </trkpt>
      <trkpt lat="47.00766" lon="-1.0031">
        <ele>115</ele>
        <time>2025-08-25T11:42:29Z</time>
      </trkpt>
      <trkpt lat="47.00766" lon="-1.00309">
        <ele>115</ele>
        <time>2025-08-25T11:42:30Z</time>
      </trkpt>
      <trkpt lat="47.00764" lon="-1.00307">
        <ele>115</ele>
        <time>2025-08-25T11:42:31Z</time>
      </trkpt>
      <trkpt lat="47.00763" lon="-1.00306">
        <ele>115</ele>
        <time>2025-08-25T11:42:32Z</time>
      </trkpt>
      <trkpt lat="47.00762" lon="-1.00306">
        <ele>114.9</ele>
        <time>2025-08-25T11:42:33Z</time>
      </trkpt>
      <trkpt lat="47.0076" lon="-1.00304">
        <ele>114.9</ele>
        <time>2025-08-25T11:42:34Z</time>
      </trkpt>
      <trkpt lat="47.0076" lon="-1.00303">
        <ele>114.9</ele>
        <time>2025-08-25T11:42:35Z</time>
      </trkpt>
      <trkpt lat="47.00759" lon="-1.00302">
        <ele>114.9</ele>
        <time>2025-08-25T11:42:36Z</time>
      </trkpt>
      <trkpt lat="47.00758" lon="-1.00301">
        <ele>114.9</ele>
        <time>2025-08-25T11:42:37Z</time>
      </trkpt>
      <trkpt lat="47.00757" lon="-1.003">
        <ele>114.9</ele>
        <time>2025-08-25T11:42:38Z</time>
      </trkpt>
      <trkpt lat="47.00756" lon="-1.00299">
        <ele>114.9</ele>
        <time>2025-08-25T11:42:39Z</time>
      </trkpt>
      <trkpt lat="47.00754" lon="-1.00298">
        <ele>114.9</ele>
        <time>2025-08-25T11:42:40Z</time>
      </trkpt>
      <trkpt lat="47.00753" lon="-1.00296">
        <ele>114.9</ele>
        <time>2025-08-25T11:42:41Z</time>
      </trkpt>
      <trkpt lat="47.00752" lon="-1.00295">
        <ele>114.9</ele>
        <time>2025-08-25T11:42:42Z</time>
      </trkpt>
      <trkpt lat="47.0075" lon="-1.00294">
        <ele>114.9</ele>
        <time>2025-08-25T11:42:43Z</time>
      </trkpt>
      <trkpt lat="47.00749" lon="-1.00293">
        <ele>114.9</ele>
        <time>2025-08-25T11:42:44Z</time>
      </trkpt>
      <trkpt lat="47.00748" lon="-1.00292">
        <ele>114.9</ele>
        <time>2025-08-25T11:42:45Z</time>
      </trkpt>
      <trkpt lat="47.00747" lon="-1.00291">
        <ele>114.9</ele>
        <time>2025-08-25T11:42:46Z</time>
      </trkpt>
      <trkpt lat="47.00746" lon="-1.0029">
        <ele>114.9</ele>
        <time>2025-08-25T11:42:47Z</time>
      </trkpt>
      <trkpt lat="47.00745" lon="-1.00289">
        <ele>114.9</ele>
        <time>2025-08-25T11:42:48Z</time>
      </trkpt>
      <trkpt lat="47.00744" lon="-1.00288">
        <ele>114.9</ele>
        <time>2025-08-25T11:42:49Z</time>
      </trkpt>
      <trkpt lat="47.00743" lon="-1.00287">
        <ele>114.9</ele>
        <time>2025-08-25T11:42:50Z</time>
      </trkpt>
      <trkpt lat="47.00741" lon="-1.00286">
        <ele>114.9</ele>
        <time>2025-08-25T11:42:51Z</time>
      </trkpt>
      <trkpt lat="47.0074" lon="-1.00285">
        <ele>114.9</ele>
        <time>2025-08-25T11:42:52Z</time>
      </trkpt>
      <trkpt lat="47.00738" lon="-1.00283">
        <ele>114.9</ele>
        <time>2025-08-25T11:42:53Z</time>
      </trkpt>
      <trkpt lat="47.00738" lon="-1.00283">
        <ele>114.9</ele>
        <time>2025-08-25T11:42:54Z</time>
      </trkpt>
      <trkpt lat="47.00737" lon="-1.00282">
        <ele>114.9</ele>
        <time>2025-08-25T11:42:55Z</time>
      </trkpt>
      <trkpt lat="47.00735" lon="-1.00281">
        <ele>114.9</ele>
        <time>2025-08-25T11:42:56Z</time>
      </trkpt>
      <trkpt lat="47.00734" lon="-1.0028">
        <ele>114.9</ele>
        <time>2025-08-25T11:42:57Z</time>
      </trkpt>
      <trkpt lat="47.00733" lon="-1.0028">
        <ele>114.9</ele>
        <time>2025-08-25T11:42:58Z</time>
      </trkpt>
      <trkpt lat="47.00732" lon="-1.00279">
        <ele>114.9</ele>
        <time>2025-08-25T11:42:59Z</time>
      </trkpt>
      <trkpt lat="47.00731" lon="-1.00277">
        <ele>114.9</ele>
        <time>2025-08-25T11:43:00Z</time>
      </trkpt>
      <trkpt lat="47.00729" lon="-1.00276">
        <ele>114.9</ele>
        <time>2025-08-25T11:43:01Z</time>
      </trkpt>
      <trkpt lat="47.00728" lon="-1.00275">
        <ele>114.9</ele>
        <time>2025-08-25T11:43:02Z</time>
      </trkpt>
      <trkpt lat="47.00728" lon="-1.00275">
        <ele>114.9</ele>
        <time>2025-08-25T11:43:03Z</time>
      </trkpt>
      <trkpt lat="47.00726" lon="-1.00274">
        <ele>114.9</ele>
        <time>2025-08-25T11:43:04Z</time>
      </trkpt>
      <trkpt lat="47.00725" lon="-1.00273">
        <ele>114.9</ele>
        <time>2025-08-25T11:43:05Z</time>
      </trkpt>
      <trkpt lat="47.00724" lon="-1.00271">
        <ele>114.9</ele>
        <time>2025-08-25T11:43:06Z</time>
      </trkpt>
      <trkpt lat="47.00723" lon="-1.0027">
        <ele>114.9</ele>
        <time>2025-08-25T11:43:07Z</time>
      </trkpt>
      <trkpt lat="47.00722" lon="-1.00269">
        <ele>114.9</ele>
        <time>2025-08-25T11:43:08Z</time>
      </trkpt>
      <trkpt lat="47.00721" lon="-1.00268">
        <ele>114.9</ele>
        <time>2025-08-25T11:43:09Z</time>
      </trkpt>
      <trkpt lat="47.0072" lon="-1.00266">
        <ele>114.9</ele>
        <time>2025-08-25T11:43:10Z</time>
      </trkpt>
      <trkpt lat="47.00719" lon="-1.00265">
        <ele>114.9</ele>
        <time>2025-08-25T11:43:11Z</time>
      </trkpt>
      <trkpt lat="47.00718" lon="-1.00263">
        <ele>114.9</ele>
        <time>2025-08-25T11:43:12Z</time>
      </trkpt>
      <trkpt lat="47.00717" lon="-1.00262">
        <ele>114.9</ele>
        <time>2025-08-25T11:43:13Z</time>
      </trkpt>
      <trkpt lat="47.00715" lon="-1.00259">
        <ele>114.9</ele>
        <time>2025-08-25T11:43:14Z</time>
      </trkpt>
      <trkpt lat="47.00715" lon="-1.00258">
        <ele>114.9</ele>
        <time>2025-08-25T11:43:15Z</time>
      </trkpt>
      <trkpt lat="47.00714" lon="-1.00257">
        <ele>114.9</ele>
        <time>2025-08-25T11:43:16Z</time>
      </trkpt>
      <trkpt lat="47.00713" lon="-1.00256">
        <ele>114.9</ele>
        <time>2025-08-25T11:43:17Z</time>
      </trkpt>
      <trkpt lat="47.00713" lon="-1.00254">
        <ele>114.9</ele>
        <time>2025-08-25T11:43:18Z</time>
      </trkpt>
      <trkpt lat="47.00711" lon="-1.00251">
        <ele>114.9</ele>
        <time>2025-08-25T11:43:19Z</time>
      </trkpt>
      <trkpt lat="47.00711" lon="-1.0025">
        <ele>114.9</ele>
        <time>2025-08-25T11:43:20Z</time>
      </trkpt>
      <trkpt lat="47.0071" lon="-1.00249">
        <ele>114.9</ele>
        <time>2025-08-25T11:43:21Z</time>
      </trkpt>
      <trkpt lat="47.0071" lon="-1.00248">
        <ele>114.9</ele>
        <time>2025-08-25T11:43:22Z</time>
      </trkpt>
      <trkpt lat="47.00709" lon="-1.00246">
        <ele>114.9</ele>
        <time>2025-08-25T11:43:23Z</time>
      </trkpt>
      <trkpt lat="47.00708" lon="-1.00243">
        <ele>114.9</ele>
        <time>2025-08-25T11:43:24Z</time>
      </trkpt>
      <trkpt lat="47.00707" lon="-1.00242">
        <ele>114.9</ele>
        <time>2025-08-25T11:43:25Z</time>
      </trkpt>
      <trkpt lat="47.00707" lon="-1.00241">
        <ele>115</ele>
        <time>2025-08-25T11:43:26Z</time>
      </trkpt>
      <trkpt lat="47.00706" lon="-1.00239">
        <ele>115</ele>
        <time>2025-08-25T11:43:27Z</time>
      </trkpt>
      <trkpt lat="47.00705" lon="-1.00237">
        <ele>115</ele>
        <time>2025-08-25T11:43:28Z</time>
      </trkpt>
      <trkpt lat="47.00705" lon="-1.00236">
        <ele>115</ele>
        <time>2025-08-25T11:43:29Z</time>
      </trkpt>
      <trkpt lat="47.00704" lon="-1.00234">
        <ele>115</ele>
        <time>2025-08-25T11:43:30Z</time>
      </trkpt>
      <trkpt lat="47.00704" lon="-1.00232">
        <ele>115</ele>
        <time>2025-08-25T11:43:31Z</time>
      </trkpt>
      <trkpt lat="47.00703" lon="-1.00229">
        <ele>115</ele>
        <time>2025-08-25T11:43:32Z</time>
      </trkpt>
      <trkpt lat="47.00702" lon="-1.00228">
        <ele>115</ele>
        <time>2025-08-25T11:43:33Z</time>
      </trkpt>
      <trkpt lat="47.00702" lon="-1.00227">
        <ele>115</ele>
        <time>2025-08-25T11:43:34Z</time>
      </trkpt>
      <trkpt lat="47.00701" lon="-1.00224">
        <ele>115</ele>
        <time>2025-08-25T11:43:35Z</time>
      </trkpt>
      <trkpt lat="47.00701" lon="-1.00223">
        <ele>115</ele>
        <time>2025-08-25T11:43:36Z</time>
      </trkpt>
      <trkpt lat="47.007" lon="-1.00222">
        <ele>115.1</ele>
        <time>2025-08-25T11:43:37Z</time>
      </trkpt>
      <trkpt lat="47.00699" lon="-1.00219">
        <ele>115.1</ele>
        <time>2025-08-25T11:43:38Z</time>
      </trkpt>
      <trkpt lat="47.00699" lon="-1.00218">
        <ele>115.1</ele>
        <time>2025-08-25T11:43:39Z</time>
      </trkpt>
      <trkpt lat="47.00699" lon="-1.00217">
        <ele>115.1</ele>
        <time>2025-08-25T11:43:40Z</time>
      </trkpt>
      <trkpt lat="47.00698" lon="-1.00214">
        <ele>115.1</ele>
        <time>2025-08-25T11:43:41Z</time>
      </trkpt>
      <trkpt lat="47.00697" lon="-1.00213">
        <ele>115.1</ele>
        <time>2025-08-25T11:43:42Z</time>
      </trkpt>
      <trkpt lat="47.00697" lon="-1.00212">
        <ele>115.1</ele>
        <time>2025-08-25T11:43:43Z</time>
      </trkpt>
      <trkpt lat="47.00696" lon="-1.00209">
        <ele>115.1</ele>
        <time>2025-08-25T11:43:44Z</time>
      </trkpt>
      <trkpt lat="47.00696" lon="-1.00208">
        <ele>115.1</ele>
        <time>2025-08-25T11:43:45Z</time>
      </trkpt>
      <trkpt lat="47.00695" lon="-1.00207">
        <ele>115.1</ele>
        <time>2025-08-25T11:43:46Z</time>
      </trkpt>
      <trkpt lat="47.00695" lon="-1.00205">
        <ele>115.2</ele>
        <time>2025-08-25T11:43:47Z</time>
      </trkpt>
      <trkpt lat="47.00694" lon="-1.00203">
        <ele>115.2</ele>
        <time>2025-08-25T11:43:48Z</time>
      </trkpt>
      <trkpt lat="47.00693" lon="-1.002">
        <ele>115.2</ele>
        <time>2025-08-25T11:43:49Z</time>
      </trkpt>
      <trkpt lat="47.00692" lon="-1.00199">
        <ele>115.2</ele>
        <time>2025-08-25T11:43:50Z</time>
      </trkpt>
      <trkpt lat="47.00692" lon="-1.00198">
        <ele>115.2</ele>
        <time>2025-08-25T11:43:51Z</time>
      </trkpt>
      <trkpt lat="47.00691" lon="-1.00196">
        <ele>115.2</ele>
        <time>2025-08-25T11:43:52Z</time>
      </trkpt>
      <trkpt lat="47.0069" lon="-1.00195">
        <ele>115.2</ele>
        <time>2025-08-25T11:43:53Z</time>
      </trkpt>
      <trkpt lat="47.0069" lon="-1.00194">
        <ele>115.2</ele>
        <time>2025-08-25T11:43:54Z</time>
      </trkpt>
      <trkpt lat="47.00689" lon="-1.00191">
        <ele>115.2</ele>
        <time>2025-08-25T11:43:55Z</time>
      </trkpt>
      <trkpt lat="47.00689" lon="-1.0019">
        <ele>115.3</ele>
        <time>2025-08-25T11:43:56Z</time>
      </trkpt>
      <trkpt lat="47.00689" lon="-1.00188">
        <ele>115.3</ele>
        <time>2025-08-25T11:43:57Z</time>
      </trkpt>
      <trkpt lat="47.00688" lon="-1.00186">
        <ele>115.3</ele>
        <time>2025-08-25T11:43:58Z</time>
      </trkpt>
      <trkpt lat="47.00688" lon="-1.00185">
        <ele>115.3</ele>
        <time>2025-08-25T11:43:59Z</time>
      </trkpt>
      <trkpt lat="47.00687" lon="-1.00185">
        <ele>115.3</ele>
        <time>2025-08-25T11:44:00Z</time>
      </trkpt>
      <trkpt lat="47.00687" lon="-1.00184">
        <ele>115.3</ele>
        <time>2025-08-25T11:44:01Z</time>
      </trkpt>
      <trkpt lat="47.00686" lon="-1.00182">
        <ele>115.3</ele>
        <time>2025-08-25T11:44:02Z</time>
      </trkpt>
      <trkpt lat="47.00685" lon="-1.00181">
        <ele>115.3</ele>
        <time>2025-08-25T11:44:03Z</time>
      </trkpt>
      <trkpt lat="47.00684" lon="-1.00177">
        <ele>115.4</ele>
        <time>2025-08-25T11:44:05Z</time>
      </trkpt>
      <trkpt lat="47.00683" lon="-1.00176">
        <ele>115.4</ele>
        <time>2025-08-25T11:44:06Z</time>
      </trkpt>
      <trkpt lat="47.00682" lon="-1.00174">
        <ele>115.4</ele>
        <time>2025-08-25T11:44:07Z</time>
      </trkpt>
      <trkpt lat="47.00682" lon="-1.00171">
        <ele>115.4</ele>
        <time>2025-08-25T11:44:08Z</time>
      </trkpt>
      <trkpt lat="47.00681" lon="-1.00169">
        <ele>115.4</ele>
        <time>2025-08-25T11:44:09Z</time>
      </trkpt>
      <trkpt lat="47.00681" lon="-1.00167">
        <ele>115.4</ele>
        <time>2025-08-25T11:44:10Z</time>
      </trkpt>
      <trkpt lat="47.0068" lon="-1.00166">
        <ele>115.5</ele>
        <time>2025-08-25T11:44:11Z</time>
      </trkpt>
      <trkpt lat="47.0068" lon="-1.00164">
        <ele>115.5</ele>
        <time>2025-08-25T11:44:12Z</time>
      </trkpt>
      <trkpt lat="47.00679" lon="-1.00161">
        <ele>115.5</ele>
        <time>2025-08-25T11:44:13Z</time>
      </trkpt>
      <trkpt lat="47.00678" lon="-1.0016">
        <ele>115.5</ele>
        <time>2025-08-25T11:44:14Z</time>
      </trkpt>
      <trkpt lat="47.00677" lon="-1.0016">
        <ele>115.5</ele>
        <time>2025-08-25T11:44:15Z</time>
      </trkpt>
      <trkpt lat="47.00676" lon="-1.00157">
        <ele>115.5</ele>
        <time>2025-08-25T11:44:16Z</time>
      </trkpt>
      <trkpt lat="47.00676" lon="-1.00156">
        <ele>115.5</ele>
        <time>2025-08-25T11:44:17Z</time>
      </trkpt>
      <trkpt lat="47.00676" lon="-1.00154">
        <ele>115.5</ele>
        <time>2025-08-25T11:44:18Z</time>
      </trkpt>
      <trkpt lat="47.00675" lon="-1.00152">
        <ele>115.6</ele>
        <time>2025-08-25T11:44:19Z</time>
      </trkpt>
      <trkpt lat="47.00675" lon="-1.0015">
        <ele>115.6</ele>
        <time>2025-08-25T11:44:20Z</time>
      </trkpt>
      <trkpt lat="47.00674" lon="-1.00148">
        <ele>115.6</ele>
        <time>2025-08-25T11:44:21Z</time>
      </trkpt>
      <trkpt lat="47.00674" lon="-1.00147">
        <ele>115.6</ele>
        <time>2025-08-25T11:44:22Z</time>
      </trkpt>
      <trkpt lat="47.00673" lon="-1.00145">
        <ele>115.6</ele>
        <time>2025-08-25T11:44:23Z</time>
      </trkpt>
      <trkpt lat="47.00672" lon="-1.00143">
        <ele>115.6</ele>
        <time>2025-08-25T11:44:24Z</time>
      </trkpt>
      <trkpt lat="47.00672" lon="-1.0014">
        <ele>115.7</ele>
        <time>2025-08-25T11:44:25Z</time>
      </trkpt>
      <trkpt lat="47.00672" lon="-1.00139">
        <ele>115.7</ele>
        <time>2025-08-25T11:44:26Z</time>
      </trkpt>
      <trkpt lat="47.00672" lon="-1.00137">
        <ele>115.7</ele>
        <time>2025-08-25T11:44:27Z</time>
      </trkpt>
      <trkpt lat="47.00671" lon="-1.00136">
        <ele>115.7</ele>
        <time>2025-08-25T11:44:28Z</time>
      </trkpt>
      <trkpt lat="47.00671" lon="-1.00135">
        <ele>115.7</ele>
        <time>2025-08-25T11:44:29Z</time>
      </trkpt>
      <trkpt lat="47.00671" lon="-1.00134">
        <ele>115.7</ele>
        <time>2025-08-25T11:44:30Z</time>
      </trkpt>
      <trkpt lat="47.00671" lon="-1.00137">
        <ele>115.7</ele>
        <time>2025-08-25T11:44:31Z</time>
      </trkpt>
      <trkpt lat="47.00671" lon="-1.00139">
        <ele>115.7</ele>
        <time>2025-08-25T11:44:32Z</time>
      </trkpt>
      <trkpt lat="47.00671" lon="-1.0014">
        <ele>115.7</ele>
        <time>2025-08-25T11:44:33Z</time>
      </trkpt>
      <trkpt lat="47.00671" lon="-1.00141">
        <ele>115.7</ele>
        <time>2025-08-25T11:44:34Z</time>
      </trkpt>
      <trkpt lat="47.00671" lon="-1.00141">
        <ele>115.7</ele>
        <time>2025-08-25T11:44:35Z</time>
      </trkpt>
      <trkpt lat="47.00671" lon="-1.00141">
        <ele>115.7</ele>
        <time>2025-08-25T11:44:36Z</time>
      </trkpt>
      <trkpt lat="47.00671" lon="-1.00141">
        <ele>115.7</ele>
        <time>2025-08-25T11:44:37Z</time>
      </trkpt>
      <trkpt lat="47.00671" lon="-1.00141">
        <ele>115.7</ele>
        <time>2025-08-25T11:44:38Z</time>
      </trkpt>
      <trkpt lat="47.00671" lon="-1.00141">
        <ele>115.7</ele>
        <time>2025-08-25T11:44:39Z</time>
      </trkpt>
      <trkpt lat="47.00671" lon="-1.00141">
        <ele>115.7</ele>
        <time>2025-08-25T11:44:40Z</time>
      </trkpt>
      <trkpt lat="47.00671" lon="-1.00141">
        <ele>115.7</ele>
        <time>2025-08-25T11:44:41Z</time>
      </trkpt>
      <trkpt lat="47.0067" lon="-1.00142">
        <ele>115.7</ele>
        <time>2025-08-25T11:44:42Z</time>
      </trkpt>
      <trkpt lat="47.0067" lon="-1.00143">
        <ele>115.7</ele>
        <time>2025-08-25T11:44:43Z</time>
      </trkpt>
      <trkpt lat="47.0067" lon="-1.00145">
        <ele>115.7</ele>
        <time>2025-08-25T11:44:44Z</time>
      </trkpt>
      <trkpt lat="47.0067" lon="-1.00146">
        <ele>115.7</ele>
        <time>2025-08-25T11:44:45Z</time>
      </trkpt>
      <trkpt lat="47.0067" lon="-1.00146">
        <ele>115.7</ele>
        <time>2025-08-25T11:44:46Z</time>
      </trkpt>
      <trkpt lat="47.00669" lon="-1.00147">
        <ele>115.7</ele>
        <time>2025-08-25T11:44:47Z</time>
      </trkpt>
      <trkpt lat="47.00669" lon="-1.00147">
        <ele>115.7</ele>
        <time>2025-08-25T11:44:48Z</time>
      </trkpt>
      <trkpt lat="47.00669" lon="-1.00146">
        <ele>115.7</ele>
        <time>2025-08-25T11:44:49Z</time>
      </trkpt>
      <trkpt lat="47.00669" lon="-1.00146">
        <ele>115.7</ele>
        <time>2025-08-25T11:44:50Z</time>
      </trkpt>
      <trkpt lat="47.00669" lon="-1.00146">
        <ele>115.7</ele>
        <time>2025-08-25T11:44:51Z</time>
      </trkpt>
      <trkpt lat="47.00669" lon="-1.00146">
        <ele>115.7</ele>
        <time>2025-08-25T11:44:52Z</time>
      </trkpt>
      <trkpt lat="47.00669" lon="-1.00146">
        <ele>115.7</ele>
        <time>2025-08-25T11:44:53Z</time>
      </trkpt>
      <trkpt lat="47.00669" lon="-1.00146">
        <ele>115.7</ele>
        <time>2025-08-25T11:44:54Z</time>
      </trkpt>
      <trkpt lat="47.00669" lon="-1.00146">
        <ele>115.7</ele>
        <time>2025-08-25T11:44:55Z</time>
      </trkpt>
      <trkpt lat="47.00669" lon="-1.00146">
        <ele>115.7</ele>
        <time>2025-08-25T11:44:56Z</time>
      </trkpt>
      <trkpt lat="47.00669" lon="-1.00146">
        <ele>115.7</ele>
        <time>2025-08-25T11:44:57Z</time>
      </trkpt>
      <trkpt lat="47.00669" lon="-1.00146">
        <ele>115.7</ele>
        <time>2025-08-25T11:44:58Z</time>
      </trkpt>
      <trkpt lat="47.00669" lon="-1.00146">
        <ele>115.7</ele>
        <time>2025-08-25T11:44:59Z</time>
      </trkpt>
      <trkpt lat="47.00669" lon="-1.00146">
        <ele>115.7</ele>
        <time>2025-08-25T11:45:00Z</time>
      </trkpt>
      <trkpt lat="47.00669" lon="-1.00146">
        <ele>115.7</ele>
        <time>2025-08-25T11:45:01Z</time>
      </trkpt>
      <trkpt lat="47.00669" lon="-1.00146">
        <ele>115.7</ele>
        <time>2025-08-25T11:45:02Z</time>
      </trkpt>
      <trkpt lat="47.00669" lon="-1.00146">
        <ele>115.7</ele>
        <time>2025-08-25T11:45:03Z</time>
      </trkpt>
      <trkpt lat="47.00669" lon="-1.00147">
        <ele>115.7</ele>
        <time>2025-08-25T11:45:04Z</time>
      </trkpt>
      <trkpt lat="47.00669" lon="-1.00147">
        <ele>115.7</ele>
        <time>2025-08-25T11:45:05Z</time>
      </trkpt>
      <trkpt lat="47.00669" lon="-1.00147">
        <ele>115.7</ele>
        <time>2025-08-25T11:45:06Z</time>
      </trkpt>
      <trkpt lat="47.00669" lon="-1.00147">
        <ele>115.7</ele>
        <time>2025-08-25T11:45:07Z</time>
      </trkpt>
      <trkpt lat="47.00669" lon="-1.00147">
        <ele>115.7</ele>
        <time>2025-08-25T11:45:08Z</time>
      </trkpt>
      <trkpt lat="47.00668" lon="-1.00147">
        <ele>115.7</ele>
        <time>2025-08-25T11:45:09Z</time>
      </trkpt>
      <trkpt lat="47.00668" lon="-1.00147">
        <ele>115.7</ele>
        <time>2025-08-25T11:45:10Z</time>
      </trkpt>
      <trkpt lat="47.00668" lon="-1.00147">
        <ele>115.8</ele>
        <time>2025-08-25T11:45:11Z</time>
      </trkpt>
      <trkpt lat="47.00668" lon="-1.00147">
        <ele>115.8</ele>
        <time>2025-08-25T11:45:12Z</time>
      </trkpt>
      <trkpt lat="47.00668" lon="-1.00147">
        <ele>115.8</ele>
        <time>2025-08-25T11:45:13Z</time>
      </trkpt>
      <trkpt lat="47.00668" lon="-1.00147">
        <ele>115.8</ele>
        <time>2025-08-25T11:45:14Z</time>
      </trkpt>
      <trkpt lat="47.00668" lon="-1.00147">
        <ele>115.8</ele>
        <time>2025-08-25T11:45:15Z</time>
      </trkpt>
      <trkpt lat="47.00668" lon="-1.00147">
        <ele>115.8</ele>
        <time>2025-08-25T11:45:16Z</time>
      </trkpt>
      <trkpt lat="47.00668" lon="-1.00147">
        <ele>115.8</ele>
        <time>2025-08-25T11:45:17Z</time>
      </trkpt>
      <trkpt lat="47.00668" lon="-1.00147">
        <ele>115.8</ele>
        <time>2025-08-25T11:45:18Z</time>
      </trkpt>
      <trkpt lat="47.00668" lon="-1.00148">
        <ele>115.8</ele>
        <time>2025-08-25T11:45:19Z</time>
      </trkpt>
      <trkpt lat="47.00668" lon="-1.00148">
        <ele>115.8</ele>
        <time>2025-08-25T11:45:20Z</time>
      </trkpt>
      <trkpt lat="47.00668" lon="-1.00148">
        <ele>115.8</ele>
        <time>2025-08-25T11:45:21Z</time>
      </trkpt>
      <trkpt lat="47.00669" lon="-1.00148">
        <ele>115.8</ele>
        <time>2025-08-25T11:45:22Z</time>
      </trkpt>
      <trkpt lat="47.00669" lon="-1.00148">
        <ele>115.8</ele>
        <time>2025-08-25T11:45:23Z</time>
      </trkpt>
      <trkpt lat="47.00669" lon="-1.00147">
        <ele>115.8</ele>
        <time>2025-08-25T11:45:24Z</time>
      </trkpt>
      <trkpt lat="47.00669" lon="-1.00147">
        <ele>115.8</ele>
        <time>2025-08-25T11:45:25Z</time>
      </trkpt>
      <trkpt lat="47.00669" lon="-1.00147">
        <ele>115.8</ele>
        <time>2025-08-25T11:45:26Z</time>
      </trkpt>
      <trkpt lat="47.00669" lon="-1.00147">
        <ele>115.8</ele>
        <time>2025-08-25T11:45:27Z</time>
      </trkpt>
      <trkpt lat="47.00668" lon="-1.00147">
        <ele>115.8</ele>
        <time>2025-08-25T11:45:28Z</time>
      </trkpt>
      <trkpt lat="47.00668" lon="-1.00147">
        <ele>115.8</ele>
        <time>2025-08-25T11:45:29Z</time>
      </trkpt>
      <trkpt lat="47.00668" lon="-1.00147">
        <ele>115.8</ele>
        <time>2025-08-25T11:45:30Z</time>
      </trkpt>
      <trkpt lat="47.00669" lon="-1.00146">
        <ele>115.8</ele>
        <time>2025-08-25T11:45:31Z</time>
      </trkpt>
      <trkpt lat="47.00669" lon="-1.00146">
        <ele>115.8</ele>
        <time>2025-08-25T11:45:32Z</time>
      </trkpt>
      <trkpt lat="47.00669" lon="-1.00146">
        <ele>115.8</ele>
        <time>2025-08-25T11:45:33Z</time>
      </trkpt>
      <trkpt lat="47.00669" lon="-1.00146">
        <ele>115.8</ele>
        <time>2025-08-25T11:45:34Z</time>
      </trkpt>
      <trkpt lat="47.00669" lon="-1.00146">
        <ele>115.8</ele>
        <time>2025-08-25T11:45:35Z</time>
      </trkpt>
      <trkpt lat="47.00669" lon="-1.00146">
        <ele>115.8</ele>
        <time>2025-08-25T11:45:36Z</time>
      </trkpt>
      <trkpt lat="47.00668" lon="-1.00146">
        <ele>115.8</ele>
        <time>2025-08-25T11:45:37Z</time>
      </trkpt>
      <trkpt lat="47.00668" lon="-1.00146">
        <ele>115.8</ele>
        <time>2025-08-25T11:45:38Z</time>
      </trkpt>
      <trkpt lat="47.00668" lon="-1.00146">
        <ele>115.8</ele>
        <time>2025-08-25T11:45:39Z</time>
      </trkpt>
      <trkpt lat="47.00668" lon="-1.00146">
        <ele>115.8</ele>
        <time>2025-08-25T11:45:40Z</time>
      </trkpt>
      <trkpt lat="47.00668" lon="-1.00146">
        <ele>115.8</ele>
        <time>2025-08-25T11:45:41Z</time>
      </trkpt>
      <trkpt lat="47.00668" lon="-1.00146">
        <ele>115.8</ele>
        <time>2025-08-25T11:45:42Z</time>
      </trkpt>
      <trkpt lat="47.00668" lon="-1.00146">
        <ele>115.8</ele>
        <time>2025-08-25T11:45:43Z</time>
      </trkpt>
      <trkpt lat="47.00668" lon="-1.00146">
        <ele>115.8</ele>
        <time>2025-08-25T11:45:45Z</time>
      </trkpt>
      <trkpt lat="47.00668" lon="-1.00146">
        <ele>115.8</ele>
        <time>2025-08-25T11:45:46Z</time>
      </trkpt>
      <trkpt lat="47.00668" lon="-1.00147">
        <ele>115.8</ele>
        <time>2025-08-25T11:45:47Z</time>
      </trkpt>
      <trkpt lat="47.00668" lon="-1.00147">
        <ele>115.8</ele>
        <time>2025-08-25T11:45:48Z</time>
      </trkpt>
      <trkpt lat="47.00668" lon="-1.00147">
        <ele>115.8</ele>
        <time>2025-08-25T11:45:49Z</time>
      </trkpt>
      <trkpt lat="47.00668" lon="-1.00147">
        <ele>115.8</ele>
        <time>2025-08-25T11:45:50Z</time>
      </trkpt>
      <trkpt lat="47.00668" lon="-1.00147">
        <ele>115.8</ele>
        <time>2025-08-25T11:45:51Z</time>
      </trkpt>
      <trkpt lat="47.00668" lon="-1.00147">
        <ele>115.8</ele>
        <time>2025-08-25T11:45:52Z</time>
      </trkpt>
      <trkpt lat="47.00668" lon="-1.00147">
        <ele>115.8</ele>
        <time>2025-08-25T11:45:53Z</time>
      </trkpt>
      <trkpt lat="47.00668" lon="-1.00147">
        <ele>115.8</ele>
        <time>2025-08-25T11:45:54Z</time>
      </trkpt>
      <trkpt lat="47.00668" lon="-1.00147">
        <ele>115.8</ele>
        <time>2025-08-25T11:45:55Z</time>
      </trkpt>
      <trkpt lat="47.00667" lon="-1.00147">
        <ele>115.8</ele>
        <time>2025-08-25T11:45:56Z</time>
      </trkpt>
      <trkpt lat="47.00667" lon="-1.00145">
        <ele>115.8</ele>
        <time>2025-08-25T11:45:57Z</time>
      </trkpt>
      <trkpt lat="47.00667" lon="-1.00144">
        <ele>115.8</ele>
        <time>2025-08-25T11:45:58Z</time>
      </trkpt>
      <trkpt lat="47.00667" lon="-1.00142">
        <ele>115.8</ele>
        <time>2025-08-25T11:45:59Z</time>
      </trkpt>
      <trkpt lat="47.00667" lon="-1.0014">
        <ele>115.9</ele>
        <time>2025-08-25T11:46:00Z</time>
      </trkpt>
      <trkpt lat="47.00667" lon="-1.00139">
        <ele>115.9</ele>
        <time>2025-08-25T11:46:01Z</time>
      </trkpt>
      <trkpt lat="47.00666" lon="-1.00136">
        <ele>115.9</ele>
        <time>2025-08-25T11:46:02Z</time>
      </trkpt>
      <trkpt lat="47.00666" lon="-1.00134">
        <ele>115.9</ele>
        <time>2025-08-25T11:46:03Z</time>
      </trkpt>
      <trkpt lat="47.00665" lon="-1.00131">
        <ele>115.9</ele>
        <time>2025-08-25T11:46:04Z</time>
      </trkpt>
      <trkpt lat="47.00665" lon="-1.0013">
        <ele>115.9</ele>
        <time>2025-08-25T11:46:05Z</time>
      </trkpt>
      <trkpt lat="47.00664" lon="-1.00127">
        <ele>116</ele>
        <time>2025-08-25T11:46:06Z</time>
      </trkpt>
      <trkpt lat="47.00664" lon="-1.00126">
        <ele>116</ele>
        <time>2025-08-25T11:46:07Z</time>
      </trkpt>
      <trkpt lat="47.00664" lon="-1.00123">
        <ele>116</ele>
        <time>2025-08-25T11:46:08Z</time>
      </trkpt>
      <trkpt lat="47.00664" lon="-1.00121">
        <ele>116</ele>
        <time>2025-08-25T11:46:09Z</time>
      </trkpt>
      <trkpt lat="47.00664" lon="-1.00119">
        <ele>116</ele>
        <time>2025-08-25T11:46:10Z</time>
      </trkpt>
      <trkpt lat="47.00664" lon="-1.00117">
        <ele>116.1</ele>
        <time>2025-08-25T11:46:11Z</time>
      </trkpt>
      <trkpt lat="47.00664" lon="-1.00115">
        <ele>116.1</ele>
        <time>2025-08-25T11:46:12Z</time>
      </trkpt>
      <trkpt lat="47.00663" lon="-1.00113">
        <ele>116.1</ele>
        <time>2025-08-25T11:46:13Z</time>
      </trkpt>
      <trkpt lat="47.00663" lon="-1.00111">
        <ele>116.1</ele>
        <time>2025-08-25T11:46:14Z</time>
      </trkpt>
      <trkpt lat="47.00663" lon="-1.00109">
        <ele>116.2</ele>
        <time>2025-08-25T11:46:15Z</time>
      </trkpt>
      <trkpt lat="47.00663" lon="-1.00107">
        <ele>116.2</ele>
        <time>2025-08-25T11:46:16Z</time>
      </trkpt>
      <trkpt lat="47.00663" lon="-1.00105">
        <ele>116.2</ele>
        <time>2025-08-25T11:46:17Z</time>
      </trkpt>
      <trkpt lat="47.00663" lon="-1.00103">
        <ele>116.2</ele>
        <time>2025-08-25T11:46:18Z</time>
      </trkpt>
      <trkpt lat="47.00663" lon="-1.00101">
        <ele>116.3</ele>
        <time>2025-08-25T11:46:19Z</time>
      </trkpt>
      <trkpt lat="47.00663" lon="-1.00099">
        <ele>116.3</ele>
        <time>2025-08-25T11:46:20Z</time>
      </trkpt>
      <trkpt lat="47.00663" lon="-1.00097">
        <ele>116.3</ele>
        <time>2025-08-25T11:46:21Z</time>
      </trkpt>
      <trkpt lat="47.00663" lon="-1.00095">
        <ele>116.3</ele>
        <time>2025-08-25T11:46:22Z</time>
      </trkpt>
      <trkpt lat="47.00663" lon="-1.00093">
        <ele>116.4</ele>
        <time>2025-08-25T11:46:23Z</time>
      </trkpt>
      <trkpt lat="47.00663" lon="-1.00091">
        <ele>116.4</ele>
        <time>2025-08-25T11:46:24Z</time>
      </trkpt>
      <trkpt lat="47.00663" lon="-1.00088">
        <ele>116.4</ele>
        <time>2025-08-25T11:46:25Z</time>
      </trkpt>
      <trkpt lat="47.00662" lon="-1.00085">
        <ele>116.5</ele>
        <time>2025-08-25T11:46:26Z</time>
      </trkpt>
      <trkpt lat="47.00662" lon="-1.00084">
        <ele>116.5</ele>
        <time>2025-08-25T11:46:27Z</time>
      </trkpt>
      <trkpt lat="47.00662" lon="-1.00083">
        <ele>116.5</ele>
        <time>2025-08-25T11:46:28Z</time>
      </trkpt>
      <trkpt lat="47.00662" lon="-1.00079">
        <ele>116.5</ele>
        <time>2025-08-25T11:46:29Z</time>
      </trkpt>
      <trkpt lat="47.00662" lon="-1.00078">
        <ele>116.6</ele>
        <time>2025-08-25T11:46:30Z</time>
      </trkpt>
      <trkpt lat="47.00662" lon="-1.00077">
        <ele>116.6</ele>
        <time>2025-08-25T11:46:31Z</time>
      </trkpt>
      <trkpt lat="47.00661" lon="-1.00075">
        <ele>116.6</ele>
        <time>2025-08-25T11:46:32Z</time>
      </trkpt>
      <trkpt lat="47.00661" lon="-1.00073">
        <ele>116.6</ele>
        <time>2025-08-25T11:46:33Z</time>
      </trkpt>
      <trkpt lat="47.00661" lon="-1.00071">
        <ele>116.6</ele>
        <time>2025-08-25T11:46:34Z</time>
      </trkpt>
      <trkpt lat="47.00661" lon="-1.00069">
        <ele>116.7</ele>
        <time>2025-08-25T11:46:35Z</time>
      </trkpt>
      <trkpt lat="47.0066" lon="-1.00067">
        <ele>116.7</ele>
        <time>2025-08-25T11:46:36Z</time>
      </trkpt>
      <trkpt lat="47.0066" lon="-1.00065">
        <ele>116.7</ele>
        <time>2025-08-25T11:46:37Z</time>
      </trkpt>
      <trkpt lat="47.00659" lon="-1.00062">
        <ele>116.7</ele>
        <time>2025-08-25T11:46:38Z</time>
      </trkpt>
      <trkpt lat="47.00659" lon="-1.0006">
        <ele>116.7</ele>
        <time>2025-08-25T11:46:39Z</time>
      </trkpt>
      <trkpt lat="47.00659" lon="-1.00059">
        <ele>116.8</ele>
        <time>2025-08-25T11:46:40Z</time>
      </trkpt>
      <trkpt lat="47.00659" lon="-1.00057">
        <ele>116.8</ele>
        <time>2025-08-25T11:46:41Z</time>
      </trkpt>
      <trkpt lat="47.00659" lon="-1.00056">
        <ele>116.8</ele>
        <time>2025-08-25T11:46:42Z</time>
      </trkpt>
      <trkpt lat="47.00658" lon="-1.00054">
        <ele>116.8</ele>
        <time>2025-08-25T11:46:43Z</time>
      </trkpt>
      <trkpt lat="47.00658" lon="-1.00054">
        <ele>116.8</ele>
        <time>2025-08-25T11:46:44Z</time>
      </trkpt>
      <trkpt lat="47.00657" lon="-1.00054">
        <ele>116.8</ele>
        <time>2025-08-25T11:46:45Z</time>
      </trkpt>
      <trkpt lat="47.00656" lon="-1.00055">
        <ele>116.8</ele>
        <time>2025-08-25T11:46:46Z</time>
      </trkpt>
      <trkpt lat="47.00655" lon="-1.00056">
        <ele>116.8</ele>
        <time>2025-08-25T11:46:47Z</time>
      </trkpt>
      <trkpt lat="47.00654" lon="-1.00057">
        <ele>116.8</ele>
        <time>2025-08-25T11:46:48Z</time>
      </trkpt>
      <trkpt lat="47.00653" lon="-1.00057">
        <ele>116.8</ele>
        <time>2025-08-25T11:46:49Z</time>
      </trkpt>
      <trkpt lat="47.00652" lon="-1.00058">
        <ele>116.8</ele>
        <time>2025-08-25T11:46:50Z</time>
      </trkpt>
      <trkpt lat="47.00651" lon="-1.00059">
        <ele>116.8</ele>
        <time>2025-08-25T11:46:51Z</time>
      </trkpt>
      <trkpt lat="47.0065" lon="-1.00059">
        <ele>116.8</ele>
        <time>2025-08-25T11:46:52Z</time>
      </trkpt>
      <trkpt lat="47.0065" lon="-1.00059">
        <ele>116.8</ele>
        <time>2025-08-25T11:46:53Z</time>
      </trkpt>
      <trkpt lat="47.00649" lon="-1.00059">
        <ele>116.8</ele>
        <time>2025-08-25T11:46:54Z</time>
      </trkpt>
      <trkpt lat="47.00649" lon="-1.00058">
        <ele>116.8</ele>
        <time>2025-08-25T11:46:55Z</time>
      </trkpt>
      <trkpt lat="47.00649" lon="-1.00058">
        <ele>116.8</ele>
        <time>2025-08-25T11:46:56Z</time>
      </trkpt>
      <trkpt lat="47.00649" lon="-1.00058">
        <ele>116.8</ele>
        <time>2025-08-25T11:46:57Z</time>
      </trkpt>
      <trkpt lat="47.0065" lon="-1.00058">
        <ele>116.8</ele>
        <time>2025-08-25T11:46:58Z</time>
      </trkpt>
      <trkpt lat="47.0065" lon="-1.00058">
        <ele>116.8</ele>
        <time>2025-08-25T11:46:59Z</time>
      </trkpt>
      <trkpt lat="47.0065" lon="-1.00058">
        <ele>116.8</ele>
        <time>2025-08-25T11:47:00Z</time>
      </trkpt>
      <trkpt lat="47.00651" lon="-1.00057">
        <ele>116.8</ele>
        <time>2025-08-25T11:47:01Z</time>
      </trkpt>
      <trkpt lat="47.00651" lon="-1.00057">
        <ele>116.8</ele>
        <time>2025-08-25T11:47:02Z</time>
      </trkpt>
      <trkpt lat="47.00651" lon="-1.00057">
        <ele>116.8</ele>
        <time>2025-08-25T11:47:03Z</time>
      </trkpt>
      <trkpt lat="47.00651" lon="-1.00057">
        <ele>116.8</ele>
        <time>2025-08-25T11:47:04Z</time>
      </trkpt>
      <trkpt lat="47.00652" lon="-1.00057">
        <ele>116.8</ele>
        <time>2025-08-25T11:47:05Z</time>
      </trkpt>
      <trkpt lat="47.00652" lon="-1.00057">
        <ele>116.8</ele>
        <time>2025-08-25T11:47:06Z</time>
      </trkpt>
      <trkpt lat="47.00652" lon="-1.00057">
        <ele>116.8</ele>
        <time>2025-08-25T11:47:07Z</time>
      </trkpt>
      <trkpt lat="47.00652" lon="-1.00057">
        <ele>116.8</ele>
        <time>2025-08-25T11:47:08Z</time>
      </trkpt>
      <trkpt lat="47.00653" lon="-1.00056">
        <ele>116.8</ele>
        <time>2025-08-25T11:47:09Z</time>
      </trkpt>
      <trkpt lat="47.00654" lon="-1.00056">
        <ele>116.8</ele>
        <time>2025-08-25T11:47:10Z</time>
      </trkpt>
      <trkpt lat="47.00654" lon="-1.00055">
        <ele>116.8</ele>
        <time>2025-08-25T11:47:11Z</time>
      </trkpt>
      <trkpt lat="47.00654" lon="-1.00054">
        <ele>116.8</ele>
        <time>2025-08-25T11:47:12Z</time>
      </trkpt>
      <trkpt lat="47.00654" lon="-1.00054">
        <ele>116.8</ele>
        <time>2025-08-25T11:47:13Z</time>
      </trkpt>
      <trkpt lat="47.00655" lon="-1.00054">
        <ele>116.8</ele>
        <time>2025-08-25T11:47:14Z</time>
      </trkpt>
      <trkpt lat="47.00655" lon="-1.00054">
        <ele>116.8</ele>
        <time>2025-08-25T11:47:15Z</time>
      </trkpt>
      <trkpt lat="47.00655" lon="-1.00053">
        <ele>116.8</ele>
        <time>2025-08-25T11:47:16Z</time>
      </trkpt>
      <trkpt lat="47.00656" lon="-1.00052">
        <ele>116.8</ele>
        <time>2025-08-25T11:47:17Z</time>
      </trkpt>
      <trkpt lat="47.00657" lon="-1.0005">
        <ele>116.8</ele>
        <time>2025-08-25T11:47:18Z</time>
      </trkpt>
      <trkpt lat="47.00658" lon="-1.00048">
        <ele>116.7</ele>
        <time>2025-08-25T11:47:19Z</time>
      </trkpt>
      <trkpt lat="47.00659" lon="-1.00046">
        <ele>116.7</ele>
        <time>2025-08-25T11:47:20Z</time>
      </trkpt>
      <trkpt lat="47.00659" lon="-1.00045">
        <ele>116.7</ele>
        <time>2025-08-25T11:47:21Z</time>
      </trkpt>
      <trkpt lat="47.00659" lon="-1.00042">
        <ele>116.7</ele>
        <time>2025-08-25T11:47:22Z</time>
      </trkpt>
      <trkpt lat="47.0066" lon="-1.00041">
        <ele>116.7</ele>
        <time>2025-08-25T11:47:23Z</time>
      </trkpt>
      <trkpt lat="47.0066" lon="-1.0004">
        <ele>116.7</ele>
        <time>2025-08-25T11:47:24Z</time>
      </trkpt>
      <trkpt lat="47.0066" lon="-1.00038">
        <ele>116.7</ele>
        <time>2025-08-25T11:47:25Z</time>
      </trkpt>
      <trkpt lat="47.0066" lon="-1.00036">
        <ele>116.6</ele>
        <time>2025-08-25T11:47:26Z</time>
      </trkpt>
      <trkpt lat="47.0066" lon="-1.00034">
        <ele>116.6</ele>
        <time>2025-08-25T11:47:27Z</time>
      </trkpt>
      <trkpt lat="47.0066" lon="-1.00032">
        <ele>116.6</ele>
        <time>2025-08-25T11:47:28Z</time>
      </trkpt>
      <trkpt lat="47.00659" lon="-1.00031">
        <ele>116.6</ele>
        <time>2025-08-25T11:47:29Z</time>
      </trkpt>
      <trkpt lat="47.00659" lon="-1.00028">
        <ele>116.5</ele>
        <time>2025-08-25T11:47:30Z</time>
      </trkpt>
      <trkpt lat="47.00659" lon="-1.00027">
        <ele>116.5</ele>
        <time>2025-08-25T11:47:31Z</time>
      </trkpt>
      <trkpt lat="47.00658" lon="-1.00026">
        <ele>116.5</ele>
        <time>2025-08-25T11:47:32Z</time>
      </trkpt>
      <trkpt lat="47.00657" lon="-1.00025">
        <ele>116.5</ele>
        <time>2025-08-25T11:47:33Z</time>
      </trkpt>
      <trkpt lat="47.00656" lon="-1.00023">
        <ele>116.5</ele>
        <time>2025-08-25T11:47:34Z</time>
      </trkpt>
      <trkpt lat="47.00657" lon="-1.00022">
        <ele>116.4</ele>
        <time>2025-08-25T11:47:35Z</time>
      </trkpt>
      <trkpt lat="47.00657" lon="-1.00022">
        <ele>116.4</ele>
        <time>2025-08-25T11:47:36Z</time>
      </trkpt>
      <trkpt lat="47.00657" lon="-1.00022">
        <ele>116.4</ele>
        <time>2025-08-25T11:47:37Z</time>
      </trkpt>
      <trkpt lat="47.00656" lon="-1.00022">
        <ele>116.4</ele>
        <time>2025-08-25T11:47:38Z</time>
      </trkpt>
      <trkpt lat="47.00656" lon="-1.00022">
        <ele>116.4</ele>
        <time>2025-08-25T11:47:39Z</time>
      </trkpt>
      <trkpt lat="47.00656" lon="-1.00023">
        <ele>116.4</ele>
        <time>2025-08-25T11:47:40Z</time>
      </trkpt>
      <trkpt lat="47.00655" lon="-1.00023">
        <ele>116.4</ele>
        <time>2025-08-25T11:47:41Z</time>
      </trkpt>
      <trkpt lat="47.00655" lon="-1.00024">
        <ele>116.4</ele>
        <time>2025-08-25T11:47:42Z</time>
      </trkpt>
      <trkpt lat="47.00655" lon="-1.00024">
        <ele>116.4</ele>
        <time>2025-08-25T11:47:43Z</time>
      </trkpt>
      <trkpt lat="47.00655" lon="-1.00024">
        <ele>116.4</ele>
        <time>2025-08-25T11:47:44Z</time>
      </trkpt>
      <trkpt lat="47.00655" lon="-1.00024">
        <ele>116.4</ele>
        <time>2025-08-25T11:47:45Z</time>
      </trkpt>
      <trkpt lat="47.00655" lon="-1.00025">
        <ele>116.4</ele>
        <time>2025-08-25T11:47:46Z</time>
      </trkpt>
      <trkpt lat="47.00655" lon="-1.00025">
        <ele>116.4</ele>
        <time>2025-08-25T11:47:47Z</time>
      </trkpt>
      <trkpt lat="47.00654" lon="-1.00025">
        <ele>116.3</ele>
        <time>2025-08-25T11:47:48Z</time>
      </trkpt>
      <trkpt lat="47.00653" lon="-1.00025">
        <ele>116.3</ele>
        <time>2025-08-25T11:47:49Z</time>
      </trkpt>
      <trkpt lat="47.00653" lon="-1.00025">
        <ele>116.3</ele>
        <time>2025-08-25T11:47:50Z</time>
      </trkpt>
      <trkpt lat="47.00653" lon="-1.00025">
        <ele>116.3</ele>
        <time>2025-08-25T11:47:51Z</time>
      </trkpt>
      <trkpt lat="47.00652" lon="-1.00025">
        <ele>116.3</ele>
        <time>2025-08-25T11:47:52Z</time>
      </trkpt>
      <trkpt lat="47.00651" lon="-1.00024">
        <ele>116.3</ele>
        <time>2025-08-25T11:47:53Z</time>
      </trkpt>
      <trkpt lat="47.00649" lon="-1.00021">
        <ele>116.2</ele>
        <time>2025-08-25T11:47:54Z</time>
      </trkpt>
      <trkpt lat="47.00648" lon="-1.0002">
        <ele>116.2</ele>
        <time>2025-08-25T11:47:55Z</time>
      </trkpt>
      <trkpt lat="47.00645" lon="-1.00017">
        <ele>116.1</ele>
        <time>2025-08-25T11:47:56Z</time>
      </trkpt>
      <trkpt lat="47.00644" lon="-1.00017">
        <ele>116.1</ele>
        <time>2025-08-25T11:47:57Z</time>
      </trkpt>
      <trkpt lat="47.00642" lon="-1.00014">
        <ele>116</ele>
        <time>2025-08-25T11:47:58Z</time>
      </trkpt>
      <trkpt lat="47.00641" lon="-1.00013">
        <ele>116</ele>
        <time>2025-08-25T11:47:59Z</time>
      </trkpt>
      <trkpt lat="47.0064" lon="-1.00012">
        <ele>116</ele>
        <time>2025-08-25T11:48:00Z</time>
      </trkpt>
      <trkpt lat="47.00638" lon="-1.0001">
        <ele>115.9</ele>
        <time>2025-08-25T11:48:01Z</time>
      </trkpt>
      <trkpt lat="47.00637" lon="-1.00009">
        <ele>115.9</ele>
        <time>2025-08-25T11:48:02Z</time>
      </trkpt>
      <trkpt lat="47.00635" lon="-1.00008">
        <ele>115.9</ele>
        <time>2025-08-25T11:48:03Z</time>
      </trkpt>
      <trkpt lat="47.00651" lon="-0.99994">
        <ele>115.5</ele>
        <time>2025-08-25T11:48:04Z</time>
      </trkpt>
      <trkpt lat="47.00655" lon="-0.99991">
        <ele>115.4</ele>
        <time>2025-08-25T11:48:05Z</time>
      </trkpt>
      <trkpt lat="47.00658" lon="-0.99987">
        <ele>115.3</ele>
        <time>2025-08-25T11:48:06Z</time>
      </trkpt>
      <trkpt lat="47.00658" lon="-0.99985">
        <ele>115.3</ele>
        <time>2025-08-25T11:48:07Z</time>
      </trkpt>
      <trkpt lat="47.00658" lon="-0.99982">
        <ele>115.3</ele>
        <time>2025-08-25T11:48:08Z</time>
      </trkpt>
      <trkpt lat="47.00658" lon="-0.9998">
        <ele>115.2</ele>
        <time>2025-08-25T11:48:09Z</time>
      </trkpt>
      <trkpt lat="47.00657" lon="-0.99977">
        <ele>115.2</ele>
        <time>2025-08-25T11:48:10Z</time>
      </trkpt>
      <trkpt lat="47.00657" lon="-0.99974">
        <ele>115.2</ele>
        <time>2025-08-25T11:48:11Z</time>
      </trkpt>
      <trkpt lat="47.00657" lon="-0.99973">
        <ele>115.2</ele>
        <time>2025-08-25T11:48:12Z</time>
      </trkpt>
      <trkpt lat="47.00657" lon="-0.99972">
        <ele>115.1</ele>
        <time>2025-08-25T11:48:13Z</time>
      </trkpt>
      <trkpt lat="47.00657" lon="-0.9997">
        <ele>115.1</ele>
        <time>2025-08-25T11:48:14Z</time>
      </trkpt>
      <trkpt lat="47.00657" lon="-0.99968">
        <ele>115.1</ele>
        <time>2025-08-25T11:48:15Z</time>
      </trkpt>
      <trkpt lat="47.00657" lon="-0.99966">
        <ele>115.1</ele>
        <time>2025-08-25T11:48:16Z</time>
      </trkpt>
      <trkpt lat="47.00657" lon="-0.99964">
        <ele>115</ele>
        <time>2025-08-25T11:48:17Z</time>
      </trkpt>
      <trkpt lat="47.00657" lon="-0.9996">
        <ele>115</ele>
        <time>2025-08-25T11:48:18Z</time>
      </trkpt>
      <trkpt lat="47.00658" lon="-0.99959">
        <ele>115</ele>
        <time>2025-08-25T11:48:19Z</time>
      </trkpt>
      <trkpt lat="47.00658" lon="-0.99958">
        <ele>115</ele>
        <time>2025-08-25T11:48:20Z</time>
      </trkpt>
      <trkpt lat="47.00658" lon="-0.99955">
        <ele>114.9</ele>
        <time>2025-08-25T11:48:21Z</time>
      </trkpt>
      <trkpt lat="47.00658" lon="-0.99954">
        <ele>114.9</ele>
        <time>2025-08-25T11:48:22Z</time>
      </trkpt>
      <trkpt lat="47.00658" lon="-0.99952">
        <ele>114.9</ele>
        <time>2025-08-25T11:48:23Z</time>
      </trkpt>
      <trkpt lat="47.00659" lon="-0.99949">
        <ele>114.8</ele>
        <time>2025-08-25T11:48:24Z</time>
      </trkpt>
      <trkpt lat="47.00659" lon="-0.99948">
        <ele>114.8</ele>
        <time>2025-08-25T11:48:25Z</time>
      </trkpt>
      <trkpt lat="47.00659" lon="-0.99947">
        <ele>114.8</ele>
        <time>2025-08-25T11:48:26Z</time>
      </trkpt>
      <trkpt lat="47.0066" lon="-0.99944">
        <ele>114.7</ele>
        <time>2025-08-25T11:48:27Z</time>
      </trkpt>
      <trkpt lat="47.0066" lon="-0.99943">
        <ele>114.7</ele>
        <time>2025-08-25T11:48:28Z</time>
      </trkpt>
      <trkpt lat="47.0066" lon="-0.99941">
        <ele>114.7</ele>
        <time>2025-08-25T11:48:29Z</time>
      </trkpt>
      <trkpt lat="47.0066" lon="-0.9994">
        <ele>114.6</ele>
        <time>2025-08-25T11:48:30Z</time>
      </trkpt>
      <trkpt lat="47.0066" lon="-0.99938">
        <ele>114.6</ele>
        <time>2025-08-25T11:48:31Z</time>
      </trkpt>
      <trkpt lat="47.00661" lon="-0.99934">
        <ele>114.5</ele>
        <time>2025-08-25T11:48:32Z</time>
      </trkpt>
      <trkpt lat="47.00661" lon="-0.99933">
        <ele>114.5</ele>
        <time>2025-08-25T11:48:33Z</time>
      </trkpt>
      <trkpt lat="47.00661" lon="-0.99932">
        <ele>114.5</ele>
        <time>2025-08-25T11:48:34Z</time>
      </trkpt>
      <trkpt lat="47.00661" lon="-0.9993">
        <ele>114.4</ele>
        <time>2025-08-25T11:48:35Z</time>
      </trkpt>
      <trkpt lat="47.00662" lon="-0.99928">
        <ele>114.4</ele>
        <time>2025-08-25T11:48:36Z</time>
      </trkpt>
      <trkpt lat="47.00662" lon="-0.99925">
        <ele>114.3</ele>
        <time>2025-08-25T11:48:37Z</time>
      </trkpt>
      <trkpt lat="47.00662" lon="-0.99923">
        <ele>114.3</ele>
        <time>2025-08-25T11:48:38Z</time>
      </trkpt>
      <trkpt lat="47.00662" lon="-0.99922">
        <ele>114.2</ele>
        <time>2025-08-25T11:48:39Z</time>
      </trkpt>
      <trkpt lat="47.00662" lon="-0.99919">
        <ele>114.1</ele>
        <time>2025-08-25T11:48:40Z</time>
      </trkpt>
      <trkpt lat="47.00662" lon="-0.99918">
        <ele>114.1</ele>
        <time>2025-08-25T11:48:41Z</time>
      </trkpt>
      <trkpt lat="47.00662" lon="-0.99916">
        <ele>114</ele>
        <time>2025-08-25T11:48:42Z</time>
      </trkpt>
      <trkpt lat="47.00662" lon="-0.99913">
        <ele>114</ele>
        <time>2025-08-25T11:48:43Z</time>
      </trkpt>
      <trkpt lat="47.00662" lon="-0.99912">
        <ele>113.9</ele>
        <time>2025-08-25T11:48:44Z</time>
      </trkpt>
      <trkpt lat="47.00663" lon="-0.99911">
        <ele>113.9</ele>
        <time>2025-08-25T11:48:45Z</time>
      </trkpt>
      <trkpt lat="47.00663" lon="-0.99909">
        <ele>113.8</ele>
        <time>2025-08-25T11:48:46Z</time>
      </trkpt>
      <trkpt lat="47.00662" lon="-0.99907">
        <ele>113.7</ele>
        <time>2025-08-25T11:48:47Z</time>
      </trkpt>
      <trkpt lat="47.00662" lon="-0.99905">
        <ele>113.7</ele>
        <time>2025-08-25T11:48:48Z</time>
      </trkpt>
      <trkpt lat="47.00662" lon="-0.99903">
        <ele>113.6</ele>
        <time>2025-08-25T11:48:49Z</time>
      </trkpt>
      <trkpt lat="47.00662" lon="-0.99901">
        <ele>113.5</ele>
        <time>2025-08-25T11:48:50Z</time>
      </trkpt>
      <trkpt lat="47.00662" lon="-0.99899">
        <ele>113.5</ele>
        <time>2025-08-25T11:48:51Z</time>
      </trkpt>
      <trkpt lat="47.00662" lon="-0.99897">
        <ele>113.4</ele>
        <time>2025-08-25T11:48:52Z</time>
      </trkpt>
      <trkpt lat="47.00662" lon="-0.99895">
        <ele>113.3</ele>
        <time>2025-08-25T11:48:53Z</time>
      </trkpt>
      <trkpt lat="47.00662" lon="-0.99893">
        <ele>113.3</ele>
        <time>2025-08-25T11:48:54Z</time>
      </trkpt>
      <trkpt lat="47.00662" lon="-0.9989">
        <ele>113.2</ele>
        <time>2025-08-25T11:48:55Z</time>
      </trkpt>
      <trkpt lat="47.00662" lon="-0.99888">
        <ele>113.1</ele>
        <time>2025-08-25T11:48:56Z</time>
      </trkpt>
      <trkpt lat="47.00662" lon="-0.99886">
        <ele>113</ele>
        <time>2025-08-25T11:48:57Z</time>
      </trkpt>
      <trkpt lat="47.00662" lon="-0.99884">
        <ele>112.9</ele>
        <time>2025-08-25T11:48:58Z</time>
      </trkpt>
      <trkpt lat="47.00662" lon="-0.99882">
        <ele>112.8</ele>
        <time>2025-08-25T11:48:59Z</time>
      </trkpt>
      <trkpt lat="47.00661" lon="-0.9988">
        <ele>112.8</ele>
        <time>2025-08-25T11:49:00Z</time>
      </trkpt>
      <trkpt lat="47.00661" lon="-0.99878">
        <ele>112.7</ele>
        <time>2025-08-25T11:49:01Z</time>
      </trkpt>
      <trkpt lat="47.0066" lon="-0.99876">
        <ele>112.6</ele>
        <time>2025-08-25T11:49:02Z</time>
      </trkpt>
      <trkpt lat="47.0066" lon="-0.99874">
        <ele>112.5</ele>
        <time>2025-08-25T11:49:03Z</time>
      </trkpt>
      <trkpt lat="47.0066" lon="-0.99872">
        <ele>112.4</ele>
        <time>2025-08-25T11:49:04Z</time>
      </trkpt>
      <trkpt lat="47.0066" lon="-0.9987">
        <ele>112.3</ele>
        <time>2025-08-25T11:49:05Z</time>
      </trkpt>
      <trkpt lat="47.00659" lon="-0.99868">
        <ele>112.2</ele>
        <time>2025-08-25T11:49:06Z</time>
      </trkpt>
      <trkpt lat="47.00659" lon="-0.99866">
        <ele>112.1</ele>
        <time>2025-08-25T11:49:07Z</time>
      </trkpt>
      <trkpt lat="47.00659" lon="-0.99864">
        <ele>112</ele>
        <time>2025-08-25T11:49:08Z</time>
      </trkpt>
      <trkpt lat="47.00659" lon="-0.99862">
        <ele>111.9</ele>
        <time>2025-08-25T11:49:09Z</time>
      </trkpt>
      <trkpt lat="47.00659" lon="-0.9986">
        <ele>111.9</ele>
        <time>2025-08-25T11:49:10Z</time>
      </trkpt>
      <trkpt lat="47.00659" lon="-0.99858">
        <ele>111.8</ele>
        <time>2025-08-25T11:49:11Z</time>
      </trkpt>
      <trkpt lat="47.00659" lon="-0.99856">
        <ele>111.7</ele>
        <time>2025-08-25T11:49:12Z</time>
      </trkpt>
      <trkpt lat="47.00658" lon="-0.99853">
        <ele>111.5</ele>
        <time>2025-08-25T11:49:13Z</time>
      </trkpt>
      <trkpt lat="47.00658" lon="-0.99852">
        <ele>111.5</ele>
        <time>2025-08-25T11:49:14Z</time>
      </trkpt>
      <trkpt lat="47.00658" lon="-0.99851">
        <ele>111.4</ele>
        <time>2025-08-25T11:49:15Z</time>
      </trkpt>
      <trkpt lat="47.00658" lon="-0.99848">
        <ele>111.3</ele>
        <time>2025-08-25T11:49:16Z</time>
      </trkpt>
      <trkpt lat="47.00658" lon="-0.99847">
        <ele>111.2</ele>
        <time>2025-08-25T11:49:17Z</time>
      </trkpt>
      <trkpt lat="47.00658" lon="-0.99845">
        <ele>111.1</ele>
        <time>2025-08-25T11:49:18Z</time>
      </trkpt>
      <trkpt lat="47.00657" lon="-0.99842">
        <ele>111</ele>
        <time>2025-08-25T11:49:19Z</time>
      </trkpt>
      <trkpt lat="47.00657" lon="-0.99841">
        <ele>110.9</ele>
        <time>2025-08-25T11:49:20Z</time>
      </trkpt>
      <trkpt lat="47.00657" lon="-0.9984">
        <ele>110.8</ele>
        <time>2025-08-25T11:49:21Z</time>
      </trkpt>
      <trkpt lat="47.00657" lon="-0.99836">
        <ele>110.7</ele>
        <time>2025-08-25T11:49:22Z</time>
      </trkpt>
      <trkpt lat="47.00657" lon="-0.99835">
        <ele>110.6</ele>
        <time>2025-08-25T11:49:23Z</time>
      </trkpt>
      <trkpt lat="47.00657" lon="-0.99834">
        <ele>110.5</ele>
        <time>2025-08-25T11:49:24Z</time>
      </trkpt>
      <trkpt lat="47.00656" lon="-0.99831">
        <ele>110.4</ele>
        <time>2025-08-25T11:49:25Z</time>
      </trkpt>
      <trkpt lat="47.00656" lon="-0.99829">
        <ele>110.3</ele>
        <time>2025-08-25T11:49:26Z</time>
      </trkpt>
      <trkpt lat="47.00656" lon="-0.99828">
        <ele>110.2</ele>
        <time>2025-08-25T11:49:27Z</time>
      </trkpt>
      <trkpt lat="47.00656" lon="-0.99825">
        <ele>110.1</ele>
        <time>2025-08-25T11:49:28Z</time>
      </trkpt>
      <trkpt lat="47.00655" lon="-0.99824">
        <ele>110</ele>
        <time>2025-08-25T11:49:29Z</time>
      </trkpt>
      <trkpt lat="47.00655" lon="-0.99823">
        <ele>110</ele>
        <time>2025-08-25T11:49:30Z</time>
      </trkpt>
      <trkpt lat="47.00655" lon="-0.99821">
        <ele>109.9</ele>
        <time>2025-08-25T11:49:31Z</time>
      </trkpt>
      <trkpt lat="47.00655" lon="-0.99819">
        <ele>109.8</ele>
        <time>2025-08-25T11:49:32Z</time>
      </trkpt>
      <trkpt lat="47.00654" lon="-0.99815">
        <ele>109.6</ele>
        <time>2025-08-25T11:49:33Z</time>
      </trkpt>
      <trkpt lat="47.00654" lon="-0.99814">
        <ele>109.6</ele>
        <time>2025-08-25T11:49:34Z</time>
      </trkpt>
      <trkpt lat="47.00654" lon="-0.99813">
        <ele>109.5</ele>
        <time>2025-08-25T11:49:35Z</time>
      </trkpt>
      <trkpt lat="47.00653" lon="-0.99811">
        <ele>109.4</ele>
        <time>2025-08-25T11:49:36Z</time>
      </trkpt>
      <trkpt lat="47.00653" lon="-0.99809">
        <ele>109.3</ele>
        <time>2025-08-25T11:49:37Z</time>
      </trkpt>
      <trkpt lat="47.00652" lon="-0.99808">
        <ele>109.2</ele>
        <time>2025-08-25T11:49:38Z</time>
      </trkpt>
      <trkpt lat="47.00652" lon="-0.99806">
        <ele>109.2</ele>
        <time>2025-08-25T11:49:39Z</time>
      </trkpt>
      <trkpt lat="47.00651" lon="-0.99805">
        <ele>109.1</ele>
        <time>2025-08-25T11:49:40Z</time>
      </trkpt>
      <trkpt lat="47.00651" lon="-0.99802">
        <ele>109</ele>
        <time>2025-08-25T11:49:41Z</time>
      </trkpt>
      <trkpt lat="47.0065" lon="-0.99801">
        <ele>108.9</ele>
        <time>2025-08-25T11:49:42Z</time>
      </trkpt>
      <trkpt lat="47.0065" lon="-0.998">
        <ele>108.9</ele>
        <time>2025-08-25T11:49:43Z</time>
      </trkpt>
      <trkpt lat="47.00649" lon="-0.99797">
        <ele>108.7</ele>
        <time>2025-08-25T11:49:44Z</time>
      </trkpt>
      <trkpt lat="47.00649" lon="-0.99795">
        <ele>108.7</ele>
        <time>2025-08-25T11:49:45Z</time>
      </trkpt>
      <trkpt lat="47.00648" lon="-0.99794">
        <ele>108.6</ele>
        <time>2025-08-25T11:49:46Z</time>
      </trkpt>
      <trkpt lat="47.00648" lon="-0.99792">
        <ele>108.5</ele>
        <time>2025-08-25T11:49:47Z</time>
      </trkpt>
      <trkpt lat="47.00647" lon="-0.9979">
        <ele>108.5</ele>
        <time>2025-08-25T11:49:48Z</time>
      </trkpt>
      <trkpt lat="47.00647" lon="-0.99788">
        <ele>108.4</ele>
        <time>2025-08-25T11:49:49Z</time>
      </trkpt>
      <trkpt lat="47.00646" lon="-0.99787">
        <ele>108.3</ele>
        <time>2025-08-25T11:49:50Z</time>
      </trkpt>
      <trkpt lat="47.00646" lon="-0.99784">
        <ele>108.2</ele>
        <time>2025-08-25T11:49:51Z</time>
      </trkpt>
      <trkpt lat="47.00645" lon="-0.99782">
        <ele>108.2</ele>
        <time>2025-08-25T11:49:52Z</time>
      </trkpt>
      <trkpt lat="47.00645" lon="-0.99781">
        <ele>108.1</ele>
        <time>2025-08-25T11:49:53Z</time>
      </trkpt>
      <trkpt lat="47.00644" lon="-0.99779">
        <ele>108</ele>
        <time>2025-08-25T11:49:54Z</time>
      </trkpt>
      <trkpt lat="47.00643" lon="-0.99777">
        <ele>108</ele>
        <time>2025-08-25T11:49:55Z</time>
      </trkpt>
      <trkpt lat="47.00643" lon="-0.99775">
        <ele>107.9</ele>
        <time>2025-08-25T11:49:56Z</time>
      </trkpt>
      <trkpt lat="47.00642" lon="-0.99773">
        <ele>107.9</ele>
        <time>2025-08-25T11:49:57Z</time>
      </trkpt>
      <trkpt lat="47.00641" lon="-0.99771">
        <ele>107.8</ele>
        <time>2025-08-25T11:49:58Z</time>
      </trkpt>
      <trkpt lat="47.00641" lon="-0.99769">
        <ele>107.8</ele>
        <time>2025-08-25T11:49:59Z</time>
      </trkpt>
      <trkpt lat="47.0064" lon="-0.99768">
        <ele>107.7</ele>
        <time>2025-08-25T11:50:00Z</time>
      </trkpt>
      <trkpt lat="47.00639" lon="-0.99766">
        <ele>107.7</ele>
        <time>2025-08-25T11:50:01Z</time>
      </trkpt>
      <trkpt lat="47.00639" lon="-0.99765">
        <ele>107.6</ele>
        <time>2025-08-25T11:50:02Z</time>
      </trkpt>
      <trkpt lat="47.00638" lon="-0.99763">
        <ele>107.6</ele>
        <time>2025-08-25T11:50:03Z</time>
      </trkpt>
      <trkpt lat="47.00637" lon="-0.9976">
        <ele>107.5</ele>
        <time>2025-08-25T11:50:04Z</time>
      </trkpt>
      <trkpt lat="47.00637" lon="-0.99759">
        <ele>107.5</ele>
        <time>2025-08-25T11:50:05Z</time>
      </trkpt>
      <trkpt lat="47.00637" lon="-0.99758">
        <ele>107.5</ele>
        <time>2025-08-25T11:50:06Z</time>
      </trkpt>
      <trkpt lat="47.00636" lon="-0.99756">
        <ele>107.5</ele>
        <time>2025-08-25T11:50:07Z</time>
      </trkpt>
      <trkpt lat="47.00636" lon="-0.99755">
        <ele>107.5</ele>
        <time>2025-08-25T11:50:08Z</time>
      </trkpt>
      <trkpt lat="47.00636" lon="-0.99753">
        <ele>107.4</ele>
        <time>2025-08-25T11:50:09Z</time>
      </trkpt>
      <trkpt lat="47.00635" lon="-0.99751">
        <ele>107.4</ele>
        <time>2025-08-25T11:50:10Z</time>
      </trkpt>
      <trkpt lat="47.00634" lon="-0.99749">
        <ele>107.4</ele>
        <time>2025-08-25T11:50:11Z</time>
      </trkpt>
      <trkpt lat="47.00634" lon="-0.99748">
        <ele>107.4</ele>
        <time>2025-08-25T11:50:12Z</time>
      </trkpt>
      <trkpt lat="47.00633" lon="-0.99745">
        <ele>107.3</ele>
        <time>2025-08-25T11:50:13Z</time>
      </trkpt>
      <trkpt lat="47.00633" lon="-0.99744">
        <ele>107.3</ele>
        <time>2025-08-25T11:50:14Z</time>
      </trkpt>
      <trkpt lat="47.00632" lon="-0.99743">
        <ele>107.3</ele>
        <time>2025-08-25T11:50:15Z</time>
      </trkpt>
      <trkpt lat="47.00631" lon="-0.9974">
        <ele>107.3</ele>
        <time>2025-08-25T11:50:16Z</time>
      </trkpt>
      <trkpt lat="47.00631" lon="-0.99739">
        <ele>107.3</ele>
        <time>2025-08-25T11:50:17Z</time>
      </trkpt>
      <trkpt lat="47.00631" lon="-0.99738">
        <ele>107.3</ele>
        <time>2025-08-25T11:50:18Z</time>
      </trkpt>
      <trkpt lat="47.0063" lon="-0.99735">
        <ele>107.3</ele>
        <time>2025-08-25T11:50:19Z</time>
      </trkpt>
      <trkpt lat="47.0063" lon="-0.99734">
        <ele>107.3</ele>
        <time>2025-08-25T11:50:20Z</time>
      </trkpt>
      <trkpt lat="47.00629" lon="-0.99732">
        <ele>107.2</ele>
        <time>2025-08-25T11:50:21Z</time>
      </trkpt>
      <trkpt lat="47.00629" lon="-0.99729">
        <ele>107.3</ele>
        <time>2025-08-25T11:50:22Z</time>
      </trkpt>
      <trkpt lat="47.00628" lon="-0.99728">
        <ele>107.3</ele>
        <time>2025-08-25T11:50:23Z</time>
      </trkpt>
      <trkpt lat="47.00628" lon="-0.99727">
        <ele>107.3</ele>
        <time>2025-08-25T11:50:24Z</time>
      </trkpt>
      <trkpt lat="47.00627" lon="-0.99723">
        <ele>107.3</ele>
        <time>2025-08-25T11:50:25Z</time>
      </trkpt>
      <trkpt lat="47.00626" lon="-0.9972">
        <ele>107.3</ele>
        <time>2025-08-25T11:50:26Z</time>
      </trkpt>
      <trkpt lat="47.00625" lon="-0.99719">
        <ele>107.4</ele>
        <time>2025-08-25T11:50:27Z</time>
      </trkpt>
      <trkpt lat="47.00625" lon="-0.99718">
        <ele>107.4</ele>
        <time>2025-08-25T11:50:28Z</time>
      </trkpt>
      <trkpt lat="47.00625" lon="-0.99716">
        <ele>107.4</ele>
        <time>2025-08-25T11:50:29Z</time>
      </trkpt>
      <trkpt lat="47.00624" lon="-0.99714">
        <ele>107.4</ele>
        <time>2025-08-25T11:50:30Z</time>
      </trkpt>
      <trkpt lat="47.00624" lon="-0.99712">
        <ele>107.5</ele>
        <time>2025-08-25T11:50:31Z</time>
      </trkpt>
      <trkpt lat="47.00623" lon="-0.9971">
        <ele>107.5</ele>
        <time>2025-08-25T11:50:32Z</time>
      </trkpt>
      <trkpt lat="47.00623" lon="-0.99708">
        <ele>107.5</ele>
        <time>2025-08-25T11:50:33Z</time>
      </trkpt>
      <trkpt lat="47.00622" lon="-0.99706">
        <ele>107.6</ele>
        <time>2025-08-25T11:50:34Z</time>
      </trkpt>
      <trkpt lat="47.00621" lon="-0.99704">
        <ele>107.6</ele>
        <time>2025-08-25T11:50:35Z</time>
      </trkpt>
      <trkpt lat="47.00621" lon="-0.99702">
        <ele>107.7</ele>
        <time>2025-08-25T11:50:36Z</time>
      </trkpt>
      <trkpt lat="47.0062" lon="-0.997">
        <ele>107.7</ele>
        <time>2025-08-25T11:50:37Z</time>
      </trkpt>
      <trkpt lat="47.00619" lon="-0.99698">
        <ele>107.8</ele>
        <time>2025-08-25T11:50:38Z</time>
      </trkpt>
      <trkpt lat="47.00619" lon="-0.99696">
        <ele>107.8</ele>
        <time>2025-08-25T11:50:39Z</time>
      </trkpt>
      <trkpt lat="47.00618" lon="-0.99694">
        <ele>107.9</ele>
        <time>2025-08-25T11:50:40Z</time>
      </trkpt>
      <trkpt lat="47.00617" lon="-0.99692">
        <ele>108</ele>
        <time>2025-08-25T11:50:41Z</time>
      </trkpt>
      <trkpt lat="47.00617" lon="-0.99691">
        <ele>108</ele>
        <time>2025-08-25T11:50:42Z</time>
      </trkpt>
      <trkpt lat="47.00616" lon="-0.99689">
        <ele>108.1</ele>
        <time>2025-08-25T11:50:43Z</time>
      </trkpt>
      <trkpt lat="47.00616" lon="-0.99687">
        <ele>108.1</ele>
        <time>2025-08-25T11:50:44Z</time>
      </trkpt>
      <trkpt lat="47.00615" lon="-0.99685">
        <ele>108.2</ele>
        <time>2025-08-25T11:50:45Z</time>
      </trkpt>
      <trkpt lat="47.00614" lon="-0.99682">
        <ele>108.2</ele>
        <time>2025-08-25T11:50:46Z</time>
      </trkpt>
      <trkpt lat="47.00614" lon="-0.9968">
        <ele>108.3</ele>
        <time>2025-08-25T11:50:47Z</time>
      </trkpt>
      <trkpt lat="47.00613" lon="-0.99679">
        <ele>108.3</ele>
        <time>2025-08-25T11:50:48Z</time>
      </trkpt>
      <trkpt lat="47.00613" lon="-0.99677">
        <ele>108.4</ele>
        <time>2025-08-25T11:50:49Z</time>
      </trkpt>
      <trkpt lat="47.00613" lon="-0.99675">
        <ele>108.4</ele>
        <time>2025-08-25T11:50:50Z</time>
      </trkpt>
      <trkpt lat="47.00612" lon="-0.99673">
        <ele>108.5</ele>
        <time>2025-08-25T11:50:51Z</time>
      </trkpt>
      <trkpt lat="47.00612" lon="-0.99671">
        <ele>108.5</ele>
        <time>2025-08-25T11:50:52Z</time>
      </trkpt>
      <trkpt lat="47.00611" lon="-0.99668">
        <ele>108.6</ele>
        <time>2025-08-25T11:50:53Z</time>
      </trkpt>
      <trkpt lat="47.00611" lon="-0.99666">
        <ele>108.6</ele>
        <time>2025-08-25T11:50:54Z</time>
      </trkpt>
      <trkpt lat="47.00611" lon="-0.99665">
        <ele>108.6</ele>
        <time>2025-08-25T11:50:55Z</time>
      </trkpt>
      <trkpt lat="47.0061" lon="-0.99663">
        <ele>108.7</ele>
        <time>2025-08-25T11:50:56Z</time>
      </trkpt>
      <trkpt lat="47.0061" lon="-0.99661">
        <ele>108.7</ele>
        <time>2025-08-25T11:50:57Z</time>
      </trkpt>
      <trkpt lat="47.0061" lon="-0.99659">
        <ele>108.8</ele>
        <time>2025-08-25T11:50:58Z</time>
      </trkpt>
      <trkpt lat="47.00609" lon="-0.99657">
        <ele>108.8</ele>
        <time>2025-08-25T11:50:59Z</time>
      </trkpt>
      <trkpt lat="47.00609" lon="-0.99655">
        <ele>108.8</ele>
        <time>2025-08-25T11:51:00Z</time>
      </trkpt>
      <trkpt lat="47.00609" lon="-0.99653">
        <ele>108.9</ele>
        <time>2025-08-25T11:51:01Z</time>
      </trkpt>
      <trkpt lat="47.00608" lon="-0.99651">
        <ele>108.9</ele>
        <time>2025-08-25T11:51:02Z</time>
      </trkpt>
      <trkpt lat="47.00608" lon="-0.99649">
        <ele>108.9</ele>
        <time>2025-08-25T11:51:03Z</time>
      </trkpt>
      <trkpt lat="47.00608" lon="-0.99647">
        <ele>109</ele>
        <time>2025-08-25T11:51:04Z</time>
      </trkpt>
      <trkpt lat="47.00607" lon="-0.99645">
        <ele>109</ele>
        <time>2025-08-25T11:51:05Z</time>
      </trkpt>
      <trkpt lat="47.00607" lon="-0.99642">
        <ele>109</ele>
        <time>2025-08-25T11:51:06Z</time>
      </trkpt>
      <trkpt lat="47.00607" lon="-0.99641">
        <ele>109</ele>
        <time>2025-08-25T11:51:07Z</time>
      </trkpt>
      <trkpt lat="47.00606" lon="-0.99639">
        <ele>109.1</ele>
        <time>2025-08-25T11:51:08Z</time>
      </trkpt>
      <trkpt lat="47.00606" lon="-0.99636">
        <ele>109.1</ele>
        <time>2025-08-25T11:51:09Z</time>
      </trkpt>
      <trkpt lat="47.00606" lon="-0.99635">
        <ele>109.1</ele>
        <time>2025-08-25T11:51:10Z</time>
      </trkpt>
      <trkpt lat="47.00605" lon="-0.99634">
        <ele>109.1</ele>
        <time>2025-08-25T11:51:11Z</time>
      </trkpt>
      <trkpt lat="47.00605" lon="-0.99632">
        <ele>109.1</ele>
        <time>2025-08-25T11:51:12Z</time>
      </trkpt>
      <trkpt lat="47.00605" lon="-0.99629">
        <ele>109.1</ele>
        <time>2025-08-25T11:51:13Z</time>
      </trkpt>
      <trkpt lat="47.00604" lon="-0.99627">
        <ele>109.1</ele>
        <time>2025-08-25T11:51:14Z</time>
      </trkpt>
      <trkpt lat="47.00604" lon="-0.99626">
        <ele>109.1</ele>
        <time>2025-08-25T11:51:15Z</time>
      </trkpt>
      <trkpt lat="47.00604" lon="-0.99623">
        <ele>109.1</ele>
        <time>2025-08-25T11:51:16Z</time>
      </trkpt>
      <trkpt lat="47.00604" lon="-0.99621">
        <ele>109.1</ele>
        <time>2025-08-25T11:51:17Z</time>
      </trkpt>
      <trkpt lat="47.00603" lon="-0.9962">
        <ele>109.1</ele>
        <time>2025-08-25T11:51:18Z</time>
      </trkpt>
      <trkpt lat="47.00603" lon="-0.99617">
        <ele>109</ele>
        <time>2025-08-25T11:51:19Z</time>
      </trkpt>
      <trkpt lat="47.00603" lon="-0.99616">
        <ele>109</ele>
        <time>2025-08-25T11:51:20Z</time>
      </trkpt>
      <trkpt lat="47.00603" lon="-0.99615">
        <ele>109</ele>
        <time>2025-08-25T11:51:21Z</time>
      </trkpt>
      <trkpt lat="47.00603" lon="-0.99612">
        <ele>109</ele>
        <time>2025-08-25T11:51:22Z</time>
      </trkpt>
      <trkpt lat="47.00603" lon="-0.99611">
        <ele>109</ele>
        <time>2025-08-25T11:51:23Z</time>
      </trkpt>
      <trkpt lat="47.00603" lon="-0.99609">
        <ele>108.9</ele>
        <time>2025-08-25T11:51:24Z</time>
      </trkpt>
      <trkpt lat="47.00602" lon="-0.99605">
        <ele>108.9</ele>
        <time>2025-08-25T11:51:25Z</time>
      </trkpt>
      <trkpt lat="47.00602" lon="-0.99605">
        <ele>108.9</ele>
        <time>2025-08-25T11:51:26Z</time>
      </trkpt>
      <trkpt lat="47.00602" lon="-0.99604">
        <ele>108.8</ele>
        <time>2025-08-25T11:51:27Z</time>
      </trkpt>
      <trkpt lat="47.00602" lon="-0.996">
        <ele>108.8</ele>
        <time>2025-08-25T11:51:28Z</time>
      </trkpt>
      <trkpt lat="47.00602" lon="-0.99599">
        <ele>108.8</ele>
        <time>2025-08-25T11:51:29Z</time>
      </trkpt>
      <trkpt lat="47.00601" lon="-0.99597">
        <ele>108.7</ele>
        <time>2025-08-25T11:51:30Z</time>
      </trkpt>
      <trkpt lat="47.00601" lon="-0.99596">
        <ele>108.7</ele>
        <time>2025-08-25T11:51:31Z</time>
      </trkpt>
      <trkpt lat="47.00601" lon="-0.99594">
        <ele>108.7</ele>
        <time>2025-08-25T11:51:32Z</time>
      </trkpt>
      <trkpt lat="47.006" lon="-0.99592">
        <ele>108.6</ele>
        <time>2025-08-25T11:51:33Z</time>
      </trkpt>
      <trkpt lat="47.006" lon="-0.9959">
        <ele>108.6</ele>
        <time>2025-08-25T11:51:34Z</time>
      </trkpt>
      <trkpt lat="47.00599" lon="-0.99587">
        <ele>108.6</ele>
        <time>2025-08-25T11:51:35Z</time>
      </trkpt>
      <trkpt lat="47.00599" lon="-0.99586">
        <ele>108.5</ele>
        <time>2025-08-25T11:51:36Z</time>
      </trkpt>
      <trkpt lat="47.00599" lon="-0.99584">
        <ele>108.5</ele>
        <time>2025-08-25T11:51:37Z</time>
      </trkpt>
      <trkpt lat="47.00599" lon="-0.99582">
        <ele>108.5</ele>
        <time>2025-08-25T11:51:38Z</time>
      </trkpt>
      <trkpt lat="47.00598" lon="-0.99579">
        <ele>108.4</ele>
        <time>2025-08-25T11:51:39Z</time>
      </trkpt>
      <trkpt lat="47.00598" lon="-0.99578">
        <ele>108.4</ele>
        <time>2025-08-25T11:51:40Z</time>
      </trkpt>
      <trkpt lat="47.00597" lon="-0.99577">
        <ele>108.4</ele>
        <time>2025-08-25T11:51:41Z</time>
      </trkpt>
      <trkpt lat="47.00597" lon="-0.99574">
        <ele>108.3</ele>
        <time>2025-08-25T11:51:42Z</time>
      </trkpt>
      <trkpt lat="47.00596" lon="-0.99572">
        <ele>108.3</ele>
        <time>2025-08-25T11:51:43Z</time>
      </trkpt>
      <trkpt lat="47.00596" lon="-0.99571">
        <ele>108.3</ele>
        <time>2025-08-25T11:51:44Z</time>
      </trkpt>
      <trkpt lat="47.00595" lon="-0.99569">
        <ele>108.2</ele>
        <time>2025-08-25T11:51:45Z</time>
      </trkpt>
      <trkpt lat="47.00595" lon="-0.99567">
        <ele>108.2</ele>
        <time>2025-08-25T11:51:46Z</time>
      </trkpt>
      <trkpt lat="47.00594" lon="-0.99566">
        <ele>108.1</ele>
        <time>2025-08-25T11:51:47Z</time>
      </trkpt>
      <trkpt lat="47.00594" lon="-0.99564">
        <ele>108.1</ele>
        <time>2025-08-25T11:51:48Z</time>
      </trkpt>
      <trkpt lat="47.00593" lon="-0.99561">
        <ele>108</ele>
        <time>2025-08-25T11:51:49Z</time>
      </trkpt>
      <trkpt lat="47.00592" lon="-0.9956">
        <ele>108</ele>
        <time>2025-08-25T11:51:50Z</time>
      </trkpt>
      <trkpt lat="47.00592" lon="-0.99558">
        <ele>108</ele>
        <time>2025-08-25T11:51:51Z</time>
      </trkpt>
      <trkpt lat="47.00591" lon="-0.99556">
        <ele>107.9</ele>
        <time>2025-08-25T11:51:52Z</time>
      </trkpt>
      <trkpt lat="47.00591" lon="-0.99555">
        <ele>107.9</ele>
        <time>2025-08-25T11:51:53Z</time>
      </trkpt>
      <trkpt lat="47.00591" lon="-0.99553">
        <ele>107.9</ele>
        <time>2025-08-25T11:51:54Z</time>
      </trkpt>
      <trkpt lat="47.0059" lon="-0.99552">
        <ele>107.8</ele>
        <time>2025-08-25T11:51:55Z</time>
      </trkpt>
      <trkpt lat="47.00589" lon="-0.9955">
        <ele>107.8</ele>
        <time>2025-08-25T11:51:56Z</time>
      </trkpt>
      <trkpt lat="47.00589" lon="-0.99548">
        <ele>107.7</ele>
        <time>2025-08-25T11:51:57Z</time>
      </trkpt>
      <trkpt lat="47.00588" lon="-0.99546">
        <ele>107.7</ele>
        <time>2025-08-25T11:51:58Z</time>
      </trkpt>
      <trkpt lat="47.00587" lon="-0.99545">
        <ele>107.6</ele>
        <time>2025-08-25T11:51:59Z</time>
      </trkpt>
      <trkpt lat="47.00586" lon="-0.99543">
        <ele>107.6</ele>
        <time>2025-08-25T11:52:00Z</time>
      </trkpt>
      <trkpt lat="47.00585" lon="-0.99542">
        <ele>107.5</ele>
        <time>2025-08-25T11:52:01Z</time>
      </trkpt>
      <trkpt lat="47.00584" lon="-0.9954">
        <ele>107.5</ele>
        <time>2025-08-25T11:52:02Z</time>
      </trkpt>
      <trkpt lat="47.00582" lon="-0.99538">
        <ele>107.4</ele>
        <time>2025-08-25T11:52:03Z</time>
      </trkpt>
      <trkpt lat="47.00582" lon="-0.99537">
        <ele>107.4</ele>
        <time>2025-08-25T11:52:04Z</time>
      </trkpt>
      <trkpt lat="47.00581" lon="-0.99536">
        <ele>107.4</ele>
        <time>2025-08-25T11:52:05Z</time>
      </trkpt>
      <trkpt lat="47.00581" lon="-0.99535">
        <ele>107.3</ele>
        <time>2025-08-25T11:52:06Z</time>
      </trkpt>
      <trkpt lat="47.0058" lon="-0.99533">
        <ele>107.3</ele>
        <time>2025-08-25T11:52:07Z</time>
      </trkpt>
      <trkpt lat="47.0058" lon="-0.99531">
        <ele>107.3</ele>
        <time>2025-08-25T11:52:08Z</time>
      </trkpt>
      <trkpt lat="47.00579" lon="-0.9953">
        <ele>107.2</ele>
        <time>2025-08-25T11:52:09Z</time>
      </trkpt>
      <trkpt lat="47.00579" lon="-0.99529">
        <ele>107.2</ele>
        <time>2025-08-25T11:52:10Z</time>
      </trkpt>
      <trkpt lat="47.00578" lon="-0.99527">
        <ele>107.2</ele>
        <time>2025-08-25T11:52:11Z</time>
      </trkpt>
      <trkpt lat="47.00578" lon="-0.99525">
        <ele>107.1</ele>
        <time>2025-08-25T11:52:12Z</time>
      </trkpt>
      <trkpt lat="47.00577" lon="-0.99524">
        <ele>107.1</ele>
        <time>2025-08-25T11:52:13Z</time>
      </trkpt>
      <trkpt lat="47.00577" lon="-0.99522">
        <ele>107</ele>
        <time>2025-08-25T11:52:14Z</time>
      </trkpt>
      <trkpt lat="47.00576" lon="-0.9952">
        <ele>107</ele>
        <time>2025-08-25T11:52:15Z</time>
      </trkpt>
      <trkpt lat="47.00575" lon="-0.99517">
        <ele>106.9</ele>
        <time>2025-08-25T11:52:16Z</time>
      </trkpt>
      <trkpt lat="47.00575" lon="-0.99515">
        <ele>106.9</ele>
        <time>2025-08-25T11:52:17Z</time>
      </trkpt>
      <trkpt lat="47.00575" lon="-0.99514">
        <ele>106.9</ele>
        <time>2025-08-25T11:52:18Z</time>
      </trkpt>
      <trkpt lat="47.00574" lon="-0.99511">
        <ele>106.8</ele>
        <time>2025-08-25T11:52:19Z</time>
      </trkpt>
      <trkpt lat="47.00574" lon="-0.9951">
        <ele>106.8</ele>
        <time>2025-08-25T11:52:20Z</time>
      </trkpt>
      <trkpt lat="47.00574" lon="-0.99509">
        <ele>106.8</ele>
        <time>2025-08-25T11:52:21Z</time>
      </trkpt>
      <trkpt lat="47.00573" lon="-0.99507">
        <ele>106.7</ele>
        <time>2025-08-25T11:52:22Z</time>
      </trkpt>
      <trkpt lat="47.00573" lon="-0.99505">
        <ele>106.7</ele>
        <time>2025-08-25T11:52:23Z</time>
      </trkpt>
      <trkpt lat="47.00572" lon="-0.99503">
        <ele>106.7</ele>
        <time>2025-08-25T11:52:24Z</time>
      </trkpt>
      <trkpt lat="47.00571" lon="-0.99502">
        <ele>106.7</ele>
        <time>2025-08-25T11:52:25Z</time>
      </trkpt>
      <trkpt lat="47.00571" lon="-0.995">
        <ele>106.6</ele>
        <time>2025-08-25T11:52:26Z</time>
      </trkpt>
      <trkpt lat="47.0057" lon="-0.99498">
        <ele>106.6</ele>
        <time>2025-08-25T11:52:27Z</time>
      </trkpt>
      <trkpt lat="47.00569" lon="-0.99496">
        <ele>106.6</ele>
        <time>2025-08-25T11:52:28Z</time>
      </trkpt>
      <trkpt lat="47.00568" lon="-0.99495">
        <ele>106.6</ele>
        <time>2025-08-25T11:52:29Z</time>
      </trkpt>
      <trkpt lat="47.00567" lon="-0.99493">
        <ele>106.5</ele>
        <time>2025-08-25T11:52:30Z</time>
      </trkpt>
      <trkpt lat="47.00566" lon="-0.99492">
        <ele>106.5</ele>
        <time>2025-08-25T11:52:31Z</time>
      </trkpt>
      <trkpt lat="47.00565" lon="-0.9949">
        <ele>106.5</ele>
        <time>2025-08-25T11:52:32Z</time>
      </trkpt>
      <trkpt lat="47.00564" lon="-0.99489">
        <ele>106.5</ele>
        <time>2025-08-25T11:52:33Z</time>
      </trkpt>
      <trkpt lat="47.00563" lon="-0.99487">
        <ele>106.5</ele>
        <time>2025-08-25T11:52:34Z</time>
      </trkpt>
      <trkpt lat="47.00562" lon="-0.99485">
        <ele>106.5</ele>
        <time>2025-08-25T11:52:35Z</time>
      </trkpt>
      <trkpt lat="47.00562" lon="-0.99483">
        <ele>106.5</ele>
        <time>2025-08-25T11:52:36Z</time>
      </trkpt>
      <trkpt lat="47.00561" lon="-0.99482">
        <ele>106.5</ele>
        <time>2025-08-25T11:52:37Z</time>
      </trkpt>
      <trkpt lat="47.0056" lon="-0.99479">
        <ele>106.5</ele>
        <time>2025-08-25T11:52:38Z</time>
      </trkpt>
      <trkpt lat="47.0056" lon="-0.99477">
        <ele>106.5</ele>
        <time>2025-08-25T11:52:39Z</time>
      </trkpt>
      <trkpt lat="47.0056" lon="-0.99476">
        <ele>106.5</ele>
        <time>2025-08-25T11:52:40Z</time>
      </trkpt>
      <trkpt lat="47.00559" lon="-0.99475">
        <ele>106.5</ele>
        <time>2025-08-25T11:52:41Z</time>
      </trkpt>
      <trkpt lat="47.00558" lon="-0.99473">
        <ele>106.5</ele>
        <time>2025-08-25T11:52:42Z</time>
      </trkpt>
      <trkpt lat="47.00557" lon="-0.99471">
        <ele>106.5</ele>
        <time>2025-08-25T11:52:43Z</time>
      </trkpt>
      <trkpt lat="47.00556" lon="-0.99469">
        <ele>106.5</ele>
        <time>2025-08-25T11:52:44Z</time>
      </trkpt>
      <trkpt lat="47.00556" lon="-0.99467">
        <ele>106.5</ele>
        <time>2025-08-25T11:52:45Z</time>
      </trkpt>
      <trkpt lat="47.00554" lon="-0.99465">
        <ele>106.5</ele>
        <time>2025-08-25T11:52:46Z</time>
      </trkpt>
      <trkpt lat="47.00554" lon="-0.99464">
        <ele>106.5</ele>
        <time>2025-08-25T11:52:47Z</time>
      </trkpt>
      <trkpt lat="47.00553" lon="-0.99463">
        <ele>106.5</ele>
        <time>2025-08-25T11:52:48Z</time>
      </trkpt>
      <trkpt lat="47.00552" lon="-0.99461">
        <ele>106.5</ele>
        <time>2025-08-25T11:52:49Z</time>
      </trkpt>
      <trkpt lat="47.00551" lon="-0.99458">
        <ele>106.6</ele>
        <time>2025-08-25T11:52:50Z</time>
      </trkpt>
      <trkpt lat="47.0055" lon="-0.99457">
        <ele>106.6</ele>
        <time>2025-08-25T11:52:51Z</time>
      </trkpt>
      <trkpt lat="47.0055" lon="-0.99455">
        <ele>106.6</ele>
        <time>2025-08-25T11:52:52Z</time>
      </trkpt>
      <trkpt lat="47.00549" lon="-0.99453">
        <ele>106.7</ele>
        <time>2025-08-25T11:52:53Z</time>
      </trkpt>
      <trkpt lat="47.00548" lon="-0.99452">
        <ele>106.7</ele>
        <time>2025-08-25T11:52:54Z</time>
      </trkpt>
      <trkpt lat="47.00548" lon="-0.9945">
        <ele>106.7</ele>
        <time>2025-08-25T11:52:55Z</time>
      </trkpt>
      <trkpt lat="47.00547" lon="-0.99448">
        <ele>106.7</ele>
        <time>2025-08-25T11:52:56Z</time>
      </trkpt>
      <trkpt lat="47.00547" lon="-0.99447">
        <ele>106.8</ele>
        <time>2025-08-25T11:52:57Z</time>
      </trkpt>
      <trkpt lat="47.00546" lon="-0.99445">
        <ele>106.8</ele>
        <time>2025-08-25T11:52:58Z</time>
      </trkpt>
      <trkpt lat="47.00545" lon="-0.99443">
        <ele>106.8</ele>
        <time>2025-08-25T11:52:59Z</time>
      </trkpt>
      <trkpt lat="47.00544" lon="-0.99442">
        <ele>106.9</ele>
        <time>2025-08-25T11:53:00Z</time>
      </trkpt>
      <trkpt lat="47.00543" lon="-0.9944">
        <ele>106.9</ele>
        <time>2025-08-25T11:53:01Z</time>
      </trkpt>
      <trkpt lat="47.00541" lon="-0.99439">
        <ele>107</ele>
        <time>2025-08-25T11:53:02Z</time>
      </trkpt>
      <trkpt lat="47.0054" lon="-0.99437">
        <ele>107</ele>
        <time>2025-08-25T11:53:03Z</time>
      </trkpt>
      <trkpt lat="47.00539" lon="-0.99436">
        <ele>107.1</ele>
        <time>2025-08-25T11:53:04Z</time>
      </trkpt>
      <trkpt lat="47.00538" lon="-0.99434">
        <ele>107.1</ele>
        <time>2025-08-25T11:53:05Z</time>
      </trkpt>
      <trkpt lat="47.00537" lon="-0.99432">
        <ele>107.2</ele>
        <time>2025-08-25T11:53:06Z</time>
      </trkpt>
      <trkpt lat="47.00537" lon="-0.9943">
        <ele>107.2</ele>
        <time>2025-08-25T11:53:07Z</time>
      </trkpt>
      <trkpt lat="47.00536" lon="-0.99429">
        <ele>107.3</ele>
        <time>2025-08-25T11:53:08Z</time>
      </trkpt>
      <trkpt lat="47.00535" lon="-0.99427">
        <ele>107.3</ele>
        <time>2025-08-25T11:53:09Z</time>
      </trkpt>
      <trkpt lat="47.00534" lon="-0.99425">
        <ele>107.4</ele>
        <time>2025-08-25T11:53:10Z</time>
      </trkpt>
      <trkpt lat="47.00533" lon="-0.99423">
        <ele>107.4</ele>
        <time>2025-08-25T11:53:11Z</time>
      </trkpt>
      <trkpt lat="47.00532" lon="-0.99421">
        <ele>107.5</ele>
        <time>2025-08-25T11:53:12Z</time>
      </trkpt>
      <trkpt lat="47.00532" lon="-0.9942">
        <ele>107.5</ele>
        <time>2025-08-25T11:53:13Z</time>
      </trkpt>
      <trkpt lat="47.00531" lon="-0.99418">
        <ele>107.6</ele>
        <time>2025-08-25T11:53:14Z</time>
      </trkpt>
      <trkpt lat="47.0053" lon="-0.99416">
        <ele>107.6</ele>
        <time>2025-08-25T11:53:15Z</time>
      </trkpt>
      <trkpt lat="47.00529" lon="-0.99413">
        <ele>107.7</ele>
        <time>2025-08-25T11:53:16Z</time>
      </trkpt>
      <trkpt lat="47.00529" lon="-0.99412">
        <ele>107.7</ele>
        <time>2025-08-25T11:53:17Z</time>
      </trkpt>
      <trkpt lat="47.00528" lon="-0.99411">
        <ele>107.8</ele>
        <time>2025-08-25T11:53:18Z</time>
      </trkpt>
      <trkpt lat="47.00528" lon="-0.99409">
        <ele>107.8</ele>
        <time>2025-08-25T11:53:19Z</time>
      </trkpt>
      <trkpt lat="47.00527" lon="-0.99407">
        <ele>107.9</ele>
        <time>2025-08-25T11:53:20Z</time>
      </trkpt>
      <trkpt lat="47.00526" lon="-0.99405">
        <ele>107.9</ele>
        <time>2025-08-25T11:53:21Z</time>
      </trkpt>
      <trkpt lat="47.00526" lon="-0.99403">
        <ele>108</ele>
        <time>2025-08-25T11:53:22Z</time>
      </trkpt>
      <trkpt lat="47.00525" lon="-0.99401">
        <ele>108</ele>
        <time>2025-08-25T11:53:23Z</time>
      </trkpt>
      <trkpt lat="47.00524" lon="-0.994">
        <ele>108.1</ele>
        <time>2025-08-25T11:53:24Z</time>
      </trkpt>
      <trkpt lat="47.00524" lon="-0.99398">
        <ele>108.1</ele>
        <time>2025-08-25T11:53:25Z</time>
      </trkpt>
      <trkpt lat="47.00523" lon="-0.99396">
        <ele>108.2</ele>
        <time>2025-08-25T11:53:26Z</time>
      </trkpt>
      <trkpt lat="47.00523" lon="-0.99395">
        <ele>108.2</ele>
        <time>2025-08-25T11:53:27Z</time>
      </trkpt>
      <trkpt lat="47.00522" lon="-0.99393">
        <ele>108.3</ele>
        <time>2025-08-25T11:53:28Z</time>
      </trkpt>
      <trkpt lat="47.00522" lon="-0.99391">
        <ele>108.3</ele>
        <time>2025-08-25T11:53:29Z</time>
      </trkpt>
      <trkpt lat="47.00522" lon="-0.99389">
        <ele>108.4</ele>
        <time>2025-08-25T11:53:30Z</time>
      </trkpt>
      <trkpt lat="47.00521" lon="-0.99387">
        <ele>108.5</ele>
        <time>2025-08-25T11:53:31Z</time>
      </trkpt>
      <trkpt lat="47.00521" lon="-0.99383">
        <ele>108.5</ele>
        <time>2025-08-25T11:53:32Z</time>
      </trkpt>
      <trkpt lat="47.0052" lon="-0.99382">
        <ele>108.6</ele>
        <time>2025-08-25T11:53:33Z</time>
      </trkpt>
      <trkpt lat="47.0052" lon="-0.99381">
        <ele>108.6</ele>
        <time>2025-08-25T11:53:34Z</time>
      </trkpt>
      <trkpt lat="47.00519" lon="-0.99378">
        <ele>108.7</ele>
        <time>2025-08-25T11:53:35Z</time>
      </trkpt>
      <trkpt lat="47.00519" lon="-0.99377">
        <ele>108.7</ele>
        <time>2025-08-25T11:53:36Z</time>
      </trkpt>
      <trkpt lat="47.00519" lon="-0.99376">
        <ele>108.8</ele>
        <time>2025-08-25T11:53:37Z</time>
      </trkpt>
      <trkpt lat="47.00518" lon="-0.99373">
        <ele>108.9</ele>
        <time>2025-08-25T11:53:38Z</time>
      </trkpt>
      <trkpt lat="47.00518" lon="-0.99371">
        <ele>108.9</ele>
        <time>2025-08-25T11:53:39Z</time>
      </trkpt>
      <trkpt lat="47.00518" lon="-0.9937">
        <ele>108.9</ele>
        <time>2025-08-25T11:53:40Z</time>
      </trkpt>
      <trkpt lat="47.00518" lon="-0.99368">
        <ele>109</ele>
        <time>2025-08-25T11:53:41Z</time>
      </trkpt>
      <trkpt lat="47.00517" lon="-0.99366">
        <ele>109</ele>
        <time>2025-08-25T11:53:42Z</time>
      </trkpt>
      <trkpt lat="47.00517" lon="-0.99364">
        <ele>109.1</ele>
        <time>2025-08-25T11:53:43Z</time>
      </trkpt>
      <trkpt lat="47.00517" lon="-0.99362">
        <ele>109.2</ele>
        <time>2025-08-25T11:53:44Z</time>
      </trkpt>
      <trkpt lat="47.00517" lon="-0.9936">
        <ele>109.2</ele>
        <time>2025-08-25T11:53:45Z</time>
      </trkpt>
      <trkpt lat="47.00516" lon="-0.99358">
        <ele>109.3</ele>
        <time>2025-08-25T11:53:46Z</time>
      </trkpt>
      <trkpt lat="47.00516" lon="-0.99356">
        <ele>109.3</ele>
        <time>2025-08-25T11:53:47Z</time>
      </trkpt>
      <trkpt lat="47.00516" lon="-0.99354">
        <ele>109.4</ele>
        <time>2025-08-25T11:53:48Z</time>
      </trkpt>
      <trkpt lat="47.00515" lon="-0.99351">
        <ele>109.5</ele>
        <time>2025-08-25T11:53:49Z</time>
      </trkpt>
      <trkpt lat="47.00515" lon="-0.9935">
        <ele>109.5</ele>
        <time>2025-08-25T11:53:50Z</time>
      </trkpt>
      <trkpt lat="47.00515" lon="-0.99349">
        <ele>109.5</ele>
        <time>2025-08-25T11:53:51Z</time>
      </trkpt>
      <trkpt lat="47.00514" lon="-0.99346">
        <ele>109.6</ele>
        <time>2025-08-25T11:53:52Z</time>
      </trkpt>
      <trkpt lat="47.00514" lon="-0.99344">
        <ele>109.7</ele>
        <time>2025-08-25T11:53:53Z</time>
      </trkpt>
      <trkpt lat="47.00514" lon="-0.99343">
        <ele>109.7</ele>
        <time>2025-08-25T11:53:54Z</time>
      </trkpt>
      <trkpt lat="47.00514" lon="-0.9934">
        <ele>109.8</ele>
        <time>2025-08-25T11:53:55Z</time>
      </trkpt>
      <trkpt lat="47.00514" lon="-0.99339">
        <ele>109.8</ele>
        <time>2025-08-25T11:53:56Z</time>
      </trkpt>
      <trkpt lat="47.00514" lon="-0.99337">
        <ele>109.9</ele>
        <time>2025-08-25T11:53:57Z</time>
      </trkpt>
      <trkpt lat="47.00514" lon="-0.99334">
        <ele>110</ele>
        <time>2025-08-25T11:53:58Z</time>
      </trkpt>
      <trkpt lat="47.00514" lon="-0.99333">
        <ele>110</ele>
        <time>2025-08-25T11:53:59Z</time>
      </trkpt>
      <trkpt lat="47.00514" lon="-0.99331">
        <ele>110</ele>
        <time>2025-08-25T11:54:00Z</time>
      </trkpt>
      <trkpt lat="47.00515" lon="-0.99328">
        <ele>110.1</ele>
        <time>2025-08-25T11:54:01Z</time>
      </trkpt>
      <trkpt lat="47.00515" lon="-0.99327">
        <ele>110.2</ele>
        <time>2025-08-25T11:54:02Z</time>
      </trkpt>
      <trkpt lat="47.00514" lon="-0.99325">
        <ele>110.2</ele>
        <time>2025-08-25T11:54:03Z</time>
      </trkpt>
      <trkpt lat="47.00514" lon="-0.99322">
        <ele>110.3</ele>
        <time>2025-08-25T11:54:04Z</time>
      </trkpt>
      <trkpt lat="47.00514" lon="-0.99321">
        <ele>110.3</ele>
        <time>2025-08-25T11:54:05Z</time>
      </trkpt>
      <trkpt lat="47.00514" lon="-0.9932">
        <ele>110.3</ele>
        <time>2025-08-25T11:54:06Z</time>
      </trkpt>
      <trkpt lat="47.00514" lon="-0.99318">
        <ele>110.4</ele>
        <time>2025-08-25T11:54:07Z</time>
      </trkpt>
      <trkpt lat="47.00514" lon="-0.99316">
        <ele>110.4</ele>
        <time>2025-08-25T11:54:08Z</time>
      </trkpt>
      <trkpt lat="47.00514" lon="-0.99315">
        <ele>110.5</ele>
        <time>2025-08-25T11:54:09Z</time>
      </trkpt>
      <trkpt lat="47.00514" lon="-0.99311">
        <ele>110.6</ele>
        <time>2025-08-25T11:54:10Z</time>
      </trkpt>
      <trkpt lat="47.00514" lon="-0.9931">
        <ele>110.6</ele>
        <time>2025-08-25T11:54:11Z</time>
      </trkpt>
      <trkpt lat="47.00514" lon="-0.99309">
        <ele>110.6</ele>
        <time>2025-08-25T11:54:12Z</time>
      </trkpt>
      <trkpt lat="47.00514" lon="-0.99306">
        <ele>110.7</ele>
        <time>2025-08-25T11:54:13Z</time>
      </trkpt>
      <trkpt lat="47.00514" lon="-0.99304">
        <ele>110.7</ele>
        <time>2025-08-25T11:54:14Z</time>
      </trkpt>
      <trkpt lat="47.00514" lon="-0.99303">
        <ele>110.7</ele>
        <time>2025-08-25T11:54:15Z</time>
      </trkpt>
      <trkpt lat="47.00514" lon="-0.99301">
        <ele>110.8</ele>
        <time>2025-08-25T11:54:16Z</time>
      </trkpt>
      <trkpt lat="47.00514" lon="-0.99299">
        <ele>110.8</ele>
        <time>2025-08-25T11:54:17Z</time>
      </trkpt>
      <trkpt lat="47.00514" lon="-0.99296">
        <ele>110.9</ele>
        <time>2025-08-25T11:54:18Z</time>
      </trkpt>
      <trkpt lat="47.00514" lon="-0.99295">
        <ele>110.9</ele>
        <time>2025-08-25T11:54:19Z</time>
      </trkpt>
      <trkpt lat="47.00514" lon="-0.99293">
        <ele>110.9</ele>
        <time>2025-08-25T11:54:20Z</time>
      </trkpt>
      <trkpt lat="47.00514" lon="-0.99292">
        <ele>111</ele>
        <time>2025-08-25T11:54:21Z</time>
      </trkpt>
      <trkpt lat="47.00514" lon="-0.9929">
        <ele>111</ele>
        <time>2025-08-25T11:54:22Z</time>
      </trkpt>
      <trkpt lat="47.00513" lon="-0.99289">
        <ele>111</ele>
        <time>2025-08-25T11:54:23Z</time>
      </trkpt>
      <trkpt lat="47.00513" lon="-0.99288">
        <ele>111</ele>
        <time>2025-08-25T11:54:24Z</time>
      </trkpt>
      <trkpt lat="47.00513" lon="-0.99287">
        <ele>111</ele>
        <time>2025-08-25T11:54:25Z</time>
      </trkpt>
      <trkpt lat="47.00514" lon="-0.99287">
        <ele>111.1</ele>
        <time>2025-08-25T11:54:26Z</time>
      </trkpt>
      <trkpt lat="47.00514" lon="-0.99287">
        <ele>111.1</ele>
        <time>2025-08-25T11:54:27Z</time>
      </trkpt>
      <trkpt lat="47.00514" lon="-0.99286">
        <ele>111.1</ele>
        <time>2025-08-25T11:54:28Z</time>
      </trkpt>
      <trkpt lat="47.00514" lon="-0.99285">
        <ele>111.1</ele>
        <time>2025-08-25T11:54:29Z</time>
      </trkpt>
      <trkpt lat="47.00514" lon="-0.99284">
        <ele>111.1</ele>
        <time>2025-08-25T11:54:30Z</time>
      </trkpt>
      <trkpt lat="47.00514" lon="-0.99283">
        <ele>111.1</ele>
        <time>2025-08-25T11:54:31Z</time>
      </trkpt>
      <trkpt lat="47.00514" lon="-0.99281">
        <ele>111.2</ele>
        <time>2025-08-25T11:54:32Z</time>
      </trkpt>
      <trkpt lat="47.00514" lon="-0.99279">
        <ele>111.2</ele>
        <time>2025-08-25T11:54:33Z</time>
      </trkpt>
      <trkpt lat="47.00514" lon="-0.99278">
        <ele>111.2</ele>
        <time>2025-08-25T11:54:34Z</time>
      </trkpt>
      <trkpt lat="47.00514" lon="-0.99277">
        <ele>111.2</ele>
        <time>2025-08-25T11:54:35Z</time>
      </trkpt>
      <trkpt lat="47.00514" lon="-0.99277">
        <ele>111.2</ele>
        <time>2025-08-25T11:54:36Z</time>
      </trkpt>
      <trkpt lat="47.00514" lon="-0.99276">
        <ele>111.2</ele>
        <time>2025-08-25T11:54:37Z</time>
      </trkpt>
      <trkpt lat="47.00514" lon="-0.99276">
        <ele>111.3</ele>
        <time>2025-08-25T11:54:38Z</time>
      </trkpt>
      <trkpt lat="47.00514" lon="-0.99275">
        <ele>111.3</ele>
        <time>2025-08-25T11:54:39Z</time>
      </trkpt>
      <trkpt lat="47.00514" lon="-0.99274">
        <ele>111.3</ele>
        <time>2025-08-25T11:54:40Z</time>
      </trkpt>
      <trkpt lat="47.00514" lon="-0.99272">
        <ele>111.3</ele>
        <time>2025-08-25T11:54:41Z</time>
      </trkpt>
      <trkpt lat="47.00514" lon="-0.99271">
        <ele>111.4</ele>
        <time>2025-08-25T11:54:42Z</time>
      </trkpt>
      <trkpt lat="47.00514" lon="-0.99269">
        <ele>111.4</ele>
        <time>2025-08-25T11:54:43Z</time>
      </trkpt>
      <trkpt lat="47.00514" lon="-0.99267">
        <ele>111.4</ele>
        <time>2025-08-25T11:54:44Z</time>
      </trkpt>
      <trkpt lat="47.00514" lon="-0.99266">
        <ele>111.4</ele>
        <time>2025-08-25T11:54:45Z</time>
      </trkpt>
      <trkpt lat="47.00514" lon="-0.99264">
        <ele>111.5</ele>
        <time>2025-08-25T11:54:46Z</time>
      </trkpt>
      <trkpt lat="47.00514" lon="-0.99262">
        <ele>111.5</ele>
        <time>2025-08-25T11:54:47Z</time>
      </trkpt>
      <trkpt lat="47.00514" lon="-0.9926">
        <ele>111.5</ele>
        <time>2025-08-25T11:54:48Z</time>
      </trkpt>
      <trkpt lat="47.00514" lon="-0.99259">
        <ele>111.6</ele>
        <time>2025-08-25T11:54:49Z</time>
      </trkpt>
      <trkpt lat="47.00515" lon="-0.99256">
        <ele>111.6</ele>
        <time>2025-08-25T11:54:50Z</time>
      </trkpt>
      <trkpt lat="47.00515" lon="-0.99255">
        <ele>111.6</ele>
        <time>2025-08-25T11:54:51Z</time>
      </trkpt>
      <trkpt lat="47.00515" lon="-0.99253">
        <ele>111.7</ele>
        <time>2025-08-25T11:54:52Z</time>
      </trkpt>
      <trkpt lat="47.00515" lon="-0.99252">
        <ele>111.7</ele>
        <time>2025-08-25T11:54:53Z</time>
      </trkpt>
      <trkpt lat="47.00514" lon="-0.9925">
        <ele>111.7</ele>
        <time>2025-08-25T11:54:54Z</time>
      </trkpt>
      <trkpt lat="47.00514" lon="-0.99249">
        <ele>111.7</ele>
        <time>2025-08-25T11:54:55Z</time>
      </trkpt>
      <trkpt lat="47.00514" lon="-0.99248">
        <ele>111.8</ele>
        <time>2025-08-25T11:54:56Z</time>
      </trkpt>
      <trkpt lat="47.00514" lon="-0.99247">
        <ele>111.8</ele>
        <time>2025-08-25T11:54:57Z</time>
      </trkpt>
      <trkpt lat="47.00514" lon="-0.99247">
        <ele>111.8</ele>
        <time>2025-08-25T11:54:58Z</time>
      </trkpt>
      <trkpt lat="47.00513" lon="-0.99248">
        <ele>111.8</ele>
        <time>2025-08-25T11:54:59Z</time>
      </trkpt>
      <trkpt lat="47.00513" lon="-0.99249">
        <ele>111.8</ele>
        <time>2025-08-25T11:55:00Z</time>
      </trkpt>
      <trkpt lat="47.00513" lon="-0.99249">
        <ele>111.8</ele>
        <time>2025-08-25T11:55:01Z</time>
      </trkpt>
      <trkpt lat="47.00514" lon="-0.99248">
        <ele>111.8</ele>
        <time>2025-08-25T11:55:02Z</time>
      </trkpt>
      <trkpt lat="47.00514" lon="-0.99248">
        <ele>111.8</ele>
        <time>2025-08-25T11:55:03Z</time>
      </trkpt>
      <trkpt lat="47.00514" lon="-0.99248">
        <ele>111.8</ele>
        <time>2025-08-25T11:55:04Z</time>
      </trkpt>
      <trkpt lat="47.00514" lon="-0.99248">
        <ele>111.8</ele>
        <time>2025-08-25T11:55:05Z</time>
      </trkpt>
      <trkpt lat="47.00514" lon="-0.99248">
        <ele>111.8</ele>
        <time>2025-08-25T11:55:06Z</time>
      </trkpt>
      <trkpt lat="47.00514" lon="-0.99248">
        <ele>111.8</ele>
        <time>2025-08-25T11:55:07Z</time>
      </trkpt>
      <trkpt lat="47.00514" lon="-0.99248">
        <ele>111.8</ele>
        <time>2025-08-25T11:55:08Z</time>
      </trkpt>
      <trkpt lat="47.00514" lon="-0.99248">
        <ele>111.8</ele>
        <time>2025-08-25T11:55:09Z</time>
      </trkpt>
      <trkpt lat="47.00514" lon="-0.99248">
        <ele>111.8</ele>
        <time>2025-08-25T11:55:10Z</time>
      </trkpt>
      <trkpt lat="47.00514" lon="-0.99248">
        <ele>111.8</ele>
        <time>2025-08-25T11:55:11Z</time>
      </trkpt>
      <trkpt lat="47.00514" lon="-0.99248">
        <ele>111.8</ele>
        <time>2025-08-25T11:55:12Z</time>
      </trkpt>
      <trkpt lat="47.00514" lon="-0.99248">
        <ele>111.8</ele>
        <time>2025-08-25T11:55:13Z</time>
      </trkpt>
      <trkpt lat="47.00514" lon="-0.99248">
        <ele>111.8</ele>
        <time>2025-08-25T11:55:14Z</time>
      </trkpt>
      <trkpt lat="47.00514" lon="-0.99248">
        <ele>111.8</ele>
        <time>2025-08-25T11:55:15Z</time>
      </trkpt>
      <trkpt lat="47.00513" lon="-0.99248">
        <ele>111.9</ele>
        <time>2025-08-25T11:55:16Z</time>
      </trkpt>
      <trkpt lat="47.00513" lon="-0.99248">
        <ele>111.9</ele>
        <time>2025-08-25T11:55:17Z</time>
      </trkpt>
      <trkpt lat="47.00513" lon="-0.99249">
        <ele>111.9</ele>
        <time>2025-08-25T11:55:18Z</time>
      </trkpt>
      <trkpt lat="47.00513" lon="-0.99249">
        <ele>111.9</ele>
        <time>2025-08-25T11:55:19Z</time>
      </trkpt>
      <trkpt lat="47.00514" lon="-0.99249">
        <ele>111.9</ele>
        <time>2025-08-25T11:55:20Z</time>
      </trkpt>
      <trkpt lat="47.00514" lon="-0.99249">
        <ele>111.9</ele>
        <time>2025-08-25T11:55:21Z</time>
      </trkpt>
      <trkpt lat="47.00514" lon="-0.99249">
        <ele>111.9</ele>
        <time>2025-08-25T11:55:22Z</time>
      </trkpt>
      <trkpt lat="47.00514" lon="-0.99249">
        <ele>111.9</ele>
        <time>2025-08-25T11:55:23Z</time>
      </trkpt>
      <trkpt lat="47.00513" lon="-0.99249">
        <ele>111.9</ele>
        <time>2025-08-25T11:55:24Z</time>
      </trkpt>
      <trkpt lat="47.00513" lon="-0.99249">
        <ele>111.9</ele>
        <time>2025-08-25T11:55:25Z</time>
      </trkpt>
      <trkpt lat="47.00513" lon="-0.99249">
        <ele>111.9</ele>
        <time>2025-08-25T11:55:26Z</time>
      </trkpt>
      <trkpt lat="47.00513" lon="-0.99249">
        <ele>111.9</ele>
        <time>2025-08-25T11:55:27Z</time>
      </trkpt>
      <trkpt lat="47.00513" lon="-0.99249">
        <ele>111.9</ele>
        <time>2025-08-25T11:55:28Z</time>
      </trkpt>
      <trkpt lat="47.00513" lon="-0.99249">
        <ele>111.9</ele>
        <time>2025-08-25T11:55:29Z</time>
      </trkpt>
      <trkpt lat="47.00513" lon="-0.99249">
        <ele>111.9</ele>
        <time>2025-08-25T11:55:30Z</time>
      </trkpt>
      <trkpt lat="47.00513" lon="-0.99248">
        <ele>111.9</ele>
        <time>2025-08-25T11:55:31Z</time>
      </trkpt>
      <trkpt lat="47.00513" lon="-0.99248">
        <ele>111.9</ele>
        <time>2025-08-25T11:55:32Z</time>
      </trkpt>
      <trkpt lat="47.00513" lon="-0.99249">
        <ele>111.9</ele>
        <time>2025-08-25T11:55:33Z</time>
      </trkpt>
      <trkpt lat="47.00513" lon="-0.99248">
        <ele>111.9</ele>
        <time>2025-08-25T11:55:34Z</time>
      </trkpt>
      <trkpt lat="47.00513" lon="-0.99248">
        <ele>111.9</ele>
        <time>2025-08-25T11:55:35Z</time>
      </trkpt>
      <trkpt lat="47.00513" lon="-0.99248">
        <ele>111.9</ele>
        <time>2025-08-25T11:55:36Z</time>
      </trkpt>
      <trkpt lat="47.00513" lon="-0.99248">
        <ele>111.9</ele>
        <time>2025-08-25T11:55:37Z</time>
      </trkpt>
      <trkpt lat="47.00513" lon="-0.99248">
        <ele>111.9</ele>
        <time>2025-08-25T11:55:38Z</time>
      </trkpt>
      <trkpt lat="47.00513" lon="-0.99248">
        <ele>111.9</ele>
        <time>2025-08-25T11:55:39Z</time>
      </trkpt>
      <trkpt lat="47.00513" lon="-0.99248">
        <ele>111.9</ele>
        <time>2025-08-25T11:55:40Z</time>
      </trkpt>
      <trkpt lat="47.00513" lon="-0.99248">
        <ele>111.9</ele>
        <time>2025-08-25T11:55:41Z</time>
      </trkpt>
      <trkpt lat="47.00513" lon="-0.99248">
        <ele>111.9</ele>
        <time>2025-08-25T11:55:42Z</time>
      </trkpt>
      <trkpt lat="47.00513" lon="-0.99248">
        <ele>111.9</ele>
        <time>2025-08-25T11:55:43Z</time>
      </trkpt>
      <trkpt lat="47.00513" lon="-0.99248">
        <ele>111.9</ele>
        <time>2025-08-25T11:55:44Z</time>
      </trkpt>
      <trkpt lat="47.00513" lon="-0.99248">
        <ele>111.9</ele>
        <time>2025-08-25T11:55:45Z</time>
      </trkpt>
      <trkpt lat="47.00513" lon="-0.99248">
        <ele>111.9</ele>
        <time>2025-08-25T11:55:46Z</time>
      </trkpt>
      <trkpt lat="47.00513" lon="-0.99248">
        <ele>111.9</ele>
        <time>2025-08-25T11:55:47Z</time>
      </trkpt>
      <trkpt lat="47.00513" lon="-0.99248">
        <ele>111.9</ele>
        <time>2025-08-25T11:55:48Z</time>
      </trkpt>
      <trkpt lat="47.00513" lon="-0.99248">
        <ele>111.9</ele>
        <time>2025-08-25T11:55:49Z</time>
      </trkpt>
      <trkpt lat="47.00513" lon="-0.99248">
        <ele>111.9</ele>
        <time>2025-08-25T11:55:50Z</time>
      </trkpt>
      <trkpt lat="47.00513" lon="-0.99248">
        <ele>111.9</ele>
        <time>2025-08-25T11:55:51Z</time>
      </trkpt>
      <trkpt lat="47.00513" lon="-0.99248">
        <ele>111.9</ele>
        <time>2025-08-25T11:55:52Z</time>
      </trkpt>
      <trkpt lat="47.00513" lon="-0.99248">
        <ele>111.9</ele>
        <time>2025-08-25T11:55:53Z</time>
      </trkpt>
      <trkpt lat="47.00513" lon="-0.99248">
        <ele>111.9</ele>
        <time>2025-08-25T11:55:54Z</time>
      </trkpt>
      <trkpt lat="47.00513" lon="-0.99248">
        <ele>111.9</ele>
        <time>2025-08-25T11:55:55Z</time>
      </trkpt>
      <trkpt lat="47.00513" lon="-0.99248">
        <ele>111.9</ele>
        <time>2025-08-25T11:55:56Z</time>
      </trkpt>
      <trkpt lat="47.00513" lon="-0.99248">
        <ele>111.9</ele>
        <time>2025-08-25T11:55:57Z</time>
      </trkpt>
      <trkpt lat="47.00513" lon="-0.99248">
        <ele>111.9</ele>
        <time>2025-08-25T11:55:58Z</time>
      </trkpt>
      <trkpt lat="47.00513" lon="-0.99248">
        <ele>111.9</ele>
        <time>2025-08-25T11:55:59Z</time>
      </trkpt>
      <trkpt lat="47.00513" lon="-0.99248">
        <ele>111.9</ele>
        <time>2025-08-25T11:56:00Z</time>
      </trkpt>
      <trkpt lat="47.00513" lon="-0.99248">
        <ele>111.9</ele>
        <time>2025-08-25T11:56:01Z</time>
      </trkpt>
      <trkpt lat="47.00513" lon="-0.99248">
        <ele>111.9</ele>
        <time>2025-08-25T11:56:02Z</time>
      </trkpt>
      <trkpt lat="47.00513" lon="-0.99248">
        <ele>111.9</ele>
        <time>2025-08-25T11:56:03Z</time>
      </trkpt>
      <trkpt lat="47.00513" lon="-0.99248">
        <ele>111.9</ele>
        <time>2025-08-25T11:56:04Z</time>
      </trkpt>
      <trkpt lat="47.00513" lon="-0.99248">
        <ele>111.9</ele>
        <time>2025-08-25T11:56:05Z</time>
      </trkpt>
      <trkpt lat="47.00513" lon="-0.99248">
        <ele>111.9</ele>
        <time>2025-08-25T11:56:06Z</time>
      </trkpt>
      <trkpt lat="47.00513" lon="-0.99248">
        <ele>111.9</ele>
        <time>2025-08-25T11:56:07Z</time>
      </trkpt>
      <trkpt lat="47.00513" lon="-0.99248">
        <ele>111.9</ele>
        <time>2025-08-25T11:56:08Z</time>
      </trkpt>
      <trkpt lat="47.00513" lon="-0.99248">
        <ele>111.9</ele>
        <time>2025-08-25T11:56:09Z</time>
      </trkpt>
      <trkpt lat="47.00513" lon="-0.99248">
        <ele>111.9</ele>
        <time>2025-08-25T11:56:10Z</time>
      </trkpt>
      <trkpt lat="47.00513" lon="-0.99248">
        <ele>111.9</ele>
        <time>2025-08-25T11:56:11Z</time>
      </trkpt>
      <trkpt lat="47.00513" lon="-0.99248">
        <ele>111.9</ele>
        <time>2025-08-25T11:56:12Z</time>
      </trkpt>
      <trkpt lat="47.00513" lon="-0.99248">
        <ele>111.9</ele>
        <time>2025-08-25T11:56:13Z</time>
      </trkpt>
      <trkpt lat="47.00513" lon="-0.99248">
        <ele>111.9</ele>
        <time>2025-08-25T11:56:14Z</time>
      </trkpt>
      <trkpt lat="47.00513" lon="-0.99248">
        <ele>111.9</ele>
        <time>2025-08-25T11:56:15Z</time>
      </trkpt>
      <trkpt lat="47.00513" lon="-0.99248">
        <ele>111.9</ele>
        <time>2025-08-25T11:56:16Z</time>
      </trkpt>
      <trkpt lat="47.00513" lon="-0.99248">
        <ele>111.9</ele>
        <time>2025-08-25T11:56:17Z</time>
      </trkpt>
      <trkpt lat="47.00513" lon="-0.99248">
        <ele>111.9</ele>
        <time>2025-08-25T11:56:18Z</time>
      </trkpt>
      <trkpt lat="47.00513" lon="-0.99248">
        <ele>111.9</ele>
        <time>2025-08-25T11:56:19Z</time>
      </trkpt>
      <trkpt lat="47.00513" lon="-0.99248">
        <ele>111.9</ele>
        <time>2025-08-25T11:56:20Z</time>
      </trkpt>
      <trkpt lat="47.00513" lon="-0.99248">
        <ele>111.9</ele>
        <time>2025-08-25T11:56:21Z</time>
      </trkpt>
      <trkpt lat="47.00513" lon="-0.99248">
        <ele>111.9</ele>
        <time>2025-08-25T11:56:22Z</time>
      </trkpt>
      <trkpt lat="47.00513" lon="-0.99248">
        <ele>112</ele>
        <time>2025-08-25T11:56:23Z</time>
      </trkpt>
      <trkpt lat="47.00513" lon="-0.99248">
        <ele>112</ele>
        <time>2025-08-25T11:56:24Z</time>
      </trkpt>
      <trkpt lat="47.00513" lon="-0.99248">
        <ele>112</ele>
        <time>2025-08-25T11:56:25Z</time>
      </trkpt>
      <trkpt lat="47.00513" lon="-0.99248">
        <ele>112</ele>
        <time>2025-08-25T11:56:26Z</time>
      </trkpt>
      <trkpt lat="47.00513" lon="-0.99248">
        <ele>112</ele>
        <time>2025-08-25T11:56:27Z</time>
      </trkpt>
      <trkpt lat="47.00513" lon="-0.99248">
        <ele>112</ele>
        <time>2025-08-25T11:56:28Z</time>
      </trkpt>
      <trkpt lat="47.00513" lon="-0.99248">
        <ele>112</ele>
        <time>2025-08-25T11:56:29Z</time>
      </trkpt>
      <trkpt lat="47.00513" lon="-0.99248">
        <ele>112</ele>
        <time>2025-08-25T11:56:30Z</time>
      </trkpt>
      <trkpt lat="47.00513" lon="-0.99248">
        <ele>112</ele>
        <time>2025-08-25T11:56:31Z</time>
      </trkpt>
      <trkpt lat="47.00513" lon="-0.99248">
        <ele>112</ele>
        <time>2025-08-25T11:56:32Z</time>
      </trkpt>
      <trkpt lat="47.00513" lon="-0.99249">
        <ele>112</ele>
        <time>2025-08-25T11:56:33Z</time>
      </trkpt>
      <trkpt lat="47.00513" lon="-0.99249">
        <ele>112</ele>
        <time>2025-08-25T11:56:34Z</time>
      </trkpt>
      <trkpt lat="47.00513" lon="-0.99248">
        <ele>112</ele>
        <time>2025-08-25T11:56:35Z</time>
      </trkpt>
      <trkpt lat="47.00513" lon="-0.99249">
        <ele>112</ele>
        <time>2025-08-25T11:56:36Z</time>
      </trkpt>
      <trkpt lat="47.00513" lon="-0.99249">
        <ele>112</ele>
        <time>2025-08-25T11:56:37Z</time>
      </trkpt>
      <trkpt lat="47.00513" lon="-0.99249">
        <ele>112</ele>
        <time>2025-08-25T11:56:38Z</time>
      </trkpt>
      <trkpt lat="47.00514" lon="-0.99249">
        <ele>112</ele>
        <time>2025-08-25T11:56:39Z</time>
      </trkpt>
      <trkpt lat="47.00514" lon="-0.99249">
        <ele>112</ele>
        <time>2025-08-25T11:56:40Z</time>
      </trkpt>
      <trkpt lat="47.00514" lon="-0.99249">
        <ele>112</ele>
        <time>2025-08-25T11:56:41Z</time>
      </trkpt>
      <trkpt lat="47.00514" lon="-0.99249">
        <ele>112</ele>
        <time>2025-08-25T11:56:42Z</time>
      </trkpt>
      <trkpt lat="47.00514" lon="-0.99249">
        <ele>112</ele>
        <time>2025-08-25T11:56:43Z</time>
      </trkpt>
      <trkpt lat="47.00514" lon="-0.99249">
        <ele>112</ele>
        <time>2025-08-25T11:56:44Z</time>
      </trkpt>
      <trkpt lat="47.00514" lon="-0.99249">
        <ele>112</ele>
        <time>2025-08-25T11:56:45Z</time>
      </trkpt>
      <trkpt lat="47.00514" lon="-0.99249">
        <ele>112</ele>
        <time>2025-08-25T11:56:46Z</time>
      </trkpt>
      <trkpt lat="47.00514" lon="-0.99249">
        <ele>112</ele>
        <time>2025-08-25T11:56:47Z</time>
      </trkpt>
      <trkpt lat="47.00514" lon="-0.99249">
        <ele>112</ele>
        <time>2025-08-25T11:56:48Z</time>
      </trkpt>
      <trkpt lat="47.00514" lon="-0.99249">
        <ele>112</ele>
        <time>2025-08-25T11:56:49Z</time>
      </trkpt>
      <trkpt lat="47.00514" lon="-0.99249">
        <ele>112</ele>
        <time>2025-08-25T11:56:50Z</time>
      </trkpt>
      <trkpt lat="47.00514" lon="-0.99249">
        <ele>112</ele>
        <time>2025-08-25T11:56:51Z</time>
      </trkpt>
      <trkpt lat="47.00514" lon="-0.99249">
        <ele>112</ele>
        <time>2025-08-25T11:56:52Z</time>
      </trkpt>
      <trkpt lat="47.00514" lon="-0.99249">
        <ele>112</ele>
        <time>2025-08-25T11:56:53Z</time>
      </trkpt>
      <trkpt lat="47.00514" lon="-0.99249">
        <ele>112</ele>
        <time>2025-08-25T11:56:54Z</time>
      </trkpt>
      <trkpt lat="47.00514" lon="-0.99249">
        <ele>112</ele>
        <time>2025-08-25T11:56:55Z</time>
      </trkpt>
      <trkpt lat="47.00514" lon="-0.99249">
        <ele>112</ele>
        <time>2025-08-25T11:56:56Z</time>
      </trkpt>
      <trkpt lat="47.00514" lon="-0.99249">
        <ele>112</ele>
        <time>2025-08-25T11:56:57Z</time>
      </trkpt>
      <trkpt lat="47.00514" lon="-0.99249">
        <ele>112</ele>
        <time>2025-08-25T11:56:58Z</time>
      </trkpt>
      <trkpt lat="47.00514" lon="-0.99249">
        <ele>112</ele>
        <time>2025-08-25T11:56:59Z</time>
      </trkpt>
      <trkpt lat="47.00514" lon="-0.99249">
        <ele>112</ele>
        <time>2025-08-25T11:57:00Z</time>
      </trkpt>
      <trkpt lat="47.00514" lon="-0.99249">
        <ele>112</ele>
        <time>2025-08-25T11:57:01Z</time>
      </trkpt>
      <trkpt lat="47.00514" lon="-0.99248">
        <ele>112</ele>
        <time>2025-08-25T11:57:02Z</time>
      </trkpt>
      <trkpt lat="47.00514" lon="-0.99248">
        <ele>112</ele>
        <time>2025-08-25T11:57:03Z</time>
      </trkpt>
      <trkpt lat="47.00514" lon="-0.99248">
        <ele>112</ele>
        <time>2025-08-25T11:57:04Z</time>
      </trkpt>
      <trkpt lat="47.00514" lon="-0.99248">
        <ele>112</ele>
        <time>2025-08-25T11:57:05Z</time>
      </trkpt>
      <trkpt lat="47.00514" lon="-0.99248">
        <ele>112</ele>
        <time>2025-08-25T11:57:06Z</time>
      </trkpt>
      <trkpt lat="47.00514" lon="-0.99248">
        <ele>112</ele>
        <time>2025-08-25T11:57:07Z</time>
      </trkpt>
      <trkpt lat="47.00514" lon="-0.99248">
        <ele>112</ele>
        <time>2025-08-25T11:57:08Z</time>
      </trkpt>
      <trkpt lat="47.00514" lon="-0.99248">
        <ele>112</ele>
        <time>2025-08-25T11:57:09Z</time>
      </trkpt>
      <trkpt lat="47.00514" lon="-0.99248">
        <ele>112</ele>
        <time>2025-08-25T11:57:10Z</time>
      </trkpt>
      <trkpt lat="47.00514" lon="-0.99248">
        <ele>112</ele>
        <time>2025-08-25T11:57:11Z</time>
      </trkpt>
      <trkpt lat="47.00514" lon="-0.99248">
        <ele>112</ele>
        <time>2025-08-25T11:57:12Z</time>
      </trkpt>
      <trkpt lat="47.00514" lon="-0.99248">
        <ele>112</ele>
        <time>2025-08-25T11:57:13Z</time>
      </trkpt>
      <trkpt lat="47.00514" lon="-0.99248">
        <ele>112</ele>
        <time>2025-08-25T11:57:14Z</time>
      </trkpt>
      <trkpt lat="47.00514" lon="-0.99248">
        <ele>112</ele>
        <time>2025-08-25T11:57:15Z</time>
      </trkpt>
      <trkpt lat="47.00514" lon="-0.99248">
        <ele>112</ele>
        <time>2025-08-25T11:57:16Z</time>
      </trkpt>
      <trkpt lat="47.00514" lon="-0.99248">
        <ele>112</ele>
        <time>2025-08-25T11:57:17Z</time>
      </trkpt>
      <trkpt lat="47.00514" lon="-0.99248">
        <ele>112</ele>
        <time>2025-08-25T11:57:18Z</time>
      </trkpt>
      <trkpt lat="47.00514" lon="-0.99248">
        <ele>112</ele>
        <time>2025-08-25T11:57:19Z</time>
      </trkpt>
      <trkpt lat="47.00514" lon="-0.99248">
        <ele>112</ele>
        <time>2025-08-25T11:57:20Z</time>
      </trkpt>
      <trkpt lat="47.00514" lon="-0.99248">
        <ele>112</ele>
        <time>2025-08-25T11:57:21Z</time>
      </trkpt>
      <trkpt lat="47.00514" lon="-0.99248">
        <ele>112</ele>
        <time>2025-08-25T11:57:22Z</time>
      </trkpt>
      <trkpt lat="47.00514" lon="-0.99248">
        <ele>112</ele>
        <time>2025-08-25T11:57:23Z</time>
      </trkpt>
      <trkpt lat="47.00514" lon="-0.99249">
        <ele>112</ele>
        <time>2025-08-25T11:57:24Z</time>
      </trkpt>
      <trkpt lat="47.00514" lon="-0.99249">
        <ele>112</ele>
        <time>2025-08-25T11:57:25Z</time>
      </trkpt>
      <trkpt lat="47.00514" lon="-0.99249">
        <ele>112</ele>
        <time>2025-08-25T11:57:26Z</time>
      </trkpt>
      <trkpt lat="47.00514" lon="-0.99249">
        <ele>112</ele>
        <time>2025-08-25T11:57:27Z</time>
      </trkpt>
      <trkpt lat="47.00514" lon="-0.99249">
        <ele>112</ele>
        <time>2025-08-25T11:57:28Z</time>
      </trkpt>
      <trkpt lat="47.00514" lon="-0.99249">
        <ele>112</ele>
        <time>2025-08-25T11:57:29Z</time>
      </trkpt>
      <trkpt lat="47.00514" lon="-0.99249">
        <ele>112</ele>
        <time>2025-08-25T11:57:30Z</time>
      </trkpt>
      <trkpt lat="47.00514" lon="-0.99249">
        <ele>112</ele>
        <time>2025-08-25T11:57:31Z</time>
      </trkpt>
      <trkpt lat="47.00514" lon="-0.99249">
        <ele>112</ele>
        <time>2025-08-25T11:57:32Z</time>
      </trkpt>
      <trkpt lat="47.00514" lon="-0.99248">
        <ele>112</ele>
        <time>2025-08-25T11:57:33Z</time>
      </trkpt>
      <trkpt lat="47.00514" lon="-0.99248">
        <ele>112</ele>
        <time>2025-08-25T11:57:34Z</time>
      </trkpt>
      <trkpt lat="47.00514" lon="-0.99247">
        <ele>112.1</ele>
        <time>2025-08-25T11:57:35Z</time>
      </trkpt>
      <trkpt lat="47.00514" lon="-0.99246">
        <ele>112.1</ele>
        <time>2025-08-25T11:57:36Z</time>
      </trkpt>
      <trkpt lat="47.00515" lon="-0.99245">
        <ele>112.1</ele>
        <time>2025-08-25T11:57:37Z</time>
      </trkpt>
      <trkpt lat="47.00514" lon="-0.99244">
        <ele>112.1</ele>
        <time>2025-08-25T11:57:38Z</time>
      </trkpt>
      <trkpt lat="47.00514" lon="-0.99242">
        <ele>112.1</ele>
        <time>2025-08-25T11:57:39Z</time>
      </trkpt>
      <trkpt lat="47.00514" lon="-0.99241">
        <ele>112.2</ele>
        <time>2025-08-25T11:57:40Z</time>
      </trkpt>
      <trkpt lat="47.00514" lon="-0.9924">
        <ele>112.2</ele>
        <time>2025-08-25T11:57:41Z</time>
      </trkpt>
      <trkpt lat="47.00514" lon="-0.99238">
        <ele>112.2</ele>
        <time>2025-08-25T11:57:42Z</time>
      </trkpt>
      <trkpt lat="47.00514" lon="-0.99237">
        <ele>112.2</ele>
        <time>2025-08-25T11:57:43Z</time>
      </trkpt>
      <trkpt lat="47.00514" lon="-0.99235">
        <ele>112.3</ele>
        <time>2025-08-25T11:57:44Z</time>
      </trkpt>
      <trkpt lat="47.00514" lon="-0.99234">
        <ele>112.3</ele>
        <time>2025-08-25T11:57:45Z</time>
      </trkpt>
      <trkpt lat="47.00514" lon="-0.99232">
        <ele>112.3</ele>
        <time>2025-08-25T11:57:46Z</time>
      </trkpt>
      <trkpt lat="47.00514" lon="-0.99231">
        <ele>112.4</ele>
        <time>2025-08-25T11:57:47Z</time>
      </trkpt>
      <trkpt lat="47.00513" lon="-0.9923">
        <ele>112.4</ele>
        <time>2025-08-25T11:57:48Z</time>
      </trkpt>
      <trkpt lat="47.00513" lon="-0.99228">
        <ele>112.4</ele>
        <time>2025-08-25T11:57:49Z</time>
      </trkpt>
      <trkpt lat="47.00513" lon="-0.99227">
        <ele>112.4</ele>
        <time>2025-08-25T11:57:50Z</time>
      </trkpt>
      <trkpt lat="47.00513" lon="-0.99225">
        <ele>112.5</ele>
        <time>2025-08-25T11:57:51Z</time>
      </trkpt>
      <trkpt lat="47.00513" lon="-0.99221">
        <ele>112.5</ele>
        <time>2025-08-25T11:57:52Z</time>
      </trkpt>
      <trkpt lat="47.00513" lon="-0.9922">
        <ele>112.6</ele>
        <time>2025-08-25T11:57:53Z</time>
      </trkpt>
      <trkpt lat="47.00513" lon="-0.99219">
        <ele>112.6</ele>
        <time>2025-08-25T11:57:54Z</time>
      </trkpt>
      <trkpt lat="47.00513" lon="-0.99217">
        <ele>112.6</ele>
        <time>2025-08-25T11:57:55Z</time>
      </trkpt>
      <trkpt lat="47.00513" lon="-0.99215">
        <ele>112.7</ele>
        <time>2025-08-25T11:57:56Z</time>
      </trkpt>
      <trkpt lat="47.00513" lon="-0.99214">
        <ele>112.7</ele>
        <time>2025-08-25T11:57:57Z</time>
      </trkpt>
      <trkpt lat="47.00513" lon="-0.99212">
        <ele>112.7</ele>
        <time>2025-08-25T11:57:58Z</time>
      </trkpt>
      <trkpt lat="47.00513" lon="-0.9921">
        <ele>112.7</ele>
        <time>2025-08-25T11:57:59Z</time>
      </trkpt>
      <trkpt lat="47.00513" lon="-0.99208">
        <ele>112.8</ele>
        <time>2025-08-25T11:58:00Z</time>
      </trkpt>
      <trkpt lat="47.00514" lon="-0.99206">
        <ele>112.8</ele>
        <time>2025-08-25T11:58:01Z</time>
      </trkpt>
      <trkpt lat="47.00514" lon="-0.99205">
        <ele>112.8</ele>
        <time>2025-08-25T11:58:02Z</time>
      </trkpt>
      <trkpt lat="47.00514" lon="-0.99203">
        <ele>112.9</ele>
        <time>2025-08-25T11:58:03Z</time>
      </trkpt>
      <trkpt lat="47.00514" lon="-0.99201">
        <ele>112.9</ele>
        <time>2025-08-25T11:58:04Z</time>
      </trkpt>
      <trkpt lat="47.00514" lon="-0.99198">
        <ele>112.9</ele>
        <time>2025-08-25T11:58:05Z</time>
      </trkpt>
      <trkpt lat="47.00514" lon="-0.99197">
        <ele>113</ele>
        <time>2025-08-25T11:58:06Z</time>
      </trkpt>
      <trkpt lat="47.00513" lon="-0.99196">
        <ele>113</ele>
        <time>2025-08-25T11:58:07Z</time>
      </trkpt>
      <trkpt lat="47.00513" lon="-0.99192">
        <ele>113</ele>
        <time>2025-08-25T11:58:08Z</time>
      </trkpt>
      <trkpt lat="47.00513" lon="-0.99191">
        <ele>113.1</ele>
        <time>2025-08-25T11:58:09Z</time>
      </trkpt>
      <trkpt lat="47.00513" lon="-0.9919">
        <ele>113.1</ele>
        <time>2025-08-25T11:58:10Z</time>
      </trkpt>
      <trkpt lat="47.00514" lon="-0.99187">
        <ele>113.1</ele>
        <time>2025-08-25T11:58:11Z</time>
      </trkpt>
      <trkpt lat="47.00514" lon="-0.99186">
        <ele>113.2</ele>
        <time>2025-08-25T11:58:12Z</time>
      </trkpt>
      <trkpt lat="47.00514" lon="-0.99185">
        <ele>113.2</ele>
        <time>2025-08-25T11:58:13Z</time>
      </trkpt>
      <trkpt lat="47.00515" lon="-0.99183">
        <ele>113.2</ele>
        <time>2025-08-25T11:58:14Z</time>
      </trkpt>
      <trkpt lat="47.00515" lon="-0.99181">
        <ele>113.2</ele>
        <time>2025-08-25T11:58:15Z</time>
      </trkpt>
      <trkpt lat="47.00515" lon="-0.9918">
        <ele>113.3</ele>
        <time>2025-08-25T11:58:16Z</time>
      </trkpt>
      <trkpt lat="47.00515" lon="-0.99178">
        <ele>113.3</ele>
        <time>2025-08-25T11:58:17Z</time>
      </trkpt>
      <trkpt lat="47.00515" lon="-0.99176">
        <ele>113.3</ele>
        <time>2025-08-25T11:58:18Z</time>
      </trkpt>
      <trkpt lat="47.00515" lon="-0.99173">
        <ele>113.4</ele>
        <time>2025-08-25T11:58:19Z</time>
      </trkpt>
      <trkpt lat="47.00515" lon="-0.99171">
        <ele>113.4</ele>
        <time>2025-08-25T11:58:20Z</time>
      </trkpt>
      <trkpt lat="47.00514" lon="-0.99169">
        <ele>113.5</ele>
        <time>2025-08-25T11:58:21Z</time>
      </trkpt>
      <trkpt lat="47.00514" lon="-0.99167">
        <ele>113.5</ele>
        <time>2025-08-25T11:58:22Z</time>
      </trkpt>
      <trkpt lat="47.00514" lon="-0.99164">
        <ele>113.5</ele>
        <time>2025-08-25T11:58:23Z</time>
      </trkpt>
      <trkpt lat="47.00514" lon="-0.99163">
        <ele>113.6</ele>
        <time>2025-08-25T11:58:24Z</time>
      </trkpt>
      <trkpt lat="47.00514" lon="-0.99161">
        <ele>113.6</ele>
        <time>2025-08-25T11:58:25Z</time>
      </trkpt>
      <trkpt lat="47.00514" lon="-0.99159">
        <ele>113.6</ele>
        <time>2025-08-25T11:58:26Z</time>
      </trkpt>
      <trkpt lat="47.00514" lon="-0.99157">
        <ele>113.6</ele>
        <time>2025-08-25T11:58:27Z</time>
      </trkpt>
      <trkpt lat="47.00514" lon="-0.99155">
        <ele>113.7</ele>
        <time>2025-08-25T11:58:28Z</time>
      </trkpt>
      <trkpt lat="47.00514" lon="-0.99153">
        <ele>113.7</ele>
        <time>2025-08-25T11:58:29Z</time>
      </trkpt>
      <trkpt lat="47.00513" lon="-0.99151">
        <ele>113.7</ele>
        <time>2025-08-25T11:58:30Z</time>
      </trkpt>
      <trkpt lat="47.00513" lon="-0.99149">
        <ele>113.8</ele>
        <time>2025-08-25T11:58:31Z</time>
      </trkpt>
      <trkpt lat="47.00513" lon="-0.99146">
        <ele>113.8</ele>
        <time>2025-08-25T11:58:32Z</time>
      </trkpt>
      <trkpt lat="47.00513" lon="-0.99145">
        <ele>113.8</ele>
        <time>2025-08-25T11:58:33Z</time>
      </trkpt>
      <trkpt lat="47.00513" lon="-0.99143">
        <ele>113.9</ele>
        <time>2025-08-25T11:58:34Z</time>
      </trkpt>
      <trkpt lat="47.00513" lon="-0.99141">
        <ele>113.9</ele>
        <time>2025-08-25T11:58:35Z</time>
      </trkpt>
      <trkpt lat="47.00513" lon="-0.99139">
        <ele>113.9</ele>
        <time>2025-08-25T11:58:36Z</time>
      </trkpt>
      <trkpt lat="47.00513" lon="-0.99136">
        <ele>114</ele>
        <time>2025-08-25T11:58:37Z</time>
      </trkpt>
      <trkpt lat="47.00513" lon="-0.99135">
        <ele>114</ele>
        <time>2025-08-25T11:58:38Z</time>
      </trkpt>
      <trkpt lat="47.00512" lon="-0.99134">
        <ele>114</ele>
        <time>2025-08-25T11:58:39Z</time>
      </trkpt>
      <trkpt lat="47.00512" lon="-0.99131">
        <ele>114.1</ele>
        <time>2025-08-25T11:58:40Z</time>
      </trkpt>
      <trkpt lat="47.00512" lon="-0.99129">
        <ele>114.1</ele>
        <time>2025-08-25T11:58:41Z</time>
      </trkpt>
      <trkpt lat="47.00512" lon="-0.99127">
        <ele>114.1</ele>
        <time>2025-08-25T11:58:42Z</time>
      </trkpt>
      <trkpt lat="47.00513" lon="-0.99126">
        <ele>114.1</ele>
        <time>2025-08-25T11:58:43Z</time>
      </trkpt>
      <trkpt lat="47.00513" lon="-0.99124">
        <ele>114.2</ele>
        <time>2025-08-25T11:58:44Z</time>
      </trkpt>
      <trkpt lat="47.00513" lon="-0.99123">
        <ele>114.2</ele>
        <time>2025-08-25T11:58:45Z</time>
      </trkpt>
      <trkpt lat="47.00514" lon="-0.9912">
        <ele>114.2</ele>
        <time>2025-08-25T11:58:46Z</time>
      </trkpt>
      <trkpt lat="47.00514" lon="-0.99118">
        <ele>114.3</ele>
        <time>2025-08-25T11:58:47Z</time>
      </trkpt>
      <trkpt lat="47.00514" lon="-0.99116">
        <ele>114.3</ele>
        <time>2025-08-25T11:58:48Z</time>
      </trkpt>
      <trkpt lat="47.00515" lon="-0.99115">
        <ele>114.3</ele>
        <time>2025-08-25T11:58:49Z</time>
      </trkpt>
      <trkpt lat="47.00515" lon="-0.99113">
        <ele>114.3</ele>
        <time>2025-08-25T11:58:50Z</time>
      </trkpt>
      <trkpt lat="47.00515" lon="-0.99111">
        <ele>114.4</ele>
        <time>2025-08-25T11:58:51Z</time>
      </trkpt>
      <trkpt lat="47.00514" lon="-0.99109">
        <ele>114.4</ele>
        <time>2025-08-25T11:58:52Z</time>
      </trkpt>
      <trkpt lat="47.00514" lon="-0.99106">
        <ele>114.5</ele>
        <time>2025-08-25T11:58:53Z</time>
      </trkpt>
      <trkpt lat="47.00515" lon="-0.99105">
        <ele>114.5</ele>
        <time>2025-08-25T11:58:54Z</time>
      </trkpt>
      <trkpt lat="47.00515" lon="-0.99103">
        <ele>114.5</ele>
        <time>2025-08-25T11:58:55Z</time>
      </trkpt>
      <trkpt lat="47.00515" lon="-0.99101">
        <ele>114.5</ele>
        <time>2025-08-25T11:58:56Z</time>
      </trkpt>
      <trkpt lat="47.00515" lon="-0.99099">
        <ele>114.5</ele>
        <time>2025-08-25T11:58:57Z</time>
      </trkpt>
      <trkpt lat="47.00516" lon="-0.99097">
        <ele>114.6</ele>
        <time>2025-08-25T11:58:58Z</time>
      </trkpt>
      <trkpt lat="47.00516" lon="-0.99095">
        <ele>114.6</ele>
        <time>2025-08-25T11:58:59Z</time>
      </trkpt>
      <trkpt lat="47.00516" lon="-0.99094">
        <ele>114.6</ele>
        <time>2025-08-25T11:59:00Z</time>
      </trkpt>
      <trkpt lat="47.00517" lon="-0.99094">
        <ele>114.6</ele>
        <time>2025-08-25T11:59:01Z</time>
      </trkpt>
      <trkpt lat="47.00517" lon="-0.99095">
        <ele>114.6</ele>
        <time>2025-08-25T11:59:02Z</time>
      </trkpt>
      <trkpt lat="47.00517" lon="-0.99092">
        <ele>114.7</ele>
        <time>2025-08-25T11:59:03Z</time>
      </trkpt>
      <trkpt lat="47.00518" lon="-0.99089">
        <ele>114.7</ele>
        <time>2025-08-25T11:59:04Z</time>
      </trkpt>
      <trkpt lat="47.00518" lon="-0.99087">
        <ele>114.7</ele>
        <time>2025-08-25T11:59:05Z</time>
      </trkpt>
      <trkpt lat="47.00519" lon="-0.99083">
        <ele>114.7</ele>
        <time>2025-08-25T11:59:06Z</time>
      </trkpt>
      <trkpt lat="47.00519" lon="-0.99081">
        <ele>114.7</ele>
        <time>2025-08-25T11:59:07Z</time>
      </trkpt>
      <trkpt lat="47.00519" lon="-0.9908">
        <ele>114.7</ele>
        <time>2025-08-25T11:59:08Z</time>
      </trkpt>
      <trkpt lat="47.0052" lon="-0.99078">
        <ele>114.8</ele>
        <time>2025-08-25T11:59:09Z</time>
      </trkpt>
      <trkpt lat="47.0052" lon="-0.99076">
        <ele>114.8</ele>
        <time>2025-08-25T11:59:10Z</time>
      </trkpt>
      <trkpt lat="47.00521" lon="-0.99075">
        <ele>114.8</ele>
        <time>2025-08-25T11:59:11Z</time>
      </trkpt>
      <trkpt lat="47.00521" lon="-0.99073">
        <ele>114.8</ele>
        <time>2025-08-25T11:59:12Z</time>
      </trkpt>
      <trkpt lat="47.00522" lon="-0.99071">
        <ele>114.8</ele>
        <time>2025-08-25T11:59:13Z</time>
      </trkpt>
      <trkpt lat="47.00523" lon="-0.99069">
        <ele>114.8</ele>
        <time>2025-08-25T11:59:14Z</time>
      </trkpt>
      <trkpt lat="47.00524" lon="-0.99066">
        <ele>114.8</ele>
        <time>2025-08-25T11:59:15Z</time>
      </trkpt>
      <trkpt lat="47.00525" lon="-0.99064">
        <ele>114.8</ele>
        <time>2025-08-25T11:59:16Z</time>
      </trkpt>
      <trkpt lat="47.00525" lon="-0.99063">
        <ele>114.8</ele>
        <time>2025-08-25T11:59:17Z</time>
      </trkpt>
      <trkpt lat="47.00526" lon="-0.99061">
        <ele>114.8</ele>
        <time>2025-08-25T11:59:18Z</time>
      </trkpt>
      <trkpt lat="47.00528" lon="-0.99059">
        <ele>114.9</ele>
        <time>2025-08-25T11:59:19Z</time>
      </trkpt>
      <trkpt lat="47.00529" lon="-0.99059">
        <ele>114.9</ele>
        <time>2025-08-25T11:59:20Z</time>
      </trkpt>
      <trkpt lat="47.0053" lon="-0.99058">
        <ele>114.9</ele>
        <time>2025-08-25T11:59:21Z</time>
      </trkpt>
      <trkpt lat="47.0053" lon="-0.99055">
        <ele>114.9</ele>
        <time>2025-08-25T11:59:22Z</time>
      </trkpt>
      <trkpt lat="47.0053" lon="-0.99053">
        <ele>114.9</ele>
        <time>2025-08-25T11:59:23Z</time>
      </trkpt>
      <trkpt lat="47.00531" lon="-0.99052">
        <ele>114.9</ele>
        <time>2025-08-25T11:59:24Z</time>
      </trkpt>
      <trkpt lat="47.00533" lon="-0.9905">
        <ele>114.9</ele>
        <time>2025-08-25T11:59:25Z</time>
      </trkpt>
      <trkpt lat="47.00534" lon="-0.99049">
        <ele>114.9</ele>
        <time>2025-08-25T11:59:26Z</time>
      </trkpt>
      <trkpt lat="47.00535" lon="-0.99048">
        <ele>114.8</ele>
        <time>2025-08-25T11:59:27Z</time>
      </trkpt>
      <trkpt lat="47.00536" lon="-0.99046">
        <ele>114.8</ele>
        <time>2025-08-25T11:59:28Z</time>
      </trkpt>
      <trkpt lat="47.00537" lon="-0.99045">
        <ele>114.8</ele>
        <time>2025-08-25T11:59:29Z</time>
      </trkpt>
      <trkpt lat="47.00539" lon="-0.99043">
        <ele>114.8</ele>
        <time>2025-08-25T11:59:30Z</time>
      </trkpt>
      <trkpt lat="47.0054" lon="-0.99043">
        <ele>114.8</ele>
        <time>2025-08-25T11:59:31Z</time>
      </trkpt>
      <trkpt lat="47.00541" lon="-0.99042">
        <ele>114.8</ele>
        <time>2025-08-25T11:59:32Z</time>
      </trkpt>
      <trkpt lat="47.00542" lon="-0.9904">
        <ele>114.8</ele>
        <time>2025-08-25T11:59:33Z</time>
      </trkpt>
      <trkpt lat="47.00543" lon="-0.99039">
        <ele>114.8</ele>
        <time>2025-08-25T11:59:34Z</time>
      </trkpt>
      <trkpt lat="47.00544" lon="-0.99039">
        <ele>114.8</ele>
        <time>2025-08-25T11:59:35Z</time>
      </trkpt>
      <trkpt lat="47.00545" lon="-0.99037">
        <ele>114.7</ele>
        <time>2025-08-25T11:59:36Z</time>
      </trkpt>
      <trkpt lat="47.00546" lon="-0.99036">
        <ele>114.7</ele>
        <time>2025-08-25T11:59:37Z</time>
      </trkpt>
      <trkpt lat="47.00547" lon="-0.99035">
        <ele>114.7</ele>
        <time>2025-08-25T11:59:38Z</time>
      </trkpt>
      <trkpt lat="47.00548" lon="-0.99034">
        <ele>114.7</ele>
        <time>2025-08-25T11:59:39Z</time>
      </trkpt>
      <trkpt lat="47.00549" lon="-0.99032">
        <ele>114.7</ele>
        <time>2025-08-25T11:59:40Z</time>
      </trkpt>
      <trkpt lat="47.0055" lon="-0.99031">
        <ele>114.6</ele>
        <time>2025-08-25T11:59:41Z</time>
      </trkpt>
      <trkpt lat="47.00552" lon="-0.99029">
        <ele>114.6</ele>
        <time>2025-08-25T11:59:42Z</time>
      </trkpt>
      <trkpt lat="47.00553" lon="-0.99028">
        <ele>114.6</ele>
        <time>2025-08-25T11:59:43Z</time>
      </trkpt>
      <trkpt lat="47.00553" lon="-0.99027">
        <ele>114.6</ele>
        <time>2025-08-25T11:59:44Z</time>
      </trkpt>
      <trkpt lat="47.00554" lon="-0.99025">
        <ele>114.5</ele>
        <time>2025-08-25T11:59:45Z</time>
      </trkpt>
      <trkpt lat="47.00556" lon="-0.99023">
        <ele>114.5</ele>
        <time>2025-08-25T11:59:46Z</time>
      </trkpt>
      <trkpt lat="47.00557" lon="-0.9902">
        <ele>114.4</ele>
        <time>2025-08-25T11:59:47Z</time>
      </trkpt>
      <trkpt lat="47.00558" lon="-0.99019">
        <ele>114.4</ele>
        <time>2025-08-25T11:59:48Z</time>
      </trkpt>
      <trkpt lat="47.00558" lon="-0.99018">
        <ele>114.4</ele>
        <time>2025-08-25T11:59:49Z</time>
      </trkpt>
      <trkpt lat="47.00559" lon="-0.99016">
        <ele>114.3</ele>
        <time>2025-08-25T11:59:50Z</time>
      </trkpt>
      <trkpt lat="47.0056" lon="-0.99014">
        <ele>114.3</ele>
        <time>2025-08-25T11:59:51Z</time>
      </trkpt>
      <trkpt lat="47.0056" lon="-0.99012">
        <ele>114.2</ele>
        <time>2025-08-25T11:59:52Z</time>
      </trkpt>
      <trkpt lat="47.0056" lon="-0.9901">
        <ele>114.2</ele>
        <time>2025-08-25T11:59:53Z</time>
      </trkpt>
      <trkpt lat="47.00561" lon="-0.99008">
        <ele>114.2</ele>
        <time>2025-08-25T11:59:54Z</time>
      </trkpt>
      <trkpt lat="47.00561" lon="-0.99005">
        <ele>114.1</ele>
        <time>2025-08-25T11:59:55Z</time>
      </trkpt>
      <trkpt lat="47.00562" lon="-0.99004">
        <ele>114.1</ele>
        <time>2025-08-25T11:59:56Z</time>
      </trkpt>
      <trkpt lat="47.00562" lon="-0.99003">
        <ele>114</ele>
        <time>2025-08-25T11:59:57Z</time>
      </trkpt>
      <trkpt lat="47.00562" lon="-0.99001">
        <ele>114</ele>
        <time>2025-08-25T11:59:58Z</time>
      </trkpt>
      <trkpt lat="47.00563" lon="-0.98999">
        <ele>114</ele>
        <time>2025-08-25T11:59:59Z</time>
      </trkpt>
      <trkpt lat="47.00563" lon="-0.98997">
        <ele>113.9</ele>
        <time>2025-08-25T12:00:00Z</time>
      </trkpt>
      <trkpt lat="47.00563" lon="-0.98995">
        <ele>113.9</ele>
        <time>2025-08-25T12:00:01Z</time>
      </trkpt>
      <trkpt lat="47.00564" lon="-0.98992">
        <ele>113.8</ele>
        <time>2025-08-25T12:00:02Z</time>
      </trkpt>
      <trkpt lat="47.00564" lon="-0.9899">
        <ele>113.8</ele>
        <time>2025-08-25T12:00:03Z</time>
      </trkpt>
      <trkpt lat="47.00564" lon="-0.98989">
        <ele>113.7</ele>
        <time>2025-08-25T12:00:04Z</time>
      </trkpt>
      <trkpt lat="47.00564" lon="-0.98987">
        <ele>113.7</ele>
        <time>2025-08-25T12:00:05Z</time>
      </trkpt>
      <trkpt lat="47.00564" lon="-0.98984">
        <ele>113.6</ele>
        <time>2025-08-25T12:00:06Z</time>
      </trkpt>
      <trkpt lat="47.00565" lon="-0.98982">
        <ele>113.6</ele>
        <time>2025-08-25T12:00:07Z</time>
      </trkpt>
      <trkpt lat="47.00565" lon="-0.9898">
        <ele>113.5</ele>
        <time>2025-08-25T12:00:08Z</time>
      </trkpt>
      <trkpt lat="47.00565" lon="-0.98978">
        <ele>113.4</ele>
        <time>2025-08-25T12:00:09Z</time>
      </trkpt>
      <trkpt lat="47.00565" lon="-0.98976">
        <ele>113.4</ele>
        <time>2025-08-25T12:00:10Z</time>
      </trkpt>
      <trkpt lat="47.00566" lon="-0.98974">
        <ele>113.3</ele>
        <time>2025-08-25T12:00:11Z</time>
      </trkpt>
      <trkpt lat="47.00566" lon="-0.98972">
        <ele>113.3</ele>
        <time>2025-08-25T12:00:12Z</time>
      </trkpt>
      <trkpt lat="47.00566" lon="-0.98969">
        <ele>113.2</ele>
        <time>2025-08-25T12:00:13Z</time>
      </trkpt>
      <trkpt lat="47.00566" lon="-0.98968">
        <ele>113.2</ele>
        <time>2025-08-25T12:00:14Z</time>
      </trkpt>
      <trkpt lat="47.00566" lon="-0.98967">
        <ele>113.1</ele>
        <time>2025-08-25T12:00:15Z</time>
      </trkpt>
      <trkpt lat="47.00567" lon="-0.98964">
        <ele>113</ele>
        <time>2025-08-25T12:00:16Z</time>
      </trkpt>
      <trkpt lat="47.00567" lon="-0.98963">
        <ele>113</ele>
        <time>2025-08-25T12:00:17Z</time>
      </trkpt>
      <trkpt lat="47.00567" lon="-0.98961">
        <ele>112.9</ele>
        <time>2025-08-25T12:00:18Z</time>
      </trkpt>
      <trkpt lat="47.00567" lon="-0.98959">
        <ele>112.9</ele>
        <time>2025-08-25T12:00:19Z</time>
      </trkpt>
      <trkpt lat="47.00567" lon="-0.98957">
        <ele>112.8</ele>
        <time>2025-08-25T12:00:20Z</time>
      </trkpt>
      <trkpt lat="47.00567" lon="-0.98955">
        <ele>112.8</ele>
        <time>2025-08-25T12:00:21Z</time>
      </trkpt>
      <trkpt lat="47.00567" lon="-0.98953">
        <ele>112.7</ele>
        <time>2025-08-25T12:00:22Z</time>
      </trkpt>
      <trkpt lat="47.00566" lon="-0.98951">
        <ele>112.7</ele>
        <time>2025-08-25T12:00:23Z</time>
      </trkpt>
      <trkpt lat="47.00566" lon="-0.98949">
        <ele>112.6</ele>
        <time>2025-08-25T12:00:24Z</time>
      </trkpt>
      <trkpt lat="47.00566" lon="-0.98947">
        <ele>112.5</ele>
        <time>2025-08-25T12:00:25Z</time>
      </trkpt>
      <trkpt lat="47.00566" lon="-0.98945">
        <ele>112.5</ele>
        <time>2025-08-25T12:00:26Z</time>
      </trkpt>
      <trkpt lat="47.00566" lon="-0.98943">
        <ele>112.4</ele>
        <time>2025-08-25T12:00:27Z</time>
      </trkpt>
      <trkpt lat="47.00566" lon="-0.9894">
        <ele>112.4</ele>
        <time>2025-08-25T12:00:28Z</time>
      </trkpt>
      <trkpt lat="47.00566" lon="-0.98938">
        <ele>112.3</ele>
        <time>2025-08-25T12:00:29Z</time>
      </trkpt>
      <trkpt lat="47.00566" lon="-0.98936">
        <ele>112.3</ele>
        <time>2025-08-25T12:00:30Z</time>
      </trkpt>
      <trkpt lat="47.00566" lon="-0.98934">
        <ele>112.2</ele>
        <time>2025-08-25T12:00:31Z</time>
      </trkpt>
      <trkpt lat="47.00566" lon="-0.98932">
        <ele>112.1</ele>
        <time>2025-08-25T12:00:32Z</time>
      </trkpt>
      <trkpt lat="47.00566" lon="-0.9893">
        <ele>112.1</ele>
        <time>2025-08-25T12:00:33Z</time>
      </trkpt>
      <trkpt lat="47.00566" lon="-0.98928">
        <ele>112</ele>
        <time>2025-08-25T12:00:34Z</time>
      </trkpt>
      <trkpt lat="47.00566" lon="-0.98925">
        <ele>111.9</ele>
        <time>2025-08-25T12:00:35Z</time>
      </trkpt>
      <trkpt lat="47.00566" lon="-0.98923">
        <ele>111.9</ele>
        <time>2025-08-25T12:00:36Z</time>
      </trkpt>
      <trkpt lat="47.00566" lon="-0.98919">
        <ele>111.8</ele>
        <time>2025-08-25T12:00:37Z</time>
      </trkpt>
      <trkpt lat="47.00566" lon="-0.98916">
        <ele>111.7</ele>
        <time>2025-08-25T12:00:38Z</time>
      </trkpt>
      <trkpt lat="47.00566" lon="-0.98915">
        <ele>111.7</ele>
        <time>2025-08-25T12:00:39Z</time>
      </trkpt>
      <trkpt lat="47.00566" lon="-0.98913">
        <ele>111.6</ele>
        <time>2025-08-25T12:00:40Z</time>
      </trkpt>
      <trkpt lat="47.00566" lon="-0.98911">
        <ele>111.5</ele>
        <time>2025-08-25T12:00:41Z</time>
      </trkpt>
      <trkpt lat="47.00565" lon="-0.98908">
        <ele>111.5</ele>
        <time>2025-08-25T12:00:42Z</time>
      </trkpt>
      <trkpt lat="47.00565" lon="-0.98906">
        <ele>111.4</ele>
        <time>2025-08-25T12:00:43Z</time>
      </trkpt>
      <trkpt lat="47.00565" lon="-0.98905">
        <ele>111.4</ele>
        <time>2025-08-25T12:00:44Z</time>
      </trkpt>
      <trkpt lat="47.00565" lon="-0.98902">
        <ele>111.3</ele>
        <time>2025-08-25T12:00:45Z</time>
      </trkpt>
      <trkpt lat="47.00565" lon="-0.98901">
        <ele>111.3</ele>
        <time>2025-08-25T12:00:46Z</time>
      </trkpt>
      <trkpt lat="47.00565" lon="-0.98899">
        <ele>111.2</ele>
        <time>2025-08-25T12:00:47Z</time>
      </trkpt>
      <trkpt lat="47.00564" lon="-0.98898">
        <ele>111.2</ele>
        <time>2025-08-25T12:00:48Z</time>
      </trkpt>
      <trkpt lat="47.00564" lon="-0.98896">
        <ele>111.1</ele>
        <time>2025-08-25T12:00:49Z</time>
      </trkpt>
      <trkpt lat="47.00564" lon="-0.98895">
        <ele>111.1</ele>
        <time>2025-08-25T12:00:50Z</time>
      </trkpt>
      <trkpt lat="47.00563" lon="-0.98891">
        <ele>111</ele>
        <time>2025-08-25T12:00:51Z</time>
      </trkpt>
      <trkpt lat="47.00563" lon="-0.9889">
        <ele>110.9</ele>
        <time>2025-08-25T12:00:52Z</time>
      </trkpt>
      <trkpt lat="47.00563" lon="-0.98889">
        <ele>110.9</ele>
        <time>2025-08-25T12:00:53Z</time>
      </trkpt>
      <trkpt lat="47.00563" lon="-0.98886">
        <ele>110.8</ele>
        <time>2025-08-25T12:00:54Z</time>
      </trkpt>
      <trkpt lat="47.00563" lon="-0.98884">
        <ele>110.8</ele>
        <time>2025-08-25T12:00:55Z</time>
      </trkpt>
      <trkpt lat="47.00563" lon="-0.98882">
        <ele>110.7</ele>
        <time>2025-08-25T12:00:56Z</time>
      </trkpt>
      <trkpt lat="47.00563" lon="-0.9888">
        <ele>110.6</ele>
        <time>2025-08-25T12:00:57Z</time>
      </trkpt>
      <trkpt lat="47.00562" lon="-0.98878">
        <ele>110.6</ele>
        <time>2025-08-25T12:00:58Z</time>
      </trkpt>
      <trkpt lat="47.00562" lon="-0.98876">
        <ele>110.5</ele>
        <time>2025-08-25T12:00:59Z</time>
      </trkpt>
      <trkpt lat="47.00561" lon="-0.98874">
        <ele>110.5</ele>
        <time>2025-08-25T12:01:00Z</time>
      </trkpt>
      <trkpt lat="47.00561" lon="-0.98872">
        <ele>110.4</ele>
        <time>2025-08-25T12:01:01Z</time>
      </trkpt>
      <trkpt lat="47.0056" lon="-0.9887">
        <ele>110.3</ele>
        <time>2025-08-25T12:01:02Z</time>
      </trkpt>
      <trkpt lat="47.0056" lon="-0.98868">
        <ele>110.3</ele>
        <time>2025-08-25T12:01:03Z</time>
      </trkpt>
      <trkpt lat="47.00559" lon="-0.98866">
        <ele>110.2</ele>
        <time>2025-08-25T12:01:04Z</time>
      </trkpt>
      <trkpt lat="47.00559" lon="-0.98864">
        <ele>110.2</ele>
        <time>2025-08-25T12:01:05Z</time>
      </trkpt>
      <trkpt lat="47.00558" lon="-0.9886">
        <ele>110</ele>
        <time>2025-08-25T12:01:06Z</time>
      </trkpt>
      <trkpt lat="47.00557" lon="-0.98857">
        <ele>110</ele>
        <time>2025-08-25T12:01:07Z</time>
      </trkpt>
      <trkpt lat="47.00557" lon="-0.98856">
        <ele>109.9</ele>
        <time>2025-08-25T12:01:08Z</time>
      </trkpt>
      <trkpt lat="47.00557" lon="-0.98855">
        <ele>109.9</ele>
        <time>2025-08-25T12:01:09Z</time>
      </trkpt>
      <trkpt lat="47.00557" lon="-0.98853">
        <ele>109.8</ele>
        <time>2025-08-25T12:01:10Z</time>
      </trkpt>
      <trkpt lat="47.00557" lon="-0.98851">
        <ele>109.8</ele>
        <time>2025-08-25T12:01:11Z</time>
      </trkpt>
      <trkpt lat="47.00557" lon="-0.9885">
        <ele>109.7</ele>
        <time>2025-08-25T12:01:12Z</time>
      </trkpt>
      <trkpt lat="47.00556" lon="-0.98847">
        <ele>109.7</ele>
        <time>2025-08-25T12:01:13Z</time>
      </trkpt>
      <trkpt lat="47.00556" lon="-0.98845">
        <ele>109.6</ele>
        <time>2025-08-25T12:01:14Z</time>
      </trkpt>
      <trkpt lat="47.00556" lon="-0.98844">
        <ele>109.6</ele>
        <time>2025-08-25T12:01:15Z</time>
      </trkpt>
      <trkpt lat="47.00556" lon="-0.98842">
        <ele>109.5</ele>
        <time>2025-08-25T12:01:16Z</time>
      </trkpt>
      <trkpt lat="47.00556" lon="-0.9884">
        <ele>109.5</ele>
        <time>2025-08-25T12:01:17Z</time>
      </trkpt>
      <trkpt lat="47.00555" lon="-0.98837">
        <ele>109.4</ele>
        <time>2025-08-25T12:01:18Z</time>
      </trkpt>
      <trkpt lat="47.00555" lon="-0.98835">
        <ele>109.3</ele>
        <time>2025-08-25T12:01:19Z</time>
      </trkpt>
      <trkpt lat="47.00555" lon="-0.98834">
        <ele>109.3</ele>
        <time>2025-08-25T12:01:20Z</time>
      </trkpt>
      <trkpt lat="47.00555" lon="-0.98832">
        <ele>109.2</ele>
        <time>2025-08-25T12:01:21Z</time>
      </trkpt>
      <trkpt lat="47.00554" lon="-0.9883">
        <ele>109.2</ele>
        <time>2025-08-25T12:01:22Z</time>
      </trkpt>
      <trkpt lat="47.00554" lon="-0.98828">
        <ele>109.1</ele>
        <time>2025-08-25T12:01:23Z</time>
      </trkpt>
      <trkpt lat="47.00554" lon="-0.98826">
        <ele>109.1</ele>
        <time>2025-08-25T12:01:24Z</time>
      </trkpt>
      <trkpt lat="47.00554" lon="-0.98824">
        <ele>109</ele>
        <time>2025-08-25T12:01:25Z</time>
      </trkpt>
      <trkpt lat="47.00554" lon="-0.98821">
        <ele>108.9</ele>
        <time>2025-08-25T12:01:26Z</time>
      </trkpt>
      <trkpt lat="47.00553" lon="-0.98819">
        <ele>108.9</ele>
        <time>2025-08-25T12:01:27Z</time>
      </trkpt>
      <trkpt lat="47.00553" lon="-0.98817">
        <ele>108.8</ele>
        <time>2025-08-25T12:01:28Z</time>
      </trkpt>
      <trkpt lat="47.00553" lon="-0.98814">
        <ele>108.7</ele>
        <time>2025-08-25T12:01:29Z</time>
      </trkpt>
      <trkpt lat="47.00553" lon="-0.98812">
        <ele>108.7</ele>
        <time>2025-08-25T12:01:30Z</time>
      </trkpt>
      <trkpt lat="47.00552" lon="-0.9881">
        <ele>108.6</ele>
        <time>2025-08-25T12:01:31Z</time>
      </trkpt>
      <trkpt lat="47.00552" lon="-0.98808">
        <ele>108.5</ele>
        <time>2025-08-25T12:01:32Z</time>
      </trkpt>
      <trkpt lat="47.00552" lon="-0.98805">
        <ele>108.5</ele>
        <time>2025-08-25T12:01:33Z</time>
      </trkpt>
      <trkpt lat="47.00551" lon="-0.98803">
        <ele>108.4</ele>
        <time>2025-08-25T12:01:34Z</time>
      </trkpt>
      <trkpt lat="47.00551" lon="-0.98799">
        <ele>108.3</ele>
        <time>2025-08-25T12:01:35Z</time>
      </trkpt>
      <trkpt lat="47.0055" lon="-0.98796">
        <ele>108.2</ele>
        <time>2025-08-25T12:01:36Z</time>
      </trkpt>
      <trkpt lat="47.0055" lon="-0.98795">
        <ele>108.2</ele>
        <time>2025-08-25T12:01:37Z</time>
      </trkpt>
      <trkpt lat="47.0055" lon="-0.98794">
        <ele>108.2</ele>
        <time>2025-08-25T12:01:38Z</time>
      </trkpt>
      <trkpt lat="47.0055" lon="-0.98793">
        <ele>108.2</ele>
        <time>2025-08-25T12:01:39Z</time>
      </trkpt>
      <trkpt lat="47.00549" lon="-0.98791">
        <ele>108.1</ele>
        <time>2025-08-25T12:01:40Z</time>
      </trkpt>
      <trkpt lat="47.00549" lon="-0.9879">
        <ele>108.1</ele>
        <time>2025-08-25T12:01:41Z</time>
      </trkpt>
      <trkpt lat="47.00549" lon="-0.98788">
        <ele>108</ele>
        <time>2025-08-25T12:01:42Z</time>
      </trkpt>
      <trkpt lat="47.00548" lon="-0.98787">
        <ele>108</ele>
        <time>2025-08-25T12:01:43Z</time>
      </trkpt>
      <trkpt lat="47.00548" lon="-0.98785">
        <ele>108</ele>
        <time>2025-08-25T12:01:44Z</time>
      </trkpt>
      <trkpt lat="47.00548" lon="-0.98783">
        <ele>107.9</ele>
        <time>2025-08-25T12:01:45Z</time>
      </trkpt>
      <trkpt lat="47.00548" lon="-0.98782">
        <ele>107.9</ele>
        <time>2025-08-25T12:01:46Z</time>
      </trkpt>
      <trkpt lat="47.00547" lon="-0.9878">
        <ele>107.9</ele>
        <time>2025-08-25T12:01:47Z</time>
      </trkpt>
      <trkpt lat="47.00547" lon="-0.98778">
        <ele>107.8</ele>
        <time>2025-08-25T12:01:48Z</time>
      </trkpt>
      <trkpt lat="47.00546" lon="-0.98776">
        <ele>107.8</ele>
        <time>2025-08-25T12:01:49Z</time>
      </trkpt>
      <trkpt lat="47.00546" lon="-0.98774">
        <ele>107.8</ele>
        <time>2025-08-25T12:01:50Z</time>
      </trkpt>
      <trkpt lat="47.00546" lon="-0.98773">
        <ele>107.7</ele>
        <time>2025-08-25T12:01:51Z</time>
      </trkpt>
      <trkpt lat="47.00545" lon="-0.98771">
        <ele>107.7</ele>
        <time>2025-08-25T12:01:52Z</time>
      </trkpt>
      <trkpt lat="47.00545" lon="-0.98769">
        <ele>107.7</ele>
        <time>2025-08-25T12:01:53Z</time>
      </trkpt>
      <trkpt lat="47.00545" lon="-0.98766">
        <ele>107.6</ele>
        <time>2025-08-25T12:01:54Z</time>
      </trkpt>
      <trkpt lat="47.00544" lon="-0.98764">
        <ele>107.6</ele>
        <time>2025-08-25T12:01:55Z</time>
      </trkpt>
      <trkpt lat="47.00544" lon="-0.98763">
        <ele>107.6</ele>
        <time>2025-08-25T12:01:56Z</time>
      </trkpt>
      <trkpt lat="47.00544" lon="-0.98761">
        <ele>107.6</ele>
        <time>2025-08-25T12:01:57Z</time>
      </trkpt>
      <trkpt lat="47.00544" lon="-0.98759">
        <ele>107.5</ele>
        <time>2025-08-25T12:01:58Z</time>
      </trkpt>
      <trkpt lat="47.00544" lon="-0.98758">
        <ele>107.5</ele>
        <time>2025-08-25T12:01:59Z</time>
      </trkpt>
      <trkpt lat="47.00544" lon="-0.98756">
        <ele>107.5</ele>
        <time>2025-08-25T12:02:00Z</time>
      </trkpt>
      <trkpt lat="47.00543" lon="-0.98754">
        <ele>107.5</ele>
        <time>2025-08-25T12:02:01Z</time>
      </trkpt>
      <trkpt lat="47.00543" lon="-0.98753">
        <ele>107.5</ele>
        <time>2025-08-25T12:02:02Z</time>
      </trkpt>
      <trkpt lat="47.00543" lon="-0.98751">
        <ele>107.5</ele>
        <time>2025-08-25T12:02:03Z</time>
      </trkpt>
      <trkpt lat="47.00543" lon="-0.98749">
        <ele>107.5</ele>
        <time>2025-08-25T12:02:04Z</time>
      </trkpt>
      <trkpt lat="47.00542" lon="-0.98746">
        <ele>107.5</ele>
        <time>2025-08-25T12:02:05Z</time>
      </trkpt>
      <trkpt lat="47.00541" lon="-0.98744">
        <ele>107.5</ele>
        <time>2025-08-25T12:02:06Z</time>
      </trkpt>
      <trkpt lat="47.00541" lon="-0.98742">
        <ele>107.5</ele>
        <time>2025-08-25T12:02:07Z</time>
      </trkpt>
      <trkpt lat="47.0054" lon="-0.9874">
        <ele>107.5</ele>
        <time>2025-08-25T12:02:08Z</time>
      </trkpt>
      <trkpt lat="47.00539" lon="-0.98737">
        <ele>107.5</ele>
        <time>2025-08-25T12:02:09Z</time>
      </trkpt>
      <trkpt lat="47.00539" lon="-0.98736">
        <ele>107.5</ele>
        <time>2025-08-25T12:02:10Z</time>
      </trkpt>
      <trkpt lat="47.00539" lon="-0.98735">
        <ele>107.5</ele>
        <time>2025-08-25T12:02:11Z</time>
      </trkpt>
      <trkpt lat="47.00539" lon="-0.98733">
        <ele>107.5</ele>
        <time>2025-08-25T12:02:12Z</time>
      </trkpt>
      <trkpt lat="47.00538" lon="-0.9873">
        <ele>107.5</ele>
        <time>2025-08-25T12:02:13Z</time>
      </trkpt>
      <trkpt lat="47.00538" lon="-0.98728">
        <ele>107.6</ele>
        <time>2025-08-25T12:02:14Z</time>
      </trkpt>
      <trkpt lat="47.00538" lon="-0.98726">
        <ele>107.6</ele>
        <time>2025-08-25T12:02:15Z</time>
      </trkpt>
      <trkpt lat="47.00537" lon="-0.98725">
        <ele>107.6</ele>
        <time>2025-08-25T12:02:16Z</time>
      </trkpt>
      <trkpt lat="47.00537" lon="-0.98723">
        <ele>107.7</ele>
        <time>2025-08-25T12:02:17Z</time>
      </trkpt>
      <trkpt lat="47.00537" lon="-0.98721">
        <ele>107.7</ele>
        <time>2025-08-25T12:02:18Z</time>
      </trkpt>
      <trkpt lat="47.00537" lon="-0.98719">
        <ele>107.7</ele>
        <time>2025-08-25T12:02:19Z</time>
      </trkpt>
      <trkpt lat="47.00536" lon="-0.98717">
        <ele>107.8</ele>
        <time>2025-08-25T12:02:20Z</time>
      </trkpt>
      <trkpt lat="47.00536" lon="-0.98715">
        <ele>107.8</ele>
        <time>2025-08-25T12:02:21Z</time>
      </trkpt>
      <trkpt lat="47.00536" lon="-0.98713">
        <ele>107.8</ele>
        <time>2025-08-25T12:02:22Z</time>
      </trkpt>
      <trkpt lat="47.00536" lon="-0.9871">
        <ele>107.9</ele>
        <time>2025-08-25T12:02:23Z</time>
      </trkpt>
      <trkpt lat="47.00536" lon="-0.98708">
        <ele>108</ele>
        <time>2025-08-25T12:02:24Z</time>
      </trkpt>
      <trkpt lat="47.00536" lon="-0.98706">
        <ele>108</ele>
        <time>2025-08-25T12:02:25Z</time>
      </trkpt>
      <trkpt lat="47.00536" lon="-0.98703">
        <ele>108.1</ele>
        <time>2025-08-25T12:02:26Z</time>
      </trkpt>
      <trkpt lat="47.00537" lon="-0.98701">
        <ele>108.1</ele>
        <time>2025-08-25T12:02:27Z</time>
      </trkpt>
      <trkpt lat="47.00537" lon="-0.98699">
        <ele>108.2</ele>
        <time>2025-08-25T12:02:28Z</time>
      </trkpt>
      <trkpt lat="47.00537" lon="-0.98696">
        <ele>108.3</ele>
        <time>2025-08-25T12:02:29Z</time>
      </trkpt>
      <trkpt lat="47.00537" lon="-0.98694">
        <ele>108.4</ele>
        <time>2025-08-25T12:02:30Z</time>
      </trkpt>
      <trkpt lat="47.00537" lon="-0.98692">
        <ele>108.4</ele>
        <time>2025-08-25T12:02:31Z</time>
      </trkpt>
      <trkpt lat="47.00537" lon="-0.9869">
        <ele>108.5</ele>
        <time>2025-08-25T12:02:32Z</time>
      </trkpt>
      <trkpt lat="47.00537" lon="-0.98688">
        <ele>108.6</ele>
        <time>2025-08-25T12:02:33Z</time>
      </trkpt>
      <trkpt lat="47.00537" lon="-0.98686">
        <ele>108.7</ele>
        <time>2025-08-25T12:02:34Z</time>
      </trkpt>
      <trkpt lat="47.00537" lon="-0.98682">
        <ele>108.8</ele>
        <time>2025-08-25T12:02:35Z</time>
      </trkpt>
      <trkpt lat="47.00537" lon="-0.98681">
        <ele>108.9</ele>
        <time>2025-08-25T12:02:36Z</time>
      </trkpt>
      <trkpt lat="47.00537" lon="-0.9868">
        <ele>108.9</ele>
        <time>2025-08-25T12:02:37Z</time>
      </trkpt>
      <trkpt lat="47.00536" lon="-0.98679">
        <ele>109</ele>
        <time>2025-08-25T12:02:38Z</time>
      </trkpt>
      <trkpt lat="47.00536" lon="-0.98677">
        <ele>109.1</ele>
        <time>2025-08-25T12:02:39Z</time>
      </trkpt>
      <trkpt lat="47.00536" lon="-0.98675">
        <ele>109.1</ele>
        <time>2025-08-25T12:02:40Z</time>
      </trkpt>
      <trkpt lat="47.00536" lon="-0.98673">
        <ele>109.3</ele>
        <time>2025-08-25T12:02:41Z</time>
      </trkpt>
      <trkpt lat="47.00536" lon="-0.98671">
        <ele>109.4</ele>
        <time>2025-08-25T12:02:42Z</time>
      </trkpt>
      <trkpt lat="47.00536" lon="-0.9867">
        <ele>109.4</ele>
        <time>2025-08-25T12:02:43Z</time>
      </trkpt>
      <trkpt lat="47.00535" lon="-0.98668">
        <ele>109.5</ele>
        <time>2025-08-25T12:02:44Z</time>
      </trkpt>
      <trkpt lat="47.00535" lon="-0.98666">
        <ele>109.6</ele>
        <time>2025-08-25T12:02:45Z</time>
      </trkpt>
      <trkpt lat="47.00535" lon="-0.98664">
        <ele>109.7</ele>
        <time>2025-08-25T12:02:46Z</time>
      </trkpt>
      <trkpt lat="47.00535" lon="-0.98663">
        <ele>109.8</ele>
        <time>2025-08-25T12:02:47Z</time>
      </trkpt>
      <trkpt lat="47.00535" lon="-0.98661">
        <ele>109.9</ele>
        <time>2025-08-25T12:02:48Z</time>
      </trkpt>
      <trkpt lat="47.00535" lon="-0.98659">
        <ele>110</ele>
        <time>2025-08-25T12:02:49Z</time>
      </trkpt>
      <trkpt lat="47.00535" lon="-0.98656">
        <ele>110.1</ele>
        <time>2025-08-25T12:02:50Z</time>
      </trkpt>
      <trkpt lat="47.00535" lon="-0.98653">
        <ele>110.3</ele>
        <time>2025-08-25T12:02:51Z</time>
      </trkpt>
      <trkpt lat="47.00535" lon="-0.98652">
        <ele>110.4</ele>
        <time>2025-08-25T12:02:52Z</time>
      </trkpt>
      <trkpt lat="47.00534" lon="-0.98651">
        <ele>110.4</ele>
        <time>2025-08-25T12:02:53Z</time>
      </trkpt>
      <trkpt lat="47.00534" lon="-0.98649">
        <ele>110.6</ele>
        <time>2025-08-25T12:02:54Z</time>
      </trkpt>
      <trkpt lat="47.00535" lon="-0.98646">
        <ele>110.7</ele>
        <time>2025-08-25T12:02:55Z</time>
      </trkpt>
      <trkpt lat="47.00535" lon="-0.98643">
        <ele>110.9</ele>
        <time>2025-08-25T12:02:56Z</time>
      </trkpt>
      <trkpt lat="47.00535" lon="-0.98642">
        <ele>110.9</ele>
        <time>2025-08-25T12:02:57Z</time>
      </trkpt>
      <trkpt lat="47.00535" lon="-0.9864">
        <ele>111</ele>
        <time>2025-08-25T12:02:58Z</time>
      </trkpt>
      <trkpt lat="47.00535" lon="-0.98638">
        <ele>111.1</ele>
        <time>2025-08-25T12:02:59Z</time>
      </trkpt>
      <trkpt lat="47.00536" lon="-0.98635">
        <ele>111.3</ele>
        <time>2025-08-25T12:03:00Z</time>
      </trkpt>
      <trkpt lat="47.00536" lon="-0.98634">
        <ele>111.4</ele>
        <time>2025-08-25T12:03:01Z</time>
      </trkpt>
      <trkpt lat="47.00536" lon="-0.98631">
        <ele>111.5</ele>
        <time>2025-08-25T12:03:02Z</time>
      </trkpt>
      <trkpt lat="47.00536" lon="-0.98629">
        <ele>111.6</ele>
        <time>2025-08-25T12:03:03Z</time>
      </trkpt>
      <trkpt lat="47.00536" lon="-0.98626">
        <ele>111.8</ele>
        <time>2025-08-25T12:03:04Z</time>
      </trkpt>
      <trkpt lat="47.00537" lon="-0.98624">
        <ele>111.9</ele>
        <time>2025-08-25T12:03:05Z</time>
      </trkpt>
      <trkpt lat="47.00537" lon="-0.98622">
        <ele>112</ele>
        <time>2025-08-25T12:03:06Z</time>
      </trkpt>
      <trkpt lat="47.00537" lon="-0.9862">
        <ele>112.1</ele>
        <time>2025-08-25T12:03:07Z</time>
      </trkpt>
      <trkpt lat="47.00537" lon="-0.98618">
        <ele>112.2</ele>
        <time>2025-08-25T12:03:08Z</time>
      </trkpt>
      <trkpt lat="47.00537" lon="-0.98615">
        <ele>112.4</ele>
        <time>2025-08-25T12:03:09Z</time>
      </trkpt>
      <trkpt lat="47.00537" lon="-0.98614">
        <ele>112.5</ele>
        <time>2025-08-25T12:03:10Z</time>
      </trkpt>
      <trkpt lat="47.00536" lon="-0.98613">
        <ele>112.5</ele>
        <time>2025-08-25T12:03:11Z</time>
      </trkpt>
      <trkpt lat="47.00536" lon="-0.98611">
        <ele>112.6</ele>
        <time>2025-08-25T12:03:12Z</time>
      </trkpt>
      <trkpt lat="47.00536" lon="-0.98608">
        <ele>112.7</ele>
        <time>2025-08-25T12:03:13Z</time>
      </trkpt>
      <trkpt lat="47.00536" lon="-0.98607">
        <ele>112.8</ele>
        <time>2025-08-25T12:03:14Z</time>
      </trkpt>
      <trkpt lat="47.00537" lon="-0.98604">
        <ele>112.9</ele>
        <time>2025-08-25T12:03:15Z</time>
      </trkpt>
      <trkpt lat="47.00537" lon="-0.98602">
        <ele>113</ele>
        <time>2025-08-25T12:03:16Z</time>
      </trkpt>
      <trkpt lat="47.00537" lon="-0.986">
        <ele>113.2</ele>
        <time>2025-08-25T12:03:17Z</time>
      </trkpt>
      <trkpt lat="47.00537" lon="-0.98598">
        <ele>113.2</ele>
        <time>2025-08-25T12:03:18Z</time>
      </trkpt>
      <trkpt lat="47.00537" lon="-0.98596">
        <ele>113.3</ele>
        <time>2025-08-25T12:03:19Z</time>
      </trkpt>
      <trkpt lat="47.00536" lon="-0.98595">
        <ele>113.4</ele>
        <time>2025-08-25T12:03:20Z</time>
      </trkpt>
      <trkpt lat="47.00536" lon="-0.98593">
        <ele>113.5</ele>
        <time>2025-08-25T12:03:21Z</time>
      </trkpt>
      <trkpt lat="47.00536" lon="-0.98591">
        <ele>113.6</ele>
        <time>2025-08-25T12:03:22Z</time>
      </trkpt>
      <trkpt lat="47.00535" lon="-0.9859">
        <ele>113.7</ele>
        <time>2025-08-25T12:03:23Z</time>
      </trkpt>
      <trkpt lat="47.00535" lon="-0.98588">
        <ele>113.8</ele>
        <time>2025-08-25T12:03:24Z</time>
      </trkpt>
      <trkpt lat="47.00535" lon="-0.98586">
        <ele>113.9</ele>
        <time>2025-08-25T12:03:25Z</time>
      </trkpt>
      <trkpt lat="47.00535" lon="-0.98584">
        <ele>113.9</ele>
        <time>2025-08-25T12:03:26Z</time>
      </trkpt>
      <trkpt lat="47.00534" lon="-0.98582">
        <ele>114.1</ele>
        <time>2025-08-25T12:03:27Z</time>
      </trkpt>
      <trkpt lat="47.00534" lon="-0.9858">
        <ele>114.2</ele>
        <time>2025-08-25T12:03:28Z</time>
      </trkpt>
      <trkpt lat="47.00533" lon="-0.98579">
        <ele>114.2</ele>
        <time>2025-08-25T12:03:29Z</time>
      </trkpt>
      <trkpt lat="47.00533" lon="-0.98578">
        <ele>114.3</ele>
        <time>2025-08-25T12:03:30Z</time>
      </trkpt>
      <trkpt lat="47.00532" lon="-0.98577">
        <ele>114.3</ele>
        <time>2025-08-25T12:03:31Z</time>
      </trkpt>
      <trkpt lat="47.00532" lon="-0.98575">
        <ele>114.4</ele>
        <time>2025-08-25T12:03:32Z</time>
      </trkpt>
      <trkpt lat="47.00531" lon="-0.98574">
        <ele>114.5</ele>
        <time>2025-08-25T12:03:33Z</time>
      </trkpt>
      <trkpt lat="47.00531" lon="-0.98573">
        <ele>114.5</ele>
        <time>2025-08-25T12:03:34Z</time>
      </trkpt>
      <trkpt lat="47.0053" lon="-0.98571">
        <ele>114.6</ele>
        <time>2025-08-25T12:03:35Z</time>
      </trkpt>
      <trkpt lat="47.0053" lon="-0.9857">
        <ele>114.7</ele>
        <time>2025-08-25T12:03:36Z</time>
      </trkpt>
      <trkpt lat="47.0053" lon="-0.98568">
        <ele>114.8</ele>
        <time>2025-08-25T12:03:37Z</time>
      </trkpt>
      <trkpt lat="47.00529" lon="-0.98566">
        <ele>114.9</ele>
        <time>2025-08-25T12:03:38Z</time>
      </trkpt>
      <trkpt lat="47.00529" lon="-0.98565">
        <ele>114.9</ele>
        <time>2025-08-25T12:03:39Z</time>
      </trkpt>
      <trkpt lat="47.00528" lon="-0.98563">
        <ele>115</ele>
        <time>2025-08-25T12:03:40Z</time>
      </trkpt>
      <trkpt lat="47.00528" lon="-0.98561">
        <ele>115.1</ele>
        <time>2025-08-25T12:03:41Z</time>
      </trkpt>
      <trkpt lat="47.00527" lon="-0.98558">
        <ele>115.2</ele>
        <time>2025-08-25T12:03:42Z</time>
      </trkpt>
      <trkpt lat="47.00527" lon="-0.98557">
        <ele>115.3</ele>
        <time>2025-08-25T12:03:43Z</time>
      </trkpt>
      <trkpt lat="47.00527" lon="-0.98556">
        <ele>115.3</ele>
        <time>2025-08-25T12:03:44Z</time>
      </trkpt>
      <trkpt lat="47.00526" lon="-0.98555">
        <ele>115.4</ele>
        <time>2025-08-25T12:03:45Z</time>
      </trkpt>
      <trkpt lat="47.00525" lon="-0.98554">
        <ele>115.5</ele>
        <time>2025-08-25T12:03:46Z</time>
      </trkpt>
      <trkpt lat="47.00525" lon="-0.98552">
        <ele>115.6</ele>
        <time>2025-08-25T12:03:47Z</time>
      </trkpt>
      <trkpt lat="47.00524" lon="-0.98549">
        <ele>115.7</ele>
        <time>2025-08-25T12:03:48Z</time>
      </trkpt>
      <trkpt lat="47.00523" lon="-0.98548">
        <ele>115.8</ele>
        <time>2025-08-25T12:03:49Z</time>
      </trkpt>
      <trkpt lat="47.00523" lon="-0.98547">
        <ele>115.8</ele>
        <time>2025-08-25T12:03:50Z</time>
      </trkpt>
      <trkpt lat="47.00523" lon="-0.98544">
        <ele>116</ele>
        <time>2025-08-25T12:03:51Z</time>
      </trkpt>
      <trkpt lat="47.00522" lon="-0.98542">
        <ele>116</ele>
        <time>2025-08-25T12:03:52Z</time>
      </trkpt>
      <trkpt lat="47.00522" lon="-0.98541">
        <ele>116.1</ele>
        <time>2025-08-25T12:03:53Z</time>
      </trkpt>
      <trkpt lat="47.0052" lon="-0.98539">
        <ele>116.3</ele>
        <time>2025-08-25T12:03:54Z</time>
      </trkpt>
      <trkpt lat="47.0052" lon="-0.98538">
        <ele>116.3</ele>
        <time>2025-08-25T12:03:55Z</time>
      </trkpt>
      <trkpt lat="47.00519" lon="-0.98537">
        <ele>116.4</ele>
        <time>2025-08-25T12:03:56Z</time>
      </trkpt>
      <trkpt lat="47.00518" lon="-0.98536">
        <ele>116.5</ele>
        <time>2025-08-25T12:03:57Z</time>
      </trkpt>
      <trkpt lat="47.00517" lon="-0.98534">
        <ele>116.6</ele>
        <time>2025-08-25T12:03:58Z</time>
      </trkpt>
      <trkpt lat="47.00516" lon="-0.98532">
        <ele>116.7</ele>
        <time>2025-08-25T12:03:59Z</time>
      </trkpt>
      <trkpt lat="47.00515" lon="-0.98531">
        <ele>116.8</ele>
        <time>2025-08-25T12:04:00Z</time>
      </trkpt>
      <trkpt lat="47.00515" lon="-0.9853">
        <ele>116.8</ele>
        <time>2025-08-25T12:04:01Z</time>
      </trkpt>
      <trkpt lat="47.00514" lon="-0.98528">
        <ele>116.9</ele>
        <time>2025-08-25T12:04:02Z</time>
      </trkpt>
      <trkpt lat="47.00514" lon="-0.98526">
        <ele>117</ele>
        <time>2025-08-25T12:04:03Z</time>
      </trkpt>
      <trkpt lat="47.00513" lon="-0.98525">
        <ele>117.1</ele>
        <time>2025-08-25T12:04:04Z</time>
      </trkpt>
      <trkpt lat="47.00512" lon="-0.98526">
        <ele>117.1</ele>
        <time>2025-08-25T12:04:05Z</time>
      </trkpt>
      <trkpt lat="47.00512" lon="-0.98526">
        <ele>117.1</ele>
        <time>2025-08-25T12:04:06Z</time>
      </trkpt>
      <trkpt lat="47.00512" lon="-0.98526">
        <ele>117.2</ele>
        <time>2025-08-25T12:04:07Z</time>
      </trkpt>
      <trkpt lat="47.00513" lon="-0.98526">
        <ele>117.2</ele>
        <time>2025-08-25T12:04:08Z</time>
      </trkpt>
      <trkpt lat="47.00513" lon="-0.98525">
        <ele>117.2</ele>
        <time>2025-08-25T12:04:09Z</time>
      </trkpt>
      <trkpt lat="47.00513" lon="-0.98525">
        <ele>117.2</ele>
        <time>2025-08-25T12:04:10Z</time>
      </trkpt>
      <trkpt lat="47.00513" lon="-0.98525">
        <ele>117.2</ele>
        <time>2025-08-25T12:04:11Z</time>
      </trkpt>
      <trkpt lat="47.00512" lon="-0.98525">
        <ele>117.2</ele>
        <time>2025-08-25T12:04:12Z</time>
      </trkpt>
      <trkpt lat="47.00512" lon="-0.98526">
        <ele>117.3</ele>
        <time>2025-08-25T12:04:13Z</time>
      </trkpt>
      <trkpt lat="47.00512" lon="-0.98526">
        <ele>117.3</ele>
        <time>2025-08-25T12:04:14Z</time>
      </trkpt>
      <trkpt lat="47.00512" lon="-0.98525">
        <ele>117.3</ele>
        <time>2025-08-25T12:04:15Z</time>
      </trkpt>
      <trkpt lat="47.00512" lon="-0.98524">
        <ele>117.3</ele>
        <time>2025-08-25T12:04:16Z</time>
      </trkpt>
      <trkpt lat="47.00513" lon="-0.98523">
        <ele>117.4</ele>
        <time>2025-08-25T12:04:17Z</time>
      </trkpt>
      <trkpt lat="47.00513" lon="-0.98522">
        <ele>117.4</ele>
        <time>2025-08-25T12:04:18Z</time>
      </trkpt>
      <trkpt lat="47.00513" lon="-0.98521">
        <ele>117.4</ele>
        <time>2025-08-25T12:04:19Z</time>
      </trkpt>
      <trkpt lat="47.00513" lon="-0.9852">
        <ele>117.5</ele>
        <time>2025-08-25T12:04:20Z</time>
      </trkpt>
      <trkpt lat="47.00513" lon="-0.98519">
        <ele>117.5</ele>
        <time>2025-08-25T12:04:21Z</time>
      </trkpt>
      <trkpt lat="47.00513" lon="-0.98519">
        <ele>117.5</ele>
        <time>2025-08-25T12:04:22Z</time>
      </trkpt>
      <trkpt lat="47.00514" lon="-0.98518">
        <ele>117.6</ele>
        <time>2025-08-25T12:04:23Z</time>
      </trkpt>
      <trkpt lat="47.00514" lon="-0.98515">
        <ele>117.7</ele>
        <time>2025-08-25T12:04:24Z</time>
      </trkpt>
      <trkpt lat="47.00514" lon="-0.98513">
        <ele>117.7</ele>
        <time>2025-08-25T12:04:25Z</time>
      </trkpt>
      <trkpt lat="47.00514" lon="-0.98511">
        <ele>117.8</ele>
        <time>2025-08-25T12:04:26Z</time>
      </trkpt>
      <trkpt lat="47.00515" lon="-0.98509">
        <ele>117.8</ele>
        <time>2025-08-25T12:04:27Z</time>
      </trkpt>
      <trkpt lat="47.00514" lon="-0.98508">
        <ele>117.9</ele>
        <time>2025-08-25T12:04:28Z</time>
      </trkpt>
      <trkpt lat="47.00514" lon="-0.98508">
        <ele>117.9</ele>
        <time>2025-08-25T12:04:29Z</time>
      </trkpt>
      <trkpt lat="47.00514" lon="-0.98507">
        <ele>117.9</ele>
        <time>2025-08-25T12:04:30Z</time>
      </trkpt>
      <trkpt lat="47.00514" lon="-0.98507">
        <ele>117.9</ele>
        <time>2025-08-25T12:04:31Z</time>
      </trkpt>
      <trkpt lat="47.00514" lon="-0.98507">
        <ele>117.9</ele>
        <time>2025-08-25T12:04:32Z</time>
      </trkpt>
      <trkpt lat="47.00514" lon="-0.98507">
        <ele>117.9</ele>
        <time>2025-08-25T12:04:33Z</time>
      </trkpt>
      <trkpt lat="47.00514" lon="-0.98507">
        <ele>117.9</ele>
        <time>2025-08-25T12:04:34Z</time>
      </trkpt>
      <trkpt lat="47.00514" lon="-0.98506">
        <ele>117.9</ele>
        <time>2025-08-25T12:04:35Z</time>
      </trkpt>
      <trkpt lat="47.00514" lon="-0.98506">
        <ele>117.9</ele>
        <time>2025-08-25T12:04:36Z</time>
      </trkpt>
      <trkpt lat="47.00514" lon="-0.98506">
        <ele>118</ele>
        <time>2025-08-25T12:04:37Z</time>
      </trkpt>
      <trkpt lat="47.00514" lon="-0.98505">
        <ele>118</ele>
        <time>2025-08-25T12:04:38Z</time>
      </trkpt>
      <trkpt lat="47.00515" lon="-0.98506">
        <ele>118</ele>
        <time>2025-08-25T12:04:39Z</time>
      </trkpt>
      <trkpt lat="47.00515" lon="-0.98507">
        <ele>118</ele>
        <time>2025-08-25T12:04:40Z</time>
      </trkpt>
      <trkpt lat="47.00515" lon="-0.98508">
        <ele>118.1</ele>
        <time>2025-08-25T12:04:41Z</time>
      </trkpt>
      <trkpt lat="47.00516" lon="-0.9851">
        <ele>118.2</ele>
        <time>2025-08-25T12:04:42Z</time>
      </trkpt>
      <trkpt lat="47.00516" lon="-0.98511">
        <ele>118.3</ele>
        <time>2025-08-25T12:04:43Z</time>
      </trkpt>
      <trkpt lat="47.00516" lon="-0.98511">
        <ele>118.3</ele>
        <time>2025-08-25T12:04:44Z</time>
      </trkpt>
      <trkpt lat="47.00517" lon="-0.98512">
        <ele>118.4</ele>
        <time>2025-08-25T12:04:45Z</time>
      </trkpt>
      <trkpt lat="47.00517" lon="-0.98512">
        <ele>118.4</ele>
        <time>2025-08-25T12:04:46Z</time>
      </trkpt>
      <trkpt lat="47.00518" lon="-0.98512">
        <ele>118.5</ele>
        <time>2025-08-25T12:04:47Z</time>
      </trkpt>
      <trkpt lat="47.00519" lon="-0.98513">
        <ele>118.6</ele>
        <time>2025-08-25T12:04:48Z</time>
      </trkpt>
      <trkpt lat="47.0052" lon="-0.98513">
        <ele>118.6</ele>
        <time>2025-08-25T12:04:49Z</time>
      </trkpt>
      <trkpt lat="47.00521" lon="-0.98513">
        <ele>118.8</ele>
        <time>2025-08-25T12:04:50Z</time>
      </trkpt>
      <trkpt lat="47.00522" lon="-0.98513">
        <ele>118.9</ele>
        <time>2025-08-25T12:04:51Z</time>
      </trkpt>
      <trkpt lat="47.00523" lon="-0.98512">
        <ele>118.9</ele>
        <time>2025-08-25T12:04:52Z</time>
      </trkpt>
      <trkpt lat="47.00525" lon="-0.98512">
        <ele>119.1</ele>
        <time>2025-08-25T12:04:54Z</time>
      </trkpt>
      <trkpt lat="47.00527" lon="-0.98512">
        <ele>119.3</ele>
        <time>2025-08-25T12:04:55Z</time>
      </trkpt>
      <trkpt lat="47.00528" lon="-0.98511">
        <ele>119.4</ele>
        <time>2025-08-25T12:04:56Z</time>
      </trkpt>
      <trkpt lat="47.00529" lon="-0.9851">
        <ele>119.5</ele>
        <time>2025-08-25T12:04:57Z</time>
      </trkpt>
      <trkpt lat="47.00531" lon="-0.9851">
        <ele>119.7</ele>
        <time>2025-08-25T12:04:58Z</time>
      </trkpt>
      <trkpt lat="47.00532" lon="-0.98509">
        <ele>119.8</ele>
        <time>2025-08-25T12:04:59Z</time>
      </trkpt>
      <trkpt lat="47.00533" lon="-0.98509">
        <ele>119.9</ele>
        <time>2025-08-25T12:05:00Z</time>
      </trkpt>
      <trkpt lat="47.00534" lon="-0.98508">
        <ele>120</ele>
        <time>2025-08-25T12:05:01Z</time>
      </trkpt>
      <trkpt lat="47.00535" lon="-0.98507">
        <ele>120.1</ele>
        <time>2025-08-25T12:05:02Z</time>
      </trkpt>
      <trkpt lat="47.00536" lon="-0.98506">
        <ele>120.3</ele>
        <time>2025-08-25T12:05:03Z</time>
      </trkpt>
      <trkpt lat="47.00536" lon="-0.98505">
        <ele>120.3</ele>
        <time>2025-08-25T12:05:04Z</time>
      </trkpt>
      <trkpt lat="47.00537" lon="-0.98504">
        <ele>120.5</ele>
        <time>2025-08-25T12:05:05Z</time>
      </trkpt>
      <trkpt lat="47.00538" lon="-0.98503">
        <ele>120.6</ele>
        <time>2025-08-25T12:05:06Z</time>
      </trkpt>
      <trkpt lat="47.00539" lon="-0.98503">
        <ele>120.7</ele>
        <time>2025-08-25T12:05:07Z</time>
      </trkpt>
      <trkpt lat="47.0054" lon="-0.98503">
        <ele>120.8</ele>
        <time>2025-08-25T12:05:08Z</time>
      </trkpt>
      <trkpt lat="47.00541" lon="-0.98503">
        <ele>120.9</ele>
        <time>2025-08-25T12:05:09Z</time>
      </trkpt>
      <trkpt lat="47.00542" lon="-0.98501">
        <ele>121.1</ele>
        <time>2025-08-25T12:05:10Z</time>
      </trkpt>
      <trkpt lat="47.00542" lon="-0.985">
        <ele>121.2</ele>
        <time>2025-08-25T12:05:11Z</time>
      </trkpt>
      <trkpt lat="47.00543" lon="-0.98499">
        <ele>121.3</ele>
        <time>2025-08-25T12:05:12Z</time>
      </trkpt>
      <trkpt lat="47.00543" lon="-0.98498">
        <ele>121.4</ele>
        <time>2025-08-25T12:05:13Z</time>
      </trkpt>
      <trkpt lat="47.00544" lon="-0.98497">
        <ele>121.5</ele>
        <time>2025-08-25T12:05:14Z</time>
      </trkpt>
      <trkpt lat="47.00544" lon="-0.98496">
        <ele>121.6</ele>
        <time>2025-08-25T12:05:15Z</time>
      </trkpt>
      <trkpt lat="47.00545" lon="-0.98495">
        <ele>121.8</ele>
        <time>2025-08-25T12:05:16Z</time>
      </trkpt>
      <trkpt lat="47.00546" lon="-0.98494">
        <ele>121.9</ele>
        <time>2025-08-25T12:05:17Z</time>
      </trkpt>
      <trkpt lat="47.00547" lon="-0.98492">
        <ele>122.2</ele>
        <time>2025-08-25T12:05:18Z</time>
      </trkpt>
      <trkpt lat="47.00548" lon="-0.98491">
        <ele>122.3</ele>
        <time>2025-08-25T12:05:19Z</time>
      </trkpt>
      <trkpt lat="47.00549" lon="-0.98491">
        <ele>122.4</ele>
        <time>2025-08-25T12:05:20Z</time>
      </trkpt>
      <trkpt lat="47.0055" lon="-0.9849">
        <ele>122.6</ele>
        <time>2025-08-25T12:05:21Z</time>
      </trkpt>
      <trkpt lat="47.00552" lon="-0.98488">
        <ele>122.9</ele>
        <time>2025-08-25T12:05:22Z</time>
      </trkpt>
      <trkpt lat="47.00553" lon="-0.98488">
        <ele>123</ele>
        <time>2025-08-25T12:05:23Z</time>
      </trkpt>
      <trkpt lat="47.00554" lon="-0.98487">
        <ele>123.2</ele>
        <time>2025-08-25T12:05:24Z</time>
      </trkpt>
      <trkpt lat="47.00556" lon="-0.98486">
        <ele>123.5</ele>
        <time>2025-08-25T12:05:25Z</time>
      </trkpt>
      <trkpt lat="47.00556" lon="-0.98485">
        <ele>123.6</ele>
        <time>2025-08-25T12:05:26Z</time>
      </trkpt>
      <trkpt lat="47.00557" lon="-0.98485">
        <ele>123.7</ele>
        <time>2025-08-25T12:05:27Z</time>
      </trkpt>
      <trkpt lat="47.00558" lon="-0.98483">
        <ele>123.9</ele>
        <time>2025-08-25T12:05:28Z</time>
      </trkpt>
      <trkpt lat="47.00559" lon="-0.98483">
        <ele>124</ele>
        <time>2025-08-25T12:05:29Z</time>
      </trkpt>
      <trkpt lat="47.0056" lon="-0.98482">
        <ele>124.2</ele>
        <time>2025-08-25T12:05:30Z</time>
      </trkpt>
      <trkpt lat="47.00561" lon="-0.98481">
        <ele>124.3</ele>
        <time>2025-08-25T12:05:31Z</time>
      </trkpt>
      <trkpt lat="47.00562" lon="-0.98481">
        <ele>124.4</ele>
        <time>2025-08-25T12:05:32Z</time>
      </trkpt>
      <trkpt lat="47.00562" lon="-0.9848">
        <ele>124.5</ele>
        <time>2025-08-25T12:05:33Z</time>
      </trkpt>
      <trkpt lat="47.00563" lon="-0.98479">
        <ele>124.7</ele>
        <time>2025-08-25T12:05:34Z</time>
      </trkpt>
      <trkpt lat="47.00564" lon="-0.98478">
        <ele>124.8</ele>
        <time>2025-08-25T12:05:35Z</time>
      </trkpt>
      <trkpt lat="47.00565" lon="-0.98478">
        <ele>124.9</ele>
        <time>2025-08-25T12:05:36Z</time>
      </trkpt>
      <trkpt lat="47.00565" lon="-0.98477">
        <ele>125</ele>
        <time>2025-08-25T12:05:37Z</time>
      </trkpt>
      <trkpt lat="47.00566" lon="-0.98476">
        <ele>125.1</ele>
        <time>2025-08-25T12:05:38Z</time>
      </trkpt>
      <trkpt lat="47.00567" lon="-0.98475">
        <ele>125.2</ele>
        <time>2025-08-25T12:05:39Z</time>
      </trkpt>
      <trkpt lat="47.00567" lon="-0.98475">
        <ele>125.3</ele>
        <time>2025-08-25T12:05:40Z</time>
      </trkpt>
      <trkpt lat="47.00568" lon="-0.98474">
        <ele>125.4</ele>
        <time>2025-08-25T12:05:41Z</time>
      </trkpt>
      <trkpt lat="47.00568" lon="-0.98472">
        <ele>125.5</ele>
        <time>2025-08-25T12:05:42Z</time>
      </trkpt>
      <trkpt lat="47.00568" lon="-0.98472">
        <ele>125.5</ele>
        <time>2025-08-25T12:05:43Z</time>
      </trkpt>
      <trkpt lat="47.00569" lon="-0.9847">
        <ele>125.7</ele>
        <time>2025-08-25T12:05:44Z</time>
      </trkpt>
      <trkpt lat="47.0057" lon="-0.98469">
        <ele>125.8</ele>
        <time>2025-08-25T12:05:45Z</time>
      </trkpt>
      <trkpt lat="47.00571" lon="-0.98468">
        <ele>125.9</ele>
        <time>2025-08-25T12:05:46Z</time>
      </trkpt>
      <trkpt lat="47.00571" lon="-0.98468">
        <ele>126</ele>
        <time>2025-08-25T12:05:47Z</time>
      </trkpt>
      <trkpt lat="47.00572" lon="-0.98467">
        <ele>126.1</ele>
        <time>2025-08-25T12:05:48Z</time>
      </trkpt>
      <trkpt lat="47.00572" lon="-0.98466">
        <ele>126.2</ele>
        <time>2025-08-25T12:05:49Z</time>
      </trkpt>
      <trkpt lat="47.00573" lon="-0.98465">
        <ele>126.3</ele>
        <time>2025-08-25T12:05:50Z</time>
      </trkpt>
      <trkpt lat="47.00574" lon="-0.98464">
        <ele>126.4</ele>
        <time>2025-08-25T12:05:51Z</time>
      </trkpt>
      <trkpt lat="47.00574" lon="-0.98463">
        <ele>126.4</ele>
        <time>2025-08-25T12:05:52Z</time>
      </trkpt>
      <trkpt lat="47.00575" lon="-0.98462">
        <ele>126.5</ele>
        <time>2025-08-25T12:05:53Z</time>
      </trkpt>
      <trkpt lat="47.00576" lon="-0.98461">
        <ele>126.6</ele>
        <time>2025-08-25T12:05:54Z</time>
      </trkpt>
      <trkpt lat="47.00577" lon="-0.9846">
        <ele>126.7</ele>
        <time>2025-08-25T12:05:55Z</time>
      </trkpt>
      <trkpt lat="47.00578" lon="-0.98459">
        <ele>126.8</ele>
        <time>2025-08-25T12:05:56Z</time>
      </trkpt>
      <trkpt lat="47.00579" lon="-0.98459">
        <ele>126.9</ele>
        <time>2025-08-25T12:05:57Z</time>
      </trkpt>
      <trkpt lat="47.0058" lon="-0.98458">
        <ele>127</ele>
        <time>2025-08-25T12:05:58Z</time>
      </trkpt>
      <trkpt lat="47.00581" lon="-0.98457">
        <ele>127.1</ele>
        <time>2025-08-25T12:05:59Z</time>
      </trkpt>
      <trkpt lat="47.00582" lon="-0.98457">
        <ele>127.2</ele>
        <time>2025-08-25T12:06:00Z</time>
      </trkpt>
      <trkpt lat="47.00583" lon="-0.98456">
        <ele>127.3</ele>
        <time>2025-08-25T12:06:01Z</time>
      </trkpt>
      <trkpt lat="47.00584" lon="-0.98455">
        <ele>127.4</ele>
        <time>2025-08-25T12:06:02Z</time>
      </trkpt>
      <trkpt lat="47.00585" lon="-0.98454">
        <ele>127.5</ele>
        <time>2025-08-25T12:06:03Z</time>
      </trkpt>
      <trkpt lat="47.00587" lon="-0.98453">
        <ele>127.6</ele>
        <time>2025-08-25T12:06:04Z</time>
      </trkpt>
      <trkpt lat="47.00588" lon="-0.98453">
        <ele>127.7</ele>
        <time>2025-08-25T12:06:05Z</time>
      </trkpt>
      <trkpt lat="47.00589" lon="-0.98452">
        <ele>127.7</ele>
        <time>2025-08-25T12:06:06Z</time>
      </trkpt>
      <trkpt lat="47.0059" lon="-0.98451">
        <ele>127.8</ele>
        <time>2025-08-25T12:06:07Z</time>
      </trkpt>
      <trkpt lat="47.00591" lon="-0.98451">
        <ele>127.9</ele>
        <time>2025-08-25T12:06:08Z</time>
      </trkpt>
      <trkpt lat="47.00593" lon="-0.9845">
        <ele>128</ele>
        <time>2025-08-25T12:06:09Z</time>
      </trkpt>
      <trkpt lat="47.00594" lon="-0.9845">
        <ele>128.1</ele>
        <time>2025-08-25T12:06:10Z</time>
      </trkpt>
      <trkpt lat="47.00596" lon="-0.98449">
        <ele>128.3</ele>
        <time>2025-08-25T12:06:11Z</time>
      </trkpt>
      <trkpt lat="47.00597" lon="-0.98449">
        <ele>128.3</ele>
        <time>2025-08-25T12:06:12Z</time>
      </trkpt>
      <trkpt lat="47.00598" lon="-0.98449">
        <ele>128.4</ele>
        <time>2025-08-25T12:06:13Z</time>
      </trkpt>
      <trkpt lat="47.00599" lon="-0.98449">
        <ele>128.5</ele>
        <time>2025-08-25T12:06:14Z</time>
      </trkpt>
      <trkpt lat="47.00601" lon="-0.98448">
        <ele>128.6</ele>
        <time>2025-08-25T12:06:15Z</time>
      </trkpt>
      <trkpt lat="47.00603" lon="-0.98447">
        <ele>128.7</ele>
        <time>2025-08-25T12:06:16Z</time>
      </trkpt>
      <trkpt lat="47.00604" lon="-0.98447">
        <ele>128.8</ele>
        <time>2025-08-25T12:06:17Z</time>
      </trkpt>
      <trkpt lat="47.00604" lon="-0.98446">
        <ele>128.8</ele>
        <time>2025-08-25T12:06:18Z</time>
      </trkpt>
      <trkpt lat="47.00606" lon="-0.98445">
        <ele>129</ele>
        <time>2025-08-25T12:06:19Z</time>
      </trkpt>
      <trkpt lat="47.00607" lon="-0.98444">
        <ele>129</ele>
        <time>2025-08-25T12:06:20Z</time>
      </trkpt>
      <trkpt lat="47.00608" lon="-0.98444">
        <ele>129.1</ele>
        <time>2025-08-25T12:06:21Z</time>
      </trkpt>
      <trkpt lat="47.0061" lon="-0.98442">
        <ele>129.2</ele>
        <time>2025-08-25T12:06:22Z</time>
      </trkpt>
      <trkpt lat="47.00611" lon="-0.98442">
        <ele>129.2</ele>
        <time>2025-08-25T12:06:23Z</time>
      </trkpt>
      <trkpt lat="47.00611" lon="-0.98441">
        <ele>129.3</ele>
        <time>2025-08-25T12:06:24Z</time>
      </trkpt>
      <trkpt lat="47.00612" lon="-0.98441">
        <ele>129.3</ele>
        <time>2025-08-25T12:06:25Z</time>
      </trkpt>
      <trkpt lat="47.00614" lon="-0.9844">
        <ele>129.4</ele>
        <time>2025-08-25T12:06:26Z</time>
      </trkpt>
      <trkpt lat="47.00615" lon="-0.9844">
        <ele>129.5</ele>
        <time>2025-08-25T12:06:27Z</time>
      </trkpt>
      <trkpt lat="47.00616" lon="-0.9844">
        <ele>129.5</ele>
        <time>2025-08-25T12:06:28Z</time>
      </trkpt>
      <trkpt lat="47.00617" lon="-0.98439">
        <ele>129.6</ele>
        <time>2025-08-25T12:06:29Z</time>
      </trkpt>
      <trkpt lat="47.00618" lon="-0.98439">
        <ele>129.6</ele>
        <time>2025-08-25T12:06:30Z</time>
      </trkpt>
      <trkpt lat="47.00619" lon="-0.98438">
        <ele>129.7</ele>
        <time>2025-08-25T12:06:31Z</time>
      </trkpt>
      <trkpt lat="47.0062" lon="-0.98438">
        <ele>129.7</ele>
        <time>2025-08-25T12:06:32Z</time>
      </trkpt>
      <trkpt lat="47.00621" lon="-0.98437">
        <ele>129.8</ele>
        <time>2025-08-25T12:06:33Z</time>
      </trkpt>
      <trkpt lat="47.00622" lon="-0.98437">
        <ele>129.8</ele>
        <time>2025-08-25T12:06:34Z</time>
      </trkpt>
      <trkpt lat="47.00623" lon="-0.98436">
        <ele>129.9</ele>
        <time>2025-08-25T12:06:35Z</time>
      </trkpt>
      <trkpt lat="47.00625" lon="-0.98436">
        <ele>129.9</ele>
        <time>2025-08-25T12:06:36Z</time>
      </trkpt>
      <trkpt lat="47.00626" lon="-0.98435">
        <ele>130</ele>
        <time>2025-08-25T12:06:37Z</time>
      </trkpt>
      <trkpt lat="47.00627" lon="-0.98434">
        <ele>130</ele>
        <time>2025-08-25T12:06:38Z</time>
      </trkpt>
      <trkpt lat="47.00628" lon="-0.98434">
        <ele>130.1</ele>
        <time>2025-08-25T12:06:39Z</time>
      </trkpt>
      <trkpt lat="47.00629" lon="-0.98433">
        <ele>130.1</ele>
        <time>2025-08-25T12:06:40Z</time>
      </trkpt>
      <trkpt lat="47.0063" lon="-0.98433">
        <ele>130.1</ele>
        <time>2025-08-25T12:06:41Z</time>
      </trkpt>
      <trkpt lat="47.00631" lon="-0.98432">
        <ele>130.2</ele>
        <time>2025-08-25T12:06:42Z</time>
      </trkpt>
      <trkpt lat="47.00632" lon="-0.98431">
        <ele>130.2</ele>
        <time>2025-08-25T12:06:43Z</time>
      </trkpt>
      <trkpt lat="47.00633" lon="-0.98431">
        <ele>130.2</ele>
        <time>2025-08-25T12:06:44Z</time>
      </trkpt>
      <trkpt lat="47.00633" lon="-0.9843">
        <ele>130.3</ele>
        <time>2025-08-25T12:06:45Z</time>
      </trkpt>
      <trkpt lat="47.00634" lon="-0.98429">
        <ele>130.3</ele>
        <time>2025-08-25T12:06:46Z</time>
      </trkpt>
      <trkpt lat="47.00635" lon="-0.98428">
        <ele>130.3</ele>
        <time>2025-08-25T12:06:47Z</time>
      </trkpt>
      <trkpt lat="47.00636" lon="-0.98427">
        <ele>130.3</ele>
        <time>2025-08-25T12:06:48Z</time>
      </trkpt>
      <trkpt lat="47.00637" lon="-0.98426">
        <ele>130.4</ele>
        <time>2025-08-25T12:06:49Z</time>
      </trkpt>
      <trkpt lat="47.00638" lon="-0.98425">
        <ele>130.4</ele>
        <time>2025-08-25T12:06:50Z</time>
      </trkpt>
      <trkpt lat="47.00639" lon="-0.98425">
        <ele>130.4</ele>
        <time>2025-08-25T12:06:51Z</time>
      </trkpt>
      <trkpt lat="47.00641" lon="-0.98423">
        <ele>130.5</ele>
        <time>2025-08-25T12:06:52Z</time>
      </trkpt>
      <trkpt lat="47.00642" lon="-0.98422">
        <ele>130.5</ele>
        <time>2025-08-25T12:06:53Z</time>
      </trkpt>
      <trkpt lat="47.00643" lon="-0.98422">
        <ele>130.5</ele>
        <time>2025-08-25T12:06:54Z</time>
      </trkpt>
      <trkpt lat="47.00643" lon="-0.98421">
        <ele>130.5</ele>
        <time>2025-08-25T12:06:55Z</time>
      </trkpt>
      <trkpt lat="47.00644" lon="-0.9842">
        <ele>130.5</ele>
        <time>2025-08-25T12:06:56Z</time>
      </trkpt>
      <trkpt lat="47.00645" lon="-0.98419">
        <ele>130.6</ele>
        <time>2025-08-25T12:06:57Z</time>
      </trkpt>
      <trkpt lat="47.00646" lon="-0.98418">
        <ele>130.6</ele>
        <time>2025-08-25T12:06:58Z</time>
      </trkpt>
      <trkpt lat="47.00647" lon="-0.98417">
        <ele>130.6</ele>
        <time>2025-08-25T12:06:59Z</time>
      </trkpt>
      <trkpt lat="47.00648" lon="-0.98416">
        <ele>130.6</ele>
        <time>2025-08-25T12:07:00Z</time>
      </trkpt>
      <trkpt lat="47.0065" lon="-0.98415">
        <ele>130.7</ele>
        <time>2025-08-25T12:07:01Z</time>
      </trkpt>
      <trkpt lat="47.00651" lon="-0.98414">
        <ele>130.7</ele>
        <time>2025-08-25T12:07:02Z</time>
      </trkpt>
      <trkpt lat="47.00651" lon="-0.98413">
        <ele>130.7</ele>
        <time>2025-08-25T12:07:03Z</time>
      </trkpt>
      <trkpt lat="47.00653" lon="-0.98411">
        <ele>130.7</ele>
        <time>2025-08-25T12:07:04Z</time>
      </trkpt>
      <trkpt lat="47.00654" lon="-0.98411">
        <ele>130.8</ele>
        <time>2025-08-25T12:07:05Z</time>
      </trkpt>
      <trkpt lat="47.00654" lon="-0.9841">
        <ele>130.8</ele>
        <time>2025-08-25T12:07:06Z</time>
      </trkpt>
      <trkpt lat="47.00656" lon="-0.98408">
        <ele>130.8</ele>
        <time>2025-08-25T12:07:07Z</time>
      </trkpt>
      <trkpt lat="47.00657" lon="-0.98407">
        <ele>130.8</ele>
        <time>2025-08-25T12:07:08Z</time>
      </trkpt>
      <trkpt lat="47.00658" lon="-0.98407">
        <ele>130.8</ele>
        <time>2025-08-25T12:07:09Z</time>
      </trkpt>
      <trkpt lat="47.00659" lon="-0.98406">
        <ele>130.9</ele>
        <time>2025-08-25T12:07:10Z</time>
      </trkpt>
      <trkpt lat="47.0066" lon="-0.98405">
        <ele>130.9</ele>
        <time>2025-08-25T12:07:11Z</time>
      </trkpt>
      <trkpt lat="47.00661" lon="-0.98404">
        <ele>130.9</ele>
        <time>2025-08-25T12:07:12Z</time>
      </trkpt>
      <trkpt lat="47.00662" lon="-0.98403">
        <ele>130.9</ele>
        <time>2025-08-25T12:07:13Z</time>
      </trkpt>
      <trkpt lat="47.00663" lon="-0.98402">
        <ele>130.9</ele>
        <time>2025-08-25T12:07:14Z</time>
      </trkpt>
      <trkpt lat="47.00664" lon="-0.98401">
        <ele>130.9</ele>
        <time>2025-08-25T12:07:15Z</time>
      </trkpt>
      <trkpt lat="47.00665" lon="-0.984">
        <ele>131</ele>
        <time>2025-08-25T12:07:16Z</time>
      </trkpt>
      <trkpt lat="47.00666" lon="-0.984">
        <ele>131</ele>
        <time>2025-08-25T12:07:17Z</time>
      </trkpt>
      <trkpt lat="47.00667" lon="-0.98399">
        <ele>131</ele>
        <time>2025-08-25T12:07:18Z</time>
      </trkpt>
      <trkpt lat="47.00667" lon="-0.98397">
        <ele>131</ele>
        <time>2025-08-25T12:07:19Z</time>
      </trkpt>
      <trkpt lat="47.00668" lon="-0.98396">
        <ele>131</ele>
        <time>2025-08-25T12:07:20Z</time>
      </trkpt>
      <trkpt lat="47.00669" lon="-0.98395">
        <ele>131</ele>
        <time>2025-08-25T12:07:21Z</time>
      </trkpt>
      <trkpt lat="47.00671" lon="-0.98393">
        <ele>131</ele>
        <time>2025-08-25T12:07:22Z</time>
      </trkpt>
      <trkpt lat="47.00671" lon="-0.98392">
        <ele>131.1</ele>
        <time>2025-08-25T12:07:23Z</time>
      </trkpt>
      <trkpt lat="47.00672" lon="-0.98391">
        <ele>131.1</ele>
        <time>2025-08-25T12:07:24Z</time>
      </trkpt>
      <trkpt lat="47.00672" lon="-0.9839">
        <ele>131.1</ele>
        <time>2025-08-25T12:07:25Z</time>
      </trkpt>
      <trkpt lat="47.00673" lon="-0.98388">
        <ele>131.1</ele>
        <time>2025-08-25T12:07:26Z</time>
      </trkpt>
      <trkpt lat="47.00674" lon="-0.98387">
        <ele>131.1</ele>
        <time>2025-08-25T12:07:27Z</time>
      </trkpt>
      <trkpt lat="47.00674" lon="-0.98385">
        <ele>131.1</ele>
        <time>2025-08-25T12:07:28Z</time>
      </trkpt>
      <trkpt lat="47.00675" lon="-0.98383">
        <ele>131.1</ele>
        <time>2025-08-25T12:07:29Z</time>
      </trkpt>
      <trkpt lat="47.00675" lon="-0.98382">
        <ele>131.1</ele>
        <time>2025-08-25T12:07:30Z</time>
      </trkpt>
      <trkpt lat="47.00676" lon="-0.9838">
        <ele>131.1</ele>
        <time>2025-08-25T12:07:31Z</time>
      </trkpt>
      <trkpt lat="47.00677" lon="-0.98379">
        <ele>131.1</ele>
        <time>2025-08-25T12:07:32Z</time>
      </trkpt>
      <trkpt lat="47.00677" lon="-0.98377">
        <ele>131.1</ele>
        <time>2025-08-25T12:07:33Z</time>
      </trkpt>
      <trkpt lat="47.00678" lon="-0.98376">
        <ele>131.1</ele>
        <time>2025-08-25T12:07:34Z</time>
      </trkpt>
      <trkpt lat="47.00679" lon="-0.98374">
        <ele>131.1</ele>
        <time>2025-08-25T12:07:35Z</time>
      </trkpt>
      <trkpt lat="47.0068" lon="-0.98373">
        <ele>131.1</ele>
        <time>2025-08-25T12:07:36Z</time>
      </trkpt>
      <trkpt lat="47.0068" lon="-0.98371">
        <ele>131</ele>
        <time>2025-08-25T12:07:37Z</time>
      </trkpt>
      <trkpt lat="47.00681" lon="-0.98369">
        <ele>131</ele>
        <time>2025-08-25T12:07:38Z</time>
      </trkpt>
      <trkpt lat="47.00683" lon="-0.98368">
        <ele>131</ele>
        <time>2025-08-25T12:07:39Z</time>
      </trkpt>
      <trkpt lat="47.00684" lon="-0.98365">
        <ele>131</ele>
        <time>2025-08-25T12:07:40Z</time>
      </trkpt>
      <trkpt lat="47.00684" lon="-0.98364">
        <ele>131</ele>
        <time>2025-08-25T12:07:41Z</time>
      </trkpt>
      <trkpt lat="47.00685" lon="-0.98363">
        <ele>131</ele>
        <time>2025-08-25T12:07:42Z</time>
      </trkpt>
      <trkpt lat="47.00686" lon="-0.9836">
        <ele>131</ele>
        <time>2025-08-25T12:07:43Z</time>
      </trkpt>
      <trkpt lat="47.00686" lon="-0.98359">
        <ele>131</ele>
        <time>2025-08-25T12:07:44Z</time>
      </trkpt>
      <trkpt lat="47.00687" lon="-0.98358">
        <ele>131</ele>
        <time>2025-08-25T12:07:45Z</time>
      </trkpt>
      <trkpt lat="47.00688" lon="-0.98356">
        <ele>130.9</ele>
        <time>2025-08-25T12:07:46Z</time>
      </trkpt>
      <trkpt lat="47.00689" lon="-0.98355">
        <ele>130.9</ele>
        <time>2025-08-25T12:07:47Z</time>
      </trkpt>
      <trkpt lat="47.00689" lon="-0.98354">
        <ele>130.9</ele>
        <time>2025-08-25T12:07:48Z</time>
      </trkpt>
      <trkpt lat="47.00691" lon="-0.98352">
        <ele>130.9</ele>
        <time>2025-08-25T12:07:49Z</time>
      </trkpt>
      <trkpt lat="47.00692" lon="-0.98351">
        <ele>130.9</ele>
        <time>2025-08-25T12:07:50Z</time>
      </trkpt>
      <trkpt lat="47.00692" lon="-0.9835">
        <ele>130.9</ele>
        <time>2025-08-25T12:07:51Z</time>
      </trkpt>
      <trkpt lat="47.00693" lon="-0.98348">
        <ele>130.9</ele>
        <time>2025-08-25T12:07:52Z</time>
      </trkpt>
      <trkpt lat="47.00694" lon="-0.98346">
        <ele>130.9</ele>
        <time>2025-08-25T12:07:53Z</time>
      </trkpt>
      <trkpt lat="47.00695" lon="-0.98345">
        <ele>130.9</ele>
        <time>2025-08-25T12:07:54Z</time>
      </trkpt>
      <trkpt lat="47.00696" lon="-0.98344">
        <ele>130.8</ele>
        <time>2025-08-25T12:07:55Z</time>
      </trkpt>
      <trkpt lat="47.00697" lon="-0.98343">
        <ele>130.8</ele>
        <time>2025-08-25T12:07:56Z</time>
      </trkpt>
      <trkpt lat="47.00698" lon="-0.98342">
        <ele>130.8</ele>
        <time>2025-08-25T12:07:57Z</time>
      </trkpt>
      <trkpt lat="47.00699" lon="-0.98342">
        <ele>130.8</ele>
        <time>2025-08-25T12:07:58Z</time>
      </trkpt>
      <trkpt lat="47.007" lon="-0.9834">
        <ele>130.8</ele>
        <time>2025-08-25T12:07:59Z</time>
      </trkpt>
      <trkpt lat="47.00701" lon="-0.98339">
        <ele>130.8</ele>
        <time>2025-08-25T12:08:00Z</time>
      </trkpt>
      <trkpt lat="47.00702" lon="-0.98338">
        <ele>130.8</ele>
        <time>2025-08-25T12:08:01Z</time>
      </trkpt>
      <trkpt lat="47.00703" lon="-0.98336">
        <ele>130.7</ele>
        <time>2025-08-25T12:08:02Z</time>
      </trkpt>
      <trkpt lat="47.00703" lon="-0.98334">
        <ele>130.7</ele>
        <time>2025-08-25T12:08:03Z</time>
      </trkpt>
      <trkpt lat="47.00704" lon="-0.98332">
        <ele>130.7</ele>
        <time>2025-08-25T12:08:04Z</time>
      </trkpt>
      <trkpt lat="47.00705" lon="-0.9833">
        <ele>130.7</ele>
        <time>2025-08-25T12:08:05Z</time>
      </trkpt>
      <trkpt lat="47.00706" lon="-0.98329">
        <ele>130.7</ele>
        <time>2025-08-25T12:08:06Z</time>
      </trkpt>
      <trkpt lat="47.00706" lon="-0.98328">
        <ele>130.7</ele>
        <time>2025-08-25T12:08:07Z</time>
      </trkpt>
      <trkpt lat="47.00707" lon="-0.98327">
        <ele>130.6</ele>
        <time>2025-08-25T12:08:08Z</time>
      </trkpt>
      <trkpt lat="47.00709" lon="-0.98325">
        <ele>130.6</ele>
        <time>2025-08-25T12:08:09Z</time>
      </trkpt>
      <trkpt lat="47.0071" lon="-0.98324">
        <ele>130.6</ele>
        <time>2025-08-25T12:08:10Z</time>
      </trkpt>
      <trkpt lat="47.00711" lon="-0.98323">
        <ele>130.6</ele>
        <time>2025-08-25T12:08:11Z</time>
      </trkpt>
      <trkpt lat="47.00711" lon="-0.98323">
        <ele>130.6</ele>
        <time>2025-08-25T12:08:12Z</time>
      </trkpt>
      <trkpt lat="47.00712" lon="-0.98321">
        <ele>130.6</ele>
        <time>2025-08-25T12:08:13Z</time>
      </trkpt>
      <trkpt lat="47.00712" lon="-0.98321">
        <ele>130.6</ele>
        <time>2025-08-25T12:08:14Z</time>
      </trkpt>
      <trkpt lat="47.00714" lon="-0.98319">
        <ele>130.5</ele>
        <time>2025-08-25T12:08:15Z</time>
      </trkpt>
      <trkpt lat="47.00716" lon="-0.98318">
        <ele>130.5</ele>
        <time>2025-08-25T12:08:16Z</time>
      </trkpt>
      <trkpt lat="47.00717" lon="-0.98318">
        <ele>130.5</ele>
        <time>2025-08-25T12:08:17Z</time>
      </trkpt>
      <trkpt lat="47.00718" lon="-0.98317">
        <ele>130.5</ele>
        <time>2025-08-25T12:08:18Z</time>
      </trkpt>
      <trkpt lat="47.0072" lon="-0.98318">
        <ele>130.5</ele>
        <time>2025-08-25T12:08:19Z</time>
      </trkpt>
      <trkpt lat="47.00721" lon="-0.98318">
        <ele>130.5</ele>
        <time>2025-08-25T12:08:20Z</time>
      </trkpt>
      <trkpt lat="47.00722" lon="-0.98317">
        <ele>130.5</ele>
        <time>2025-08-25T12:08:21Z</time>
      </trkpt>
      <trkpt lat="47.00724" lon="-0.98317">
        <ele>130.5</ele>
        <time>2025-08-25T12:08:22Z</time>
      </trkpt>
      <trkpt lat="47.00725" lon="-0.98317">
        <ele>130.5</ele>
        <time>2025-08-25T12:08:23Z</time>
      </trkpt>
      <trkpt lat="47.00726" lon="-0.98317">
        <ele>130.5</ele>
        <time>2025-08-25T12:08:24Z</time>
      </trkpt>
      <trkpt lat="47.00727" lon="-0.98315">
        <ele>130.5</ele>
        <time>2025-08-25T12:08:25Z</time>
      </trkpt>
      <trkpt lat="47.00728" lon="-0.98314">
        <ele>130.5</ele>
        <time>2025-08-25T12:08:26Z</time>
      </trkpt>
      <trkpt lat="47.00729" lon="-0.98313">
        <ele>130.5</ele>
        <time>2025-08-25T12:08:28Z</time>
      </trkpt>
      <trkpt lat="47.0073" lon="-0.98312">
        <ele>130.5</ele>
        <time>2025-08-25T12:08:29Z</time>
      </trkpt>
      <trkpt lat="47.00731" lon="-0.98311">
        <ele>130.5</ele>
        <time>2025-08-25T12:08:30Z</time>
      </trkpt>
      <trkpt lat="47.00732" lon="-0.98309">
        <ele>130.5</ele>
        <time>2025-08-25T12:08:31Z</time>
      </trkpt>
      <trkpt lat="47.00733" lon="-0.98308">
        <ele>130.5</ele>
        <time>2025-08-25T12:08:32Z</time>
      </trkpt>
      <trkpt lat="47.00733" lon="-0.98307">
        <ele>130.5</ele>
        <time>2025-08-25T12:08:33Z</time>
      </trkpt>
      <trkpt lat="47.00735" lon="-0.98305">
        <ele>130.6</ele>
        <time>2025-08-25T12:08:34Z</time>
      </trkpt>
      <trkpt lat="47.00736" lon="-0.98304">
        <ele>130.6</ele>
        <time>2025-08-25T12:08:35Z</time>
      </trkpt>
      <trkpt lat="47.00736" lon="-0.98303">
        <ele>130.6</ele>
        <time>2025-08-25T12:08:36Z</time>
      </trkpt>
      <trkpt lat="47.00737" lon="-0.98301">
        <ele>130.6</ele>
        <time>2025-08-25T12:08:37Z</time>
      </trkpt>
      <trkpt lat="47.00737" lon="-0.98298">
        <ele>130.6</ele>
        <time>2025-08-25T12:08:38Z</time>
      </trkpt>
      <trkpt lat="47.00738" lon="-0.98295">
        <ele>130.7</ele>
        <time>2025-08-25T12:08:39Z</time>
      </trkpt>
      <trkpt lat="47.00738" lon="-0.98293">
        <ele>130.7</ele>
        <time>2025-08-25T12:08:40Z</time>
      </trkpt>
      <trkpt lat="47.00738" lon="-0.98291">
        <ele>130.7</ele>
        <time>2025-08-25T12:08:41Z</time>
      </trkpt>
      <trkpt lat="47.00739" lon="-0.98289">
        <ele>130.7</ele>
        <time>2025-08-25T12:08:42Z</time>
      </trkpt>
      <trkpt lat="47.00739" lon="-0.98288">
        <ele>130.8</ele>
        <time>2025-08-25T12:08:43Z</time>
      </trkpt>
      <trkpt lat="47.00739" lon="-0.98286">
        <ele>130.8</ele>
        <time>2025-08-25T12:08:44Z</time>
      </trkpt>
      <trkpt lat="47.00739" lon="-0.98286">
        <ele>130.8</ele>
        <time>2025-08-25T12:08:45Z</time>
      </trkpt>
      <trkpt lat="47.00739" lon="-0.98286">
        <ele>130.8</ele>
        <time>2025-08-25T12:08:46Z</time>
      </trkpt>
      <trkpt lat="47.00739" lon="-0.98285">
        <ele>130.8</ele>
        <time>2025-08-25T12:08:47Z</time>
      </trkpt>
      <trkpt lat="47.00739" lon="-0.98283">
        <ele>130.9</ele>
        <time>2025-08-25T12:08:48Z</time>
      </trkpt>
      <trkpt lat="47.0074" lon="-0.98282">
        <ele>130.9</ele>
        <time>2025-08-25T12:08:49Z</time>
      </trkpt>
      <trkpt lat="47.0074" lon="-0.9828">
        <ele>130.9</ele>
        <time>2025-08-25T12:08:50Z</time>
      </trkpt>
      <trkpt lat="47.00741" lon="-0.98279">
        <ele>131</ele>
        <time>2025-08-25T12:08:51Z</time>
      </trkpt>
      <trkpt lat="47.00741" lon="-0.98278">
        <ele>131</ele>
        <time>2025-08-25T12:08:52Z</time>
      </trkpt>
      <trkpt lat="47.00741" lon="-0.98277">
        <ele>131</ele>
        <time>2025-08-25T12:08:53Z</time>
      </trkpt>
      <trkpt lat="47.00742" lon="-0.98275">
        <ele>131.1</ele>
        <time>2025-08-25T12:08:54Z</time>
      </trkpt>
      <trkpt lat="47.00742" lon="-0.98274">
        <ele>131.1</ele>
        <time>2025-08-25T12:08:55Z</time>
      </trkpt>
      <trkpt lat="47.00742" lon="-0.98273">
        <ele>131.1</ele>
        <time>2025-08-25T12:08:56Z</time>
      </trkpt>
      <trkpt lat="47.00742" lon="-0.98271">
        <ele>131.2</ele>
        <time>2025-08-25T12:08:57Z</time>
      </trkpt>
      <trkpt lat="47.00742" lon="-0.9827">
        <ele>131.2</ele>
        <time>2025-08-25T12:08:58Z</time>
      </trkpt>
      <trkpt lat="47.00741" lon="-0.98269">
        <ele>131.2</ele>
        <time>2025-08-25T12:08:59Z</time>
      </trkpt>
      <trkpt lat="47.0074" lon="-0.98267">
        <ele>131.3</ele>
        <time>2025-08-25T12:09:00Z</time>
      </trkpt>
      <trkpt lat="47.00739" lon="-0.98264">
        <ele>131.4</ele>
        <time>2025-08-25T12:09:01Z</time>
      </trkpt>
      <trkpt lat="47.00739" lon="-0.98263">
        <ele>131.4</ele>
        <time>2025-08-25T12:09:02Z</time>
      </trkpt>
      <trkpt lat="47.00739" lon="-0.98262">
        <ele>131.4</ele>
        <time>2025-08-25T12:09:03Z</time>
      </trkpt>
      <trkpt lat="47.00742" lon="-0.98261">
        <ele>131.6</ele>
        <time>2025-08-25T12:09:04Z</time>
      </trkpt>
      <trkpt lat="47.00745" lon="-0.9826">
        <ele>131.8</ele>
        <time>2025-08-25T12:09:05Z</time>
      </trkpt>
      <trkpt lat="47.00749" lon="-0.9826">
        <ele>131.9</ele>
        <time>2025-08-25T12:09:06Z</time>
      </trkpt>
      <trkpt lat="47.00754" lon="-0.9826">
        <ele>132.2</ele>
        <time>2025-08-25T12:09:07Z</time>
      </trkpt>
      <trkpt lat="47.00756" lon="-0.98259">
        <ele>132.3</ele>
        <time>2025-08-25T12:09:08Z</time>
      </trkpt>
      <trkpt lat="47.00757" lon="-0.98257">
        <ele>132.4</ele>
        <time>2025-08-25T12:09:09Z</time>
      </trkpt>
      <trkpt lat="47.00758" lon="-0.98255">
        <ele>132.4</ele>
        <time>2025-08-25T12:09:10Z</time>
      </trkpt>
      <trkpt lat="47.00759" lon="-0.98254">
        <ele>132.5</ele>
        <time>2025-08-25T12:09:11Z</time>
      </trkpt>
      <trkpt lat="47.0076" lon="-0.98252">
        <ele>132.6</ele>
        <time>2025-08-25T12:09:12Z</time>
      </trkpt>
      <trkpt lat="47.00761" lon="-0.98251">
        <ele>132.6</ele>
        <time>2025-08-25T12:09:13Z</time>
      </trkpt>
      <trkpt lat="47.00762" lon="-0.9825">
        <ele>132.7</ele>
        <time>2025-08-25T12:09:14Z</time>
      </trkpt>
      <trkpt lat="47.00763" lon="-0.98249">
        <ele>132.8</ele>
        <time>2025-08-25T12:09:15Z</time>
      </trkpt>
      <trkpt lat="47.00764" lon="-0.98248">
        <ele>132.8</ele>
        <time>2025-08-25T12:09:16Z</time>
      </trkpt>
      <trkpt lat="47.00764" lon="-0.98245">
        <ele>132.9</ele>
        <time>2025-08-25T12:09:17Z</time>
      </trkpt>
      <trkpt lat="47.00765" lon="-0.98244">
        <ele>132.9</ele>
        <time>2025-08-25T12:09:18Z</time>
      </trkpt>
      <trkpt lat="47.00765" lon="-0.98243">
        <ele>132.9</ele>
        <time>2025-08-25T12:09:19Z</time>
      </trkpt>
      <trkpt lat="47.00765" lon="-0.98241">
        <ele>133</ele>
        <time>2025-08-25T12:09:20Z</time>
      </trkpt>
      <trkpt lat="47.00766" lon="-0.98239">
        <ele>133</ele>
        <time>2025-08-25T12:09:21Z</time>
      </trkpt>
      <trkpt lat="47.00766" lon="-0.98237">
        <ele>133.1</ele>
        <time>2025-08-25T12:09:22Z</time>
      </trkpt>
      <trkpt lat="47.00767" lon="-0.98235">
        <ele>133.1</ele>
        <time>2025-08-25T12:09:23Z</time>
      </trkpt>
      <trkpt lat="47.00767" lon="-0.98233">
        <ele>133.2</ele>
        <time>2025-08-25T12:09:24Z</time>
      </trkpt>
      <trkpt lat="47.00768" lon="-0.98231">
        <ele>133.2</ele>
        <time>2025-08-25T12:09:25Z</time>
      </trkpt>
      <trkpt lat="47.00769" lon="-0.98229">
        <ele>133.3</ele>
        <time>2025-08-25T12:09:26Z</time>
      </trkpt>
      <trkpt lat="47.00769" lon="-0.98227">
        <ele>133.3</ele>
        <time>2025-08-25T12:09:27Z</time>
      </trkpt>
      <trkpt lat="47.0077" lon="-0.98226">
        <ele>133.3</ele>
        <time>2025-08-25T12:09:28Z</time>
      </trkpt>
      <trkpt lat="47.00771" lon="-0.98225">
        <ele>133.3</ele>
        <time>2025-08-25T12:09:29Z</time>
      </trkpt>
      <trkpt lat="47.00771" lon="-0.98222">
        <ele>133.4</ele>
        <time>2025-08-25T12:09:30Z</time>
      </trkpt>
      <trkpt lat="47.00771" lon="-0.98221">
        <ele>133.4</ele>
        <time>2025-08-25T12:09:31Z</time>
      </trkpt>
      <trkpt lat="47.00772" lon="-0.98219">
        <ele>133.4</ele>
        <time>2025-08-25T12:09:32Z</time>
      </trkpt>
      <trkpt lat="47.00772" lon="-0.98218">
        <ele>133.4</ele>
        <time>2025-08-25T12:09:33Z</time>
      </trkpt>
      <trkpt lat="47.00773" lon="-0.98216">
        <ele>133.4</ele>
        <time>2025-08-25T12:09:34Z</time>
      </trkpt>
      <trkpt lat="47.00774" lon="-0.98214">
        <ele>133.4</ele>
        <time>2025-08-25T12:09:35Z</time>
      </trkpt>
      <trkpt lat="47.00774" lon="-0.98211">
        <ele>133.4</ele>
        <time>2025-08-25T12:09:36Z</time>
      </trkpt>
      <trkpt lat="47.00775" lon="-0.9821">
        <ele>133.5</ele>
        <time>2025-08-25T12:09:37Z</time>
      </trkpt>
      <trkpt lat="47.00775" lon="-0.98209">
        <ele>133.5</ele>
        <time>2025-08-25T12:09:38Z</time>
      </trkpt>
      <trkpt lat="47.00775" lon="-0.98207">
        <ele>133.5</ele>
        <time>2025-08-25T12:09:39Z</time>
      </trkpt>
      <trkpt lat="47.00775" lon="-0.98205">
        <ele>133.5</ele>
        <time>2025-08-25T12:09:40Z</time>
      </trkpt>
      <trkpt lat="47.00775" lon="-0.98202">
        <ele>133.5</ele>
        <time>2025-08-25T12:09:41Z</time>
      </trkpt>
      <trkpt lat="47.00775" lon="-0.982">
        <ele>133.5</ele>
        <time>2025-08-25T12:09:42Z</time>
      </trkpt>
      <trkpt lat="47.00776" lon="-0.98199">
        <ele>133.5</ele>
        <time>2025-08-25T12:09:43Z</time>
      </trkpt>
      <trkpt lat="47.00776" lon="-0.98197">
        <ele>133.5</ele>
        <time>2025-08-25T12:09:44Z</time>
      </trkpt>
      <trkpt lat="47.00776" lon="-0.98195">
        <ele>133.5</ele>
        <time>2025-08-25T12:09:45Z</time>
      </trkpt>
      <trkpt lat="47.00776" lon="-0.98194">
        <ele>133.5</ele>
        <time>2025-08-25T12:09:46Z</time>
      </trkpt>
      <trkpt lat="47.00777" lon="-0.98191">
        <ele>133.4</ele>
        <time>2025-08-25T12:09:47Z</time>
      </trkpt>
      <trkpt lat="47.00777" lon="-0.9819">
        <ele>133.4</ele>
        <time>2025-08-25T12:09:48Z</time>
      </trkpt>
      <trkpt lat="47.00777" lon="-0.98189">
        <ele>133.4</ele>
        <time>2025-08-25T12:09:49Z</time>
      </trkpt>
      <trkpt lat="47.00776" lon="-0.98185">
        <ele>133.3</ele>
        <time>2025-08-25T12:09:50Z</time>
      </trkpt>
      <trkpt lat="47.00776" lon="-0.98184">
        <ele>133.3</ele>
        <time>2025-08-25T12:09:51Z</time>
      </trkpt>
      <trkpt lat="47.00776" lon="-0.98183">
        <ele>133.3</ele>
        <time>2025-08-25T12:09:52Z</time>
      </trkpt>
      <trkpt lat="47.00776" lon="-0.9818">
        <ele>133.2</ele>
        <time>2025-08-25T12:09:53Z</time>
      </trkpt>
      <trkpt lat="47.00776" lon="-0.98178">
        <ele>133.2</ele>
        <time>2025-08-25T12:09:54Z</time>
      </trkpt>
      <trkpt lat="47.00776" lon="-0.98177">
        <ele>133.2</ele>
        <time>2025-08-25T12:09:55Z</time>
      </trkpt>
      <trkpt lat="47.00776" lon="-0.98176">
        <ele>133.1</ele>
        <time>2025-08-25T12:09:56Z</time>
      </trkpt>
      <trkpt lat="47.00775" lon="-0.98174">
        <ele>133.1</ele>
        <time>2025-08-25T12:09:57Z</time>
      </trkpt>
      <trkpt lat="47.00775" lon="-0.98172">
        <ele>133</ele>
        <time>2025-08-25T12:09:58Z</time>
      </trkpt>
      <trkpt lat="47.00775" lon="-0.98169">
        <ele>133</ele>
        <time>2025-08-25T12:09:59Z</time>
      </trkpt>
      <trkpt lat="47.00775" lon="-0.98168">
        <ele>132.9</ele>
        <time>2025-08-25T12:10:00Z</time>
      </trkpt>
      <trkpt lat="47.00775" lon="-0.98166">
        <ele>132.9</ele>
        <time>2025-08-25T12:10:01Z</time>
      </trkpt>
      <trkpt lat="47.00775" lon="-0.98163">
        <ele>132.8</ele>
        <time>2025-08-25T12:10:02Z</time>
      </trkpt>
      <trkpt lat="47.00775" lon="-0.98162">
        <ele>132.7</ele>
        <time>2025-08-25T12:10:03Z</time>
      </trkpt>
      <trkpt lat="47.00776" lon="-0.9816">
        <ele>132.7</ele>
        <time>2025-08-25T12:10:04Z</time>
      </trkpt>
      <trkpt lat="47.00776" lon="-0.98158">
        <ele>132.6</ele>
        <time>2025-08-25T12:10:05Z</time>
      </trkpt>
      <trkpt lat="47.00776" lon="-0.98157">
        <ele>132.6</ele>
        <time>2025-08-25T12:10:06Z</time>
      </trkpt>
      <trkpt lat="47.00777" lon="-0.98153">
        <ele>132.5</ele>
        <time>2025-08-25T12:10:07Z</time>
      </trkpt>
      <trkpt lat="47.00777" lon="-0.98152">
        <ele>132.4</ele>
        <time>2025-08-25T12:10:08Z</time>
      </trkpt>
      <trkpt lat="47.00777" lon="-0.98151">
        <ele>132.4</ele>
        <time>2025-08-25T12:10:09Z</time>
      </trkpt>
      <trkpt lat="47.00777" lon="-0.98148">
        <ele>132.3</ele>
        <time>2025-08-25T12:10:10Z</time>
      </trkpt>
      <trkpt lat="47.00777" lon="-0.98147">
        <ele>132.2</ele>
        <time>2025-08-25T12:10:11Z</time>
      </trkpt>
      <trkpt lat="47.00777" lon="-0.98146">
        <ele>132.2</ele>
        <time>2025-08-25T12:10:12Z</time>
      </trkpt>
      <trkpt lat="47.00777" lon="-0.98144">
        <ele>132.1</ele>
        <time>2025-08-25T12:10:13Z</time>
      </trkpt>
      <trkpt lat="47.00778" lon="-0.98142">
        <ele>132</ele>
        <time>2025-08-25T12:10:14Z</time>
      </trkpt>
      <trkpt lat="47.00778" lon="-0.98141">
        <ele>132</ele>
        <time>2025-08-25T12:10:15Z</time>
      </trkpt>
      <trkpt lat="47.00779" lon="-0.9814">
        <ele>132</ele>
        <time>2025-08-25T12:10:16Z</time>
      </trkpt>
      <trkpt lat="47.00779" lon="-0.9814">
        <ele>131.9</ele>
        <time>2025-08-25T12:10:17Z</time>
      </trkpt>
      <trkpt lat="47.00779" lon="-0.9814">
        <ele>131.9</ele>
        <time>2025-08-25T12:10:18Z</time>
      </trkpt>
      <trkpt lat="47.00779" lon="-0.9814">
        <ele>131.9</ele>
        <time>2025-08-25T12:10:19Z</time>
      </trkpt>
      <trkpt lat="47.00779" lon="-0.98141">
        <ele>131.9</ele>
        <time>2025-08-25T12:10:20Z</time>
      </trkpt>
      <trkpt lat="47.00779" lon="-0.9814">
        <ele>131.9</ele>
        <time>2025-08-25T12:10:21Z</time>
      </trkpt>
      <trkpt lat="47.00778" lon="-0.9814">
        <ele>131.8</ele>
        <time>2025-08-25T12:10:22Z</time>
      </trkpt>
      <trkpt lat="47.00777" lon="-0.98138">
        <ele>131.8</ele>
        <time>2025-08-25T12:10:23Z</time>
      </trkpt>
      <trkpt lat="47.00776" lon="-0.98137">
        <ele>131.6</ele>
        <time>2025-08-25T12:10:24Z</time>
      </trkpt>
      <trkpt lat="47.00775" lon="-0.98136">
        <ele>131.5</ele>
        <time>2025-08-25T12:10:25Z</time>
      </trkpt>
      <trkpt lat="47.00774" lon="-0.98134">
        <ele>131.4</ele>
        <time>2025-08-25T12:10:26Z</time>
      </trkpt>
      <trkpt lat="47.00772" lon="-0.98132">
        <ele>131.3</ele>
        <time>2025-08-25T12:10:27Z</time>
      </trkpt>
      <trkpt lat="47.00772" lon="-0.98131">
        <ele>131.2</ele>
        <time>2025-08-25T12:10:28Z</time>
      </trkpt>
      <trkpt lat="47.00771" lon="-0.98131">
        <ele>131.1</ele>
        <time>2025-08-25T12:10:29Z</time>
      </trkpt>
      <trkpt lat="47.0077" lon="-0.98129">
        <ele>131</ele>
        <time>2025-08-25T12:10:30Z</time>
      </trkpt>
      <trkpt lat="47.00769" lon="-0.98128">
        <ele>130.9</ele>
        <time>2025-08-25T12:10:31Z</time>
      </trkpt>
      <trkpt lat="47.00768" lon="-0.98127">
        <ele>130.8</ele>
        <time>2025-08-25T12:10:32Z</time>
      </trkpt>
      <trkpt lat="47.00768" lon="-0.98125">
        <ele>130.7</ele>
        <time>2025-08-25T12:10:33Z</time>
      </trkpt>
      <trkpt lat="47.00767" lon="-0.98124">
        <ele>130.6</ele>
        <time>2025-08-25T12:10:34Z</time>
      </trkpt>
      <trkpt lat="47.00766" lon="-0.98122">
        <ele>130.5</ele>
        <time>2025-08-25T12:10:35Z</time>
      </trkpt>
      <trkpt lat="47.00765" lon="-0.98121">
        <ele>130.4</ele>
        <time>2025-08-25T12:10:36Z</time>
      </trkpt>
      <trkpt lat="47.00764" lon="-0.9812">
        <ele>130.4</ele>
        <time>2025-08-25T12:10:37Z</time>
      </trkpt>
      <trkpt lat="47.00763" lon="-0.98118">
        <ele>130.2</ele>
        <time>2025-08-25T12:10:38Z</time>
      </trkpt>
      <trkpt lat="47.00762" lon="-0.98117">
        <ele>130.2</ele>
        <time>2025-08-25T12:10:39Z</time>
      </trkpt>
      <trkpt lat="47.00761" lon="-0.98116">
        <ele>130.1</ele>
        <time>2025-08-25T12:10:40Z</time>
      </trkpt>
      <trkpt lat="47.00761" lon="-0.98115">
        <ele>130</ele>
        <time>2025-08-25T12:10:41Z</time>
      </trkpt>
      <trkpt lat="47.0076" lon="-0.98113">
        <ele>129.9</ele>
        <time>2025-08-25T12:10:42Z</time>
      </trkpt>
      <trkpt lat="47.00758" lon="-0.9811">
        <ele>129.8</ele>
        <time>2025-08-25T12:10:43Z</time>
      </trkpt>
      <trkpt lat="47.00758" lon="-0.98109">
        <ele>129.7</ele>
        <time>2025-08-25T12:10:44Z</time>
      </trkpt>
      <trkpt lat="47.00757" lon="-0.98108">
        <ele>129.7</ele>
        <time>2025-08-25T12:10:45Z</time>
      </trkpt>
      <trkpt lat="47.00755" lon="-0.98106">
        <ele>129.6</ele>
        <time>2025-08-25T12:10:46Z</time>
      </trkpt>
      <trkpt lat="47.00755" lon="-0.98105">
        <ele>129.5</ele>
        <time>2025-08-25T12:10:47Z</time>
      </trkpt>
      <trkpt lat="47.00754" lon="-0.98104">
        <ele>129.5</ele>
        <time>2025-08-25T12:10:48Z</time>
      </trkpt>
      <trkpt lat="47.00754" lon="-0.98102">
        <ele>129.4</ele>
        <time>2025-08-25T12:10:49Z</time>
      </trkpt>
      <trkpt lat="47.00752" lon="-0.981">
        <ele>129.3</ele>
        <time>2025-08-25T12:10:50Z</time>
      </trkpt>
      <trkpt lat="47.00752" lon="-0.98099">
        <ele>129.2</ele>
        <time>2025-08-25T12:10:51Z</time>
      </trkpt>
      <trkpt lat="47.00751" lon="-0.98097">
        <ele>129.2</ele>
        <time>2025-08-25T12:10:52Z</time>
      </trkpt>
      <trkpt lat="47.0075" lon="-0.98096">
        <ele>129.1</ele>
        <time>2025-08-25T12:10:53Z</time>
      </trkpt>
      <trkpt lat="47.00749" lon="-0.98095">
        <ele>129</ele>
        <time>2025-08-25T12:10:54Z</time>
      </trkpt>
      <trkpt lat="47.00747" lon="-0.98094">
        <ele>129</ele>
        <time>2025-08-25T12:10:55Z</time>
      </trkpt>
      <trkpt lat="47.00746" lon="-0.98094">
        <ele>128.9</ele>
        <time>2025-08-25T12:10:56Z</time>
      </trkpt>
      <trkpt lat="47.00745" lon="-0.98093">
        <ele>128.9</ele>
        <time>2025-08-25T12:10:57Z</time>
      </trkpt>
      <trkpt lat="47.00744" lon="-0.98092">
        <ele>128.8</ele>
        <time>2025-08-25T12:10:58Z</time>
      </trkpt>
      <trkpt lat="47.00742" lon="-0.98092">
        <ele>128.8</ele>
        <time>2025-08-25T12:10:59Z</time>
      </trkpt>
      <trkpt lat="47.00741" lon="-0.98092">
        <ele>128.7</ele>
        <time>2025-08-25T12:11:00Z</time>
      </trkpt>
      <trkpt lat="47.00739" lon="-0.98093">
        <ele>128.6</ele>
        <time>2025-08-25T12:11:01Z</time>
      </trkpt>
      <trkpt lat="47.00738" lon="-0.98093">
        <ele>128.6</ele>
        <time>2025-08-25T12:11:02Z</time>
      </trkpt>
      <trkpt lat="47.00737" lon="-0.98094">
        <ele>128.5</ele>
        <time>2025-08-25T12:11:03Z</time>
      </trkpt>
      <trkpt lat="47.00735" lon="-0.98095">
        <ele>128.5</ele>
        <time>2025-08-25T12:11:04Z</time>
      </trkpt>
      <trkpt lat="47.00734" lon="-0.98096">
        <ele>128.4</ele>
        <time>2025-08-25T12:11:05Z</time>
      </trkpt>
      <trkpt lat="47.00733" lon="-0.98097">
        <ele>128.4</ele>
        <time>2025-08-25T12:11:06Z</time>
      </trkpt>
      <trkpt lat="47.00732" lon="-0.98099">
        <ele>128.3</ele>
        <time>2025-08-25T12:11:07Z</time>
      </trkpt>
      <trkpt lat="47.00731" lon="-0.981">
        <ele>128.3</ele>
        <time>2025-08-25T12:11:08Z</time>
      </trkpt>
      <trkpt lat="47.0073" lon="-0.98102">
        <ele>128.3</ele>
        <time>2025-08-25T12:11:09Z</time>
      </trkpt>
      <trkpt lat="47.00729" lon="-0.98103">
        <ele>128.2</ele>
        <time>2025-08-25T12:11:10Z</time>
      </trkpt>
      <trkpt lat="47.00728" lon="-0.98105">
        <ele>128.2</ele>
        <time>2025-08-25T12:11:11Z</time>
      </trkpt>
      <trkpt lat="47.00727" lon="-0.98107">
        <ele>128.1</ele>
        <time>2025-08-25T12:11:12Z</time>
      </trkpt>
      <trkpt lat="47.00725" lon="-0.98108">
        <ele>128.1</ele>
        <time>2025-08-25T12:11:13Z</time>
      </trkpt>
      <trkpt lat="47.00724" lon="-0.98109">
        <ele>128.1</ele>
        <time>2025-08-25T12:11:14Z</time>
      </trkpt>
      <trkpt lat="47.00723" lon="-0.98111">
        <ele>128</ele>
        <time>2025-08-25T12:11:15Z</time>
      </trkpt>
      <trkpt lat="47.00722" lon="-0.98112">
        <ele>128</ele>
        <time>2025-08-25T12:11:16Z</time>
      </trkpt>
      <trkpt lat="47.00721" lon="-0.98114">
        <ele>127.9</ele>
        <time>2025-08-25T12:11:17Z</time>
      </trkpt>
      <trkpt lat="47.0072" lon="-0.98115">
        <ele>127.9</ele>
        <time>2025-08-25T12:11:18Z</time>
      </trkpt>
      <trkpt lat="47.00719" lon="-0.98116">
        <ele>127.9</ele>
        <time>2025-08-25T12:11:19Z</time>
      </trkpt>
      <trkpt lat="47.00718" lon="-0.98118">
        <ele>127.8</ele>
        <time>2025-08-25T12:11:20Z</time>
      </trkpt>
      <trkpt lat="47.00717" lon="-0.98119">
        <ele>127.8</ele>
        <time>2025-08-25T12:11:21Z</time>
      </trkpt>
      <trkpt lat="47.00716" lon="-0.98121">
        <ele>127.8</ele>
        <time>2025-08-25T12:11:22Z</time>
      </trkpt>
      <trkpt lat="47.00715" lon="-0.98122">
        <ele>127.7</ele>
        <time>2025-08-25T12:11:23Z</time>
      </trkpt>
      <trkpt lat="47.00714" lon="-0.98123">
        <ele>127.7</ele>
        <time>2025-08-25T12:11:24Z</time>
      </trkpt>
      <trkpt lat="47.00713" lon="-0.98124">
        <ele>127.7</ele>
        <time>2025-08-25T12:11:25Z</time>
      </trkpt>
      <trkpt lat="47.00711" lon="-0.98125">
        <ele>127.6</ele>
        <time>2025-08-25T12:11:26Z</time>
      </trkpt>
      <trkpt lat="47.00711" lon="-0.98126">
        <ele>127.6</ele>
        <time>2025-08-25T12:11:27Z</time>
      </trkpt>
      <trkpt lat="47.0071" lon="-0.98126">
        <ele>127.6</ele>
        <time>2025-08-25T12:11:28Z</time>
      </trkpt>
      <trkpt lat="47.00709" lon="-0.98127">
        <ele>127.6</ele>
        <time>2025-08-25T12:11:29Z</time>
      </trkpt>
      <trkpt lat="47.00707" lon="-0.98129">
        <ele>127.5</ele>
        <time>2025-08-25T12:11:30Z</time>
      </trkpt>
      <trkpt lat="47.00706" lon="-0.98129">
        <ele>127.5</ele>
        <time>2025-08-25T12:11:31Z</time>
      </trkpt>
      <trkpt lat="47.00705" lon="-0.9813">
        <ele>127.5</ele>
        <time>2025-08-25T12:11:32Z</time>
      </trkpt>
      <trkpt lat="47.00704" lon="-0.98131">
        <ele>127.5</ele>
        <time>2025-08-25T12:11:33Z</time>
      </trkpt>
      <trkpt lat="47.00703" lon="-0.98132">
        <ele>127.4</ele>
        <time>2025-08-25T12:11:34Z</time>
      </trkpt>
      <trkpt lat="47.00702" lon="-0.98134">
        <ele>127.4</ele>
        <time>2025-08-25T12:11:35Z</time>
      </trkpt>
      <trkpt lat="47.00701" lon="-0.98135">
        <ele>127.3</ele>
        <time>2025-08-25T12:11:36Z</time>
      </trkpt>
      <trkpt lat="47.007" lon="-0.98136">
        <ele>127.3</ele>
        <time>2025-08-25T12:11:37Z</time>
      </trkpt>
      <trkpt lat="47.007" lon="-0.98138">
        <ele>127.2</ele>
        <time>2025-08-25T12:11:38Z</time>
      </trkpt>
      <trkpt lat="47.00699" lon="-0.9814">
        <ele>127.2</ele>
        <time>2025-08-25T12:11:39Z</time>
      </trkpt>
      <trkpt lat="47.00698" lon="-0.98141">
        <ele>127.1</ele>
        <time>2025-08-25T12:11:40Z</time>
      </trkpt>
      <trkpt lat="47.00697" lon="-0.98142">
        <ele>127.1</ele>
        <time>2025-08-25T12:11:41Z</time>
      </trkpt>
      <trkpt lat="47.00696" lon="-0.98143">
        <ele>127</ele>
        <time>2025-08-25T12:11:42Z</time>
      </trkpt>
      <trkpt lat="47.00695" lon="-0.98144">
        <ele>127</ele>
        <time>2025-08-25T12:11:43Z</time>
      </trkpt>
      <trkpt lat="47.00694" lon="-0.98144">
        <ele>126.9</ele>
        <time>2025-08-25T12:11:44Z</time>
      </trkpt>
      <trkpt lat="47.00693" lon="-0.98145">
        <ele>126.9</ele>
        <time>2025-08-25T12:11:45Z</time>
      </trkpt>
      <trkpt lat="47.00692" lon="-0.98146">
        <ele>126.8</ele>
        <time>2025-08-25T12:11:46Z</time>
      </trkpt>
      <trkpt lat="47.00691" lon="-0.98146">
        <ele>126.8</ele>
        <time>2025-08-25T12:11:47Z</time>
      </trkpt>
      <trkpt lat="47.0069" lon="-0.98146">
        <ele>126.7</ele>
        <time>2025-08-25T12:11:48Z</time>
      </trkpt>
      <trkpt lat="47.00689" lon="-0.98146">
        <ele>126.6</ele>
        <time>2025-08-25T12:11:49Z</time>
      </trkpt>
      <trkpt lat="47.00688" lon="-0.98146">
        <ele>126.6</ele>
        <time>2025-08-25T12:11:50Z</time>
      </trkpt>
      <trkpt lat="47.00687" lon="-0.98145">
        <ele>126.5</ele>
        <time>2025-08-25T12:11:51Z</time>
      </trkpt>
      <trkpt lat="47.00686" lon="-0.98144">
        <ele>126.4</ele>
        <time>2025-08-25T12:11:52Z</time>
      </trkpt>
      <trkpt lat="47.00685" lon="-0.98144">
        <ele>126.4</ele>
        <time>2025-08-25T12:11:53Z</time>
      </trkpt>
      <trkpt lat="47.00684" lon="-0.98143">
        <ele>126.3</ele>
        <time>2025-08-25T12:11:54Z</time>
      </trkpt>
      <trkpt lat="47.00683" lon="-0.98142">
        <ele>126.2</ele>
        <time>2025-08-25T12:11:55Z</time>
      </trkpt>
      <trkpt lat="47.00681" lon="-0.9814">
        <ele>126.1</ele>
        <time>2025-08-25T12:11:56Z</time>
      </trkpt>
      <trkpt lat="47.0068" lon="-0.9814">
        <ele>126.1</ele>
        <time>2025-08-25T12:11:57Z</time>
      </trkpt>
      <trkpt lat="47.0068" lon="-0.98139">
        <ele>126</ele>
        <time>2025-08-25T12:11:58Z</time>
      </trkpt>
      <trkpt lat="47.00678" lon="-0.98138">
        <ele>125.9</ele>
        <time>2025-08-25T12:11:59Z</time>
      </trkpt>
      <trkpt lat="47.00677" lon="-0.98137">
        <ele>125.8</ele>
        <time>2025-08-25T12:12:00Z</time>
      </trkpt>
      <trkpt lat="47.00676" lon="-0.98137">
        <ele>125.8</ele>
        <time>2025-08-25T12:12:01Z</time>
      </trkpt>
      <trkpt lat="47.00675" lon="-0.98136">
        <ele>125.7</ele>
        <time>2025-08-25T12:12:02Z</time>
      </trkpt>
      <trkpt lat="47.00673" lon="-0.98135">
        <ele>125.5</ele>
        <time>2025-08-25T12:12:03Z</time>
      </trkpt>
      <trkpt lat="47.00672" lon="-0.98134">
        <ele>125.5</ele>
        <time>2025-08-25T12:12:04Z</time>
      </trkpt>
      <trkpt lat="47.00671" lon="-0.98134">
        <ele>125.4</ele>
        <time>2025-08-25T12:12:05Z</time>
      </trkpt>
      <trkpt lat="47.00669" lon="-0.98133">
        <ele>125.3</ele>
        <time>2025-08-25T12:12:06Z</time>
      </trkpt>
      <trkpt lat="47.00669" lon="-0.98132">
        <ele>125.3</ele>
        <time>2025-08-25T12:12:07Z</time>
      </trkpt>
      <trkpt lat="47.00668" lon="-0.98131">
        <ele>125.2</ele>
        <time>2025-08-25T12:12:08Z</time>
      </trkpt>
      <trkpt lat="47.00667" lon="-0.9813">
        <ele>125.1</ele>
        <time>2025-08-25T12:12:09Z</time>
      </trkpt>
      <trkpt lat="47.00666" lon="-0.9813">
        <ele>125</ele>
        <time>2025-08-25T12:12:10Z</time>
      </trkpt>
      <trkpt lat="47.00665" lon="-0.98129">
        <ele>125</ele>
        <time>2025-08-25T12:12:11Z</time>
      </trkpt>
      <trkpt lat="47.00664" lon="-0.98128">
        <ele>124.9</ele>
        <time>2025-08-25T12:12:12Z</time>
      </trkpt>
      <trkpt lat="47.00663" lon="-0.98127">
        <ele>124.8</ele>
        <time>2025-08-25T12:12:13Z</time>
      </trkpt>
      <trkpt lat="47.00661" lon="-0.98127">
        <ele>124.7</ele>
        <time>2025-08-25T12:12:14Z</time>
      </trkpt>
      <trkpt lat="47.0066" lon="-0.98127">
        <ele>124.7</ele>
        <time>2025-08-25T12:12:15Z</time>
      </trkpt>
      <trkpt lat="47.00659" lon="-0.98126">
        <ele>124.6</ele>
        <time>2025-08-25T12:12:16Z</time>
      </trkpt>
      <trkpt lat="47.00658" lon="-0.98126">
        <ele>124.5</ele>
        <time>2025-08-25T12:12:17Z</time>
      </trkpt>
      <trkpt lat="47.00657" lon="-0.98126">
        <ele>124.4</ele>
        <time>2025-08-25T12:12:18Z</time>
      </trkpt>
      <trkpt lat="47.00656" lon="-0.98125">
        <ele>124.4</ele>
        <time>2025-08-25T12:12:19Z</time>
      </trkpt>
      <trkpt lat="47.00655" lon="-0.98125">
        <ele>124.3</ele>
        <time>2025-08-25T12:12:20Z</time>
      </trkpt>
      <trkpt lat="47.00654" lon="-0.98124">
        <ele>124.2</ele>
        <time>2025-08-25T12:12:21Z</time>
      </trkpt>
      <trkpt lat="47.00653" lon="-0.98124">
        <ele>124.2</ele>
        <time>2025-08-25T12:12:22Z</time>
      </trkpt>
      <trkpt lat="47.00652" lon="-0.98124">
        <ele>124.1</ele>
        <time>2025-08-25T12:12:23Z</time>
      </trkpt>
      <trkpt lat="47.0065" lon="-0.98123">
        <ele>124</ele>
        <time>2025-08-25T12:12:24Z</time>
      </trkpt>
      <trkpt lat="47.00649" lon="-0.98123">
        <ele>123.9</ele>
        <time>2025-08-25T12:12:25Z</time>
      </trkpt>
      <trkpt lat="47.00648" lon="-0.98122">
        <ele>123.8</ele>
        <time>2025-08-25T12:12:26Z</time>
      </trkpt>
      <trkpt lat="47.00647" lon="-0.98122">
        <ele>123.8</ele>
        <time>2025-08-25T12:12:27Z</time>
      </trkpt>
      <trkpt lat="47.00646" lon="-0.98122">
        <ele>123.7</ele>
        <time>2025-08-25T12:12:28Z</time>
      </trkpt>
      <trkpt lat="47.00645" lon="-0.98121">
        <ele>123.6</ele>
        <time>2025-08-25T12:12:29Z</time>
      </trkpt>
      <trkpt lat="47.00644" lon="-0.98121">
        <ele>123.6</ele>
        <time>2025-08-25T12:12:30Z</time>
      </trkpt>
      <trkpt lat="47.00642" lon="-0.98121">
        <ele>123.5</ele>
        <time>2025-08-25T12:12:31Z</time>
      </trkpt>
      <trkpt lat="47.00641" lon="-0.9812">
        <ele>123.4</ele>
        <time>2025-08-25T12:12:32Z</time>
      </trkpt>
      <trkpt lat="47.0064" lon="-0.9812">
        <ele>123.4</ele>
        <time>2025-08-25T12:12:33Z</time>
      </trkpt>
      <trkpt lat="47.00639" lon="-0.9812">
        <ele>123.3</ele>
        <time>2025-08-25T12:12:34Z</time>
      </trkpt>
      <trkpt lat="47.00638" lon="-0.9812">
        <ele>123.2</ele>
        <time>2025-08-25T12:12:35Z</time>
      </trkpt>
      <trkpt lat="47.00636" lon="-0.9812">
        <ele>123.2</ele>
        <time>2025-08-25T12:12:36Z</time>
      </trkpt>
      <trkpt lat="47.00635" lon="-0.9812">
        <ele>123.1</ele>
        <time>2025-08-25T12:12:37Z</time>
      </trkpt>
      <trkpt lat="47.00633" lon="-0.9812">
        <ele>123</ele>
        <time>2025-08-25T12:12:38Z</time>
      </trkpt>
      <trkpt lat="47.00632" lon="-0.9812">
        <ele>123</ele>
        <time>2025-08-25T12:12:39Z</time>
      </trkpt>
      <trkpt lat="47.00631" lon="-0.9812">
        <ele>122.9</ele>
        <time>2025-08-25T12:12:40Z</time>
      </trkpt>
      <trkpt lat="47.00629" lon="-0.9812">
        <ele>122.8</ele>
        <time>2025-08-25T12:12:41Z</time>
      </trkpt>
      <trkpt lat="47.00628" lon="-0.9812">
        <ele>122.8</ele>
        <time>2025-08-25T12:12:42Z</time>
      </trkpt>
      <trkpt lat="47.00627" lon="-0.9812">
        <ele>122.7</ele>
        <time>2025-08-25T12:12:43Z</time>
      </trkpt>
      <trkpt lat="47.00625" lon="-0.9812">
        <ele>122.6</ele>
        <time>2025-08-25T12:12:44Z</time>
      </trkpt>
      <trkpt lat="47.00624" lon="-0.9812">
        <ele>122.6</ele>
        <time>2025-08-25T12:12:45Z</time>
      </trkpt>
      <trkpt lat="47.00623" lon="-0.9812">
        <ele>122.5</ele>
        <time>2025-08-25T12:12:46Z</time>
      </trkpt>
      <trkpt lat="47.00622" lon="-0.9812">
        <ele>122.5</ele>
        <time>2025-08-25T12:12:47Z</time>
      </trkpt>
      <trkpt lat="47.00621" lon="-0.98119">
        <ele>122.5</ele>
        <time>2025-08-25T12:12:48Z</time>
      </trkpt>
      <trkpt lat="47.0062" lon="-0.98118">
        <ele>122.4</ele>
        <time>2025-08-25T12:12:49Z</time>
      </trkpt>
      <trkpt lat="47.00619" lon="-0.98118">
        <ele>122.3</ele>
        <time>2025-08-25T12:12:50Z</time>
      </trkpt>
      <trkpt lat="47.00617" lon="-0.98117">
        <ele>122.3</ele>
        <time>2025-08-25T12:12:51Z</time>
      </trkpt>
      <trkpt lat="47.00615" lon="-0.98117">
        <ele>122.2</ele>
        <time>2025-08-25T12:12:52Z</time>
      </trkpt>
      <trkpt lat="47.00614" lon="-0.98117">
        <ele>122.1</ele>
        <time>2025-08-25T12:12:53Z</time>
      </trkpt>
      <trkpt lat="47.00613" lon="-0.98116">
        <ele>122.1</ele>
        <time>2025-08-25T12:12:54Z</time>
      </trkpt>
      <trkpt lat="47.00612" lon="-0.98116">
        <ele>122</ele>
        <time>2025-08-25T12:12:55Z</time>
      </trkpt>
      <trkpt lat="47.0061" lon="-0.98115">
        <ele>122</ele>
        <time>2025-08-25T12:12:56Z</time>
      </trkpt>
      <trkpt lat="47.00609" lon="-0.98115">
        <ele>121.9</ele>
        <time>2025-08-25T12:12:57Z</time>
      </trkpt>
      <trkpt lat="47.00608" lon="-0.98115">
        <ele>121.9</ele>
        <time>2025-08-25T12:12:58Z</time>
      </trkpt>
      <trkpt lat="47.00607" lon="-0.98114">
        <ele>121.8</ele>
        <time>2025-08-25T12:12:59Z</time>
      </trkpt>
      <trkpt lat="47.00606" lon="-0.98113">
        <ele>121.8</ele>
        <time>2025-08-25T12:13:00Z</time>
      </trkpt>
      <trkpt lat="47.00604" lon="-0.98112">
        <ele>121.7</ele>
        <time>2025-08-25T12:13:01Z</time>
      </trkpt>
      <trkpt lat="47.00604" lon="-0.98111">
        <ele>121.7</ele>
        <time>2025-08-25T12:13:02Z</time>
      </trkpt>
      <trkpt lat="47.00603" lon="-0.98111">
        <ele>121.7</ele>
        <time>2025-08-25T12:13:03Z</time>
      </trkpt>
      <trkpt lat="47.00601" lon="-0.98111">
        <ele>121.6</ele>
        <time>2025-08-25T12:13:04Z</time>
      </trkpt>
      <trkpt lat="47.006" lon="-0.9811">
        <ele>121.6</ele>
        <time>2025-08-25T12:13:05Z</time>
      </trkpt>
      <trkpt lat="47.00599" lon="-0.98109">
        <ele>121.5</ele>
        <time>2025-08-25T12:13:06Z</time>
      </trkpt>
      <trkpt lat="47.00598" lon="-0.98108">
        <ele>121.5</ele>
        <time>2025-08-25T12:13:07Z</time>
      </trkpt>
      <trkpt lat="47.00597" lon="-0.98108">
        <ele>121.4</ele>
        <time>2025-08-25T12:13:08Z</time>
      </trkpt>
      <trkpt lat="47.00596" lon="-0.98107">
        <ele>121.4</ele>
        <time>2025-08-25T12:13:09Z</time>
      </trkpt>
      <trkpt lat="47.00595" lon="-0.98106">
        <ele>121.4</ele>
        <time>2025-08-25T12:13:10Z</time>
      </trkpt>
      <trkpt lat="47.00593" lon="-0.98105">
        <ele>121.3</ele>
        <time>2025-08-25T12:13:11Z</time>
      </trkpt>
      <trkpt lat="47.00593" lon="-0.98104">
        <ele>121.3</ele>
        <time>2025-08-25T12:13:12Z</time>
      </trkpt>
      <trkpt lat="47.00592" lon="-0.98104">
        <ele>121.2</ele>
        <time>2025-08-25T12:13:13Z</time>
      </trkpt>
      <trkpt lat="47.00591" lon="-0.98103">
        <ele>121.2</ele>
        <time>2025-08-25T12:13:14Z</time>
      </trkpt>
      <trkpt lat="47.00589" lon="-0.98102">
        <ele>121.1</ele>
        <time>2025-08-25T12:13:15Z</time>
      </trkpt>
      <trkpt lat="47.00588" lon="-0.98101">
        <ele>121.1</ele>
        <time>2025-08-25T12:13:16Z</time>
      </trkpt>
      <trkpt lat="47.00587" lon="-0.981">
        <ele>121.1</ele>
        <time>2025-08-25T12:13:17Z</time>
      </trkpt>
      <trkpt lat="47.00586" lon="-0.98098">
        <ele>121</ele>
        <time>2025-08-25T12:13:18Z</time>
      </trkpt>
      <trkpt lat="47.00585" lon="-0.98098">
        <ele>121</ele>
        <time>2025-08-25T12:13:19Z</time>
      </trkpt>
      <trkpt lat="47.00584" lon="-0.98097">
        <ele>121</ele>
        <time>2025-08-25T12:13:20Z</time>
      </trkpt>
      <trkpt lat="47.00583" lon="-0.98097">
        <ele>120.9</ele>
        <time>2025-08-25T12:13:21Z</time>
      </trkpt>
      <trkpt lat="47.00582" lon="-0.98097">
        <ele>120.9</ele>
        <time>2025-08-25T12:13:22Z</time>
      </trkpt>
      <trkpt lat="47.00582" lon="-0.98097">
        <ele>120.9</ele>
        <time>2025-08-25T12:13:23Z</time>
      </trkpt>
      <trkpt lat="47.0058" lon="-0.98095">
        <ele>120.8</ele>
        <time>2025-08-25T12:13:24Z</time>
      </trkpt>
      <trkpt lat="47.00579" lon="-0.98094">
        <ele>120.8</ele>
        <time>2025-08-25T12:13:25Z</time>
      </trkpt>
      <trkpt lat="47.00578" lon="-0.98093">
        <ele>120.7</ele>
        <time>2025-08-25T12:13:26Z</time>
      </trkpt>
      <trkpt lat="47.00577" lon="-0.98092">
        <ele>120.7</ele>
        <time>2025-08-25T12:13:27Z</time>
      </trkpt>
      <trkpt lat="47.00576" lon="-0.98091">
        <ele>120.7</ele>
        <time>2025-08-25T12:13:28Z</time>
      </trkpt>
      <trkpt lat="47.00576" lon="-0.98089">
        <ele>120.6</ele>
        <time>2025-08-25T12:13:29Z</time>
      </trkpt>
      <trkpt lat="47.00575" lon="-0.98087">
        <ele>120.6</ele>
        <time>2025-08-25T12:13:30Z</time>
      </trkpt>
      <trkpt lat="47.00574" lon="-0.98085">
        <ele>120.5</ele>
        <time>2025-08-25T12:13:31Z</time>
      </trkpt>
      <trkpt lat="47.00573" lon="-0.98084">
        <ele>120.5</ele>
        <time>2025-08-25T12:13:32Z</time>
      </trkpt>
      <trkpt lat="47.00571" lon="-0.98083">
        <ele>120.4</ele>
        <time>2025-08-25T12:13:33Z</time>
      </trkpt>
      <trkpt lat="47.0057" lon="-0.98082">
        <ele>120.4</ele>
        <time>2025-08-25T12:13:34Z</time>
      </trkpt>
      <trkpt lat="47.00568" lon="-0.98081">
        <ele>120.3</ele>
        <time>2025-08-25T12:13:35Z</time>
      </trkpt>
      <trkpt lat="47.00566" lon="-0.9808">
        <ele>120.2</ele>
        <time>2025-08-25T12:13:36Z</time>
      </trkpt>
      <trkpt lat="47.00565" lon="-0.98079">
        <ele>120.2</ele>
        <time>2025-08-25T12:13:37Z</time>
      </trkpt>
      <trkpt lat="47.00564" lon="-0.98077">
        <ele>120.1</ele>
        <time>2025-08-25T12:13:38Z</time>
      </trkpt>
      <trkpt lat="47.00563" lon="-0.98076">
        <ele>120.1</ele>
        <time>2025-08-25T12:13:39Z</time>
      </trkpt>
      <trkpt lat="47.00563" lon="-0.98075">
        <ele>120</ele>
        <time>2025-08-25T12:13:40Z</time>
      </trkpt>
      <trkpt lat="47.00562" lon="-0.98072">
        <ele>119.9</ele>
        <time>2025-08-25T12:13:41Z</time>
      </trkpt>
      <trkpt lat="47.00561" lon="-0.98071">
        <ele>119.9</ele>
        <time>2025-08-25T12:13:42Z</time>
      </trkpt>
      <trkpt lat="47.0056" lon="-0.98068">
        <ele>119.8</ele>
        <time>2025-08-25T12:13:43Z</time>
      </trkpt>
      <trkpt lat="47.0056" lon="-0.98067">
        <ele>119.8</ele>
        <time>2025-08-25T12:13:44Z</time>
      </trkpt>
      <trkpt lat="47.00559" lon="-0.98066">
        <ele>119.8</ele>
        <time>2025-08-25T12:13:45Z</time>
      </trkpt>
      <trkpt lat="47.00558" lon="-0.98065">
        <ele>119.7</ele>
        <time>2025-08-25T12:13:46Z</time>
      </trkpt>
      <trkpt lat="47.00557" lon="-0.98064">
        <ele>119.7</ele>
        <time>2025-08-25T12:13:47Z</time>
      </trkpt>
      <trkpt lat="47.00556" lon="-0.98062">
        <ele>119.6</ele>
        <time>2025-08-25T12:13:48Z</time>
      </trkpt>
      <trkpt lat="47.00555" lon="-0.9806">
        <ele>119.6</ele>
        <time>2025-08-25T12:13:49Z</time>
      </trkpt>
      <trkpt lat="47.00555" lon="-0.98058">
        <ele>119.5</ele>
        <time>2025-08-25T12:13:50Z</time>
      </trkpt>
      <trkpt lat="47.00554" lon="-0.98056">
        <ele>119.5</ele>
        <time>2025-08-25T12:13:51Z</time>
      </trkpt>
      <trkpt lat="47.00554" lon="-0.98054">
        <ele>119.4</ele>
        <time>2025-08-25T12:13:52Z</time>
      </trkpt>
      <trkpt lat="47.00553" lon="-0.98052">
        <ele>119.4</ele>
        <time>2025-08-25T12:13:53Z</time>
      </trkpt>
      <trkpt lat="47.00553" lon="-0.9805">
        <ele>119.4</ele>
        <time>2025-08-25T12:13:54Z</time>
      </trkpt>
      <trkpt lat="47.00553" lon="-0.98047">
        <ele>119.3</ele>
        <time>2025-08-25T12:13:55Z</time>
      </trkpt>
      <trkpt lat="47.00552" lon="-0.98046">
        <ele>119.3</ele>
        <time>2025-08-25T12:13:56Z</time>
      </trkpt>
      <trkpt lat="47.00552" lon="-0.98044">
        <ele>119.3</ele>
        <time>2025-08-25T12:13:57Z</time>
      </trkpt>
      <trkpt lat="47.00551" lon="-0.98043">
        <ele>119.2</ele>
        <time>2025-08-25T12:13:58Z</time>
      </trkpt>
      <trkpt lat="47.0055" lon="-0.98042">
        <ele>119.2</ele>
        <time>2025-08-25T12:13:59Z</time>
      </trkpt>
      <trkpt lat="47.00549" lon="-0.98041">
        <ele>119.2</ele>
        <time>2025-08-25T12:14:00Z</time>
      </trkpt>
      <trkpt lat="47.00548" lon="-0.9804">
        <ele>119.2</ele>
        <time>2025-08-25T12:14:01Z</time>
      </trkpt>
      <trkpt lat="47.00547" lon="-0.98039">
        <ele>119.1</ele>
        <time>2025-08-25T12:14:02Z</time>
      </trkpt>
      <trkpt lat="47.00546" lon="-0.98037">
        <ele>119.1</ele>
        <time>2025-08-25T12:14:03Z</time>
      </trkpt>
      <trkpt lat="47.00545" lon="-0.98036">
        <ele>119.1</ele>
        <time>2025-08-25T12:14:04Z</time>
      </trkpt>
      <trkpt lat="47.00544" lon="-0.98035">
        <ele>119</ele>
        <time>2025-08-25T12:14:05Z</time>
      </trkpt>
      <trkpt lat="47.00543" lon="-0.98034">
        <ele>119</ele>
        <time>2025-08-25T12:14:06Z</time>
      </trkpt>
      <trkpt lat="47.00542" lon="-0.98033">
        <ele>119</ele>
        <time>2025-08-25T12:14:07Z</time>
      </trkpt>
      <trkpt lat="47.00541" lon="-0.98032">
        <ele>119</ele>
        <time>2025-08-25T12:14:08Z</time>
      </trkpt>
      <trkpt lat="47.0054" lon="-0.9803">
        <ele>118.9</ele>
        <time>2025-08-25T12:14:09Z</time>
      </trkpt>
      <trkpt lat="47.00539" lon="-0.9803">
        <ele>118.9</ele>
        <time>2025-08-25T12:14:10Z</time>
      </trkpt>
      <trkpt lat="47.00537" lon="-0.98028">
        <ele>118.8</ele>
        <time>2025-08-25T12:14:11Z</time>
      </trkpt>
      <trkpt lat="47.00536" lon="-0.98027">
        <ele>118.8</ele>
        <time>2025-08-25T12:14:12Z</time>
      </trkpt>
      <trkpt lat="47.00535" lon="-0.98026">
        <ele>118.8</ele>
        <time>2025-08-25T12:14:13Z</time>
      </trkpt>
      <trkpt lat="47.00534" lon="-0.98026">
        <ele>118.8</ele>
        <time>2025-08-25T12:14:14Z</time>
      </trkpt>
      <trkpt lat="47.00532" lon="-0.98025">
        <ele>118.7</ele>
        <time>2025-08-25T12:14:15Z</time>
      </trkpt>
      <trkpt lat="47.00531" lon="-0.98023">
        <ele>118.7</ele>
        <time>2025-08-25T12:14:16Z</time>
      </trkpt>
      <trkpt lat="47.0053" lon="-0.98022">
        <ele>118.7</ele>
        <time>2025-08-25T12:14:17Z</time>
      </trkpt>
      <trkpt lat="47.0053" lon="-0.98021">
        <ele>118.7</ele>
        <time>2025-08-25T12:14:18Z</time>
      </trkpt>
      <trkpt lat="47.00529" lon="-0.9802">
        <ele>118.7</ele>
        <time>2025-08-25T12:14:19Z</time>
      </trkpt>
      <trkpt lat="47.00528" lon="-0.98019">
        <ele>118.6</ele>
        <time>2025-08-25T12:14:20Z</time>
      </trkpt>
      <trkpt lat="47.00527" lon="-0.98018">
        <ele>118.6</ele>
        <time>2025-08-25T12:14:21Z</time>
      </trkpt>
      <trkpt lat="47.00526" lon="-0.98018">
        <ele>118.6</ele>
        <time>2025-08-25T12:14:22Z</time>
      </trkpt>
      <trkpt lat="47.00525" lon="-0.98017">
        <ele>118.6</ele>
        <time>2025-08-25T12:14:23Z</time>
      </trkpt>
      <trkpt lat="47.00524" lon="-0.98016">
        <ele>118.6</ele>
        <time>2025-08-25T12:14:24Z</time>
      </trkpt>
      <trkpt lat="47.00523" lon="-0.98014">
        <ele>118.6</ele>
        <time>2025-08-25T12:14:25Z</time>
      </trkpt>
      <trkpt lat="47.00522" lon="-0.98013">
        <ele>118.6</ele>
        <time>2025-08-25T12:14:26Z</time>
      </trkpt>
      <trkpt lat="47.00521" lon="-0.98012">
        <ele>118.6</ele>
        <time>2025-08-25T12:14:27Z</time>
      </trkpt>
      <trkpt lat="47.0052" lon="-0.98011">
        <ele>118.5</ele>
        <time>2025-08-25T12:14:28Z</time>
      </trkpt>
      <trkpt lat="47.00519" lon="-0.9801">
        <ele>118.5</ele>
        <time>2025-08-25T12:14:29Z</time>
      </trkpt>
      <trkpt lat="47.00517" lon="-0.98009">
        <ele>118.5</ele>
        <time>2025-08-25T12:14:30Z</time>
      </trkpt>
      <trkpt lat="47.00516" lon="-0.98008">
        <ele>118.5</ele>
        <time>2025-08-25T12:14:31Z</time>
      </trkpt>
      <trkpt lat="47.00516" lon="-0.98008">
        <ele>118.5</ele>
        <time>2025-08-25T12:14:32Z</time>
      </trkpt>
      <trkpt lat="47.00514" lon="-0.98007">
        <ele>118.5</ele>
        <time>2025-08-25T12:14:33Z</time>
      </trkpt>
      <trkpt lat="47.00513" lon="-0.98006">
        <ele>118.5</ele>
        <time>2025-08-25T12:14:34Z</time>
      </trkpt>
      <trkpt lat="47.00511" lon="-0.98004">
        <ele>118.6</ele>
        <time>2025-08-25T12:14:35Z</time>
      </trkpt>
      <trkpt lat="47.0051" lon="-0.98004">
        <ele>118.6</ele>
        <time>2025-08-25T12:14:36Z</time>
      </trkpt>
      <trkpt lat="47.00509" lon="-0.98003">
        <ele>118.6</ele>
        <time>2025-08-25T12:14:37Z</time>
      </trkpt>
      <trkpt lat="47.00508" lon="-0.98003">
        <ele>118.6</ele>
        <time>2025-08-25T12:14:38Z</time>
      </trkpt>
      <trkpt lat="47.00507" lon="-0.98002">
        <ele>118.6</ele>
        <time>2025-08-25T12:14:39Z</time>
      </trkpt>
      <trkpt lat="47.00504" lon="-0.98001">
        <ele>118.6</ele>
        <time>2025-08-25T12:14:40Z</time>
      </trkpt>
      <trkpt lat="47.00504" lon="-0.98001">
        <ele>118.6</ele>
        <time>2025-08-25T12:14:41Z</time>
      </trkpt>
      <trkpt lat="47.00503" lon="-0.98001">
        <ele>118.6</ele>
        <time>2025-08-25T12:14:42Z</time>
      </trkpt>
      <trkpt lat="47.00502" lon="-0.98">
        <ele>118.6</ele>
        <time>2025-08-25T12:14:43Z</time>
      </trkpt>
      <trkpt lat="47.005" lon="-0.98">
        <ele>118.7</ele>
        <time>2025-08-25T12:14:44Z</time>
      </trkpt>
      <trkpt lat="47.00499" lon="-0.98">
        <ele>118.7</ele>
        <time>2025-08-25T12:14:45Z</time>
      </trkpt>
      <trkpt lat="47.00497" lon="-0.97999">
        <ele>118.7</ele>
        <time>2025-08-25T12:14:46Z</time>
      </trkpt>
      <trkpt lat="47.00496" lon="-0.97999">
        <ele>118.7</ele>
        <time>2025-08-25T12:14:47Z</time>
      </trkpt>
      <trkpt lat="47.00496" lon="-0.97998">
        <ele>118.7</ele>
        <time>2025-08-25T12:14:48Z</time>
      </trkpt>
      <trkpt lat="47.00494" lon="-0.97997">
        <ele>118.7</ele>
        <time>2025-08-25T12:14:49Z</time>
      </trkpt>
      <trkpt lat="47.00493" lon="-0.97997">
        <ele>118.7</ele>
        <time>2025-08-25T12:14:50Z</time>
      </trkpt>
      <trkpt lat="47.00492" lon="-0.97997">
        <ele>118.8</ele>
        <time>2025-08-25T12:14:51Z</time>
      </trkpt>
      <trkpt lat="47.0049" lon="-0.97996">
        <ele>118.8</ele>
        <time>2025-08-25T12:14:52Z</time>
      </trkpt>
      <trkpt lat="47.00489" lon="-0.97996">
        <ele>118.8</ele>
        <time>2025-08-25T12:14:53Z</time>
      </trkpt>
      <trkpt lat="47.00488" lon="-0.97996">
        <ele>118.8</ele>
        <time>2025-08-25T12:14:54Z</time>
      </trkpt>
      <trkpt lat="47.00486" lon="-0.97995">
        <ele>118.8</ele>
        <time>2025-08-25T12:14:55Z</time>
      </trkpt>
      <trkpt lat="47.00485" lon="-0.97995">
        <ele>118.8</ele>
        <time>2025-08-25T12:14:56Z</time>
      </trkpt>
      <trkpt lat="47.00484" lon="-0.97995">
        <ele>118.9</ele>
        <time>2025-08-25T12:14:57Z</time>
      </trkpt>
      <trkpt lat="47.00483" lon="-0.97995">
        <ele>118.9</ele>
        <time>2025-08-25T12:14:58Z</time>
      </trkpt>
      <trkpt lat="47.00481" lon="-0.97994">
        <ele>118.9</ele>
        <time>2025-08-25T12:14:59Z</time>
      </trkpt>
      <trkpt lat="47.00479" lon="-0.97993">
        <ele>118.9</ele>
        <time>2025-08-25T12:15:00Z</time>
      </trkpt>
      <trkpt lat="47.00478" lon="-0.97993">
        <ele>119</ele>
        <time>2025-08-25T12:15:01Z</time>
      </trkpt>
      <trkpt lat="47.00477" lon="-0.97993">
        <ele>119</ele>
        <time>2025-08-25T12:15:02Z</time>
      </trkpt>
      <trkpt lat="47.00476" lon="-0.97992">
        <ele>119</ele>
        <time>2025-08-25T12:15:03Z</time>
      </trkpt>
      <trkpt lat="47.00474" lon="-0.97991">
        <ele>119</ele>
        <time>2025-08-25T12:15:04Z</time>
      </trkpt>
      <trkpt lat="47.00472" lon="-0.9799">
        <ele>119.1</ele>
        <time>2025-08-25T12:15:05Z</time>
      </trkpt>
      <trkpt lat="47.00471" lon="-0.9799">
        <ele>119.1</ele>
        <time>2025-08-25T12:15:06Z</time>
      </trkpt>
      <trkpt lat="47.0047" lon="-0.9799">
        <ele>119.1</ele>
        <time>2025-08-25T12:15:07Z</time>
      </trkpt>
      <trkpt lat="47.00469" lon="-0.97989">
        <ele>119.1</ele>
        <time>2025-08-25T12:15:08Z</time>
      </trkpt>
      <trkpt lat="47.00468" lon="-0.97989">
        <ele>119.2</ele>
        <time>2025-08-25T12:15:09Z</time>
      </trkpt>
      <trkpt lat="47.00466" lon="-0.97988">
        <ele>119.2</ele>
        <time>2025-08-25T12:15:10Z</time>
      </trkpt>
      <trkpt lat="47.00465" lon="-0.97987">
        <ele>119.3</ele>
        <time>2025-08-25T12:15:11Z</time>
      </trkpt>
      <trkpt lat="47.00464" lon="-0.97987">
        <ele>119.3</ele>
        <time>2025-08-25T12:15:12Z</time>
      </trkpt>
      <trkpt lat="47.00463" lon="-0.97986">
        <ele>119.3</ele>
        <time>2025-08-25T12:15:13Z</time>
      </trkpt>
      <trkpt lat="47.00462" lon="-0.97985">
        <ele>119.4</ele>
        <time>2025-08-25T12:15:14Z</time>
      </trkpt>
      <trkpt lat="47.00461" lon="-0.97985">
        <ele>119.4</ele>
        <time>2025-08-25T12:15:15Z</time>
      </trkpt>
      <trkpt lat="47.0046" lon="-0.97984">
        <ele>119.4</ele>
        <time>2025-08-25T12:15:16Z</time>
      </trkpt>
      <trkpt lat="47.00458" lon="-0.97983">
        <ele>119.5</ele>
        <time>2025-08-25T12:15:17Z</time>
      </trkpt>
      <trkpt lat="47.00457" lon="-0.97983">
        <ele>119.5</ele>
        <time>2025-08-25T12:15:18Z</time>
      </trkpt>
      <trkpt lat="47.00456" lon="-0.97982">
        <ele>119.6</ele>
        <time>2025-08-25T12:15:19Z</time>
      </trkpt>
      <trkpt lat="47.00455" lon="-0.97981">
        <ele>119.6</ele>
        <time>2025-08-25T12:15:20Z</time>
      </trkpt>
      <trkpt lat="47.00453" lon="-0.97981">
        <ele>119.7</ele>
        <time>2025-08-25T12:15:21Z</time>
      </trkpt>
      <trkpt lat="47.00451" lon="-0.97981">
        <ele>119.8</ele>
        <time>2025-08-25T12:15:22Z</time>
      </trkpt>
      <trkpt lat="47.0045" lon="-0.97981">
        <ele>119.8</ele>
        <time>2025-08-25T12:15:23Z</time>
      </trkpt>
      <trkpt lat="47.0045" lon="-0.9798">
        <ele>119.8</ele>
        <time>2025-08-25T12:15:24Z</time>
      </trkpt>
      <trkpt lat="47.00449" lon="-0.97979">
        <ele>119.9</ele>
        <time>2025-08-25T12:15:25Z</time>
      </trkpt>
      <trkpt lat="47.00449" lon="-0.97978">
        <ele>119.9</ele>
        <time>2025-08-25T12:15:26Z</time>
      </trkpt>
      <trkpt lat="47.00449" lon="-0.97977">
        <ele>119.9</ele>
        <time>2025-08-25T12:15:27Z</time>
      </trkpt>
      <trkpt lat="47.00449" lon="-0.97977">
        <ele>119.9</ele>
        <time>2025-08-25T12:15:28Z</time>
      </trkpt>
      <trkpt lat="47.00449" lon="-0.97977">
        <ele>120</ele>
        <time>2025-08-25T12:15:29Z</time>
      </trkpt>
      <trkpt lat="47.00449" lon="-0.97977">
        <ele>120</ele>
        <time>2025-08-25T12:15:30Z</time>
      </trkpt>
      <trkpt lat="47.00449" lon="-0.97976">
        <ele>120</ele>
        <time>2025-08-25T12:15:31Z</time>
      </trkpt>
      <trkpt lat="47.00449" lon="-0.97975">
        <ele>120</ele>
        <time>2025-08-25T12:15:32Z</time>
      </trkpt>
      <trkpt lat="47.00449" lon="-0.97973">
        <ele>120.1</ele>
        <time>2025-08-25T12:15:33Z</time>
      </trkpt>
      <trkpt lat="47.00449" lon="-0.97971">
        <ele>120.2</ele>
        <time>2025-08-25T12:15:34Z</time>
      </trkpt>
      <trkpt lat="47.0045" lon="-0.9797">
        <ele>120.2</ele>
        <time>2025-08-25T12:15:35Z</time>
      </trkpt>
      <trkpt lat="47.0045" lon="-0.97968">
        <ele>120.3</ele>
        <time>2025-08-25T12:15:36Z</time>
      </trkpt>
      <trkpt lat="47.0045" lon="-0.97966">
        <ele>120.4</ele>
        <time>2025-08-25T12:15:37Z</time>
      </trkpt>
      <trkpt lat="47.00451" lon="-0.97965">
        <ele>120.5</ele>
        <time>2025-08-25T12:15:38Z</time>
      </trkpt>
      <trkpt lat="47.00451" lon="-0.97963">
        <ele>120.6</ele>
        <time>2025-08-25T12:15:39Z</time>
      </trkpt>
      <trkpt lat="47.00451" lon="-0.97961">
        <ele>120.6</ele>
        <time>2025-08-25T12:15:40Z</time>
      </trkpt>
      <trkpt lat="47.00452" lon="-0.9796">
        <ele>120.7</ele>
        <time>2025-08-25T12:15:41Z</time>
      </trkpt>
      <trkpt lat="47.00452" lon="-0.97958">
        <ele>120.8</ele>
        <time>2025-08-25T12:15:42Z</time>
      </trkpt>
      <trkpt lat="47.00452" lon="-0.97957">
        <ele>120.9</ele>
        <time>2025-08-25T12:15:43Z</time>
      </trkpt>
      <trkpt lat="47.00453" lon="-0.97955">
        <ele>121</ele>
        <time>2025-08-25T12:15:44Z</time>
      </trkpt>
      <trkpt lat="47.00453" lon="-0.97954">
        <ele>121</ele>
        <time>2025-08-25T12:15:45Z</time>
      </trkpt>
      <trkpt lat="47.00453" lon="-0.97953">
        <ele>121.1</ele>
        <time>2025-08-25T12:15:46Z</time>
      </trkpt>
      <trkpt lat="47.00453" lon="-0.97951">
        <ele>121.2</ele>
        <time>2025-08-25T12:15:47Z</time>
      </trkpt>
      <trkpt lat="47.00453" lon="-0.9795">
        <ele>121.2</ele>
        <time>2025-08-25T12:15:48Z</time>
      </trkpt>
      <trkpt lat="47.00454" lon="-0.97948">
        <ele>121.3</ele>
        <time>2025-08-25T12:15:49Z</time>
      </trkpt>
      <trkpt lat="47.00454" lon="-0.97947">
        <ele>121.4</ele>
        <time>2025-08-25T12:15:50Z</time>
      </trkpt>
      <trkpt lat="47.00455" lon="-0.97946">
        <ele>121.5</ele>
        <time>2025-08-25T12:15:51Z</time>
      </trkpt>
      <trkpt lat="47.00456" lon="-0.97944">
        <ele>121.6</ele>
        <time>2025-08-25T12:15:52Z</time>
      </trkpt>
      <trkpt lat="47.00456" lon="-0.97943">
        <ele>121.7</ele>
        <time>2025-08-25T12:15:53Z</time>
      </trkpt>
      <trkpt lat="47.00457" lon="-0.9794">
        <ele>121.9</ele>
        <time>2025-08-25T12:15:54Z</time>
      </trkpt>
      <trkpt lat="47.00457" lon="-0.97939">
        <ele>122</ele>
        <time>2025-08-25T12:15:55Z</time>
      </trkpt>
      <trkpt lat="47.00457" lon="-0.97937">
        <ele>122.1</ele>
        <time>2025-08-25T12:15:56Z</time>
      </trkpt>
      <trkpt lat="47.00458" lon="-0.97935">
        <ele>122.2</ele>
        <time>2025-08-25T12:15:57Z</time>
      </trkpt>
      <trkpt lat="47.00458" lon="-0.97933">
        <ele>122.3</ele>
        <time>2025-08-25T12:15:58Z</time>
      </trkpt>
      <trkpt lat="47.00459" lon="-0.97931">
        <ele>122.5</ele>
        <time>2025-08-25T12:15:59Z</time>
      </trkpt>
      <trkpt lat="47.00459" lon="-0.9793">
        <ele>122.6</ele>
        <time>2025-08-25T12:16:00Z</time>
      </trkpt>
      <trkpt lat="47.0046" lon="-0.97928">
        <ele>122.7</ele>
        <time>2025-08-25T12:16:01Z</time>
      </trkpt>
      <trkpt lat="47.0046" lon="-0.97926">
        <ele>122.8</ele>
        <time>2025-08-25T12:16:02Z</time>
      </trkpt>
      <trkpt lat="47.00461" lon="-0.97925">
        <ele>123</ele>
        <time>2025-08-25T12:16:03Z</time>
      </trkpt>
      <trkpt lat="47.00462" lon="-0.97923">
        <ele>123.1</ele>
        <time>2025-08-25T12:16:04Z</time>
      </trkpt>
      <trkpt lat="47.00463" lon="-0.97922">
        <ele>123.2</ele>
        <time>2025-08-25T12:16:05Z</time>
      </trkpt>
      <trkpt lat="47.00463" lon="-0.9792">
        <ele>123.3</ele>
        <time>2025-08-25T12:16:06Z</time>
      </trkpt>
      <trkpt lat="47.00464" lon="-0.97919">
        <ele>123.4</ele>
        <time>2025-08-25T12:16:07Z</time>
      </trkpt>
      <trkpt lat="47.00464" lon="-0.97917">
        <ele>123.5</ele>
        <time>2025-08-25T12:16:08Z</time>
      </trkpt>
      <trkpt lat="47.00465" lon="-0.97915">
        <ele>123.7</ele>
        <time>2025-08-25T12:16:09Z</time>
      </trkpt>
      <trkpt lat="47.00465" lon="-0.97915">
        <ele>123.7</ele>
        <time>2025-08-25T12:16:10Z</time>
      </trkpt>
      <trkpt lat="47.00465" lon="-0.97913">
        <ele>123.8</ele>
        <time>2025-08-25T12:16:11Z</time>
      </trkpt>
      <trkpt lat="47.00466" lon="-0.97912">
        <ele>123.9</ele>
        <time>2025-08-25T12:16:12Z</time>
      </trkpt>
      <trkpt lat="47.00466" lon="-0.97911">
        <ele>124</ele>
        <time>2025-08-25T12:16:13Z</time>
      </trkpt>
      <trkpt lat="47.00466" lon="-0.97908">
        <ele>124.1</ele>
        <time>2025-08-25T12:16:14Z</time>
      </trkpt>
      <trkpt lat="47.00466" lon="-0.97907">
        <ele>124.2</ele>
        <time>2025-08-25T12:16:15Z</time>
      </trkpt>
      <trkpt lat="47.00466" lon="-0.97906">
        <ele>124.3</ele>
        <time>2025-08-25T12:16:16Z</time>
      </trkpt>
      <trkpt lat="47.00467" lon="-0.97904">
        <ele>124.4</ele>
        <time>2025-08-25T12:16:17Z</time>
      </trkpt>
      <trkpt lat="47.00467" lon="-0.97903">
        <ele>124.5</ele>
        <time>2025-08-25T12:16:18Z</time>
      </trkpt>
      <trkpt lat="47.00467" lon="-0.97901">
        <ele>124.6</ele>
        <time>2025-08-25T12:16:19Z</time>
      </trkpt>
      <trkpt lat="47.00468" lon="-0.979">
        <ele>124.7</ele>
        <time>2025-08-25T12:16:20Z</time>
      </trkpt>
      <trkpt lat="47.00468" lon="-0.97898">
        <ele>124.8</ele>
        <time>2025-08-25T12:16:21Z</time>
      </trkpt>
      <trkpt lat="47.00469" lon="-0.97897">
        <ele>124.9</ele>
        <time>2025-08-25T12:16:22Z</time>
      </trkpt>
      <trkpt lat="47.00471" lon="-0.97895">
        <ele>125.1</ele>
        <time>2025-08-25T12:16:23Z</time>
      </trkpt>
      <trkpt lat="47.00471" lon="-0.97894">
        <ele>125.2</ele>
        <time>2025-08-25T12:16:24Z</time>
      </trkpt>
      <trkpt lat="47.00472" lon="-0.97893">
        <ele>125.2</ele>
        <time>2025-08-25T12:16:25Z</time>
      </trkpt>
      <trkpt lat="47.00473" lon="-0.97892">
        <ele>125.3</ele>
        <time>2025-08-25T12:16:26Z</time>
      </trkpt>
      <trkpt lat="47.00474" lon="-0.97891">
        <ele>125.4</ele>
        <time>2025-08-25T12:16:27Z</time>
      </trkpt>
      <trkpt lat="47.00474" lon="-0.9789">
        <ele>125.5</ele>
        <time>2025-08-25T12:16:28Z</time>
      </trkpt>
      <trkpt lat="47.00475" lon="-0.97887">
        <ele>125.7</ele>
        <time>2025-08-25T12:16:29Z</time>
      </trkpt>
      <trkpt lat="47.00475" lon="-0.97886">
        <ele>125.7</ele>
        <time>2025-08-25T12:16:30Z</time>
      </trkpt>
      <trkpt lat="47.00475" lon="-0.97884">
        <ele>125.7</ele>
        <time>2025-08-25T12:16:31Z</time>
      </trkpt>
      <trkpt lat="47.00476" lon="-0.97881">
        <ele>125.9</ele>
        <time>2025-08-25T12:16:32Z</time>
      </trkpt>
      <trkpt lat="47.00476" lon="-0.9788">
        <ele>125.9</ele>
        <time>2025-08-25T12:16:33Z</time>
      </trkpt>
      <trkpt lat="47.00477" lon="-0.97878">
        <ele>126</ele>
        <time>2025-08-25T12:16:34Z</time>
      </trkpt>
      <trkpt lat="47.00477" lon="-0.97877">
        <ele>126</ele>
        <time>2025-08-25T12:16:35Z</time>
      </trkpt>
      <trkpt lat="47.00477" lon="-0.97874">
        <ele>126.1</ele>
        <time>2025-08-25T12:16:36Z</time>
      </trkpt>
      <trkpt lat="47.00478" lon="-0.97872">
        <ele>126.2</ele>
        <time>2025-08-25T12:16:37Z</time>
      </trkpt>
      <trkpt lat="47.00478" lon="-0.9787">
        <ele>126.2</ele>
        <time>2025-08-25T12:16:38Z</time>
      </trkpt>
      <trkpt lat="47.0048" lon="-0.97868">
        <ele>126.3</ele>
        <time>2025-08-25T12:16:39Z</time>
      </trkpt>
      <trkpt lat="47.00481" lon="-0.97867">
        <ele>126.3</ele>
        <time>2025-08-25T12:16:40Z</time>
      </trkpt>
      <trkpt lat="47.00481" lon="-0.97866">
        <ele>126.3</ele>
        <time>2025-08-25T12:16:41Z</time>
      </trkpt>
      <trkpt lat="47.00483" lon="-0.97863">
        <ele>126.3</ele>
        <time>2025-08-25T12:16:42Z</time>
      </trkpt>
      <trkpt lat="47.00483" lon="-0.97862">
        <ele>126.3</ele>
        <time>2025-08-25T12:16:43Z</time>
      </trkpt>
      <trkpt lat="47.00484" lon="-0.97861">
        <ele>126.4</ele>
        <time>2025-08-25T12:16:44Z</time>
      </trkpt>
      <trkpt lat="47.00484" lon="-0.9786">
        <ele>126.4</ele>
        <time>2025-08-25T12:16:45Z</time>
      </trkpt>
      <trkpt lat="47.00485" lon="-0.97859">
        <ele>126.4</ele>
        <time>2025-08-25T12:16:46Z</time>
      </trkpt>
      <trkpt lat="47.00486" lon="-0.97857">
        <ele>126.4</ele>
        <time>2025-08-25T12:16:47Z</time>
      </trkpt>
      <trkpt lat="47.00486" lon="-0.97856">
        <ele>126.4</ele>
        <time>2025-08-25T12:16:48Z</time>
      </trkpt>
      <trkpt lat="47.00487" lon="-0.97853">
        <ele>126.4</ele>
        <time>2025-08-25T12:16:49Z</time>
      </trkpt>
      <trkpt lat="47.00487" lon="-0.97852">
        <ele>126.4</ele>
        <time>2025-08-25T12:16:50Z</time>
      </trkpt>
      <trkpt lat="47.00488" lon="-0.97851">
        <ele>126.4</ele>
        <time>2025-08-25T12:16:51Z</time>
      </trkpt>
      <trkpt lat="47.00488" lon="-0.97849">
        <ele>126.4</ele>
        <time>2025-08-25T12:16:52Z</time>
      </trkpt>
      <trkpt lat="47.00489" lon="-0.97848">
        <ele>126.4</ele>
        <time>2025-08-25T12:16:53Z</time>
      </trkpt>
      <trkpt lat="47.0049" lon="-0.97846">
        <ele>126.4</ele>
        <time>2025-08-25T12:16:54Z</time>
      </trkpt>
      <trkpt lat="47.0049" lon="-0.97845">
        <ele>126.4</ele>
        <time>2025-08-25T12:16:55Z</time>
      </trkpt>
      <trkpt lat="47.00491" lon="-0.97844">
        <ele>126.3</ele>
        <time>2025-08-25T12:16:56Z</time>
      </trkpt>
      <trkpt lat="47.00491" lon="-0.97842">
        <ele>126.3</ele>
        <time>2025-08-25T12:16:57Z</time>
      </trkpt>
      <trkpt lat="47.00491" lon="-0.9784">
        <ele>126.3</ele>
        <time>2025-08-25T12:16:58Z</time>
      </trkpt>
      <trkpt lat="47.00491" lon="-0.97837">
        <ele>126.3</ele>
        <time>2025-08-25T12:16:59Z</time>
      </trkpt>
      <trkpt lat="47.00493" lon="-0.97835">
        <ele>126.3</ele>
        <time>2025-08-25T12:17:00Z</time>
      </trkpt>
      <trkpt lat="47.00493" lon="-0.97834">
        <ele>126.3</ele>
        <time>2025-08-25T12:17:01Z</time>
      </trkpt>
      <trkpt lat="47.00494" lon="-0.97833">
        <ele>126.3</ele>
        <time>2025-08-25T12:17:02Z</time>
      </trkpt>
      <trkpt lat="47.00495" lon="-0.97831">
        <ele>126.3</ele>
        <time>2025-08-25T12:17:03Z</time>
      </trkpt>
      <trkpt lat="47.00496" lon="-0.97829">
        <ele>126.2</ele>
        <time>2025-08-25T12:17:04Z</time>
      </trkpt>
      <trkpt lat="47.00496" lon="-0.97827">
        <ele>126.2</ele>
        <time>2025-08-25T12:17:05Z</time>
      </trkpt>
      <trkpt lat="47.00497" lon="-0.97826">
        <ele>126.2</ele>
        <time>2025-08-25T12:17:06Z</time>
      </trkpt>
      <trkpt lat="47.00498" lon="-0.97824">
        <ele>126.2</ele>
        <time>2025-08-25T12:17:07Z</time>
      </trkpt>
      <trkpt lat="47.00499" lon="-0.97822">
        <ele>126.2</ele>
        <time>2025-08-25T12:17:08Z</time>
      </trkpt>
      <trkpt lat="47.00499" lon="-0.9782">
        <ele>126.2</ele>
        <time>2025-08-25T12:17:09Z</time>
      </trkpt>
      <trkpt lat="47.005" lon="-0.97818">
        <ele>126.2</ele>
        <time>2025-08-25T12:17:10Z</time>
      </trkpt>
      <trkpt lat="47.005" lon="-0.97817">
        <ele>126.2</ele>
        <time>2025-08-25T12:17:11Z</time>
      </trkpt>
      <trkpt lat="47.00502" lon="-0.97814">
        <ele>126.2</ele>
        <time>2025-08-25T12:17:12Z</time>
      </trkpt>
      <trkpt lat="47.00502" lon="-0.97813">
        <ele>126.1</ele>
        <time>2025-08-25T12:17:13Z</time>
      </trkpt>
      <trkpt lat="47.00502" lon="-0.97812">
        <ele>126.1</ele>
        <time>2025-08-25T12:17:14Z</time>
      </trkpt>
      <trkpt lat="47.00504" lon="-0.97809">
        <ele>126.1</ele>
        <time>2025-08-25T12:17:15Z</time>
      </trkpt>
      <trkpt lat="47.00504" lon="-0.97808">
        <ele>126.1</ele>
        <time>2025-08-25T12:17:16Z</time>
      </trkpt>
      <trkpt lat="47.00505" lon="-0.97807">
        <ele>126.1</ele>
        <time>2025-08-25T12:17:17Z</time>
      </trkpt>
      <trkpt lat="47.00505" lon="-0.97806">
        <ele>126.1</ele>
        <time>2025-08-25T12:17:18Z</time>
      </trkpt>
      <trkpt lat="47.00506" lon="-0.97803">
        <ele>126.1</ele>
        <time>2025-08-25T12:17:19Z</time>
      </trkpt>
      <trkpt lat="47.00507" lon="-0.97802">
        <ele>126.1</ele>
        <time>2025-08-25T12:17:20Z</time>
      </trkpt>
      <trkpt lat="47.00507" lon="-0.97801">
        <ele>126.1</ele>
        <time>2025-08-25T12:17:21Z</time>
      </trkpt>
      <trkpt lat="47.00508" lon="-0.97799">
        <ele>126.1</ele>
        <time>2025-08-25T12:17:22Z</time>
      </trkpt>
      <trkpt lat="47.00509" lon="-0.97797">
        <ele>126</ele>
        <time>2025-08-25T12:17:23Z</time>
      </trkpt>
      <trkpt lat="47.00509" lon="-0.97795">
        <ele>126</ele>
        <time>2025-08-25T12:17:24Z</time>
      </trkpt>
      <trkpt lat="47.00509" lon="-0.97793">
        <ele>126</ele>
        <time>2025-08-25T12:17:25Z</time>
      </trkpt>
      <trkpt lat="47.00509" lon="-0.97792">
        <ele>126</ele>
        <time>2025-08-25T12:17:26Z</time>
      </trkpt>
      <trkpt lat="47.00509" lon="-0.9779">
        <ele>126</ele>
        <time>2025-08-25T12:17:27Z</time>
      </trkpt>
      <trkpt lat="47.00511" lon="-0.97789">
        <ele>126</ele>
        <time>2025-08-25T12:17:28Z</time>
      </trkpt>
      <trkpt lat="47.00512" lon="-0.97788">
        <ele>126</ele>
        <time>2025-08-25T12:17:29Z</time>
      </trkpt>
      <trkpt lat="47.00514" lon="-0.97786">
        <ele>126</ele>
        <time>2025-08-25T12:17:30Z</time>
      </trkpt>
      <trkpt lat="47.00515" lon="-0.97786">
        <ele>125.9</ele>
        <time>2025-08-25T12:17:31Z</time>
      </trkpt>
      <trkpt lat="47.00515" lon="-0.97785">
        <ele>125.9</ele>
        <time>2025-08-25T12:17:32Z</time>
      </trkpt>
      <trkpt lat="47.00516" lon="-0.97783">
        <ele>125.9</ele>
        <time>2025-08-25T12:17:33Z</time>
      </trkpt>
      <trkpt lat="47.00517" lon="-0.97782">
        <ele>125.9</ele>
        <time>2025-08-25T12:17:34Z</time>
      </trkpt>
      <trkpt lat="47.00518" lon="-0.9778">
        <ele>125.9</ele>
        <time>2025-08-25T12:17:35Z</time>
      </trkpt>
      <trkpt lat="47.00519" lon="-0.97779">
        <ele>125.9</ele>
        <time>2025-08-25T12:17:36Z</time>
      </trkpt>
      <trkpt lat="47.00519" lon="-0.97776">
        <ele>125.9</ele>
        <time>2025-08-25T12:17:37Z</time>
      </trkpt>
      <trkpt lat="47.0052" lon="-0.97774">
        <ele>125.9</ele>
        <time>2025-08-25T12:17:38Z</time>
      </trkpt>
      <trkpt lat="47.0052" lon="-0.97772">
        <ele>125.9</ele>
        <time>2025-08-25T12:17:39Z</time>
      </trkpt>
      <trkpt lat="47.00521" lon="-0.9777">
        <ele>125.9</ele>
        <time>2025-08-25T12:17:40Z</time>
      </trkpt>
      <trkpt lat="47.00521" lon="-0.97769">
        <ele>125.9</ele>
        <time>2025-08-25T12:17:41Z</time>
      </trkpt>
      <trkpt lat="47.00522" lon="-0.97766">
        <ele>125.9</ele>
        <time>2025-08-25T12:17:42Z</time>
      </trkpt>
      <trkpt lat="47.00522" lon="-0.97764">
        <ele>125.9</ele>
        <time>2025-08-25T12:17:43Z</time>
      </trkpt>
      <trkpt lat="47.00523" lon="-0.97762">
        <ele>125.9</ele>
        <time>2025-08-25T12:17:44Z</time>
      </trkpt>
      <trkpt lat="47.00523" lon="-0.9776">
        <ele>125.9</ele>
        <time>2025-08-25T12:17:45Z</time>
      </trkpt>
      <trkpt lat="47.00523" lon="-0.97758">
        <ele>125.9</ele>
        <time>2025-08-25T12:17:46Z</time>
      </trkpt>
      <trkpt lat="47.00524" lon="-0.97755">
        <ele>125.9</ele>
        <time>2025-08-25T12:17:47Z</time>
      </trkpt>
      <trkpt lat="47.00524" lon="-0.97754">
        <ele>125.9</ele>
        <time>2025-08-25T12:17:48Z</time>
      </trkpt>
      <trkpt lat="47.00524" lon="-0.97753">
        <ele>125.9</ele>
        <time>2025-08-25T12:17:49Z</time>
      </trkpt>
      <trkpt lat="47.00525" lon="-0.9775">
        <ele>125.9</ele>
        <time>2025-08-25T12:17:50Z</time>
      </trkpt>
      <trkpt lat="47.00526" lon="-0.97749">
        <ele>125.9</ele>
        <time>2025-08-25T12:17:51Z</time>
      </trkpt>
      <trkpt lat="47.00526" lon="-0.97748">
        <ele>126</ele>
        <time>2025-08-25T12:17:52Z</time>
      </trkpt>
      <trkpt lat="47.00527" lon="-0.97746">
        <ele>126</ele>
        <time>2025-08-25T12:17:53Z</time>
      </trkpt>
      <trkpt lat="47.00528" lon="-0.97744">
        <ele>126</ele>
        <time>2025-08-25T12:17:54Z</time>
      </trkpt>
      <trkpt lat="47.00529" lon="-0.97742">
        <ele>126</ele>
        <time>2025-08-25T12:17:55Z</time>
      </trkpt>
      <trkpt lat="47.0053" lon="-0.9774">
        <ele>126.1</ele>
        <time>2025-08-25T12:17:56Z</time>
      </trkpt>
      <trkpt lat="47.0053" lon="-0.97739">
        <ele>126.1</ele>
        <time>2025-08-25T12:17:57Z</time>
      </trkpt>
      <trkpt lat="47.0053" lon="-0.97737">
        <ele>126.1</ele>
        <time>2025-08-25T12:17:58Z</time>
      </trkpt>
      <trkpt lat="47.00531" lon="-0.97736">
        <ele>126.1</ele>
        <time>2025-08-25T12:17:59Z</time>
      </trkpt>
      <trkpt lat="47.00531" lon="-0.97734">
        <ele>126.2</ele>
        <time>2025-08-25T12:18:00Z</time>
      </trkpt>
      <trkpt lat="47.00532" lon="-0.97732">
        <ele>126.2</ele>
        <time>2025-08-25T12:18:01Z</time>
      </trkpt>
      <trkpt lat="47.00532" lon="-0.97731">
        <ele>126.2</ele>
        <time>2025-08-25T12:18:02Z</time>
      </trkpt>
      <trkpt lat="47.00532" lon="-0.9773">
        <ele>126.2</ele>
        <time>2025-08-25T12:18:03Z</time>
      </trkpt>
      <trkpt lat="47.00532" lon="-0.97728">
        <ele>126.2</ele>
        <time>2025-08-25T12:18:04Z</time>
      </trkpt>
      <trkpt lat="47.00532" lon="-0.97727">
        <ele>126.1</ele>
        <time>2025-08-25T12:18:05Z</time>
      </trkpt>
      <trkpt lat="47.00532" lon="-0.97726">
        <ele>126</ele>
        <time>2025-08-25T12:18:06Z</time>
      </trkpt>
      <trkpt lat="47.00532" lon="-0.97724">
        <ele>125.9</ele>
        <time>2025-08-25T12:18:07Z</time>
      </trkpt>
      <trkpt lat="47.00532" lon="-0.97721">
        <ele>125.9</ele>
        <time>2025-08-25T12:18:08Z</time>
      </trkpt>
      <trkpt lat="47.00532" lon="-0.9772">
        <ele>125.9</ele>
        <time>2025-08-25T12:18:09Z</time>
      </trkpt>
      <trkpt lat="47.00532" lon="-0.97719">
        <ele>125.9</ele>
        <time>2025-08-25T12:18:10Z</time>
      </trkpt>
      <trkpt lat="47.00532" lon="-0.97716">
        <ele>125.9</ele>
        <time>2025-08-25T12:18:11Z</time>
      </trkpt>
      <trkpt lat="47.00532" lon="-0.97714">
        <ele>125.9</ele>
        <time>2025-08-25T12:18:12Z</time>
      </trkpt>
      <trkpt lat="47.00533" lon="-0.97713">
        <ele>125.9</ele>
        <time>2025-08-25T12:18:13Z</time>
      </trkpt>
      <trkpt lat="47.00533" lon="-0.97711">
        <ele>125.9</ele>
        <time>2025-08-25T12:18:14Z</time>
      </trkpt>
      <trkpt lat="47.00533" lon="-0.97709">
        <ele>125.9</ele>
        <time>2025-08-25T12:18:15Z</time>
      </trkpt>
      <trkpt lat="47.00533" lon="-0.97707">
        <ele>125.8</ele>
        <time>2025-08-25T12:18:16Z</time>
      </trkpt>
      <trkpt lat="47.00534" lon="-0.97705">
        <ele>125.8</ele>
        <time>2025-08-25T12:18:17Z</time>
      </trkpt>
      <trkpt lat="47.00534" lon="-0.97703">
        <ele>125.8</ele>
        <time>2025-08-25T12:18:18Z</time>
      </trkpt>
      <trkpt lat="47.00535" lon="-0.97701">
        <ele>125.8</ele>
        <time>2025-08-25T12:18:19Z</time>
      </trkpt>
      <trkpt lat="47.00535" lon="-0.97698">
        <ele>125.8</ele>
        <time>2025-08-25T12:18:20Z</time>
      </trkpt>
      <trkpt lat="47.00536" lon="-0.97697">
        <ele>125.8</ele>
        <time>2025-08-25T12:18:21Z</time>
      </trkpt>
      <trkpt lat="47.00536" lon="-0.97696">
        <ele>125.8</ele>
        <time>2025-08-25T12:18:22Z</time>
      </trkpt>
      <trkpt lat="47.00536" lon="-0.97693">
        <ele>125.7</ele>
        <time>2025-08-25T12:18:23Z</time>
      </trkpt>
      <trkpt lat="47.00537" lon="-0.97691">
        <ele>125.7</ele>
        <time>2025-08-25T12:18:24Z</time>
      </trkpt>
      <trkpt lat="47.00537" lon="-0.9769">
        <ele>125.7</ele>
        <time>2025-08-25T12:18:25Z</time>
      </trkpt>
      <trkpt lat="47.00537" lon="-0.97688">
        <ele>125.7</ele>
        <time>2025-08-25T12:18:26Z</time>
      </trkpt>
      <trkpt lat="47.00537" lon="-0.97687">
        <ele>125.7</ele>
        <time>2025-08-25T12:18:27Z</time>
      </trkpt>
      <trkpt lat="47.00537" lon="-0.97685">
        <ele>125.7</ele>
        <time>2025-08-25T12:18:28Z</time>
      </trkpt>
      <trkpt lat="47.00537" lon="-0.97682">
        <ele>125.7</ele>
        <time>2025-08-25T12:18:29Z</time>
      </trkpt>
      <trkpt lat="47.00537" lon="-0.97681">
        <ele>125.7</ele>
        <time>2025-08-25T12:18:30Z</time>
      </trkpt>
      <trkpt lat="47.00537" lon="-0.9768">
        <ele>125.7</ele>
        <time>2025-08-25T12:18:31Z</time>
      </trkpt>
      <trkpt lat="47.00537" lon="-0.97677">
        <ele>125.6</ele>
        <time>2025-08-25T12:18:32Z</time>
      </trkpt>
      <trkpt lat="47.00537" lon="-0.97675">
        <ele>125.6</ele>
        <time>2025-08-25T12:18:33Z</time>
      </trkpt>
      <trkpt lat="47.00537" lon="-0.97674">
        <ele>125.6</ele>
        <time>2025-08-25T12:18:34Z</time>
      </trkpt>
      <trkpt lat="47.00537" lon="-0.97672">
        <ele>125.6</ele>
        <time>2025-08-25T12:18:35Z</time>
      </trkpt>
      <trkpt lat="47.00537" lon="-0.9767">
        <ele>125.6</ele>
        <time>2025-08-25T12:18:36Z</time>
      </trkpt>
      <trkpt lat="47.00537" lon="-0.97668">
        <ele>125.6</ele>
        <time>2025-08-25T12:18:37Z</time>
      </trkpt>
      <trkpt lat="47.00537" lon="-0.97666">
        <ele>125.6</ele>
        <time>2025-08-25T12:18:38Z</time>
      </trkpt>
      <trkpt lat="47.00537" lon="-0.97664">
        <ele>125.5</ele>
        <time>2025-08-25T12:18:39Z</time>
      </trkpt>
      <trkpt lat="47.00536" lon="-0.97662">
        <ele>125.5</ele>
        <time>2025-08-25T12:18:40Z</time>
      </trkpt>
      <trkpt lat="47.00535" lon="-0.9766">
        <ele>125.5</ele>
        <time>2025-08-25T12:18:41Z</time>
      </trkpt>
      <trkpt lat="47.00535" lon="-0.97658">
        <ele>125.5</ele>
        <time>2025-08-25T12:18:42Z</time>
      </trkpt>
      <trkpt lat="47.00534" lon="-0.97656">
        <ele>125.4</ele>
        <time>2025-08-25T12:18:43Z</time>
      </trkpt>
      <trkpt lat="47.00534" lon="-0.97655">
        <ele>125.4</ele>
        <time>2025-08-25T12:18:44Z</time>
      </trkpt>
      <trkpt lat="47.00534" lon="-0.97652">
        <ele>125.4</ele>
        <time>2025-08-25T12:18:45Z</time>
      </trkpt>
      <trkpt lat="47.00533" lon="-0.9765">
        <ele>125.4</ele>
        <time>2025-08-25T12:18:46Z</time>
      </trkpt>
      <trkpt lat="47.00533" lon="-0.97649">
        <ele>125.3</ele>
        <time>2025-08-25T12:18:47Z</time>
      </trkpt>
      <trkpt lat="47.00533" lon="-0.97647">
        <ele>125.3</ele>
        <time>2025-08-25T12:18:48Z</time>
      </trkpt>
      <trkpt lat="47.00533" lon="-0.97645">
        <ele>125.3</ele>
        <time>2025-08-25T12:18:49Z</time>
      </trkpt>
      <trkpt lat="47.00533" lon="-0.97643">
        <ele>125.2</ele>
        <time>2025-08-25T12:18:50Z</time>
      </trkpt>
      <trkpt lat="47.00533" lon="-0.97641">
        <ele>125.2</ele>
        <time>2025-08-25T12:18:51Z</time>
      </trkpt>
      <trkpt lat="47.00533" lon="-0.97639">
        <ele>125.2</ele>
        <time>2025-08-25T12:18:52Z</time>
      </trkpt>
      <trkpt lat="47.00533" lon="-0.97637">
        <ele>125.1</ele>
        <time>2025-08-25T12:18:53Z</time>
      </trkpt>
      <trkpt lat="47.00534" lon="-0.97633">
        <ele>125.1</ele>
        <time>2025-08-25T12:18:54Z</time>
      </trkpt>
      <trkpt lat="47.00534" lon="-0.97632">
        <ele>125.1</ele>
        <time>2025-08-25T12:18:55Z</time>
      </trkpt>
      <trkpt lat="47.00534" lon="-0.9763">
        <ele>125</ele>
        <time>2025-08-25T12:18:56Z</time>
      </trkpt>
      <trkpt lat="47.00534" lon="-0.97629">
        <ele>125</ele>
        <time>2025-08-25T12:18:57Z</time>
      </trkpt>
      <trkpt lat="47.00534" lon="-0.97627">
        <ele>125</ele>
        <time>2025-08-25T12:18:58Z</time>
      </trkpt>
      <trkpt lat="47.00535" lon="-0.97623">
        <ele>124.9</ele>
        <time>2025-08-25T12:18:59Z</time>
      </trkpt>
      <trkpt lat="47.00535" lon="-0.97622">
        <ele>124.9</ele>
        <time>2025-08-25T12:19:00Z</time>
      </trkpt>
      <trkpt lat="47.00535" lon="-0.97621">
        <ele>124.9</ele>
        <time>2025-08-25T12:19:01Z</time>
      </trkpt>
      <trkpt lat="47.00536" lon="-0.97619">
        <ele>124.8</ele>
        <time>2025-08-25T12:19:02Z</time>
      </trkpt>
      <trkpt lat="47.00537" lon="-0.97618">
        <ele>124.8</ele>
        <time>2025-08-25T12:19:03Z</time>
      </trkpt>
      <trkpt lat="47.00537" lon="-0.97616">
        <ele>124.8</ele>
        <time>2025-08-25T12:19:04Z</time>
      </trkpt>
      <trkpt lat="47.00539" lon="-0.97615">
        <ele>124.7</ele>
        <time>2025-08-25T12:19:05Z</time>
      </trkpt>
      <trkpt lat="47.0054" lon="-0.97612">
        <ele>124.7</ele>
        <time>2025-08-25T12:19:06Z</time>
      </trkpt>
      <trkpt lat="47.0054" lon="-0.97611">
        <ele>124.7</ele>
        <time>2025-08-25T12:19:07Z</time>
      </trkpt>
      <trkpt lat="47.00541" lon="-0.9761">
        <ele>124.6</ele>
        <time>2025-08-25T12:19:08Z</time>
      </trkpt>
      <trkpt lat="47.00541" lon="-0.97607">
        <ele>124.6</ele>
        <time>2025-08-25T12:19:09Z</time>
      </trkpt>
      <trkpt lat="47.00541" lon="-0.97606">
        <ele>124.5</ele>
        <time>2025-08-25T12:19:10Z</time>
      </trkpt>
      <trkpt lat="47.00541" lon="-0.97605">
        <ele>124.5</ele>
        <time>2025-08-25T12:19:11Z</time>
      </trkpt>
      <trkpt lat="47.0054" lon="-0.97603">
        <ele>124.4</ele>
        <time>2025-08-25T12:19:12Z</time>
      </trkpt>
      <trkpt lat="47.0054" lon="-0.97601">
        <ele>124.4</ele>
        <time>2025-08-25T12:19:13Z</time>
      </trkpt>
      <trkpt lat="47.0054" lon="-0.97598">
        <ele>124.3</ele>
        <time>2025-08-25T12:19:14Z</time>
      </trkpt>
      <trkpt lat="47.0054" lon="-0.97596">
        <ele>124.3</ele>
        <time>2025-08-25T12:19:15Z</time>
      </trkpt>
      <trkpt lat="47.00539" lon="-0.97595">
        <ele>124.3</ele>
        <time>2025-08-25T12:19:16Z</time>
      </trkpt>
      <trkpt lat="47.00539" lon="-0.97593">
        <ele>124.2</ele>
        <time>2025-08-25T12:19:17Z</time>
      </trkpt>
      <trkpt lat="47.00539" lon="-0.97591">
        <ele>124.2</ele>
        <time>2025-08-25T12:19:18Z</time>
      </trkpt>
      <trkpt lat="47.00538" lon="-0.97589">
        <ele>124.1</ele>
        <time>2025-08-25T12:19:19Z</time>
      </trkpt>
      <trkpt lat="47.00538" lon="-0.97587">
        <ele>124.1</ele>
        <time>2025-08-25T12:19:20Z</time>
      </trkpt>
      <trkpt lat="47.00538" lon="-0.97585">
        <ele>124</ele>
        <time>2025-08-25T12:19:21Z</time>
      </trkpt>
      <trkpt lat="47.00538" lon="-0.97583">
        <ele>124</ele>
        <time>2025-08-25T12:19:22Z</time>
      </trkpt>
      <trkpt lat="47.00537" lon="-0.9758">
        <ele>123.9</ele>
        <time>2025-08-25T12:19:23Z</time>
      </trkpt>
      <trkpt lat="47.00537" lon="-0.97579">
        <ele>123.9</ele>
        <time>2025-08-25T12:19:24Z</time>
      </trkpt>
      <trkpt lat="47.00537" lon="-0.97577">
        <ele>123.8</ele>
        <time>2025-08-25T12:19:25Z</time>
      </trkpt>
      <trkpt lat="47.00537" lon="-0.97574">
        <ele>123.8</ele>
        <time>2025-08-25T12:19:26Z</time>
      </trkpt>
      <trkpt lat="47.00537" lon="-0.97573">
        <ele>123.7</ele>
        <time>2025-08-25T12:19:27Z</time>
      </trkpt>
      <trkpt lat="47.00537" lon="-0.97571">
        <ele>123.7</ele>
        <time>2025-08-25T12:19:28Z</time>
      </trkpt>
      <trkpt lat="47.00537" lon="-0.97568">
        <ele>123.6</ele>
        <time>2025-08-25T12:19:29Z</time>
      </trkpt>
      <trkpt lat="47.00536" lon="-0.97567">
        <ele>123.6</ele>
        <time>2025-08-25T12:19:30Z</time>
      </trkpt>
      <trkpt lat="47.00536" lon="-0.97566">
        <ele>123.6</ele>
        <time>2025-08-25T12:19:31Z</time>
      </trkpt>
      <trkpt lat="47.00536" lon="-0.97563">
        <ele>123.5</ele>
        <time>2025-08-25T12:19:32Z</time>
      </trkpt>
      <trkpt lat="47.00535" lon="-0.97562">
        <ele>123.5</ele>
        <time>2025-08-25T12:19:33Z</time>
      </trkpt>
      <trkpt lat="47.00535" lon="-0.9756">
        <ele>123.5</ele>
        <time>2025-08-25T12:19:34Z</time>
      </trkpt>
      <trkpt lat="47.00534" lon="-0.97559">
        <ele>123.4</ele>
        <time>2025-08-25T12:19:35Z</time>
      </trkpt>
      <trkpt lat="47.00533" lon="-0.97555">
        <ele>123.4</ele>
        <time>2025-08-25T12:19:37Z</time>
      </trkpt>
      <trkpt lat="47.00532" lon="-0.97554">
        <ele>123.3</ele>
        <time>2025-08-25T12:19:38Z</time>
      </trkpt>
      <trkpt lat="47.00532" lon="-0.97552">
        <ele>123.3</ele>
        <time>2025-08-25T12:19:39Z</time>
      </trkpt>
      <trkpt lat="47.00531" lon="-0.97551">
        <ele>123.2</ele>
        <time>2025-08-25T12:19:40Z</time>
      </trkpt>
      <trkpt lat="47.00531" lon="-0.97549">
        <ele>123.2</ele>
        <time>2025-08-25T12:19:41Z</time>
      </trkpt>
      <trkpt lat="47.00531" lon="-0.97547">
        <ele>123.2</ele>
        <time>2025-08-25T12:19:42Z</time>
      </trkpt>
      <trkpt lat="47.00529" lon="-0.97545">
        <ele>123.1</ele>
        <time>2025-08-25T12:19:43Z</time>
      </trkpt>
      <trkpt lat="47.00529" lon="-0.97544">
        <ele>123.1</ele>
        <time>2025-08-25T12:19:44Z</time>
      </trkpt>
      <trkpt lat="47.00528" lon="-0.97543">
        <ele>123.1</ele>
        <time>2025-08-25T12:19:45Z</time>
      </trkpt>
      <trkpt lat="47.00527" lon="-0.97541">
        <ele>123</ele>
        <time>2025-08-25T12:19:46Z</time>
      </trkpt>
      <trkpt lat="47.00526" lon="-0.9754">
        <ele>123</ele>
        <time>2025-08-25T12:19:47Z</time>
      </trkpt>
      <trkpt lat="47.00526" lon="-0.97539">
        <ele>123</ele>
        <time>2025-08-25T12:19:48Z</time>
      </trkpt>
      <trkpt lat="47.00525" lon="-0.97537">
        <ele>123</ele>
        <time>2025-08-25T12:19:49Z</time>
      </trkpt>
      <trkpt lat="47.00524" lon="-0.97537">
        <ele>122.9</ele>
        <time>2025-08-25T12:19:50Z</time>
      </trkpt>
      <trkpt lat="47.00523" lon="-0.97535">
        <ele>122.9</ele>
        <time>2025-08-25T12:19:51Z</time>
      </trkpt>
      <trkpt lat="47.00522" lon="-0.97533">
        <ele>122.9</ele>
        <time>2025-08-25T12:19:52Z</time>
      </trkpt>
      <trkpt lat="47.00522" lon="-0.97532">
        <ele>122.8</ele>
        <time>2025-08-25T12:19:53Z</time>
      </trkpt>
      <trkpt lat="47.00521" lon="-0.97531">
        <ele>122.8</ele>
        <time>2025-08-25T12:19:54Z</time>
      </trkpt>
      <trkpt lat="47.00519" lon="-0.97529">
        <ele>122.8</ele>
        <time>2025-08-25T12:19:55Z</time>
      </trkpt>
      <trkpt lat="47.00519" lon="-0.97528">
        <ele>122.8</ele>
        <time>2025-08-25T12:19:56Z</time>
      </trkpt>
      <trkpt lat="47.00518" lon="-0.97527">
        <ele>122.7</ele>
        <time>2025-08-25T12:19:57Z</time>
      </trkpt>
      <trkpt lat="47.00517" lon="-0.97524">
        <ele>122.7</ele>
        <time>2025-08-25T12:19:58Z</time>
      </trkpt>
      <trkpt lat="47.00517" lon="-0.97523">
        <ele>122.7</ele>
        <time>2025-08-25T12:19:59Z</time>
      </trkpt>
      <trkpt lat="47.00516" lon="-0.97522">
        <ele>122.6</ele>
        <time>2025-08-25T12:20:00Z</time>
      </trkpt>
      <trkpt lat="47.00515" lon="-0.9752">
        <ele>122.6</ele>
        <time>2025-08-25T12:20:01Z</time>
      </trkpt>
      <trkpt lat="47.00514" lon="-0.97519">
        <ele>122.6</ele>
        <time>2025-08-25T12:20:02Z</time>
      </trkpt>
      <trkpt lat="47.00514" lon="-0.97517">
        <ele>122.6</ele>
        <time>2025-08-25T12:20:03Z</time>
      </trkpt>
      <trkpt lat="47.00513" lon="-0.97515">
        <ele>122.5</ele>
        <time>2025-08-25T12:20:04Z</time>
      </trkpt>
      <trkpt lat="47.00512" lon="-0.97514">
        <ele>122.5</ele>
        <time>2025-08-25T12:20:05Z</time>
      </trkpt>
      <trkpt lat="47.00512" lon="-0.97513">
        <ele>122.5</ele>
        <time>2025-08-25T12:20:06Z</time>
      </trkpt>
      <trkpt lat="47.0051" lon="-0.9751">
        <ele>122.4</ele>
        <time>2025-08-25T12:20:07Z</time>
      </trkpt>
      <trkpt lat="47.0051" lon="-0.97509">
        <ele>122.4</ele>
        <time>2025-08-25T12:20:08Z</time>
      </trkpt>
      <trkpt lat="47.0051" lon="-0.97508">
        <ele>122.4</ele>
        <time>2025-08-25T12:20:09Z</time>
      </trkpt>
      <trkpt lat="47.00509" lon="-0.97507">
        <ele>122.4</ele>
        <time>2025-08-25T12:20:10Z</time>
      </trkpt>
      <trkpt lat="47.00508" lon="-0.97507">
        <ele>122.3</ele>
        <time>2025-08-25T12:20:11Z</time>
      </trkpt>
      <trkpt lat="47.00507" lon="-0.97505">
        <ele>122.3</ele>
        <time>2025-08-25T12:20:12Z</time>
      </trkpt>
      <trkpt lat="47.00506" lon="-0.97504">
        <ele>122.3</ele>
        <time>2025-08-25T12:20:13Z</time>
      </trkpt>
      <trkpt lat="47.00506" lon="-0.97503">
        <ele>122.3</ele>
        <time>2025-08-25T12:20:14Z</time>
      </trkpt>
      <trkpt lat="47.00505" lon="-0.97502">
        <ele>122.2</ele>
        <time>2025-08-25T12:20:15Z</time>
      </trkpt>
      <trkpt lat="47.00503" lon="-0.975">
        <ele>122.2</ele>
        <time>2025-08-25T12:20:16Z</time>
      </trkpt>
      <trkpt lat="47.00502" lon="-0.97499">
        <ele>122.2</ele>
        <time>2025-08-25T12:20:17Z</time>
      </trkpt>
      <trkpt lat="47.00502" lon="-0.97499">
        <ele>122.1</ele>
        <time>2025-08-25T12:20:18Z</time>
      </trkpt>
      <trkpt lat="47.005" lon="-0.97497">
        <ele>122.1</ele>
        <time>2025-08-25T12:20:19Z</time>
      </trkpt>
      <trkpt lat="47.00499" lon="-0.97496">
        <ele>122.1</ele>
        <time>2025-08-25T12:20:20Z</time>
      </trkpt>
      <trkpt lat="47.00497" lon="-0.97495">
        <ele>122</ele>
        <time>2025-08-25T12:20:21Z</time>
      </trkpt>
      <trkpt lat="47.00497" lon="-0.97494">
        <ele>122</ele>
        <time>2025-08-25T12:20:22Z</time>
      </trkpt>
      <trkpt lat="47.00496" lon="-0.97493">
        <ele>122</ele>
        <time>2025-08-25T12:20:23Z</time>
      </trkpt>
      <trkpt lat="47.00495" lon="-0.97491">
        <ele>121.9</ele>
        <time>2025-08-25T12:20:24Z</time>
      </trkpt>
      <trkpt lat="47.00494" lon="-0.9749">
        <ele>121.9</ele>
        <time>2025-08-25T12:20:25Z</time>
      </trkpt>
      <trkpt lat="47.00493" lon="-0.97489">
        <ele>121.9</ele>
        <time>2025-08-25T12:20:26Z</time>
      </trkpt>
      <trkpt lat="47.00492" lon="-0.97488">
        <ele>121.9</ele>
        <time>2025-08-25T12:20:27Z</time>
      </trkpt>
      <trkpt lat="47.00492" lon="-0.97487">
        <ele>121.8</ele>
        <time>2025-08-25T12:20:28Z</time>
      </trkpt>
      <trkpt lat="47.00491" lon="-0.97486">
        <ele>121.8</ele>
        <time>2025-08-25T12:20:29Z</time>
      </trkpt>
      <trkpt lat="47.0049" lon="-0.97484">
        <ele>121.8</ele>
        <time>2025-08-25T12:20:30Z</time>
      </trkpt>
      <trkpt lat="47.0049" lon="-0.97483">
        <ele>121.7</ele>
        <time>2025-08-25T12:20:31Z</time>
      </trkpt>
      <trkpt lat="47.00489" lon="-0.97482">
        <ele>121.7</ele>
        <time>2025-08-25T12:20:32Z</time>
      </trkpt>
      <trkpt lat="47.00488" lon="-0.97481">
        <ele>121.7</ele>
        <time>2025-08-25T12:20:33Z</time>
      </trkpt>
      <trkpt lat="47.00488" lon="-0.9748">
        <ele>121.6</ele>
        <time>2025-08-25T12:20:34Z</time>
      </trkpt>
      <trkpt lat="47.00487" lon="-0.97479">
        <ele>121.6</ele>
        <time>2025-08-25T12:20:35Z</time>
      </trkpt>
      <trkpt lat="47.00487" lon="-0.97478">
        <ele>121.6</ele>
        <time>2025-08-25T12:20:36Z</time>
      </trkpt>
      <trkpt lat="47.00485" lon="-0.97476">
        <ele>121.5</ele>
        <time>2025-08-25T12:20:37Z</time>
      </trkpt>
      <trkpt lat="47.00484" lon="-0.97475">
        <ele>121.5</ele>
        <time>2025-08-25T12:20:38Z</time>
      </trkpt>
      <trkpt lat="47.00484" lon="-0.97474">
        <ele>121.5</ele>
        <time>2025-08-25T12:20:39Z</time>
      </trkpt>
      <trkpt lat="47.00482" lon="-0.97472">
        <ele>121.4</ele>
        <time>2025-08-25T12:20:40Z</time>
      </trkpt>
      <trkpt lat="47.00481" lon="-0.97471">
        <ele>121.4</ele>
        <time>2025-08-25T12:20:41Z</time>
      </trkpt>
      <trkpt lat="47.0048" lon="-0.9747">
        <ele>121.3</ele>
        <time>2025-08-25T12:20:42Z</time>
      </trkpt>
      <trkpt lat="47.00479" lon="-0.97469">
        <ele>121.3</ele>
        <time>2025-08-25T12:20:43Z</time>
      </trkpt>
      <trkpt lat="47.00478" lon="-0.97468">
        <ele>121.2</ele>
        <time>2025-08-25T12:20:44Z</time>
      </trkpt>
      <trkpt lat="47.00477" lon="-0.97467">
        <ele>121.2</ele>
        <time>2025-08-25T12:20:45Z</time>
      </trkpt>
      <trkpt lat="47.00476" lon="-0.97465">
        <ele>121.1</ele>
        <time>2025-08-25T12:20:46Z</time>
      </trkpt>
      <trkpt lat="47.00475" lon="-0.97464">
        <ele>121.1</ele>
        <time>2025-08-25T12:20:47Z</time>
      </trkpt>
      <trkpt lat="47.00474" lon="-0.97463">
        <ele>121</ele>
        <time>2025-08-25T12:20:48Z</time>
      </trkpt>
      <trkpt lat="47.00472" lon="-0.97461">
        <ele>120.9</ele>
        <time>2025-08-25T12:20:49Z</time>
      </trkpt>
      <trkpt lat="47.00471" lon="-0.9746">
        <ele>120.9</ele>
        <time>2025-08-25T12:20:50Z</time>
      </trkpt>
      <trkpt lat="47.00471" lon="-0.9746">
        <ele>120.9</ele>
        <time>2025-08-25T12:20:51Z</time>
      </trkpt>
      <trkpt lat="47.00469" lon="-0.97458">
        <ele>120.8</ele>
        <time>2025-08-25T12:20:52Z</time>
      </trkpt>
      <trkpt lat="47.00468" lon="-0.97457">
        <ele>120.8</ele>
        <time>2025-08-25T12:20:53Z</time>
      </trkpt>
      <trkpt lat="47.00468" lon="-0.97456">
        <ele>120.7</ele>
        <time>2025-08-25T12:20:54Z</time>
      </trkpt>
      <trkpt lat="47.00467" lon="-0.97455">
        <ele>120.7</ele>
        <time>2025-08-25T12:20:55Z</time>
      </trkpt>
      <trkpt lat="47.00466" lon="-0.97454">
        <ele>120.7</ele>
        <time>2025-08-25T12:20:56Z</time>
      </trkpt>
      <trkpt lat="47.00465" lon="-0.97453">
        <ele>120.6</ele>
        <time>2025-08-25T12:20:57Z</time>
      </trkpt>
      <trkpt lat="47.00464" lon="-0.9745">
        <ele>120.6</ele>
        <time>2025-08-25T12:20:58Z</time>
      </trkpt>
      <trkpt lat="47.00464" lon="-0.9745">
        <ele>120.5</ele>
        <time>2025-08-25T12:20:59Z</time>
      </trkpt>
      <trkpt lat="47.00463" lon="-0.97449">
        <ele>120.5</ele>
        <time>2025-08-25T12:21:00Z</time>
      </trkpt>
      <trkpt lat="47.00462" lon="-0.97447">
        <ele>120.5</ele>
        <time>2025-08-25T12:21:01Z</time>
      </trkpt>
      <trkpt lat="47.00461" lon="-0.97446">
        <ele>120.4</ele>
        <time>2025-08-25T12:21:02Z</time>
      </trkpt>
      <trkpt lat="47.00459" lon="-0.97444">
        <ele>120.3</ele>
        <time>2025-08-25T12:21:03Z</time>
      </trkpt>
      <trkpt lat="47.00458" lon="-0.97443">
        <ele>120.3</ele>
        <time>2025-08-25T12:21:04Z</time>
      </trkpt>
      <trkpt lat="47.00456" lon="-0.97441">
        <ele>120.2</ele>
        <time>2025-08-25T12:21:05Z</time>
      </trkpt>
      <trkpt lat="47.00455" lon="-0.9744">
        <ele>120.2</ele>
        <time>2025-08-25T12:21:06Z</time>
      </trkpt>
      <trkpt lat="47.00455" lon="-0.97439">
        <ele>120.2</ele>
        <time>2025-08-25T12:21:07Z</time>
      </trkpt>
      <trkpt lat="47.00453" lon="-0.97437">
        <ele>120.1</ele>
        <time>2025-08-25T12:21:08Z</time>
      </trkpt>
      <trkpt lat="47.00452" lon="-0.97436">
        <ele>120.1</ele>
        <time>2025-08-25T12:21:09Z</time>
      </trkpt>
      <trkpt lat="47.00452" lon="-0.97435">
        <ele>120.1</ele>
        <time>2025-08-25T12:21:10Z</time>
      </trkpt>
      <trkpt lat="47.00451" lon="-0.97434">
        <ele>120.1</ele>
        <time>2025-08-25T12:21:11Z</time>
      </trkpt>
      <trkpt lat="47.0045" lon="-0.97433">
        <ele>120</ele>
        <time>2025-08-25T12:21:12Z</time>
      </trkpt>
      <trkpt lat="47.00449" lon="-0.97432">
        <ele>120</ele>
        <time>2025-08-25T12:21:13Z</time>
      </trkpt>
      <trkpt lat="47.00449" lon="-0.97431">
        <ele>120</ele>
        <time>2025-08-25T12:21:14Z</time>
      </trkpt>
      <trkpt lat="47.00448" lon="-0.97431">
        <ele>119.9</ele>
        <time>2025-08-25T12:21:15Z</time>
      </trkpt>
      <trkpt lat="47.00447" lon="-0.9743">
        <ele>119.9</ele>
        <time>2025-08-25T12:21:16Z</time>
      </trkpt>
      <trkpt lat="47.00446" lon="-0.97429">
        <ele>119.9</ele>
        <time>2025-08-25T12:21:17Z</time>
      </trkpt>
      <trkpt lat="47.00445" lon="-0.97427">
        <ele>119.9</ele>
        <time>2025-08-25T12:21:18Z</time>
      </trkpt>
      <trkpt lat="47.00445" lon="-0.97426">
        <ele>119.9</ele>
        <time>2025-08-25T12:21:19Z</time>
      </trkpt>
      <trkpt lat="47.00443" lon="-0.97424">
        <ele>119.8</ele>
        <time>2025-08-25T12:21:20Z</time>
      </trkpt>
      <trkpt lat="47.00443" lon="-0.97423">
        <ele>119.8</ele>
        <time>2025-08-25T12:21:21Z</time>
      </trkpt>
      <trkpt lat="47.00442" lon="-0.97422">
        <ele>119.8</ele>
        <time>2025-08-25T12:21:22Z</time>
      </trkpt>
      <trkpt lat="47.00441" lon="-0.9742">
        <ele>119.8</ele>
        <time>2025-08-25T12:21:23Z</time>
      </trkpt>
      <trkpt lat="47.0044" lon="-0.97419">
        <ele>119.7</ele>
        <time>2025-08-25T12:21:24Z</time>
      </trkpt>
      <trkpt lat="47.00438" lon="-0.97417">
        <ele>119.7</ele>
        <time>2025-08-25T12:21:25Z</time>
      </trkpt>
      <trkpt lat="47.00437" lon="-0.97417">
        <ele>119.7</ele>
        <time>2025-08-25T12:21:26Z</time>
      </trkpt>
      <trkpt lat="47.00437" lon="-0.97416">
        <ele>119.7</ele>
        <time>2025-08-25T12:21:27Z</time>
      </trkpt>
      <trkpt lat="47.00435" lon="-0.97414">
        <ele>119.6</ele>
        <time>2025-08-25T12:21:28Z</time>
      </trkpt>
      <trkpt lat="47.00434" lon="-0.97413">
        <ele>119.6</ele>
        <time>2025-08-25T12:21:29Z</time>
      </trkpt>
      <trkpt lat="47.00434" lon="-0.97412">
        <ele>119.6</ele>
        <time>2025-08-25T12:21:30Z</time>
      </trkpt>
      <trkpt lat="47.00433" lon="-0.9741">
        <ele>119.6</ele>
        <time>2025-08-25T12:21:31Z</time>
      </trkpt>
      <trkpt lat="47.00432" lon="-0.97409">
        <ele>119.6</ele>
        <time>2025-08-25T12:21:32Z</time>
      </trkpt>
      <trkpt lat="47.00431" lon="-0.97408">
        <ele>119.6</ele>
        <time>2025-08-25T12:21:33Z</time>
      </trkpt>
      <trkpt lat="47.0043" lon="-0.97406">
        <ele>119.5</ele>
        <time>2025-08-25T12:21:34Z</time>
      </trkpt>
      <trkpt lat="47.00428" lon="-0.97405">
        <ele>119.5</ele>
        <time>2025-08-25T12:21:35Z</time>
      </trkpt>
      <trkpt lat="47.00427" lon="-0.97404">
        <ele>119.5</ele>
        <time>2025-08-25T12:21:36Z</time>
      </trkpt>
      <trkpt lat="47.00426" lon="-0.97403">
        <ele>119.5</ele>
        <time>2025-08-25T12:21:37Z</time>
      </trkpt>
      <trkpt lat="47.00425" lon="-0.97402">
        <ele>119.5</ele>
        <time>2025-08-25T12:21:38Z</time>
      </trkpt>
      <trkpt lat="47.00424" lon="-0.97401">
        <ele>119.5</ele>
        <time>2025-08-25T12:21:39Z</time>
      </trkpt>
      <trkpt lat="47.00423" lon="-0.974">
        <ele>119.4</ele>
        <time>2025-08-25T12:21:40Z</time>
      </trkpt>
      <trkpt lat="47.00422" lon="-0.97398">
        <ele>119.4</ele>
        <time>2025-08-25T12:21:41Z</time>
      </trkpt>
      <trkpt lat="47.00421" lon="-0.97397">
        <ele>119.4</ele>
        <time>2025-08-25T12:21:42Z</time>
      </trkpt>
      <trkpt lat="47.00421" lon="-0.97397">
        <ele>119.4</ele>
        <time>2025-08-25T12:21:43Z</time>
      </trkpt>
      <trkpt lat="47.0042" lon="-0.97396">
        <ele>119.4</ele>
        <time>2025-08-25T12:21:44Z</time>
      </trkpt>
      <trkpt lat="47.00418" lon="-0.97394">
        <ele>119.3</ele>
        <time>2025-08-25T12:21:45Z</time>
      </trkpt>
      <trkpt lat="47.00417" lon="-0.97393">
        <ele>119.3</ele>
        <time>2025-08-25T12:21:46Z</time>
      </trkpt>
      <trkpt lat="47.00417" lon="-0.97392">
        <ele>119.3</ele>
        <time>2025-08-25T12:21:47Z</time>
      </trkpt>
      <trkpt lat="47.00415" lon="-0.97391">
        <ele>119.3</ele>
        <time>2025-08-25T12:21:48Z</time>
      </trkpt>
      <trkpt lat="47.00414" lon="-0.9739">
        <ele>119.3</ele>
        <time>2025-08-25T12:21:49Z</time>
      </trkpt>
      <trkpt lat="47.00413" lon="-0.97389">
        <ele>119.2</ele>
        <time>2025-08-25T12:21:50Z</time>
      </trkpt>
      <trkpt lat="47.00412" lon="-0.97387">
        <ele>119.2</ele>
        <time>2025-08-25T12:21:51Z</time>
      </trkpt>
      <trkpt lat="47.00411" lon="-0.97387">
        <ele>119.2</ele>
        <time>2025-08-25T12:21:52Z</time>
      </trkpt>
      <trkpt lat="47.0041" lon="-0.97386">
        <ele>119.2</ele>
        <time>2025-08-25T12:21:53Z</time>
      </trkpt>
      <trkpt lat="47.00408" lon="-0.97385">
        <ele>119.1</ele>
        <time>2025-08-25T12:21:54Z</time>
      </trkpt>
      <trkpt lat="47.00407" lon="-0.97385">
        <ele>119.1</ele>
        <time>2025-08-25T12:21:55Z</time>
      </trkpt>
      <trkpt lat="47.00406" lon="-0.97384">
        <ele>119.1</ele>
        <time>2025-08-25T12:21:56Z</time>
      </trkpt>
      <trkpt lat="47.00405" lon="-0.97384">
        <ele>119.1</ele>
        <time>2025-08-25T12:21:57Z</time>
      </trkpt>
      <trkpt lat="47.00404" lon="-0.97383">
        <ele>119</ele>
        <time>2025-08-25T12:21:58Z</time>
      </trkpt>
      <trkpt lat="47.00403" lon="-0.97382">
        <ele>119</ele>
        <time>2025-08-25T12:21:59Z</time>
      </trkpt>
      <trkpt lat="47.00401" lon="-0.97381">
        <ele>119</ele>
        <time>2025-08-25T12:22:00Z</time>
      </trkpt>
      <trkpt lat="47.004" lon="-0.9738">
        <ele>119</ele>
        <time>2025-08-25T12:22:01Z</time>
      </trkpt>
      <trkpt lat="47.00399" lon="-0.97379">
        <ele>118.9</ele>
        <time>2025-08-25T12:22:02Z</time>
      </trkpt>
      <trkpt lat="47.00398" lon="-0.97377">
        <ele>118.9</ele>
        <time>2025-08-25T12:22:03Z</time>
      </trkpt>
      <trkpt lat="47.00397" lon="-0.97376">
        <ele>118.9</ele>
        <time>2025-08-25T12:22:04Z</time>
      </trkpt>
      <trkpt lat="47.00395" lon="-0.97374">
        <ele>118.9</ele>
        <time>2025-08-25T12:22:05Z</time>
      </trkpt>
      <trkpt lat="47.00395" lon="-0.97373">
        <ele>118.9</ele>
        <time>2025-08-25T12:22:06Z</time>
      </trkpt>
      <trkpt lat="47.00394" lon="-0.97373">
        <ele>118.9</ele>
        <time>2025-08-25T12:22:07Z</time>
      </trkpt>
      <trkpt lat="47.00393" lon="-0.97372">
        <ele>118.9</ele>
        <time>2025-08-25T12:22:08Z</time>
      </trkpt>
      <trkpt lat="47.00392" lon="-0.97371">
        <ele>118.9</ele>
        <time>2025-08-25T12:22:09Z</time>
      </trkpt>
      <trkpt lat="47.00391" lon="-0.9737">
        <ele>118.9</ele>
        <time>2025-08-25T12:22:10Z</time>
      </trkpt>
      <trkpt lat="47.0039" lon="-0.97369">
        <ele>118.8</ele>
        <time>2025-08-25T12:22:11Z</time>
      </trkpt>
      <trkpt lat="47.0039" lon="-0.97368">
        <ele>118.8</ele>
        <time>2025-08-25T12:22:12Z</time>
      </trkpt>
      <trkpt lat="47.00389" lon="-0.97367">
        <ele>118.8</ele>
        <time>2025-08-25T12:22:13Z</time>
      </trkpt>
      <trkpt lat="47.00388" lon="-0.97366">
        <ele>118.8</ele>
        <time>2025-08-25T12:22:14Z</time>
      </trkpt>
      <trkpt lat="47.00387" lon="-0.97364">
        <ele>118.9</ele>
        <time>2025-08-25T12:22:15Z</time>
      </trkpt>
      <trkpt lat="47.00386" lon="-0.97363">
        <ele>118.9</ele>
        <time>2025-08-25T12:22:16Z</time>
      </trkpt>
      <trkpt lat="47.00385" lon="-0.97362">
        <ele>118.9</ele>
        <time>2025-08-25T12:22:17Z</time>
      </trkpt>
      <trkpt lat="47.00384" lon="-0.97361">
        <ele>118.9</ele>
        <time>2025-08-25T12:22:18Z</time>
      </trkpt>
      <trkpt lat="47.00383" lon="-0.9736">
        <ele>118.9</ele>
        <time>2025-08-25T12:22:19Z</time>
      </trkpt>
      <trkpt lat="47.00383" lon="-0.97358">
        <ele>118.9</ele>
        <time>2025-08-25T12:22:20Z</time>
      </trkpt>
      <trkpt lat="47.00382" lon="-0.97357">
        <ele>118.9</ele>
        <time>2025-08-25T12:22:21Z</time>
      </trkpt>
      <trkpt lat="47.00381" lon="-0.97356">
        <ele>118.9</ele>
        <time>2025-08-25T12:22:22Z</time>
      </trkpt>
      <trkpt lat="47.00381" lon="-0.97355">
        <ele>118.9</ele>
        <time>2025-08-25T12:22:23Z</time>
      </trkpt>
      <trkpt lat="47.0038" lon="-0.97354">
        <ele>118.9</ele>
        <time>2025-08-25T12:22:24Z</time>
      </trkpt>
      <trkpt lat="47.00379" lon="-0.97353">
        <ele>119</ele>
        <time>2025-08-25T12:22:25Z</time>
      </trkpt>
      <trkpt lat="47.00378" lon="-0.9735">
        <ele>119</ele>
        <time>2025-08-25T12:22:26Z</time>
      </trkpt>
      <trkpt lat="47.00377" lon="-0.97349">
        <ele>119</ele>
        <time>2025-08-25T12:22:27Z</time>
      </trkpt>
      <trkpt lat="47.00377" lon="-0.97348">
        <ele>119.1</ele>
        <time>2025-08-25T12:22:28Z</time>
      </trkpt>
      <trkpt lat="47.00375" lon="-0.97346">
        <ele>119.1</ele>
        <time>2025-08-25T12:22:29Z</time>
      </trkpt>
      <trkpt lat="47.00374" lon="-0.97345">
        <ele>119.2</ele>
        <time>2025-08-25T12:22:30Z</time>
      </trkpt>
      <trkpt lat="47.00374" lon="-0.97344">
        <ele>119.2</ele>
        <time>2025-08-25T12:22:31Z</time>
      </trkpt>
      <trkpt lat="47.00373" lon="-0.97343">
        <ele>119.3</ele>
        <time>2025-08-25T12:22:32Z</time>
      </trkpt>
      <trkpt lat="47.00372" lon="-0.97341">
        <ele>119.3</ele>
        <time>2025-08-25T12:22:33Z</time>
      </trkpt>
      <trkpt lat="47.0037" lon="-0.9734">
        <ele>119.4</ele>
        <time>2025-08-25T12:22:34Z</time>
      </trkpt>
      <trkpt lat="47.00369" lon="-0.97339">
        <ele>119.4</ele>
        <time>2025-08-25T12:22:35Z</time>
      </trkpt>
      <trkpt lat="47.00368" lon="-0.97338">
        <ele>119.5</ele>
        <time>2025-08-25T12:22:36Z</time>
      </trkpt>
      <trkpt lat="47.00366" lon="-0.97337">
        <ele>119.6</ele>
        <time>2025-08-25T12:22:37Z</time>
      </trkpt>
      <trkpt lat="47.00365" lon="-0.97337">
        <ele>119.6</ele>
        <time>2025-08-25T12:22:38Z</time>
      </trkpt>
      <trkpt lat="47.00364" lon="-0.97338">
        <ele>119.6</ele>
        <time>2025-08-25T12:22:39Z</time>
      </trkpt>
      <trkpt lat="47.00363" lon="-0.97339">
        <ele>119.7</ele>
        <time>2025-08-25T12:22:40Z</time>
      </trkpt>
      <trkpt lat="47.00362" lon="-0.97342">
        <ele>119.8</ele>
        <time>2025-08-25T12:22:41Z</time>
      </trkpt>
      <trkpt lat="47.00361" lon="-0.97343">
        <ele>119.8</ele>
        <time>2025-08-25T12:22:42Z</time>
      </trkpt>
      <trkpt lat="47.00361" lon="-0.97344">
        <ele>119.8</ele>
        <time>2025-08-25T12:22:43Z</time>
      </trkpt>
      <trkpt lat="47.0036" lon="-0.97346">
        <ele>119.9</ele>
        <time>2025-08-25T12:22:44Z</time>
      </trkpt>
      <trkpt lat="47.0036" lon="-0.97348">
        <ele>119.9</ele>
        <time>2025-08-25T12:22:45Z</time>
      </trkpt>
      <trkpt lat="47.0036" lon="-0.9735">
        <ele>120</ele>
        <time>2025-08-25T12:22:46Z</time>
      </trkpt>
      <trkpt lat="47.00359" lon="-0.97351">
        <ele>120</ele>
        <time>2025-08-25T12:22:47Z</time>
      </trkpt>
      <trkpt lat="47.00358" lon="-0.97352">
        <ele>120</ele>
        <time>2025-08-25T12:22:48Z</time>
      </trkpt>
      <trkpt lat="47.00356" lon="-0.97354">
        <ele>120.1</ele>
        <time>2025-08-25T12:22:49Z</time>
      </trkpt>
      <trkpt lat="47.00356" lon="-0.97355">
        <ele>120.1</ele>
        <time>2025-08-25T12:22:50Z</time>
      </trkpt>
      <trkpt lat="47.00355" lon="-0.97355">
        <ele>120.2</ele>
        <time>2025-08-25T12:22:51Z</time>
      </trkpt>
      <trkpt lat="47.00354" lon="-0.97357">
        <ele>120.2</ele>
        <time>2025-08-25T12:22:52Z</time>
      </trkpt>
      <trkpt lat="47.00353" lon="-0.97357">
        <ele>120.3</ele>
        <time>2025-08-25T12:22:53Z</time>
      </trkpt>
      <trkpt lat="47.00352" lon="-0.97358">
        <ele>120.3</ele>
        <time>2025-08-25T12:22:54Z</time>
      </trkpt>
      <trkpt lat="47.0035" lon="-0.9736">
        <ele>120.4</ele>
        <time>2025-08-25T12:22:55Z</time>
      </trkpt>
      <trkpt lat="47.0035" lon="-0.97361">
        <ele>120.4</ele>
        <time>2025-08-25T12:22:56Z</time>
      </trkpt>
      <trkpt lat="47.00349" lon="-0.97362">
        <ele>120.4</ele>
        <time>2025-08-25T12:22:57Z</time>
      </trkpt>
      <trkpt lat="47.00349" lon="-0.97363">
        <ele>120.5</ele>
        <time>2025-08-25T12:22:58Z</time>
      </trkpt>
      <trkpt lat="47.00348" lon="-0.97365">
        <ele>120.5</ele>
        <time>2025-08-25T12:22:59Z</time>
      </trkpt>
      <trkpt lat="47.00348" lon="-0.97366">
        <ele>120.6</ele>
        <time>2025-08-25T12:23:00Z</time>
      </trkpt>
      <trkpt lat="47.00347" lon="-0.97369">
        <ele>120.6</ele>
        <time>2025-08-25T12:23:01Z</time>
      </trkpt>
      <trkpt lat="47.00347" lon="-0.9737">
        <ele>120.7</ele>
        <time>2025-08-25T12:23:02Z</time>
      </trkpt>
      <trkpt lat="47.00347" lon="-0.97372">
        <ele>120.7</ele>
        <time>2025-08-25T12:23:03Z</time>
      </trkpt>
      <trkpt lat="47.00346" lon="-0.97373">
        <ele>120.7</ele>
        <time>2025-08-25T12:23:04Z</time>
      </trkpt>
      <trkpt lat="47.00346" lon="-0.97374">
        <ele>120.8</ele>
        <time>2025-08-25T12:23:05Z</time>
      </trkpt>
      <trkpt lat="47.00346" lon="-0.97376">
        <ele>120.8</ele>
        <time>2025-08-25T12:23:06Z</time>
      </trkpt>
      <trkpt lat="47.00346" lon="-0.97377">
        <ele>120.8</ele>
        <time>2025-08-25T12:23:07Z</time>
      </trkpt>
      <trkpt lat="47.00346" lon="-0.97378">
        <ele>120.9</ele>
        <time>2025-08-25T12:23:08Z</time>
      </trkpt>
      <trkpt lat="47.00346" lon="-0.97379">
        <ele>120.9</ele>
        <time>2025-08-25T12:23:09Z</time>
      </trkpt>
      <trkpt lat="47.00347" lon="-0.97381">
        <ele>120.9</ele>
        <time>2025-08-25T12:23:10Z</time>
      </trkpt>
      <trkpt lat="47.00348" lon="-0.97382">
        <ele>120.9</ele>
        <time>2025-08-25T12:23:11Z</time>
      </trkpt>
      <trkpt lat="47.00349" lon="-0.97383">
        <ele>121</ele>
        <time>2025-08-25T12:23:12Z</time>
      </trkpt>
      <trkpt lat="47.00349" lon="-0.97383">
        <ele>121</ele>
        <time>2025-08-25T12:23:13Z</time>
      </trkpt>
      <trkpt lat="47.0035" lon="-0.97385">
        <ele>121</ele>
        <time>2025-08-25T12:23:14Z</time>
      </trkpt>
      <trkpt lat="47.00351" lon="-0.97386">
        <ele>121</ele>
        <time>2025-08-25T12:23:15Z</time>
      </trkpt>
      <trkpt lat="47.00351" lon="-0.97387">
        <ele>121.1</ele>
        <time>2025-08-25T12:23:16Z</time>
      </trkpt>
      <trkpt lat="47.00351" lon="-0.97389">
        <ele>121.1</ele>
        <time>2025-08-25T12:23:17Z</time>
      </trkpt>
      <trkpt lat="47.00352" lon="-0.9739">
        <ele>121.1</ele>
        <time>2025-08-25T12:23:18Z</time>
      </trkpt>
      <trkpt lat="47.00352" lon="-0.97391">
        <ele>121.1</ele>
        <time>2025-08-25T12:23:19Z</time>
      </trkpt>
      <trkpt lat="47.00352" lon="-0.97392">
        <ele>121.1</ele>
        <time>2025-08-25T12:23:20Z</time>
      </trkpt>
      <trkpt lat="47.00352" lon="-0.97394">
        <ele>121.2</ele>
        <time>2025-08-25T12:23:21Z</time>
      </trkpt>
      <trkpt lat="47.00353" lon="-0.97395">
        <ele>121.2</ele>
        <time>2025-08-25T12:23:22Z</time>
      </trkpt>
      <trkpt lat="47.00353" lon="-0.97396">
        <ele>121.2</ele>
        <time>2025-08-25T12:23:23Z</time>
      </trkpt>
      <trkpt lat="47.00354" lon="-0.97397">
        <ele>121.2</ele>
        <time>2025-08-25T12:23:24Z</time>
      </trkpt>
      <trkpt lat="47.00355" lon="-0.97399">
        <ele>121.2</ele>
        <time>2025-08-25T12:23:25Z</time>
      </trkpt>
      <trkpt lat="47.00355" lon="-0.974">
        <ele>121.2</ele>
        <time>2025-08-25T12:23:26Z</time>
      </trkpt>
      <trkpt lat="47.00356" lon="-0.97402">
        <ele>121.2</ele>
        <time>2025-08-25T12:23:27Z</time>
      </trkpt>
      <trkpt lat="47.00356" lon="-0.97403">
        <ele>121.2</ele>
        <time>2025-08-25T12:23:28Z</time>
      </trkpt>
      <trkpt lat="47.00356" lon="-0.97405">
        <ele>121.1</ele>
        <time>2025-08-25T12:23:29Z</time>
      </trkpt>
      <trkpt lat="47.00355" lon="-0.97407">
        <ele>121.1</ele>
        <time>2025-08-25T12:23:30Z</time>
      </trkpt>
      <trkpt lat="47.00353" lon="-0.97408">
        <ele>121.1</ele>
        <time>2025-08-25T12:23:31Z</time>
      </trkpt>
      <trkpt lat="47.00352" lon="-0.97407">
        <ele>121.1</ele>
        <time>2025-08-25T12:23:32Z</time>
      </trkpt>
      <trkpt lat="47.00352" lon="-0.97407">
        <ele>121.1</ele>
        <time>2025-08-25T12:23:33Z</time>
      </trkpt>
      <trkpt lat="47.0035" lon="-0.97406">
        <ele>121.1</ele>
        <time>2025-08-25T12:23:34Z</time>
      </trkpt>
      <trkpt lat="47.00349" lon="-0.97405">
        <ele>121.1</ele>
        <time>2025-08-25T12:23:35Z</time>
      </trkpt>
      <trkpt lat="47.00348" lon="-0.97404">
        <ele>121.1</ele>
        <time>2025-08-25T12:23:36Z</time>
      </trkpt>
      <trkpt lat="47.00347" lon="-0.97403">
        <ele>121.1</ele>
        <time>2025-08-25T12:23:37Z</time>
      </trkpt>
      <trkpt lat="47.00346" lon="-0.97402">
        <ele>121.1</ele>
        <time>2025-08-25T12:23:38Z</time>
      </trkpt>
      <trkpt lat="47.00344" lon="-0.97401">
        <ele>121.1</ele>
        <time>2025-08-25T12:23:39Z</time>
      </trkpt>
      <trkpt lat="47.00343" lon="-0.974">
        <ele>121.1</ele>
        <time>2025-08-25T12:23:40Z</time>
      </trkpt>
      <trkpt lat="47.00342" lon="-0.97399">
        <ele>121.1</ele>
        <time>2025-08-25T12:23:41Z</time>
      </trkpt>
      <trkpt lat="47.00341" lon="-0.97398">
        <ele>121.1</ele>
        <time>2025-08-25T12:23:42Z</time>
      </trkpt>
      <trkpt lat="47.00341" lon="-0.97398">
        <ele>121.2</ele>
        <time>2025-08-25T12:23:43Z</time>
      </trkpt>
      <trkpt lat="47.00341" lon="-0.97397">
        <ele>121.2</ele>
        <time>2025-08-25T12:23:44Z</time>
      </trkpt>
      <trkpt lat="47.00341" lon="-0.97397">
        <ele>121.2</ele>
        <time>2025-08-25T12:23:45Z</time>
      </trkpt>
      <trkpt lat="47.0034" lon="-0.97396">
        <ele>121.2</ele>
        <time>2025-08-25T12:23:46Z</time>
      </trkpt>
      <trkpt lat="47.0034" lon="-0.97396">
        <ele>121.2</ele>
        <time>2025-08-25T12:23:47Z</time>
      </trkpt>
      <trkpt lat="47.0034" lon="-0.97395">
        <ele>121.2</ele>
        <time>2025-08-25T12:23:48Z</time>
      </trkpt>
      <trkpt lat="47.0034" lon="-0.97395">
        <ele>121.2</ele>
        <time>2025-08-25T12:23:49Z</time>
      </trkpt>
      <trkpt lat="47.0034" lon="-0.97395">
        <ele>121.2</ele>
        <time>2025-08-25T12:23:50Z</time>
      </trkpt>
      <trkpt lat="47.0034" lon="-0.97394">
        <ele>121.2</ele>
        <time>2025-08-25T12:23:51Z</time>
      </trkpt>
      <trkpt lat="47.0034" lon="-0.97394">
        <ele>121.2</ele>
        <time>2025-08-25T12:23:52Z</time>
      </trkpt>
      <trkpt lat="47.0034" lon="-0.97393">
        <ele>121.2</ele>
        <time>2025-08-25T12:23:53Z</time>
      </trkpt>
      <trkpt lat="47.0034" lon="-0.97393">
        <ele>121.2</ele>
        <time>2025-08-25T12:23:54Z</time>
      </trkpt>
      <trkpt lat="47.00338" lon="-0.9739">
        <ele>121.2</ele>
        <time>2025-08-25T12:23:55Z</time>
      </trkpt>
      <trkpt lat="47.00337" lon="-0.97389">
        <ele>121.3</ele>
        <time>2025-08-25T12:23:56Z</time>
      </trkpt>
      <trkpt lat="47.00336" lon="-0.97387">
        <ele>121.3</ele>
        <time>2025-08-25T12:23:57Z</time>
      </trkpt>
      <trkpt lat="47.00335" lon="-0.97386">
        <ele>121.3</ele>
        <time>2025-08-25T12:23:58Z</time>
      </trkpt>
      <trkpt lat="47.00334" lon="-0.97384">
        <ele>121.3</ele>
        <time>2025-08-25T12:23:59Z</time>
      </trkpt>
      <trkpt lat="47.00334" lon="-0.97383">
        <ele>121.3</ele>
        <time>2025-08-25T12:24:00Z</time>
      </trkpt>
      <trkpt lat="47.00333" lon="-0.97382">
        <ele>121.4</ele>
        <time>2025-08-25T12:24:01Z</time>
      </trkpt>
      <trkpt lat="47.00332" lon="-0.97381">
        <ele>121.4</ele>
        <time>2025-08-25T12:24:02Z</time>
      </trkpt>
      <trkpt lat="47.00332" lon="-0.97379">
        <ele>121.4</ele>
        <time>2025-08-25T12:24:03Z</time>
      </trkpt>
      <trkpt lat="47.00331" lon="-0.97378">
        <ele>121.4</ele>
        <time>2025-08-25T12:24:04Z</time>
      </trkpt>
      <trkpt lat="47.00331" lon="-0.97377">
        <ele>121.4</ele>
        <time>2025-08-25T12:24:05Z</time>
      </trkpt>
      <trkpt lat="47.0033" lon="-0.97376">
        <ele>121.4</ele>
        <time>2025-08-25T12:24:06Z</time>
      </trkpt>
      <trkpt lat="47.0033" lon="-0.97375">
        <ele>121.4</ele>
        <time>2025-08-25T12:24:07Z</time>
      </trkpt>
      <trkpt lat="47.00329" lon="-0.97374">
        <ele>121.5</ele>
        <time>2025-08-25T12:24:08Z</time>
      </trkpt>
      <trkpt lat="47.00329" lon="-0.97373">
        <ele>121.5</ele>
        <time>2025-08-25T12:24:09Z</time>
      </trkpt>
      <trkpt lat="47.00328" lon="-0.97373">
        <ele>121.5</ele>
        <time>2025-08-25T12:24:10Z</time>
      </trkpt>
      <trkpt lat="47.00327" lon="-0.97371">
        <ele>121.5</ele>
        <time>2025-08-25T12:24:11Z</time>
      </trkpt>
      <trkpt lat="47.00326" lon="-0.9737">
        <ele>121.5</ele>
        <time>2025-08-25T12:24:12Z</time>
      </trkpt>
      <trkpt lat="47.00325" lon="-0.9737">
        <ele>121.5</ele>
        <time>2025-08-25T12:24:13Z</time>
      </trkpt>
      <trkpt lat="47.00324" lon="-0.97369">
        <ele>121.5</ele>
        <time>2025-08-25T12:24:14Z</time>
      </trkpt>
      <trkpt lat="47.00323" lon="-0.97368">
        <ele>121.5</ele>
        <time>2025-08-25T12:24:15Z</time>
      </trkpt>
      <trkpt lat="47.00322" lon="-0.97367">
        <ele>121.6</ele>
        <time>2025-08-25T12:24:16Z</time>
      </trkpt>
      <trkpt lat="47.00321" lon="-0.97366">
        <ele>121.6</ele>
        <time>2025-08-25T12:24:17Z</time>
      </trkpt>
      <trkpt lat="47.0032" lon="-0.97366">
        <ele>121.6</ele>
        <time>2025-08-25T12:24:18Z</time>
      </trkpt>
      <trkpt lat="47.00319" lon="-0.97365">
        <ele>121.6</ele>
        <time>2025-08-25T12:24:19Z</time>
      </trkpt>
      <trkpt lat="47.00319" lon="-0.97364">
        <ele>121.6</ele>
        <time>2025-08-25T12:24:20Z</time>
      </trkpt>
      <trkpt lat="47.00317" lon="-0.97362">
        <ele>121.6</ele>
        <time>2025-08-25T12:24:21Z</time>
      </trkpt>
      <trkpt lat="47.00316" lon="-0.97362">
        <ele>121.6</ele>
        <time>2025-08-25T12:24:22Z</time>
      </trkpt>
      <trkpt lat="47.00315" lon="-0.97361">
        <ele>121.6</ele>
        <time>2025-08-25T12:24:23Z</time>
      </trkpt>
      <trkpt lat="47.00314" lon="-0.97361">
        <ele>121.6</ele>
        <time>2025-08-25T12:24:24Z</time>
      </trkpt>
      <trkpt lat="47.00313" lon="-0.9736">
        <ele>121.6</ele>
        <time>2025-08-25T12:24:25Z</time>
      </trkpt>
      <trkpt lat="47.00311" lon="-0.97359">
        <ele>121.6</ele>
        <time>2025-08-25T12:24:26Z</time>
      </trkpt>
      <trkpt lat="47.0031" lon="-0.97358">
        <ele>121.6</ele>
        <time>2025-08-25T12:24:27Z</time>
      </trkpt>
      <trkpt lat="47.00309" lon="-0.97357">
        <ele>121.6</ele>
        <time>2025-08-25T12:24:28Z</time>
      </trkpt>
      <trkpt lat="47.00308" lon="-0.97357">
        <ele>121.6</ele>
        <time>2025-08-25T12:24:29Z</time>
      </trkpt>
      <trkpt lat="47.00307" lon="-0.97356">
        <ele>121.5</ele>
        <time>2025-08-25T12:24:30Z</time>
      </trkpt>
      <trkpt lat="47.00305" lon="-0.97355">
        <ele>121.5</ele>
        <time>2025-08-25T12:24:31Z</time>
      </trkpt>
      <trkpt lat="47.00304" lon="-0.97355">
        <ele>121.5</ele>
        <time>2025-08-25T12:24:32Z</time>
      </trkpt>
      <trkpt lat="47.00303" lon="-0.97355">
        <ele>121.5</ele>
        <time>2025-08-25T12:24:33Z</time>
      </trkpt>
      <trkpt lat="47.00302" lon="-0.97354">
        <ele>121.5</ele>
        <time>2025-08-25T12:24:34Z</time>
      </trkpt>
      <trkpt lat="47.00301" lon="-0.97353">
        <ele>121.5</ele>
        <time>2025-08-25T12:24:35Z</time>
      </trkpt>
      <trkpt lat="47.003" lon="-0.97353">
        <ele>121.4</ele>
        <time>2025-08-25T12:24:36Z</time>
      </trkpt>
      <trkpt lat="47.00299" lon="-0.97352">
        <ele>121.4</ele>
        <time>2025-08-25T12:24:37Z</time>
      </trkpt>
      <trkpt lat="47.00298" lon="-0.97352">
        <ele>121.4</ele>
        <time>2025-08-25T12:24:38Z</time>
      </trkpt>
      <trkpt lat="47.00297" lon="-0.97351">
        <ele>121.4</ele>
        <time>2025-08-25T12:24:39Z</time>
      </trkpt>
      <trkpt lat="47.00296" lon="-0.97351">
        <ele>121.4</ele>
        <time>2025-08-25T12:24:40Z</time>
      </trkpt>
      <trkpt lat="47.00295" lon="-0.9735">
        <ele>121.3</ele>
        <time>2025-08-25T12:24:41Z</time>
      </trkpt>
      <trkpt lat="47.00294" lon="-0.97349">
        <ele>121.3</ele>
        <time>2025-08-25T12:24:42Z</time>
      </trkpt>
      <trkpt lat="47.00293" lon="-0.97349">
        <ele>121.3</ele>
        <time>2025-08-25T12:24:43Z</time>
      </trkpt>
      <trkpt lat="47.00292" lon="-0.97348">
        <ele>121.3</ele>
        <time>2025-08-25T12:24:44Z</time>
      </trkpt>
      <trkpt lat="47.00291" lon="-0.97348">
        <ele>121.2</ele>
        <time>2025-08-25T12:24:45Z</time>
      </trkpt>
      <trkpt lat="47.00289" lon="-0.97347">
        <ele>121.2</ele>
        <time>2025-08-25T12:24:46Z</time>
      </trkpt>
      <trkpt lat="47.00288" lon="-0.97346">
        <ele>121.2</ele>
        <time>2025-08-25T12:24:47Z</time>
      </trkpt>
      <trkpt lat="47.00287" lon="-0.97345">
        <ele>121.1</ele>
        <time>2025-08-25T12:24:48Z</time>
      </trkpt>
      <trkpt lat="47.00286" lon="-0.97344">
        <ele>121.1</ele>
        <time>2025-08-25T12:24:49Z</time>
      </trkpt>
      <trkpt lat="47.00285" lon="-0.97343">
        <ele>121.1</ele>
        <time>2025-08-25T12:24:50Z</time>
      </trkpt>
      <trkpt lat="47.00285" lon="-0.97341">
        <ele>121</ele>
        <time>2025-08-25T12:24:51Z</time>
      </trkpt>
      <trkpt lat="47.00285" lon="-0.97338">
        <ele>120.9</ele>
        <time>2025-08-25T12:24:52Z</time>
      </trkpt>
      <trkpt lat="47.00284" lon="-0.97338">
        <ele>120.9</ele>
        <time>2025-08-25T12:24:53Z</time>
      </trkpt>
      <trkpt lat="47.00284" lon="-0.97337">
        <ele>120.9</ele>
        <time>2025-08-25T12:24:54Z</time>
      </trkpt>
      <trkpt lat="47.00282" lon="-0.97336">
        <ele>120.8</ele>
        <time>2025-08-25T12:24:55Z</time>
      </trkpt>
      <trkpt lat="47.00281" lon="-0.97335">
        <ele>120.8</ele>
        <time>2025-08-25T12:24:56Z</time>
      </trkpt>
      <trkpt lat="47.0028" lon="-0.97334">
        <ele>120.7</ele>
        <time>2025-08-25T12:24:57Z</time>
      </trkpt>
      <trkpt lat="47.00278" lon="-0.97333">
        <ele>120.6</ele>
        <time>2025-08-25T12:24:58Z</time>
      </trkpt>
      <trkpt lat="47.00277" lon="-0.97332">
        <ele>120.5</ele>
        <time>2025-08-25T12:24:59Z</time>
      </trkpt>
      <trkpt lat="47.00276" lon="-0.97331">
        <ele>120.5</ele>
        <time>2025-08-25T12:25:00Z</time>
      </trkpt>
      <trkpt lat="47.00274" lon="-0.9733">
        <ele>120.4</ele>
        <time>2025-08-25T12:25:01Z</time>
      </trkpt>
      <trkpt lat="47.00272" lon="-0.97329">
        <ele>120.3</ele>
        <time>2025-08-25T12:25:02Z</time>
      </trkpt>
      <trkpt lat="47.00271" lon="-0.97329">
        <ele>120.2</ele>
        <time>2025-08-25T12:25:03Z</time>
      </trkpt>
      <trkpt lat="47.00269" lon="-0.97327">
        <ele>120.1</ele>
        <time>2025-08-25T12:25:04Z</time>
      </trkpt>
      <trkpt lat="47.00269" lon="-0.97326">
        <ele>120.1</ele>
        <time>2025-08-25T12:25:05Z</time>
      </trkpt>
      <trkpt lat="47.00268" lon="-0.97326">
        <ele>120</ele>
        <time>2025-08-25T12:25:06Z</time>
      </trkpt>
      <trkpt lat="47.00266" lon="-0.97324">
        <ele>119.9</ele>
        <time>2025-08-25T12:25:07Z</time>
      </trkpt>
      <trkpt lat="47.00265" lon="-0.97323">
        <ele>119.9</ele>
        <time>2025-08-25T12:25:08Z</time>
      </trkpt>
      <trkpt lat="47.00265" lon="-0.97323">
        <ele>119.8</ele>
        <time>2025-08-25T12:25:09Z</time>
      </trkpt>
      <trkpt lat="47.00263" lon="-0.97322">
        <ele>119.7</ele>
        <time>2025-08-25T12:25:10Z</time>
      </trkpt>
      <trkpt lat="47.00262" lon="-0.97321">
        <ele>119.7</ele>
        <time>2025-08-25T12:25:11Z</time>
      </trkpt>
      <trkpt lat="47.00261" lon="-0.9732">
        <ele>119.6</ele>
        <time>2025-08-25T12:25:12Z</time>
      </trkpt>
      <trkpt lat="47.0026" lon="-0.97319">
        <ele>119.6</ele>
        <time>2025-08-25T12:25:13Z</time>
      </trkpt>
      <trkpt lat="47.0026" lon="-0.97318">
        <ele>119.5</ele>
        <time>2025-08-25T12:25:14Z</time>
      </trkpt>
      <trkpt lat="47.00259" lon="-0.97317">
        <ele>119.4</ele>
        <time>2025-08-25T12:25:15Z</time>
      </trkpt>
      <trkpt lat="47.00258" lon="-0.97316">
        <ele>119.4</ele>
        <time>2025-08-25T12:25:16Z</time>
      </trkpt>
      <trkpt lat="47.00257" lon="-0.97315">
        <ele>119.3</ele>
        <time>2025-08-25T12:25:17Z</time>
      </trkpt>
      <trkpt lat="47.00256" lon="-0.97313">
        <ele>119.2</ele>
        <time>2025-08-25T12:25:18Z</time>
      </trkpt>
      <trkpt lat="47.00255" lon="-0.97312">
        <ele>119.1</ele>
        <time>2025-08-25T12:25:19Z</time>
      </trkpt>
      <trkpt lat="47.00254" lon="-0.9731">
        <ele>119</ele>
        <time>2025-08-25T12:25:20Z</time>
      </trkpt>
      <trkpt lat="47.00253" lon="-0.97307">
        <ele>118.9</ele>
        <time>2025-08-25T12:25:21Z</time>
      </trkpt>
      <trkpt lat="47.00253" lon="-0.97306">
        <ele>118.8</ele>
        <time>2025-08-25T12:25:22Z</time>
      </trkpt>
      <trkpt lat="47.00252" lon="-0.97305">
        <ele>118.8</ele>
        <time>2025-08-25T12:25:23Z</time>
      </trkpt>
      <trkpt lat="47.00252" lon="-0.97303">
        <ele>118.7</ele>
        <time>2025-08-25T12:25:24Z</time>
      </trkpt>
      <trkpt lat="47.00251" lon="-0.97301">
        <ele>118.6</ele>
        <time>2025-08-25T12:25:25Z</time>
      </trkpt>
      <trkpt lat="47.0025" lon="-0.97299">
        <ele>118.5</ele>
        <time>2025-08-25T12:25:26Z</time>
      </trkpt>
      <trkpt lat="47.0025" lon="-0.97297">
        <ele>118.4</ele>
        <time>2025-08-25T12:25:27Z</time>
      </trkpt>
      <trkpt lat="47.00249" lon="-0.97295">
        <ele>118.3</ele>
        <time>2025-08-25T12:25:28Z</time>
      </trkpt>
      <trkpt lat="47.00249" lon="-0.97293">
        <ele>118.2</ele>
        <time>2025-08-25T12:25:29Z</time>
      </trkpt>
      <trkpt lat="47.00248" lon="-0.97291">
        <ele>118.1</ele>
        <time>2025-08-25T12:25:30Z</time>
      </trkpt>
      <trkpt lat="47.00248" lon="-0.97289">
        <ele>118</ele>
        <time>2025-08-25T12:25:31Z</time>
      </trkpt>
      <trkpt lat="47.00247" lon="-0.97287">
        <ele>117.8</ele>
        <time>2025-08-25T12:25:32Z</time>
      </trkpt>
      <trkpt lat="47.00246" lon="-0.97286">
        <ele>117.8</ele>
        <time>2025-08-25T12:25:33Z</time>
      </trkpt>
      <trkpt lat="47.00246" lon="-0.97285">
        <ele>117.7</ele>
        <time>2025-08-25T12:25:34Z</time>
      </trkpt>
      <trkpt lat="47.00244" lon="-0.97283">
        <ele>117.5</ele>
        <time>2025-08-25T12:25:35Z</time>
      </trkpt>
      <trkpt lat="47.00244" lon="-0.97282">
        <ele>117.5</ele>
        <time>2025-08-25T12:25:36Z</time>
      </trkpt>
      <trkpt lat="47.00243" lon="-0.97281">
        <ele>117.4</ele>
        <time>2025-08-25T12:25:37Z</time>
      </trkpt>
      <trkpt lat="47.00242" lon="-0.97279">
        <ele>117.3</ele>
        <time>2025-08-25T12:25:38Z</time>
      </trkpt>
      <trkpt lat="47.00242" lon="-0.97277">
        <ele>117.2</ele>
        <time>2025-08-25T12:25:39Z</time>
      </trkpt>
      <trkpt lat="47.00242" lon="-0.97275">
        <ele>117.1</ele>
        <time>2025-08-25T12:25:40Z</time>
      </trkpt>
      <trkpt lat="47.00241" lon="-0.97273">
        <ele>117</ele>
        <time>2025-08-25T12:25:41Z</time>
      </trkpt>
      <trkpt lat="47.00241" lon="-0.97271">
        <ele>116.9</ele>
        <time>2025-08-25T12:25:42Z</time>
      </trkpt>
      <trkpt lat="47.0024" lon="-0.97269">
        <ele>116.8</ele>
        <time>2025-08-25T12:25:43Z</time>
      </trkpt>
      <trkpt lat="47.0024" lon="-0.97266">
        <ele>116.7</ele>
        <time>2025-08-25T12:25:44Z</time>
      </trkpt>
      <trkpt lat="47.00239" lon="-0.97265">
        <ele>116.6</ele>
        <time>2025-08-25T12:25:45Z</time>
      </trkpt>
      <trkpt lat="47.00239" lon="-0.97264">
        <ele>116.5</ele>
        <time>2025-08-25T12:25:46Z</time>
      </trkpt>
      <trkpt lat="47.00239" lon="-0.97262">
        <ele>116.4</ele>
        <time>2025-08-25T12:25:47Z</time>
      </trkpt>
      <trkpt lat="47.00238" lon="-0.9726">
        <ele>116.3</ele>
        <time>2025-08-25T12:25:48Z</time>
      </trkpt>
      <trkpt lat="47.00238" lon="-0.97258">
        <ele>116.2</ele>
        <time>2025-08-25T12:25:49Z</time>
      </trkpt>
      <trkpt lat="47.00237" lon="-0.97256">
        <ele>116.1</ele>
        <time>2025-08-25T12:25:50Z</time>
      </trkpt>
      <trkpt lat="47.00237" lon="-0.97254">
        <ele>116</ele>
        <time>2025-08-25T12:25:51Z</time>
      </trkpt>
      <trkpt lat="47.00236" lon="-0.97252">
        <ele>115.9</ele>
        <time>2025-08-25T12:25:52Z</time>
      </trkpt>
      <trkpt lat="47.00235" lon="-0.97251">
        <ele>115.8</ele>
        <time>2025-08-25T12:25:53Z</time>
      </trkpt>
      <trkpt lat="47.00235" lon="-0.97249">
        <ele>115.7</ele>
        <time>2025-08-25T12:25:54Z</time>
      </trkpt>
      <trkpt lat="47.00233" lon="-0.97247">
        <ele>115.5</ele>
        <time>2025-08-25T12:25:55Z</time>
      </trkpt>
      <trkpt lat="47.00233" lon="-0.97246">
        <ele>115.5</ele>
        <time>2025-08-25T12:25:56Z</time>
      </trkpt>
      <trkpt lat="47.00232" lon="-0.97245">
        <ele>115.4</ele>
        <time>2025-08-25T12:25:57Z</time>
      </trkpt>
      <trkpt lat="47.00231" lon="-0.97244">
        <ele>115.3</ele>
        <time>2025-08-25T12:25:58Z</time>
      </trkpt>
      <trkpt lat="47.0023" lon="-0.97242">
        <ele>115.2</ele>
        <time>2025-08-25T12:25:59Z</time>
      </trkpt>
      <trkpt lat="47.00229" lon="-0.97241">
        <ele>115.1</ele>
        <time>2025-08-25T12:26:00Z</time>
      </trkpt>
      <trkpt lat="47.00228" lon="-0.9724">
        <ele>115</ele>
        <time>2025-08-25T12:26:01Z</time>
      </trkpt>
      <trkpt lat="47.00227" lon="-0.97239">
        <ele>114.9</ele>
        <time>2025-08-25T12:26:02Z</time>
      </trkpt>
      <trkpt lat="47.00226" lon="-0.97238">
        <ele>114.8</ele>
        <time>2025-08-25T12:26:03Z</time>
      </trkpt>
      <trkpt lat="47.00226" lon="-0.97236">
        <ele>114.7</ele>
        <time>2025-08-25T12:26:04Z</time>
      </trkpt>
      <trkpt lat="47.00225" lon="-0.97235">
        <ele>114.6</ele>
        <time>2025-08-25T12:26:05Z</time>
      </trkpt>
      <trkpt lat="47.00224" lon="-0.97233">
        <ele>114.5</ele>
        <time>2025-08-25T12:26:06Z</time>
      </trkpt>
      <trkpt lat="47.00223" lon="-0.97232">
        <ele>114.4</ele>
        <time>2025-08-25T12:26:07Z</time>
      </trkpt>
      <trkpt lat="47.00223" lon="-0.97231">
        <ele>114.4</ele>
        <time>2025-08-25T12:26:08Z</time>
      </trkpt>
      <trkpt lat="47.00222" lon="-0.9723">
        <ele>114.3</ele>
        <time>2025-08-25T12:26:09Z</time>
      </trkpt>
      <trkpt lat="47.00222" lon="-0.97228">
        <ele>114.2</ele>
        <time>2025-08-25T12:26:10Z</time>
      </trkpt>
      <trkpt lat="47.00221" lon="-0.97227">
        <ele>114.1</ele>
        <time>2025-08-25T12:26:11Z</time>
      </trkpt>
      <trkpt lat="47.00221" lon="-0.97225">
        <ele>114</ele>
        <time>2025-08-25T12:26:12Z</time>
      </trkpt>
      <trkpt lat="47.0022" lon="-0.97224">
        <ele>113.9</ele>
        <time>2025-08-25T12:26:13Z</time>
      </trkpt>
      <trkpt lat="47.0022" lon="-0.97223">
        <ele>113.9</ele>
        <time>2025-08-25T12:26:14Z</time>
      </trkpt>
      <trkpt lat="47.0022" lon="-0.97224">
        <ele>113.9</ele>
        <time>2025-08-25T12:26:15Z</time>
      </trkpt>
      <trkpt lat="47.0022" lon="-0.97224">
        <ele>113.8</ele>
        <time>2025-08-25T12:26:16Z</time>
      </trkpt>
      <trkpt lat="47.0022" lon="-0.97225">
        <ele>113.8</ele>
        <time>2025-08-25T12:26:17Z</time>
      </trkpt>
      <trkpt lat="47.00219" lon="-0.97225">
        <ele>113.8</ele>
        <time>2025-08-25T12:26:18Z</time>
      </trkpt>
      <trkpt lat="47.0022" lon="-0.97225">
        <ele>113.8</ele>
        <time>2025-08-25T12:26:19Z</time>
      </trkpt>
      <trkpt lat="47.00219" lon="-0.97224">
        <ele>113.7</ele>
        <time>2025-08-25T12:26:20Z</time>
      </trkpt>
      <trkpt lat="47.00219" lon="-0.97223">
        <ele>113.6</ele>
        <time>2025-08-25T12:26:21Z</time>
      </trkpt>
      <trkpt lat="47.00218" lon="-0.9722">
        <ele>113.5</ele>
        <time>2025-08-25T12:26:22Z</time>
      </trkpt>
      <trkpt lat="47.00217" lon="-0.97219">
        <ele>113.4</ele>
        <time>2025-08-25T12:26:23Z</time>
      </trkpt>
      <trkpt lat="47.00217" lon="-0.97218">
        <ele>113.4</ele>
        <time>2025-08-25T12:26:24Z</time>
      </trkpt>
      <trkpt lat="47.00217" lon="-0.97216">
        <ele>113.2</ele>
        <time>2025-08-25T12:26:25Z</time>
      </trkpt>
      <trkpt lat="47.00217" lon="-0.97213">
        <ele>113.1</ele>
        <time>2025-08-25T12:26:26Z</time>
      </trkpt>
      <trkpt lat="47.00217" lon="-0.97211">
        <ele>113</ele>
        <time>2025-08-25T12:26:27Z</time>
      </trkpt>
      <trkpt lat="47.00216" lon="-0.97209">
        <ele>112.9</ele>
        <time>2025-08-25T12:26:28Z</time>
      </trkpt>
      <trkpt lat="47.00216" lon="-0.97207">
        <ele>112.8</ele>
        <time>2025-08-25T12:26:29Z</time>
      </trkpt>
      <trkpt lat="47.00216" lon="-0.97205">
        <ele>112.7</ele>
        <time>2025-08-25T12:26:30Z</time>
      </trkpt>
      <trkpt lat="47.00215" lon="-0.97203">
        <ele>112.6</ele>
        <time>2025-08-25T12:26:31Z</time>
      </trkpt>
      <trkpt lat="47.00215" lon="-0.97201">
        <ele>112.4</ele>
        <time>2025-08-25T12:26:32Z</time>
      </trkpt>
      <trkpt lat="47.00214" lon="-0.97199">
        <ele>112.3</ele>
        <time>2025-08-25T12:26:33Z</time>
      </trkpt>
      <trkpt lat="47.00213" lon="-0.97197">
        <ele>112.2</ele>
        <time>2025-08-25T12:26:34Z</time>
      </trkpt>
      <trkpt lat="47.00213" lon="-0.97195">
        <ele>112.1</ele>
        <time>2025-08-25T12:26:35Z</time>
      </trkpt>
      <trkpt lat="47.00212" lon="-0.97193">
        <ele>112</ele>
        <time>2025-08-25T12:26:36Z</time>
      </trkpt>
      <trkpt lat="47.00211" lon="-0.97191">
        <ele>111.8</ele>
        <time>2025-08-25T12:26:37Z</time>
      </trkpt>
      <trkpt lat="47.00211" lon="-0.9719">
        <ele>111.8</ele>
        <time>2025-08-25T12:26:38Z</time>
      </trkpt>
      <trkpt lat="47.00211" lon="-0.97189">
        <ele>111.7</ele>
        <time>2025-08-25T12:26:39Z</time>
      </trkpt>
      <trkpt lat="47.0021" lon="-0.97186">
        <ele>111.6</ele>
        <time>2025-08-25T12:26:40Z</time>
      </trkpt>
      <trkpt lat="47.00209" lon="-0.97185">
        <ele>111.5</ele>
        <time>2025-08-25T12:26:41Z</time>
      </trkpt>
      <trkpt lat="47.00209" lon="-0.97184">
        <ele>111.4</ele>
        <time>2025-08-25T12:26:42Z</time>
      </trkpt>
      <trkpt lat="47.00208" lon="-0.97182">
        <ele>111.3</ele>
        <time>2025-08-25T12:26:43Z</time>
      </trkpt>
      <trkpt lat="47.00208" lon="-0.97181">
        <ele>111.3</ele>
        <time>2025-08-25T12:26:44Z</time>
      </trkpt>
      <trkpt lat="47.00207" lon="-0.97179">
        <ele>111.2</ele>
        <time>2025-08-25T12:26:45Z</time>
      </trkpt>
      <trkpt lat="47.00206" lon="-0.97177">
        <ele>111</ele>
        <time>2025-08-25T12:26:46Z</time>
      </trkpt>
      <trkpt lat="47.00205" lon="-0.97176">
        <ele>111</ele>
        <time>2025-08-25T12:26:47Z</time>
      </trkpt>
      <trkpt lat="47.00205" lon="-0.97175">
        <ele>110.9</ele>
        <time>2025-08-25T12:26:48Z</time>
      </trkpt>
      <trkpt lat="47.00204" lon="-0.97174">
        <ele>110.8</ele>
        <time>2025-08-25T12:26:49Z</time>
      </trkpt>
      <trkpt lat="47.00203" lon="-0.97173">
        <ele>110.8</ele>
        <time>2025-08-25T12:26:50Z</time>
      </trkpt>
      <trkpt lat="47.00203" lon="-0.97171">
        <ele>110.7</ele>
        <time>2025-08-25T12:26:51Z</time>
      </trkpt>
      <trkpt lat="47.00202" lon="-0.97169">
        <ele>110.6</ele>
        <time>2025-08-25T12:26:52Z</time>
      </trkpt>
      <trkpt lat="47.00202" lon="-0.97167">
        <ele>110.5</ele>
        <time>2025-08-25T12:26:53Z</time>
      </trkpt>
      <trkpt lat="47.00202" lon="-0.97166">
        <ele>110.4</ele>
        <time>2025-08-25T12:26:54Z</time>
      </trkpt>
      <trkpt lat="47.00201" lon="-0.97163">
        <ele>110.3</ele>
        <time>2025-08-25T12:26:55Z</time>
      </trkpt>
      <trkpt lat="47.00201" lon="-0.97162">
        <ele>110.3</ele>
        <time>2025-08-25T12:26:56Z</time>
      </trkpt>
      <trkpt lat="47.002" lon="-0.97161">
        <ele>110.2</ele>
        <time>2025-08-25T12:26:57Z</time>
      </trkpt>
      <trkpt lat="47.002" lon="-0.97159">
        <ele>110.1</ele>
        <time>2025-08-25T12:26:58Z</time>
      </trkpt>
      <trkpt lat="47.00199" lon="-0.97158">
        <ele>110</ele>
        <time>2025-08-25T12:26:59Z</time>
      </trkpt>
      <trkpt lat="47.00198" lon="-0.97157">
        <ele>110</ele>
        <time>2025-08-25T12:27:00Z</time>
      </trkpt>
      <trkpt lat="47.00198" lon="-0.97155">
        <ele>109.9</ele>
        <time>2025-08-25T12:27:01Z</time>
      </trkpt>
      <trkpt lat="47.00197" lon="-0.97153">
        <ele>109.8</ele>
        <time>2025-08-25T12:27:02Z</time>
      </trkpt>
      <trkpt lat="47.00196" lon="-0.97152">
        <ele>109.7</ele>
        <time>2025-08-25T12:27:03Z</time>
      </trkpt>
      <trkpt lat="47.00195" lon="-0.9715">
        <ele>109.6</ele>
        <time>2025-08-25T12:27:04Z</time>
      </trkpt>
      <trkpt lat="47.00195" lon="-0.97148">
        <ele>109.5</ele>
        <time>2025-08-25T12:27:05Z</time>
      </trkpt>
      <trkpt lat="47.00194" lon="-0.97146">
        <ele>109.4</ele>
        <time>2025-08-25T12:27:06Z</time>
      </trkpt>
      <trkpt lat="47.00193" lon="-0.97143">
        <ele>109.3</ele>
        <time>2025-08-25T12:27:07Z</time>
      </trkpt>
      <trkpt lat="47.00193" lon="-0.97142">
        <ele>109.2</ele>
        <time>2025-08-25T12:27:08Z</time>
      </trkpt>
      <trkpt lat="47.00192" lon="-0.97141">
        <ele>109.2</ele>
        <time>2025-08-25T12:27:09Z</time>
      </trkpt>
      <trkpt lat="47.00191" lon="-0.9714">
        <ele>109.1</ele>
        <time>2025-08-25T12:27:10Z</time>
      </trkpt>
      <trkpt lat="47.00191" lon="-0.97139">
        <ele>109</ele>
        <time>2025-08-25T12:27:11Z</time>
      </trkpt>
      <trkpt lat="47.0019" lon="-0.97137">
        <ele>109</ele>
        <time>2025-08-25T12:27:12Z</time>
      </trkpt>
      <trkpt lat="47.00189" lon="-0.97135">
        <ele>108.9</ele>
        <time>2025-08-25T12:27:13Z</time>
      </trkpt>
      <trkpt lat="47.00189" lon="-0.97133">
        <ele>108.8</ele>
        <time>2025-08-25T12:27:14Z</time>
      </trkpt>
      <trkpt lat="47.00188" lon="-0.97132">
        <ele>108.7</ele>
        <time>2025-08-25T12:27:15Z</time>
      </trkpt>
      <trkpt lat="47.00187" lon="-0.9713">
        <ele>108.6</ele>
        <time>2025-08-25T12:27:16Z</time>
      </trkpt>
      <trkpt lat="47.00186" lon="-0.97128">
        <ele>108.5</ele>
        <time>2025-08-25T12:27:17Z</time>
      </trkpt>
      <trkpt lat="47.00185" lon="-0.97127">
        <ele>108.4</ele>
        <time>2025-08-25T12:27:18Z</time>
      </trkpt>
      <trkpt lat="47.00184" lon="-0.97126">
        <ele>108.4</ele>
        <time>2025-08-25T12:27:19Z</time>
      </trkpt>
      <trkpt lat="47.00182" lon="-0.97125">
        <ele>108.3</ele>
        <time>2025-08-25T12:27:20Z</time>
      </trkpt>
      <trkpt lat="47.00181" lon="-0.97124">
        <ele>108.2</ele>
        <time>2025-08-25T12:27:21Z</time>
      </trkpt>
      <trkpt lat="47.0018" lon="-0.97123">
        <ele>108.1</ele>
        <time>2025-08-25T12:27:22Z</time>
      </trkpt>
      <trkpt lat="47.00178" lon="-0.97122">
        <ele>108</ele>
        <time>2025-08-25T12:27:23Z</time>
      </trkpt>
      <trkpt lat="47.00177" lon="-0.97121">
        <ele>108</ele>
        <time>2025-08-25T12:27:24Z</time>
      </trkpt>
      <trkpt lat="47.00177" lon="-0.9712">
        <ele>107.9</ele>
        <time>2025-08-25T12:27:25Z</time>
      </trkpt>
      <trkpt lat="47.00175" lon="-0.97118">
        <ele>107.8</ele>
        <time>2025-08-25T12:27:26Z</time>
      </trkpt>
      <trkpt lat="47.00175" lon="-0.97117">
        <ele>107.8</ele>
        <time>2025-08-25T12:27:27Z</time>
      </trkpt>
      <trkpt lat="47.00174" lon="-0.97116">
        <ele>107.7</ele>
        <time>2025-08-25T12:27:28Z</time>
      </trkpt>
      <trkpt lat="47.00173" lon="-0.97115">
        <ele>107.7</ele>
        <time>2025-08-25T12:27:29Z</time>
      </trkpt>
      <trkpt lat="47.00172" lon="-0.97113">
        <ele>107.6</ele>
        <time>2025-08-25T12:27:30Z</time>
      </trkpt>
      <trkpt lat="47.00171" lon="-0.9711">
        <ele>107.5</ele>
        <time>2025-08-25T12:27:31Z</time>
      </trkpt>
      <trkpt lat="47.00171" lon="-0.97109">
        <ele>107.5</ele>
        <time>2025-08-25T12:27:32Z</time>
      </trkpt>
      <trkpt lat="47.0017" lon="-0.97108">
        <ele>107.5</ele>
        <time>2025-08-25T12:27:33Z</time>
      </trkpt>
      <trkpt lat="47.00169" lon="-0.97107">
        <ele>107.4</ele>
        <time>2025-08-25T12:27:34Z</time>
      </trkpt>
      <trkpt lat="47.00168" lon="-0.97106">
        <ele>107.4</ele>
        <time>2025-08-25T12:27:35Z</time>
      </trkpt>
      <trkpt lat="47.00167" lon="-0.97106">
        <ele>107.4</ele>
        <time>2025-08-25T12:27:36Z</time>
      </trkpt>
      <trkpt lat="47.00168" lon="-0.97107">
        <ele>107.4</ele>
        <time>2025-08-25T12:27:37Z</time>
      </trkpt>
      <trkpt lat="47.00168" lon="-0.97107">
        <ele>107.3</ele>
        <time>2025-08-25T12:27:38Z</time>
      </trkpt>
      <trkpt lat="47.00169" lon="-0.97107">
        <ele>107.3</ele>
        <time>2025-08-25T12:27:39Z</time>
      </trkpt>
      <trkpt lat="47.00169" lon="-0.97108">
        <ele>107.3</ele>
        <time>2025-08-25T12:27:40Z</time>
      </trkpt>
      <trkpt lat="47.00168" lon="-0.97108">
        <ele>107.3</ele>
        <time>2025-08-25T12:27:41Z</time>
      </trkpt>
      <trkpt lat="47.00168" lon="-0.97109">
        <ele>107.3</ele>
        <time>2025-08-25T12:27:42Z</time>
      </trkpt>
      <trkpt lat="47.00168" lon="-0.97109">
        <ele>107.3</ele>
        <time>2025-08-25T12:27:43Z</time>
      </trkpt>
      <trkpt lat="47.00169" lon="-0.9711">
        <ele>107.3</ele>
        <time>2025-08-25T12:27:44Z</time>
      </trkpt>
      <trkpt lat="47.0017" lon="-0.97111">
        <ele>107.3</ele>
        <time>2025-08-25T12:27:45Z</time>
      </trkpt>
      <trkpt lat="47.0017" lon="-0.97112">
        <ele>107.2</ele>
        <time>2025-08-25T12:27:46Z</time>
      </trkpt>
      <trkpt lat="47.00171" lon="-0.97113">
        <ele>107.2</ele>
        <time>2025-08-25T12:27:47Z</time>
      </trkpt>
      <trkpt lat="47.00171" lon="-0.97113">
        <ele>107.2</ele>
        <time>2025-08-25T12:27:48Z</time>
      </trkpt>
      <trkpt lat="47.00171" lon="-0.97113">
        <ele>107.2</ele>
        <time>2025-08-25T12:27:49Z</time>
      </trkpt>
      <trkpt lat="47.00171" lon="-0.97113">
        <ele>107.2</ele>
        <time>2025-08-25T12:27:50Z</time>
      </trkpt>
      <trkpt lat="47.00171" lon="-0.97113">
        <ele>107.2</ele>
        <time>2025-08-25T12:27:51Z</time>
      </trkpt>
      <trkpt lat="47.00171" lon="-0.97113">
        <ele>107.2</ele>
        <time>2025-08-25T12:27:52Z</time>
      </trkpt>
      <trkpt lat="47.00171" lon="-0.97113">
        <ele>107.2</ele>
        <time>2025-08-25T12:27:53Z</time>
      </trkpt>
      <trkpt lat="47.0017" lon="-0.97112">
        <ele>107.2</ele>
        <time>2025-08-25T12:27:54Z</time>
      </trkpt>
      <trkpt lat="47.00169" lon="-0.97111">
        <ele>107.2</ele>
        <time>2025-08-25T12:27:55Z</time>
      </trkpt>
      <trkpt lat="47.00168" lon="-0.97111">
        <ele>107.2</ele>
        <time>2025-08-25T12:27:56Z</time>
      </trkpt>
      <trkpt lat="47.00166" lon="-0.97111">
        <ele>107.1</ele>
        <time>2025-08-25T12:27:57Z</time>
      </trkpt>
      <trkpt lat="47.00165" lon="-0.9711">
        <ele>107.1</ele>
        <time>2025-08-25T12:27:58Z</time>
      </trkpt>
      <trkpt lat="47.00164" lon="-0.9711">
        <ele>107.1</ele>
        <time>2025-08-25T12:27:59Z</time>
      </trkpt>
      <trkpt lat="47.00162" lon="-0.9711">
        <ele>107.1</ele>
        <time>2025-08-25T12:28:00Z</time>
      </trkpt>
      <trkpt lat="47.00161" lon="-0.97111">
        <ele>107.1</ele>
        <time>2025-08-25T12:28:01Z</time>
      </trkpt>
      <trkpt lat="47.0016" lon="-0.97111">
        <ele>107.1</ele>
        <time>2025-08-25T12:28:02Z</time>
      </trkpt>
      <trkpt lat="47.00158" lon="-0.97111">
        <ele>107.1</ele>
        <time>2025-08-25T12:28:03Z</time>
      </trkpt>
      <trkpt lat="47.00157" lon="-0.97112">
        <ele>107.1</ele>
        <time>2025-08-25T12:28:04Z</time>
      </trkpt>
      <trkpt lat="47.00156" lon="-0.97113">
        <ele>107.1</ele>
        <time>2025-08-25T12:28:05Z</time>
      </trkpt>
      <trkpt lat="47.00154" lon="-0.97113">
        <ele>107.1</ele>
        <time>2025-08-25T12:28:06Z</time>
      </trkpt>
      <trkpt lat="47.00153" lon="-0.97114">
        <ele>107.1</ele>
        <time>2025-08-25T12:28:07Z</time>
      </trkpt>
      <trkpt lat="47.00152" lon="-0.97114">
        <ele>107.1</ele>
        <time>2025-08-25T12:28:08Z</time>
      </trkpt>
      <trkpt lat="47.0015" lon="-0.97115">
        <ele>107.1</ele>
        <time>2025-08-25T12:28:09Z</time>
      </trkpt>
      <trkpt lat="47.00148" lon="-0.97117">
        <ele>107.2</ele>
        <time>2025-08-25T12:28:10Z</time>
      </trkpt>
      <trkpt lat="47.00148" lon="-0.97117">
        <ele>107.2</ele>
        <time>2025-08-25T12:28:11Z</time>
      </trkpt>
      <trkpt lat="47.00147" lon="-0.97118">
        <ele>107.2</ele>
        <time>2025-08-25T12:28:12Z</time>
      </trkpt>
      <trkpt lat="47.00146" lon="-0.97119">
        <ele>107.2</ele>
        <time>2025-08-25T12:28:13Z</time>
      </trkpt>
      <trkpt lat="47.00144" lon="-0.9712">
        <ele>107.2</ele>
        <time>2025-08-25T12:28:14Z</time>
      </trkpt>
      <trkpt lat="47.00143" lon="-0.97121">
        <ele>107.2</ele>
        <time>2025-08-25T12:28:15Z</time>
      </trkpt>
      <trkpt lat="47.00142" lon="-0.97122">
        <ele>107.2</ele>
        <time>2025-08-25T12:28:16Z</time>
      </trkpt>
      <trkpt lat="47.0014" lon="-0.97123">
        <ele>107.2</ele>
        <time>2025-08-25T12:28:17Z</time>
      </trkpt>
      <trkpt lat="47.00139" lon="-0.97123">
        <ele>107.2</ele>
        <time>2025-08-25T12:28:18Z</time>
      </trkpt>
      <trkpt lat="47.00138" lon="-0.97124">
        <ele>107.2</ele>
        <time>2025-08-25T12:28:19Z</time>
      </trkpt>
      <trkpt lat="47.00137" lon="-0.97124">
        <ele>107.2</ele>
        <time>2025-08-25T12:28:20Z</time>
      </trkpt>
      <trkpt lat="47.00136" lon="-0.97125">
        <ele>107.2</ele>
        <time>2025-08-25T12:28:21Z</time>
      </trkpt>
      <trkpt lat="47.00135" lon="-0.97125">
        <ele>107.2</ele>
        <time>2025-08-25T12:28:22Z</time>
      </trkpt>
      <trkpt lat="47.00133" lon="-0.97127">
        <ele>107.2</ele>
        <time>2025-08-25T12:28:23Z</time>
      </trkpt>
      <trkpt lat="47.00132" lon="-0.97127">
        <ele>107.2</ele>
        <time>2025-08-25T12:28:24Z</time>
      </trkpt>
      <trkpt lat="47.00131" lon="-0.97128">
        <ele>107.2</ele>
        <time>2025-08-25T12:28:25Z</time>
      </trkpt>
      <trkpt lat="47.0013" lon="-0.9713">
        <ele>107.2</ele>
        <time>2025-08-25T12:28:26Z</time>
      </trkpt>
      <trkpt lat="47.00129" lon="-0.97131">
        <ele>107.2</ele>
        <time>2025-08-25T12:28:27Z</time>
      </trkpt>
      <trkpt lat="47.00129" lon="-0.97132">
        <ele>107.2</ele>
        <time>2025-08-25T12:28:28Z</time>
      </trkpt>
      <trkpt lat="47.00127" lon="-0.97134">
        <ele>107.2</ele>
        <time>2025-08-25T12:28:29Z</time>
      </trkpt>
      <trkpt lat="47.00127" lon="-0.97134">
        <ele>107.2</ele>
        <time>2025-08-25T12:28:30Z</time>
      </trkpt>
      <trkpt lat="47.00126" lon="-0.97135">
        <ele>107.1</ele>
        <time>2025-08-25T12:28:31Z</time>
      </trkpt>
      <trkpt lat="47.00124" lon="-0.97136">
        <ele>107.1</ele>
        <time>2025-08-25T12:28:32Z</time>
      </trkpt>
      <trkpt lat="47.00123" lon="-0.97136">
        <ele>107.1</ele>
        <time>2025-08-25T12:28:33Z</time>
      </trkpt>
      <trkpt lat="47.00122" lon="-0.97137">
        <ele>107.1</ele>
        <time>2025-08-25T12:28:34Z</time>
      </trkpt>
      <trkpt lat="47.00121" lon="-0.97137">
        <ele>107.1</ele>
        <time>2025-08-25T12:28:35Z</time>
      </trkpt>
      <trkpt lat="47.00119" lon="-0.97137">
        <ele>107.1</ele>
        <time>2025-08-25T12:28:36Z</time>
      </trkpt>
      <trkpt lat="47.00117" lon="-0.97138">
        <ele>107.1</ele>
        <time>2025-08-25T12:28:37Z</time>
      </trkpt>
      <trkpt lat="47.00116" lon="-0.97138">
        <ele>107.1</ele>
        <time>2025-08-25T12:28:38Z</time>
      </trkpt>
      <trkpt lat="47.00115" lon="-0.97139">
        <ele>107.1</ele>
        <time>2025-08-25T12:28:39Z</time>
      </trkpt>
      <trkpt lat="47.00114" lon="-0.97138">
        <ele>107</ele>
        <time>2025-08-25T12:28:40Z</time>
      </trkpt>
      <trkpt lat="47.00113" lon="-0.97137">
        <ele>107</ele>
        <time>2025-08-25T12:28:41Z</time>
      </trkpt>
      <trkpt lat="47.00111" lon="-0.97135">
        <ele>106.9</ele>
        <time>2025-08-25T12:28:42Z</time>
      </trkpt>
      <trkpt lat="47.00111" lon="-0.97134">
        <ele>106.9</ele>
        <time>2025-08-25T12:28:43Z</time>
      </trkpt>
      <trkpt lat="47.0011" lon="-0.97133">
        <ele>106.9</ele>
        <time>2025-08-25T12:28:44Z</time>
      </trkpt>
      <trkpt lat="47.00109" lon="-0.97132">
        <ele>106.9</ele>
        <time>2025-08-25T12:28:45Z</time>
      </trkpt>
      <trkpt lat="47.00108" lon="-0.97132">
        <ele>106.9</ele>
        <time>2025-08-25T12:28:46Z</time>
      </trkpt>
      <trkpt lat="47.00107" lon="-0.97133">
        <ele>106.9</ele>
        <time>2025-08-25T12:28:47Z</time>
      </trkpt>
      <trkpt lat="47.00106" lon="-0.97134">
        <ele>106.9</ele>
        <time>2025-08-25T12:28:48Z</time>
      </trkpt>
      <trkpt lat="47.00106" lon="-0.97134">
        <ele>106.9</ele>
        <time>2025-08-25T12:28:49Z</time>
      </trkpt>
      <trkpt lat="47.00104" lon="-0.97134">
        <ele>106.9</ele>
        <time>2025-08-25T12:28:50Z</time>
      </trkpt>
      <trkpt lat="47.00102" lon="-0.97135">
        <ele>106.9</ele>
        <time>2025-08-25T12:28:51Z</time>
      </trkpt>
      <trkpt lat="47.00101" lon="-0.97135">
        <ele>106.9</ele>
        <time>2025-08-25T12:28:52Z</time>
      </trkpt>
      <trkpt lat="47.001" lon="-0.97136">
        <ele>106.9</ele>
        <time>2025-08-25T12:28:53Z</time>
      </trkpt>
      <trkpt lat="47.00098" lon="-0.97137">
        <ele>106.9</ele>
        <time>2025-08-25T12:28:54Z</time>
      </trkpt>
      <trkpt lat="47.00097" lon="-0.97137">
        <ele>106.9</ele>
        <time>2025-08-25T12:28:55Z</time>
      </trkpt>
      <trkpt lat="47.00096" lon="-0.97137">
        <ele>106.9</ele>
        <time>2025-08-25T12:28:56Z</time>
      </trkpt>
      <trkpt lat="47.00094" lon="-0.97138">
        <ele>106.9</ele>
        <time>2025-08-25T12:28:57Z</time>
      </trkpt>
      <trkpt lat="47.00094" lon="-0.97138">
        <ele>106.9</ele>
        <time>2025-08-25T12:28:58Z</time>
      </trkpt>
      <trkpt lat="47.00093" lon="-0.97139">
        <ele>106.9</ele>
        <time>2025-08-25T12:28:59Z</time>
      </trkpt>
      <trkpt lat="47.00091" lon="-0.9714">
        <ele>106.9</ele>
        <time>2025-08-25T12:29:00Z</time>
      </trkpt>
      <trkpt lat="47.0009" lon="-0.9714">
        <ele>106.9</ele>
        <time>2025-08-25T12:29:01Z</time>
      </trkpt>
      <trkpt lat="47.00089" lon="-0.9714">
        <ele>106.9</ele>
        <time>2025-08-25T12:29:02Z</time>
      </trkpt>
      <trkpt lat="47.00088" lon="-0.9714">
        <ele>106.9</ele>
        <time>2025-08-25T12:29:03Z</time>
      </trkpt>
      <trkpt lat="47.00086" lon="-0.9714">
        <ele>106.9</ele>
        <time>2025-08-25T12:29:04Z</time>
      </trkpt>
      <trkpt lat="47.00085" lon="-0.97141">
        <ele>107</ele>
        <time>2025-08-25T12:29:05Z</time>
      </trkpt>
      <trkpt lat="47.00083" lon="-0.97141">
        <ele>107</ele>
        <time>2025-08-25T12:29:06Z</time>
      </trkpt>
      <trkpt lat="47.00082" lon="-0.97142">
        <ele>107</ele>
        <time>2025-08-25T12:29:07Z</time>
      </trkpt>
      <trkpt lat="47.00081" lon="-0.97142">
        <ele>107</ele>
        <time>2025-08-25T12:29:08Z</time>
      </trkpt>
      <trkpt lat="47.00079" lon="-0.97143">
        <ele>107</ele>
        <time>2025-08-25T12:29:09Z</time>
      </trkpt>
      <trkpt lat="47.00078" lon="-0.97143">
        <ele>107</ele>
        <time>2025-08-25T12:29:10Z</time>
      </trkpt>
      <trkpt lat="47.00077" lon="-0.97143">
        <ele>107</ele>
        <time>2025-08-25T12:29:11Z</time>
      </trkpt>
      <trkpt lat="47.00075" lon="-0.97144">
        <ele>107.1</ele>
        <time>2025-08-25T12:29:12Z</time>
      </trkpt>
      <trkpt lat="47.00075" lon="-0.97145">
        <ele>107.1</ele>
        <time>2025-08-25T12:29:13Z</time>
      </trkpt>
      <trkpt lat="47.00074" lon="-0.97145">
        <ele>107.1</ele>
        <time>2025-08-25T12:29:14Z</time>
      </trkpt>
      <trkpt lat="47.00072" lon="-0.97147">
        <ele>107.1</ele>
        <time>2025-08-25T12:29:15Z</time>
      </trkpt>
      <trkpt lat="47.00071" lon="-0.97147">
        <ele>107.1</ele>
        <time>2025-08-25T12:29:16Z</time>
      </trkpt>
      <trkpt lat="47.0007" lon="-0.97148">
        <ele>107.1</ele>
        <time>2025-08-25T12:29:17Z</time>
      </trkpt>
      <trkpt lat="47.0007" lon="-0.97149">
        <ele>107.2</ele>
        <time>2025-08-25T12:29:18Z</time>
      </trkpt>
      <trkpt lat="47.00069" lon="-0.9715">
        <ele>107.2</ele>
        <time>2025-08-25T12:29:19Z</time>
      </trkpt>
      <trkpt lat="47.00068" lon="-0.97151">
        <ele>107.2</ele>
        <time>2025-08-25T12:29:20Z</time>
      </trkpt>
      <trkpt lat="47.00067" lon="-0.97152">
        <ele>107.2</ele>
        <time>2025-08-25T12:29:21Z</time>
      </trkpt>
      <trkpt lat="47.00066" lon="-0.97153">
        <ele>107.2</ele>
        <time>2025-08-25T12:29:22Z</time>
      </trkpt>
      <trkpt lat="47.00065" lon="-0.97154">
        <ele>107.2</ele>
        <time>2025-08-25T12:29:23Z</time>
      </trkpt>
      <trkpt lat="47.00063" lon="-0.97154">
        <ele>107.2</ele>
        <time>2025-08-25T12:29:24Z</time>
      </trkpt>
      <trkpt lat="47.00062" lon="-0.97155">
        <ele>107.2</ele>
        <time>2025-08-25T12:29:25Z</time>
      </trkpt>
      <trkpt lat="47.0006" lon="-0.97155">
        <ele>107.3</ele>
        <time>2025-08-25T12:29:27Z</time>
      </trkpt>
      <trkpt lat="47.00058" lon="-0.97156">
        <ele>107.4</ele>
        <time>2025-08-25T12:29:28Z</time>
      </trkpt>
      <trkpt lat="47.00057" lon="-0.97156">
        <ele>107.4</ele>
        <time>2025-08-25T12:29:29Z</time>
      </trkpt>
      <trkpt lat="47.00056" lon="-0.97156">
        <ele>107.4</ele>
        <time>2025-08-25T12:29:30Z</time>
      </trkpt>
      <trkpt lat="47.00055" lon="-0.97156">
        <ele>107.5</ele>
        <time>2025-08-25T12:29:31Z</time>
      </trkpt>
      <trkpt lat="47.00054" lon="-0.97156">
        <ele>107.5</ele>
        <time>2025-08-25T12:29:32Z</time>
      </trkpt>
      <trkpt lat="47.00053" lon="-0.97156">
        <ele>107.6</ele>
        <time>2025-08-25T12:29:33Z</time>
      </trkpt>
      <trkpt lat="47.00051" lon="-0.97157">
        <ele>107.6</ele>
        <time>2025-08-25T12:29:34Z</time>
      </trkpt>
      <trkpt lat="47.0005" lon="-0.97157">
        <ele>107.6</ele>
        <time>2025-08-25T12:29:35Z</time>
      </trkpt>
      <trkpt lat="47.00049" lon="-0.97157">
        <ele>107.7</ele>
        <time>2025-08-25T12:29:36Z</time>
      </trkpt>
      <trkpt lat="47.00048" lon="-0.97158">
        <ele>107.7</ele>
        <time>2025-08-25T12:29:37Z</time>
      </trkpt>
      <trkpt lat="47.00047" lon="-0.97158">
        <ele>107.8</ele>
        <time>2025-08-25T12:29:38Z</time>
      </trkpt>
      <trkpt lat="47.00046" lon="-0.97158">
        <ele>107.8</ele>
        <time>2025-08-25T12:29:39Z</time>
      </trkpt>
      <trkpt lat="47.00045" lon="-0.97159">
        <ele>107.9</ele>
        <time>2025-08-25T12:29:40Z</time>
      </trkpt>
      <trkpt lat="47.00044" lon="-0.97159">
        <ele>107.9</ele>
        <time>2025-08-25T12:29:41Z</time>
      </trkpt>
      <trkpt lat="47.00042" lon="-0.97161">
        <ele>108</ele>
        <time>2025-08-25T12:29:42Z</time>
      </trkpt>
      <trkpt lat="47.00041" lon="-0.97161">
        <ele>108.1</ele>
        <time>2025-08-25T12:29:43Z</time>
      </trkpt>
      <trkpt lat="47.00041" lon="-0.97162">
        <ele>108.1</ele>
        <time>2025-08-25T12:29:44Z</time>
      </trkpt>
      <trkpt lat="47.00039" lon="-0.97163">
        <ele>108.2</ele>
        <time>2025-08-25T12:29:45Z</time>
      </trkpt>
      <trkpt lat="47.00038" lon="-0.97164">
        <ele>108.2</ele>
        <time>2025-08-25T12:29:46Z</time>
      </trkpt>
      <trkpt lat="47.00037" lon="-0.97164">
        <ele>108.3</ele>
        <time>2025-08-25T12:29:47Z</time>
      </trkpt>
      <trkpt lat="47.00036" lon="-0.97164">
        <ele>108.3</ele>
        <time>2025-08-25T12:29:48Z</time>
      </trkpt>
      <trkpt lat="47.00035" lon="-0.97165">
        <ele>108.4</ele>
        <time>2025-08-25T12:29:49Z</time>
      </trkpt>
      <trkpt lat="47.00034" lon="-0.97165">
        <ele>108.4</ele>
        <time>2025-08-25T12:29:50Z</time>
      </trkpt>
      <trkpt lat="47.00032" lon="-0.97165">
        <ele>108.5</ele>
        <time>2025-08-25T12:29:51Z</time>
      </trkpt>
      <trkpt lat="47.00031" lon="-0.97165">
        <ele>108.6</ele>
        <time>2025-08-25T12:29:52Z</time>
      </trkpt>
      <trkpt lat="47.0003" lon="-0.97165">
        <ele>108.6</ele>
        <time>2025-08-25T12:29:53Z</time>
      </trkpt>
      <trkpt lat="47.00029" lon="-0.97165">
        <ele>108.7</ele>
        <time>2025-08-25T12:29:54Z</time>
      </trkpt>
      <trkpt lat="47.00027" lon="-0.97165">
        <ele>108.7</ele>
        <time>2025-08-25T12:29:55Z</time>
      </trkpt>
      <trkpt lat="47.00026" lon="-0.97166">
        <ele>108.8</ele>
        <time>2025-08-25T12:29:56Z</time>
      </trkpt>
      <trkpt lat="47.00025" lon="-0.97166">
        <ele>108.8</ele>
        <time>2025-08-25T12:29:57Z</time>
      </trkpt>
      <trkpt lat="47.00024" lon="-0.97166">
        <ele>108.9</ele>
        <time>2025-08-25T12:29:58Z</time>
      </trkpt>
      <trkpt lat="47.00022" lon="-0.97166">
        <ele>108.9</ele>
        <time>2025-08-25T12:29:59Z</time>
      </trkpt>
      <trkpt lat="47.00021" lon="-0.97165">
        <ele>109</ele>
        <time>2025-08-25T12:30:00Z</time>
      </trkpt>
      <trkpt lat="47.00019" lon="-0.97164">
        <ele>109.1</ele>
        <time>2025-08-25T12:30:01Z</time>
      </trkpt>
      <trkpt lat="47.00018" lon="-0.97163">
        <ele>109</ele>
        <time>2025-08-25T12:30:02Z</time>
      </trkpt>
      <trkpt lat="47.00017" lon="-0.97162">
        <ele>109</ele>
        <time>2025-08-25T12:30:03Z</time>
      </trkpt>
      <trkpt lat="47.00016" lon="-0.97161">
        <ele>108.8</ele>
        <time>2025-08-25T12:30:04Z</time>
      </trkpt>
      <trkpt lat="47.00015" lon="-0.9716">
        <ele>108.7</ele>
        <time>2025-08-25T12:30:05Z</time>
      </trkpt>
      <trkpt lat="47.00014" lon="-0.97159">
        <ele>108.6</ele>
        <time>2025-08-25T12:30:06Z</time>
      </trkpt>
      <trkpt lat="47.00013" lon="-0.97157">
        <ele>108.5</ele>
        <time>2025-08-25T12:30:07Z</time>
      </trkpt>
      <trkpt lat="47.00012" lon="-0.97156">
        <ele>108.4</ele>
        <time>2025-08-25T12:30:08Z</time>
      </trkpt>
      <trkpt lat="47.00012" lon="-0.97156">
        <ele>108.4</ele>
        <time>2025-08-25T12:30:09Z</time>
      </trkpt>
      <trkpt lat="47.00011" lon="-0.97156">
        <ele>108.4</ele>
        <time>2025-08-25T12:30:10Z</time>
      </trkpt>
      <trkpt lat="47.00011" lon="-0.97155">
        <ele>108.3</ele>
        <time>2025-08-25T12:30:11Z</time>
      </trkpt>
      <trkpt lat="47.00011" lon="-0.97155">
        <ele>108.3</ele>
        <time>2025-08-25T12:30:12Z</time>
      </trkpt>
      <trkpt lat="47.0001" lon="-0.97155">
        <ele>108.3</ele>
        <time>2025-08-25T12:30:13Z</time>
      </trkpt>
      <trkpt lat="47.0001" lon="-0.97154">
        <ele>108.3</ele>
        <time>2025-08-25T12:30:14Z</time>
      </trkpt>
      <trkpt lat="47.0001" lon="-0.97154">
        <ele>108.2</ele>
        <time>2025-08-25T12:30:15Z</time>
      </trkpt>
      <trkpt lat="47.00008" lon="-0.97152">
        <ele>108.1</ele>
        <time>2025-08-25T12:30:16Z</time>
      </trkpt>
      <trkpt lat="47.00008" lon="-0.97151">
        <ele>108</ele>
        <time>2025-08-25T12:30:17Z</time>
      </trkpt>
      <trkpt lat="47.00007" lon="-0.9715">
        <ele>108</ele>
        <time>2025-08-25T12:30:18Z</time>
      </trkpt>
      <trkpt lat="47.00006" lon="-0.97148">
        <ele>107.8</ele>
        <time>2025-08-25T12:30:19Z</time>
      </trkpt>
      <trkpt lat="47.00005" lon="-0.97147">
        <ele>107.7</ele>
        <time>2025-08-25T12:30:20Z</time>
      </trkpt>
      <trkpt lat="47.00005" lon="-0.97145">
        <ele>107.6</ele>
        <time>2025-08-25T12:30:21Z</time>
      </trkpt>
      <trkpt lat="47.00004" lon="-0.97143">
        <ele>107.5</ele>
        <time>2025-08-25T12:30:22Z</time>
      </trkpt>
      <trkpt lat="47.00003" lon="-0.97141">
        <ele>107.4</ele>
        <time>2025-08-25T12:30:23Z</time>
      </trkpt>
      <trkpt lat="47.00002" lon="-0.9714">
        <ele>107.3</ele>
        <time>2025-08-25T12:30:24Z</time>
      </trkpt>
      <trkpt lat="47.00001" lon="-0.97137">
        <ele>107.1</ele>
        <time>2025-08-25T12:30:25Z</time>
      </trkpt>
      <trkpt lat="47.00001" lon="-0.97136">
        <ele>107.1</ele>
        <time>2025-08-25T12:30:26Z</time>
      </trkpt>
      <trkpt lat="47" lon="-0.97135">
        <ele>107</ele>
        <time>2025-08-25T12:30:27Z</time>
      </trkpt>
      <trkpt lat="46.99999" lon="-0.97133">
        <ele>106.9</ele>
        <time>2025-08-25T12:30:28Z</time>
      </trkpt>
      <trkpt lat="46.99998" lon="-0.97132">
        <ele>106.8</ele>
        <time>2025-08-25T12:30:29Z</time>
      </trkpt>
      <trkpt lat="46.99997" lon="-0.9713">
        <ele>106.7</ele>
        <time>2025-08-25T12:30:30Z</time>
      </trkpt>
      <trkpt lat="46.99996" lon="-0.97129">
        <ele>106.6</ele>
        <time>2025-08-25T12:30:31Z</time>
      </trkpt>
      <trkpt lat="46.99996" lon="-0.97128">
        <ele>106.6</ele>
        <time>2025-08-25T12:30:32Z</time>
      </trkpt>
      <trkpt lat="46.99995" lon="-0.97127">
        <ele>106.5</ele>
        <time>2025-08-25T12:30:33Z</time>
      </trkpt>
      <trkpt lat="46.99993" lon="-0.97126">
        <ele>106.3</ele>
        <time>2025-08-25T12:30:34Z</time>
      </trkpt>
      <trkpt lat="46.99992" lon="-0.97123">
        <ele>106.2</ele>
        <time>2025-08-25T12:30:35Z</time>
      </trkpt>
      <trkpt lat="46.99992" lon="-0.97122">
        <ele>106.1</ele>
        <time>2025-08-25T12:30:36Z</time>
      </trkpt>
      <trkpt lat="46.99991" lon="-0.97121">
        <ele>106</ele>
        <time>2025-08-25T12:30:37Z</time>
      </trkpt>
      <trkpt lat="46.9999" lon="-0.9712">
        <ele>105.9</ele>
        <time>2025-08-25T12:30:38Z</time>
      </trkpt>
      <trkpt lat="46.99989" lon="-0.97118">
        <ele>105.8</ele>
        <time>2025-08-25T12:30:39Z</time>
      </trkpt>
      <trkpt lat="46.99988" lon="-0.97117">
        <ele>105.7</ele>
        <time>2025-08-25T12:30:40Z</time>
      </trkpt>
      <trkpt lat="46.99987" lon="-0.97115">
        <ele>105.6</ele>
        <time>2025-08-25T12:30:41Z</time>
      </trkpt>
      <trkpt lat="46.99986" lon="-0.97114">
        <ele>105.5</ele>
        <time>2025-08-25T12:30:42Z</time>
      </trkpt>
      <trkpt lat="46.99985" lon="-0.97112">
        <ele>105.4</ele>
        <time>2025-08-25T12:30:43Z</time>
      </trkpt>
      <trkpt lat="46.99984" lon="-0.9711">
        <ele>105.2</ele>
        <time>2025-08-25T12:30:44Z</time>
      </trkpt>
      <trkpt lat="46.99984" lon="-0.97109">
        <ele>105.2</ele>
        <time>2025-08-25T12:30:45Z</time>
      </trkpt>
      <trkpt lat="46.99983" lon="-0.97108">
        <ele>105.1</ele>
        <time>2025-08-25T12:30:46Z</time>
      </trkpt>
      <trkpt lat="46.99982" lon="-0.97107">
        <ele>105</ele>
        <time>2025-08-25T12:30:47Z</time>
      </trkpt>
      <trkpt lat="46.99981" lon="-0.97105">
        <ele>104.9</ele>
        <time>2025-08-25T12:30:48Z</time>
      </trkpt>
      <trkpt lat="46.9998" lon="-0.97105">
        <ele>104.8</ele>
        <time>2025-08-25T12:30:49Z</time>
      </trkpt>
      <trkpt lat="46.9998" lon="-0.97103">
        <ele>104.7</ele>
        <time>2025-08-25T12:30:50Z</time>
      </trkpt>
      <trkpt lat="46.99979" lon="-0.97102">
        <ele>104.7</ele>
        <time>2025-08-25T12:30:51Z</time>
      </trkpt>
      <trkpt lat="46.99979" lon="-0.97101">
        <ele>104.6</ele>
        <time>2025-08-25T12:30:52Z</time>
      </trkpt>
      <trkpt lat="46.99978" lon="-0.97099">
        <ele>104.5</ele>
        <time>2025-08-25T12:30:53Z</time>
      </trkpt>
      <trkpt lat="46.99977" lon="-0.97099">
        <ele>104.4</ele>
        <time>2025-08-25T12:30:54Z</time>
      </trkpt>
      <trkpt lat="46.99977" lon="-0.97098">
        <ele>104.4</ele>
        <time>2025-08-25T12:30:55Z</time>
      </trkpt>
      <trkpt lat="46.99977" lon="-0.97097">
        <ele>104.3</ele>
        <time>2025-08-25T12:30:56Z</time>
      </trkpt>
      <trkpt lat="46.99978" lon="-0.97097">
        <ele>104.3</ele>
        <time>2025-08-25T12:30:57Z</time>
      </trkpt>
      <trkpt lat="46.99978" lon="-0.97097">
        <ele>104.3</ele>
        <time>2025-08-25T12:30:58Z</time>
      </trkpt>
      <trkpt lat="46.99978" lon="-0.97097">
        <ele>104.2</ele>
        <time>2025-08-25T12:30:59Z</time>
      </trkpt>
      <trkpt lat="46.99978" lon="-0.97097">
        <ele>104.2</ele>
        <time>2025-08-25T12:31:00Z</time>
      </trkpt>
      <trkpt lat="46.99978" lon="-0.97096">
        <ele>104.1</ele>
        <time>2025-08-25T12:31:01Z</time>
      </trkpt>
      <trkpt lat="46.99978" lon="-0.97094">
        <ele>104</ele>
        <time>2025-08-25T12:31:02Z</time>
      </trkpt>
      <trkpt lat="46.99977" lon="-0.97093">
        <ele>103.9</ele>
        <time>2025-08-25T12:31:03Z</time>
      </trkpt>
      <trkpt lat="46.99977" lon="-0.97092">
        <ele>103.9</ele>
        <time>2025-08-25T12:31:04Z</time>
      </trkpt>
      <trkpt lat="46.99976" lon="-0.97091">
        <ele>103.8</ele>
        <time>2025-08-25T12:31:05Z</time>
      </trkpt>
      <trkpt lat="46.99975" lon="-0.9709">
        <ele>103.7</ele>
        <time>2025-08-25T12:31:06Z</time>
      </trkpt>
      <trkpt lat="46.99974" lon="-0.97089">
        <ele>103.6</ele>
        <time>2025-08-25T12:31:07Z</time>
      </trkpt>
      <trkpt lat="46.99973" lon="-0.97087">
        <ele>103.5</ele>
        <time>2025-08-25T12:31:08Z</time>
      </trkpt>
      <trkpt lat="46.99973" lon="-0.97086">
        <ele>103.4</ele>
        <time>2025-08-25T12:31:09Z</time>
      </trkpt>
      <trkpt lat="46.99971" lon="-0.97084">
        <ele>103.2</ele>
        <time>2025-08-25T12:31:10Z</time>
      </trkpt>
      <trkpt lat="46.99971" lon="-0.97082">
        <ele>103.1</ele>
        <time>2025-08-25T12:31:11Z</time>
      </trkpt>
      <trkpt lat="46.99971" lon="-0.97081">
        <ele>103.1</ele>
        <time>2025-08-25T12:31:12Z</time>
      </trkpt>
      <trkpt lat="46.9997" lon="-0.9708">
        <ele>102.9</ele>
        <time>2025-08-25T12:31:13Z</time>
      </trkpt>
      <trkpt lat="46.9997" lon="-0.97078">
        <ele>102.8</ele>
        <time>2025-08-25T12:31:14Z</time>
      </trkpt>
      <trkpt lat="46.99969" lon="-0.97076">
        <ele>102.7</ele>
        <time>2025-08-25T12:31:15Z</time>
      </trkpt>
      <trkpt lat="46.99969" lon="-0.97074">
        <ele>102.6</ele>
        <time>2025-08-25T12:31:16Z</time>
      </trkpt>
      <trkpt lat="46.99969" lon="-0.97073">
        <ele>102.5</ele>
        <time>2025-08-25T12:31:17Z</time>
      </trkpt>
      <trkpt lat="46.99968" lon="-0.9707">
        <ele>102.3</ele>
        <time>2025-08-25T12:31:18Z</time>
      </trkpt>
      <trkpt lat="46.99968" lon="-0.97069">
        <ele>102.3</ele>
        <time>2025-08-25T12:31:19Z</time>
      </trkpt>
      <trkpt lat="46.99967" lon="-0.97067">
        <ele>102.2</ele>
        <time>2025-08-25T12:31:20Z</time>
      </trkpt>
      <trkpt lat="46.99967" lon="-0.97064">
        <ele>102</ele>
        <time>2025-08-25T12:31:21Z</time>
      </trkpt>
      <trkpt lat="46.99967" lon="-0.97063">
        <ele>101.9</ele>
        <time>2025-08-25T12:31:22Z</time>
      </trkpt>
      <trkpt lat="46.99967" lon="-0.97062">
        <ele>101.8</ele>
        <time>2025-08-25T12:31:23Z</time>
      </trkpt>
      <trkpt lat="46.99966" lon="-0.97059">
        <ele>101.6</ele>
        <time>2025-08-25T12:31:24Z</time>
      </trkpt>
      <trkpt lat="46.99966" lon="-0.97057">
        <ele>101.5</ele>
        <time>2025-08-25T12:31:25Z</time>
      </trkpt>
      <trkpt lat="46.99966" lon="-0.97054">
        <ele>101.3</ele>
        <time>2025-08-25T12:31:26Z</time>
      </trkpt>
      <trkpt lat="46.99966" lon="-0.97053">
        <ele>101.2</ele>
        <time>2025-08-25T12:31:27Z</time>
      </trkpt>
      <trkpt lat="46.99966" lon="-0.97051">
        <ele>101.1</ele>
        <time>2025-08-25T12:31:28Z</time>
      </trkpt>
      <trkpt lat="46.99966" lon="-0.97049">
        <ele>101</ele>
        <time>2025-08-25T12:31:29Z</time>
      </trkpt>
      <trkpt lat="46.99966" lon="-0.97047">
        <ele>100.8</ele>
        <time>2025-08-25T12:31:30Z</time>
      </trkpt>
      <trkpt lat="46.99965" lon="-0.97044">
        <ele>100.6</ele>
        <time>2025-08-25T12:31:31Z</time>
      </trkpt>
      <trkpt lat="46.99965" lon="-0.97043">
        <ele>100.5</ele>
        <time>2025-08-25T12:31:32Z</time>
      </trkpt>
      <trkpt lat="46.99965" lon="-0.97042">
        <ele>100.4</ele>
        <time>2025-08-25T12:31:33Z</time>
      </trkpt>
      <trkpt lat="46.99964" lon="-0.9704">
        <ele>100.3</ele>
        <time>2025-08-25T12:31:34Z</time>
      </trkpt>
      <trkpt lat="46.99964" lon="-0.97038">
        <ele>100.1</ele>
        <time>2025-08-25T12:31:35Z</time>
      </trkpt>
      <trkpt lat="46.99963" lon="-0.97035">
        <ele>99.9</ele>
        <time>2025-08-25T12:31:36Z</time>
      </trkpt>
      <trkpt lat="46.99963" lon="-0.97034">
        <ele>99.8</ele>
        <time>2025-08-25T12:31:37Z</time>
      </trkpt>
      <trkpt lat="46.99963" lon="-0.97033">
        <ele>99.8</ele>
        <time>2025-08-25T12:31:38Z</time>
      </trkpt>
      <trkpt lat="46.99962" lon="-0.9703">
        <ele>99.6</ele>
        <time>2025-08-25T12:31:39Z</time>
      </trkpt>
      <trkpt lat="46.99962" lon="-0.97028">
        <ele>99.5</ele>
        <time>2025-08-25T12:31:40Z</time>
      </trkpt>
      <trkpt lat="46.99962" lon="-0.97027">
        <ele>99.4</ele>
        <time>2025-08-25T12:31:41Z</time>
      </trkpt>
      <trkpt lat="46.99961" lon="-0.97024">
        <ele>99.2</ele>
        <time>2025-08-25T12:31:42Z</time>
      </trkpt>
      <trkpt lat="46.99961" lon="-0.97023">
        <ele>99.1</ele>
        <time>2025-08-25T12:31:43Z</time>
      </trkpt>
      <trkpt lat="46.99961" lon="-0.97022">
        <ele>99</ele>
        <time>2025-08-25T12:31:44Z</time>
      </trkpt>
      <trkpt lat="46.9996" lon="-0.97019">
        <ele>98.8</ele>
        <time>2025-08-25T12:31:45Z</time>
      </trkpt>
      <trkpt lat="46.9996" lon="-0.97018">
        <ele>98.7</ele>
        <time>2025-08-25T12:31:46Z</time>
      </trkpt>
      <trkpt lat="46.9996" lon="-0.97017">
        <ele>98.6</ele>
        <time>2025-08-25T12:31:47Z</time>
      </trkpt>
      <trkpt lat="46.99959" lon="-0.97014">
        <ele>98.4</ele>
        <time>2025-08-25T12:31:48Z</time>
      </trkpt>
      <trkpt lat="46.99958" lon="-0.97012">
        <ele>98.3</ele>
        <time>2025-08-25T12:31:49Z</time>
      </trkpt>
      <trkpt lat="46.99958" lon="-0.97011">
        <ele>98.2</ele>
        <time>2025-08-25T12:31:50Z</time>
      </trkpt>
      <trkpt lat="46.99958" lon="-0.97009">
        <ele>98.1</ele>
        <time>2025-08-25T12:31:51Z</time>
      </trkpt>
      <trkpt lat="46.99958" lon="-0.97007">
        <ele>97.9</ele>
        <time>2025-08-25T12:31:52Z</time>
      </trkpt>
      <trkpt lat="46.99957" lon="-0.97005">
        <ele>97.8</ele>
        <time>2025-08-25T12:31:53Z</time>
      </trkpt>
      <trkpt lat="46.99956" lon="-0.97003">
        <ele>97.7</ele>
        <time>2025-08-25T12:31:54Z</time>
      </trkpt>
      <trkpt lat="46.99956" lon="-0.97">
        <ele>97.5</ele>
        <time>2025-08-25T12:31:55Z</time>
      </trkpt>
      <trkpt lat="46.99955" lon="-0.96999">
        <ele>97.4</ele>
        <time>2025-08-25T12:31:56Z</time>
      </trkpt>
      <trkpt lat="46.99955" lon="-0.96998">
        <ele>97.3</ele>
        <time>2025-08-25T12:31:57Z</time>
      </trkpt>
      <trkpt lat="46.99955" lon="-0.96996">
        <ele>97.2</ele>
        <time>2025-08-25T12:31:58Z</time>
      </trkpt>
      <trkpt lat="46.99954" lon="-0.96994">
        <ele>97</ele>
        <time>2025-08-25T12:31:59Z</time>
      </trkpt>
      <trkpt lat="46.99954" lon="-0.96991">
        <ele>96.8</ele>
        <time>2025-08-25T12:32:00Z</time>
      </trkpt>
      <trkpt lat="46.99954" lon="-0.96989">
        <ele>96.8</ele>
        <time>2025-08-25T12:32:01Z</time>
      </trkpt>
      <trkpt lat="46.99954" lon="-0.96988">
        <ele>96.7</ele>
        <time>2025-08-25T12:32:02Z</time>
      </trkpt>
      <trkpt lat="46.99954" lon="-0.96986">
        <ele>96.6</ele>
        <time>2025-08-25T12:32:03Z</time>
      </trkpt>
      <trkpt lat="46.99955" lon="-0.96984">
        <ele>96.4</ele>
        <time>2025-08-25T12:32:04Z</time>
      </trkpt>
      <trkpt lat="46.99955" lon="-0.96981">
        <ele>96.2</ele>
        <time>2025-08-25T12:32:05Z</time>
      </trkpt>
      <trkpt lat="46.99955" lon="-0.9698">
        <ele>96.2</ele>
        <time>2025-08-25T12:32:06Z</time>
      </trkpt>
      <trkpt lat="46.99955" lon="-0.96979">
        <ele>96.1</ele>
        <time>2025-08-25T12:32:07Z</time>
      </trkpt>
      <trkpt lat="46.99954" lon="-0.96976">
        <ele>95.9</ele>
        <time>2025-08-25T12:32:08Z</time>
      </trkpt>
      <trkpt lat="46.99954" lon="-0.96975">
        <ele>95.8</ele>
        <time>2025-08-25T12:32:09Z</time>
      </trkpt>
      <trkpt lat="46.99953" lon="-0.96973">
        <ele>95.7</ele>
        <time>2025-08-25T12:32:10Z</time>
      </trkpt>
      <trkpt lat="46.99952" lon="-0.9697">
        <ele>95.6</ele>
        <time>2025-08-25T12:32:11Z</time>
      </trkpt>
      <trkpt lat="46.99952" lon="-0.96969">
        <ele>95.5</ele>
        <time>2025-08-25T12:32:12Z</time>
      </trkpt>
      <trkpt lat="46.99952" lon="-0.96968">
        <ele>95.4</ele>
        <time>2025-08-25T12:32:13Z</time>
      </trkpt>
      <trkpt lat="46.99951" lon="-0.96967">
        <ele>95.3</ele>
        <time>2025-08-25T12:32:14Z</time>
      </trkpt>
      <trkpt lat="46.99951" lon="-0.96965">
        <ele>95.2</ele>
        <time>2025-08-25T12:32:15Z</time>
      </trkpt>
      <trkpt lat="46.9995" lon="-0.96962">
        <ele>95</ele>
        <time>2025-08-25T12:32:16Z</time>
      </trkpt>
      <trkpt lat="46.99949" lon="-0.96961">
        <ele>94.9</ele>
        <time>2025-08-25T12:32:17Z</time>
      </trkpt>
      <trkpt lat="46.99949" lon="-0.96959">
        <ele>94.8</ele>
        <time>2025-08-25T12:32:18Z</time>
      </trkpt>
      <trkpt lat="46.99948" lon="-0.96958">
        <ele>94.7</ele>
        <time>2025-08-25T12:32:19Z</time>
      </trkpt>
      <trkpt lat="46.99947" lon="-0.96956">
        <ele>94.6</ele>
        <time>2025-08-25T12:32:20Z</time>
      </trkpt>
      <trkpt lat="46.99945" lon="-0.96954">
        <ele>94.4</ele>
        <time>2025-08-25T12:32:21Z</time>
      </trkpt>
      <trkpt lat="46.99945" lon="-0.96953">
        <ele>94.3</ele>
        <time>2025-08-25T12:32:22Z</time>
      </trkpt>
      <trkpt lat="46.99944" lon="-0.96953">
        <ele>94.3</ele>
        <time>2025-08-25T12:32:23Z</time>
      </trkpt>
      <trkpt lat="46.99942" lon="-0.96951">
        <ele>94.1</ele>
        <time>2025-08-25T12:32:24Z</time>
      </trkpt>
      <trkpt lat="46.99941" lon="-0.9695">
        <ele>94</ele>
        <time>2025-08-25T12:32:25Z</time>
      </trkpt>
      <trkpt lat="46.99941" lon="-0.96949">
        <ele>94</ele>
        <time>2025-08-25T12:32:26Z</time>
      </trkpt>
      <trkpt lat="46.9994" lon="-0.96948">
        <ele>93.9</ele>
        <time>2025-08-25T12:32:27Z</time>
      </trkpt>
      <trkpt lat="46.99939" lon="-0.96946">
        <ele>93.8</ele>
        <time>2025-08-25T12:32:28Z</time>
      </trkpt>
      <trkpt lat="46.99939" lon="-0.96945">
        <ele>93.7</ele>
        <time>2025-08-25T12:32:29Z</time>
      </trkpt>
      <trkpt lat="46.99938" lon="-0.96944">
        <ele>93.6</ele>
        <time>2025-08-25T12:32:30Z</time>
      </trkpt>
      <trkpt lat="46.99937" lon="-0.96942">
        <ele>93.5</ele>
        <time>2025-08-25T12:32:31Z</time>
      </trkpt>
      <trkpt lat="46.99935" lon="-0.96941">
        <ele>93.4</ele>
        <time>2025-08-25T12:32:32Z</time>
      </trkpt>
      <trkpt lat="46.99934" lon="-0.96941">
        <ele>93.3</ele>
        <time>2025-08-25T12:32:33Z</time>
      </trkpt>
      <trkpt lat="46.99932" lon="-0.96941">
        <ele>93.1</ele>
        <time>2025-08-25T12:32:34Z</time>
      </trkpt>
      <trkpt lat="46.99931" lon="-0.96941">
        <ele>93</ele>
        <time>2025-08-25T12:32:35Z</time>
      </trkpt>
      <trkpt lat="46.99929" lon="-0.96941">
        <ele>92.8</ele>
        <time>2025-08-25T12:32:36Z</time>
      </trkpt>
      <trkpt lat="46.99928" lon="-0.96942">
        <ele>92.7</ele>
        <time>2025-08-25T12:32:37Z</time>
      </trkpt>
      <trkpt lat="46.99926" lon="-0.96943">
        <ele>92.5</ele>
        <time>2025-08-25T12:32:38Z</time>
      </trkpt>
      <trkpt lat="46.99925" lon="-0.96944">
        <ele>92.3</ele>
        <time>2025-08-25T12:32:39Z</time>
      </trkpt>
      <trkpt lat="46.99923" lon="-0.96945">
        <ele>92.2</ele>
        <time>2025-08-25T12:32:40Z</time>
      </trkpt>
      <trkpt lat="46.99922" lon="-0.96945">
        <ele>92</ele>
        <time>2025-08-25T12:32:41Z</time>
      </trkpt>
      <trkpt lat="46.9992" lon="-0.96945">
        <ele>91.8</ele>
        <time>2025-08-25T12:32:42Z</time>
      </trkpt>
      <trkpt lat="46.99919" lon="-0.96945">
        <ele>91.7</ele>
        <time>2025-08-25T12:32:43Z</time>
      </trkpt>
      <trkpt lat="46.99917" lon="-0.96944">
        <ele>91.4</ele>
        <time>2025-08-25T12:32:44Z</time>
      </trkpt>
      <trkpt lat="46.99916" lon="-0.96944">
        <ele>91.3</ele>
        <time>2025-08-25T12:32:45Z</time>
      </trkpt>
      <trkpt lat="46.99916" lon="-0.96943">
        <ele>91.1</ele>
        <time>2025-08-25T12:32:46Z</time>
      </trkpt>
      <trkpt lat="46.99915" lon="-0.96942">
        <ele>91</ele>
        <time>2025-08-25T12:32:47Z</time>
      </trkpt>
      <trkpt lat="46.99914" lon="-0.9694">
        <ele>90.8</ele>
        <time>2025-08-25T12:32:48Z</time>
      </trkpt>
      <trkpt lat="46.99913" lon="-0.9694">
        <ele>90.7</ele>
        <time>2025-08-25T12:32:49Z</time>
      </trkpt>
      <trkpt lat="46.99913" lon="-0.96939">
        <ele>90.6</ele>
        <time>2025-08-25T12:32:50Z</time>
      </trkpt>
      <trkpt lat="46.99913" lon="-0.96938">
        <ele>90.5</ele>
        <time>2025-08-25T12:32:51Z</time>
      </trkpt>
      <trkpt lat="46.99913" lon="-0.96938">
        <ele>90.4</ele>
        <time>2025-08-25T12:32:52Z</time>
      </trkpt>
      <trkpt lat="46.99913" lon="-0.96937">
        <ele>90.3</ele>
        <time>2025-08-25T12:32:53Z</time>
      </trkpt>
      <trkpt lat="46.99912" lon="-0.96935">
        <ele>90.1</ele>
        <time>2025-08-25T12:32:54Z</time>
      </trkpt>
      <trkpt lat="46.99911" lon="-0.96932">
        <ele>89.8</ele>
        <time>2025-08-25T12:32:55Z</time>
      </trkpt>
      <trkpt lat="46.99911" lon="-0.96931">
        <ele>89.6</ele>
        <time>2025-08-25T12:32:56Z</time>
      </trkpt>
      <trkpt lat="46.99911" lon="-0.9693">
        <ele>89.5</ele>
        <time>2025-08-25T12:32:57Z</time>
      </trkpt>
      <trkpt lat="46.9991" lon="-0.96928">
        <ele>89.2</ele>
        <time>2025-08-25T12:32:58Z</time>
      </trkpt>
      <trkpt lat="46.99909" lon="-0.96926">
        <ele>89.1</ele>
        <time>2025-08-25T12:32:59Z</time>
      </trkpt>
      <trkpt lat="46.99908" lon="-0.96924">
        <ele>88.7</ele>
        <time>2025-08-25T12:33:00Z</time>
      </trkpt>
      <trkpt lat="46.99907" lon="-0.96923">
        <ele>88.6</ele>
        <time>2025-08-25T12:33:01Z</time>
      </trkpt>
      <trkpt lat="46.99907" lon="-0.96922">
        <ele>88.5</ele>
        <time>2025-08-25T12:33:02Z</time>
      </trkpt>
      <trkpt lat="46.99906" lon="-0.96919">
        <ele>88.2</ele>
        <time>2025-08-25T12:33:03Z</time>
      </trkpt>
      <trkpt lat="46.99905" lon="-0.96918">
        <ele>88.1</ele>
        <time>2025-08-25T12:33:04Z</time>
      </trkpt>
      <trkpt lat="46.99905" lon="-0.96917">
        <ele>88</ele>
        <time>2025-08-25T12:33:05Z</time>
      </trkpt>
      <trkpt lat="46.99904" lon="-0.96915">
        <ele>87.9</ele>
        <time>2025-08-25T12:33:06Z</time>
      </trkpt>
      <trkpt lat="46.99903" lon="-0.96914">
        <ele>87.8</ele>
        <time>2025-08-25T12:33:07Z</time>
      </trkpt>
      <trkpt lat="46.99903" lon="-0.96913">
        <ele>87.7</ele>
        <time>2025-08-25T12:33:08Z</time>
      </trkpt>
      <trkpt lat="46.99902" lon="-0.96912">
        <ele>87.6</ele>
        <time>2025-08-25T12:33:09Z</time>
      </trkpt>
      <trkpt lat="46.99901" lon="-0.96911">
        <ele>87.5</ele>
        <time>2025-08-25T12:33:10Z</time>
      </trkpt>
      <trkpt lat="46.99901" lon="-0.9691">
        <ele>87.4</ele>
        <time>2025-08-25T12:33:11Z</time>
      </trkpt>
      <trkpt lat="46.999" lon="-0.96909">
        <ele>87.3</ele>
        <time>2025-08-25T12:33:12Z</time>
      </trkpt>
      <trkpt lat="46.999" lon="-0.96907">
        <ele>87.2</ele>
        <time>2025-08-25T12:33:13Z</time>
      </trkpt>
      <trkpt lat="46.99899" lon="-0.96906">
        <ele>87.2</ele>
        <time>2025-08-25T12:33:14Z</time>
      </trkpt>
      <trkpt lat="46.99899" lon="-0.96905">
        <ele>87.1</ele>
        <time>2025-08-25T12:33:15Z</time>
      </trkpt>
      <trkpt lat="46.99898" lon="-0.96904">
        <ele>87.1</ele>
        <time>2025-08-25T12:33:16Z</time>
      </trkpt>
      <trkpt lat="46.99897" lon="-0.96903">
        <ele>87</ele>
        <time>2025-08-25T12:33:17Z</time>
      </trkpt>
      <trkpt lat="46.99896" lon="-0.96902">
        <ele>86.9</ele>
        <time>2025-08-25T12:33:18Z</time>
      </trkpt>
      <trkpt lat="46.99896" lon="-0.96901">
        <ele>86.9</ele>
        <time>2025-08-25T12:33:19Z</time>
      </trkpt>
      <trkpt lat="46.99895" lon="-0.969">
        <ele>86.8</ele>
        <time>2025-08-25T12:33:20Z</time>
      </trkpt>
      <trkpt lat="46.99894" lon="-0.96899">
        <ele>86.7</ele>
        <time>2025-08-25T12:33:21Z</time>
      </trkpt>
      <trkpt lat="46.99893" lon="-0.96899">
        <ele>86.7</ele>
        <time>2025-08-25T12:33:22Z</time>
      </trkpt>
      <trkpt lat="46.99891" lon="-0.96898">
        <ele>86.6</ele>
        <time>2025-08-25T12:33:23Z</time>
      </trkpt>
      <trkpt lat="46.9989" lon="-0.96898">
        <ele>86.6</ele>
        <time>2025-08-25T12:33:24Z</time>
      </trkpt>
      <trkpt lat="46.99889" lon="-0.96897">
        <ele>86.5</ele>
        <time>2025-08-25T12:33:25Z</time>
      </trkpt>
      <trkpt lat="46.99888" lon="-0.96897">
        <ele>86.5</ele>
        <time>2025-08-25T12:33:26Z</time>
      </trkpt>
      <trkpt lat="46.99887" lon="-0.96896">
        <ele>86.4</ele>
        <time>2025-08-25T12:33:27Z</time>
      </trkpt>
      <trkpt lat="46.99886" lon="-0.96894">
        <ele>86.4</ele>
        <time>2025-08-25T12:33:28Z</time>
      </trkpt>
      <trkpt lat="46.99885" lon="-0.96894">
        <ele>86.3</ele>
        <time>2025-08-25T12:33:29Z</time>
      </trkpt>
      <trkpt lat="46.99885" lon="-0.96893">
        <ele>86.3</ele>
        <time>2025-08-25T12:33:30Z</time>
      </trkpt>
      <trkpt lat="46.99884" lon="-0.96893">
        <ele>86.3</ele>
        <time>2025-08-25T12:33:31Z</time>
      </trkpt>
      <trkpt lat="46.99883" lon="-0.96892">
        <ele>86.3</ele>
        <time>2025-08-25T12:33:32Z</time>
      </trkpt>
      <trkpt lat="46.99881" lon="-0.96891">
        <ele>86.2</ele>
        <time>2025-08-25T12:33:33Z</time>
      </trkpt>
      <trkpt lat="46.99881" lon="-0.9689">
        <ele>86.2</ele>
        <time>2025-08-25T12:33:34Z</time>
      </trkpt>
      <trkpt lat="46.9988" lon="-0.9689">
        <ele>86.1</ele>
        <time>2025-08-25T12:33:35Z</time>
      </trkpt>
      <trkpt lat="46.99877" lon="-0.96889">
        <ele>86.1</ele>
        <time>2025-08-25T12:33:36Z</time>
      </trkpt>
      <trkpt lat="46.99877" lon="-0.96888">
        <ele>86.1</ele>
        <time>2025-08-25T12:33:37Z</time>
      </trkpt>
      <trkpt lat="46.99876" lon="-0.96888">
        <ele>86</ele>
        <time>2025-08-25T12:33:38Z</time>
      </trkpt>
      <trkpt lat="46.99874" lon="-0.96887">
        <ele>86</ele>
        <time>2025-08-25T12:33:39Z</time>
      </trkpt>
      <trkpt lat="46.99873" lon="-0.96887">
        <ele>86</ele>
        <time>2025-08-25T12:33:40Z</time>
      </trkpt>
      <trkpt lat="46.99872" lon="-0.96886">
        <ele>85.9</ele>
        <time>2025-08-25T12:33:41Z</time>
      </trkpt>
      <trkpt lat="46.9987" lon="-0.96885">
        <ele>85.9</ele>
        <time>2025-08-25T12:33:42Z</time>
      </trkpt>
      <trkpt lat="46.99869" lon="-0.96884">
        <ele>85.8</ele>
        <time>2025-08-25T12:33:43Z</time>
      </trkpt>
      <trkpt lat="46.99868" lon="-0.96882">
        <ele>85.8</ele>
        <time>2025-08-25T12:33:44Z</time>
      </trkpt>
      <trkpt lat="46.99867" lon="-0.96881">
        <ele>85.8</ele>
        <time>2025-08-25T12:33:45Z</time>
      </trkpt>
      <trkpt lat="46.99866" lon="-0.96878">
        <ele>85.7</ele>
        <time>2025-08-25T12:33:46Z</time>
      </trkpt>
      <trkpt lat="46.99865" lon="-0.96877">
        <ele>85.7</ele>
        <time>2025-08-25T12:33:47Z</time>
      </trkpt>
      <trkpt lat="46.99865" lon="-0.96876">
        <ele>85.7</ele>
        <time>2025-08-25T12:33:48Z</time>
      </trkpt>
      <trkpt lat="46.99864" lon="-0.96875">
        <ele>85.6</ele>
        <time>2025-08-25T12:33:49Z</time>
      </trkpt>
      <trkpt lat="46.99863" lon="-0.96873">
        <ele>85.6</ele>
        <time>2025-08-25T12:33:50Z</time>
      </trkpt>
      <trkpt lat="46.99861" lon="-0.96871">
        <ele>85.6</ele>
        <time>2025-08-25T12:33:51Z</time>
      </trkpt>
      <trkpt lat="46.9986" lon="-0.9687">
        <ele>85.5</ele>
        <time>2025-08-25T12:33:52Z</time>
      </trkpt>
      <trkpt lat="46.99858" lon="-0.96868">
        <ele>85.5</ele>
        <time>2025-08-25T12:33:53Z</time>
      </trkpt>
      <trkpt lat="46.99856" lon="-0.96867">
        <ele>85.5</ele>
        <time>2025-08-25T12:33:54Z</time>
      </trkpt>
      <trkpt lat="46.99855" lon="-0.96866">
        <ele>85.4</ele>
        <time>2025-08-25T12:33:55Z</time>
      </trkpt>
      <trkpt lat="46.99853" lon="-0.96864">
        <ele>85.4</ele>
        <time>2025-08-25T12:33:56Z</time>
      </trkpt>
      <trkpt lat="46.99852" lon="-0.96863">
        <ele>85.4</ele>
        <time>2025-08-25T12:33:57Z</time>
      </trkpt>
      <trkpt lat="46.9985" lon="-0.96863">
        <ele>85.3</ele>
        <time>2025-08-25T12:33:58Z</time>
      </trkpt>
      <trkpt lat="46.99849" lon="-0.96862">
        <ele>85.3</ele>
        <time>2025-08-25T12:33:59Z</time>
      </trkpt>
      <trkpt lat="46.99847" lon="-0.96861">
        <ele>85.2</ele>
        <time>2025-08-25T12:34:00Z</time>
      </trkpt>
      <trkpt lat="46.99846" lon="-0.96861">
        <ele>85.2</ele>
        <time>2025-08-25T12:34:01Z</time>
      </trkpt>
      <trkpt lat="46.99844" lon="-0.9686">
        <ele>85.1</ele>
        <time>2025-08-25T12:34:02Z</time>
      </trkpt>
      <trkpt lat="46.99842" lon="-0.96859">
        <ele>85.1</ele>
        <time>2025-08-25T12:34:03Z</time>
      </trkpt>
      <trkpt lat="46.99841" lon="-0.96859">
        <ele>85</ele>
        <time>2025-08-25T12:34:04Z</time>
      </trkpt>
      <trkpt lat="46.9984" lon="-0.96858">
        <ele>85</ele>
        <time>2025-08-25T12:34:05Z</time>
      </trkpt>
      <trkpt lat="46.99838" lon="-0.96857">
        <ele>84.9</ele>
        <time>2025-08-25T12:34:06Z</time>
      </trkpt>
      <trkpt lat="46.99836" lon="-0.96856">
        <ele>84.8</ele>
        <time>2025-08-25T12:34:07Z</time>
      </trkpt>
      <trkpt lat="46.99835" lon="-0.96856">
        <ele>84.7</ele>
        <time>2025-08-25T12:34:08Z</time>
      </trkpt>
      <trkpt lat="46.99833" lon="-0.96855">
        <ele>84.6</ele>
        <time>2025-08-25T12:34:09Z</time>
      </trkpt>
      <trkpt lat="46.99832" lon="-0.96854">
        <ele>84.6</ele>
        <time>2025-08-25T12:34:10Z</time>
      </trkpt>
      <trkpt lat="46.99831" lon="-0.96854">
        <ele>84.5</ele>
        <time>2025-08-25T12:34:11Z</time>
      </trkpt>
      <trkpt lat="46.99829" lon="-0.96853">
        <ele>84.4</ele>
        <time>2025-08-25T12:34:12Z</time>
      </trkpt>
      <trkpt lat="46.99828" lon="-0.96853">
        <ele>84.4</ele>
        <time>2025-08-25T12:34:13Z</time>
      </trkpt>
      <trkpt lat="46.99827" lon="-0.96852">
        <ele>84.4</ele>
        <time>2025-08-25T12:34:14Z</time>
      </trkpt>
      <trkpt lat="46.99825" lon="-0.96851">
        <ele>84.3</ele>
        <time>2025-08-25T12:34:15Z</time>
      </trkpt>
      <trkpt lat="46.99825" lon="-0.96851">
        <ele>84.2</ele>
        <time>2025-08-25T12:34:16Z</time>
      </trkpt>
      <trkpt lat="46.99823" lon="-0.96849">
        <ele>84.1</ele>
        <time>2025-08-25T12:34:17Z</time>
      </trkpt>
      <trkpt lat="46.99822" lon="-0.96848">
        <ele>84.1</ele>
        <time>2025-08-25T12:34:18Z</time>
      </trkpt>
      <trkpt lat="46.99821" lon="-0.96848">
        <ele>84</ele>
        <time>2025-08-25T12:34:19Z</time>
      </trkpt>
      <trkpt lat="46.9982" lon="-0.96846">
        <ele>84</ele>
        <time>2025-08-25T12:34:20Z</time>
      </trkpt>
      <trkpt lat="46.99819" lon="-0.96845">
        <ele>83.9</ele>
        <time>2025-08-25T12:34:21Z</time>
      </trkpt>
      <trkpt lat="46.99818" lon="-0.96845">
        <ele>83.9</ele>
        <time>2025-08-25T12:34:22Z</time>
      </trkpt>
      <trkpt lat="46.99816" lon="-0.96843">
        <ele>83.8</ele>
        <time>2025-08-25T12:34:23Z</time>
      </trkpt>
      <trkpt lat="46.99815" lon="-0.96842">
        <ele>83.7</ele>
        <time>2025-08-25T12:34:24Z</time>
      </trkpt>
      <trkpt lat="46.99815" lon="-0.96841">
        <ele>83.7</ele>
        <time>2025-08-25T12:34:25Z</time>
      </trkpt>
      <trkpt lat="46.99813" lon="-0.96839">
        <ele>83.7</ele>
        <time>2025-08-25T12:34:26Z</time>
      </trkpt>
      <trkpt lat="46.99813" lon="-0.96838">
        <ele>83.8</ele>
        <time>2025-08-25T12:34:27Z</time>
      </trkpt>
      <trkpt lat="46.99812" lon="-0.96837">
        <ele>83.8</ele>
        <time>2025-08-25T12:34:28Z</time>
      </trkpt>
      <trkpt lat="46.99811" lon="-0.96835">
        <ele>83.8</ele>
        <time>2025-08-25T12:34:29Z</time>
      </trkpt>
      <trkpt lat="46.99811" lon="-0.96833">
        <ele>83.9</ele>
        <time>2025-08-25T12:34:30Z</time>
      </trkpt>
      <trkpt lat="46.9981" lon="-0.96832">
        <ele>83.9</ele>
        <time>2025-08-25T12:34:31Z</time>
      </trkpt>
      <trkpt lat="46.9981" lon="-0.96831">
        <ele>83.9</ele>
        <time>2025-08-25T12:34:32Z</time>
      </trkpt>
      <trkpt lat="46.9981" lon="-0.96829">
        <ele>84</ele>
        <time>2025-08-25T12:34:33Z</time>
      </trkpt>
      <trkpt lat="46.9981" lon="-0.96828">
        <ele>84</ele>
        <time>2025-08-25T12:34:34Z</time>
      </trkpt>
      <trkpt lat="46.9981" lon="-0.96828">
        <ele>84</ele>
        <time>2025-08-25T12:34:35Z</time>
      </trkpt>
      <trkpt lat="46.99812" lon="-0.96828">
        <ele>84.1</ele>
        <time>2025-08-25T12:34:36Z</time>
      </trkpt>
      <trkpt lat="46.99812" lon="-0.96829">
        <ele>84.1</ele>
        <time>2025-08-25T12:34:37Z</time>
      </trkpt>
      <trkpt lat="46.99813" lon="-0.9683">
        <ele>84.1</ele>
        <time>2025-08-25T12:34:38Z</time>
      </trkpt>
      <trkpt lat="46.99814" lon="-0.96831">
        <ele>84.2</ele>
        <time>2025-08-25T12:34:39Z</time>
      </trkpt>
      <trkpt lat="46.99815" lon="-0.96831">
        <ele>84.2</ele>
        <time>2025-08-25T12:34:40Z</time>
      </trkpt>
      <trkpt lat="46.99816" lon="-0.96831">
        <ele>84.3</ele>
        <time>2025-08-25T12:34:41Z</time>
      </trkpt>
      <trkpt lat="46.99817" lon="-0.96831">
        <ele>84.3</ele>
        <time>2025-08-25T12:34:42Z</time>
      </trkpt>
      <trkpt lat="46.99818" lon="-0.9683">
        <ele>84.4</ele>
        <time>2025-08-25T12:34:43Z</time>
      </trkpt>
      <trkpt lat="46.99819" lon="-0.9683">
        <ele>84.4</ele>
        <time>2025-08-25T12:34:44Z</time>
      </trkpt>
      <trkpt lat="46.99819" lon="-0.96829">
        <ele>84.5</ele>
        <time>2025-08-25T12:34:45Z</time>
      </trkpt>
      <trkpt lat="46.9982" lon="-0.96827">
        <ele>84.5</ele>
        <time>2025-08-25T12:34:46Z</time>
      </trkpt>
      <trkpt lat="46.9982" lon="-0.96826">
        <ele>84.6</ele>
        <time>2025-08-25T12:34:47Z</time>
      </trkpt>
      <trkpt lat="46.99821" lon="-0.96824">
        <ele>84.6</ele>
        <time>2025-08-25T12:34:48Z</time>
      </trkpt>
      <trkpt lat="46.99821" lon="-0.96823">
        <ele>84.7</ele>
        <time>2025-08-25T12:34:49Z</time>
      </trkpt>
      <trkpt lat="46.99821" lon="-0.96821">
        <ele>84.8</ele>
        <time>2025-08-25T12:34:50Z</time>
      </trkpt>
      <trkpt lat="46.99821" lon="-0.96819">
        <ele>84.8</ele>
        <time>2025-08-25T12:34:51Z</time>
      </trkpt>
      <trkpt lat="46.99821" lon="-0.96818">
        <ele>84.9</ele>
        <time>2025-08-25T12:34:52Z</time>
      </trkpt>
      <trkpt lat="46.99821" lon="-0.96817">
        <ele>84.9</ele>
        <time>2025-08-25T12:34:53Z</time>
      </trkpt>
      <trkpt lat="46.99821" lon="-0.96815">
        <ele>85</ele>
        <time>2025-08-25T12:34:54Z</time>
      </trkpt>
      <trkpt lat="46.99821" lon="-0.96814">
        <ele>85.1</ele>
        <time>2025-08-25T12:34:55Z</time>
      </trkpt>
      <trkpt lat="46.99821" lon="-0.96812">
        <ele>85.1</ele>
        <time>2025-08-25T12:34:56Z</time>
      </trkpt>
      <trkpt lat="46.99822" lon="-0.96811">
        <ele>85.2</ele>
        <time>2025-08-25T12:34:57Z</time>
      </trkpt>
      <trkpt lat="46.99822" lon="-0.96809">
        <ele>85.2</ele>
        <time>2025-08-25T12:34:58Z</time>
      </trkpt>
      <trkpt lat="46.99822" lon="-0.96808">
        <ele>85.3</ele>
        <time>2025-08-25T12:34:59Z</time>
      </trkpt>
      <trkpt lat="46.99822" lon="-0.96806">
        <ele>85.4</ele>
        <time>2025-08-25T12:35:00Z</time>
      </trkpt>
      <trkpt lat="46.99823" lon="-0.96805">
        <ele>85.4</ele>
        <time>2025-08-25T12:35:01Z</time>
      </trkpt>
      <trkpt lat="46.99823" lon="-0.96804">
        <ele>85.5</ele>
        <time>2025-08-25T12:35:02Z</time>
      </trkpt>
      <trkpt lat="46.99824" lon="-0.96802">
        <ele>85.6</ele>
        <time>2025-08-25T12:35:03Z</time>
      </trkpt>
      <trkpt lat="46.99825" lon="-0.96802">
        <ele>85.7</ele>
        <time>2025-08-25T12:35:04Z</time>
      </trkpt>
      <trkpt lat="46.99826" lon="-0.96801">
        <ele>85.7</ele>
        <time>2025-08-25T12:35:05Z</time>
      </trkpt>
      <trkpt lat="46.99827" lon="-0.96801">
        <ele>85.8</ele>
        <time>2025-08-25T12:35:06Z</time>
      </trkpt>
      <trkpt lat="46.99829" lon="-0.96801">
        <ele>86</ele>
        <time>2025-08-25T12:35:07Z</time>
      </trkpt>
      <trkpt lat="46.9983" lon="-0.96801">
        <ele>86.1</ele>
        <time>2025-08-25T12:35:08Z</time>
      </trkpt>
      <trkpt lat="46.99831" lon="-0.968">
        <ele>86.2</ele>
        <time>2025-08-25T12:35:09Z</time>
      </trkpt>
      <trkpt lat="46.99833" lon="-0.968">
        <ele>86.3</ele>
        <time>2025-08-25T12:35:10Z</time>
      </trkpt>
      <trkpt lat="46.99834" lon="-0.96799">
        <ele>86.4</ele>
        <time>2025-08-25T12:35:11Z</time>
      </trkpt>
      <trkpt lat="46.99835" lon="-0.96799">
        <ele>86.4</ele>
        <time>2025-08-25T12:35:12Z</time>
      </trkpt>
      <trkpt lat="46.99837" lon="-0.96797">
        <ele>86.6</ele>
        <time>2025-08-25T12:35:13Z</time>
      </trkpt>
      <trkpt lat="46.99838" lon="-0.96797">
        <ele>86.7</ele>
        <time>2025-08-25T12:35:14Z</time>
      </trkpt>
      <trkpt lat="46.99838" lon="-0.96796">
        <ele>86.7</ele>
        <time>2025-08-25T12:35:15Z</time>
      </trkpt>
      <trkpt lat="46.99839" lon="-0.96795">
        <ele>87</ele>
        <time>2025-08-25T12:35:16Z</time>
      </trkpt>
      <trkpt lat="46.9984" lon="-0.96794">
        <ele>87.1</ele>
        <time>2025-08-25T12:35:17Z</time>
      </trkpt>
      <trkpt lat="46.9984" lon="-0.96793">
        <ele>87.3</ele>
        <time>2025-08-25T12:35:18Z</time>
      </trkpt>
      <trkpt lat="46.9984" lon="-0.96792">
        <ele>87.4</ele>
        <time>2025-08-25T12:35:19Z</time>
      </trkpt>
      <trkpt lat="46.9984" lon="-0.9679">
        <ele>87.6</ele>
        <time>2025-08-25T12:35:20Z</time>
      </trkpt>
      <trkpt lat="46.99839" lon="-0.96789">
        <ele>87.7</ele>
        <time>2025-08-25T12:35:21Z</time>
      </trkpt>
      <trkpt lat="46.99838" lon="-0.96788">
        <ele>87.9</ele>
        <time>2025-08-25T12:35:22Z</time>
      </trkpt>
      <trkpt lat="46.99837" lon="-0.96786">
        <ele>88.1</ele>
        <time>2025-08-25T12:35:23Z</time>
      </trkpt>
      <trkpt lat="46.99836" lon="-0.96785">
        <ele>88.2</ele>
        <time>2025-08-25T12:35:24Z</time>
      </trkpt>
      <trkpt lat="46.99835" lon="-0.96784">
        <ele>88.4</ele>
        <time>2025-08-25T12:35:25Z</time>
      </trkpt>
      <trkpt lat="46.99834" lon="-0.96783">
        <ele>88.5</ele>
        <time>2025-08-25T12:35:26Z</time>
      </trkpt>
      <trkpt lat="46.99834" lon="-0.96782">
        <ele>88.6</ele>
        <time>2025-08-25T12:35:27Z</time>
      </trkpt>
      <trkpt lat="46.99833" lon="-0.96782">
        <ele>88.7</ele>
        <time>2025-08-25T12:35:28Z</time>
      </trkpt>
      <trkpt lat="46.99832" lon="-0.96781">
        <ele>88.8</ele>
        <time>2025-08-25T12:35:29Z</time>
      </trkpt>
      <trkpt lat="46.99832" lon="-0.96779">
        <ele>88.9</ele>
        <time>2025-08-25T12:35:30Z</time>
      </trkpt>
      <trkpt lat="46.99831" lon="-0.96778">
        <ele>89</ele>
        <time>2025-08-25T12:35:31Z</time>
      </trkpt>
      <trkpt lat="46.9983" lon="-0.96777">
        <ele>89</ele>
        <time>2025-08-25T12:35:32Z</time>
      </trkpt>
      <trkpt lat="46.9983" lon="-0.96776">
        <ele>89.1</ele>
        <time>2025-08-25T12:35:33Z</time>
      </trkpt>
      <trkpt lat="46.99829" lon="-0.96774">
        <ele>89.2</ele>
        <time>2025-08-25T12:35:34Z</time>
      </trkpt>
      <trkpt lat="46.99829" lon="-0.96773">
        <ele>89.3</ele>
        <time>2025-08-25T12:35:35Z</time>
      </trkpt>
      <trkpt lat="46.99828" lon="-0.96771">
        <ele>89.3</ele>
        <time>2025-08-25T12:35:36Z</time>
      </trkpt>
      <trkpt lat="46.99827" lon="-0.9677">
        <ele>89.3</ele>
        <time>2025-08-25T12:35:37Z</time>
      </trkpt>
      <trkpt lat="46.99826" lon="-0.96768">
        <ele>89.4</ele>
        <time>2025-08-25T12:35:38Z</time>
      </trkpt>
      <trkpt lat="46.99825" lon="-0.96767">
        <ele>89.4</ele>
        <time>2025-08-25T12:35:39Z</time>
      </trkpt>
      <trkpt lat="46.99824" lon="-0.96766">
        <ele>89.4</ele>
        <time>2025-08-25T12:35:40Z</time>
      </trkpt>
      <trkpt lat="46.99824" lon="-0.96765">
        <ele>89.4</ele>
        <time>2025-08-25T12:35:41Z</time>
      </trkpt>
      <trkpt lat="46.99823" lon="-0.96765">
        <ele>89.4</ele>
        <time>2025-08-25T12:35:42Z</time>
      </trkpt>
      <trkpt lat="46.99822" lon="-0.96764">
        <ele>89.5</ele>
        <time>2025-08-25T12:35:43Z</time>
      </trkpt>
      <trkpt lat="46.99822" lon="-0.96763">
        <ele>89.5</ele>
        <time>2025-08-25T12:35:44Z</time>
      </trkpt>
      <trkpt lat="46.99821" lon="-0.96762">
        <ele>89.5</ele>
        <time>2025-08-25T12:35:45Z</time>
      </trkpt>
      <trkpt lat="46.99821" lon="-0.96761">
        <ele>89.5</ele>
        <time>2025-08-25T12:35:46Z</time>
      </trkpt>
      <trkpt lat="46.9982" lon="-0.9676">
        <ele>89.5</ele>
        <time>2025-08-25T12:35:47Z</time>
      </trkpt>
      <trkpt lat="46.99819" lon="-0.96759">
        <ele>89.5</ele>
        <time>2025-08-25T12:35:48Z</time>
      </trkpt>
      <trkpt lat="46.99818" lon="-0.96759">
        <ele>89.6</ele>
        <time>2025-08-25T12:35:49Z</time>
      </trkpt>
      <trkpt lat="46.99816" lon="-0.96758">
        <ele>89.6</ele>
        <time>2025-08-25T12:35:50Z</time>
      </trkpt>
      <trkpt lat="46.99815" lon="-0.96757">
        <ele>89.6</ele>
        <time>2025-08-25T12:35:51Z</time>
      </trkpt>
      <trkpt lat="46.99814" lon="-0.96756">
        <ele>89.6</ele>
        <time>2025-08-25T12:35:52Z</time>
      </trkpt>
      <trkpt lat="46.99813" lon="-0.96755">
        <ele>89.7</ele>
        <time>2025-08-25T12:35:53Z</time>
      </trkpt>
      <trkpt lat="46.99812" lon="-0.96754">
        <ele>89.7</ele>
        <time>2025-08-25T12:35:54Z</time>
      </trkpt>
      <trkpt lat="46.99811" lon="-0.96752">
        <ele>89.7</ele>
        <time>2025-08-25T12:35:55Z</time>
      </trkpt>
      <trkpt lat="46.9981" lon="-0.96751">
        <ele>89.7</ele>
        <time>2025-08-25T12:35:56Z</time>
      </trkpt>
      <trkpt lat="46.99809" lon="-0.9675">
        <ele>89.7</ele>
        <time>2025-08-25T12:35:57Z</time>
      </trkpt>
      <trkpt lat="46.99809" lon="-0.96749">
        <ele>89.8</ele>
        <time>2025-08-25T12:35:58Z</time>
      </trkpt>
      <trkpt lat="46.99808" lon="-0.96748">
        <ele>89.8</ele>
        <time>2025-08-25T12:35:59Z</time>
      </trkpt>
      <trkpt lat="46.99807" lon="-0.96746">
        <ele>89.8</ele>
        <time>2025-08-25T12:36:00Z</time>
      </trkpt>
      <trkpt lat="46.99806" lon="-0.96745">
        <ele>89.8</ele>
        <time>2025-08-25T12:36:01Z</time>
      </trkpt>
      <trkpt lat="46.99806" lon="-0.96744">
        <ele>89.8</ele>
        <time>2025-08-25T12:36:02Z</time>
      </trkpt>
      <trkpt lat="46.99805" lon="-0.96743">
        <ele>89.8</ele>
        <time>2025-08-25T12:36:03Z</time>
      </trkpt>
      <trkpt lat="46.99805" lon="-0.96742">
        <ele>89.8</ele>
        <time>2025-08-25T12:36:04Z</time>
      </trkpt>
      <trkpt lat="46.99804" lon="-0.96741">
        <ele>89.9</ele>
        <time>2025-08-25T12:36:05Z</time>
      </trkpt>
      <trkpt lat="46.99803" lon="-0.96738">
        <ele>89.9</ele>
        <time>2025-08-25T12:36:06Z</time>
      </trkpt>
      <trkpt lat="46.99802" lon="-0.96737">
        <ele>89.9</ele>
        <time>2025-08-25T12:36:07Z</time>
      </trkpt>
      <trkpt lat="46.99802" lon="-0.96736">
        <ele>89.9</ele>
        <time>2025-08-25T12:36:08Z</time>
      </trkpt>
      <trkpt lat="46.998" lon="-0.96734">
        <ele>90</ele>
        <time>2025-08-25T12:36:09Z</time>
      </trkpt>
      <trkpt lat="46.998" lon="-0.96733">
        <ele>90</ele>
        <time>2025-08-25T12:36:10Z</time>
      </trkpt>
      <trkpt lat="46.99799" lon="-0.96732">
        <ele>90</ele>
        <time>2025-08-25T12:36:11Z</time>
      </trkpt>
      <trkpt lat="46.99798" lon="-0.96731">
        <ele>90</ele>
        <time>2025-08-25T12:36:12Z</time>
      </trkpt>
      <trkpt lat="46.99797" lon="-0.9673">
        <ele>90</ele>
        <time>2025-08-25T12:36:13Z</time>
      </trkpt>
      <trkpt lat="46.99796" lon="-0.96727">
        <ele>90.1</ele>
        <time>2025-08-25T12:36:14Z</time>
      </trkpt>
      <trkpt lat="46.99795" lon="-0.96727">
        <ele>90.1</ele>
        <time>2025-08-25T12:36:15Z</time>
      </trkpt>
      <trkpt lat="46.99794" lon="-0.96726">
        <ele>90.1</ele>
        <time>2025-08-25T12:36:16Z</time>
      </trkpt>
      <trkpt lat="46.99793" lon="-0.96724">
        <ele>90.1</ele>
        <time>2025-08-25T12:36:17Z</time>
      </trkpt>
      <trkpt lat="46.99792" lon="-0.96723">
        <ele>90.1</ele>
        <time>2025-08-25T12:36:18Z</time>
      </trkpt>
      <trkpt lat="46.99791" lon="-0.96723">
        <ele>90.2</ele>
        <time>2025-08-25T12:36:19Z</time>
      </trkpt>
      <trkpt lat="46.9979" lon="-0.96721">
        <ele>90.2</ele>
        <time>2025-08-25T12:36:20Z</time>
      </trkpt>
      <trkpt lat="46.99789" lon="-0.96721">
        <ele>90.2</ele>
        <time>2025-08-25T12:36:21Z</time>
      </trkpt>
      <trkpt lat="46.99788" lon="-0.9672">
        <ele>90.2</ele>
        <time>2025-08-25T12:36:22Z</time>
      </trkpt>
      <trkpt lat="46.99788" lon="-0.96719">
        <ele>90.2</ele>
        <time>2025-08-25T12:36:23Z</time>
      </trkpt>
      <trkpt lat="46.99787" lon="-0.96718">
        <ele>90.3</ele>
        <time>2025-08-25T12:36:24Z</time>
      </trkpt>
      <trkpt lat="46.99786" lon="-0.96716">
        <ele>90.3</ele>
        <time>2025-08-25T12:36:25Z</time>
      </trkpt>
      <trkpt lat="46.99785" lon="-0.96714">
        <ele>90.3</ele>
        <time>2025-08-25T12:36:26Z</time>
      </trkpt>
      <trkpt lat="46.99784" lon="-0.96713">
        <ele>90.3</ele>
        <time>2025-08-25T12:36:27Z</time>
      </trkpt>
      <trkpt lat="46.99784" lon="-0.96712">
        <ele>90.3</ele>
        <time>2025-08-25T12:36:28Z</time>
      </trkpt>
      <trkpt lat="46.99783" lon="-0.96711">
        <ele>90.4</ele>
        <time>2025-08-25T12:36:29Z</time>
      </trkpt>
      <trkpt lat="46.99783" lon="-0.96709">
        <ele>90.4</ele>
        <time>2025-08-25T12:36:30Z</time>
      </trkpt>
      <trkpt lat="46.99782" lon="-0.96708">
        <ele>90.4</ele>
        <time>2025-08-25T12:36:31Z</time>
      </trkpt>
      <trkpt lat="46.99781" lon="-0.96705">
        <ele>90.5</ele>
        <time>2025-08-25T12:36:32Z</time>
      </trkpt>
      <trkpt lat="46.9978" lon="-0.96704">
        <ele>90.5</ele>
        <time>2025-08-25T12:36:33Z</time>
      </trkpt>
      <trkpt lat="46.9978" lon="-0.96703">
        <ele>90.5</ele>
        <time>2025-08-25T12:36:34Z</time>
      </trkpt>
      <trkpt lat="46.99778" lon="-0.96701">
        <ele>90.5</ele>
        <time>2025-08-25T12:36:35Z</time>
      </trkpt>
      <trkpt lat="46.99778" lon="-0.967">
        <ele>90.5</ele>
        <time>2025-08-25T12:36:36Z</time>
      </trkpt>
      <trkpt lat="46.99777" lon="-0.96699">
        <ele>90.6</ele>
        <time>2025-08-25T12:36:37Z</time>
      </trkpt>
      <trkpt lat="46.99776" lon="-0.96697">
        <ele>90.6</ele>
        <time>2025-08-25T12:36:38Z</time>
      </trkpt>
      <trkpt lat="46.99775" lon="-0.96696">
        <ele>90.6</ele>
        <time>2025-08-25T12:36:39Z</time>
      </trkpt>
      <trkpt lat="46.99774" lon="-0.96695">
        <ele>90.6</ele>
        <time>2025-08-25T12:36:40Z</time>
      </trkpt>
      <trkpt lat="46.99773" lon="-0.96694">
        <ele>90.7</ele>
        <time>2025-08-25T12:36:41Z</time>
      </trkpt>
      <trkpt lat="46.99772" lon="-0.96693">
        <ele>90.7</ele>
        <time>2025-08-25T12:36:42Z</time>
      </trkpt>
      <trkpt lat="46.99771" lon="-0.96691">
        <ele>90.7</ele>
        <time>2025-08-25T12:36:43Z</time>
      </trkpt>
      <trkpt lat="46.9977" lon="-0.96689">
        <ele>90.7</ele>
        <time>2025-08-25T12:36:44Z</time>
      </trkpt>
      <trkpt lat="46.99769" lon="-0.96688">
        <ele>90.7</ele>
        <time>2025-08-25T12:36:45Z</time>
      </trkpt>
      <trkpt lat="46.99768" lon="-0.96686">
        <ele>90.8</ele>
        <time>2025-08-25T12:36:46Z</time>
      </trkpt>
      <trkpt lat="46.99767" lon="-0.96685">
        <ele>90.8</ele>
        <time>2025-08-25T12:36:47Z</time>
      </trkpt>
      <trkpt lat="46.99766" lon="-0.96683">
        <ele>90.8</ele>
        <time>2025-08-25T12:36:48Z</time>
      </trkpt>
      <trkpt lat="46.99765" lon="-0.96681">
        <ele>90.8</ele>
        <time>2025-08-25T12:36:49Z</time>
      </trkpt>
      <trkpt lat="46.99763" lon="-0.9668">
        <ele>90.9</ele>
        <time>2025-08-25T12:36:50Z</time>
      </trkpt>
      <trkpt lat="46.99762" lon="-0.96679">
        <ele>90.9</ele>
        <time>2025-08-25T12:36:51Z</time>
      </trkpt>
      <trkpt lat="46.99761" lon="-0.96677">
        <ele>90.9</ele>
        <time>2025-08-25T12:36:52Z</time>
      </trkpt>
      <trkpt lat="46.99761" lon="-0.96675">
        <ele>90.9</ele>
        <time>2025-08-25T12:36:53Z</time>
      </trkpt>
      <trkpt lat="46.9976" lon="-0.96674">
        <ele>91</ele>
        <time>2025-08-25T12:36:54Z</time>
      </trkpt>
      <trkpt lat="46.99759" lon="-0.96672">
        <ele>91</ele>
        <time>2025-08-25T12:36:55Z</time>
      </trkpt>
      <trkpt lat="46.99758" lon="-0.96671">
        <ele>91</ele>
        <time>2025-08-25T12:36:56Z</time>
      </trkpt>
      <trkpt lat="46.99757" lon="-0.96669">
        <ele>91</ele>
        <time>2025-08-25T12:36:57Z</time>
      </trkpt>
      <trkpt lat="46.99756" lon="-0.96667">
        <ele>91.1</ele>
        <time>2025-08-25T12:36:58Z</time>
      </trkpt>
      <trkpt lat="46.99755" lon="-0.96665">
        <ele>91.1</ele>
        <time>2025-08-25T12:36:59Z</time>
      </trkpt>
      <trkpt lat="46.99755" lon="-0.96664">
        <ele>91.1</ele>
        <time>2025-08-25T12:37:00Z</time>
      </trkpt>
      <trkpt lat="46.99753" lon="-0.96661">
        <ele>91.2</ele>
        <time>2025-08-25T12:37:01Z</time>
      </trkpt>
      <trkpt lat="46.99753" lon="-0.9666">
        <ele>91.2</ele>
        <time>2025-08-25T12:37:02Z</time>
      </trkpt>
      <trkpt lat="46.99752" lon="-0.96659">
        <ele>91.2</ele>
        <time>2025-08-25T12:37:03Z</time>
      </trkpt>
      <trkpt lat="46.99751" lon="-0.96657">
        <ele>91.3</ele>
        <time>2025-08-25T12:37:04Z</time>
      </trkpt>
      <trkpt lat="46.9975" lon="-0.96657">
        <ele>91.3</ele>
        <time>2025-08-25T12:37:05Z</time>
      </trkpt>
      <trkpt lat="46.99749" lon="-0.96656">
        <ele>91.3</ele>
        <time>2025-08-25T12:37:06Z</time>
      </trkpt>
      <trkpt lat="46.99748" lon="-0.96654">
        <ele>91.3</ele>
        <time>2025-08-25T12:37:07Z</time>
      </trkpt>
      <trkpt lat="46.99747" lon="-0.96653">
        <ele>91.4</ele>
        <time>2025-08-25T12:37:08Z</time>
      </trkpt>
      <trkpt lat="46.99746" lon="-0.96652">
        <ele>91.4</ele>
        <time>2025-08-25T12:37:09Z</time>
      </trkpt>
      <trkpt lat="46.99745" lon="-0.9665">
        <ele>91.4</ele>
        <time>2025-08-25T12:37:10Z</time>
      </trkpt>
      <trkpt lat="46.99744" lon="-0.96649">
        <ele>91.4</ele>
        <time>2025-08-25T12:37:11Z</time>
      </trkpt>
      <trkpt lat="46.99743" lon="-0.96648">
        <ele>91.5</ele>
        <time>2025-08-25T12:37:12Z</time>
      </trkpt>
      <trkpt lat="46.99743" lon="-0.96646">
        <ele>91.5</ele>
        <time>2025-08-25T12:37:13Z</time>
      </trkpt>
      <trkpt lat="46.99742" lon="-0.96645">
        <ele>91.5</ele>
        <time>2025-08-25T12:37:14Z</time>
      </trkpt>
      <trkpt lat="46.99741" lon="-0.96644">
        <ele>91.5</ele>
        <time>2025-08-25T12:37:15Z</time>
      </trkpt>
      <trkpt lat="46.9974" lon="-0.96642">
        <ele>91.6</ele>
        <time>2025-08-25T12:37:16Z</time>
      </trkpt>
      <trkpt lat="46.9974" lon="-0.96641">
        <ele>91.6</ele>
        <time>2025-08-25T12:37:17Z</time>
      </trkpt>
      <trkpt lat="46.99738" lon="-0.96639">
        <ele>91.6</ele>
        <time>2025-08-25T12:37:18Z</time>
      </trkpt>
      <trkpt lat="46.99738" lon="-0.96638">
        <ele>91.6</ele>
        <time>2025-08-25T12:37:19Z</time>
      </trkpt>
      <trkpt lat="46.99737" lon="-0.96637">
        <ele>91.7</ele>
        <time>2025-08-25T12:37:20Z</time>
      </trkpt>
      <trkpt lat="46.99736" lon="-0.96634">
        <ele>91.7</ele>
        <time>2025-08-25T12:37:21Z</time>
      </trkpt>
      <trkpt lat="46.99735" lon="-0.96634">
        <ele>91.7</ele>
        <time>2025-08-25T12:37:22Z</time>
      </trkpt>
      <trkpt lat="46.99734" lon="-0.96633">
        <ele>91.7</ele>
        <time>2025-08-25T12:37:23Z</time>
      </trkpt>
      <trkpt lat="46.99733" lon="-0.96631">
        <ele>91.8</ele>
        <time>2025-08-25T12:37:24Z</time>
      </trkpt>
      <trkpt lat="46.99732" lon="-0.9663">
        <ele>91.8</ele>
        <time>2025-08-25T12:37:25Z</time>
      </trkpt>
      <trkpt lat="46.99731" lon="-0.9663">
        <ele>91.8</ele>
        <time>2025-08-25T12:37:26Z</time>
      </trkpt>
      <trkpt lat="46.9973" lon="-0.96628">
        <ele>91.8</ele>
        <time>2025-08-25T12:37:27Z</time>
      </trkpt>
      <trkpt lat="46.99728" lon="-0.96628">
        <ele>91.8</ele>
        <time>2025-08-25T12:37:28Z</time>
      </trkpt>
      <trkpt lat="46.99727" lon="-0.96629">
        <ele>91.9</ele>
        <time>2025-08-25T12:37:29Z</time>
      </trkpt>
      <trkpt lat="46.99726" lon="-0.96629">
        <ele>91.9</ele>
        <time>2025-08-25T12:37:30Z</time>
      </trkpt>
      <trkpt lat="46.99725" lon="-0.96627">
        <ele>91.9</ele>
        <time>2025-08-25T12:37:31Z</time>
      </trkpt>
      <trkpt lat="46.99724" lon="-0.96626">
        <ele>91.9</ele>
        <time>2025-08-25T12:37:32Z</time>
      </trkpt>
      <trkpt lat="46.99723" lon="-0.96624">
        <ele>91.9</ele>
        <time>2025-08-25T12:37:33Z</time>
      </trkpt>
      <trkpt lat="46.99722" lon="-0.96622">
        <ele>92</ele>
        <time>2025-08-25T12:37:34Z</time>
      </trkpt>
      <trkpt lat="46.99721" lon="-0.96621">
        <ele>92</ele>
        <time>2025-08-25T12:37:35Z</time>
      </trkpt>
      <trkpt lat="46.99721" lon="-0.9662">
        <ele>92</ele>
        <time>2025-08-25T12:37:36Z</time>
      </trkpt>
      <trkpt lat="46.9972" lon="-0.96619">
        <ele>92</ele>
        <time>2025-08-25T12:37:37Z</time>
      </trkpt>
      <trkpt lat="46.9972" lon="-0.96617">
        <ele>92.1</ele>
        <time>2025-08-25T12:37:38Z</time>
      </trkpt>
      <trkpt lat="46.9972" lon="-0.96616">
        <ele>92.1</ele>
        <time>2025-08-25T12:37:39Z</time>
      </trkpt>
      <trkpt lat="46.99719" lon="-0.96613">
        <ele>92.1</ele>
        <time>2025-08-25T12:37:40Z</time>
      </trkpt>
      <trkpt lat="46.99718" lon="-0.96612">
        <ele>92.1</ele>
        <time>2025-08-25T12:37:41Z</time>
      </trkpt>
      <trkpt lat="46.99718" lon="-0.9661">
        <ele>92.1</ele>
        <time>2025-08-25T12:37:42Z</time>
      </trkpt>
      <trkpt lat="46.99717" lon="-0.96609">
        <ele>92.2</ele>
        <time>2025-08-25T12:37:43Z</time>
      </trkpt>
      <trkpt lat="46.99716" lon="-0.96607">
        <ele>92.2</ele>
        <time>2025-08-25T12:37:44Z</time>
      </trkpt>
      <trkpt lat="46.99715" lon="-0.96605">
        <ele>92.2</ele>
        <time>2025-08-25T12:37:45Z</time>
      </trkpt>
      <trkpt lat="46.99715" lon="-0.96603">
        <ele>92.2</ele>
        <time>2025-08-25T12:37:46Z</time>
      </trkpt>
      <trkpt lat="46.99713" lon="-0.966">
        <ele>92.3</ele>
        <time>2025-08-25T12:37:47Z</time>
      </trkpt>
      <trkpt lat="46.99713" lon="-0.966">
        <ele>92.3</ele>
        <time>2025-08-25T12:37:48Z</time>
      </trkpt>
      <trkpt lat="46.99712" lon="-0.96599">
        <ele>92.3</ele>
        <time>2025-08-25T12:37:49Z</time>
      </trkpt>
      <trkpt lat="46.99711" lon="-0.96597">
        <ele>92.3</ele>
        <time>2025-08-25T12:37:50Z</time>
      </trkpt>
      <trkpt lat="46.99711" lon="-0.96595">
        <ele>92.3</ele>
        <time>2025-08-25T12:37:51Z</time>
      </trkpt>
      <trkpt lat="46.9971" lon="-0.96594">
        <ele>92.3</ele>
        <time>2025-08-25T12:37:52Z</time>
      </trkpt>
      <trkpt lat="46.9971" lon="-0.96593">
        <ele>92.4</ele>
        <time>2025-08-25T12:37:53Z</time>
      </trkpt>
      <trkpt lat="46.99709" lon="-0.96592">
        <ele>92.4</ele>
        <time>2025-08-25T12:37:54Z</time>
      </trkpt>
      <trkpt lat="46.99708" lon="-0.9659">
        <ele>92.4</ele>
        <time>2025-08-25T12:37:55Z</time>
      </trkpt>
      <trkpt lat="46.99708" lon="-0.96589">
        <ele>92.4</ele>
        <time>2025-08-25T12:37:56Z</time>
      </trkpt>
      <trkpt lat="46.99707" lon="-0.96588">
        <ele>92.4</ele>
        <time>2025-08-25T12:37:57Z</time>
      </trkpt>
      <trkpt lat="46.99706" lon="-0.96586">
        <ele>92.4</ele>
        <time>2025-08-25T12:37:58Z</time>
      </trkpt>
      <trkpt lat="46.99706" lon="-0.96585">
        <ele>92.4</ele>
        <time>2025-08-25T12:37:59Z</time>
      </trkpt>
      <trkpt lat="46.99705" lon="-0.96584">
        <ele>92.4</ele>
        <time>2025-08-25T12:38:00Z</time>
      </trkpt>
      <trkpt lat="46.99704" lon="-0.96582">
        <ele>92.4</ele>
        <time>2025-08-25T12:38:01Z</time>
      </trkpt>
      <trkpt lat="46.99702" lon="-0.96581">
        <ele>92.5</ele>
        <time>2025-08-25T12:38:02Z</time>
      </trkpt>
      <trkpt lat="46.99702" lon="-0.9658">
        <ele>92.5</ele>
        <time>2025-08-25T12:38:03Z</time>
      </trkpt>
      <trkpt lat="46.99701" lon="-0.96578">
        <ele>92.5</ele>
        <time>2025-08-25T12:38:04Z</time>
      </trkpt>
      <trkpt lat="46.997" lon="-0.96577">
        <ele>92.5</ele>
        <time>2025-08-25T12:38:05Z</time>
      </trkpt>
      <trkpt lat="46.99699" lon="-0.96576">
        <ele>92.5</ele>
        <time>2025-08-25T12:38:06Z</time>
      </trkpt>
      <trkpt lat="46.99697" lon="-0.96574">
        <ele>92.5</ele>
        <time>2025-08-25T12:38:07Z</time>
      </trkpt>
      <trkpt lat="46.99696" lon="-0.96572">
        <ele>92.5</ele>
        <time>2025-08-25T12:38:08Z</time>
      </trkpt>
      <trkpt lat="46.99695" lon="-0.96571">
        <ele>92.5</ele>
        <time>2025-08-25T12:38:09Z</time>
      </trkpt>
      <trkpt lat="46.99694" lon="-0.9657">
        <ele>92.5</ele>
        <time>2025-08-25T12:38:10Z</time>
      </trkpt>
      <trkpt lat="46.99694" lon="-0.96568">
        <ele>92.5</ele>
        <time>2025-08-25T12:38:11Z</time>
      </trkpt>
      <trkpt lat="46.99692" lon="-0.96566">
        <ele>92.5</ele>
        <time>2025-08-25T12:38:12Z</time>
      </trkpt>
      <trkpt lat="46.99691" lon="-0.96564">
        <ele>92.5</ele>
        <time>2025-08-25T12:38:13Z</time>
      </trkpt>
      <trkpt lat="46.99691" lon="-0.96563">
        <ele>92.5</ele>
        <time>2025-08-25T12:38:14Z</time>
      </trkpt>
      <trkpt lat="46.9969" lon="-0.96562">
        <ele>92.5</ele>
        <time>2025-08-25T12:38:15Z</time>
      </trkpt>
      <trkpt lat="46.99689" lon="-0.9656">
        <ele>92.5</ele>
        <time>2025-08-25T12:38:16Z</time>
      </trkpt>
      <trkpt lat="46.99688" lon="-0.96558">
        <ele>92.5</ele>
        <time>2025-08-25T12:38:17Z</time>
      </trkpt>
      <trkpt lat="46.99687" lon="-0.96556">
        <ele>92.5</ele>
        <time>2025-08-25T12:38:18Z</time>
      </trkpt>
      <trkpt lat="46.99686" lon="-0.96555">
        <ele>92.5</ele>
        <time>2025-08-25T12:38:19Z</time>
      </trkpt>
      <trkpt lat="46.99686" lon="-0.96554">
        <ele>92.5</ele>
        <time>2025-08-25T12:38:20Z</time>
      </trkpt>
      <trkpt lat="46.99685" lon="-0.96552">
        <ele>92.5</ele>
        <time>2025-08-25T12:38:21Z</time>
      </trkpt>
      <trkpt lat="46.99684" lon="-0.9655">
        <ele>92.5</ele>
        <time>2025-08-25T12:38:22Z</time>
      </trkpt>
      <trkpt lat="46.99682" lon="-0.96549">
        <ele>92.5</ele>
        <time>2025-08-25T12:38:23Z</time>
      </trkpt>
      <trkpt lat="46.99681" lon="-0.96547">
        <ele>92.5</ele>
        <time>2025-08-25T12:38:24Z</time>
      </trkpt>
      <trkpt lat="46.9968" lon="-0.96545">
        <ele>92.5</ele>
        <time>2025-08-25T12:38:25Z</time>
      </trkpt>
      <trkpt lat="46.99679" lon="-0.96545">
        <ele>92.5</ele>
        <time>2025-08-25T12:38:26Z</time>
      </trkpt>
      <trkpt lat="46.99679" lon="-0.96544">
        <ele>92.5</ele>
        <time>2025-08-25T12:38:27Z</time>
      </trkpt>
      <trkpt lat="46.99677" lon="-0.96542">
        <ele>92.5</ele>
        <time>2025-08-25T12:38:28Z</time>
      </trkpt>
      <trkpt lat="46.99676" lon="-0.96541">
        <ele>92.5</ele>
        <time>2025-08-25T12:38:29Z</time>
      </trkpt>
      <trkpt lat="46.99675" lon="-0.96541">
        <ele>92.5</ele>
        <time>2025-08-25T12:38:30Z</time>
      </trkpt>
      <trkpt lat="46.99674" lon="-0.96539">
        <ele>92.5</ele>
        <time>2025-08-25T12:38:31Z</time>
      </trkpt>
      <trkpt lat="46.99673" lon="-0.96538">
        <ele>92.5</ele>
        <time>2025-08-25T12:38:32Z</time>
      </trkpt>
      <trkpt lat="46.99672" lon="-0.96536">
        <ele>92.5</ele>
        <time>2025-08-25T12:38:33Z</time>
      </trkpt>
      <trkpt lat="46.99671" lon="-0.96535">
        <ele>92.4</ele>
        <time>2025-08-25T12:38:34Z</time>
      </trkpt>
      <trkpt lat="46.9967" lon="-0.96533">
        <ele>92.4</ele>
        <time>2025-08-25T12:38:35Z</time>
      </trkpt>
      <trkpt lat="46.99669" lon="-0.96532">
        <ele>92.4</ele>
        <time>2025-08-25T12:38:36Z</time>
      </trkpt>
      <trkpt lat="46.99668" lon="-0.96531">
        <ele>92.4</ele>
        <time>2025-08-25T12:38:37Z</time>
      </trkpt>
      <trkpt lat="46.99666" lon="-0.96529">
        <ele>92.4</ele>
        <time>2025-08-25T12:38:38Z</time>
      </trkpt>
      <trkpt lat="46.99665" lon="-0.96528">
        <ele>92.4</ele>
        <time>2025-08-25T12:38:39Z</time>
      </trkpt>
      <trkpt lat="46.99665" lon="-0.96526">
        <ele>92.4</ele>
        <time>2025-08-25T12:38:40Z</time>
      </trkpt>
      <trkpt lat="46.99663" lon="-0.96523">
        <ele>92.4</ele>
        <time>2025-08-25T12:38:41Z</time>
      </trkpt>
      <trkpt lat="46.99663" lon="-0.96522">
        <ele>92.4</ele>
        <time>2025-08-25T12:38:42Z</time>
      </trkpt>
      <trkpt lat="46.99662" lon="-0.96521">
        <ele>92.4</ele>
        <time>2025-08-25T12:38:43Z</time>
      </trkpt>
      <trkpt lat="46.99661" lon="-0.9652">
        <ele>92.4</ele>
        <time>2025-08-25T12:38:44Z</time>
      </trkpt>
      <trkpt lat="46.99661" lon="-0.96518">
        <ele>92.4</ele>
        <time>2025-08-25T12:38:45Z</time>
      </trkpt>
      <trkpt lat="46.9966" lon="-0.96516">
        <ele>92.3</ele>
        <time>2025-08-25T12:38:46Z</time>
      </trkpt>
      <trkpt lat="46.99659" lon="-0.96514">
        <ele>92.3</ele>
        <time>2025-08-25T12:38:47Z</time>
      </trkpt>
      <trkpt lat="46.99659" lon="-0.96512">
        <ele>92.3</ele>
        <time>2025-08-25T12:38:48Z</time>
      </trkpt>
      <trkpt lat="46.99658" lon="-0.96511">
        <ele>92.3</ele>
        <time>2025-08-25T12:38:49Z</time>
      </trkpt>
      <trkpt lat="46.99657" lon="-0.96509">
        <ele>92.3</ele>
        <time>2025-08-25T12:38:50Z</time>
      </trkpt>
      <trkpt lat="46.99656" lon="-0.96507">
        <ele>92.3</ele>
        <time>2025-08-25T12:38:51Z</time>
      </trkpt>
      <trkpt lat="46.99655" lon="-0.96506">
        <ele>92.3</ele>
        <time>2025-08-25T12:38:52Z</time>
      </trkpt>
      <trkpt lat="46.99654" lon="-0.96504">
        <ele>92.2</ele>
        <time>2025-08-25T12:38:53Z</time>
      </trkpt>
      <trkpt lat="46.99653" lon="-0.96502">
        <ele>92.2</ele>
        <time>2025-08-25T12:38:54Z</time>
      </trkpt>
      <trkpt lat="46.99652" lon="-0.965">
        <ele>92.2</ele>
        <time>2025-08-25T12:38:55Z</time>
      </trkpt>
      <trkpt lat="46.99651" lon="-0.96499">
        <ele>92.2</ele>
        <time>2025-08-25T12:38:56Z</time>
      </trkpt>
      <trkpt lat="46.9965" lon="-0.96497">
        <ele>92.2</ele>
        <time>2025-08-25T12:38:57Z</time>
      </trkpt>
      <trkpt lat="46.99649" lon="-0.96496">
        <ele>92.2</ele>
        <time>2025-08-25T12:38:58Z</time>
      </trkpt>
      <trkpt lat="46.99648" lon="-0.96494">
        <ele>92.2</ele>
        <time>2025-08-25T12:38:59Z</time>
      </trkpt>
      <trkpt lat="46.99647" lon="-0.96492">
        <ele>92.1</ele>
        <time>2025-08-25T12:39:00Z</time>
      </trkpt>
      <trkpt lat="46.99646" lon="-0.96491">
        <ele>92.1</ele>
        <time>2025-08-25T12:39:01Z</time>
      </trkpt>
      <trkpt lat="46.99646" lon="-0.9649">
        <ele>92.1</ele>
        <time>2025-08-25T12:39:02Z</time>
      </trkpt>
      <trkpt lat="46.99644" lon="-0.96488">
        <ele>92.1</ele>
        <time>2025-08-25T12:39:03Z</time>
      </trkpt>
      <trkpt lat="46.99644" lon="-0.96487">
        <ele>92.1</ele>
        <time>2025-08-25T12:39:04Z</time>
      </trkpt>
      <trkpt lat="46.99643" lon="-0.96486">
        <ele>92.1</ele>
        <time>2025-08-25T12:39:05Z</time>
      </trkpt>
      <trkpt lat="46.99642" lon="-0.96484">
        <ele>92.1</ele>
        <time>2025-08-25T12:39:06Z</time>
      </trkpt>
      <trkpt lat="46.99641" lon="-0.96483">
        <ele>92.1</ele>
        <time>2025-08-25T12:39:07Z</time>
      </trkpt>
      <trkpt lat="46.9964" lon="-0.96482">
        <ele>92</ele>
        <time>2025-08-25T12:39:08Z</time>
      </trkpt>
      <trkpt lat="46.99639" lon="-0.96481">
        <ele>92</ele>
        <time>2025-08-25T12:39:09Z</time>
      </trkpt>
      <trkpt lat="46.99638" lon="-0.9648">
        <ele>92</ele>
        <time>2025-08-25T12:39:10Z</time>
      </trkpt>
      <trkpt lat="46.99638" lon="-0.96479">
        <ele>92</ele>
        <time>2025-08-25T12:39:11Z</time>
      </trkpt>
      <trkpt lat="46.99637" lon="-0.96477">
        <ele>92</ele>
        <time>2025-08-25T12:39:12Z</time>
      </trkpt>
      <trkpt lat="46.99636" lon="-0.96476">
        <ele>92</ele>
        <time>2025-08-25T12:39:13Z</time>
      </trkpt>
      <trkpt lat="46.99635" lon="-0.96475">
        <ele>92</ele>
        <time>2025-08-25T12:39:14Z</time>
      </trkpt>
      <trkpt lat="46.99634" lon="-0.96473">
        <ele>92</ele>
        <time>2025-08-25T12:39:15Z</time>
      </trkpt>
      <trkpt lat="46.99633" lon="-0.96471">
        <ele>92</ele>
        <time>2025-08-25T12:39:16Z</time>
      </trkpt>
      <trkpt lat="46.99632" lon="-0.9647">
        <ele>92</ele>
        <time>2025-08-25T12:39:17Z</time>
      </trkpt>
      <trkpt lat="46.99631" lon="-0.96467">
        <ele>92</ele>
        <time>2025-08-25T12:39:18Z</time>
      </trkpt>
      <trkpt lat="46.9963" lon="-0.96466">
        <ele>92</ele>
        <time>2025-08-25T12:39:19Z</time>
      </trkpt>
      <trkpt lat="46.99629" lon="-0.96465">
        <ele>92</ele>
        <time>2025-08-25T12:39:20Z</time>
      </trkpt>
      <trkpt lat="46.99628" lon="-0.96463">
        <ele>92</ele>
        <time>2025-08-25T12:39:21Z</time>
      </trkpt>
      <trkpt lat="46.99628" lon="-0.96462">
        <ele>92</ele>
        <time>2025-08-25T12:39:22Z</time>
      </trkpt>
      <trkpt lat="46.99627" lon="-0.96461">
        <ele>92</ele>
        <time>2025-08-25T12:39:23Z</time>
      </trkpt>
      <trkpt lat="46.99626" lon="-0.9646">
        <ele>92</ele>
        <time>2025-08-25T12:39:24Z</time>
      </trkpt>
      <trkpt lat="46.99626" lon="-0.96458">
        <ele>92</ele>
        <time>2025-08-25T12:39:25Z</time>
      </trkpt>
      <trkpt lat="46.99625" lon="-0.96457">
        <ele>92</ele>
        <time>2025-08-25T12:39:26Z</time>
      </trkpt>
      <trkpt lat="46.99624" lon="-0.96455">
        <ele>92</ele>
        <time>2025-08-25T12:39:27Z</time>
      </trkpt>
      <trkpt lat="46.99623" lon="-0.96454">
        <ele>92</ele>
        <time>2025-08-25T12:39:28Z</time>
      </trkpt>
      <trkpt lat="46.99623" lon="-0.96453">
        <ele>92</ele>
        <time>2025-08-25T12:39:29Z</time>
      </trkpt>
      <trkpt lat="46.99622" lon="-0.9645">
        <ele>92</ele>
        <time>2025-08-25T12:39:30Z</time>
      </trkpt>
      <trkpt lat="46.99621" lon="-0.96449">
        <ele>92</ele>
        <time>2025-08-25T12:39:31Z</time>
      </trkpt>
      <trkpt lat="46.9962" lon="-0.96448">
        <ele>92</ele>
        <time>2025-08-25T12:39:32Z</time>
      </trkpt>
      <trkpt lat="46.99619" lon="-0.96446">
        <ele>92</ele>
        <time>2025-08-25T12:39:33Z</time>
      </trkpt>
      <trkpt lat="46.99619" lon="-0.96445">
        <ele>92</ele>
        <time>2025-08-25T12:39:34Z</time>
      </trkpt>
      <trkpt lat="46.99618" lon="-0.96444">
        <ele>92</ele>
        <time>2025-08-25T12:39:35Z</time>
      </trkpt>
      <trkpt lat="46.99617" lon="-0.96443">
        <ele>92</ele>
        <time>2025-08-25T12:39:36Z</time>
      </trkpt>
      <trkpt lat="46.99616" lon="-0.96442">
        <ele>92</ele>
        <time>2025-08-25T12:39:37Z</time>
      </trkpt>
      <trkpt lat="46.99615" lon="-0.96441">
        <ele>92</ele>
        <time>2025-08-25T12:39:38Z</time>
      </trkpt>
      <trkpt lat="46.99614" lon="-0.96439">
        <ele>92</ele>
        <time>2025-08-25T12:39:39Z</time>
      </trkpt>
      <trkpt lat="46.99613" lon="-0.96438">
        <ele>92</ele>
        <time>2025-08-25T12:39:40Z</time>
      </trkpt>
      <trkpt lat="46.99612" lon="-0.96437">
        <ele>92</ele>
        <time>2025-08-25T12:39:41Z</time>
      </trkpt>
      <trkpt lat="46.99611" lon="-0.96436">
        <ele>92</ele>
        <time>2025-08-25T12:39:42Z</time>
      </trkpt>
      <trkpt lat="46.9961" lon="-0.96434">
        <ele>92</ele>
        <time>2025-08-25T12:39:43Z</time>
      </trkpt>
      <trkpt lat="46.99609" lon="-0.96431">
        <ele>92</ele>
        <time>2025-08-25T12:39:44Z</time>
      </trkpt>
      <trkpt lat="46.99608" lon="-0.9643">
        <ele>92</ele>
        <time>2025-08-25T12:39:45Z</time>
      </trkpt>
      <trkpt lat="46.99608" lon="-0.96429">
        <ele>92</ele>
        <time>2025-08-25T12:39:46Z</time>
      </trkpt>
      <trkpt lat="46.99606" lon="-0.96427">
        <ele>92</ele>
        <time>2025-08-25T12:39:47Z</time>
      </trkpt>
      <trkpt lat="46.99606" lon="-0.96426">
        <ele>92</ele>
        <time>2025-08-25T12:39:48Z</time>
      </trkpt>
      <trkpt lat="46.99605" lon="-0.96425">
        <ele>92</ele>
        <time>2025-08-25T12:39:49Z</time>
      </trkpt>
      <trkpt lat="46.99604" lon="-0.96423">
        <ele>92.1</ele>
        <time>2025-08-25T12:39:50Z</time>
      </trkpt>
      <trkpt lat="46.99603" lon="-0.96422">
        <ele>92.1</ele>
        <time>2025-08-25T12:39:51Z</time>
      </trkpt>
      <trkpt lat="46.99603" lon="-0.96421">
        <ele>92.1</ele>
        <time>2025-08-25T12:39:52Z</time>
      </trkpt>
      <trkpt lat="46.99602" lon="-0.96419">
        <ele>92.1</ele>
        <time>2025-08-25T12:39:53Z</time>
      </trkpt>
      <trkpt lat="46.99601" lon="-0.96418">
        <ele>92.1</ele>
        <time>2025-08-25T12:39:54Z</time>
      </trkpt>
      <trkpt lat="46.996" lon="-0.96416">
        <ele>92.1</ele>
        <time>2025-08-25T12:39:55Z</time>
      </trkpt>
      <trkpt lat="46.99599" lon="-0.96414">
        <ele>92.1</ele>
        <time>2025-08-25T12:39:56Z</time>
      </trkpt>
      <trkpt lat="46.99598" lon="-0.96413">
        <ele>92.1</ele>
        <time>2025-08-25T12:39:57Z</time>
      </trkpt>
      <trkpt lat="46.99597" lon="-0.96411">
        <ele>92.1</ele>
        <time>2025-08-25T12:39:58Z</time>
      </trkpt>
      <trkpt lat="46.99595" lon="-0.96409">
        <ele>92.1</ele>
        <time>2025-08-25T12:39:59Z</time>
      </trkpt>
      <trkpt lat="46.99595" lon="-0.96408">
        <ele>92.1</ele>
        <time>2025-08-25T12:40:00Z</time>
      </trkpt>
      <trkpt lat="46.99594" lon="-0.96407">
        <ele>92.1</ele>
        <time>2025-08-25T12:40:01Z</time>
      </trkpt>
      <trkpt lat="46.99593" lon="-0.96406">
        <ele>92.1</ele>
        <time>2025-08-25T12:40:02Z</time>
      </trkpt>
      <trkpt lat="46.99593" lon="-0.96404">
        <ele>92.1</ele>
        <time>2025-08-25T12:40:03Z</time>
      </trkpt>
      <trkpt lat="46.99592" lon="-0.96403">
        <ele>92.1</ele>
        <time>2025-08-25T12:40:04Z</time>
      </trkpt>
      <trkpt lat="46.99591" lon="-0.964">
        <ele>92.1</ele>
        <time>2025-08-25T12:40:05Z</time>
      </trkpt>
      <trkpt lat="46.99591" lon="-0.96399">
        <ele>92.2</ele>
        <time>2025-08-25T12:40:06Z</time>
      </trkpt>
      <trkpt lat="46.9959" lon="-0.96398">
        <ele>92.2</ele>
        <time>2025-08-25T12:40:07Z</time>
      </trkpt>
      <trkpt lat="46.9959" lon="-0.96396">
        <ele>92.2</ele>
        <time>2025-08-25T12:40:08Z</time>
      </trkpt>
      <trkpt lat="46.99589" lon="-0.96394">
        <ele>92.2</ele>
        <time>2025-08-25T12:40:09Z</time>
      </trkpt>
      <trkpt lat="46.99588" lon="-0.96393">
        <ele>92.2</ele>
        <time>2025-08-25T12:40:10Z</time>
      </trkpt>
      <trkpt lat="46.99587" lon="-0.96391">
        <ele>92.2</ele>
        <time>2025-08-25T12:40:11Z</time>
      </trkpt>
      <trkpt lat="46.99586" lon="-0.9639">
        <ele>92.2</ele>
        <time>2025-08-25T12:40:12Z</time>
      </trkpt>
      <trkpt lat="46.99585" lon="-0.96388">
        <ele>92.2</ele>
        <time>2025-08-25T12:40:13Z</time>
      </trkpt>
      <trkpt lat="46.99584" lon="-0.96387">
        <ele>92.2</ele>
        <time>2025-08-25T12:40:14Z</time>
      </trkpt>
      <trkpt lat="46.99583" lon="-0.96385">
        <ele>92.2</ele>
        <time>2025-08-25T12:40:15Z</time>
      </trkpt>
      <trkpt lat="46.99582" lon="-0.96384">
        <ele>92.2</ele>
        <time>2025-08-25T12:40:16Z</time>
      </trkpt>
      <trkpt lat="46.99581" lon="-0.96382">
        <ele>92.2</ele>
        <time>2025-08-25T12:40:17Z</time>
      </trkpt>
      <trkpt lat="46.9958" lon="-0.9638">
        <ele>92.2</ele>
        <time>2025-08-25T12:40:18Z</time>
      </trkpt>
      <trkpt lat="46.9958" lon="-0.96379">
        <ele>92.2</ele>
        <time>2025-08-25T12:40:19Z</time>
      </trkpt>
      <trkpt lat="46.99579" lon="-0.96377">
        <ele>92.2</ele>
        <time>2025-08-25T12:40:20Z</time>
      </trkpt>
      <trkpt lat="46.99579" lon="-0.96375">
        <ele>92.2</ele>
        <time>2025-08-25T12:40:21Z</time>
      </trkpt>
      <trkpt lat="46.99577" lon="-0.96372">
        <ele>92.2</ele>
        <time>2025-08-25T12:40:22Z</time>
      </trkpt>
      <trkpt lat="46.99577" lon="-0.96371">
        <ele>92.2</ele>
        <time>2025-08-25T12:40:23Z</time>
      </trkpt>
      <trkpt lat="46.99577" lon="-0.9637">
        <ele>92.2</ele>
        <time>2025-08-25T12:40:24Z</time>
      </trkpt>
      <trkpt lat="46.99576" lon="-0.96368">
        <ele>92.2</ele>
        <time>2025-08-25T12:40:25Z</time>
      </trkpt>
      <trkpt lat="46.99575" lon="-0.96366">
        <ele>92.2</ele>
        <time>2025-08-25T12:40:26Z</time>
      </trkpt>
      <trkpt lat="46.99575" lon="-0.96363">
        <ele>92.2</ele>
        <time>2025-08-25T12:40:27Z</time>
      </trkpt>
      <trkpt lat="46.99574" lon="-0.96362">
        <ele>92.2</ele>
        <time>2025-08-25T12:40:28Z</time>
      </trkpt>
      <trkpt lat="46.99574" lon="-0.96361">
        <ele>92.2</ele>
        <time>2025-08-25T12:40:29Z</time>
      </trkpt>
      <trkpt lat="46.99573" lon="-0.96359">
        <ele>92.2</ele>
        <time>2025-08-25T12:40:30Z</time>
      </trkpt>
      <trkpt lat="46.99573" lon="-0.96357">
        <ele>92.2</ele>
        <time>2025-08-25T12:40:31Z</time>
      </trkpt>
      <trkpt lat="46.99572" lon="-0.96356">
        <ele>92.2</ele>
        <time>2025-08-25T12:40:32Z</time>
      </trkpt>
      <trkpt lat="46.99571" lon="-0.96355">
        <ele>92.2</ele>
        <time>2025-08-25T12:40:33Z</time>
      </trkpt>
      <trkpt lat="46.9957" lon="-0.96354">
        <ele>92.2</ele>
        <time>2025-08-25T12:40:34Z</time>
      </trkpt>
      <trkpt lat="46.99568" lon="-0.96352">
        <ele>92.2</ele>
        <time>2025-08-25T12:40:35Z</time>
      </trkpt>
      <trkpt lat="46.99568" lon="-0.9635">
        <ele>92.2</ele>
        <time>2025-08-25T12:40:36Z</time>
      </trkpt>
      <trkpt lat="46.99567" lon="-0.96349">
        <ele>92.2</ele>
        <time>2025-08-25T12:40:37Z</time>
      </trkpt>
      <trkpt lat="46.99566" lon="-0.96348">
        <ele>92.2</ele>
        <time>2025-08-25T12:40:38Z</time>
      </trkpt>
      <trkpt lat="46.99565" lon="-0.96346">
        <ele>92.1</ele>
        <time>2025-08-25T12:40:39Z</time>
      </trkpt>
      <trkpt lat="46.99564" lon="-0.96343">
        <ele>92.1</ele>
        <time>2025-08-25T12:40:40Z</time>
      </trkpt>
      <trkpt lat="46.99564" lon="-0.96342">
        <ele>92.1</ele>
        <time>2025-08-25T12:40:41Z</time>
      </trkpt>
      <trkpt lat="46.99564" lon="-0.96341">
        <ele>92.1</ele>
        <time>2025-08-25T12:40:42Z</time>
      </trkpt>
      <trkpt lat="46.99563" lon="-0.96339">
        <ele>92.1</ele>
        <time>2025-08-25T12:40:43Z</time>
      </trkpt>
      <trkpt lat="46.99563" lon="-0.96337">
        <ele>92.1</ele>
        <time>2025-08-25T12:40:44Z</time>
      </trkpt>
      <trkpt lat="46.99562" lon="-0.96335">
        <ele>92.1</ele>
        <time>2025-08-25T12:40:45Z</time>
      </trkpt>
      <trkpt lat="46.99561" lon="-0.96333">
        <ele>92.1</ele>
        <time>2025-08-25T12:40:46Z</time>
      </trkpt>
      <trkpt lat="46.99561" lon="-0.96331">
        <ele>92</ele>
        <time>2025-08-25T12:40:47Z</time>
      </trkpt>
      <trkpt lat="46.99561" lon="-0.96329">
        <ele>92</ele>
        <time>2025-08-25T12:40:48Z</time>
      </trkpt>
      <trkpt lat="46.9956" lon="-0.96327">
        <ele>92</ele>
        <time>2025-08-25T12:40:49Z</time>
      </trkpt>
      <trkpt lat="46.9956" lon="-0.96325">
        <ele>92</ele>
        <time>2025-08-25T12:40:50Z</time>
      </trkpt>
      <trkpt lat="46.9956" lon="-0.96323">
        <ele>92</ele>
        <time>2025-08-25T12:40:51Z</time>
      </trkpt>
      <trkpt lat="46.9956" lon="-0.9632">
        <ele>91.9</ele>
        <time>2025-08-25T12:40:52Z</time>
      </trkpt>
      <trkpt lat="46.9956" lon="-0.96318">
        <ele>91.9</ele>
        <time>2025-08-25T12:40:53Z</time>
      </trkpt>
      <trkpt lat="46.9956" lon="-0.96316">
        <ele>91.9</ele>
        <time>2025-08-25T12:40:54Z</time>
      </trkpt>
      <trkpt lat="46.9956" lon="-0.96314">
        <ele>91.9</ele>
        <time>2025-08-25T12:40:55Z</time>
      </trkpt>
      <trkpt lat="46.99559" lon="-0.96312">
        <ele>91.8</ele>
        <time>2025-08-25T12:40:56Z</time>
      </trkpt>
      <trkpt lat="46.99559" lon="-0.9631">
        <ele>91.8</ele>
        <time>2025-08-25T12:40:57Z</time>
      </trkpt>
      <trkpt lat="46.99559" lon="-0.96308">
        <ele>91.8</ele>
        <time>2025-08-25T12:40:58Z</time>
      </trkpt>
      <trkpt lat="46.99558" lon="-0.96306">
        <ele>91.8</ele>
        <time>2025-08-25T12:40:59Z</time>
      </trkpt>
      <trkpt lat="46.99558" lon="-0.96304">
        <ele>91.7</ele>
        <time>2025-08-25T12:41:00Z</time>
      </trkpt>
      <trkpt lat="46.99558" lon="-0.96302">
        <ele>91.7</ele>
        <time>2025-08-25T12:41:01Z</time>
      </trkpt>
      <trkpt lat="46.99557" lon="-0.963">
        <ele>91.7</ele>
        <time>2025-08-25T12:41:02Z</time>
      </trkpt>
      <trkpt lat="46.99557" lon="-0.96297">
        <ele>91.7</ele>
        <time>2025-08-25T12:41:03Z</time>
      </trkpt>
      <trkpt lat="46.99557" lon="-0.96295">
        <ele>91.6</ele>
        <time>2025-08-25T12:41:04Z</time>
      </trkpt>
      <trkpt lat="46.99557" lon="-0.96294">
        <ele>91.6</ele>
        <time>2025-08-25T12:41:05Z</time>
      </trkpt>
      <trkpt lat="46.99556" lon="-0.96292">
        <ele>91.6</ele>
        <time>2025-08-25T12:41:06Z</time>
      </trkpt>
      <trkpt lat="46.99556" lon="-0.9629">
        <ele>91.6</ele>
        <time>2025-08-25T12:41:07Z</time>
      </trkpt>
      <trkpt lat="46.99556" lon="-0.96289">
        <ele>91.6</ele>
        <time>2025-08-25T12:41:08Z</time>
      </trkpt>
      <trkpt lat="46.99556" lon="-0.96287">
        <ele>91.6</ele>
        <time>2025-08-25T12:41:09Z</time>
      </trkpt>
      <trkpt lat="46.99555" lon="-0.96286">
        <ele>91.6</ele>
        <time>2025-08-25T12:41:10Z</time>
      </trkpt>
      <trkpt lat="46.99555" lon="-0.96285">
        <ele>91.5</ele>
        <time>2025-08-25T12:41:11Z</time>
      </trkpt>
      <trkpt lat="46.99555" lon="-0.96282">
        <ele>91.5</ele>
        <time>2025-08-25T12:41:12Z</time>
      </trkpt>
      <trkpt lat="46.99554" lon="-0.96281">
        <ele>91.5</ele>
        <time>2025-08-25T12:41:13Z</time>
      </trkpt>
      <trkpt lat="46.99554" lon="-0.9628">
        <ele>91.5</ele>
        <time>2025-08-25T12:41:14Z</time>
      </trkpt>
      <trkpt lat="46.99552" lon="-0.96277">
        <ele>91.5</ele>
        <time>2025-08-25T12:41:15Z</time>
      </trkpt>
      <trkpt lat="46.99552" lon="-0.96276">
        <ele>91.5</ele>
        <time>2025-08-25T12:41:16Z</time>
      </trkpt>
      <trkpt lat="46.99551" lon="-0.96275">
        <ele>91.5</ele>
        <time>2025-08-25T12:41:17Z</time>
      </trkpt>
      <trkpt lat="46.9955" lon="-0.96274">
        <ele>91.5</ele>
        <time>2025-08-25T12:41:18Z</time>
      </trkpt>
      <trkpt lat="46.99549" lon="-0.96273">
        <ele>91.5</ele>
        <time>2025-08-25T12:41:19Z</time>
      </trkpt>
      <trkpt lat="46.99548" lon="-0.96271">
        <ele>91.5</ele>
        <time>2025-08-25T12:41:20Z</time>
      </trkpt>
      <trkpt lat="46.99547" lon="-0.9627">
        <ele>91.5</ele>
        <time>2025-08-25T12:41:21Z</time>
      </trkpt>
      <trkpt lat="46.99546" lon="-0.96269">
        <ele>91.5</ele>
        <time>2025-08-25T12:41:22Z</time>
      </trkpt>
      <trkpt lat="46.99544" lon="-0.96268">
        <ele>91.5</ele>
        <time>2025-08-25T12:41:23Z</time>
      </trkpt>
      <trkpt lat="46.99543" lon="-0.96266">
        <ele>91.5</ele>
        <time>2025-08-25T12:41:24Z</time>
      </trkpt>
      <trkpt lat="46.99542" lon="-0.96265">
        <ele>91.5</ele>
        <time>2025-08-25T12:41:25Z</time>
      </trkpt>
      <trkpt lat="46.99542" lon="-0.96264">
        <ele>91.5</ele>
        <time>2025-08-25T12:41:26Z</time>
      </trkpt>
      <trkpt lat="46.99541" lon="-0.96261">
        <ele>91.5</ele>
        <time>2025-08-25T12:41:27Z</time>
      </trkpt>
      <trkpt lat="46.9954" lon="-0.9626">
        <ele>91.5</ele>
        <time>2025-08-25T12:41:28Z</time>
      </trkpt>
      <trkpt lat="46.9954" lon="-0.96259">
        <ele>91.5</ele>
        <time>2025-08-25T12:41:29Z</time>
      </trkpt>
      <trkpt lat="46.99539" lon="-0.96258">
        <ele>91.5</ele>
        <time>2025-08-25T12:41:30Z</time>
      </trkpt>
      <trkpt lat="46.99539" lon="-0.96257">
        <ele>91.5</ele>
        <time>2025-08-25T12:41:31Z</time>
      </trkpt>
      <trkpt lat="46.99538" lon="-0.96256">
        <ele>91.5</ele>
        <time>2025-08-25T12:41:32Z</time>
      </trkpt>
      <trkpt lat="46.99537" lon="-0.96255">
        <ele>91.5</ele>
        <time>2025-08-25T12:41:33Z</time>
      </trkpt>
      <trkpt lat="46.99537" lon="-0.96254">
        <ele>91.6</ele>
        <time>2025-08-25T12:41:34Z</time>
      </trkpt>
      <trkpt lat="46.99536" lon="-0.96253">
        <ele>91.6</ele>
        <time>2025-08-25T12:41:35Z</time>
      </trkpt>
      <trkpt lat="46.99534" lon="-0.96251">
        <ele>91.6</ele>
        <time>2025-08-25T12:41:36Z</time>
      </trkpt>
      <trkpt lat="46.99534" lon="-0.9625">
        <ele>91.6</ele>
        <time>2025-08-25T12:41:37Z</time>
      </trkpt>
      <trkpt lat="46.99533" lon="-0.96249">
        <ele>91.6</ele>
        <time>2025-08-25T12:41:38Z</time>
      </trkpt>
      <trkpt lat="46.99532" lon="-0.96247">
        <ele>91.6</ele>
        <time>2025-08-25T12:41:39Z</time>
      </trkpt>
      <trkpt lat="46.99531" lon="-0.96246">
        <ele>91.6</ele>
        <time>2025-08-25T12:41:40Z</time>
      </trkpt>
      <trkpt lat="46.9953" lon="-0.96244">
        <ele>91.6</ele>
        <time>2025-08-25T12:41:41Z</time>
      </trkpt>
      <trkpt lat="46.99528" lon="-0.96243">
        <ele>91.5</ele>
        <time>2025-08-25T12:41:42Z</time>
      </trkpt>
      <trkpt lat="46.99528" lon="-0.9624">
        <ele>91.5</ele>
        <time>2025-08-25T12:41:43Z</time>
      </trkpt>
      <trkpt lat="46.99527" lon="-0.96239">
        <ele>91.5</ele>
        <time>2025-08-25T12:41:44Z</time>
      </trkpt>
      <trkpt lat="46.99526" lon="-0.96237">
        <ele>91.5</ele>
        <time>2025-08-25T12:41:45Z</time>
      </trkpt>
      <trkpt lat="46.99525" lon="-0.96235">
        <ele>91.5</ele>
        <time>2025-08-25T12:41:46Z</time>
      </trkpt>
      <trkpt lat="46.99523" lon="-0.96233">
        <ele>91.5</ele>
        <time>2025-08-25T12:41:47Z</time>
      </trkpt>
      <trkpt lat="46.99522" lon="-0.96232">
        <ele>91.5</ele>
        <time>2025-08-25T12:41:48Z</time>
      </trkpt>
      <trkpt lat="46.99522" lon="-0.96231">
        <ele>91.5</ele>
        <time>2025-08-25T12:41:49Z</time>
      </trkpt>
      <trkpt lat="46.99521" lon="-0.9623">
        <ele>91.5</ele>
        <time>2025-08-25T12:41:50Z</time>
      </trkpt>
      <trkpt lat="46.99521" lon="-0.96229">
        <ele>91.4</ele>
        <time>2025-08-25T12:41:51Z</time>
      </trkpt>
      <trkpt lat="46.9952" lon="-0.96227">
        <ele>91.4</ele>
        <time>2025-08-25T12:41:52Z</time>
      </trkpt>
      <trkpt lat="46.99519" lon="-0.96226">
        <ele>91.4</ele>
        <time>2025-08-25T12:41:53Z</time>
      </trkpt>
      <trkpt lat="46.99518" lon="-0.96224">
        <ele>91.4</ele>
        <time>2025-08-25T12:41:54Z</time>
      </trkpt>
      <trkpt lat="46.99518" lon="-0.96223">
        <ele>91.4</ele>
        <time>2025-08-25T12:41:55Z</time>
      </trkpt>
      <trkpt lat="46.99517" lon="-0.96222">
        <ele>91.4</ele>
        <time>2025-08-25T12:41:56Z</time>
      </trkpt>
      <trkpt lat="46.99516" lon="-0.9622">
        <ele>91.4</ele>
        <time>2025-08-25T12:41:57Z</time>
      </trkpt>
      <trkpt lat="46.99516" lon="-0.96218">
        <ele>91.4</ele>
        <time>2025-08-25T12:41:58Z</time>
      </trkpt>
      <trkpt lat="46.99515" lon="-0.96217">
        <ele>91.3</ele>
        <time>2025-08-25T12:41:59Z</time>
      </trkpt>
      <trkpt lat="46.99515" lon="-0.96216">
        <ele>91.3</ele>
        <time>2025-08-25T12:42:00Z</time>
      </trkpt>
      <trkpt lat="46.99515" lon="-0.96215">
        <ele>91.3</ele>
        <time>2025-08-25T12:42:01Z</time>
      </trkpt>
      <trkpt lat="46.99514" lon="-0.96213">
        <ele>91.3</ele>
        <time>2025-08-25T12:42:02Z</time>
      </trkpt>
      <trkpt lat="46.99514" lon="-0.96211">
        <ele>91.3</ele>
        <time>2025-08-25T12:42:03Z</time>
      </trkpt>
      <trkpt lat="46.99514" lon="-0.9621">
        <ele>91.3</ele>
        <time>2025-08-25T12:42:04Z</time>
      </trkpt>
      <trkpt lat="46.99513" lon="-0.96208">
        <ele>91.3</ele>
        <time>2025-08-25T12:42:05Z</time>
      </trkpt>
      <trkpt lat="46.99513" lon="-0.96207">
        <ele>91.3</ele>
        <time>2025-08-25T12:42:06Z</time>
      </trkpt>
      <trkpt lat="46.99512" lon="-0.96205">
        <ele>91.3</ele>
        <time>2025-08-25T12:42:07Z</time>
      </trkpt>
      <trkpt lat="46.99512" lon="-0.96204">
        <ele>91.2</ele>
        <time>2025-08-25T12:42:08Z</time>
      </trkpt>
      <trkpt lat="46.99511" lon="-0.96203">
        <ele>91.2</ele>
        <time>2025-08-25T12:42:09Z</time>
      </trkpt>
      <trkpt lat="46.9951" lon="-0.96201">
        <ele>91.2</ele>
        <time>2025-08-25T12:42:10Z</time>
      </trkpt>
      <trkpt lat="46.99509" lon="-0.962">
        <ele>91.2</ele>
        <time>2025-08-25T12:42:11Z</time>
      </trkpt>
      <trkpt lat="46.99509" lon="-0.96198">
        <ele>91.2</ele>
        <time>2025-08-25T12:42:12Z</time>
      </trkpt>
      <trkpt lat="46.99508" lon="-0.96195">
        <ele>91.2</ele>
        <time>2025-08-25T12:42:13Z</time>
      </trkpt>
      <trkpt lat="46.99507" lon="-0.96194">
        <ele>91.2</ele>
        <time>2025-08-25T12:42:14Z</time>
      </trkpt>
      <trkpt lat="46.99507" lon="-0.96193">
        <ele>91.2</ele>
        <time>2025-08-25T12:42:15Z</time>
      </trkpt>
      <trkpt lat="46.99506" lon="-0.96192">
        <ele>91.1</ele>
        <time>2025-08-25T12:42:16Z</time>
      </trkpt>
      <trkpt lat="46.99506" lon="-0.9619">
        <ele>91.1</ele>
        <time>2025-08-25T12:42:17Z</time>
      </trkpt>
      <trkpt lat="46.99505" lon="-0.96189">
        <ele>91.1</ele>
        <time>2025-08-25T12:42:18Z</time>
      </trkpt>
      <trkpt lat="46.99504" lon="-0.96188">
        <ele>91.1</ele>
        <time>2025-08-25T12:42:19Z</time>
      </trkpt>
      <trkpt lat="46.99504" lon="-0.96187">
        <ele>91.1</ele>
        <time>2025-08-25T12:42:20Z</time>
      </trkpt>
      <trkpt lat="46.99503" lon="-0.96185">
        <ele>91.1</ele>
        <time>2025-08-25T12:42:21Z</time>
      </trkpt>
      <trkpt lat="46.99503" lon="-0.96182">
        <ele>91.1</ele>
        <time>2025-08-25T12:42:22Z</time>
      </trkpt>
      <trkpt lat="46.99502" lon="-0.96181">
        <ele>91</ele>
        <time>2025-08-25T12:42:23Z</time>
      </trkpt>
      <trkpt lat="46.99502" lon="-0.9618">
        <ele>91</ele>
        <time>2025-08-25T12:42:24Z</time>
      </trkpt>
      <trkpt lat="46.99501" lon="-0.96177">
        <ele>91</ele>
        <time>2025-08-25T12:42:25Z</time>
      </trkpt>
      <trkpt lat="46.99501" lon="-0.96176">
        <ele>91</ele>
        <time>2025-08-25T12:42:26Z</time>
      </trkpt>
      <trkpt lat="46.995" lon="-0.96175">
        <ele>91</ele>
        <time>2025-08-25T12:42:27Z</time>
      </trkpt>
      <trkpt lat="46.995" lon="-0.96173">
        <ele>90.9</ele>
        <time>2025-08-25T12:42:28Z</time>
      </trkpt>
      <trkpt lat="46.99499" lon="-0.96171">
        <ele>90.9</ele>
        <time>2025-08-25T12:42:29Z</time>
      </trkpt>
      <trkpt lat="46.99498" lon="-0.9617">
        <ele>90.9</ele>
        <time>2025-08-25T12:42:30Z</time>
      </trkpt>
      <trkpt lat="46.99497" lon="-0.96168">
        <ele>90.8</ele>
        <time>2025-08-25T12:42:31Z</time>
      </trkpt>
      <trkpt lat="46.99496" lon="-0.96165">
        <ele>90.8</ele>
        <time>2025-08-25T12:42:32Z</time>
      </trkpt>
      <trkpt lat="46.99496" lon="-0.96164">
        <ele>90.8</ele>
        <time>2025-08-25T12:42:33Z</time>
      </trkpt>
      <trkpt lat="46.99496" lon="-0.96163">
        <ele>90.8</ele>
        <time>2025-08-25T12:42:34Z</time>
      </trkpt>
      <trkpt lat="46.99495" lon="-0.9616">
        <ele>90.7</ele>
        <time>2025-08-25T12:42:35Z</time>
      </trkpt>
      <trkpt lat="46.99494" lon="-0.96159">
        <ele>90.7</ele>
        <time>2025-08-25T12:42:36Z</time>
      </trkpt>
      <trkpt lat="46.99494" lon="-0.96158">
        <ele>90.6</ele>
        <time>2025-08-25T12:42:37Z</time>
      </trkpt>
      <trkpt lat="46.99494" lon="-0.96156">
        <ele>90.6</ele>
        <time>2025-08-25T12:42:38Z</time>
      </trkpt>
      <trkpt lat="46.99493" lon="-0.96155">
        <ele>90.6</ele>
        <time>2025-08-25T12:42:39Z</time>
      </trkpt>
      <trkpt lat="46.99493" lon="-0.96153">
        <ele>90.5</ele>
        <time>2025-08-25T12:42:40Z</time>
      </trkpt>
      <trkpt lat="46.99492" lon="-0.9615">
        <ele>90.5</ele>
        <time>2025-08-25T12:42:41Z</time>
      </trkpt>
      <trkpt lat="46.99492" lon="-0.96149">
        <ele>90.4</ele>
        <time>2025-08-25T12:42:42Z</time>
      </trkpt>
      <trkpt lat="46.99492" lon="-0.96148">
        <ele>90.4</ele>
        <time>2025-08-25T12:42:43Z</time>
      </trkpt>
      <trkpt lat="46.99491" lon="-0.96145">
        <ele>90.3</ele>
        <time>2025-08-25T12:42:44Z</time>
      </trkpt>
      <trkpt lat="46.99491" lon="-0.96143">
        <ele>90.3</ele>
        <time>2025-08-25T12:42:45Z</time>
      </trkpt>
      <trkpt lat="46.9949" lon="-0.96142">
        <ele>90.3</ele>
        <time>2025-08-25T12:42:46Z</time>
      </trkpt>
      <trkpt lat="46.9949" lon="-0.9614">
        <ele>90.2</ele>
        <time>2025-08-25T12:42:47Z</time>
      </trkpt>
      <trkpt lat="46.99489" lon="-0.96138">
        <ele>90.1</ele>
        <time>2025-08-25T12:42:48Z</time>
      </trkpt>
      <trkpt lat="46.99488" lon="-0.96135">
        <ele>90</ele>
        <time>2025-08-25T12:42:49Z</time>
      </trkpt>
      <trkpt lat="46.99488" lon="-0.96134">
        <ele>90</ele>
        <time>2025-08-25T12:42:50Z</time>
      </trkpt>
      <trkpt lat="46.99488" lon="-0.96132">
        <ele>90</ele>
        <time>2025-08-25T12:42:51Z</time>
      </trkpt>
      <trkpt lat="46.99487" lon="-0.96131">
        <ele>89.9</ele>
        <time>2025-08-25T12:42:52Z</time>
      </trkpt>
      <trkpt lat="46.99487" lon="-0.96128">
        <ele>89.8</ele>
        <time>2025-08-25T12:42:53Z</time>
      </trkpt>
      <trkpt lat="46.99485" lon="-0.96125">
        <ele>89.7</ele>
        <time>2025-08-25T12:42:54Z</time>
      </trkpt>
      <trkpt lat="46.99485" lon="-0.96124">
        <ele>89.6</ele>
        <time>2025-08-25T12:42:55Z</time>
      </trkpt>
      <trkpt lat="46.99484" lon="-0.96123">
        <ele>89.6</ele>
        <time>2025-08-25T12:42:56Z</time>
      </trkpt>
      <trkpt lat="46.99484" lon="-0.96121">
        <ele>89.5</ele>
        <time>2025-08-25T12:42:57Z</time>
      </trkpt>
      <trkpt lat="46.99483" lon="-0.96119">
        <ele>89.5</ele>
        <time>2025-08-25T12:42:58Z</time>
      </trkpt>
      <trkpt lat="46.99481" lon="-0.96116">
        <ele>89.4</ele>
        <time>2025-08-25T12:43:00Z</time>
      </trkpt>
      <trkpt lat="46.99481" lon="-0.96114">
        <ele>89.3</ele>
        <time>2025-08-25T12:43:01Z</time>
      </trkpt>
      <trkpt lat="46.9948" lon="-0.96113">
        <ele>89.3</ele>
        <time>2025-08-25T12:43:02Z</time>
      </trkpt>
      <trkpt lat="46.9948" lon="-0.96111">
        <ele>89.3</ele>
        <time>2025-08-25T12:43:03Z</time>
      </trkpt>
      <trkpt lat="46.99479" lon="-0.9611">
        <ele>89.2</ele>
        <time>2025-08-25T12:43:04Z</time>
      </trkpt>
      <trkpt lat="46.99479" lon="-0.96108">
        <ele>89.2</ele>
        <time>2025-08-25T12:43:05Z</time>
      </trkpt>
      <trkpt lat="46.99478" lon="-0.96106">
        <ele>89.1</ele>
        <time>2025-08-25T12:43:06Z</time>
      </trkpt>
      <trkpt lat="46.99477" lon="-0.96104">
        <ele>89.1</ele>
        <time>2025-08-25T12:43:07Z</time>
      </trkpt>
      <trkpt lat="46.99477" lon="-0.96103">
        <ele>89</ele>
        <time>2025-08-25T12:43:08Z</time>
      </trkpt>
      <trkpt lat="46.99476" lon="-0.96101">
        <ele>89</ele>
        <time>2025-08-25T12:43:09Z</time>
      </trkpt>
      <trkpt lat="46.99475" lon="-0.96099">
        <ele>88.9</ele>
        <time>2025-08-25T12:43:10Z</time>
      </trkpt>
      <trkpt lat="46.99474" lon="-0.96098">
        <ele>88.8</ele>
        <time>2025-08-25T12:43:11Z</time>
      </trkpt>
      <trkpt lat="46.99473" lon="-0.96096">
        <ele>88.8</ele>
        <time>2025-08-25T12:43:12Z</time>
      </trkpt>
      <trkpt lat="46.99473" lon="-0.96095">
        <ele>88.8</ele>
        <time>2025-08-25T12:43:13Z</time>
      </trkpt>
      <trkpt lat="46.99472" lon="-0.96093">
        <ele>88.7</ele>
        <time>2025-08-25T12:43:14Z</time>
      </trkpt>
      <trkpt lat="46.99471" lon="-0.96092">
        <ele>88.7</ele>
        <time>2025-08-25T12:43:15Z</time>
      </trkpt>
      <trkpt lat="46.9947" lon="-0.9609">
        <ele>88.6</ele>
        <time>2025-08-25T12:43:16Z</time>
      </trkpt>
      <trkpt lat="46.99469" lon="-0.96087">
        <ele>88.6</ele>
        <time>2025-08-25T12:43:17Z</time>
      </trkpt>
      <trkpt lat="46.99469" lon="-0.96086">
        <ele>88.5</ele>
        <time>2025-08-25T12:43:18Z</time>
      </trkpt>
      <trkpt lat="46.99468" lon="-0.96085">
        <ele>88.5</ele>
        <time>2025-08-25T12:43:19Z</time>
      </trkpt>
      <trkpt lat="46.99468" lon="-0.96084">
        <ele>88.5</ele>
        <time>2025-08-25T12:43:20Z</time>
      </trkpt>
      <trkpt lat="46.99467" lon="-0.96082">
        <ele>88.4</ele>
        <time>2025-08-25T12:43:21Z</time>
      </trkpt>
      <trkpt lat="46.99466" lon="-0.96081">
        <ele>88.4</ele>
        <time>2025-08-25T12:43:22Z</time>
      </trkpt>
      <trkpt lat="46.99465" lon="-0.96079">
        <ele>88.3</ele>
        <time>2025-08-25T12:43:23Z</time>
      </trkpt>
      <trkpt lat="46.99465" lon="-0.96077">
        <ele>88.3</ele>
        <time>2025-08-25T12:43:24Z</time>
      </trkpt>
      <trkpt lat="46.99464" lon="-0.96075">
        <ele>88.3</ele>
        <time>2025-08-25T12:43:25Z</time>
      </trkpt>
      <trkpt lat="46.99463" lon="-0.96074">
        <ele>88.2</ele>
        <time>2025-08-25T12:43:26Z</time>
      </trkpt>
      <trkpt lat="46.99462" lon="-0.96072">
        <ele>88.2</ele>
        <time>2025-08-25T12:43:27Z</time>
      </trkpt>
      <trkpt lat="46.99461" lon="-0.9607">
        <ele>88.1</ele>
        <time>2025-08-25T12:43:28Z</time>
      </trkpt>
      <trkpt lat="46.9946" lon="-0.96068">
        <ele>88.1</ele>
        <time>2025-08-25T12:43:29Z</time>
      </trkpt>
      <trkpt lat="46.99459" lon="-0.96066">
        <ele>88.1</ele>
        <time>2025-08-25T12:43:30Z</time>
      </trkpt>
      <trkpt lat="46.99459" lon="-0.96064">
        <ele>88</ele>
        <time>2025-08-25T12:43:31Z</time>
      </trkpt>
      <trkpt lat="46.99458" lon="-0.96062">
        <ele>88</ele>
        <time>2025-08-25T12:43:32Z</time>
      </trkpt>
      <trkpt lat="46.99457" lon="-0.9606">
        <ele>87.9</ele>
        <time>2025-08-25T12:43:33Z</time>
      </trkpt>
      <trkpt lat="46.99456" lon="-0.96059">
        <ele>87.9</ele>
        <time>2025-08-25T12:43:34Z</time>
      </trkpt>
      <trkpt lat="46.99455" lon="-0.96056">
        <ele>87.9</ele>
        <time>2025-08-25T12:43:35Z</time>
      </trkpt>
      <trkpt lat="46.99455" lon="-0.96055">
        <ele>87.8</ele>
        <time>2025-08-25T12:43:36Z</time>
      </trkpt>
      <trkpt lat="46.99455" lon="-0.96054">
        <ele>87.8</ele>
        <time>2025-08-25T12:43:37Z</time>
      </trkpt>
      <trkpt lat="46.99454" lon="-0.96053">
        <ele>87.8</ele>
        <time>2025-08-25T12:43:38Z</time>
      </trkpt>
      <trkpt lat="46.99453" lon="-0.96051">
        <ele>87.8</ele>
        <time>2025-08-25T12:43:39Z</time>
      </trkpt>
      <trkpt lat="46.99453" lon="-0.9605">
        <ele>87.7</ele>
        <time>2025-08-25T12:43:40Z</time>
      </trkpt>
      <trkpt lat="46.99452" lon="-0.96047">
        <ele>87.7</ele>
        <time>2025-08-25T12:43:41Z</time>
      </trkpt>
      <trkpt lat="46.99452" lon="-0.96045">
        <ele>87.7</ele>
        <time>2025-08-25T12:43:42Z</time>
      </trkpt>
      <trkpt lat="46.99452" lon="-0.96044">
        <ele>87.7</ele>
        <time>2025-08-25T12:43:43Z</time>
      </trkpt>
      <trkpt lat="46.99452" lon="-0.96041">
        <ele>87.6</ele>
        <time>2025-08-25T12:43:44Z</time>
      </trkpt>
      <trkpt lat="46.99452" lon="-0.9604">
        <ele>87.6</ele>
        <time>2025-08-25T12:43:45Z</time>
      </trkpt>
      <trkpt lat="46.99452" lon="-0.96039">
        <ele>87.6</ele>
        <time>2025-08-25T12:43:46Z</time>
      </trkpt>
      <trkpt lat="46.99452" lon="-0.96037">
        <ele>87.6</ele>
        <time>2025-08-25T12:43:47Z</time>
      </trkpt>
      <trkpt lat="46.99452" lon="-0.96035">
        <ele>87.6</ele>
        <time>2025-08-25T12:43:48Z</time>
      </trkpt>
      <trkpt lat="46.99452" lon="-0.96034">
        <ele>87.6</ele>
        <time>2025-08-25T12:43:49Z</time>
      </trkpt>
      <trkpt lat="46.99453" lon="-0.96031">
        <ele>87.6</ele>
        <time>2025-08-25T12:43:50Z</time>
      </trkpt>
      <trkpt lat="46.99453" lon="-0.96029">
        <ele>87.6</ele>
        <time>2025-08-25T12:43:51Z</time>
      </trkpt>
      <trkpt lat="46.99453" lon="-0.96028">
        <ele>87.6</ele>
        <time>2025-08-25T12:43:52Z</time>
      </trkpt>
      <trkpt lat="46.99454" lon="-0.96026">
        <ele>87.6</ele>
        <time>2025-08-25T12:43:53Z</time>
      </trkpt>
      <trkpt lat="46.99454" lon="-0.96025">
        <ele>87.6</ele>
        <time>2025-08-25T12:43:54Z</time>
      </trkpt>
      <trkpt lat="46.99455" lon="-0.96023">
        <ele>87.6</ele>
        <time>2025-08-25T12:43:55Z</time>
      </trkpt>
      <trkpt lat="46.99455" lon="-0.96022">
        <ele>87.6</ele>
        <time>2025-08-25T12:43:56Z</time>
      </trkpt>
      <trkpt lat="46.99456" lon="-0.96021">
        <ele>87.6</ele>
        <time>2025-08-25T12:43:57Z</time>
      </trkpt>
      <trkpt lat="46.99456" lon="-0.96019">
        <ele>87.6</ele>
        <time>2025-08-25T12:43:58Z</time>
      </trkpt>
      <trkpt lat="46.99456" lon="-0.96017">
        <ele>87.7</ele>
        <time>2025-08-25T12:43:59Z</time>
      </trkpt>
      <trkpt lat="46.99457" lon="-0.96016">
        <ele>87.7</ele>
        <time>2025-08-25T12:44:00Z</time>
      </trkpt>
      <trkpt lat="46.99457" lon="-0.96014">
        <ele>87.7</ele>
        <time>2025-08-25T12:44:01Z</time>
      </trkpt>
      <trkpt lat="46.99458" lon="-0.96013">
        <ele>87.7</ele>
        <time>2025-08-25T12:44:02Z</time>
      </trkpt>
      <trkpt lat="46.99458" lon="-0.96011">
        <ele>87.8</ele>
        <time>2025-08-25T12:44:03Z</time>
      </trkpt>
      <trkpt lat="46.99458" lon="-0.9601">
        <ele>87.8</ele>
        <time>2025-08-25T12:44:04Z</time>
      </trkpt>
      <trkpt lat="46.99459" lon="-0.96008">
        <ele>87.8</ele>
        <time>2025-08-25T12:44:05Z</time>
      </trkpt>
      <trkpt lat="46.99459" lon="-0.96007">
        <ele>87.9</ele>
        <time>2025-08-25T12:44:06Z</time>
      </trkpt>
      <trkpt lat="46.9946" lon="-0.96006">
        <ele>87.9</ele>
        <time>2025-08-25T12:44:07Z</time>
      </trkpt>
      <trkpt lat="46.9946" lon="-0.96004">
        <ele>87.9</ele>
        <time>2025-08-25T12:44:08Z</time>
      </trkpt>
      <trkpt lat="46.99461" lon="-0.96003">
        <ele>87.9</ele>
        <time>2025-08-25T12:44:09Z</time>
      </trkpt>
      <trkpt lat="46.99461" lon="-0.96001">
        <ele>87.7</ele>
        <time>2025-08-25T12:44:10Z</time>
      </trkpt>
      <trkpt lat="46.99461" lon="-0.96">
        <ele>87.6</ele>
        <time>2025-08-25T12:44:11Z</time>
      </trkpt>
      <trkpt lat="46.9946" lon="-0.95999">
        <ele>87.4</ele>
        <time>2025-08-25T12:44:12Z</time>
      </trkpt>
      <trkpt lat="46.99458" lon="-0.95999">
        <ele>87.3</ele>
        <time>2025-08-25T12:44:13Z</time>
      </trkpt>
      <trkpt lat="46.99457" lon="-0.95999">
        <ele>87.1</ele>
        <time>2025-08-25T12:44:14Z</time>
      </trkpt>
      <trkpt lat="46.99456" lon="-0.96001">
        <ele>86.9</ele>
        <time>2025-08-25T12:44:15Z</time>
      </trkpt>
      <trkpt lat="46.99455" lon="-0.96003">
        <ele>86.7</ele>
        <time>2025-08-25T12:44:16Z</time>
      </trkpt>
      <trkpt lat="46.99454" lon="-0.96005">
        <ele>86.5</ele>
        <time>2025-08-25T12:44:17Z</time>
      </trkpt>
      <trkpt lat="46.99452" lon="-0.96007">
        <ele>86.2</ele>
        <time>2025-08-25T12:44:18Z</time>
      </trkpt>
      <trkpt lat="46.99452" lon="-0.96008">
        <ele>86</ele>
        <time>2025-08-25T12:44:19Z</time>
      </trkpt>
      <trkpt lat="46.99451" lon="-0.96009">
        <ele>85.9</ele>
        <time>2025-08-25T12:44:20Z</time>
      </trkpt>
      <trkpt lat="46.9945" lon="-0.96011">
        <ele>85.7</ele>
        <time>2025-08-25T12:44:21Z</time>
      </trkpt>
      <trkpt lat="46.99449" lon="-0.96013">
        <ele>85.5</ele>
        <time>2025-08-25T12:44:22Z</time>
      </trkpt>
      <trkpt lat="46.99449" lon="-0.96014">
        <ele>85.3</ele>
        <time>2025-08-25T12:44:23Z</time>
      </trkpt>
      <trkpt lat="46.99448" lon="-0.96016">
        <ele>85.1</ele>
        <time>2025-08-25T12:44:24Z</time>
      </trkpt>
      <trkpt lat="46.99446" lon="-0.96018">
        <ele>84.7</ele>
        <time>2025-08-25T12:44:25Z</time>
      </trkpt>
      <trkpt lat="46.99446" lon="-0.96019">
        <ele>84.6</ele>
        <time>2025-08-25T12:44:26Z</time>
      </trkpt>
      <trkpt lat="46.99445" lon="-0.9602">
        <ele>84.4</ele>
        <time>2025-08-25T12:44:27Z</time>
      </trkpt>
      <trkpt lat="46.99445" lon="-0.96021">
        <ele>84.3</ele>
        <time>2025-08-25T12:44:28Z</time>
      </trkpt>
      <trkpt lat="46.99444" lon="-0.96023">
        <ele>84.2</ele>
        <time>2025-08-25T12:44:29Z</time>
      </trkpt>
      <trkpt lat="46.99443" lon="-0.96024">
        <ele>83.9</ele>
        <time>2025-08-25T12:44:30Z</time>
      </trkpt>
      <trkpt lat="46.99442" lon="-0.96026">
        <ele>83.6</ele>
        <time>2025-08-25T12:44:31Z</time>
      </trkpt>
      <trkpt lat="46.99441" lon="-0.96028">
        <ele>83.4</ele>
        <time>2025-08-25T12:44:32Z</time>
      </trkpt>
      <trkpt lat="46.99441" lon="-0.96029">
        <ele>83.2</ele>
        <time>2025-08-25T12:44:33Z</time>
      </trkpt>
      <trkpt lat="46.9944" lon="-0.9603">
        <ele>83</ele>
        <time>2025-08-25T12:44:34Z</time>
      </trkpt>
      <trkpt lat="46.99439" lon="-0.96031">
        <ele>82.8</ele>
        <time>2025-08-25T12:44:35Z</time>
      </trkpt>
      <trkpt lat="46.99438" lon="-0.96033">
        <ele>82.6</ele>
        <time>2025-08-25T12:44:36Z</time>
      </trkpt>
      <trkpt lat="46.99438" lon="-0.96034">
        <ele>82.3</ele>
        <time>2025-08-25T12:44:37Z</time>
      </trkpt>
      <trkpt lat="46.99437" lon="-0.96035">
        <ele>82.1</ele>
        <time>2025-08-25T12:44:38Z</time>
      </trkpt>
      <trkpt lat="46.99436" lon="-0.96037">
        <ele>81.9</ele>
        <time>2025-08-25T12:44:39Z</time>
      </trkpt>
      <trkpt lat="46.99435" lon="-0.96038">
        <ele>81.7</ele>
        <time>2025-08-25T12:44:40Z</time>
      </trkpt>
      <trkpt lat="46.99434" lon="-0.96039">
        <ele>81.5</ele>
        <time>2025-08-25T12:44:41Z</time>
      </trkpt>
      <trkpt lat="46.99433" lon="-0.9604">
        <ele>81.2</ele>
        <time>2025-08-25T12:44:42Z</time>
      </trkpt>
      <trkpt lat="46.99432" lon="-0.9604">
        <ele>80.9</ele>
        <time>2025-08-25T12:44:43Z</time>
      </trkpt>
      <trkpt lat="46.99431" lon="-0.9604">
        <ele>80.8</ele>
        <time>2025-08-25T12:44:44Z</time>
      </trkpt>
      <trkpt lat="46.99429" lon="-0.9604">
        <ele>80.5</ele>
        <time>2025-08-25T12:44:45Z</time>
      </trkpt>
      <trkpt lat="46.99428" lon="-0.9604">
        <ele>80.4</ele>
        <time>2025-08-25T12:44:46Z</time>
      </trkpt>
      <trkpt lat="46.99427" lon="-0.9604">
        <ele>80.2</ele>
        <time>2025-08-25T12:44:47Z</time>
      </trkpt>
      <trkpt lat="46.99425" lon="-0.96038">
        <ele>79.9</ele>
        <time>2025-08-25T12:44:48Z</time>
      </trkpt>
      <trkpt lat="46.99424" lon="-0.96038">
        <ele>79.8</ele>
        <time>2025-08-25T12:44:49Z</time>
      </trkpt>
      <trkpt lat="46.99424" lon="-0.96037">
        <ele>79.7</ele>
        <time>2025-08-25T12:44:50Z</time>
      </trkpt>
      <trkpt lat="46.99422" lon="-0.96036">
        <ele>79.4</ele>
        <time>2025-08-25T12:44:51Z</time>
      </trkpt>
      <trkpt lat="46.99421" lon="-0.96035">
        <ele>79.2</ele>
        <time>2025-08-25T12:44:52Z</time>
      </trkpt>
      <trkpt lat="46.9942" lon="-0.96035">
        <ele>79.1</ele>
        <time>2025-08-25T12:44:53Z</time>
      </trkpt>
      <trkpt lat="46.99419" lon="-0.96034">
        <ele>78.9</ele>
        <time>2025-08-25T12:44:54Z</time>
      </trkpt>
      <trkpt lat="46.99418" lon="-0.96033">
        <ele>78.7</ele>
        <time>2025-08-25T12:44:55Z</time>
      </trkpt>
      <trkpt lat="46.99417" lon="-0.96032">
        <ele>78.6</ele>
        <time>2025-08-25T12:44:56Z</time>
      </trkpt>
      <trkpt lat="46.99416" lon="-0.96031">
        <ele>78.4</ele>
        <time>2025-08-25T12:44:57Z</time>
      </trkpt>
      <trkpt lat="46.99415" lon="-0.9603">
        <ele>78.2</ele>
        <time>2025-08-25T12:44:58Z</time>
      </trkpt>
      <trkpt lat="46.99414" lon="-0.96029">
        <ele>78.1</ele>
        <time>2025-08-25T12:44:59Z</time>
      </trkpt>
      <trkpt lat="46.99413" lon="-0.96028">
        <ele>77.9</ele>
        <time>2025-08-25T12:45:00Z</time>
      </trkpt>
      <trkpt lat="46.99412" lon="-0.96028">
        <ele>77.7</ele>
        <time>2025-08-25T12:45:01Z</time>
      </trkpt>
      <trkpt lat="46.99411" lon="-0.96027">
        <ele>77.5</ele>
        <time>2025-08-25T12:45:02Z</time>
      </trkpt>
      <trkpt lat="46.9941" lon="-0.96025">
        <ele>77.3</ele>
        <time>2025-08-25T12:45:03Z</time>
      </trkpt>
      <trkpt lat="46.99409" lon="-0.96024">
        <ele>77</ele>
        <time>2025-08-25T12:45:04Z</time>
      </trkpt>
      <trkpt lat="46.99408" lon="-0.96023">
        <ele>76.8</ele>
        <time>2025-08-25T12:45:05Z</time>
      </trkpt>
      <trkpt lat="46.99407" lon="-0.96022">
        <ele>76.7</ele>
        <time>2025-08-25T12:45:06Z</time>
      </trkpt>
      <trkpt lat="46.99406" lon="-0.96021">
        <ele>76.5</ele>
        <time>2025-08-25T12:45:07Z</time>
      </trkpt>
      <trkpt lat="46.99405" lon="-0.96019">
        <ele>76.3</ele>
        <time>2025-08-25T12:45:08Z</time>
      </trkpt>
      <trkpt lat="46.99403" lon="-0.96017">
        <ele>76</ele>
        <time>2025-08-25T12:45:09Z</time>
      </trkpt>
      <trkpt lat="46.99402" lon="-0.96016">
        <ele>75.8</ele>
        <time>2025-08-25T12:45:10Z</time>
      </trkpt>
      <trkpt lat="46.99402" lon="-0.96015">
        <ele>75.7</ele>
        <time>2025-08-25T12:45:11Z</time>
      </trkpt>
      <trkpt lat="46.994" lon="-0.96013">
        <ele>75.4</ele>
        <time>2025-08-25T12:45:12Z</time>
      </trkpt>
      <trkpt lat="46.994" lon="-0.96012">
        <ele>75.3</ele>
        <time>2025-08-25T12:45:13Z</time>
      </trkpt>
      <trkpt lat="46.99399" lon="-0.96011">
        <ele>75.2</ele>
        <time>2025-08-25T12:45:14Z</time>
      </trkpt>
      <trkpt lat="46.99399" lon="-0.9601">
        <ele>75</ele>
        <time>2025-08-25T12:45:15Z</time>
      </trkpt>
      <trkpt lat="46.99399" lon="-0.96008">
        <ele>74.8</ele>
        <time>2025-08-25T12:45:16Z</time>
      </trkpt>
      <trkpt lat="46.99399" lon="-0.96006">
        <ele>74.8</ele>
        <time>2025-08-25T12:45:17Z</time>
      </trkpt>
      <trkpt lat="46.99399" lon="-0.96005">
        <ele>74.7</ele>
        <time>2025-08-25T12:45:18Z</time>
      </trkpt>
      <trkpt lat="46.99399" lon="-0.96003">
        <ele>74.7</ele>
        <time>2025-08-25T12:45:19Z</time>
      </trkpt>
      <trkpt lat="46.99398" lon="-0.96002">
        <ele>74.7</ele>
        <time>2025-08-25T12:45:20Z</time>
      </trkpt>
      <trkpt lat="46.99398" lon="-0.96001">
        <ele>74.7</ele>
        <time>2025-08-25T12:45:21Z</time>
      </trkpt>
      <trkpt lat="46.99399" lon="-0.96">
        <ele>74.6</ele>
        <time>2025-08-25T12:45:22Z</time>
      </trkpt>
      <trkpt lat="46.994" lon="-0.96">
        <ele>74.6</ele>
        <time>2025-08-25T12:45:23Z</time>
      </trkpt>
      <trkpt lat="46.994" lon="-0.95999">
        <ele>74.6</ele>
        <time>2025-08-25T12:45:24Z</time>
      </trkpt>
      <trkpt lat="46.99401" lon="-0.95998">
        <ele>74.6</ele>
        <time>2025-08-25T12:45:25Z</time>
      </trkpt>
      <trkpt lat="46.99402" lon="-0.95997">
        <ele>74.6</ele>
        <time>2025-08-25T12:45:26Z</time>
      </trkpt>
      <trkpt lat="46.99402" lon="-0.95995">
        <ele>74.6</ele>
        <time>2025-08-25T12:45:27Z</time>
      </trkpt>
      <trkpt lat="46.99403" lon="-0.95994">
        <ele>74.6</ele>
        <time>2025-08-25T12:45:28Z</time>
      </trkpt>
      <trkpt lat="46.99403" lon="-0.95992">
        <ele>74.6</ele>
        <time>2025-08-25T12:45:29Z</time>
      </trkpt>
      <trkpt lat="46.99403" lon="-0.95991">
        <ele>74.6</ele>
        <time>2025-08-25T12:45:30Z</time>
      </trkpt>
      <trkpt lat="46.99404" lon="-0.9599">
        <ele>74.6</ele>
        <time>2025-08-25T12:45:31Z</time>
      </trkpt>
      <trkpt lat="46.99404" lon="-0.95988">
        <ele>74.6</ele>
        <time>2025-08-25T12:45:32Z</time>
      </trkpt>
      <trkpt lat="46.99404" lon="-0.95985">
        <ele>74.6</ele>
        <time>2025-08-25T12:45:34Z</time>
      </trkpt>
      <trkpt lat="46.99404" lon="-0.95984">
        <ele>74.6</ele>
        <time>2025-08-25T12:45:35Z</time>
      </trkpt>
      <trkpt lat="46.99405" lon="-0.95982">
        <ele>74.7</ele>
        <time>2025-08-25T12:45:36Z</time>
      </trkpt>
      <trkpt lat="46.99405" lon="-0.95981">
        <ele>74.8</ele>
        <time>2025-08-25T12:45:37Z</time>
      </trkpt>
      <trkpt lat="46.99406" lon="-0.95979">
        <ele>74.9</ele>
        <time>2025-08-25T12:45:38Z</time>
      </trkpt>
      <trkpt lat="46.99406" lon="-0.95978">
        <ele>75</ele>
        <time>2025-08-25T12:45:39Z</time>
      </trkpt>
      <trkpt lat="46.99406" lon="-0.95977">
        <ele>75</ele>
        <time>2025-08-25T12:45:40Z</time>
      </trkpt>
      <trkpt lat="46.99406" lon="-0.95976">
        <ele>75.1</ele>
        <time>2025-08-25T12:45:41Z</time>
      </trkpt>
      <trkpt lat="46.99406" lon="-0.95976">
        <ele>75.1</ele>
        <time>2025-08-25T12:45:42Z</time>
      </trkpt>
      <trkpt lat="46.99406" lon="-0.95975">
        <ele>75.2</ele>
        <time>2025-08-25T12:45:43Z</time>
      </trkpt>
      <trkpt lat="46.99406" lon="-0.95974">
        <ele>75.2</ele>
        <time>2025-08-25T12:45:44Z</time>
      </trkpt>
      <trkpt lat="46.99406" lon="-0.95973">
        <ele>75.3</ele>
        <time>2025-08-25T12:45:45Z</time>
      </trkpt>
      <trkpt lat="46.99405" lon="-0.95971">
        <ele>75.3</ele>
        <time>2025-08-25T12:45:46Z</time>
      </trkpt>
      <trkpt lat="46.99405" lon="-0.95971">
        <ele>75.4</ele>
        <time>2025-08-25T12:45:47Z</time>
      </trkpt>
      <trkpt lat="46.99405" lon="-0.9597">
        <ele>75.4</ele>
        <time>2025-08-25T12:45:48Z</time>
      </trkpt>
      <trkpt lat="46.99405" lon="-0.95969">
        <ele>75.5</ele>
        <time>2025-08-25T12:45:49Z</time>
      </trkpt>
      <trkpt lat="46.99405" lon="-0.95969">
        <ele>75.5</ele>
        <time>2025-08-25T12:45:50Z</time>
      </trkpt>
    </trkseg>
  </trk>
</gpx>